<?xml version='1.0' encoding='UTF-8'?><gpx version="1.1" creator="JPX - https://github.com/jenetics/jpx" xmlns="http://www.topografix.com/GPX/1/1"><trk><trkseg><trkpt lat="45.507531" lon="10.4628636"><ele>184.0</ele><time>2026-03-29T07:05:07.992Z</time></trkpt><trkpt lat="45.507459" lon="10.4628726"><ele>184.0</ele><time>2026-03-29T07:05:08.993Z</time></trkpt><trkpt lat="45.5073791" lon="10.462879"><ele>184.0</ele><time>2026-03-29T07:05:09.993Z</time></trkpt><trkpt lat="45.5072979" lon="10.4628918"><ele>184.0</ele><time>2026-03-29T07:05:10.993Z</time></trkpt><trkpt lat="45.507214" lon="10.4629163"><ele>184.0</ele><time>2026-03-29T07:05:11.993Z</time></trkpt><trkpt lat="45.5071384" lon="10.4629546"><ele>184.0</ele><time>2026-03-29T07:05:12.993Z</time></trkpt><trkpt lat="45.5070781" lon="10.463007"><ele>183.66666666666669</ele><time>2026-03-29T07:05:13.992Z</time></trkpt><trkpt lat="45.5070165" lon="10.463154"><ele>183.33333333333334</ele><time>2026-03-29T07:05:15.992Z</time></trkpt><trkpt lat="45.5069979" lon="10.4632918"><ele>183.0</ele><time>2026-03-29T07:05:16.993Z</time></trkpt><trkpt lat="45.5069991" lon="10.4633841"><ele>182.66666666666666</ele><time>2026-03-29T07:05:17.993Z</time></trkpt><trkpt lat="45.5070211" lon="10.463501"><ele>182.33333333333331</ele><time>2026-03-29T07:05:19.993Z</time></trkpt><trkpt lat="45.5070699" lon="10.4635653"><ele>182.0</ele><time>2026-03-29T07:06:30.991Z</time></trkpt><trkpt lat="45.5071655" lon="10.4635217"><ele>182.0</ele><time>2026-03-29T07:06:32.992Z</time></trkpt><trkpt lat="45.5072625" lon="10.4634777"><ele>182.0</ele><time>2026-03-29T07:06:34.991Z</time></trkpt><trkpt lat="45.5073828" lon="10.4634673"><ele>182.0</ele><time>2026-03-29T07:06:36.991Z</time></trkpt><trkpt lat="45.507454" lon="10.4634759"><ele>182.0</ele><time>2026-03-29T07:06:37.992Z</time></trkpt><trkpt lat="45.5075226" lon="10.4634941"><ele>182.0</ele><time>2026-03-29T07:06:38.991Z</time></trkpt><trkpt lat="45.5075945" lon="10.4635123"><ele>182.0</ele><time>2026-03-29T07:06:39.991Z</time></trkpt><trkpt lat="45.5076744" lon="10.4635347"><ele>182.0</ele><time>2026-03-29T07:06:40.992Z</time></trkpt><trkpt lat="45.5077589" lon="10.4635534"><ele>182.0</ele><time>2026-03-29T07:06:41.991Z</time></trkpt><trkpt lat="45.5078405" lon="10.4635596"><ele>182.0</ele><time>2026-03-29T07:06:42.992Z</time></trkpt><trkpt lat="45.5079193" lon="10.4635519"><ele>182.0</ele><time>2026-03-29T07:06:43.992Z</time></trkpt><trkpt lat="45.5079961" lon="10.4635377"><ele>182.0</ele><time>2026-03-29T07:06:44.992Z</time></trkpt><trkpt lat="45.5080672" lon="10.4635297"><ele>182.0</ele><time>2026-03-29T07:06:45.992Z</time></trkpt><trkpt lat="45.5081517" lon="10.4635145"><ele>183.0</ele><time>2026-03-29T07:06:47.992Z</time></trkpt><trkpt lat="45.5082227" lon="10.463487"><ele>184.0</ele><time>2026-03-29T07:06:50.991Z</time></trkpt><trkpt lat="45.5083144" lon="10.4634893"><ele>185.0</ele><time>2026-03-29T07:06:52.992Z</time></trkpt><trkpt lat="45.5083645" lon="10.4635495"><ele>186.0</ele><time>2026-03-29T07:06:54.992Z</time></trkpt><trkpt lat="45.5084499" lon="10.4636321"><ele>187.0</ele><time>2026-03-29T07:06:59.991Z</time></trkpt><trkpt lat="45.5085154" lon="10.4636324"><ele>188.0</ele><time>2026-03-29T07:07:00.992Z</time></trkpt><trkpt lat="45.5086001" lon="10.4636158"><ele>188.0</ele><time>2026-03-29T07:07:01.992Z</time></trkpt><trkpt lat="45.5086961" lon="10.4635856"><ele>188.0</ele><time>2026-03-29T07:07:02.991Z</time></trkpt><trkpt lat="45.5088047" lon="10.4635517"><ele>188.0</ele><time>2026-03-29T07:07:03.993Z</time></trkpt><trkpt lat="45.5089198" lon="10.4635147"><ele>188.0</ele><time>2026-03-29T07:07:04.992Z</time></trkpt><trkpt lat="45.5090374" lon="10.4634752"><ele>188.0</ele><time>2026-03-29T07:07:05.992Z</time></trkpt><trkpt lat="45.5091519" lon="10.4634393"><ele>188.0</ele><time>2026-03-29T07:07:06.992Z</time></trkpt><trkpt lat="45.5092697" lon="10.4634007"><ele>188.0</ele><time>2026-03-29T07:07:07.992Z</time></trkpt><trkpt lat="45.5093886" lon="10.4633605"><ele>188.0</ele><time>2026-03-29T07:07:08.992Z</time></trkpt><trkpt lat="45.5095106" lon="10.4633221"><ele>188.0</ele><time>2026-03-29T07:07:09.992Z</time></trkpt><trkpt lat="45.509628" lon="10.4632819"><ele>188.0</ele><time>2026-03-29T07:07:10.992Z</time></trkpt><trkpt lat="45.5097479" lon="10.4632371"><ele>188.0</ele><time>2026-03-29T07:07:11.992Z</time></trkpt><trkpt lat="45.5098653" lon="10.4631966"><ele>188.0</ele><time>2026-03-29T07:07:12.991Z</time></trkpt><trkpt lat="45.5099875" lon="10.4631569"><ele>188.0</ele><time>2026-03-29T07:07:13.991Z</time></trkpt><trkpt lat="45.5101079" lon="10.4631163"><ele>188.0</ele><time>2026-03-29T07:07:14.992Z</time></trkpt><trkpt lat="45.5102335" lon="10.4630786"><ele>188.0</ele><time>2026-03-29T07:07:15.991Z</time></trkpt><trkpt lat="45.510354" lon="10.4630407"><ele>188.0</ele><time>2026-03-29T07:07:16.991Z</time></trkpt><trkpt lat="45.5104769" lon="10.4629994"><ele>188.0</ele><time>2026-03-29T07:07:17.991Z</time></trkpt><trkpt lat="45.5105978" lon="10.4629566"><ele>188.0</ele><time>2026-03-29T07:07:18.991Z</time></trkpt><trkpt lat="45.5107193" lon="10.4629125"><ele>188.0</ele><time>2026-03-29T07:07:19.992Z</time></trkpt><trkpt lat="45.5108457" lon="10.462869"><ele>188.0</ele><time>2026-03-29T07:07:20.992Z</time></trkpt><trkpt lat="45.5109711" lon="10.4628247"><ele>188.0</ele><time>2026-03-29T07:07:21.992Z</time></trkpt><trkpt lat="45.5110961" lon="10.4627774"><ele>188.0</ele><time>2026-03-29T07:07:22.991Z</time></trkpt><trkpt lat="45.51122" lon="10.4627261"><ele>188.0</ele><time>2026-03-29T07:07:23.992Z</time></trkpt><trkpt lat="45.5113427" lon="10.4626734"><ele>188.0</ele><time>2026-03-29T07:07:24.992Z</time></trkpt><trkpt lat="45.5114647" lon="10.4626259"><ele>188.0</ele><time>2026-03-29T07:07:25.991Z</time></trkpt><trkpt lat="45.5115876" lon="10.4625839"><ele>188.25</ele><time>2026-03-29T07:07:26.992Z</time></trkpt><trkpt lat="45.5117115" lon="10.462544"><ele>188.5</ele><time>2026-03-29T07:07:27.991Z</time></trkpt><trkpt lat="45.5118368" lon="10.4625064"><ele>188.75</ele><time>2026-03-29T07:07:28.991Z</time></trkpt><trkpt lat="45.5119591" lon="10.4624809"><ele>189.0</ele><time>2026-03-29T07:07:29.991Z</time></trkpt><trkpt lat="45.5120798" lon="10.4624604"><ele>189.5</ele><time>2026-03-29T07:07:30.992Z</time></trkpt><trkpt lat="45.5121993" lon="10.4624336"><ele>190.0</ele><time>2026-03-29T07:07:31.992Z</time></trkpt><trkpt lat="45.5123193" lon="10.4624149"><ele>190.5</ele><time>2026-03-29T07:07:32.992Z</time></trkpt><trkpt lat="45.5124411" lon="10.4624054"><ele>191.0</ele><time>2026-03-29T07:07:33.991Z</time></trkpt><trkpt lat="45.5125626" lon="10.4623951"><ele>191.0</ele><time>2026-03-29T07:07:34.992Z</time></trkpt><trkpt lat="45.5126868" lon="10.4623837"><ele>191.0</ele><time>2026-03-29T07:07:35.992Z</time></trkpt><trkpt lat="45.5128158" lon="10.462374"><ele>191.0</ele><time>2026-03-29T07:07:36.992Z</time></trkpt><trkpt lat="45.5129461" lon="10.4623669"><ele>191.0</ele><time>2026-03-29T07:07:37.991Z</time></trkpt><trkpt lat="45.5130802" lon="10.4623567"><ele>191.5</ele><time>2026-03-29T07:07:38.992Z</time></trkpt><trkpt lat="45.5132097" lon="10.4623475"><ele>192.0</ele><time>2026-03-29T07:07:39.991Z</time></trkpt><trkpt lat="45.513343" lon="10.4623377"><ele>192.5</ele><time>2026-03-29T07:07:40.992Z</time></trkpt><trkpt lat="45.5134714" lon="10.4623343"><ele>193.0</ele><time>2026-03-29T07:07:41.992Z</time></trkpt><trkpt lat="45.5136024" lon="10.4623275"><ele>193.0</ele><time>2026-03-29T07:07:42.992Z</time></trkpt><trkpt lat="45.5137328" lon="10.4623205"><ele>193.0</ele><time>2026-03-29T07:07:43.991Z</time></trkpt><trkpt lat="45.5138565" lon="10.4623142"><ele>193.0</ele><time>2026-03-29T07:07:44.992Z</time></trkpt><trkpt lat="45.5139739" lon="10.4623007"><ele>193.0</ele><time>2026-03-29T07:07:45.991Z</time></trkpt><trkpt lat="45.5140698" lon="10.4622978"><ele>193.2</ele><time>2026-03-29T07:07:46.991Z</time></trkpt><trkpt lat="45.5141543" lon="10.4622945"><ele>193.4</ele><time>2026-03-29T07:07:47.992Z</time></trkpt><trkpt lat="45.5142288" lon="10.4622943"><ele>193.6</ele><time>2026-03-29T07:07:48.991Z</time></trkpt><trkpt lat="45.5143305" lon="10.4622987"><ele>193.79999999999998</ele><time>2026-03-29T07:07:50.992Z</time></trkpt><trkpt lat="45.5143664" lon="10.4623922"><ele>194.0</ele><time>2026-03-29T07:07:55.992Z</time></trkpt><trkpt lat="45.5143492" lon="10.4625564"><ele>194.00000000000003</ele><time>2026-03-29T07:07:57.991Z</time></trkpt><trkpt lat="45.514344" lon="10.4626489"><ele>194.0</ele><time>2026-03-29T07:07:58.992Z</time></trkpt><trkpt lat="45.5143354" lon="10.4627385"><ele>194.0</ele><time>2026-03-29T07:07:59.991Z</time></trkpt><trkpt lat="45.5143318" lon="10.462918"><ele>194.0</ele><time>2026-03-29T07:08:01.992Z</time></trkpt><trkpt lat="45.5143381" lon="10.46302"><ele>194.00000000000003</ele><time>2026-03-29T07:08:02.992Z</time></trkpt><trkpt lat="45.5143328" lon="10.4631349"><ele>194.0</ele><time>2026-03-29T07:08:03.992Z</time></trkpt><trkpt lat="45.5143272" lon="10.4632617"><ele>194.0</ele><time>2026-03-29T07:08:04.991Z</time></trkpt><trkpt lat="45.5143211" lon="10.4633987"><ele>194.0</ele><time>2026-03-29T07:08:05.992Z</time></trkpt><trkpt lat="45.5143148" lon="10.4635417"><ele>194.0</ele><time>2026-03-29T07:08:06.991Z</time></trkpt><trkpt lat="45.5143051" lon="10.463667"><ele>194.0</ele><time>2026-03-29T07:08:07.991Z</time></trkpt><trkpt lat="45.5142995" lon="10.4637819"><ele>194.0</ele><time>2026-03-29T07:08:08.991Z</time></trkpt><trkpt lat="45.5142938" lon="10.4639287"><ele>193.79999999999998</ele><time>2026-03-29T07:08:10.991Z</time></trkpt><trkpt lat="45.5142835" lon="10.4640246"><ele>193.6</ele><time>2026-03-29T07:08:12.992Z</time></trkpt><trkpt lat="45.5142899" lon="10.4641514"><ele>193.4</ele><time>2026-03-29T07:08:14.992Z</time></trkpt><trkpt lat="45.514284" lon="10.4643407"><ele>193.2</ele><time>2026-03-29T07:08:16.991Z</time></trkpt><trkpt lat="45.5142726" lon="10.464459"><ele>193.0</ele><time>2026-03-29T07:08:17.992Z</time></trkpt><trkpt lat="45.5142653" lon="10.4645966"><ele>193.0</ele><time>2026-03-29T07:08:18.991Z</time></trkpt><trkpt lat="45.5142596" lon="10.4647402"><ele>193.0</ele><time>2026-03-29T07:08:19.992Z</time></trkpt><trkpt lat="45.5142531" lon="10.4649012"><ele>193.0</ele><time>2026-03-29T07:08:20.992Z</time></trkpt><trkpt lat="45.5142461" lon="10.4650633"><ele>193.0</ele><time>2026-03-29T07:08:21.991Z</time></trkpt><trkpt lat="45.5142381" lon="10.4652295"><ele>193.0</ele><time>2026-03-29T07:08:22.992Z</time></trkpt><trkpt lat="45.5142308" lon="10.4653942"><ele>193.5</ele><time>2026-03-29T07:08:23.992Z</time></trkpt><trkpt lat="45.514224" lon="10.4655575"><ele>194.0</ele><time>2026-03-29T07:08:24.992Z</time></trkpt><trkpt lat="45.5142194" lon="10.4657188"><ele>194.5</ele><time>2026-03-29T07:08:25.992Z</time></trkpt><trkpt lat="45.5142121" lon="10.4658814"><ele>195.0</ele><time>2026-03-29T07:08:26.991Z</time></trkpt><trkpt lat="45.5142051" lon="10.4660418"><ele>195.0</ele><time>2026-03-29T07:08:27.991Z</time></trkpt><trkpt lat="45.5142005" lon="10.4662014"><ele>195.0</ele><time>2026-03-29T07:08:28.991Z</time></trkpt><trkpt lat="45.5141945" lon="10.4663621"><ele>195.0</ele><time>2026-03-29T07:08:29.993Z</time></trkpt><trkpt lat="45.5141874" lon="10.4665231"><ele>195.0</ele><time>2026-03-29T07:08:30.991Z</time></trkpt><trkpt lat="45.5141794" lon="10.4666845"><ele>195.2</ele><time>2026-03-29T07:08:31.992Z</time></trkpt><trkpt lat="45.5141719" lon="10.4668459"><ele>195.4</ele><time>2026-03-29T07:08:32.991Z</time></trkpt><trkpt lat="45.5141665" lon="10.4670052"><ele>195.60000000000002</ele><time>2026-03-29T07:08:33.992Z</time></trkpt><trkpt lat="45.514159" lon="10.4671638"><ele>195.8</ele><time>2026-03-29T07:08:34.992Z</time></trkpt><trkpt lat="45.5141559" lon="10.4673249"><ele>196.0</ele><time>2026-03-29T07:08:35.991Z</time></trkpt><trkpt lat="45.5141501" lon="10.4674872"><ele>196.75</ele><time>2026-03-29T07:08:36.991Z</time></trkpt><trkpt lat="45.5141419" lon="10.4676489"><ele>197.5</ele><time>2026-03-29T07:08:37.991Z</time></trkpt><trkpt lat="45.5141339" lon="10.4678086"><ele>198.25</ele><time>2026-03-29T07:08:38.991Z</time></trkpt><trkpt lat="45.5141285" lon="10.4679737"><ele>199.0</ele><time>2026-03-29T07:08:39.992Z</time></trkpt><trkpt lat="45.5141224" lon="10.4681369"><ele>199.2</ele><time>2026-03-29T07:08:40.993Z</time></trkpt><trkpt lat="45.5141176" lon="10.4683022"><ele>199.39999999999998</ele><time>2026-03-29T07:08:41.991Z</time></trkpt><trkpt lat="45.5141121" lon="10.468464"><ele>199.6</ele><time>2026-03-29T07:08:42.991Z</time></trkpt><trkpt lat="45.5141074" lon="10.4686228"><ele>199.8</ele><time>2026-03-29T07:08:43.992Z</time></trkpt><trkpt lat="45.5141012" lon="10.4687773"><ele>200.0</ele><time>2026-03-29T07:08:44.991Z</time></trkpt><trkpt lat="45.5140987" lon="10.4689025"><ele>200.0</ele><time>2026-03-29T07:08:45.991Z</time></trkpt><trkpt lat="45.5140932" lon="10.4690131"><ele>200.0</ele><time>2026-03-29T07:08:46.991Z</time></trkpt><trkpt lat="45.5140945" lon="10.4691558"><ele>200.0</ele><time>2026-03-29T07:08:48.992Z</time></trkpt><trkpt lat="45.5142017" lon="10.4692179"><ele>200.0</ele><time>2026-03-29T07:08:50.992Z</time></trkpt><trkpt lat="45.5143081" lon="10.4692244"><ele>200.0</ele><time>2026-03-29T07:08:51.991Z</time></trkpt><trkpt lat="45.5144227" lon="10.4692268"><ele>200.0</ele><time>2026-03-29T07:08:52.991Z</time></trkpt><trkpt lat="45.5145392" lon="10.4692292"><ele>200.0</ele><time>2026-03-29T07:08:53.991Z</time></trkpt><trkpt lat="45.5146685" lon="10.4692255"><ele>200.0</ele><time>2026-03-29T07:08:54.992Z</time></trkpt><trkpt lat="45.5148039" lon="10.4692247"><ele>200.0</ele><time>2026-03-29T07:08:55.992Z</time></trkpt><trkpt lat="45.5149432" lon="10.4692267"><ele>200.0</ele><time>2026-03-29T07:08:56.992Z</time></trkpt><trkpt lat="45.515091" lon="10.4692325"><ele>200.0</ele><time>2026-03-29T07:08:57.992Z</time></trkpt><trkpt lat="45.5152457" lon="10.4692498"><ele>200.0</ele><time>2026-03-29T07:08:58.991Z</time></trkpt><trkpt lat="45.5153977" lon="10.4692638"><ele>200.5</ele><time>2026-03-29T07:08:59.991Z</time></trkpt><trkpt lat="45.5155435" lon="10.4692788"><ele>201.0</ele><time>2026-03-29T07:09:00.992Z</time></trkpt><trkpt lat="45.5156862" lon="10.4692961"><ele>201.5</ele><time>2026-03-29T07:09:01.991Z</time></trkpt><trkpt lat="45.5158266" lon="10.469316"><ele>202.0</ele><time>2026-03-29T07:09:02.991Z</time></trkpt><trkpt lat="45.5159635" lon="10.469337"><ele>202.0</ele><time>2026-03-29T07:09:03.992Z</time></trkpt><trkpt lat="45.5161063" lon="10.4693546"><ele>202.0</ele><time>2026-03-29T07:09:04.992Z</time></trkpt><trkpt lat="45.5162497" lon="10.4693744"><ele>202.0</ele><time>2026-03-29T07:09:05.992Z</time></trkpt><trkpt lat="45.5163948" lon="10.4693926"><ele>202.0</ele><time>2026-03-29T07:09:06.992Z</time></trkpt><trkpt lat="45.5165437" lon="10.4694035"><ele>202.5</ele><time>2026-03-29T07:09:07.992Z</time></trkpt><trkpt lat="45.5166965" lon="10.4693999"><ele>203.0</ele><time>2026-03-29T07:09:08.991Z</time></trkpt><trkpt lat="45.5168367" lon="10.469399"><ele>203.5</ele><time>2026-03-29T07:09:09.992Z</time></trkpt><trkpt lat="45.5169816" lon="10.4693959"><ele>204.0</ele><time>2026-03-29T07:09:10.991Z</time></trkpt><trkpt lat="45.5171047" lon="10.4693961"><ele>204.0</ele><time>2026-03-29T07:09:11.992Z</time></trkpt><trkpt lat="45.5172022" lon="10.4693953"><ele>204.0</ele><time>2026-03-29T07:09:12.992Z</time></trkpt><trkpt lat="45.5172721" lon="10.4694049"><ele>204.0</ele><time>2026-03-29T07:09:13.992Z</time></trkpt><trkpt lat="45.5173153" lon="10.4694762"><ele>204.0</ele><time>2026-03-29T07:09:15.991Z</time></trkpt><trkpt lat="45.5173008" lon="10.4695663"><ele>204.0</ele><time>2026-03-29T07:09:16.991Z</time></trkpt><trkpt lat="45.5172539" lon="10.4696774"><ele>204.0</ele><time>2026-03-29T07:09:17.992Z</time></trkpt><trkpt lat="45.517223" lon="10.4698418"><ele>204.75</ele><time>2026-03-29T07:09:18.992Z</time></trkpt><trkpt lat="45.5171803" lon="10.4700346"><ele>205.5</ele><time>2026-03-29T07:09:19.991Z</time></trkpt><trkpt lat="45.5171322" lon="10.4702458"><ele>206.25</ele><time>2026-03-29T07:09:20.991Z</time></trkpt><trkpt lat="45.5170936" lon="10.4704381"><ele>207.0</ele><time>2026-03-29T07:09:21.992Z</time></trkpt><trkpt lat="45.5170493" lon="10.4706179"><ele>207.33333333333331</ele><time>2026-03-29T07:09:22.992Z</time></trkpt><trkpt lat="45.5169818" lon="10.4707851"><ele>207.66666666666666</ele><time>2026-03-29T07:09:23.992Z</time></trkpt><trkpt lat="45.5168842" lon="10.4709503"><ele>208.0</ele><time>2026-03-29T07:09:24.992Z</time></trkpt><trkpt lat="45.5167635" lon="10.4711183"><ele>208.75</ele><time>2026-03-29T07:09:25.991Z</time></trkpt><trkpt lat="45.5166573" lon="10.4712815"><ele>209.5</ele><time>2026-03-29T07:09:26.991Z</time></trkpt><trkpt lat="45.51657" lon="10.4714307"><ele>210.25</ele><time>2026-03-29T07:09:27.992Z</time></trkpt><trkpt lat="45.5165034" lon="10.4715817"><ele>211.0</ele><time>2026-03-29T07:09:28.992Z</time></trkpt><trkpt lat="45.5164394" lon="10.4717389"><ele>211.0</ele><time>2026-03-29T07:09:29.991Z</time></trkpt><trkpt lat="45.5163843" lon="10.4719032"><ele>211.0</ele><time>2026-03-29T07:09:30.992Z</time></trkpt><trkpt lat="45.5163475" lon="10.4720756"><ele>211.0</ele><time>2026-03-29T07:09:31.992Z</time></trkpt><trkpt lat="45.5163256" lon="10.4722516"><ele>211.0</ele><time>2026-03-29T07:09:32.992Z</time></trkpt><trkpt lat="45.5163132" lon="10.4724207"><ele>211.8</ele><time>2026-03-29T07:09:33.992Z</time></trkpt><trkpt lat="45.5162927" lon="10.4725679"><ele>212.60000000000002</ele><time>2026-03-29T07:09:34.992Z</time></trkpt><trkpt lat="45.5162672" lon="10.4726773"><ele>213.4</ele><time>2026-03-29T07:09:35.992Z</time></trkpt><trkpt lat="45.5162341" lon="10.4727674"><ele>214.2</ele><time>2026-03-29T07:09:36.991Z</time></trkpt><trkpt lat="45.5162165" lon="10.4728897"><ele>215.0</ele><time>2026-03-29T07:09:38.991Z</time></trkpt><trkpt lat="45.5162608" lon="10.4730401"><ele>216.25</ele><time>2026-03-29T07:09:40.993Z</time></trkpt><trkpt lat="45.5162985" lon="10.4731243"><ele>217.5</ele><time>2026-03-29T07:09:41.992Z</time></trkpt><trkpt lat="45.5163855" lon="10.4731985"><ele>218.75</ele><time>2026-03-29T07:09:42.992Z</time></trkpt><trkpt lat="45.5165329" lon="10.4732556"><ele>220.0</ele><time>2026-03-29T07:09:43.992Z</time></trkpt><trkpt lat="45.5166598" lon="10.4733019"><ele>220.0</ele><time>2026-03-29T07:09:44.991Z</time></trkpt><trkpt lat="45.5167977" lon="10.4733244"><ele>220.0</ele><time>2026-03-29T07:09:45.991Z</time></trkpt><trkpt lat="45.5169403" lon="10.473323"><ele>220.0</ele><time>2026-03-29T07:09:46.991Z</time></trkpt><trkpt lat="45.5170902" lon="10.4733202"><ele>220.0</ele><time>2026-03-29T07:09:47.992Z</time></trkpt><trkpt lat="45.5172397" lon="10.473316"><ele>220.0</ele><time>2026-03-29T07:09:48.992Z</time></trkpt><trkpt lat="45.5173918" lon="10.4733002"><ele>220.0</ele><time>2026-03-29T07:09:49.992Z</time></trkpt><trkpt lat="45.5175445" lon="10.473272"><ele>220.0</ele><time>2026-03-29T07:09:50.991Z</time></trkpt><trkpt lat="45.5176938" lon="10.4732424"><ele>220.0</ele><time>2026-03-29T07:09:51.991Z</time></trkpt><trkpt lat="45.5178394" lon="10.4732029"><ele>220.0</ele><time>2026-03-29T07:09:52.991Z</time></trkpt><trkpt lat="45.5179819" lon="10.4731479"><ele>220.0</ele><time>2026-03-29T07:09:53.992Z</time></trkpt><trkpt lat="45.5181148" lon="10.4730694"><ele>220.0</ele><time>2026-03-29T07:09:54.992Z</time></trkpt><trkpt lat="45.5182441" lon="10.4729683"><ele>219.33333333333331</ele><time>2026-03-29T07:09:55.991Z</time></trkpt><trkpt lat="45.5183702" lon="10.4728602"><ele>218.66666666666669</ele><time>2026-03-29T07:09:56.992Z</time></trkpt><trkpt lat="45.5184996" lon="10.472744"><ele>218.0</ele><time>2026-03-29T07:09:57.992Z</time></trkpt><trkpt lat="45.5186315" lon="10.4726248"><ele>218.66666666666669</ele><time>2026-03-29T07:09:58.992Z</time></trkpt><trkpt lat="45.5187654" lon="10.4725122"><ele>219.33333333333331</ele><time>2026-03-29T07:09:59.991Z</time></trkpt><trkpt lat="45.5189017" lon="10.472396"><ele>220.0</ele><time>2026-03-29T07:10:00.991Z</time></trkpt><trkpt lat="45.5190398" lon="10.4722807"><ele>220.0</ele><time>2026-03-29T07:10:01.991Z</time></trkpt><trkpt lat="45.5191797" lon="10.4721643"><ele>220.0</ele><time>2026-03-29T07:10:02.991Z</time></trkpt><trkpt lat="45.5193199" lon="10.4720506"><ele>220.0</ele><time>2026-03-29T07:10:03.992Z</time></trkpt><trkpt lat="45.5194551" lon="10.4719373"><ele>219.75</ele><time>2026-03-29T07:10:04.992Z</time></trkpt><trkpt lat="45.5195766" lon="10.471827"><ele>219.5</ele><time>2026-03-29T07:10:05.992Z</time></trkpt><trkpt lat="45.5196938" lon="10.4717183"><ele>219.25</ele><time>2026-03-29T07:10:06.991Z</time></trkpt><trkpt lat="45.519811" lon="10.4716044"><ele>219.0</ele><time>2026-03-29T07:10:07.991Z</time></trkpt><trkpt lat="45.5199271" lon="10.4715062"><ele>219.0</ele><time>2026-03-29T07:10:08.991Z</time></trkpt><trkpt lat="45.5200443" lon="10.4714267"><ele>219.0</ele><time>2026-03-29T07:10:09.991Z</time></trkpt><trkpt lat="45.5201668" lon="10.4713694"><ele>219.0</ele><time>2026-03-29T07:10:10.991Z</time></trkpt><trkpt lat="45.5202812" lon="10.4713223"><ele>219.0</ele><time>2026-03-29T07:10:11.991Z</time></trkpt><trkpt lat="45.5203815" lon="10.4712837"><ele>219.16666666666666</ele><time>2026-03-29T07:10:12.992Z</time></trkpt><trkpt lat="45.5204664" lon="10.4712514"><ele>219.33333333333331</ele><time>2026-03-29T07:10:13.992Z</time></trkpt><trkpt lat="45.5205309" lon="10.4712314"><ele>219.5</ele><time>2026-03-29T07:10:14.992Z</time></trkpt><trkpt lat="45.5206155" lon="10.4712342"><ele>219.66666666666666</ele><time>2026-03-29T07:10:16.992Z</time></trkpt><trkpt lat="45.5206344" lon="10.4713211"><ele>219.83333333333331</ele><time>2026-03-29T07:10:19.992Z</time></trkpt><trkpt lat="45.5206318" lon="10.4714394"><ele>220.0</ele><time>2026-03-29T07:10:21.991Z</time></trkpt><trkpt lat="45.5206388" lon="10.471618"><ele>219.99999999999997</ele><time>2026-03-29T07:10:23.992Z</time></trkpt><trkpt lat="45.520643" lon="10.4717246"><ele>220.0</ele><time>2026-03-29T07:10:24.991Z</time></trkpt><trkpt lat="45.5206431" lon="10.4718434"><ele>220.0</ele><time>2026-03-29T07:10:25.991Z</time></trkpt><trkpt lat="45.520642" lon="10.4719759"><ele>220.0</ele><time>2026-03-29T07:10:26.991Z</time></trkpt><trkpt lat="45.5206493" lon="10.4721162"><ele>219.99999999999997</ele><time>2026-03-29T07:10:27.992Z</time></trkpt><trkpt lat="45.5206505" lon="10.4722558"><ele>220.0</ele><time>2026-03-29T07:10:28.991Z</time></trkpt><trkpt lat="45.5206423" lon="10.4724052"><ele>221.5</ele><time>2026-03-29T07:10:29.992Z</time></trkpt><trkpt lat="45.5206239" lon="10.4725586"><ele>223.0</ele><time>2026-03-29T07:10:30.991Z</time></trkpt><trkpt lat="45.5205891" lon="10.4727174"><ele>224.5</ele><time>2026-03-29T07:10:31.991Z</time></trkpt><trkpt lat="45.5205372" lon="10.4728784"><ele>226.0</ele><time>2026-03-29T07:10:32.992Z</time></trkpt><trkpt lat="45.5204804" lon="10.4730427"><ele>228.5</ele><time>2026-03-29T07:10:33.991Z</time></trkpt><trkpt lat="45.5204185" lon="10.4732166"><ele>231.0</ele><time>2026-03-29T07:10:34.992Z</time></trkpt><trkpt lat="45.5203649" lon="10.4733945"><ele>233.5</ele><time>2026-03-29T07:10:35.991Z</time></trkpt><trkpt lat="45.520318" lon="10.4735822"><ele>236.0</ele><time>2026-03-29T07:10:36.992Z</time></trkpt><trkpt lat="45.5202757" lon="10.4737693"><ele>237.0</ele><time>2026-03-29T07:10:37.992Z</time></trkpt><trkpt lat="45.5202349" lon="10.473966"><ele>238.0</ele><time>2026-03-29T07:10:38.992Z</time></trkpt><trkpt lat="45.5201983" lon="10.4741648"><ele>239.0</ele><time>2026-03-29T07:10:39.991Z</time></trkpt><trkpt lat="45.5201642" lon="10.4743688"><ele>240.0</ele><time>2026-03-29T07:10:40.992Z</time></trkpt><trkpt lat="45.5201312" lon="10.4745753"><ele>239.66666666666669</ele><time>2026-03-29T07:10:41.992Z</time></trkpt><trkpt lat="45.5200985" lon="10.474784"><ele>239.33333333333334</ele><time>2026-03-29T07:10:42.991Z</time></trkpt><trkpt lat="45.5200622" lon="10.4749953"><ele>239.0</ele><time>2026-03-29T07:10:43.992Z</time></trkpt><trkpt lat="45.5200261" lon="10.4752094"><ele>239.0</ele><time>2026-03-29T07:10:44.991Z</time></trkpt><trkpt lat="45.5199883" lon="10.4754273"><ele>239.0</ele><time>2026-03-29T07:10:45.991Z</time></trkpt><trkpt lat="45.5199558" lon="10.4756464"><ele>239.0</ele><time>2026-03-29T07:10:46.991Z</time></trkpt><trkpt lat="45.5199177" lon="10.475863"><ele>239.0</ele><time>2026-03-29T07:10:47.992Z</time></trkpt><trkpt lat="45.5198834" lon="10.4760826"><ele>239.0</ele><time>2026-03-29T07:10:48.992Z</time></trkpt><trkpt lat="45.5198479" lon="10.4763033"><ele>239.0</ele><time>2026-03-29T07:10:49.992Z</time></trkpt><trkpt lat="45.5198171" lon="10.4765202"><ele>238.66666666666669</ele><time>2026-03-29T07:10:50.991Z</time></trkpt><trkpt lat="45.5197889" lon="10.4767349"><ele>238.33333333333331</ele><time>2026-03-29T07:10:51.992Z</time></trkpt><trkpt lat="45.5197537" lon="10.4769443"><ele>238.0</ele><time>2026-03-29T07:10:52.991Z</time></trkpt><trkpt lat="45.5197191" lon="10.4771519"><ele>239.75</ele><time>2026-03-29T07:10:53.992Z</time></trkpt><trkpt lat="45.5196864" lon="10.4773536"><ele>241.5</ele><time>2026-03-29T07:10:54.991Z</time></trkpt><trkpt lat="45.5196616" lon="10.4775585"><ele>243.25</ele><time>2026-03-29T07:10:55.992Z</time></trkpt><trkpt lat="45.5196559" lon="10.4777677"><ele>245.0</ele><time>2026-03-29T07:10:56.992Z</time></trkpt><trkpt lat="45.5196674" lon="10.4779787"><ele>246.25</ele><time>2026-03-29T07:10:57.992Z</time></trkpt><trkpt lat="45.519688" lon="10.4781865"><ele>247.5</ele><time>2026-03-29T07:10:58.991Z</time></trkpt><trkpt lat="45.5197131" lon="10.4783871"><ele>248.75</ele><time>2026-03-29T07:10:59.992Z</time></trkpt><trkpt lat="45.5197462" lon="10.4785703"><ele>250.0</ele><time>2026-03-29T07:11:00.991Z</time></trkpt><trkpt lat="45.5197817" lon="10.4787393"><ele>251.0</ele><time>2026-03-29T07:11:01.992Z</time></trkpt><trkpt lat="45.5197874" lon="10.478898"><ele>252.0</ele><time>2026-03-29T07:11:02.992Z</time></trkpt><trkpt lat="45.5197786" lon="10.4790446"><ele>253.0</ele><time>2026-03-29T07:11:03.992Z</time></trkpt><trkpt lat="45.5197475" lon="10.4791802"><ele>254.0</ele><time>2026-03-29T07:11:04.991Z</time></trkpt><trkpt lat="45.5196882" lon="10.4793192"><ele>255.0</ele><time>2026-03-29T07:11:05.992Z</time></trkpt><trkpt lat="45.5196168" lon="10.4794537"><ele>255.25</ele><time>2026-03-29T07:11:06.991Z</time></trkpt><trkpt lat="45.5195413" lon="10.4795889"><ele>255.5</ele><time>2026-03-29T07:11:07.991Z</time></trkpt><trkpt lat="45.5194599" lon="10.4797234"><ele>255.75</ele><time>2026-03-29T07:11:08.992Z</time></trkpt><trkpt lat="45.5193803" lon="10.4798521"><ele>256.0</ele><time>2026-03-29T07:11:09.992Z</time></trkpt><trkpt lat="45.5193088" lon="10.4799846"><ele>254.75</ele><time>2026-03-29T07:11:10.992Z</time></trkpt><trkpt lat="45.5192515" lon="10.4801273"><ele>253.5</ele><time>2026-03-29T07:11:11.991Z</time></trkpt><trkpt lat="45.5192137" lon="10.4802799"><ele>252.25</ele><time>2026-03-29T07:11:12.991Z</time></trkpt><trkpt lat="45.5191877" lon="10.4804375"><ele>251.0</ele><time>2026-03-29T07:11:13.992Z</time></trkpt><trkpt lat="45.5191664" lon="10.4805963"><ele>250.4</ele><time>2026-03-29T07:11:14.992Z</time></trkpt><trkpt lat="45.5191497" lon="10.4807491"><ele>249.8</ele><time>2026-03-29T07:11:15.99Z</time></trkpt><trkpt lat="45.5191361" lon="10.4808908"><ele>249.20000000000002</ele><time>2026-03-29T07:11:16.991Z</time></trkpt><trkpt lat="45.5191245" lon="10.4810336"><ele>248.60000000000002</ele><time>2026-03-29T07:11:17.99Z</time></trkpt><trkpt lat="45.5191104" lon="10.481177"><ele>248.0</ele><time>2026-03-29T07:11:18.99Z</time></trkpt><trkpt lat="45.5190999" lon="10.4813018"><ele>246.25</ele><time>2026-03-29T07:11:19.991Z</time></trkpt><trkpt lat="45.5191117" lon="10.4814321"><ele>244.5</ele><time>2026-03-29T07:11:20.991Z</time></trkpt><trkpt lat="45.5191523" lon="10.4815732"><ele>242.75</ele><time>2026-03-29T07:11:21.99Z</time></trkpt><trkpt lat="45.5192238" lon="10.4817255"><ele>241.0</ele><time>2026-03-29T07:11:22.991Z</time></trkpt><trkpt lat="45.519309" lon="10.4818865"><ele>241.0</ele><time>2026-03-29T07:11:23.991Z</time></trkpt><trkpt lat="45.5193991" lon="10.4820771"><ele>241.0</ele><time>2026-03-29T07:11:24.991Z</time></trkpt><trkpt lat="45.519493" lon="10.4822761"><ele>241.0</ele><time>2026-03-29T07:11:25.991Z</time></trkpt><trkpt lat="45.5195909" lon="10.4824887"><ele>240.66666666666666</ele><time>2026-03-29T07:11:26.99Z</time></trkpt><trkpt lat="45.5196884" lon="10.4826968"><ele>240.33333333333331</ele><time>2026-03-29T07:11:27.99Z</time></trkpt><trkpt lat="45.5197896" lon="10.482898"><ele>240.0</ele><time>2026-03-29T07:11:28.99Z</time></trkpt><trkpt lat="45.5198962" lon="10.4830932"><ele>240.0</ele><time>2026-03-29T07:11:29.991Z</time></trkpt><trkpt lat="45.5200103" lon="10.4832789"><ele>240.0</ele><time>2026-03-29T07:11:30.99Z</time></trkpt><trkpt lat="45.5201365" lon="10.4834625"><ele>240.0</ele><time>2026-03-29T07:11:31.991Z</time></trkpt><trkpt lat="45.5202679" lon="10.4836381"><ele>240.66666666666669</ele><time>2026-03-29T07:11:32.99Z</time></trkpt><trkpt lat="45.5204021" lon="10.4838153"><ele>241.33333333333334</ele><time>2026-03-29T07:11:33.99Z</time></trkpt><trkpt lat="45.5205366" lon="10.4839922"><ele>242.0</ele><time>2026-03-29T07:11:34.99Z</time></trkpt><trkpt lat="45.5206735" lon="10.4841721"><ele>242.0</ele><time>2026-03-29T07:11:35.991Z</time></trkpt><trkpt lat="45.520812" lon="10.4843479"><ele>242.0</ele><time>2026-03-29T07:11:36.991Z</time></trkpt><trkpt lat="45.5209545" lon="10.484527"><ele>242.0</ele><time>2026-03-29T07:11:37.99Z</time></trkpt><trkpt lat="45.5210953" lon="10.4847021"><ele>242.0</ele><time>2026-03-29T07:11:38.99Z</time></trkpt><trkpt lat="45.521218" lon="10.4848861"><ele>242.0</ele><time>2026-03-29T07:11:39.992Z</time></trkpt><trkpt lat="45.5213145" lon="10.4850718"><ele>242.0</ele><time>2026-03-29T07:11:40.99Z</time></trkpt><trkpt lat="45.5213807" lon="10.4852716"><ele>239.0</ele><time>2026-03-29T07:11:41.99Z</time></trkpt><trkpt lat="45.5214185" lon="10.4854998"><ele>236.0</ele><time>2026-03-29T07:11:42.99Z</time></trkpt><trkpt lat="45.5214455" lon="10.4857403"><ele>233.0</ele><time>2026-03-29T07:11:43.991Z</time></trkpt><trkpt lat="45.5214669" lon="10.4859858"><ele>233.0</ele><time>2026-03-29T07:11:44.99Z</time></trkpt><trkpt lat="45.5214782" lon="10.4862333"><ele>233.0</ele><time>2026-03-29T07:11:45.991Z</time></trkpt><trkpt lat="45.521467" lon="10.4864767"><ele>233.0</ele><time>2026-03-29T07:11:46.991Z</time></trkpt><trkpt lat="45.5214284" lon="10.4867143"><ele>231.33333333333334</ele><time>2026-03-29T07:11:47.991Z</time></trkpt><trkpt lat="45.5213786" lon="10.4869504"><ele>229.66666666666669</ele><time>2026-03-29T07:11:48.99Z</time></trkpt><trkpt lat="45.521319" lon="10.4871852"><ele>228.0</ele><time>2026-03-29T07:11:49.991Z</time></trkpt><trkpt lat="45.5212557" lon="10.4874215"><ele>226.33333333333331</ele><time>2026-03-29T07:11:50.991Z</time></trkpt><trkpt lat="45.5211941" lon="10.4876547"><ele>224.66666666666666</ele><time>2026-03-29T07:11:51.991Z</time></trkpt><trkpt lat="45.5211331" lon="10.4878757"><ele>223.0</ele><time>2026-03-29T07:11:52.99Z</time></trkpt><trkpt lat="45.5210771" lon="10.4880915"><ele>222.5</ele><time>2026-03-29T07:11:53.99Z</time></trkpt><trkpt lat="45.5210246" lon="10.4882927"><ele>222.0</ele><time>2026-03-29T07:11:54.99Z</time></trkpt><trkpt lat="45.5209741" lon="10.4884828"><ele>221.5</ele><time>2026-03-29T07:11:55.99Z</time></trkpt><trkpt lat="45.5209301" lon="10.4886598"><ele>221.0</ele><time>2026-03-29T07:11:56.991Z</time></trkpt><trkpt lat="45.5208895" lon="10.488825"><ele>220.75</ele><time>2026-03-29T07:11:57.991Z</time></trkpt><trkpt lat="45.5208656" lon="10.488993"><ele>220.5</ele><time>2026-03-29T07:11:58.99Z</time></trkpt><trkpt lat="45.5208651" lon="10.4891569"><ele>220.25</ele><time>2026-03-29T07:11:59.991Z</time></trkpt><trkpt lat="45.5208952" lon="10.4893121"><ele>220.0</ele><time>2026-03-29T07:12:00.991Z</time></trkpt><trkpt lat="45.5209379" lon="10.4894463"><ele>219.99999999999997</ele><time>2026-03-29T07:12:01.991Z</time></trkpt><trkpt lat="45.5209784" lon="10.4895602"><ele>220.0</ele><time>2026-03-29T07:12:02.991Z</time></trkpt><trkpt lat="45.5210207" lon="10.4896617"><ele>220.0</ele><time>2026-03-29T07:12:03.99Z</time></trkpt><trkpt lat="45.5210567" lon="10.4897611"><ele>220.0</ele><time>2026-03-29T07:12:04.991Z</time></trkpt><trkpt lat="45.521092" lon="10.4898545"><ele>219.99999999999997</ele><time>2026-03-29T07:12:05.99Z</time></trkpt><trkpt lat="45.5211297" lon="10.4899372"><ele>220.0</ele><time>2026-03-29T07:12:06.99Z</time></trkpt><trkpt lat="45.5211834" lon="10.490069"><ele>219.83333333333331</ele><time>2026-03-29T07:12:08.99Z</time></trkpt><trkpt lat="45.5212179" lon="10.4901751"><ele>219.66666666666666</ele><time>2026-03-29T07:12:10.99Z</time></trkpt><trkpt lat="45.521212" lon="10.4902657"><ele>219.5</ele><time>2026-03-29T07:12:12.991Z</time></trkpt><trkpt lat="45.5211447" lon="10.4902492"><ele>219.33333333333331</ele><time>2026-03-29T07:12:15.99Z</time></trkpt><trkpt lat="45.5211255" lon="10.4900889"><ele>219.16666666666666</ele><time>2026-03-29T07:12:17.992Z</time></trkpt><trkpt lat="45.5210895" lon="10.4899399"><ele>219.0</ele><time>2026-03-29T07:12:19.99Z</time></trkpt><trkpt lat="45.5210622" lon="10.4898406"><ele>219.0</ele><time>2026-03-29T07:12:20.991Z</time></trkpt><trkpt lat="45.5210262" lon="10.4897295"><ele>219.0</ele><time>2026-03-29T07:12:21.991Z</time></trkpt><trkpt lat="45.5209847" lon="10.4896138"><ele>219.0</ele><time>2026-03-29T07:12:22.99Z</time></trkpt><trkpt lat="45.520952" lon="10.489516"><ele>219.0</ele><time>2026-03-29T07:12:23.991Z</time></trkpt><trkpt lat="45.5209188" lon="10.4893774"><ele>219.0</ele><time>2026-03-29T07:12:25.99Z</time></trkpt><trkpt lat="45.5209091" lon="10.489263"><ele>219.0</ele><time>2026-03-29T07:12:28.99Z</time></trkpt><trkpt lat="45.5210063" lon="10.4893039"><ele>219.14285714285714</ele><time>2026-03-29T07:12:32.99Z</time></trkpt><trkpt lat="45.5210575" lon="10.4893612"><ele>219.28571428571428</ele><time>2026-03-29T07:12:33.99Z</time></trkpt><trkpt lat="45.5211167" lon="10.4894178"><ele>219.42857142857142</ele><time>2026-03-29T07:12:34.99Z</time></trkpt><trkpt lat="45.5211739" lon="10.4894782"><ele>219.57142857142856</ele><time>2026-03-29T07:12:35.991Z</time></trkpt><trkpt lat="45.5212297" lon="10.4895389"><ele>219.71428571428572</ele><time>2026-03-29T07:12:36.991Z</time></trkpt><trkpt lat="45.521284" lon="10.4896026"><ele>219.85714285714283</ele><time>2026-03-29T07:12:37.991Z</time></trkpt><trkpt lat="45.5213373" lon="10.4896749"><ele>220.0</ele><time>2026-03-29T07:12:38.991Z</time></trkpt><trkpt lat="45.5213909" lon="10.4897433"><ele>219.49999999999997</ele><time>2026-03-29T07:12:39.991Z</time></trkpt><trkpt lat="45.5214466" lon="10.489798"><ele>219.0</ele><time>2026-03-29T07:12:40.991Z</time></trkpt><trkpt lat="45.5215057" lon="10.4898482"><ele>218.5</ele><time>2026-03-29T07:12:41.991Z</time></trkpt><trkpt lat="45.5215678" lon="10.4899017"><ele>218.0</ele><time>2026-03-29T07:12:42.99Z</time></trkpt><trkpt lat="45.5216408" lon="10.4899445"><ele>217.49999999999997</ele><time>2026-03-29T07:12:43.991Z</time></trkpt><trkpt lat="45.521718" lon="10.489978"><ele>217.0</ele><time>2026-03-29T07:12:44.99Z</time></trkpt><trkpt lat="45.5217969" lon="10.4900158"><ele>216.99999999999997</ele><time>2026-03-29T07:12:45.99Z</time></trkpt><trkpt lat="45.5218755" lon="10.490061"><ele>217.0</ele><time>2026-03-29T07:12:46.99Z</time></trkpt><trkpt lat="45.521955" lon="10.4900984"><ele>217.0</ele><time>2026-03-29T07:12:47.991Z</time></trkpt><trkpt lat="45.5220314" lon="10.4901486"><ele>217.0</ele><time>2026-03-29T07:12:48.991Z</time></trkpt><trkpt lat="45.52211" lon="10.4902128"><ele>216.99999999999997</ele><time>2026-03-29T07:12:49.991Z</time></trkpt><trkpt lat="45.52219" lon="10.4902772"><ele>217.0</ele><time>2026-03-29T07:12:50.991Z</time></trkpt><trkpt lat="45.5222728" lon="10.4903255"><ele>216.99999999999997</ele><time>2026-03-29T07:12:51.991Z</time></trkpt><trkpt lat="45.5223551" lon="10.4903564"><ele>217.0</ele><time>2026-03-29T07:12:52.99Z</time></trkpt><trkpt lat="45.5224396" lon="10.4903744"><ele>217.0</ele><time>2026-03-29T07:12:53.991Z</time></trkpt><trkpt lat="45.5225259" lon="10.4903956"><ele>217.0</ele><time>2026-03-29T07:12:54.99Z</time></trkpt><trkpt lat="45.5226024" lon="10.490426"><ele>216.99999999999997</ele><time>2026-03-29T07:12:55.99Z</time></trkpt><trkpt lat="45.522669" lon="10.4904598"><ele>217.0</ele><time>2026-03-29T07:12:56.99Z</time></trkpt><trkpt lat="45.5227635" lon="10.4904638"><ele>217.49999999999997</ele><time>2026-03-29T07:12:58.991Z</time></trkpt><trkpt lat="45.5228562" lon="10.4903769"><ele>218.0</ele><time>2026-03-29T07:13:00.992Z</time></trkpt><trkpt lat="45.5228872" lon="10.4902835"><ele>218.5</ele><time>2026-03-29T07:13:01.99Z</time></trkpt><trkpt lat="45.5229162" lon="10.4901742"><ele>219.0</ele><time>2026-03-29T07:13:02.991Z</time></trkpt><trkpt lat="45.5229417" lon="10.4900535"><ele>219.49999999999997</ele><time>2026-03-29T07:13:03.991Z</time></trkpt><trkpt lat="45.522975" lon="10.4899262"><ele>220.0</ele><time>2026-03-29T07:13:04.991Z</time></trkpt><trkpt lat="45.5230158" lon="10.4897985"><ele>221.0</ele><time>2026-03-29T07:13:05.991Z</time></trkpt><trkpt lat="45.5230567" lon="10.4896625"><ele>222.0</ele><time>2026-03-29T07:13:06.991Z</time></trkpt><trkpt lat="45.5231033" lon="10.4895252"><ele>223.0</ele><time>2026-03-29T07:13:07.991Z</time></trkpt><trkpt lat="45.5231475" lon="10.4893852"><ele>224.0</ele><time>2026-03-29T07:13:08.991Z</time></trkpt><trkpt lat="45.5231867" lon="10.4892363"><ele>225.0</ele><time>2026-03-29T07:13:09.991Z</time></trkpt><trkpt lat="45.5232274" lon="10.4890789"><ele>225.6</ele><time>2026-03-29T07:13:10.991Z</time></trkpt><trkpt lat="45.5232644" lon="10.4889344"><ele>226.2</ele><time>2026-03-29T07:13:11.991Z</time></trkpt><trkpt lat="45.5233018" lon="10.4888253"><ele>226.8</ele><time>2026-03-29T07:13:12.99Z</time></trkpt><trkpt lat="45.5233455" lon="10.4887259"><ele>227.4</ele><time>2026-03-29T07:13:13.991Z</time></trkpt><trkpt lat="45.523391" lon="10.4886479"><ele>228.0</ele><time>2026-03-29T07:13:14.99Z</time></trkpt><trkpt lat="45.5235077" lon="10.4885719"><ele>228.0</ele><time>2026-03-29T07:13:16.99Z</time></trkpt><trkpt lat="45.5235889" lon="10.4885379"><ele>228.0</ele><time>2026-03-29T07:13:17.991Z</time></trkpt><trkpt lat="45.5236786" lon="10.4885021"><ele>228.0</ele><time>2026-03-29T07:13:18.991Z</time></trkpt><trkpt lat="45.5237691" lon="10.4884777"><ele>228.0</ele><time>2026-03-29T07:13:19.991Z</time></trkpt><trkpt lat="45.5238639" lon="10.4884616"><ele>228.0</ele><time>2026-03-29T07:13:20.99Z</time></trkpt><trkpt lat="45.5239561" lon="10.488448"><ele>229.0</ele><time>2026-03-29T07:13:21.99Z</time></trkpt><trkpt lat="45.524053" lon="10.4884378"><ele>230.0</ele><time>2026-03-29T07:13:22.99Z</time></trkpt><trkpt lat="45.5241422" lon="10.488433"><ele>231.0</ele><time>2026-03-29T07:13:23.99Z</time></trkpt><trkpt lat="45.524227" lon="10.4884183"><ele>232.0</ele><time>2026-03-29T07:13:24.992Z</time></trkpt><trkpt lat="45.524303" lon="10.488409"><ele>233.0</ele><time>2026-03-29T07:13:25.991Z</time></trkpt><trkpt lat="45.5243724" lon="10.4884074"><ele>234.0</ele><time>2026-03-29T07:13:26.991Z</time></trkpt><trkpt lat="45.5244366" lon="10.4884196"><ele>234.0</ele><time>2026-03-29T07:13:27.991Z</time></trkpt><trkpt lat="45.5245511" lon="10.4884986"><ele>234.0</ele><time>2026-03-29T07:13:29.99Z</time></trkpt><trkpt lat="45.5246118" lon="10.4885465"><ele>234.0</ele><time>2026-03-29T07:13:30.991Z</time></trkpt><trkpt lat="45.5246765" lon="10.488581"><ele>234.0</ele><time>2026-03-29T07:13:31.99Z</time></trkpt><trkpt lat="45.524747" lon="10.4885981"><ele>234.0</ele><time>2026-03-29T07:13:32.991Z</time></trkpt><trkpt lat="45.5248202" lon="10.4886152"><ele>234.0</ele><time>2026-03-29T07:13:33.99Z</time></trkpt><trkpt lat="45.5249025" lon="10.488636"><ele>234.39999999999998</ele><time>2026-03-29T07:13:34.99Z</time></trkpt><trkpt lat="45.5249922" lon="10.4886554"><ele>234.79999999999998</ele><time>2026-03-29T07:13:35.992Z</time></trkpt><trkpt lat="45.5250886" lon="10.4886861"><ele>235.20000000000002</ele><time>2026-03-29T07:13:36.991Z</time></trkpt><trkpt lat="45.5251868" lon="10.488713"><ele>235.60000000000002</ele><time>2026-03-29T07:13:37.991Z</time></trkpt><trkpt lat="45.5252831" lon="10.4887406"><ele>236.0</ele><time>2026-03-29T07:13:38.99Z</time></trkpt><trkpt lat="45.5253839" lon="10.4887702"><ele>236.8</ele><time>2026-03-29T07:13:39.99Z</time></trkpt><trkpt lat="45.5254882" lon="10.4887892"><ele>237.60000000000002</ele><time>2026-03-29T07:13:40.991Z</time></trkpt><trkpt lat="45.5255928" lon="10.4888039"><ele>238.4</ele><time>2026-03-29T07:13:41.991Z</time></trkpt><trkpt lat="45.5256996" lon="10.4888216"><ele>239.2</ele><time>2026-03-29T07:13:42.99Z</time></trkpt><trkpt lat="45.5258093" lon="10.4888383"><ele>240.0</ele><time>2026-03-29T07:13:43.991Z</time></trkpt><trkpt lat="45.5259145" lon="10.4888474"><ele>240.0</ele><time>2026-03-29T07:13:44.991Z</time></trkpt><trkpt lat="45.5260144" lon="10.4888448"><ele>240.0</ele><time>2026-03-29T07:13:45.99Z</time></trkpt><trkpt lat="45.526116" lon="10.4888308"><ele>240.0</ele><time>2026-03-29T07:13:46.991Z</time></trkpt><trkpt lat="45.5262084" lon="10.4888199"><ele>240.0</ele><time>2026-03-29T07:13:47.99Z</time></trkpt><trkpt lat="45.5263078" lon="10.4888098"><ele>240.0</ele><time>2026-03-29T07:13:48.991Z</time></trkpt><trkpt lat="45.5263911" lon="10.4887927"><ele>240.16666666666666</ele><time>2026-03-29T07:13:49.992Z</time></trkpt><trkpt lat="45.5264927" lon="10.488801"><ele>240.33333333333331</ele><time>2026-03-29T07:13:50.991Z</time></trkpt><trkpt lat="45.5265802" lon="10.4888157"><ele>240.5</ele><time>2026-03-29T07:13:51.991Z</time></trkpt><trkpt lat="45.5266634" lon="10.4888145"><ele>240.66666666666666</ele><time>2026-03-29T07:13:52.99Z</time></trkpt><trkpt lat="45.5267418" lon="10.4888413"><ele>240.83333333333331</ele><time>2026-03-29T07:13:53.99Z</time></trkpt><trkpt lat="45.5268083" lon="10.4888286"><ele>241.0</ele><time>2026-03-29T07:13:54.991Z</time></trkpt><trkpt lat="45.5268904" lon="10.4888099"><ele>241.0</ele><time>2026-03-29T07:13:55.991Z</time></trkpt><trkpt lat="45.5270123" lon="10.4889294"><ele>241.00000000000003</ele><time>2026-03-29T07:13:57.991Z</time></trkpt><trkpt lat="45.5270684" lon="10.4889873"><ele>241.00000000000003</ele><time>2026-03-29T07:13:58.991Z</time></trkpt><trkpt lat="45.5271516" lon="10.4890463"><ele>241.0</ele><time>2026-03-29T07:13:59.991Z</time></trkpt><trkpt lat="45.5272159" lon="10.4890886"><ele>241.0</ele><time>2026-03-29T07:14:00.991Z</time></trkpt><trkpt lat="45.5272929" lon="10.4891072"><ele>241.4</ele><time>2026-03-29T07:14:01.991Z</time></trkpt><trkpt lat="45.5273792" lon="10.4891114"><ele>241.8</ele><time>2026-03-29T07:14:02.991Z</time></trkpt><trkpt lat="45.5274706" lon="10.4891014"><ele>242.20000000000002</ele><time>2026-03-29T07:14:03.99Z</time></trkpt><trkpt lat="45.5275679" lon="10.4890889"><ele>242.60000000000002</ele><time>2026-03-29T07:14:04.991Z</time></trkpt><trkpt lat="45.5276654" lon="10.4890714"><ele>243.0</ele><time>2026-03-29T07:14:05.991Z</time></trkpt><trkpt lat="45.5277578" lon="10.4890569"><ele>243.0</ele><time>2026-03-29T07:14:06.991Z</time></trkpt><trkpt lat="45.5278494" lon="10.4890477"><ele>243.0</ele><time>2026-03-29T07:14:07.991Z</time></trkpt><trkpt lat="45.5279351" lon="10.4890491"><ele>243.0</ele><time>2026-03-29T07:14:08.991Z</time></trkpt><trkpt lat="45.5280163" lon="10.4890676"><ele>243.0</ele><time>2026-03-29T07:14:09.99Z</time></trkpt><trkpt lat="45.528089" lon="10.4891033"><ele>243.0</ele><time>2026-03-29T07:14:10.99Z</time></trkpt><trkpt lat="45.5281544" lon="10.4891523"><ele>243.0</ele><time>2026-03-29T07:14:11.991Z</time></trkpt><trkpt lat="45.5281965" lon="10.4892223"><ele>244.2</ele><time>2026-03-29T07:14:12.991Z</time></trkpt><trkpt lat="45.5282372" lon="10.4893798"><ele>245.4</ele><time>2026-03-29T07:14:14.991Z</time></trkpt><trkpt lat="45.5282342" lon="10.4895414"><ele>246.59999999999997</ele><time>2026-03-29T07:14:16.99Z</time></trkpt><trkpt lat="45.5282785" lon="10.4896512"><ele>247.79999999999998</ele><time>2026-03-29T07:14:18.991Z</time></trkpt><trkpt lat="45.5283649" lon="10.4897589"><ele>249.0</ele><time>2026-03-29T07:14:20.991Z</time></trkpt><trkpt lat="45.5284863" lon="10.4897705"><ele>249.66666666666666</ele><time>2026-03-29T07:14:21.99Z</time></trkpt><trkpt lat="45.5285585" lon="10.4898142"><ele>250.33333333333331</ele><time>2026-03-29T07:14:22.992Z</time></trkpt><trkpt lat="45.5286315" lon="10.4898591"><ele>251.0</ele><time>2026-03-29T07:14:23.991Z</time></trkpt><trkpt lat="45.5286973" lon="10.4898999"><ele>251.66666666666666</ele><time>2026-03-29T07:14:24.991Z</time></trkpt><trkpt lat="45.5287745" lon="10.4899425"><ele>252.33333333333331</ele><time>2026-03-29T07:14:25.991Z</time></trkpt><trkpt lat="45.5288539" lon="10.4899975"><ele>253.0</ele><time>2026-03-29T07:14:26.991Z</time></trkpt><trkpt lat="45.5289351" lon="10.4900409"><ele>253.49999999999997</ele><time>2026-03-29T07:14:27.991Z</time></trkpt><trkpt lat="45.5290073" lon="10.490073"><ele>254.0</ele><time>2026-03-29T07:14:28.99Z</time></trkpt><trkpt lat="45.5290718" lon="10.4901058"><ele>254.5</ele><time>2026-03-29T07:14:29.991Z</time></trkpt><trkpt lat="45.5291315" lon="10.4901379"><ele>255.0</ele><time>2026-03-29T07:14:30.99Z</time></trkpt><trkpt lat="45.5292413" lon="10.4901306"><ele>255.49999999999997</ele><time>2026-03-29T07:14:32.99Z</time></trkpt><trkpt lat="45.5293398" lon="10.4900469"><ele>256.0</ele><time>2026-03-29T07:14:34.991Z</time></trkpt><trkpt lat="45.529419" lon="10.4899843"><ele>255.99999999999997</ele><time>2026-03-29T07:14:36.991Z</time></trkpt><trkpt lat="45.529485" lon="10.489997"><ele>256.0</ele><time>2026-03-29T07:14:37.99Z</time></trkpt><trkpt lat="45.5295847" lon="10.49004"><ele>256.0</ele><time>2026-03-29T07:14:38.99Z</time></trkpt><trkpt lat="45.5296804" lon="10.4900933"><ele>256.0</ele><time>2026-03-29T07:14:39.99Z</time></trkpt><trkpt lat="45.5297562" lon="10.4901513"><ele>255.99999999999997</ele><time>2026-03-29T07:14:40.99Z</time></trkpt><trkpt lat="45.529813" lon="10.490211"><ele>256.0</ele><time>2026-03-29T07:14:41.991Z</time></trkpt><trkpt lat="45.5298767" lon="10.4902724"><ele>255.99999999999997</ele><time>2026-03-29T07:14:42.99Z</time></trkpt><trkpt lat="45.529941" lon="10.4903342"><ele>256.0</ele><time>2026-03-29T07:14:43.991Z</time></trkpt><trkpt lat="45.5299929" lon="10.4903933"><ele>256.0</ele><time>2026-03-29T07:14:44.992Z</time></trkpt><trkpt lat="45.5300496" lon="10.4904564"><ele>256.0</ele><time>2026-03-29T07:14:45.99Z</time></trkpt><trkpt lat="45.5301405" lon="10.4905701"><ele>255.99999999999997</ele><time>2026-03-29T07:14:47.991Z</time></trkpt><trkpt lat="45.5301948" lon="10.4906377"><ele>256.0</ele><time>2026-03-29T07:14:48.99Z</time></trkpt><trkpt lat="45.5302486" lon="10.490713"><ele>255.99999999999997</ele><time>2026-03-29T07:14:49.991Z</time></trkpt><trkpt lat="45.5302955" lon="10.4907906"><ele>256.0</ele><time>2026-03-29T07:14:50.991Z</time></trkpt><trkpt lat="45.5303442" lon="10.490885"><ele>256.0</ele><time>2026-03-29T07:14:51.991Z</time></trkpt><trkpt lat="45.5303864" lon="10.490986"><ele>256.0</ele><time>2026-03-29T07:14:52.991Z</time></trkpt><trkpt lat="45.5304265" lon="10.4910827"><ele>255.99999999999997</ele><time>2026-03-29T07:14:53.991Z</time></trkpt><trkpt lat="45.530473" lon="10.4911655"><ele>256.0</ele><time>2026-03-29T07:14:54.991Z</time></trkpt><trkpt lat="45.5305349" lon="10.4912437"><ele>255.83333333333331</ele><time>2026-03-29T07:14:55.991Z</time></trkpt><trkpt lat="45.5306005" lon="10.4913328"><ele>255.66666666666666</ele><time>2026-03-29T07:14:56.991Z</time></trkpt><trkpt lat="45.5306584" lon="10.4914291"><ele>255.5</ele><time>2026-03-29T07:14:57.991Z</time></trkpt><trkpt lat="45.5307189" lon="10.4915303"><ele>255.33333333333331</ele><time>2026-03-29T07:14:58.992Z</time></trkpt><trkpt lat="45.530759" lon="10.4916275"><ele>255.16666666666666</ele><time>2026-03-29T07:14:59.991Z</time></trkpt><trkpt lat="45.5308115" lon="10.4917215"><ele>255.0</ele><time>2026-03-29T07:15:00.991Z</time></trkpt><trkpt lat="45.5308615" lon="10.4918203"><ele>255.0</ele><time>2026-03-29T07:15:01.991Z</time></trkpt><trkpt lat="45.5309021" lon="10.491924"><ele>255.0</ele><time>2026-03-29T07:15:02.991Z</time></trkpt><trkpt lat="45.5309385" lon="10.4920251"><ele>255.0</ele><time>2026-03-29T07:15:03.99Z</time></trkpt><trkpt lat="45.5309682" lon="10.4921221"><ele>255.0</ele><time>2026-03-29T07:15:04.99Z</time></trkpt><trkpt lat="45.5309821" lon="10.4922154"><ele>255.0</ele><time>2026-03-29T07:15:05.99Z</time></trkpt><trkpt lat="45.5309956" lon="10.4923084"><ele>255.0</ele><time>2026-03-29T07:15:06.991Z</time></trkpt><trkpt lat="45.5310103" lon="10.492428"><ele>255.66666666666666</ele><time>2026-03-29T07:15:07.991Z</time></trkpt><trkpt lat="45.531043" lon="10.4925255"><ele>256.3333333333333</ele><time>2026-03-29T07:15:08.991Z</time></trkpt><trkpt lat="45.531084" lon="10.4926206"><ele>257.0</ele><time>2026-03-29T07:15:09.991Z</time></trkpt><trkpt lat="45.5311432" lon="10.4927086"><ele>257.66666666666663</ele><time>2026-03-29T07:15:10.991Z</time></trkpt><trkpt lat="45.5312111" lon="10.4927838"><ele>258.3333333333333</ele><time>2026-03-29T07:15:11.991Z</time></trkpt><trkpt lat="45.5312844" lon="10.4928641"><ele>259.0</ele><time>2026-03-29T07:15:12.991Z</time></trkpt><trkpt lat="45.5313564" lon="10.4929457"><ele>256.2</ele><time>2026-03-29T07:15:13.991Z</time></trkpt><trkpt lat="45.5314328" lon="10.4930275"><ele>253.39999999999998</ele><time>2026-03-29T07:15:14.991Z</time></trkpt><trkpt lat="45.53151" lon="10.4931"><ele>250.6</ele><time>2026-03-29T07:15:15.99Z</time></trkpt><trkpt lat="45.5315911" lon="10.4931777"><ele>247.8</ele><time>2026-03-29T07:15:16.99Z</time></trkpt><trkpt lat="45.5316753" lon="10.4932496"><ele>245.0</ele><time>2026-03-29T07:15:17.99Z</time></trkpt><trkpt lat="45.5317662" lon="10.4933207"><ele>245.0</ele><time>2026-03-29T07:15:18.991Z</time></trkpt><trkpt lat="45.5318614" lon="10.493385"><ele>245.0</ele><time>2026-03-29T07:15:19.991Z</time></trkpt><trkpt lat="45.5319541" lon="10.4934365"><ele>245.0</ele><time>2026-03-29T07:15:20.99Z</time></trkpt><trkpt lat="45.5320469" lon="10.493469"><ele>245.0</ele><time>2026-03-29T07:15:21.991Z</time></trkpt><trkpt lat="45.5321339" lon="10.4935005"><ele>245.0</ele><time>2026-03-29T07:15:22.991Z</time></trkpt><trkpt lat="45.5322035" lon="10.493543"><ele>245.00000000000003</ele><time>2026-03-29T07:15:23.991Z</time></trkpt><trkpt lat="45.5322764" lon="10.4935945"><ele>245.0</ele><time>2026-03-29T07:15:24.991Z</time></trkpt><trkpt lat="45.5323362" lon="10.4937035"><ele>245.0</ele><time>2026-03-29T07:15:25.991Z</time></trkpt><trkpt lat="45.5323956" lon="10.493787"><ele>245.0</ele><time>2026-03-29T07:15:26.991Z</time></trkpt><trkpt lat="45.5324702" lon="10.4938536"><ele>245.00000000000003</ele><time>2026-03-29T07:15:27.99Z</time></trkpt><trkpt lat="45.5325526" lon="10.4939078"><ele>245.0</ele><time>2026-03-29T07:15:28.99Z</time></trkpt><trkpt lat="45.5326394" lon="10.4939619"><ele>245.00000000000003</ele><time>2026-03-29T07:15:29.991Z</time></trkpt><trkpt lat="45.5327162" lon="10.4940051"><ele>245.0</ele><time>2026-03-29T07:15:30.99Z</time></trkpt><trkpt lat="45.5327966" lon="10.4940373"><ele>245.0</ele><time>2026-03-29T07:15:31.991Z</time></trkpt><trkpt lat="45.5328738" lon="10.4940609"><ele>245.0</ele><time>2026-03-29T07:15:32.991Z</time></trkpt><trkpt lat="45.5329565" lon="10.494059"><ele>245.00000000000003</ele><time>2026-03-29T07:15:33.99Z</time></trkpt><trkpt lat="45.5330406" lon="10.4940628"><ele>245.0</ele><time>2026-03-29T07:15:34.991Z</time></trkpt><trkpt lat="45.5331123" lon="10.4940717"><ele>244.83333333333334</ele><time>2026-03-29T07:15:35.991Z</time></trkpt><trkpt lat="45.5331841" lon="10.4941035"><ele>244.66666666666669</ele><time>2026-03-29T07:15:36.99Z</time></trkpt><trkpt lat="45.5332503" lon="10.4941677"><ele>244.5</ele><time>2026-03-29T07:15:37.991Z</time></trkpt><trkpt lat="45.533312" lon="10.4942819"><ele>244.33333333333331</ele><time>2026-03-29T07:15:38.99Z</time></trkpt><trkpt lat="45.5333728" lon="10.4943475"><ele>244.16666666666666</ele><time>2026-03-29T07:15:39.991Z</time></trkpt><trkpt lat="45.533434" lon="10.4943999"><ele>244.0</ele><time>2026-03-29T07:15:40.991Z</time></trkpt><trkpt lat="45.5334996" lon="10.4944433"><ele>243.99999999999997</ele><time>2026-03-29T07:15:41.99Z</time></trkpt><trkpt lat="45.5335788" lon="10.4944816"><ele>244.0</ele><time>2026-03-29T07:15:42.99Z</time></trkpt><trkpt lat="45.5336632" lon="10.4945084"><ele>244.0</ele><time>2026-03-29T07:15:43.99Z</time></trkpt><trkpt lat="45.5337488" lon="10.4945255"><ele>244.0</ele><time>2026-03-29T07:15:44.99Z</time></trkpt><trkpt lat="45.5338298" lon="10.494546"><ele>243.99999999999997</ele><time>2026-03-29T07:15:45.991Z</time></trkpt><trkpt lat="45.5339105" lon="10.4945731"><ele>244.0</ele><time>2026-03-29T07:15:46.991Z</time></trkpt><trkpt lat="45.5339977" lon="10.4945994"><ele>242.66666666666666</ele><time>2026-03-29T07:15:47.991Z</time></trkpt><trkpt lat="45.5340852" lon="10.4946234"><ele>241.33333333333331</ele><time>2026-03-29T07:15:48.991Z</time></trkpt><trkpt lat="45.534172" lon="10.4946646"><ele>240.0</ele><time>2026-03-29T07:15:49.991Z</time></trkpt><trkpt lat="45.5342434" lon="10.4947042"><ele>238.66666666666669</ele><time>2026-03-29T07:15:50.99Z</time></trkpt><trkpt lat="45.5343085" lon="10.4947415"><ele>237.33333333333334</ele><time>2026-03-29T07:15:51.991Z</time></trkpt><trkpt lat="45.5343761" lon="10.4947713"><ele>236.0</ele><time>2026-03-29T07:15:52.991Z</time></trkpt><trkpt lat="45.5344496" lon="10.4947974"><ele>236.00000000000003</ele><time>2026-03-29T07:15:53.991Z</time></trkpt><trkpt lat="45.5345188" lon="10.4948077"><ele>236.0</ele><time>2026-03-29T07:15:54.991Z</time></trkpt><trkpt lat="45.5345912" lon="10.4948343"><ele>236.0</ele><time>2026-03-29T07:15:55.991Z</time></trkpt><trkpt lat="45.5346687" lon="10.494889"><ele>236.0</ele><time>2026-03-29T07:15:56.991Z</time></trkpt><trkpt lat="45.5347452" lon="10.4949383"><ele>236.00000000000003</ele><time>2026-03-29T07:15:57.99Z</time></trkpt><trkpt lat="45.5348338" lon="10.4949936"><ele>236.0</ele><time>2026-03-29T07:15:58.991Z</time></trkpt><trkpt lat="45.5349201" lon="10.4950413"><ele>235.8</ele><time>2026-03-29T07:15:59.991Z</time></trkpt><trkpt lat="45.535012" lon="10.4950761"><ele>235.60000000000002</ele><time>2026-03-29T07:16:00.991Z</time></trkpt><trkpt lat="45.5351043" lon="10.495095"><ele>235.4</ele><time>2026-03-29T07:16:01.99Z</time></trkpt><trkpt lat="45.5351944" lon="10.4951131"><ele>235.2</ele><time>2026-03-29T07:16:02.99Z</time></trkpt><trkpt lat="45.5352896" lon="10.4951238"><ele>235.0</ele><time>2026-03-29T07:16:03.991Z</time></trkpt><trkpt lat="45.5353783" lon="10.4951383"><ele>234.83333333333331</ele><time>2026-03-29T07:16:04.99Z</time></trkpt><trkpt lat="45.5354698" lon="10.495151"><ele>234.66666666666666</ele><time>2026-03-29T07:16:05.99Z</time></trkpt><trkpt lat="45.5355487" lon="10.495154"><ele>234.5</ele><time>2026-03-29T07:16:06.991Z</time></trkpt><trkpt lat="45.5356263" lon="10.4951713"><ele>234.33333333333331</ele><time>2026-03-29T07:16:07.992Z</time></trkpt><trkpt lat="45.5356962" lon="10.4952134"><ele>234.16666666666666</ele><time>2026-03-29T07:16:08.991Z</time></trkpt><trkpt lat="45.5357682" lon="10.4952741"><ele>234.0</ele><time>2026-03-29T07:16:09.991Z</time></trkpt><trkpt lat="45.5358362" lon="10.4953445"><ele>234.0</ele><time>2026-03-29T07:16:10.991Z</time></trkpt><trkpt lat="45.5358991" lon="10.4954179"><ele>234.0</ele><time>2026-03-29T07:16:11.991Z</time></trkpt><trkpt lat="45.5359761" lon="10.4954906"><ele>234.0</ele><time>2026-03-29T07:16:12.99Z</time></trkpt><trkpt lat="45.5360481" lon="10.495557"><ele>234.0</ele><time>2026-03-29T07:16:13.991Z</time></trkpt><trkpt lat="45.536112" lon="10.4956316"><ele>234.0</ele><time>2026-03-29T07:16:14.99Z</time></trkpt><trkpt lat="45.5361913" lon="10.4957003"><ele>234.0</ele><time>2026-03-29T07:16:15.991Z</time></trkpt><trkpt lat="45.5362601" lon="10.4957657"><ele>234.66666666666666</ele><time>2026-03-29T07:16:16.991Z</time></trkpt><trkpt lat="45.5363154" lon="10.4958372"><ele>235.33333333333331</ele><time>2026-03-29T07:16:17.991Z</time></trkpt><trkpt lat="45.5363626" lon="10.4959241"><ele>236.0</ele><time>2026-03-29T07:16:18.99Z</time></trkpt><trkpt lat="45.53641" lon="10.4960126"><ele>236.66666666666666</ele><time>2026-03-29T07:16:19.991Z</time></trkpt><trkpt lat="45.5364596" lon="10.4960968"><ele>237.33333333333331</ele><time>2026-03-29T07:16:20.991Z</time></trkpt><trkpt lat="45.5365109" lon="10.4961541"><ele>238.0</ele><time>2026-03-29T07:16:21.99Z</time></trkpt><trkpt lat="45.5365782" lon="10.49621"><ele>237.57142857142856</ele><time>2026-03-29T07:16:22.99Z</time></trkpt><trkpt lat="45.5366476" lon="10.4962546"><ele>237.14285714285714</ele><time>2026-03-29T07:16:23.991Z</time></trkpt><trkpt lat="45.5367193" lon="10.496286"><ele>236.71428571428572</ele><time>2026-03-29T07:16:24.991Z</time></trkpt><trkpt lat="45.5367903" lon="10.4963028"><ele>236.28571428571428</ele><time>2026-03-29T07:16:25.991Z</time></trkpt><trkpt lat="45.5368549" lon="10.4963138"><ele>235.85714285714283</ele><time>2026-03-29T07:16:26.992Z</time></trkpt><trkpt lat="45.5369179" lon="10.4963342"><ele>235.42857142857142</ele><time>2026-03-29T07:16:27.99Z</time></trkpt><trkpt lat="45.5369857" lon="10.4963693"><ele>235.0</ele><time>2026-03-29T07:16:28.991Z</time></trkpt><trkpt lat="45.5370715" lon="10.4964039"><ele>235.0</ele><time>2026-03-29T07:16:29.991Z</time></trkpt><trkpt lat="45.5371589" lon="10.4964224"><ele>235.0</ele><time>2026-03-29T07:16:30.99Z</time></trkpt><trkpt lat="45.5372611" lon="10.4964228"><ele>235.0</ele><time>2026-03-29T07:16:31.991Z</time></trkpt><trkpt lat="45.5373623" lon="10.4964104"><ele>235.0</ele><time>2026-03-29T07:16:32.991Z</time></trkpt><trkpt lat="45.537467" lon="10.4963884"><ele>235.0</ele><time>2026-03-29T07:16:33.992Z</time></trkpt><trkpt lat="45.5375718" lon="10.4963633"><ele>235.0</ele><time>2026-03-29T07:16:34.991Z</time></trkpt><trkpt lat="45.5376825" lon="10.4963314"><ele>235.0</ele><time>2026-03-29T07:16:35.991Z</time></trkpt><trkpt lat="45.5377993" lon="10.4962985"><ele>235.0</ele><time>2026-03-29T07:16:36.99Z</time></trkpt><trkpt lat="45.5379224" lon="10.4962732"><ele>235.0</ele><time>2026-03-29T07:16:37.992Z</time></trkpt><trkpt lat="45.5380497" lon="10.4962457"><ele>235.75</ele><time>2026-03-29T07:16:38.99Z</time></trkpt><trkpt lat="45.5381691" lon="10.4962017"><ele>236.5</ele><time>2026-03-29T07:16:39.99Z</time></trkpt><trkpt lat="45.538282" lon="10.4961603"><ele>237.25</ele><time>2026-03-29T07:16:40.991Z</time></trkpt><trkpt lat="45.5384009" lon="10.4961289"><ele>238.0</ele><time>2026-03-29T07:16:41.991Z</time></trkpt><trkpt lat="45.538528" lon="10.4961043"><ele>238.0</ele><time>2026-03-29T07:16:42.991Z</time></trkpt><trkpt lat="45.5386623" lon="10.4960892"><ele>238.0</ele><time>2026-03-29T07:16:43.991Z</time></trkpt><trkpt lat="45.5388106" lon="10.4960776"><ele>238.0</ele><time>2026-03-29T07:16:44.991Z</time></trkpt><trkpt lat="45.5389852" lon="10.4960509"><ele>237.75</ele><time>2026-03-29T07:16:45.991Z</time></trkpt><trkpt lat="45.5391372" lon="10.4960243"><ele>237.5</ele><time>2026-03-29T07:16:46.99Z</time></trkpt><trkpt lat="45.5392763" lon="10.4960029"><ele>237.25</ele><time>2026-03-29T07:16:47.99Z</time></trkpt><trkpt lat="45.5394024" lon="10.4959829"><ele>237.0</ele><time>2026-03-29T07:16:48.991Z</time></trkpt><trkpt lat="45.5395058" lon="10.4959445"><ele>237.8</ele><time>2026-03-29T07:16:49.991Z</time></trkpt><trkpt lat="45.5396074" lon="10.4959035"><ele>238.6</ele><time>2026-03-29T07:16:50.99Z</time></trkpt><trkpt lat="45.5397019" lon="10.4958612"><ele>239.40000000000003</ele><time>2026-03-29T07:16:51.99Z</time></trkpt><trkpt lat="45.5397893" lon="10.4958176"><ele>240.20000000000002</ele><time>2026-03-29T07:16:52.991Z</time></trkpt><trkpt lat="45.5398798" lon="10.4957753"><ele>241.0</ele><time>2026-03-29T07:16:53.991Z</time></trkpt><trkpt lat="45.539973" lon="10.4957403"><ele>241.0</ele><time>2026-03-29T07:16:54.991Z</time></trkpt><trkpt lat="45.5400676" lon="10.4956912"><ele>241.00000000000003</ele><time>2026-03-29T07:16:55.991Z</time></trkpt><trkpt lat="45.5401667" lon="10.4956847"><ele>241.00000000000003</ele><time>2026-03-29T07:16:56.991Z</time></trkpt><trkpt lat="45.5402623" lon="10.4956999"><ele>241.0</ele><time>2026-03-29T07:16:57.99Z</time></trkpt><trkpt lat="45.5403596" lon="10.4957174"><ele>241.0</ele><time>2026-03-29T07:16:58.991Z</time></trkpt><trkpt lat="45.5404615" lon="10.4957252"><ele>241.25</ele><time>2026-03-29T07:16:59.991Z</time></trkpt><trkpt lat="45.5405764" lon="10.4957274"><ele>241.5</ele><time>2026-03-29T07:17:00.99Z</time></trkpt><trkpt lat="45.5406959" lon="10.4957281"><ele>241.75</ele><time>2026-03-29T07:17:01.99Z</time></trkpt><trkpt lat="45.5408196" lon="10.4957313"><ele>242.0</ele><time>2026-03-29T07:17:02.99Z</time></trkpt><trkpt lat="45.5409503" lon="10.4957469"><ele>242.0</ele><time>2026-03-29T07:17:03.99Z</time></trkpt><trkpt lat="45.5410723" lon="10.4957658"><ele>242.0</ele><time>2026-03-29T07:17:04.99Z</time></trkpt><trkpt lat="45.5411937" lon="10.4957924"><ele>242.0</ele><time>2026-03-29T07:17:05.99Z</time></trkpt><trkpt lat="45.5413037" lon="10.4958154"><ele>242.0</ele><time>2026-03-29T07:17:06.99Z</time></trkpt><trkpt lat="45.5414165" lon="10.4958262"><ele>242.0</ele><time>2026-03-29T07:17:07.99Z</time></trkpt><trkpt lat="45.541515" lon="10.4958414"><ele>242.0</ele><time>2026-03-29T07:17:08.992Z</time></trkpt><trkpt lat="45.5416064" lon="10.4958806"><ele>242.0</ele><time>2026-03-29T07:17:09.99Z</time></trkpt><trkpt lat="45.5416832" lon="10.4959621"><ele>242.0</ele><time>2026-03-29T07:17:10.991Z</time></trkpt><trkpt lat="45.5417374" lon="10.4960796"><ele>242.0</ele><time>2026-03-29T07:17:11.991Z</time></trkpt><trkpt lat="45.5417756" lon="10.4962109"><ele>241.39999999999998</ele><time>2026-03-29T07:17:12.991Z</time></trkpt><trkpt lat="45.5418307" lon="10.4963155"><ele>240.79999999999998</ele><time>2026-03-29T07:17:13.991Z</time></trkpt><trkpt lat="45.5419083" lon="10.4963952"><ele>240.2</ele><time>2026-03-29T07:17:14.991Z</time></trkpt><trkpt lat="45.5420003" lon="10.4964441"><ele>239.6</ele><time>2026-03-29T07:17:15.99Z</time></trkpt><trkpt lat="45.542098" lon="10.4964741"><ele>239.0</ele><time>2026-03-29T07:17:16.991Z</time></trkpt><trkpt lat="45.5422031" lon="10.4965059"><ele>239.0</ele><time>2026-03-29T07:17:17.991Z</time></trkpt><trkpt lat="45.5423148" lon="10.496539"><ele>239.0</ele><time>2026-03-29T07:17:18.991Z</time></trkpt><trkpt lat="45.5424338" lon="10.4965668"><ele>239.0</ele><time>2026-03-29T07:17:19.991Z</time></trkpt><trkpt lat="45.5425608" lon="10.4965911"><ele>239.0</ele><time>2026-03-29T07:17:20.991Z</time></trkpt><trkpt lat="45.5426965" lon="10.4966077"><ele>239.0</ele><time>2026-03-29T07:17:21.991Z</time></trkpt><trkpt lat="45.5428305" lon="10.4966149"><ele>239.0</ele><time>2026-03-29T07:17:22.991Z</time></trkpt><trkpt lat="45.5429615" lon="10.496618"><ele>239.0</ele><time>2026-03-29T07:17:23.991Z</time></trkpt><trkpt lat="45.5430905" lon="10.4966155"><ele>239.0</ele><time>2026-03-29T07:17:24.99Z</time></trkpt><trkpt lat="45.5432205" lon="10.4966095"><ele>240.0</ele><time>2026-03-29T07:17:25.99Z</time></trkpt><trkpt lat="45.5433413" lon="10.4966067"><ele>241.0</ele><time>2026-03-29T07:17:26.99Z</time></trkpt><trkpt lat="45.5434799" lon="10.4965973"><ele>242.0</ele><time>2026-03-29T07:17:27.991Z</time></trkpt><trkpt lat="45.5436388" lon="10.4966023"><ele>243.0</ele><time>2026-03-29T07:17:28.991Z</time></trkpt><trkpt lat="45.5438251" lon="10.496614"><ele>243.0</ele><time>2026-03-29T07:17:29.991Z</time></trkpt><trkpt lat="45.5440003" lon="10.4966415"><ele>243.0</ele><time>2026-03-29T07:17:30.991Z</time></trkpt><trkpt lat="45.5441676" lon="10.4966937"><ele>243.0</ele><time>2026-03-29T07:17:31.99Z</time></trkpt><trkpt lat="45.5443328" lon="10.4967489"><ele>243.0</ele><time>2026-03-29T07:17:32.991Z</time></trkpt><trkpt lat="45.5444896" lon="10.496814"><ele>243.0</ele><time>2026-03-29T07:17:33.991Z</time></trkpt><trkpt lat="45.5446391" lon="10.4968882"><ele>243.0</ele><time>2026-03-29T07:17:34.99Z</time></trkpt><trkpt lat="45.544783" lon="10.4969579"><ele>243.5</ele><time>2026-03-29T07:17:35.99Z</time></trkpt><trkpt lat="45.5449148" lon="10.4970061"><ele>244.0</ele><time>2026-03-29T07:17:36.99Z</time></trkpt><trkpt lat="45.5450398" lon="10.4970488"><ele>244.5</ele><time>2026-03-29T07:17:37.99Z</time></trkpt><trkpt lat="45.5451521" lon="10.4970958"><ele>245.0</ele><time>2026-03-29T07:17:38.99Z</time></trkpt><trkpt lat="45.5452624" lon="10.4971598"><ele>245.0</ele><time>2026-03-29T07:17:39.99Z</time></trkpt><trkpt lat="45.54537" lon="10.4972381"><ele>245.0</ele><time>2026-03-29T07:17:40.99Z</time></trkpt><trkpt lat="45.5454628" lon="10.4973533"><ele>245.0</ele><time>2026-03-29T07:17:41.99Z</time></trkpt><trkpt lat="45.5455564" lon="10.4974659"><ele>245.0</ele><time>2026-03-29T07:17:42.99Z</time></trkpt><trkpt lat="45.5456408" lon="10.49758"><ele>245.16666666666669</ele><time>2026-03-29T07:17:43.99Z</time></trkpt><trkpt lat="45.5457185" lon="10.4977004"><ele>245.33333333333334</ele><time>2026-03-29T07:17:44.99Z</time></trkpt><trkpt lat="45.5457838" lon="10.4978019"><ele>245.5</ele><time>2026-03-29T07:17:45.99Z</time></trkpt><trkpt lat="45.545842" lon="10.4978914"><ele>245.66666666666669</ele><time>2026-03-29T07:17:46.99Z</time></trkpt><trkpt lat="45.5458955" lon="10.4979758"><ele>245.83333333333334</ele><time>2026-03-29T07:17:47.991Z</time></trkpt><trkpt lat="45.5459445" lon="10.4980493"><ele>246.0</ele><time>2026-03-29T07:17:48.991Z</time></trkpt><trkpt lat="45.5460205" lon="10.4981543"><ele>246.0</ele><time>2026-03-29T07:17:50.991Z</time></trkpt><trkpt lat="45.5460909" lon="10.4981969"><ele>246.00000000000003</ele><time>2026-03-29T07:17:52.991Z</time></trkpt><trkpt lat="45.5461204" lon="10.4980969"><ele>246.00000000000003</ele><time>2026-03-29T07:17:54.99Z</time></trkpt><trkpt lat="45.5461001" lon="10.4979968"><ele>246.0</ele><time>2026-03-29T07:17:55.99Z</time></trkpt><trkpt lat="45.5460486" lon="10.4978629"><ele>246.0</ele><time>2026-03-29T07:17:56.99Z</time></trkpt><trkpt lat="45.545982" lon="10.4976884"><ele>248.25</ele><time>2026-03-29T07:17:57.99Z</time></trkpt><trkpt lat="45.5459176" lon="10.4974999"><ele>250.5</ele><time>2026-03-29T07:17:58.99Z</time></trkpt><trkpt lat="45.5458529" lon="10.4973083"><ele>252.75</ele><time>2026-03-29T07:17:59.991Z</time></trkpt><trkpt lat="45.5457966" lon="10.4971455"><ele>255.0</ele><time>2026-03-29T07:18:00.991Z</time></trkpt><trkpt lat="45.5457496" lon="10.497005"><ele>255.4</ele><time>2026-03-29T07:18:01.991Z</time></trkpt><trkpt lat="45.5457015" lon="10.4968681"><ele>255.8</ele><time>2026-03-29T07:18:02.991Z</time></trkpt><trkpt lat="45.5456603" lon="10.4967317"><ele>256.2</ele><time>2026-03-29T07:18:03.991Z</time></trkpt><trkpt lat="45.5456307" lon="10.4966132"><ele>256.6</ele><time>2026-03-29T07:18:04.991Z</time></trkpt><trkpt lat="45.5456274" lon="10.4965186"><ele>257.0</ele><time>2026-03-29T07:18:05.991Z</time></trkpt><trkpt lat="45.5456773" lon="10.4964178"><ele>257.0</ele><time>2026-03-29T07:18:07.99Z</time></trkpt><trkpt lat="45.5457841" lon="10.4963767"><ele>257.0</ele><time>2026-03-29T07:18:09.991Z</time></trkpt><trkpt lat="45.5458703" lon="10.4963774"><ele>257.0</ele><time>2026-03-29T07:18:10.991Z</time></trkpt><trkpt lat="45.5459733" lon="10.4963919"><ele>257.0</ele><time>2026-03-29T07:18:11.99Z</time></trkpt><trkpt lat="45.5460936" lon="10.4964021"><ele>257.0</ele><time>2026-03-29T07:18:12.991Z</time></trkpt><trkpt lat="45.5462116" lon="10.4964058"><ele>256.8</ele><time>2026-03-29T07:18:13.991Z</time></trkpt><trkpt lat="45.5463175" lon="10.4964066"><ele>256.6</ele><time>2026-03-29T07:18:14.99Z</time></trkpt><trkpt lat="45.5464208" lon="10.4964021"><ele>256.40000000000003</ele><time>2026-03-29T07:18:15.992Z</time></trkpt><trkpt lat="45.5464828" lon="10.4963698"><ele>256.2</ele><time>2026-03-29T07:18:16.991Z</time></trkpt><trkpt lat="45.5465657" lon="10.4963152"><ele>256.0</ele><time>2026-03-29T07:18:17.991Z</time></trkpt><trkpt lat="45.5466322" lon="10.4962201"><ele>256.0</ele><time>2026-03-29T07:18:18.991Z</time></trkpt><trkpt lat="45.5467048" lon="10.4961087"><ele>256.0</ele><time>2026-03-29T07:18:19.991Z</time></trkpt><trkpt lat="45.5467741" lon="10.4959854"><ele>256.0</ele><time>2026-03-29T07:18:20.99Z</time></trkpt><trkpt lat="45.5468334" lon="10.4958691"><ele>256.0</ele><time>2026-03-29T07:18:21.99Z</time></trkpt><trkpt lat="45.5468758" lon="10.4957391"><ele>256.0</ele><time>2026-03-29T07:18:22.991Z</time></trkpt><trkpt lat="45.5469033" lon="10.4956068"><ele>255.99999999999997</ele><time>2026-03-29T07:18:23.991Z</time></trkpt><trkpt lat="45.5469134" lon="10.4954937"><ele>256.0</ele><time>2026-03-29T07:18:24.991Z</time></trkpt><trkpt lat="45.5469031" lon="10.4953909"><ele>256.0</ele><time>2026-03-29T07:18:25.99Z</time></trkpt><trkpt lat="45.5468672" lon="10.495306"><ele>256.0</ele><time>2026-03-29T07:18:26.991Z</time></trkpt><trkpt lat="45.5468032" lon="10.4952145"><ele>255.99999999999997</ele><time>2026-03-29T07:18:27.991Z</time></trkpt><trkpt lat="45.5467272" lon="10.4951008"><ele>256.0</ele><time>2026-03-29T07:18:28.99Z</time></trkpt><trkpt lat="45.5466671" lon="10.4949801"><ele>255.60000000000002</ele><time>2026-03-29T07:18:29.99Z</time></trkpt><trkpt lat="45.5466135" lon="10.4948557"><ele>255.20000000000002</ele><time>2026-03-29T07:18:30.99Z</time></trkpt><trkpt lat="45.5465707" lon="10.494733"><ele>254.79999999999998</ele><time>2026-03-29T07:18:31.99Z</time></trkpt><trkpt lat="45.5465436" lon="10.4946102"><ele>254.39999999999998</ele><time>2026-03-29T07:18:32.99Z</time></trkpt><trkpt lat="45.5465444" lon="10.4944995"><ele>254.0</ele><time>2026-03-29T07:18:33.991Z</time></trkpt><trkpt lat="45.5465641" lon="10.4943761"><ele>253.79999999999998</ele><time>2026-03-29T07:18:34.991Z</time></trkpt><trkpt lat="45.5465913" lon="10.4942389"><ele>253.59999999999997</ele><time>2026-03-29T07:18:35.991Z</time></trkpt><trkpt lat="45.5466237" lon="10.4941005"><ele>253.4</ele><time>2026-03-29T07:18:36.991Z</time></trkpt><trkpt lat="45.5466567" lon="10.4939698"><ele>253.2</ele><time>2026-03-29T07:18:37.991Z</time></trkpt><trkpt lat="45.5466857" lon="10.493839"><ele>253.0</ele><time>2026-03-29T07:18:38.99Z</time></trkpt><trkpt lat="45.5467215" lon="10.4937103"><ele>253.0</ele><time>2026-03-29T07:18:39.991Z</time></trkpt><trkpt lat="45.5467677" lon="10.493579"><ele>253.0</ele><time>2026-03-29T07:18:40.991Z</time></trkpt><trkpt lat="45.5468317" lon="10.4934346"><ele>253.0</ele><time>2026-03-29T07:18:41.991Z</time></trkpt><trkpt lat="45.5469051" lon="10.4933065"><ele>253.0</ele><time>2026-03-29T07:18:42.99Z</time></trkpt><trkpt lat="45.5469853" lon="10.4931758"><ele>252.8</ele><time>2026-03-29T07:18:43.99Z</time></trkpt><trkpt lat="45.5470657" lon="10.4930458"><ele>252.60000000000002</ele><time>2026-03-29T07:18:44.991Z</time></trkpt><trkpt lat="45.5471403" lon="10.4929205"><ele>252.39999999999998</ele><time>2026-03-29T07:18:45.99Z</time></trkpt><trkpt lat="45.5471999" lon="10.4927975"><ele>252.2</ele><time>2026-03-29T07:18:46.99Z</time></trkpt><trkpt lat="45.5472472" lon="10.4926818"><ele>252.0</ele><time>2026-03-29T07:18:47.991Z</time></trkpt><trkpt lat="45.5472926" lon="10.4925603"><ele>252.0</ele><time>2026-03-29T07:18:48.991Z</time></trkpt><trkpt lat="45.54733" lon="10.4924475"><ele>252.0</ele><time>2026-03-29T07:18:49.991Z</time></trkpt><trkpt lat="45.5473636" lon="10.4923167"><ele>252.0</ele><time>2026-03-29T07:18:50.991Z</time></trkpt><trkpt lat="45.547389" lon="10.4921812"><ele>252.0</ele><time>2026-03-29T07:18:51.99Z</time></trkpt><trkpt lat="45.5474186" lon="10.4920279"><ele>252.0</ele><time>2026-03-29T07:18:52.99Z</time></trkpt><trkpt lat="45.5474436" lon="10.4919116"><ele>251.85714285714286</ele><time>2026-03-29T07:18:53.991Z</time></trkpt><trkpt lat="45.5474686" lon="10.491823"><ele>251.71428571428572</ele><time>2026-03-29T07:18:54.991Z</time></trkpt><trkpt lat="45.5475258" lon="10.4917452"><ele>251.57142857142856</ele><time>2026-03-29T07:18:57.99Z</time></trkpt><trkpt lat="45.5475903" lon="10.4918042"><ele>251.42857142857142</ele><time>2026-03-29T07:26:29.99Z</time></trkpt><trkpt lat="45.5475998" lon="10.491711"><ele>251.28571428571428</ele><time>2026-03-29T07:26:35.989Z</time></trkpt><trkpt lat="45.5475616" lon="10.4916273"><ele>251.1428571428571</ele><time>2026-03-29T07:26:59.99Z</time></trkpt><trkpt lat="45.5475773" lon="10.4915109"><ele>250.99999999999997</ele><time>2026-03-29T07:27:01.99Z</time></trkpt><trkpt lat="45.5476059" lon="10.4913817"><ele>250.8</ele><time>2026-03-29T07:28:42.991Z</time></trkpt><trkpt lat="45.5476581" lon="10.4912569"><ele>250.60000000000002</ele><time>2026-03-29T07:28:44.991Z</time></trkpt><trkpt lat="45.547734" lon="10.4911261"><ele>250.4</ele><time>2026-03-29T07:28:46.99Z</time></trkpt><trkpt lat="45.5478058" lon="10.4910147"><ele>250.2</ele><time>2026-03-29T07:28:48.99Z</time></trkpt><trkpt lat="45.5478722" lon="10.4909035"><ele>250.0</ele><time>2026-03-29T07:28:50.991Z</time></trkpt><trkpt lat="45.547938" lon="10.4907879"><ele>249.99999999999997</ele><time>2026-03-29T07:28:52.991Z</time></trkpt><trkpt lat="45.5479993" lon="10.4906413"><ele>250.0</ele><time>2026-03-29T07:28:54.991Z</time></trkpt><trkpt lat="45.5480235" lon="10.4905583"><ele>250.0</ele><time>2026-03-29T07:28:55.99Z</time></trkpt><trkpt lat="45.5480484" lon="10.4904713"><ele>250.0</ele><time>2026-03-29T07:28:56.99Z</time></trkpt><trkpt lat="45.5480707" lon="10.4903862"><ele>249.99999999999997</ele><time>2026-03-29T07:28:57.99Z</time></trkpt><trkpt lat="45.5480979" lon="10.4902915"><ele>250.0</ele><time>2026-03-29T07:28:58.99Z</time></trkpt><trkpt lat="45.548124" lon="10.4901942"><ele>250.0</ele><time>2026-03-29T07:28:59.99Z</time></trkpt><trkpt lat="45.5481523" lon="10.490103"><ele>250.0</ele><time>2026-03-29T07:29:00.99Z</time></trkpt><trkpt lat="45.5481794" lon="10.4900163"><ele>250.0</ele><time>2026-03-29T07:29:01.992Z</time></trkpt><trkpt lat="45.5482101" lon="10.4899316"><ele>250.0</ele><time>2026-03-29T07:29:02.991Z</time></trkpt><trkpt lat="45.5482446" lon="10.48985"><ele>250.0</ele><time>2026-03-29T07:29:03.991Z</time></trkpt><trkpt lat="45.5482849" lon="10.4897655"><ele>250.0</ele><time>2026-03-29T07:29:04.99Z</time></trkpt><trkpt lat="45.5483272" lon="10.4896884"><ele>250.0</ele><time>2026-03-29T07:29:05.991Z</time></trkpt><trkpt lat="45.5483731" lon="10.4896215"><ele>250.0</ele><time>2026-03-29T07:29:06.99Z</time></trkpt><trkpt lat="45.54843" lon="10.4895534"><ele>250.0</ele><time>2026-03-29T07:29:07.991Z</time></trkpt><trkpt lat="45.5484883" lon="10.4894876"><ele>250.0</ele><time>2026-03-29T07:29:08.991Z</time></trkpt><trkpt lat="45.5485531" lon="10.4894263"><ele>250.0</ele><time>2026-03-29T07:29:09.991Z</time></trkpt><trkpt lat="45.548612" lon="10.4893686"><ele>250.0</ele><time>2026-03-29T07:29:10.991Z</time></trkpt><trkpt lat="45.5486698" lon="10.4893052"><ele>250.0</ele><time>2026-03-29T07:29:11.991Z</time></trkpt><trkpt lat="45.5487192" lon="10.4892379"><ele>250.0</ele><time>2026-03-29T07:29:12.991Z</time></trkpt><trkpt lat="45.5487604" lon="10.4891646"><ele>249.99999999999997</ele><time>2026-03-29T07:29:13.991Z</time></trkpt><trkpt lat="45.5487977" lon="10.4890725"><ele>250.0</ele><time>2026-03-29T07:29:14.991Z</time></trkpt><trkpt lat="45.5488314" lon="10.4889665"><ele>250.0</ele><time>2026-03-29T07:29:15.99Z</time></trkpt><trkpt lat="45.5488647" lon="10.4888539"><ele>250.0</ele><time>2026-03-29T07:29:16.99Z</time></trkpt><trkpt lat="45.5488974" lon="10.4887394"><ele>249.99999999999997</ele><time>2026-03-29T07:29:17.991Z</time></trkpt><trkpt lat="45.5489311" lon="10.4886163"><ele>250.0</ele><time>2026-03-29T07:29:18.991Z</time></trkpt><trkpt lat="45.5489654" lon="10.4884917"><ele>249.8</ele><time>2026-03-29T07:29:19.991Z</time></trkpt><trkpt lat="45.5489948" lon="10.488356"><ele>249.6</ele><time>2026-03-29T07:29:20.991Z</time></trkpt><trkpt lat="45.5490146" lon="10.4882261"><ele>249.39999999999998</ele><time>2026-03-29T07:29:21.991Z</time></trkpt><trkpt lat="45.5490339" lon="10.48809"><ele>249.2</ele><time>2026-03-29T07:29:22.99Z</time></trkpt><trkpt lat="45.5490477" lon="10.4879544"><ele>249.0</ele><time>2026-03-29T07:29:23.992Z</time></trkpt><trkpt lat="45.5490672" lon="10.4878329"><ele>249.0</ele><time>2026-03-29T07:29:24.991Z</time></trkpt><trkpt lat="45.549089" lon="10.4877114"><ele>249.0</ele><time>2026-03-29T07:29:25.991Z</time></trkpt><trkpt lat="45.549108" lon="10.487586"><ele>249.0</ele><time>2026-03-29T07:29:26.991Z</time></trkpt><trkpt lat="45.5491235" lon="10.487454"><ele>249.0</ele><time>2026-03-29T07:29:27.99Z</time></trkpt><trkpt lat="45.549132" lon="10.4873231"><ele>249.0</ele><time>2026-03-29T07:29:28.99Z</time></trkpt><trkpt lat="45.5491445" lon="10.4872042"><ele>249.0</ele><time>2026-03-29T07:29:29.991Z</time></trkpt><trkpt lat="45.5491613" lon="10.4870804"><ele>249.16666666666666</ele><time>2026-03-29T07:29:30.99Z</time></trkpt><trkpt lat="45.5491794" lon="10.4869627"><ele>249.33333333333331</ele><time>2026-03-29T07:29:31.99Z</time></trkpt><trkpt lat="45.5492052" lon="10.4868547"><ele>249.5</ele><time>2026-03-29T07:29:32.992Z</time></trkpt><trkpt lat="45.5492456" lon="10.4867525"><ele>249.66666666666666</ele><time>2026-03-29T07:29:33.991Z</time></trkpt><trkpt lat="45.5492943" lon="10.4866551"><ele>249.83333333333331</ele><time>2026-03-29T07:29:34.991Z</time></trkpt><trkpt lat="45.5493537" lon="10.4865684"><ele>250.0</ele><time>2026-03-29T07:29:35.99Z</time></trkpt><trkpt lat="45.5494186" lon="10.4864942"><ele>249.99999999999997</ele><time>2026-03-29T07:29:36.991Z</time></trkpt><trkpt lat="45.5494822" lon="10.4864275"><ele>250.0</ele><time>2026-03-29T07:29:37.99Z</time></trkpt><trkpt lat="45.5495377" lon="10.4863712"><ele>250.0</ele><time>2026-03-29T07:29:38.99Z</time></trkpt><trkpt lat="45.5496246" lon="10.4862639"><ele>250.0</ele><time>2026-03-29T07:29:40.991Z</time></trkpt><trkpt lat="45.5496313" lon="10.4861137"><ele>249.99999999999997</ele><time>2026-03-29T07:29:42.991Z</time></trkpt><trkpt lat="45.5495853" lon="10.4860194"><ele>250.0</ele><time>2026-03-29T07:29:43.99Z</time></trkpt><trkpt lat="45.5495209" lon="10.4859266"><ele>250.99999999999997</ele><time>2026-03-29T07:29:44.99Z</time></trkpt><trkpt lat="45.54947" lon="10.4858467"><ele>252.0</ele><time>2026-03-29T07:29:45.99Z</time></trkpt><trkpt lat="45.5494149" lon="10.4857515"><ele>253.0</ele><time>2026-03-29T07:29:46.99Z</time></trkpt><trkpt lat="45.5493625" lon="10.4856726"><ele>254.0</ele><time>2026-03-29T07:29:47.991Z</time></trkpt><trkpt lat="45.5493103" lon="10.4855318"><ele>254.99999999999997</ele><time>2026-03-29T07:29:49.99Z</time></trkpt><trkpt lat="45.5493191" lon="10.4853974"><ele>256.0</ele><time>2026-03-29T07:29:51.99Z</time></trkpt><trkpt lat="45.5493551" lon="10.4853072"><ele>255.33333333333331</ele><time>2026-03-29T07:29:52.991Z</time></trkpt><trkpt lat="45.5494102" lon="10.4852162"><ele>254.66666666666666</ele><time>2026-03-29T07:29:53.99Z</time></trkpt><trkpt lat="45.5494597" lon="10.4851502"><ele>254.0</ele><time>2026-03-29T07:29:54.992Z</time></trkpt><trkpt lat="45.5495128" lon="10.4850957"><ele>253.33333333333331</ele><time>2026-03-29T07:29:55.99Z</time></trkpt><trkpt lat="45.549584" lon="10.4850311"><ele>252.66666666666666</ele><time>2026-03-29T07:29:56.99Z</time></trkpt><trkpt lat="45.5496603" lon="10.4849632"><ele>252.0</ele><time>2026-03-29T07:29:57.991Z</time></trkpt><trkpt lat="45.5497443" lon="10.4848893"><ele>252.0</ele><time>2026-03-29T07:29:58.991Z</time></trkpt><trkpt lat="45.5498303" lon="10.4848016"><ele>252.0</ele><time>2026-03-29T07:29:59.99Z</time></trkpt><trkpt lat="45.5499108" lon="10.4847092"><ele>252.0</ele><time>2026-03-29T07:30:00.992Z</time></trkpt><trkpt lat="45.5499939" lon="10.484602"><ele>252.0</ele><time>2026-03-29T07:30:01.991Z</time></trkpt><trkpt lat="45.5500843" lon="10.4845054"><ele>252.0</ele><time>2026-03-29T07:30:02.99Z</time></trkpt><trkpt lat="45.5501819" lon="10.4844209"><ele>253.25</ele><time>2026-03-29T07:30:03.99Z</time></trkpt><trkpt lat="45.550288" lon="10.4843493"><ele>254.5</ele><time>2026-03-29T07:30:04.99Z</time></trkpt><trkpt lat="45.5503944" lon="10.4842823"><ele>255.75</ele><time>2026-03-29T07:30:05.991Z</time></trkpt><trkpt lat="45.5504994" lon="10.4842183"><ele>257.0</ele><time>2026-03-29T07:30:06.991Z</time></trkpt><trkpt lat="45.5505997" lon="10.4841543"><ele>257.0</ele><time>2026-03-29T07:30:07.991Z</time></trkpt><trkpt lat="45.5506835" lon="10.4841089"><ele>257.0</ele><time>2026-03-29T07:30:08.991Z</time></trkpt><trkpt lat="45.5507647" lon="10.4840966"><ele>257.0</ele><time>2026-03-29T07:30:09.991Z</time></trkpt><trkpt lat="45.5508353" lon="10.4841152"><ele>257.0</ele><time>2026-03-29T07:30:10.99Z</time></trkpt><trkpt lat="45.5509228" lon="10.4841671"><ele>257.0</ele><time>2026-03-29T07:30:11.99Z</time></trkpt><trkpt lat="45.5510123" lon="10.4842237"><ele>257.0</ele><time>2026-03-29T07:30:12.99Z</time></trkpt><trkpt lat="45.5511026" lon="10.484274"><ele>257.0</ele><time>2026-03-29T07:30:13.991Z</time></trkpt><trkpt lat="45.5511976" lon="10.4843223"><ele>257.0</ele><time>2026-03-29T07:30:14.991Z</time></trkpt><trkpt lat="45.5512976" lon="10.4843612"><ele>257.0</ele><time>2026-03-29T07:30:15.991Z</time></trkpt><trkpt lat="45.5513964" lon="10.4843939"><ele>257.0</ele><time>2026-03-29T07:30:16.991Z</time></trkpt><trkpt lat="45.5514924" lon="10.4844185"><ele>257.0</ele><time>2026-03-29T07:30:17.99Z</time></trkpt><trkpt lat="45.5515872" lon="10.4844504"><ele>257.1666666666667</ele><time>2026-03-29T07:30:18.991Z</time></trkpt><trkpt lat="45.5516737" lon="10.4844865"><ele>257.33333333333337</ele><time>2026-03-29T07:30:19.991Z</time></trkpt><trkpt lat="45.5517451" lon="10.4845182"><ele>257.5</ele><time>2026-03-29T07:30:20.99Z</time></trkpt><trkpt lat="45.5518158" lon="10.4845486"><ele>257.6666666666667</ele><time>2026-03-29T07:30:21.99Z</time></trkpt><trkpt lat="45.5518836" lon="10.4845829"><ele>257.8333333333333</ele><time>2026-03-29T07:30:22.99Z</time></trkpt><trkpt lat="45.5519462" lon="10.4846228"><ele>258.0</ele><time>2026-03-29T07:30:23.99Z</time></trkpt><trkpt lat="45.5520168" lon="10.4846698"><ele>258.8</ele><time>2026-03-29T07:30:24.99Z</time></trkpt><trkpt lat="45.5520956" lon="10.4847185"><ele>259.6</ele><time>2026-03-29T07:30:25.991Z</time></trkpt><trkpt lat="45.5521822" lon="10.4847655"><ele>260.4</ele><time>2026-03-29T07:30:26.991Z</time></trkpt><trkpt lat="45.5522726" lon="10.4848172"><ele>261.2</ele><time>2026-03-29T07:30:27.991Z</time></trkpt><trkpt lat="45.5523693" lon="10.4848709"><ele>262.0</ele><time>2026-03-29T07:30:28.991Z</time></trkpt><trkpt lat="45.5524461" lon="10.4849139"><ele>262.0</ele><time>2026-03-29T07:30:29.99Z</time></trkpt><trkpt lat="45.5525141" lon="10.4849436"><ele>262.0</ele><time>2026-03-29T07:30:30.99Z</time></trkpt><trkpt lat="45.5525765" lon="10.4849615"><ele>262.0</ele><time>2026-03-29T07:30:31.99Z</time></trkpt><trkpt lat="45.5526622" lon="10.4849581"><ele>262.0</ele><time>2026-03-29T07:30:33.99Z</time></trkpt><trkpt lat="45.5527153" lon="10.4849036"><ele>262.0</ele><time>2026-03-29T07:30:36.99Z</time></trkpt><trkpt lat="45.5527522" lon="10.4848149"><ele>262.0</ele><time>2026-03-29T07:30:38.991Z</time></trkpt><trkpt lat="45.5527187" lon="10.4847188"><ele>262.0</ele><time>2026-03-29T07:30:41.991Z</time></trkpt><trkpt lat="45.5526115" lon="10.4846565"><ele>262.0</ele><time>2026-03-29T07:30:43.991Z</time></trkpt><trkpt lat="45.5525306" lon="10.4846374"><ele>262.0</ele><time>2026-03-29T07:30:44.991Z</time></trkpt><trkpt lat="45.5524551" lon="10.4846096"><ele>262.0</ele><time>2026-03-29T07:30:45.991Z</time></trkpt><trkpt lat="45.5523737" lon="10.4845555"><ele>262.0</ele><time>2026-03-29T07:30:46.991Z</time></trkpt><trkpt lat="45.5523135" lon="10.4845252"><ele>262.0</ele><time>2026-03-29T07:30:47.991Z</time></trkpt><trkpt lat="45.5521953" lon="10.484434"><ele>262.0</ele><time>2026-03-29T07:30:49.99Z</time></trkpt><trkpt lat="45.5521379" lon="10.4843407"><ele>262.5</ele><time>2026-03-29T07:30:50.99Z</time></trkpt><trkpt lat="45.5520852" lon="10.4842691"><ele>263.0</ele><time>2026-03-29T07:30:51.99Z</time></trkpt><trkpt lat="45.5520367" lon="10.484189"><ele>263.5</ele><time>2026-03-29T07:30:52.99Z</time></trkpt><trkpt lat="45.5519672" lon="10.4841177"><ele>264.0</ele><time>2026-03-29T07:30:53.99Z</time></trkpt><trkpt lat="45.5519032" lon="10.4840543"><ele>264.5</ele><time>2026-03-29T07:30:54.99Z</time></trkpt><trkpt lat="45.5518446" lon="10.4839923"><ele>265.0</ele><time>2026-03-29T07:30:55.991Z</time></trkpt><trkpt lat="45.5517891" lon="10.4839107"><ele>265.0</ele><time>2026-03-29T07:30:56.991Z</time></trkpt><trkpt lat="45.5517456" lon="10.4838285"><ele>265.0</ele><time>2026-03-29T07:30:57.991Z</time></trkpt><trkpt lat="45.5516955" lon="10.4837307"><ele>265.0</ele><time>2026-03-29T07:30:58.99Z</time></trkpt><trkpt lat="45.5516483" lon="10.4836262"><ele>265.0</ele><time>2026-03-29T07:30:59.991Z</time></trkpt><trkpt lat="45.5516122" lon="10.4835177"><ele>265.0</ele><time>2026-03-29T07:31:00.992Z</time></trkpt><trkpt lat="45.5515784" lon="10.4834108"><ele>265.0</ele><time>2026-03-29T07:31:01.99Z</time></trkpt><trkpt lat="45.551545" lon="10.4832947"><ele>266.2</ele><time>2026-03-29T07:31:02.99Z</time></trkpt><trkpt lat="45.5514999" lon="10.4831848"><ele>267.4</ele><time>2026-03-29T07:31:03.991Z</time></trkpt><trkpt lat="45.5514618" lon="10.4830639"><ele>268.6</ele><time>2026-03-29T07:31:04.991Z</time></trkpt><trkpt lat="45.5514246" lon="10.48294"><ele>269.8</ele><time>2026-03-29T07:31:05.991Z</time></trkpt><trkpt lat="45.5513946" lon="10.4828067"><ele>271.0</ele><time>2026-03-29T07:31:06.991Z</time></trkpt><trkpt lat="45.5513575" lon="10.4826747"><ele>270.8</ele><time>2026-03-29T07:31:07.991Z</time></trkpt><trkpt lat="45.5513052" lon="10.4825534"><ele>270.6</ele><time>2026-03-29T07:31:08.991Z</time></trkpt><trkpt lat="45.5512471" lon="10.4824267"><ele>270.4</ele><time>2026-03-29T07:31:09.991Z</time></trkpt><trkpt lat="45.5511824" lon="10.4823063"><ele>270.2</ele><time>2026-03-29T07:31:10.991Z</time></trkpt><trkpt lat="45.5511113" lon="10.4821878"><ele>270.0</ele><time>2026-03-29T07:31:11.991Z</time></trkpt><trkpt lat="45.5510298" lon="10.4820795"><ele>270.0</ele><time>2026-03-29T07:31:12.991Z</time></trkpt><trkpt lat="45.5509479" lon="10.4819745"><ele>270.0</ele><time>2026-03-29T07:31:13.99Z</time></trkpt><trkpt lat="45.550859" lon="10.481879"><ele>270.0</ele><time>2026-03-29T07:31:14.99Z</time></trkpt><trkpt lat="45.5507889" lon="10.4818047"><ele>270.0</ele><time>2026-03-29T07:31:15.991Z</time></trkpt><trkpt lat="45.5507349" lon="10.4817575"><ele>270.0</ele><time>2026-03-29T07:31:16.99Z</time></trkpt><trkpt lat="45.5506751" lon="10.4816982"><ele>270.0</ele><time>2026-03-29T07:31:18.99Z</time></trkpt><trkpt lat="45.5506239" lon="10.4816261"><ele>270.0</ele><time>2026-03-29T07:31:21.99Z</time></trkpt><trkpt lat="45.5505197" lon="10.4815578"><ele>270.0</ele><time>2026-03-29T07:31:24.991Z</time></trkpt><trkpt lat="45.5504584" lon="10.4815049"><ele>270.0</ele><time>2026-03-29T07:31:25.992Z</time></trkpt><trkpt lat="45.5503866" lon="10.4814255"><ele>270.0</ele><time>2026-03-29T07:31:26.991Z</time></trkpt><trkpt lat="45.5503005" lon="10.4813249"><ele>270.0</ele><time>2026-03-29T07:31:27.99Z</time></trkpt><trkpt lat="45.550198" lon="10.4812268"><ele>270.0</ele><time>2026-03-29T07:31:28.991Z</time></trkpt><trkpt lat="45.55008" lon="10.4811202"><ele>270.0</ele><time>2026-03-29T07:31:29.991Z</time></trkpt><trkpt lat="45.5499574" lon="10.4810195"><ele>270.0</ele><time>2026-03-29T07:31:30.991Z</time></trkpt><trkpt lat="45.5498251" lon="10.4809509"><ele>270.0</ele><time>2026-03-29T07:31:31.99Z</time></trkpt><trkpt lat="45.5496769" lon="10.4808813"><ele>270.0</ele><time>2026-03-29T07:31:32.991Z</time></trkpt><trkpt lat="45.5495493" lon="10.4808228"><ele>270.0</ele><time>2026-03-29T07:31:33.991Z</time></trkpt><trkpt lat="45.5494195" lon="10.4807644"><ele>270.0</ele><time>2026-03-29T07:31:34.99Z</time></trkpt><trkpt lat="45.5493109" lon="10.4807096"><ele>270.0</ele><time>2026-03-29T07:31:35.99Z</time></trkpt><trkpt lat="45.5491968" lon="10.4806588"><ele>270.1666666666667</ele><time>2026-03-29T07:31:36.991Z</time></trkpt><trkpt lat="45.5491049" lon="10.4806157"><ele>270.3333333333333</ele><time>2026-03-29T07:31:37.991Z</time></trkpt><trkpt lat="45.549039" lon="10.4805819"><ele>270.5</ele><time>2026-03-29T07:31:38.991Z</time></trkpt><trkpt lat="45.5489774" lon="10.4805056"><ele>270.66666666666663</ele><time>2026-03-29T07:31:40.99Z</time></trkpt><trkpt lat="45.548971" lon="10.4804052"><ele>270.8333333333333</ele><time>2026-03-29T07:31:42.991Z</time></trkpt><trkpt lat="45.5489602" lon="10.4802537"><ele>271.0</ele><time>2026-03-29T07:31:44.991Z</time></trkpt><trkpt lat="45.5489302" lon="10.4801723"><ele>271.0</ele><time>2026-03-29T07:31:45.991Z</time></trkpt><trkpt lat="45.5488789" lon="10.4800835"><ele>271.0</ele><time>2026-03-29T07:31:46.99Z</time></trkpt><trkpt lat="45.5488139" lon="10.4799732"><ele>271.0</ele><time>2026-03-29T07:31:47.991Z</time></trkpt><trkpt lat="45.5487438" lon="10.4798565"><ele>271.0</ele><time>2026-03-29T07:31:48.991Z</time></trkpt><trkpt lat="45.5486825" lon="10.4797402"><ele>271.0</ele><time>2026-03-29T07:31:49.991Z</time></trkpt><trkpt lat="45.5486332" lon="10.4795817"><ele>270.0</ele><time>2026-03-29T07:31:50.991Z</time></trkpt><trkpt lat="45.5485827" lon="10.4794247"><ele>269.0</ele><time>2026-03-29T07:31:51.991Z</time></trkpt><trkpt lat="45.5485239" lon="10.4792582"><ele>268.0</ele><time>2026-03-29T07:31:52.991Z</time></trkpt><trkpt lat="45.5484753" lon="10.4790908"><ele>267.0</ele><time>2026-03-29T07:31:53.99Z</time></trkpt><trkpt lat="45.5484309" lon="10.478922"><ele>267.25</ele><time>2026-03-29T07:31:54.991Z</time></trkpt><trkpt lat="45.5483743" lon="10.4787453"><ele>267.5</ele><time>2026-03-29T07:31:55.991Z</time></trkpt><trkpt lat="45.5483164" lon="10.4785795"><ele>267.75</ele><time>2026-03-29T07:31:56.99Z</time></trkpt><trkpt lat="45.5482519" lon="10.47843"><ele>268.0</ele><time>2026-03-29T07:31:57.991Z</time></trkpt><trkpt lat="45.5481807" lon="10.4782859"><ele>268.0</ele><time>2026-03-29T07:31:58.991Z</time></trkpt><trkpt lat="45.5481235" lon="10.4781567"><ele>268.0</ele><time>2026-03-29T07:31:59.991Z</time></trkpt><trkpt lat="45.5480527" lon="10.4780135"><ele>268.0</ele><time>2026-03-29T07:32:00.99Z</time></trkpt><trkpt lat="45.5479817" lon="10.4778586"><ele>268.0</ele><time>2026-03-29T07:32:01.99Z</time></trkpt><trkpt lat="45.5479134" lon="10.4776932"><ele>270.25</ele><time>2026-03-29T07:32:02.991Z</time></trkpt><trkpt lat="45.5478525" lon="10.4775129"><ele>272.5</ele><time>2026-03-29T07:32:03.991Z</time></trkpt><trkpt lat="45.5477895" lon="10.4773379"><ele>274.75</ele><time>2026-03-29T07:32:04.991Z</time></trkpt><trkpt lat="45.547722" lon="10.4771627"><ele>277.0</ele><time>2026-03-29T07:32:05.991Z</time></trkpt><trkpt lat="45.5476581" lon="10.4769952"><ele>277.8</ele><time>2026-03-29T07:32:06.991Z</time></trkpt><trkpt lat="45.5475971" lon="10.4768478"><ele>278.6</ele><time>2026-03-29T07:32:07.991Z</time></trkpt><trkpt lat="45.5475469" lon="10.4767289"><ele>279.40000000000003</ele><time>2026-03-29T07:32:08.99Z</time></trkpt><trkpt lat="45.5474883" lon="10.4766278"><ele>280.2</ele><time>2026-03-29T07:32:09.991Z</time></trkpt><trkpt lat="45.5474315" lon="10.4765344"><ele>281.0</ele><time>2026-03-29T07:32:10.991Z</time></trkpt><trkpt lat="45.5473805" lon="10.4764654"><ele>281.0</ele><time>2026-03-29T07:32:11.991Z</time></trkpt><trkpt lat="45.5473269" lon="10.4763691"><ele>281.0</ele><time>2026-03-29T07:32:12.99Z</time></trkpt><trkpt lat="45.5472444" lon="10.4762862"><ele>281.0</ele><time>2026-03-29T07:32:13.99Z</time></trkpt><trkpt lat="45.5471687" lon="10.4761651"><ele>281.0</ele><time>2026-03-29T07:32:14.991Z</time></trkpt><trkpt lat="45.5470941" lon="10.47605"><ele>281.0</ele><time>2026-03-29T07:32:15.991Z</time></trkpt><trkpt lat="45.5470208" lon="10.4759197"><ele>281.8</ele><time>2026-03-29T07:32:16.991Z</time></trkpt><trkpt lat="45.5469621" lon="10.4757859"><ele>282.6</ele><time>2026-03-29T07:32:17.991Z</time></trkpt><trkpt lat="45.5468977" lon="10.4756457"><ele>283.4</ele><time>2026-03-29T07:32:18.99Z</time></trkpt><trkpt lat="45.5468354" lon="10.4755288"><ele>284.2</ele><time>2026-03-29T07:32:19.99Z</time></trkpt><trkpt lat="45.546761" lon="10.4754258"><ele>285.0</ele><time>2026-03-29T07:32:20.991Z</time></trkpt><trkpt lat="45.5466842" lon="10.4753266"><ele>285.0</ele><time>2026-03-29T07:32:21.991Z</time></trkpt><trkpt lat="45.5465932" lon="10.4752295"><ele>285.0</ele><time>2026-03-29T07:32:22.991Z</time></trkpt><trkpt lat="45.5465059" lon="10.4751335"><ele>285.0</ele><time>2026-03-29T07:32:23.99Z</time></trkpt><trkpt lat="45.546412" lon="10.4750229"><ele>285.0</ele><time>2026-03-29T07:32:24.991Z</time></trkpt><trkpt lat="45.5463421" lon="10.4749213"><ele>285.0</ele><time>2026-03-29T07:32:25.991Z</time></trkpt><trkpt lat="45.5462756" lon="10.4748249"><ele>284.8</ele><time>2026-03-29T07:32:26.991Z</time></trkpt><trkpt lat="45.5462099" lon="10.4747049"><ele>284.6</ele><time>2026-03-29T07:32:28.99Z</time></trkpt><trkpt lat="45.5461776" lon="10.4745942"><ele>284.4</ele><time>2026-03-29T07:32:30.991Z</time></trkpt><trkpt lat="45.546215" lon="10.4744183"><ele>284.2</ele><time>2026-03-29T07:32:32.989Z</time></trkpt><trkpt lat="45.5462444" lon="10.4743141"><ele>284.0</ele><time>2026-03-29T07:32:33.99Z</time></trkpt><trkpt lat="45.5462856" lon="10.4742058"><ele>284.0</ele><time>2026-03-29T07:32:34.989Z</time></trkpt><trkpt lat="45.5463305" lon="10.4740944"><ele>284.0</ele><time>2026-03-29T07:32:35.99Z</time></trkpt><trkpt lat="45.546378" lon="10.4739785"><ele>284.0</ele><time>2026-03-29T07:32:36.99Z</time></trkpt><trkpt lat="45.5464262" lon="10.4738645"><ele>284.0</ele><time>2026-03-29T07:32:37.99Z</time></trkpt><trkpt lat="45.5464748" lon="10.4737548"><ele>284.0</ele><time>2026-03-29T07:32:38.989Z</time></trkpt><trkpt lat="45.5465246" lon="10.473643"><ele>282.5</ele><time>2026-03-29T07:32:39.989Z</time></trkpt><trkpt lat="45.5465722" lon="10.4735335"><ele>281.0</ele><time>2026-03-29T07:32:40.989Z</time></trkpt><trkpt lat="45.5466204" lon="10.4734233"><ele>279.5</ele><time>2026-03-29T07:32:41.991Z</time></trkpt><trkpt lat="45.5466685" lon="10.4733124"><ele>278.0</ele><time>2026-03-29T07:32:42.99Z</time></trkpt><trkpt lat="45.5467168" lon="10.4732015"><ele>276.5</ele><time>2026-03-29T07:32:43.989Z</time></trkpt><trkpt lat="45.5467603" lon="10.4731053"><ele>275.0</ele><time>2026-03-29T07:32:44.989Z</time></trkpt><trkpt lat="45.5468011" lon="10.4730034"><ele>274.33333333333337</ele><time>2026-03-29T07:32:45.989Z</time></trkpt><trkpt lat="45.5468461" lon="10.4728921"><ele>273.6666666666667</ele><time>2026-03-29T07:32:46.989Z</time></trkpt><trkpt lat="45.5468985" lon="10.4727803"><ele>273.0</ele><time>2026-03-29T07:32:47.989Z</time></trkpt><trkpt lat="45.5469527" lon="10.4726763"><ele>272.3333333333333</ele><time>2026-03-29T07:32:48.99Z</time></trkpt><trkpt lat="45.5470111" lon="10.4725876"><ele>271.66666666666663</ele><time>2026-03-29T07:32:49.989Z</time></trkpt><trkpt lat="45.547068" lon="10.4725225"><ele>271.0</ele><time>2026-03-29T07:32:50.989Z</time></trkpt><trkpt lat="45.5471249" lon="10.4724737"><ele>271.0</ele><time>2026-03-29T07:32:51.99Z</time></trkpt><trkpt lat="45.5471844" lon="10.4724281"><ele>271.0</ele><time>2026-03-29T07:32:52.99Z</time></trkpt><trkpt lat="45.5472519" lon="10.4724123"><ele>271.0</ele><time>2026-03-29T07:32:53.99Z</time></trkpt><trkpt lat="45.5473179" lon="10.472427"><ele>271.0</ele><time>2026-03-29T07:32:54.99Z</time></trkpt><trkpt lat="45.5473887" lon="10.4724642"><ele>271.0</ele><time>2026-03-29T07:32:55.991Z</time></trkpt><trkpt lat="45.5474586" lon="10.4725233"><ele>271.0</ele><time>2026-03-29T07:32:56.99Z</time></trkpt><trkpt lat="45.5475329" lon="10.4725846"><ele>271.0</ele><time>2026-03-29T07:32:57.991Z</time></trkpt><trkpt lat="45.5476158" lon="10.4726414"><ele>271.0</ele><time>2026-03-29T07:32:58.99Z</time></trkpt><trkpt lat="45.5477003" lon="10.4726965"><ele>271.0</ele><time>2026-03-29T07:32:59.99Z</time></trkpt><trkpt lat="45.5477861" lon="10.4727548"><ele>271.0</ele><time>2026-03-29T07:33:00.989Z</time></trkpt><trkpt lat="45.5478759" lon="10.4728065"><ele>271.0</ele><time>2026-03-29T07:33:01.989Z</time></trkpt><trkpt lat="45.5479638" lon="10.4728619"><ele>271.0</ele><time>2026-03-29T07:33:02.99Z</time></trkpt><trkpt lat="45.5480532" lon="10.4729205"><ele>273.2</ele><time>2026-03-29T07:33:03.989Z</time></trkpt><trkpt lat="45.5481425" lon="10.472982"><ele>275.40000000000003</ele><time>2026-03-29T07:33:04.99Z</time></trkpt><trkpt lat="45.5482341" lon="10.4730435"><ele>277.6</ele><time>2026-03-29T07:33:05.989Z</time></trkpt><trkpt lat="45.5483236" lon="10.4731087"><ele>279.8</ele><time>2026-03-29T07:33:06.99Z</time></trkpt><trkpt lat="45.5484164" lon="10.4731817"><ele>282.0</ele><time>2026-03-29T07:33:07.99Z</time></trkpt><trkpt lat="45.5485062" lon="10.4732565"><ele>282.0</ele><time>2026-03-29T07:33:08.99Z</time></trkpt><trkpt lat="45.5485994" lon="10.4733396"><ele>282.0</ele><time>2026-03-29T07:33:09.989Z</time></trkpt><trkpt lat="45.5486926" lon="10.4734246"><ele>282.0</ele><time>2026-03-29T07:33:10.989Z</time></trkpt><trkpt lat="45.5487927" lon="10.4735114"><ele>282.0</ele><time>2026-03-29T07:33:11.99Z</time></trkpt><trkpt lat="45.5489003" lon="10.4736043"><ele>282.0</ele><time>2026-03-29T07:33:12.989Z</time></trkpt><trkpt lat="45.5490178" lon="10.4737019"><ele>282.0</ele><time>2026-03-29T07:33:13.989Z</time></trkpt><trkpt lat="45.5491415" lon="10.4738088"><ele>282.0</ele><time>2026-03-29T07:33:14.989Z</time></trkpt><trkpt lat="45.5492712" lon="10.473924"><ele>282.0</ele><time>2026-03-29T07:33:15.99Z</time></trkpt><trkpt lat="45.5493968" lon="10.4740561"><ele>283.3333333333333</ele><time>2026-03-29T07:33:16.989Z</time></trkpt><trkpt lat="45.5495111" lon="10.4742104"><ele>284.66666666666663</ele><time>2026-03-29T07:33:17.99Z</time></trkpt><trkpt lat="45.5496302" lon="10.4743593"><ele>286.0</ele><time>2026-03-29T07:33:18.99Z</time></trkpt><trkpt lat="45.5497617" lon="10.4744852"><ele>289.3333333333333</ele><time>2026-03-29T07:33:19.99Z</time></trkpt><trkpt lat="45.5498938" lon="10.4746096"><ele>292.6666666666667</ele><time>2026-03-29T07:33:20.99Z</time></trkpt><trkpt lat="45.5500281" lon="10.4747286"><ele>296.0</ele><time>2026-03-29T07:33:21.989Z</time></trkpt><trkpt lat="45.5501568" lon="10.4748473"><ele>296.0</ele><time>2026-03-29T07:33:22.99Z</time></trkpt><trkpt lat="45.5502805" lon="10.4749621"><ele>296.0</ele><time>2026-03-29T07:33:23.989Z</time></trkpt><trkpt lat="45.5503942" lon="10.4750924"><ele>296.0</ele><time>2026-03-29T07:33:24.989Z</time></trkpt><trkpt lat="45.5505043" lon="10.4752348"><ele>296.0</ele><time>2026-03-29T07:33:25.99Z</time></trkpt><trkpt lat="45.5506131" lon="10.475381"><ele>296.6666666666667</ele><time>2026-03-29T07:33:26.991Z</time></trkpt><trkpt lat="45.5507219" lon="10.475527"><ele>297.3333333333333</ele><time>2026-03-29T07:33:27.989Z</time></trkpt><trkpt lat="45.5508413" lon="10.4756683"><ele>298.0</ele><time>2026-03-29T07:33:28.99Z</time></trkpt><trkpt lat="45.5509656" lon="10.4757972"><ele>298.0</ele><time>2026-03-29T07:33:29.989Z</time></trkpt><trkpt lat="45.5510987" lon="10.4759221"><ele>298.0</ele><time>2026-03-29T07:33:30.989Z</time></trkpt><trkpt lat="45.5512402" lon="10.4760332"><ele>298.0</ele><time>2026-03-29T07:33:31.99Z</time></trkpt><trkpt lat="45.5513881" lon="10.4761397"><ele>299.0</ele><time>2026-03-29T07:33:32.99Z</time></trkpt><trkpt lat="45.5515353" lon="10.4762412"><ele>300.0</ele><time>2026-03-29T07:33:33.99Z</time></trkpt><trkpt lat="45.5516835" lon="10.4763428"><ele>301.0</ele><time>2026-03-29T07:33:34.99Z</time></trkpt><trkpt lat="45.5518306" lon="10.4764387"><ele>301.0</ele><time>2026-03-29T07:33:35.99Z</time></trkpt><trkpt lat="45.5519731" lon="10.4765419"><ele>301.0</ele><time>2026-03-29T07:33:36.99Z</time></trkpt><trkpt lat="45.5521102" lon="10.4766528"><ele>301.0</ele><time>2026-03-29T07:33:37.99Z</time></trkpt><trkpt lat="45.5522406" lon="10.4767771"><ele>300.66666666666663</ele><time>2026-03-29T07:33:38.99Z</time></trkpt><trkpt lat="45.5523638" lon="10.4769118"><ele>300.3333333333333</ele><time>2026-03-29T07:33:39.991Z</time></trkpt><trkpt lat="45.5524846" lon="10.4770497"><ele>300.0</ele><time>2026-03-29T07:33:40.99Z</time></trkpt><trkpt lat="45.5526072" lon="10.4771865"><ele>301.6666666666667</ele><time>2026-03-29T07:33:41.99Z</time></trkpt><trkpt lat="45.552731" lon="10.4773179"><ele>303.33333333333337</ele><time>2026-03-29T07:33:42.99Z</time></trkpt><trkpt lat="45.5528578" lon="10.4774496"><ele>305.0</ele><time>2026-03-29T07:33:43.99Z</time></trkpt><trkpt lat="45.5529816" lon="10.4775778"><ele>305.0</ele><time>2026-03-29T07:33:44.99Z</time></trkpt><trkpt lat="45.5531012" lon="10.4777163"><ele>305.0</ele><time>2026-03-29T07:33:45.989Z</time></trkpt><trkpt lat="45.5532218" lon="10.4778604"><ele>305.0</ele><time>2026-03-29T07:33:46.989Z</time></trkpt><trkpt lat="45.5533296" lon="10.4780158"><ele>307.25</ele><time>2026-03-29T07:33:47.991Z</time></trkpt><trkpt lat="45.5534216" lon="10.4781738"><ele>309.5</ele><time>2026-03-29T07:33:48.99Z</time></trkpt><trkpt lat="45.5535001" lon="10.4783144"><ele>311.75</ele><time>2026-03-29T07:33:49.99Z</time></trkpt><trkpt lat="45.5535799" lon="10.4784505"><ele>314.0</ele><time>2026-03-29T07:33:50.989Z</time></trkpt><trkpt lat="45.55366" lon="10.4785905"><ele>313.75</ele><time>2026-03-29T07:33:51.99Z</time></trkpt><trkpt lat="45.5537335" lon="10.4787524"><ele>313.5</ele><time>2026-03-29T07:33:52.99Z</time></trkpt><trkpt lat="45.5537985" lon="10.4789149"><ele>313.25</ele><time>2026-03-29T07:33:53.99Z</time></trkpt><trkpt lat="45.5538449" lon="10.47906"><ele>313.0</ele><time>2026-03-29T07:33:54.989Z</time></trkpt><trkpt lat="45.5538814" lon="10.4792074"><ele>313.0</ele><time>2026-03-29T07:33:55.99Z</time></trkpt><trkpt lat="45.5538984" lon="10.479373"><ele>313.0</ele><time>2026-03-29T07:33:56.99Z</time></trkpt><trkpt lat="45.5539086" lon="10.4795414"><ele>313.0</ele><time>2026-03-29T07:33:57.991Z</time></trkpt><trkpt lat="45.5539159" lon="10.4797245"><ele>313.0</ele><time>2026-03-29T07:33:58.99Z</time></trkpt><trkpt lat="45.5539519" lon="10.4799092"><ele>314.0</ele><time>2026-03-29T07:33:59.99Z</time></trkpt><trkpt lat="45.553997" lon="10.4800976"><ele>315.0</ele><time>2026-03-29T07:34:00.99Z</time></trkpt><trkpt lat="45.554059" lon="10.4802801"><ele>316.0</ele><time>2026-03-29T07:34:01.99Z</time></trkpt><trkpt lat="45.5541274" lon="10.4804477"><ele>317.0</ele><time>2026-03-29T07:34:02.99Z</time></trkpt><trkpt lat="45.5541831" lon="10.4806154"><ele>317.8</ele><time>2026-03-29T07:34:03.99Z</time></trkpt><trkpt lat="45.5542224" lon="10.4807899"><ele>318.6</ele><time>2026-03-29T07:34:04.99Z</time></trkpt><trkpt lat="45.5542465" lon="10.4809337"><ele>319.40000000000003</ele><time>2026-03-29T07:34:05.989Z</time></trkpt><trkpt lat="45.5542599" lon="10.4810576"><ele>320.2</ele><time>2026-03-29T07:34:06.99Z</time></trkpt><trkpt lat="45.5542701" lon="10.4811531"><ele>321.0</ele><time>2026-03-29T07:34:07.989Z</time></trkpt><trkpt lat="45.5543233" lon="10.4812883"><ele>320.8</ele><time>2026-03-29T07:34:09.99Z</time></trkpt><trkpt lat="45.5544241" lon="10.4813869"><ele>320.6</ele><time>2026-03-29T07:34:11.99Z</time></trkpt><trkpt lat="45.5545283" lon="10.4814955"><ele>320.4</ele><time>2026-03-29T07:34:13.99Z</time></trkpt><trkpt lat="45.5545837" lon="10.4815555"><ele>320.2</ele><time>2026-03-29T07:34:14.99Z</time></trkpt><trkpt lat="45.5546507" lon="10.4816069"><ele>320.0</ele><time>2026-03-29T07:34:15.989Z</time></trkpt><trkpt lat="45.5547255" lon="10.4816606"><ele>320.0</ele><time>2026-03-29T07:34:16.99Z</time></trkpt><trkpt lat="45.5548016" lon="10.4817222"><ele>320.0</ele><time>2026-03-29T07:34:17.989Z</time></trkpt><trkpt lat="45.5548823" lon="10.4817879"><ele>320.0</ele><time>2026-03-29T07:34:18.99Z</time></trkpt><trkpt lat="45.5549609" lon="10.4818586"><ele>320.0</ele><time>2026-03-29T07:34:19.99Z</time></trkpt><trkpt lat="45.5550321" lon="10.4819373"><ele>320.0</ele><time>2026-03-29T07:34:20.989Z</time></trkpt><trkpt lat="45.5550866" lon="10.482033"><ele>321.0</ele><time>2026-03-29T07:34:21.99Z</time></trkpt><trkpt lat="45.5551606" lon="10.4821178"><ele>322.0</ele><time>2026-03-29T07:34:22.989Z</time></trkpt><trkpt lat="45.5552348" lon="10.4821972"><ele>323.0</ele><time>2026-03-29T07:34:23.989Z</time></trkpt><trkpt lat="45.5553056" lon="10.4822674"><ele>324.0</ele><time>2026-03-29T07:34:24.99Z</time></trkpt><trkpt lat="45.55539" lon="10.4823203"><ele>325.0</ele><time>2026-03-29T07:34:25.99Z</time></trkpt><trkpt lat="45.5554787" lon="10.4823744"><ele>325.0</ele><time>2026-03-29T07:34:26.99Z</time></trkpt><trkpt lat="45.5555716" lon="10.4824322"><ele>325.0</ele><time>2026-03-29T07:34:27.989Z</time></trkpt><trkpt lat="45.5556672" lon="10.4824881"><ele>325.0</ele><time>2026-03-29T07:34:28.99Z</time></trkpt><trkpt lat="45.555771" lon="10.4825332"><ele>325.0</ele><time>2026-03-29T07:34:29.989Z</time></trkpt><trkpt lat="45.5558777" lon="10.4825845"><ele>325.0</ele><time>2026-03-29T07:34:30.99Z</time></trkpt><trkpt lat="45.5559821" lon="10.4826421"><ele>325.0</ele><time>2026-03-29T07:34:31.989Z</time></trkpt><trkpt lat="45.5560814" lon="10.4826991"><ele>325.0</ele><time>2026-03-29T07:34:32.99Z</time></trkpt><trkpt lat="45.5561845" lon="10.4827562"><ele>325.0</ele><time>2026-03-29T07:34:33.989Z</time></trkpt><trkpt lat="45.5562881" lon="10.4828126"><ele>325.0</ele><time>2026-03-29T07:34:34.99Z</time></trkpt><trkpt lat="45.5563935" lon="10.4828673"><ele>325.0</ele><time>2026-03-29T07:34:35.989Z</time></trkpt><trkpt lat="45.5564971" lon="10.4829259"><ele>326.4</ele><time>2026-03-29T07:34:36.989Z</time></trkpt><trkpt lat="45.5565961" lon="10.4829811"><ele>327.8</ele><time>2026-03-29T07:34:37.99Z</time></trkpt><trkpt lat="45.5566889" lon="10.4830191"><ele>329.20000000000005</ele><time>2026-03-29T07:34:38.989Z</time></trkpt><trkpt lat="45.5567878" lon="10.4830474"><ele>330.6</ele><time>2026-03-29T07:34:39.99Z</time></trkpt><trkpt lat="45.5568878" lon="10.4830683"><ele>332.0</ele><time>2026-03-29T07:34:40.99Z</time></trkpt><trkpt lat="45.5569907" lon="10.4830843"><ele>332.0</ele><time>2026-03-29T07:34:41.989Z</time></trkpt><trkpt lat="45.5570944" lon="10.4831055"><ele>332.0</ele><time>2026-03-29T07:34:42.99Z</time></trkpt><trkpt lat="45.5571815" lon="10.4831235"><ele>332.0</ele><time>2026-03-29T07:34:43.99Z</time></trkpt><trkpt lat="45.5572488" lon="10.4831328"><ele>332.0</ele><time>2026-03-29T07:34:44.989Z</time></trkpt><trkpt lat="45.5573204" lon="10.4831375"><ele>332.0</ele><time>2026-03-29T07:34:45.99Z</time></trkpt><trkpt lat="45.5574079" lon="10.4831452"><ele>332.0</ele><time>2026-03-29T07:34:46.99Z</time></trkpt><trkpt lat="45.5575138" lon="10.4831458"><ele>332.0</ele><time>2026-03-29T07:34:47.99Z</time></trkpt><trkpt lat="45.5576386" lon="10.4831651"><ele>332.0</ele><time>2026-03-29T07:34:48.99Z</time></trkpt><trkpt lat="45.5577686" lon="10.4831841"><ele>332.0</ele><time>2026-03-29T07:34:49.989Z</time></trkpt><trkpt lat="45.5578994" lon="10.4832005"><ele>332.0</ele><time>2026-03-29T07:34:50.989Z</time></trkpt><trkpt lat="45.5580355" lon="10.4832215"><ele>331.5</ele><time>2026-03-29T07:34:51.99Z</time></trkpt><trkpt lat="45.5581732" lon="10.4832411"><ele>331.0</ele><time>2026-03-29T07:34:52.989Z</time></trkpt><trkpt lat="45.5583098" lon="10.4832582"><ele>330.5</ele><time>2026-03-29T07:34:53.99Z</time></trkpt><trkpt lat="45.5584452" lon="10.483274"><ele>330.0</ele><time>2026-03-29T07:34:54.989Z</time></trkpt><trkpt lat="45.5585804" lon="10.4832855"><ele>329.75</ele><time>2026-03-29T07:34:55.99Z</time></trkpt><trkpt lat="45.5587144" lon="10.4833082"><ele>329.5</ele><time>2026-03-29T07:34:56.99Z</time></trkpt><trkpt lat="45.558851" lon="10.4833363"><ele>329.25</ele><time>2026-03-29T07:34:57.99Z</time></trkpt><trkpt lat="45.558991" lon="10.4833659"><ele>329.0</ele><time>2026-03-29T07:34:58.99Z</time></trkpt><trkpt lat="45.55913" lon="10.4833992"><ele>329.0</ele><time>2026-03-29T07:34:59.989Z</time></trkpt><trkpt lat="45.5592658" lon="10.4834283"><ele>329.0</ele><time>2026-03-29T07:35:00.99Z</time></trkpt><trkpt lat="45.559402" lon="10.4834507"><ele>329.0</ele><time>2026-03-29T07:35:01.99Z</time></trkpt><trkpt lat="45.5595323" lon="10.4834714"><ele>329.0</ele><time>2026-03-29T07:35:02.989Z</time></trkpt><trkpt lat="45.5596483" lon="10.4834928"><ele>328.25</ele><time>2026-03-29T07:35:03.99Z</time></trkpt><trkpt lat="45.5597608" lon="10.4835117"><ele>327.5</ele><time>2026-03-29T07:35:04.989Z</time></trkpt><trkpt lat="45.5598735" lon="10.4835177"><ele>326.75</ele><time>2026-03-29T07:35:05.99Z</time></trkpt><trkpt lat="45.5599923" lon="10.4835153"><ele>326.0</ele><time>2026-03-29T07:35:06.989Z</time></trkpt><trkpt lat="45.5601079" lon="10.4835013"><ele>326.0</ele><time>2026-03-29T07:35:07.99Z</time></trkpt><trkpt lat="45.5602254" lon="10.483477"><ele>326.0</ele><time>2026-03-29T07:35:08.99Z</time></trkpt><trkpt lat="45.5603416" lon="10.4834446"><ele>326.0</ele><time>2026-03-29T07:35:09.991Z</time></trkpt><trkpt lat="45.5604558" lon="10.4834028"><ele>326.0</ele><time>2026-03-29T07:35:10.989Z</time></trkpt><trkpt lat="45.5605632" lon="10.4833455"><ele>325.6</ele><time>2026-03-29T07:35:11.99Z</time></trkpt><trkpt lat="45.5606686" lon="10.4832791"><ele>325.20000000000005</ele><time>2026-03-29T07:35:12.989Z</time></trkpt><trkpt lat="45.5607719" lon="10.4832092"><ele>324.79999999999995</ele><time>2026-03-29T07:35:13.99Z</time></trkpt><trkpt lat="45.5608703" lon="10.4831459"><ele>324.4</ele><time>2026-03-29T07:35:14.989Z</time></trkpt><trkpt lat="45.5609642" lon="10.4830911"><ele>324.0</ele><time>2026-03-29T07:35:15.989Z</time></trkpt><trkpt lat="45.5610547" lon="10.4830543"><ele>324.0</ele><time>2026-03-29T07:35:16.99Z</time></trkpt><trkpt lat="45.561142" lon="10.4830122"><ele>324.0</ele><time>2026-03-29T07:35:17.989Z</time></trkpt><trkpt lat="45.5612215" lon="10.4829833"><ele>324.0</ele><time>2026-03-29T07:35:18.99Z</time></trkpt><trkpt lat="45.5612843" lon="10.4829614"><ele>324.0</ele><time>2026-03-29T07:35:19.99Z</time></trkpt><trkpt lat="45.5613577" lon="10.4828925"><ele>324.0</ele><time>2026-03-29T07:35:21.99Z</time></trkpt><trkpt lat="45.5613557" lon="10.4827819"><ele>324.0</ele><time>2026-03-29T07:35:23.99Z</time></trkpt><trkpt lat="45.5612892" lon="10.4826152"><ele>324.0</ele><time>2026-03-29T07:35:25.99Z</time></trkpt><trkpt lat="45.5612353" lon="10.482505"><ele>324.0</ele><time>2026-03-29T07:35:26.99Z</time></trkpt><trkpt lat="45.5611835" lon="10.4823703"><ele>324.0</ele><time>2026-03-29T07:35:27.989Z</time></trkpt><trkpt lat="45.5611346" lon="10.4822294"><ele>324.0</ele><time>2026-03-29T07:35:28.99Z</time></trkpt><trkpt lat="45.5610802" lon="10.4820743"><ele>324.0</ele><time>2026-03-29T07:35:29.989Z</time></trkpt><trkpt lat="45.5610143" lon="10.4819104"><ele>323.75</ele><time>2026-03-29T07:35:30.989Z</time></trkpt><trkpt lat="45.5609462" lon="10.4817429"><ele>323.5</ele><time>2026-03-29T07:35:31.989Z</time></trkpt><trkpt lat="45.5608684" lon="10.4815874"><ele>323.25</ele><time>2026-03-29T07:35:32.99Z</time></trkpt><trkpt lat="45.5607719" lon="10.4814448"><ele>323.0</ele><time>2026-03-29T07:35:33.989Z</time></trkpt><trkpt lat="45.5606584" lon="10.4813199"><ele>325.0</ele><time>2026-03-29T07:35:34.99Z</time></trkpt><trkpt lat="45.560533" lon="10.4812195"><ele>327.0</ele><time>2026-03-29T07:35:35.989Z</time></trkpt><trkpt lat="45.5603982" lon="10.4811436"><ele>329.0</ele><time>2026-03-29T07:35:36.99Z</time></trkpt><trkpt lat="45.5602605" lon="10.4810716"><ele>331.0</ele><time>2026-03-29T07:35:37.99Z</time></trkpt><trkpt lat="45.5601285" lon="10.4810011"><ele>332.5</ele><time>2026-03-29T07:35:38.989Z</time></trkpt><trkpt lat="45.5600104" lon="10.4809346"><ele>334.0</ele><time>2026-03-29T07:35:39.99Z</time></trkpt><trkpt lat="45.5599011" lon="10.4808509"><ele>335.5</ele><time>2026-03-29T07:35:40.99Z</time></trkpt><trkpt lat="45.5598186" lon="10.4807384"><ele>337.0</ele><time>2026-03-29T07:35:41.99Z</time></trkpt><trkpt lat="45.5597665" lon="10.4805983"><ele>337.0</ele><time>2026-03-29T07:35:42.99Z</time></trkpt><trkpt lat="45.5597341" lon="10.4804487"><ele>337.0</ele><time>2026-03-29T07:35:43.99Z</time></trkpt><trkpt lat="45.5597197" lon="10.4802916"><ele>337.0</ele><time>2026-03-29T07:35:44.989Z</time></trkpt><trkpt lat="45.5597045" lon="10.4801273"><ele>337.0</ele><time>2026-03-29T07:35:45.99Z</time></trkpt><trkpt lat="45.5596915" lon="10.4799686"><ele>337.0</ele><time>2026-03-29T07:35:46.989Z</time></trkpt><trkpt lat="45.5596844" lon="10.479802"><ele>338.25</ele><time>2026-03-29T07:35:47.99Z</time></trkpt><trkpt lat="45.5596922" lon="10.4796296"><ele>339.5</ele><time>2026-03-29T07:35:48.99Z</time></trkpt><trkpt lat="45.5597105" lon="10.4794688"><ele>340.75</ele><time>2026-03-29T07:35:49.989Z</time></trkpt><trkpt lat="45.5597507" lon="10.4792966"><ele>342.0</ele><time>2026-03-29T07:35:50.99Z</time></trkpt><trkpt lat="45.5598022" lon="10.4791193"><ele>342.0</ele><time>2026-03-29T07:35:51.989Z</time></trkpt><trkpt lat="45.559856" lon="10.4789379"><ele>342.0</ele><time>2026-03-29T07:35:52.989Z</time></trkpt><trkpt lat="45.5599122" lon="10.4787584"><ele>342.0</ele><time>2026-03-29T07:35:53.989Z</time></trkpt><trkpt lat="45.5599642" lon="10.4785818"><ele>342.0</ele><time>2026-03-29T07:35:54.99Z</time></trkpt><trkpt lat="45.5600072" lon="10.4784011"><ele>341.0</ele><time>2026-03-29T07:35:55.99Z</time></trkpt><trkpt lat="45.560029" lon="10.4782089"><ele>340.0</ele><time>2026-03-29T07:35:56.99Z</time></trkpt><trkpt lat="45.5600391" lon="10.4780036"><ele>339.0</ele><time>2026-03-29T07:35:57.989Z</time></trkpt><trkpt lat="45.5600436" lon="10.4777924"><ele>338.0</ele><time>2026-03-29T07:35:58.99Z</time></trkpt><trkpt lat="45.5600367" lon="10.4775885"><ele>337.5</ele><time>2026-03-29T07:35:59.989Z</time></trkpt><trkpt lat="45.5600275" lon="10.4773913"><ele>337.0</ele><time>2026-03-29T07:36:00.99Z</time></trkpt><trkpt lat="45.560015" lon="10.4772024"><ele>336.5</ele><time>2026-03-29T07:36:01.99Z</time></trkpt><trkpt lat="45.5600083" lon="10.4770309"><ele>336.0</ele><time>2026-03-29T07:36:02.99Z</time></trkpt><trkpt lat="45.5600129" lon="10.4768655"><ele>334.25</ele><time>2026-03-29T07:36:03.99Z</time></trkpt><trkpt lat="45.5600387" lon="10.4767116"><ele>332.5</ele><time>2026-03-29T07:36:04.99Z</time></trkpt><trkpt lat="45.5600853" lon="10.4765575"><ele>330.75</ele><time>2026-03-29T07:36:05.99Z</time></trkpt><trkpt lat="45.5601428" lon="10.4764018"><ele>329.0</ele><time>2026-03-29T07:36:06.989Z</time></trkpt><trkpt lat="45.5602084" lon="10.4762415"><ele>327.2</ele><time>2026-03-29T07:36:07.989Z</time></trkpt><trkpt lat="45.5602805" lon="10.4760888"><ele>325.4</ele><time>2026-03-29T07:36:08.99Z</time></trkpt><trkpt lat="45.5603469" lon="10.4759634"><ele>323.6</ele><time>2026-03-29T07:36:09.99Z</time></trkpt><trkpt lat="45.560412" lon="10.4758514"><ele>321.8</ele><time>2026-03-29T07:36:10.99Z</time></trkpt><trkpt lat="45.5604633" lon="10.4757549"><ele>320.0</ele><time>2026-03-29T07:36:11.99Z</time></trkpt><trkpt lat="45.560505" lon="10.4756782"><ele>320.0</ele><time>2026-03-29T07:36:12.989Z</time></trkpt><trkpt lat="45.5605719" lon="10.4756375"><ele>320.0</ele><time>2026-03-29T07:36:14.989Z</time></trkpt><trkpt lat="45.5606641" lon="10.475718"><ele>320.0</ele><time>2026-03-29T07:36:16.99Z</time></trkpt><trkpt lat="45.5607294" lon="10.4757713"><ele>320.0</ele><time>2026-03-29T07:36:17.99Z</time></trkpt><trkpt lat="45.5608011" lon="10.475778"><ele>320.0</ele><time>2026-03-29T07:36:18.989Z</time></trkpt><trkpt lat="45.560877" lon="10.4758022"><ele>320.0</ele><time>2026-03-29T07:36:19.989Z</time></trkpt><trkpt lat="45.5609885" lon="10.4758481"><ele>320.0</ele><time>2026-03-29T07:36:20.99Z</time></trkpt><trkpt lat="45.5610773" lon="10.4758937"><ele>320.0</ele><time>2026-03-29T07:36:21.99Z</time></trkpt><trkpt lat="45.5611803" lon="10.4759676"><ele>320.0</ele><time>2026-03-29T07:36:22.99Z</time></trkpt><trkpt lat="45.5612852" lon="10.476028"><ele>320.0</ele><time>2026-03-29T07:36:23.99Z</time></trkpt><trkpt lat="45.5613833" lon="10.4760822"><ele>320.0</ele><time>2026-03-29T07:36:24.989Z</time></trkpt><trkpt lat="45.561467" lon="10.4761391"><ele>319.6</ele><time>2026-03-29T07:36:25.989Z</time></trkpt><trkpt lat="45.5615527" lon="10.4762282"><ele>319.2</ele><time>2026-03-29T07:36:26.989Z</time></trkpt><trkpt lat="45.5616343" lon="10.4763292"><ele>318.8</ele><time>2026-03-29T07:36:27.99Z</time></trkpt><trkpt lat="45.5616931" lon="10.4764464"><ele>318.4</ele><time>2026-03-29T07:36:28.99Z</time></trkpt><trkpt lat="45.5617584" lon="10.47656"><ele>318.0</ele><time>2026-03-29T07:36:29.99Z</time></trkpt><trkpt lat="45.5618227" lon="10.476684"><ele>322.75</ele><time>2026-03-29T07:36:30.99Z</time></trkpt><trkpt lat="45.5618761" lon="10.4768205"><ele>327.5</ele><time>2026-03-29T07:36:31.989Z</time></trkpt><trkpt lat="45.5620158" lon="10.4768388"><ele>332.25</ele><time>2026-03-29T07:36:32.989Z</time></trkpt><trkpt lat="45.5621236" lon="10.4769025"><ele>337.0</ele><time>2026-03-29T07:36:33.989Z</time></trkpt><trkpt lat="45.5622036" lon="10.4769391"><ele>337.75</ele><time>2026-03-29T07:36:34.989Z</time></trkpt><trkpt lat="45.5622957" lon="10.476971"><ele>338.5</ele><time>2026-03-29T07:36:35.99Z</time></trkpt><trkpt lat="45.5624047" lon="10.4769528"><ele>339.25</ele><time>2026-03-29T07:36:36.991Z</time></trkpt><trkpt lat="45.5624952" lon="10.4767958"><ele>340.0</ele><time>2026-03-29T07:36:37.99Z</time></trkpt><trkpt lat="45.5625871" lon="10.4766993"><ele>340.0</ele><time>2026-03-29T07:36:38.99Z</time></trkpt><trkpt lat="45.5626801" lon="10.4766122"><ele>340.0</ele><time>2026-03-29T07:36:39.989Z</time></trkpt><trkpt lat="45.5627735" lon="10.4765207"><ele>340.0</ele><time>2026-03-29T07:36:40.99Z</time></trkpt><trkpt lat="45.5628779" lon="10.4764305"><ele>340.0</ele><time>2026-03-29T07:36:41.99Z</time></trkpt><trkpt lat="45.5629852" lon="10.4763452"><ele>338.75</ele><time>2026-03-29T07:36:42.989Z</time></trkpt><trkpt lat="45.5630878" lon="10.4762599"><ele>337.5</ele><time>2026-03-29T07:36:43.99Z</time></trkpt><trkpt lat="45.5631991" lon="10.4761746"><ele>336.25</ele><time>2026-03-29T07:36:44.99Z</time></trkpt><trkpt lat="45.5633039" lon="10.4760887"><ele>335.0</ele><time>2026-03-29T07:36:45.99Z</time></trkpt><trkpt lat="45.5634105" lon="10.4760015"><ele>335.0</ele><time>2026-03-29T07:36:46.99Z</time></trkpt><trkpt lat="45.5635155" lon="10.475917"><ele>335.0</ele><time>2026-03-29T07:36:47.99Z</time></trkpt><trkpt lat="45.563622" lon="10.4758287"><ele>335.0</ele><time>2026-03-29T07:36:48.989Z</time></trkpt><trkpt lat="45.563716" lon="10.4757523"><ele>335.0</ele><time>2026-03-29T07:36:49.989Z</time></trkpt><trkpt lat="45.5637937" lon="10.4756866"><ele>335.0</ele><time>2026-03-29T07:36:50.99Z</time></trkpt><trkpt lat="45.5638559" lon="10.4756329"><ele>335.0</ele><time>2026-03-29T07:36:51.989Z</time></trkpt><trkpt lat="45.5639401" lon="10.475535"><ele>335.0</ele><time>2026-03-29T07:36:53.99Z</time></trkpt><trkpt lat="45.5640115" lon="10.4755006"><ele>335.0</ele><time>2026-03-29T07:36:55.989Z</time></trkpt><trkpt lat="45.5640988" lon="10.4755542"><ele>335.0</ele><time>2026-03-29T07:36:57.99Z</time></trkpt><trkpt lat="45.5641424" lon="10.4756223"><ele>335.0</ele><time>2026-03-29T07:36:58.989Z</time></trkpt><trkpt lat="45.5641827" lon="10.4757024"><ele>335.0</ele><time>2026-03-29T07:36:59.99Z</time></trkpt><trkpt lat="45.5642228" lon="10.4758092"><ele>335.0</ele><time>2026-03-29T07:37:00.989Z</time></trkpt><trkpt lat="45.5642691" lon="10.4759279"><ele>335.0</ele><time>2026-03-29T07:37:01.99Z</time></trkpt><trkpt lat="45.5643192" lon="10.4760575"><ele>335.0</ele><time>2026-03-29T07:37:02.99Z</time></trkpt><trkpt lat="45.5643795" lon="10.4761875"><ele>335.0</ele><time>2026-03-29T07:37:03.989Z</time></trkpt><trkpt lat="45.5644416" lon="10.4763358"><ele>335.0</ele><time>2026-03-29T07:37:04.99Z</time></trkpt><trkpt lat="45.5644939" lon="10.4764844"><ele>335.2</ele><time>2026-03-29T07:37:05.989Z</time></trkpt><trkpt lat="45.5645417" lon="10.476639"><ele>335.4</ele><time>2026-03-29T07:37:06.99Z</time></trkpt><trkpt lat="45.5645976" lon="10.4767774"><ele>335.6</ele><time>2026-03-29T07:37:07.99Z</time></trkpt><trkpt lat="45.564635" lon="10.4769099"><ele>335.8</ele><time>2026-03-29T07:37:08.99Z</time></trkpt><trkpt lat="45.5646549" lon="10.4770534"><ele>336.0</ele><time>2026-03-29T07:37:09.99Z</time></trkpt><trkpt lat="45.5646862" lon="10.4772092"><ele>336.0</ele><time>2026-03-29T07:37:10.989Z</time></trkpt><trkpt lat="45.564693" lon="10.47733"><ele>336.0</ele><time>2026-03-29T07:37:11.989Z</time></trkpt><trkpt lat="45.5646983" lon="10.4774487"><ele>336.0</ele><time>2026-03-29T07:37:12.99Z</time></trkpt><trkpt lat="45.5646933" lon="10.4775546"><ele>336.0</ele><time>2026-03-29T07:37:13.989Z</time></trkpt><trkpt lat="45.5646546" lon="10.4777044"><ele>336.0</ele><time>2026-03-29T07:37:15.989Z</time></trkpt><trkpt lat="45.5646106" lon="10.4777692"><ele>336.0</ele><time>2026-03-29T07:37:16.99Z</time></trkpt><trkpt lat="45.5645141" lon="10.4778205"><ele>337.20000000000005</ele><time>2026-03-29T07:37:17.989Z</time></trkpt><trkpt lat="45.5644322" lon="10.477882"><ele>338.40000000000003</ele><time>2026-03-29T07:37:18.99Z</time></trkpt><trkpt lat="45.564361" lon="10.4779639"><ele>339.6</ele><time>2026-03-29T07:37:19.989Z</time></trkpt><trkpt lat="45.5643031" lon="10.4780564"><ele>340.8</ele><time>2026-03-29T07:37:20.99Z</time></trkpt><trkpt lat="45.564266" lon="10.4781327"><ele>342.0</ele><time>2026-03-29T07:37:21.99Z</time></trkpt><trkpt lat="45.5642697" lon="10.4783197"><ele>342.0</ele><time>2026-03-29T07:37:23.99Z</time></trkpt><trkpt lat="45.5643083" lon="10.4784297"><ele>342.0</ele><time>2026-03-29T07:37:24.99Z</time></trkpt><trkpt lat="45.5643719" lon="10.4785251"><ele>342.0</ele><time>2026-03-29T07:37:25.989Z</time></trkpt><trkpt lat="45.5644305" lon="10.4786036"><ele>342.0</ele><time>2026-03-29T07:37:26.99Z</time></trkpt><trkpt lat="45.564525" lon="10.4787002"><ele>342.0</ele><time>2026-03-29T07:37:27.99Z</time></trkpt><trkpt lat="45.5646615" lon="10.4787902"><ele>342.40000000000003</ele><time>2026-03-29T07:37:28.991Z</time></trkpt><trkpt lat="45.5647712" lon="10.4788732"><ele>342.8</ele><time>2026-03-29T07:37:29.99Z</time></trkpt><trkpt lat="45.564875" lon="10.4789533"><ele>343.2</ele><time>2026-03-29T07:37:30.99Z</time></trkpt><trkpt lat="45.564964" lon="10.479025"><ele>343.6</ele><time>2026-03-29T07:37:31.989Z</time></trkpt><trkpt lat="45.5650493" lon="10.47906"><ele>344.0</ele><time>2026-03-29T07:37:32.99Z</time></trkpt><trkpt lat="45.5651302" lon="10.479074"><ele>344.0</ele><time>2026-03-29T07:37:33.99Z</time></trkpt><trkpt lat="45.5652296" lon="10.4790792"><ele>344.0</ele><time>2026-03-29T07:37:34.989Z</time></trkpt><trkpt lat="45.5653319" lon="10.4790877"><ele>344.0</ele><time>2026-03-29T07:37:35.99Z</time></trkpt><trkpt lat="45.5654396" lon="10.4790865"><ele>344.0</ele><time>2026-03-29T07:37:36.99Z</time></trkpt><trkpt lat="45.5655441" lon="10.479054"><ele>344.0</ele><time>2026-03-29T07:37:37.99Z</time></trkpt><trkpt lat="45.5656507" lon="10.4790349"><ele>344.5</ele><time>2026-03-29T07:37:38.989Z</time></trkpt><trkpt lat="45.5657598" lon="10.479029"><ele>345.0</ele><time>2026-03-29T07:37:39.989Z</time></trkpt><trkpt lat="45.5658763" lon="10.4790188"><ele>345.5</ele><time>2026-03-29T07:37:40.99Z</time></trkpt><trkpt lat="45.5659861" lon="10.4789715"><ele>346.0</ele><time>2026-03-29T07:37:41.99Z</time></trkpt><trkpt lat="45.5661011" lon="10.4789292"><ele>345.6</ele><time>2026-03-29T07:37:42.99Z</time></trkpt><trkpt lat="45.5662151" lon="10.4788891"><ele>345.20000000000005</ele><time>2026-03-29T07:37:43.99Z</time></trkpt><trkpt lat="45.5663149" lon="10.4788472"><ele>344.79999999999995</ele><time>2026-03-29T07:37:44.99Z</time></trkpt><trkpt lat="45.5664181" lon="10.4788062"><ele>344.4</ele><time>2026-03-29T07:37:45.99Z</time></trkpt><trkpt lat="45.5665" lon="10.4787795"><ele>344.0</ele><time>2026-03-29T07:37:46.989Z</time></trkpt><trkpt lat="45.5665992" lon="10.4787665"><ele>344.0</ele><time>2026-03-29T07:37:47.989Z</time></trkpt><trkpt lat="45.5666989" lon="10.4787487"><ele>344.0</ele><time>2026-03-29T07:37:48.99Z</time></trkpt><trkpt lat="45.5668009" lon="10.4787373"><ele>344.0</ele><time>2026-03-29T07:37:49.99Z</time></trkpt><trkpt lat="45.5669036" lon="10.4787178"><ele>344.0</ele><time>2026-03-29T07:37:50.99Z</time></trkpt><trkpt lat="45.567008" lon="10.4786929"><ele>344.0</ele><time>2026-03-29T07:37:51.991Z</time></trkpt><trkpt lat="45.5671152" lon="10.4786618"><ele>344.79999999999995</ele><time>2026-03-29T07:37:52.99Z</time></trkpt><trkpt lat="45.5672112" lon="10.4786411"><ele>345.59999999999997</ele><time>2026-03-29T07:37:53.99Z</time></trkpt><trkpt lat="45.567318" lon="10.478631"><ele>346.4</ele><time>2026-03-29T07:37:54.989Z</time></trkpt><trkpt lat="45.5674199" lon="10.4786152"><ele>347.2</ele><time>2026-03-29T07:37:55.989Z</time></trkpt><trkpt lat="45.5675111" lon="10.4785986"><ele>348.0</ele><time>2026-03-29T07:37:56.99Z</time></trkpt><trkpt lat="45.5676064" lon="10.4785959"><ele>348.0</ele><time>2026-03-29T07:37:57.99Z</time></trkpt><trkpt lat="45.5676908" lon="10.4785965"><ele>348.0</ele><time>2026-03-29T07:37:58.989Z</time></trkpt><trkpt lat="45.5677689" lon="10.4786087"><ele>348.0</ele><time>2026-03-29T07:37:59.99Z</time></trkpt><trkpt lat="45.5678932" lon="10.4786206"><ele>348.0</ele><time>2026-03-29T07:38:01.989Z</time></trkpt><trkpt lat="45.5679601" lon="10.4786248"><ele>348.0</ele><time>2026-03-29T07:38:02.989Z</time></trkpt><trkpt lat="45.5680279" lon="10.4786381"><ele>348.0</ele><time>2026-03-29T07:38:03.99Z</time></trkpt><trkpt lat="45.5681054" lon="10.4786445"><ele>348.5</ele><time>2026-03-29T07:38:04.989Z</time></trkpt><trkpt lat="45.5681776" lon="10.4786467"><ele>349.0</ele><time>2026-03-29T07:38:05.989Z</time></trkpt><trkpt lat="45.5682519" lon="10.4786571"><ele>349.5</ele><time>2026-03-29T07:38:06.99Z</time></trkpt><trkpt lat="45.5683297" lon="10.4786703"><ele>350.0</ele><time>2026-03-29T07:38:07.989Z</time></trkpt><trkpt lat="45.5684059" lon="10.4786765"><ele>350.5</ele><time>2026-03-29T07:38:08.99Z</time></trkpt><trkpt lat="45.5684894" lon="10.4786846"><ele>351.0</ele><time>2026-03-29T07:38:09.99Z</time></trkpt><trkpt lat="45.5685685" lon="10.4786952"><ele>351.0</ele><time>2026-03-29T07:38:10.989Z</time></trkpt><trkpt lat="45.568653" lon="10.4786879"><ele>351.0</ele><time>2026-03-29T07:38:11.989Z</time></trkpt><trkpt lat="45.5687268" lon="10.4786854"><ele>351.0</ele><time>2026-03-29T07:38:12.99Z</time></trkpt><trkpt lat="45.5688315" lon="10.4787182"><ele>351.0</ele><time>2026-03-29T07:38:14.99Z</time></trkpt><trkpt lat="45.5688868" lon="10.4787731"><ele>351.0</ele><time>2026-03-29T07:38:16.99Z</time></trkpt><trkpt lat="45.5689033" lon="10.4788678"><ele>351.0</ele><time>2026-03-29T07:38:17.989Z</time></trkpt><trkpt lat="45.5689232" lon="10.4790055"><ele>351.20000000000005</ele><time>2026-03-29T07:38:19.99Z</time></trkpt><trkpt lat="45.5689268" lon="10.4791019"><ele>351.40000000000003</ele><time>2026-03-29T07:38:20.989Z</time></trkpt><trkpt lat="45.5689597" lon="10.4792711"><ele>351.6</ele><time>2026-03-29T07:38:22.99Z</time></trkpt><trkpt lat="45.5689923" lon="10.4793637"><ele>351.8</ele><time>2026-03-29T07:38:23.989Z</time></trkpt><trkpt lat="45.5690998" lon="10.4794876"><ele>352.0</ele><time>2026-03-29T07:38:25.99Z</time></trkpt><trkpt lat="45.5691586" lon="10.4795268"><ele>352.0</ele><time>2026-03-29T07:38:26.99Z</time></trkpt><trkpt lat="45.5692449" lon="10.4795972"><ele>352.0</ele><time>2026-03-29T07:38:28.989Z</time></trkpt><trkpt lat="45.5693072" lon="10.4796817"><ele>352.0</ele><time>2026-03-29T07:38:30.989Z</time></trkpt><trkpt lat="45.5693618" lon="10.4797563"><ele>352.0</ele><time>2026-03-29T07:38:31.99Z</time></trkpt><trkpt lat="45.5694002" lon="10.4798876"><ele>352.0</ele><time>2026-03-29T07:38:32.99Z</time></trkpt><trkpt lat="45.5694433" lon="10.4799863"><ele>352.0</ele><time>2026-03-29T07:38:33.99Z</time></trkpt><trkpt lat="45.5694899" lon="10.4800606"><ele>350.0</ele><time>2026-03-29T07:38:34.989Z</time></trkpt><trkpt lat="45.5695513" lon="10.4801235"><ele>348.0</ele><time>2026-03-29T07:38:35.99Z</time></trkpt><trkpt lat="45.5696315" lon="10.4801634"><ele>346.0</ele><time>2026-03-29T07:38:36.99Z</time></trkpt><trkpt lat="45.5697081" lon="10.4802213"><ele>344.0</ele><time>2026-03-29T07:38:37.99Z</time></trkpt><trkpt lat="45.5697894" lon="10.4802749"><ele>342.0</ele><time>2026-03-29T07:38:38.99Z</time></trkpt><trkpt lat="45.5698724" lon="10.4803325"><ele>340.0</ele><time>2026-03-29T07:38:39.99Z</time></trkpt><trkpt lat="45.5699574" lon="10.4803797"><ele>340.0</ele><time>2026-03-29T07:38:40.99Z</time></trkpt><trkpt lat="45.5700503" lon="10.4804198"><ele>340.0</ele><time>2026-03-29T07:38:41.989Z</time></trkpt><trkpt lat="45.5701383" lon="10.4804614"><ele>340.0</ele><time>2026-03-29T07:38:42.99Z</time></trkpt><trkpt lat="45.5702173" lon="10.4804811"><ele>340.0</ele><time>2026-03-29T07:38:43.99Z</time></trkpt><trkpt lat="45.5702984" lon="10.4805068"><ele>340.0</ele><time>2026-03-29T07:38:44.989Z</time></trkpt><trkpt lat="45.5703748" lon="10.480541"><ele>340.0</ele><time>2026-03-29T07:38:45.989Z</time></trkpt><trkpt lat="45.5704581" lon="10.4805832"><ele>336.66666666666663</ele><time>2026-03-29T07:38:46.99Z</time></trkpt><trkpt lat="45.5705512" lon="10.4806267"><ele>333.3333333333333</ele><time>2026-03-29T07:38:47.989Z</time></trkpt><trkpt lat="45.5706363" lon="10.4806786"><ele>330.0</ele><time>2026-03-29T07:38:48.989Z</time></trkpt><trkpt lat="45.5707193" lon="10.4807374"><ele>326.6666666666667</ele><time>2026-03-29T07:38:49.989Z</time></trkpt><trkpt lat="45.5707992" lon="10.4808109"><ele>323.33333333333337</ele><time>2026-03-29T07:38:50.99Z</time></trkpt><trkpt lat="45.5708583" lon="10.4808658"><ele>320.0</ele><time>2026-03-29T07:38:51.99Z</time></trkpt><trkpt lat="45.5709136" lon="10.4809158"><ele>320.0</ele><time>2026-03-29T07:38:52.99Z</time></trkpt><trkpt lat="45.5709986" lon="10.4810259"><ele>320.0</ele><time>2026-03-29T07:38:54.989Z</time></trkpt><trkpt lat="45.5710099" lon="10.4811682"><ele>320.0</ele><time>2026-03-29T07:38:56.989Z</time></trkpt><trkpt lat="45.570925" lon="10.4812731"><ele>320.0</ele><time>2026-03-29T07:38:58.989Z</time></trkpt><trkpt lat="45.5708597" lon="10.4813129"><ele>320.0</ele><time>2026-03-29T07:38:59.989Z</time></trkpt><trkpt lat="45.5707801" lon="10.4813485"><ele>317.83333333333337</ele><time>2026-03-29T07:39:00.99Z</time></trkpt><trkpt lat="45.5706996" lon="10.481388"><ele>315.6666666666667</ele><time>2026-03-29T07:39:01.99Z</time></trkpt><trkpt lat="45.5706373" lon="10.4814446"><ele>313.5</ele><time>2026-03-29T07:39:02.99Z</time></trkpt><trkpt lat="45.5705866" lon="10.4815248"><ele>311.3333333333333</ele><time>2026-03-29T07:39:03.989Z</time></trkpt><trkpt lat="45.5705579" lon="10.4816433"><ele>309.16666666666663</ele><time>2026-03-29T07:39:04.99Z</time></trkpt><trkpt lat="45.5705438" lon="10.481808"><ele>307.0</ele><time>2026-03-29T07:39:05.989Z</time></trkpt><trkpt lat="45.5705287" lon="10.4819308"><ele>307.0</ele><time>2026-03-29T07:39:06.99Z</time></trkpt><trkpt lat="45.5705137" lon="10.4820516"><ele>307.0</ele><time>2026-03-29T07:39:07.99Z</time></trkpt><trkpt lat="45.5705032" lon="10.4821501"><ele>307.0</ele><time>2026-03-29T07:39:08.99Z</time></trkpt><trkpt lat="45.5704975" lon="10.4822926"><ele>307.0</ele><time>2026-03-29T07:39:10.99Z</time></trkpt><trkpt lat="45.5705177" lon="10.4823991"><ele>307.0</ele><time>2026-03-29T07:39:13.99Z</time></trkpt><trkpt lat="45.5706154" lon="10.4824459"><ele>307.0</ele><time>2026-03-29T07:39:15.989Z</time></trkpt><trkpt lat="45.5706965" lon="10.4824568"><ele>306.5</ele><time>2026-03-29T07:39:16.99Z</time></trkpt><trkpt lat="45.5707936" lon="10.4824659"><ele>306.0</ele><time>2026-03-29T07:39:17.989Z</time></trkpt><trkpt lat="45.5709082" lon="10.4824801"><ele>305.5</ele><time>2026-03-29T07:39:18.989Z</time></trkpt><trkpt lat="45.5710366" lon="10.4824884"><ele>305.0</ele><time>2026-03-29T07:39:19.99Z</time></trkpt><trkpt lat="45.5711739" lon="10.4824947"><ele>303.75</ele><time>2026-03-29T07:39:20.989Z</time></trkpt><trkpt lat="45.5713193" lon="10.4824937"><ele>302.5</ele><time>2026-03-29T07:39:21.989Z</time></trkpt><trkpt lat="45.5714706" lon="10.4824977"><ele>301.25</ele><time>2026-03-29T07:39:22.99Z</time></trkpt><trkpt lat="45.5716189" lon="10.4825096"><ele>300.0</ele><time>2026-03-29T07:39:23.989Z</time></trkpt><trkpt lat="45.5717482" lon="10.4825222"><ele>300.0</ele><time>2026-03-29T07:39:24.99Z</time></trkpt><trkpt lat="45.5718676" lon="10.4825278"><ele>300.0</ele><time>2026-03-29T07:39:25.991Z</time></trkpt><trkpt lat="45.5719825" lon="10.4825189"><ele>300.0</ele><time>2026-03-29T07:39:26.989Z</time></trkpt><trkpt lat="45.5720876" lon="10.4825209"><ele>300.0</ele><time>2026-03-29T07:39:27.989Z</time></trkpt><trkpt lat="45.5721829" lon="10.4825222"><ele>300.0</ele><time>2026-03-29T07:39:28.99Z</time></trkpt><trkpt lat="45.5722832" lon="10.4825133"><ele>299.6</ele><time>2026-03-29T07:39:29.989Z</time></trkpt><trkpt lat="45.5723778" lon="10.4825178"><ele>299.2</ele><time>2026-03-29T07:39:30.99Z</time></trkpt><trkpt lat="45.5724672" lon="10.4825483"><ele>298.8</ele><time>2026-03-29T07:39:31.989Z</time></trkpt><trkpt lat="45.5725587" lon="10.4825613"><ele>298.4</ele><time>2026-03-29T07:39:32.989Z</time></trkpt><trkpt lat="45.5726612" lon="10.4825644"><ele>298.0</ele><time>2026-03-29T07:39:33.99Z</time></trkpt><trkpt lat="45.5727745" lon="10.4825745"><ele>296.5</ele><time>2026-03-29T07:39:34.99Z</time></trkpt><trkpt lat="45.5728929" lon="10.4825767"><ele>295.0</ele><time>2026-03-29T07:39:35.99Z</time></trkpt><trkpt lat="45.5730143" lon="10.4825795"><ele>293.5</ele><time>2026-03-29T07:39:36.99Z</time></trkpt><trkpt lat="45.5731374" lon="10.4825805"><ele>292.0</ele><time>2026-03-29T07:39:37.989Z</time></trkpt><trkpt lat="45.5732579" lon="10.4825871"><ele>292.0</ele><time>2026-03-29T07:39:38.99Z</time></trkpt><trkpt lat="45.5733795" lon="10.482595"><ele>292.0</ele><time>2026-03-29T07:39:39.989Z</time></trkpt><trkpt lat="45.5735064" lon="10.4826056"><ele>292.0</ele><time>2026-03-29T07:39:40.99Z</time></trkpt><trkpt lat="45.5736371" lon="10.4826173"><ele>292.0</ele><time>2026-03-29T07:39:41.99Z</time></trkpt><trkpt lat="45.57377" lon="10.4826281"><ele>291.0</ele><time>2026-03-29T07:39:42.989Z</time></trkpt><trkpt lat="45.5739082" lon="10.4826339"><ele>290.0</ele><time>2026-03-29T07:39:43.99Z</time></trkpt><trkpt lat="45.5740433" lon="10.482641"><ele>289.0</ele><time>2026-03-29T07:39:44.989Z</time></trkpt><trkpt lat="45.5741757" lon="10.4826441"><ele>288.0</ele><time>2026-03-29T07:39:45.989Z</time></trkpt><trkpt lat="45.5743134" lon="10.4826501"><ele>288.0</ele><time>2026-03-29T07:39:46.99Z</time></trkpt><trkpt lat="45.5744474" lon="10.4826559"><ele>288.0</ele><time>2026-03-29T07:39:47.989Z</time></trkpt><trkpt lat="45.5745792" lon="10.4826618"><ele>288.0</ele><time>2026-03-29T07:39:48.99Z</time></trkpt><trkpt lat="45.5747092" lon="10.4826731"><ele>288.0</ele><time>2026-03-29T07:39:49.989Z</time></trkpt><trkpt lat="45.5748404" lon="10.4826753"><ele>288.5</ele><time>2026-03-29T07:39:50.989Z</time></trkpt><trkpt lat="45.574972" lon="10.4826548"><ele>289.0</ele><time>2026-03-29T07:39:51.989Z</time></trkpt><trkpt lat="45.5751014" lon="10.4826289"><ele>289.5</ele><time>2026-03-29T07:39:52.99Z</time></trkpt><trkpt lat="45.575226" lon="10.4825982"><ele>290.0</ele><time>2026-03-29T07:39:53.989Z</time></trkpt><trkpt lat="45.5753497" lon="10.4825719"><ele>289.0</ele><time>2026-03-29T07:39:54.989Z</time></trkpt><trkpt lat="45.5754691" lon="10.4825421"><ele>288.0</ele><time>2026-03-29T07:39:55.99Z</time></trkpt><trkpt lat="45.5755833" lon="10.4825129"><ele>287.0</ele><time>2026-03-29T07:39:56.99Z</time></trkpt><trkpt lat="45.5756936" lon="10.4824935"><ele>286.0</ele><time>2026-03-29T07:39:57.989Z</time></trkpt><trkpt lat="45.5758037" lon="10.48247"><ele>286.0</ele><time>2026-03-29T07:39:58.99Z</time></trkpt><trkpt lat="45.575914" lon="10.4824423"><ele>286.0</ele><time>2026-03-29T07:39:59.989Z</time></trkpt><trkpt lat="45.5760258" lon="10.4824252"><ele>286.0</ele><time>2026-03-29T07:40:00.991Z</time></trkpt><trkpt lat="45.5761411" lon="10.4824127"><ele>286.0</ele><time>2026-03-29T07:40:01.989Z</time></trkpt><trkpt lat="45.5762544" lon="10.4824001"><ele>285.5</ele><time>2026-03-29T07:40:02.99Z</time></trkpt><trkpt lat="45.5763726" lon="10.4823944"><ele>285.0</ele><time>2026-03-29T07:40:03.989Z</time></trkpt><trkpt lat="45.5764904" lon="10.4823802"><ele>284.5</ele><time>2026-03-29T07:40:04.99Z</time></trkpt><trkpt lat="45.5766108" lon="10.482374"><ele>284.0</ele><time>2026-03-29T07:40:05.989Z</time></trkpt><trkpt lat="45.5767246" lon="10.4823594"><ele>284.0</ele><time>2026-03-29T07:40:06.99Z</time></trkpt><trkpt lat="45.5768321" lon="10.4823422"><ele>284.0</ele><time>2026-03-29T07:40:07.99Z</time></trkpt><trkpt lat="45.5769365" lon="10.4823256"><ele>284.0</ele><time>2026-03-29T07:40:08.989Z</time></trkpt><trkpt lat="45.5770429" lon="10.4823109"><ele>284.0</ele><time>2026-03-29T07:40:09.989Z</time></trkpt><trkpt lat="45.5771549" lon="10.4823058"><ele>284.0</ele><time>2026-03-29T07:40:10.989Z</time></trkpt><trkpt lat="45.5772726" lon="10.4823015"><ele>283.5</ele><time>2026-03-29T07:40:11.99Z</time></trkpt><trkpt lat="45.5773971" lon="10.4823"><ele>283.0</ele><time>2026-03-29T07:40:12.989Z</time></trkpt><trkpt lat="45.5775218" lon="10.4822955"><ele>282.5</ele><time>2026-03-29T07:40:13.99Z</time></trkpt><trkpt lat="45.5776538" lon="10.4822924"><ele>282.0</ele><time>2026-03-29T07:40:14.989Z</time></trkpt><trkpt lat="45.5777826" lon="10.4822902"><ele>281.0</ele><time>2026-03-29T07:40:15.99Z</time></trkpt><trkpt lat="45.5779167" lon="10.4822855"><ele>280.0</ele><time>2026-03-29T07:40:16.99Z</time></trkpt><trkpt lat="45.5780506" lon="10.482283"><ele>279.0</ele><time>2026-03-29T07:40:17.989Z</time></trkpt><trkpt lat="45.5781843" lon="10.4822889"><ele>278.0</ele><time>2026-03-29T07:40:18.99Z</time></trkpt><trkpt lat="45.5783269" lon="10.4822842"><ele>278.0</ele><time>2026-03-29T07:40:19.989Z</time></trkpt><trkpt lat="45.5784719" lon="10.4822817"><ele>278.0</ele><time>2026-03-29T07:40:20.99Z</time></trkpt><trkpt lat="45.5786195" lon="10.482279"><ele>278.0</ele><time>2026-03-29T07:40:21.989Z</time></trkpt><trkpt lat="45.5787707" lon="10.4822831"><ele>278.0</ele><time>2026-03-29T07:40:22.989Z</time></trkpt><trkpt lat="45.5789234" lon="10.4822887"><ele>277.25</ele><time>2026-03-29T07:40:23.989Z</time></trkpt><trkpt lat="45.5790702" lon="10.482295"><ele>276.5</ele><time>2026-03-29T07:40:24.991Z</time></trkpt><trkpt lat="45.5792147" lon="10.4823095"><ele>275.75</ele><time>2026-03-29T07:40:25.989Z</time></trkpt><trkpt lat="45.5793617" lon="10.4823328"><ele>275.0</ele><time>2026-03-29T07:40:26.99Z</time></trkpt><trkpt lat="45.5795128" lon="10.482361"><ele>274.25</ele><time>2026-03-29T07:40:27.989Z</time></trkpt><trkpt lat="45.5796588" lon="10.4824014"><ele>273.5</ele><time>2026-03-29T07:40:28.99Z</time></trkpt><trkpt lat="45.5798035" lon="10.4824511"><ele>272.75</ele><time>2026-03-29T07:40:29.989Z</time></trkpt><trkpt lat="45.5799466" lon="10.4825149"><ele>272.0</ele><time>2026-03-29T07:40:30.99Z</time></trkpt><trkpt lat="45.5800951" lon="10.4825743"><ele>272.0</ele><time>2026-03-29T07:40:31.99Z</time></trkpt><trkpt lat="45.5802377" lon="10.482641"><ele>272.0</ele><time>2026-03-29T07:40:32.989Z</time></trkpt><trkpt lat="45.580381" lon="10.4827116"><ele>272.0</ele><time>2026-03-29T07:40:33.99Z</time></trkpt><trkpt lat="45.5805232" lon="10.482784"><ele>272.0</ele><time>2026-03-29T07:40:34.989Z</time></trkpt><trkpt lat="45.5806636" lon="10.4828543"><ele>272.0</ele><time>2026-03-29T07:40:35.99Z</time></trkpt><trkpt lat="45.580803" lon="10.4829183"><ele>272.0</ele><time>2026-03-29T07:40:36.989Z</time></trkpt><trkpt lat="45.5809347" lon="10.4829759"><ele>272.0</ele><time>2026-03-29T07:40:37.99Z</time></trkpt><trkpt lat="45.5810577" lon="10.4830337"><ele>272.4</ele><time>2026-03-29T07:40:38.989Z</time></trkpt><trkpt lat="45.5811615" lon="10.4830825"><ele>272.79999999999995</ele><time>2026-03-29T07:40:39.989Z</time></trkpt><trkpt lat="45.5812475" lon="10.4831254"><ele>273.2</ele><time>2026-03-29T07:40:40.99Z</time></trkpt><trkpt lat="45.581319" lon="10.4831489"><ele>273.59999999999997</ele><time>2026-03-29T07:40:41.99Z</time></trkpt><trkpt lat="45.5814184" lon="10.4831519"><ele>274.0</ele><time>2026-03-29T07:40:43.991Z</time></trkpt><trkpt lat="45.5814788" lon="10.483027"><ele>273.8</ele><time>2026-03-29T07:40:45.989Z</time></trkpt><trkpt lat="45.5815061" lon="10.4829153"><ele>273.59999999999997</ele><time>2026-03-29T07:40:46.989Z</time></trkpt><trkpt lat="45.5815337" lon="10.4827769"><ele>273.4</ele><time>2026-03-29T07:40:47.99Z</time></trkpt><trkpt lat="45.5815761" lon="10.4826267"><ele>273.2</ele><time>2026-03-29T07:40:48.989Z</time></trkpt><trkpt lat="45.5816254" lon="10.4824665"><ele>273.0</ele><time>2026-03-29T07:40:49.99Z</time></trkpt><trkpt lat="45.5816774" lon="10.4822936"><ele>273.0</ele><time>2026-03-29T07:40:50.989Z</time></trkpt><trkpt lat="45.581735" lon="10.4821063"><ele>273.0</ele><time>2026-03-29T07:40:51.99Z</time></trkpt><trkpt lat="45.5817956" lon="10.4819146"><ele>273.0</ele><time>2026-03-29T07:40:52.991Z</time></trkpt><trkpt lat="45.581853" lon="10.4817151"><ele>273.0</ele><time>2026-03-29T07:40:53.99Z</time></trkpt><trkpt lat="45.5819136" lon="10.4815072"><ele>273.0</ele><time>2026-03-29T07:40:54.99Z</time></trkpt><trkpt lat="45.5819736" lon="10.4812911"><ele>273.0</ele><time>2026-03-29T07:40:55.99Z</time></trkpt><trkpt lat="45.5820371" lon="10.4810724"><ele>273.0</ele><time>2026-03-29T07:40:56.989Z</time></trkpt><trkpt lat="45.582106" lon="10.4808535"><ele>274.3333333333333</ele><time>2026-03-29T07:40:57.99Z</time></trkpt><trkpt lat="45.5821765" lon="10.4806347"><ele>275.66666666666663</ele><time>2026-03-29T07:40:58.989Z</time></trkpt><trkpt lat="45.5822443" lon="10.4804168"><ele>277.0</ele><time>2026-03-29T07:40:59.991Z</time></trkpt><trkpt lat="45.5823085" lon="10.4802013"><ele>277.0</ele><time>2026-03-29T07:41:00.989Z</time></trkpt><trkpt lat="45.5823632" lon="10.479985"><ele>277.0</ele><time>2026-03-29T07:41:01.99Z</time></trkpt><trkpt lat="45.5824012" lon="10.4797667"><ele>277.0</ele><time>2026-03-29T07:41:02.99Z</time></trkpt><trkpt lat="45.5824062" lon="10.4795431"><ele>277.0</ele><time>2026-03-29T07:41:03.99Z</time></trkpt><trkpt lat="45.5823814" lon="10.4793118"><ele>277.0</ele><time>2026-03-29T07:41:04.99Z</time></trkpt><trkpt lat="45.5823331" lon="10.4790813"><ele>277.0</ele><time>2026-03-29T07:41:05.99Z</time></trkpt><trkpt lat="45.5822784" lon="10.4788515"><ele>278.66666666666663</ele><time>2026-03-29T07:41:06.989Z</time></trkpt><trkpt lat="45.5822168" lon="10.4786241"><ele>280.3333333333333</ele><time>2026-03-29T07:41:07.99Z</time></trkpt><trkpt lat="45.5821408" lon="10.478406"><ele>282.0</ele><time>2026-03-29T07:41:08.99Z</time></trkpt><trkpt lat="45.582052" lon="10.4782026"><ele>279.6666666666667</ele><time>2026-03-29T07:41:09.989Z</time></trkpt><trkpt lat="45.5819462" lon="10.4780165"><ele>277.33333333333337</ele><time>2026-03-29T07:41:10.991Z</time></trkpt><trkpt lat="45.5818207" lon="10.4778563"><ele>275.0</ele><time>2026-03-29T07:41:11.99Z</time></trkpt><trkpt lat="45.5816861" lon="10.477725"><ele>275.0</ele><time>2026-03-29T07:41:12.989Z</time></trkpt><trkpt lat="45.5815487" lon="10.4776041"><ele>275.0</ele><time>2026-03-29T07:41:13.99Z</time></trkpt><trkpt lat="45.5814222" lon="10.4774909"><ele>275.0</ele><time>2026-03-29T07:41:14.989Z</time></trkpt><trkpt lat="45.5813166" lon="10.4773719"><ele>275.0</ele><time>2026-03-29T07:41:15.99Z</time></trkpt><trkpt lat="45.5812408" lon="10.477244"><ele>274.5</ele><time>2026-03-29T07:41:16.989Z</time></trkpt><trkpt lat="45.5811935" lon="10.4770971"><ele>274.0</ele><time>2026-03-29T07:41:17.99Z</time></trkpt><trkpt lat="45.581173" lon="10.4769192"><ele>273.5</ele><time>2026-03-29T07:41:18.989Z</time></trkpt><trkpt lat="45.5811714" lon="10.4767341"><ele>273.0</ele><time>2026-03-29T07:41:19.99Z</time></trkpt><trkpt lat="45.5811693" lon="10.4765419"><ele>271.5</ele><time>2026-03-29T07:41:20.989Z</time></trkpt><trkpt lat="45.5811559" lon="10.4763541"><ele>270.0</ele><time>2026-03-29T07:41:21.99Z</time></trkpt><trkpt lat="45.5811522" lon="10.4761631"><ele>268.5</ele><time>2026-03-29T07:41:22.989Z</time></trkpt><trkpt lat="45.5811563" lon="10.475977"><ele>267.0</ele><time>2026-03-29T07:41:23.99Z</time></trkpt><trkpt lat="45.5811664" lon="10.475788"><ele>267.0</ele><time>2026-03-29T07:41:24.99Z</time></trkpt><trkpt lat="45.5811814" lon="10.4755996"><ele>267.0</ele><time>2026-03-29T07:41:25.989Z</time></trkpt><trkpt lat="45.5811962" lon="10.4754087"><ele>267.0</ele><time>2026-03-29T07:41:26.99Z</time></trkpt><trkpt lat="45.5812137" lon="10.4752259"><ele>267.0</ele><time>2026-03-29T07:41:27.99Z</time></trkpt><trkpt lat="45.5812399" lon="10.4750444"><ele>267.0</ele><time>2026-03-29T07:41:28.989Z</time></trkpt><trkpt lat="45.5812663" lon="10.4748684"><ele>267.0</ele><time>2026-03-29T07:41:29.99Z</time></trkpt><trkpt lat="45.5812846" lon="10.4746919"><ele>267.0</ele><time>2026-03-29T07:41:30.989Z</time></trkpt><trkpt lat="45.5812919" lon="10.4745081"><ele>267.0</ele><time>2026-03-29T07:41:31.99Z</time></trkpt><trkpt lat="45.58129" lon="10.474322"><ele>267.0</ele><time>2026-03-29T07:41:32.989Z</time></trkpt><trkpt lat="45.5812916" lon="10.4741303"><ele>267.0</ele><time>2026-03-29T07:41:33.99Z</time></trkpt><trkpt lat="45.581296" lon="10.4739306"><ele>267.0</ele><time>2026-03-29T07:41:34.989Z</time></trkpt><trkpt lat="45.5813175" lon="10.4737338"><ele>267.0</ele><time>2026-03-29T07:41:35.99Z</time></trkpt><trkpt lat="45.5813627" lon="10.4735477"><ele>265.5</ele><time>2026-03-29T07:41:36.991Z</time></trkpt><trkpt lat="45.5814248" lon="10.4733728"><ele>264.0</ele><time>2026-03-29T07:41:37.99Z</time></trkpt><trkpt lat="45.5815007" lon="10.4731996"><ele>262.5</ele><time>2026-03-29T07:41:38.989Z</time></trkpt><trkpt lat="45.5815871" lon="10.4730441"><ele>261.0</ele><time>2026-03-29T07:41:39.99Z</time></trkpt><trkpt lat="45.5816874" lon="10.4729085"><ele>261.6666666666667</ele><time>2026-03-29T07:41:40.989Z</time></trkpt><trkpt lat="45.581804" lon="10.4727857"><ele>262.33333333333337</ele><time>2026-03-29T07:41:41.99Z</time></trkpt><trkpt lat="45.5819356" lon="10.4726681"><ele>263.0</ele><time>2026-03-29T07:41:42.989Z</time></trkpt><trkpt lat="45.5820657" lon="10.4725527"><ele>263.0</ele><time>2026-03-29T07:41:43.99Z</time></trkpt><trkpt lat="45.5821978" lon="10.4724388"><ele>263.0</ele><time>2026-03-29T07:41:44.99Z</time></trkpt><trkpt lat="45.5823368" lon="10.4723242"><ele>263.0</ele><time>2026-03-29T07:41:45.99Z</time></trkpt><trkpt lat="45.5824723" lon="10.4722102"><ele>261.0</ele><time>2026-03-29T07:41:46.989Z</time></trkpt><trkpt lat="45.5826082" lon="10.4720953"><ele>259.0</ele><time>2026-03-29T07:41:47.99Z</time></trkpt><trkpt lat="45.5827374" lon="10.4719734"><ele>257.0</ele><time>2026-03-29T07:41:48.99Z</time></trkpt><trkpt lat="45.5828555" lon="10.4718301"><ele>257.75</ele><time>2026-03-29T07:41:49.989Z</time></trkpt><trkpt lat="45.5829558" lon="10.4716708"><ele>258.5</ele><time>2026-03-29T07:41:50.99Z</time></trkpt><trkpt lat="45.5830512" lon="10.4715034"><ele>259.25</ele><time>2026-03-29T07:41:51.99Z</time></trkpt><trkpt lat="45.5831442" lon="10.4713406"><ele>260.0</ele><time>2026-03-29T07:41:52.991Z</time></trkpt><trkpt lat="45.5832339" lon="10.4711848"><ele>260.0</ele><time>2026-03-29T07:41:53.989Z</time></trkpt><trkpt lat="45.5833294" lon="10.4710379"><ele>260.0</ele><time>2026-03-29T07:41:54.99Z</time></trkpt><trkpt lat="45.583422" lon="10.4708881"><ele>260.0</ele><time>2026-03-29T07:41:55.99Z</time></trkpt><trkpt lat="45.5835178" lon="10.4707404"><ele>260.0</ele><time>2026-03-29T07:41:56.989Z</time></trkpt><trkpt lat="45.5836204" lon="10.4706127"><ele>260.25</ele><time>2026-03-29T07:41:57.99Z</time></trkpt><trkpt lat="45.5837325" lon="10.470502"><ele>260.5</ele><time>2026-03-29T07:41:58.99Z</time></trkpt><trkpt lat="45.583847" lon="10.4704091"><ele>260.75</ele><time>2026-03-29T07:41:59.989Z</time></trkpt><trkpt lat="45.583963" lon="10.4703229"><ele>261.0</ele><time>2026-03-29T07:42:00.99Z</time></trkpt><trkpt lat="45.5840768" lon="10.4702466"><ele>260.25</ele><time>2026-03-29T07:42:01.989Z</time></trkpt><trkpt lat="45.5841925" lon="10.4701646"><ele>259.5</ele><time>2026-03-29T07:42:02.989Z</time></trkpt><trkpt lat="45.5843043" lon="10.4700825"><ele>258.75</ele><time>2026-03-29T07:42:03.99Z</time></trkpt><trkpt lat="45.5844139" lon="10.4700037"><ele>258.0</ele><time>2026-03-29T07:42:04.991Z</time></trkpt><trkpt lat="45.5845216" lon="10.4699202"><ele>258.0</ele><time>2026-03-29T07:42:05.99Z</time></trkpt><trkpt lat="45.5846229" lon="10.4698288"><ele>258.0</ele><time>2026-03-29T07:42:06.99Z</time></trkpt><trkpt lat="45.5847223" lon="10.4697314"><ele>258.0</ele><time>2026-03-29T07:42:07.99Z</time></trkpt><trkpt lat="45.584818" lon="10.4696305"><ele>258.0</ele><time>2026-03-29T07:42:08.989Z</time></trkpt><trkpt lat="45.5849105" lon="10.4695172"><ele>257.25</ele><time>2026-03-29T07:42:09.989Z</time></trkpt><trkpt lat="45.5849959" lon="10.4693876"><ele>256.5</ele><time>2026-03-29T07:42:10.99Z</time></trkpt><trkpt lat="45.5850801" lon="10.4692484"><ele>255.75</ele><time>2026-03-29T07:42:11.989Z</time></trkpt><trkpt lat="45.5851656" lon="10.4691001"><ele>255.0</ele><time>2026-03-29T07:42:12.99Z</time></trkpt><trkpt lat="45.5852452" lon="10.4689471"><ele>255.0</ele><time>2026-03-29T07:42:13.989Z</time></trkpt><trkpt lat="45.5853137" lon="10.468797"><ele>255.0</ele><time>2026-03-29T07:42:14.989Z</time></trkpt><trkpt lat="45.5853806" lon="10.4686448"><ele>255.0</ele><time>2026-03-29T07:42:15.989Z</time></trkpt><trkpt lat="45.5854541" lon="10.4684843"><ele>255.0</ele><time>2026-03-29T07:42:16.99Z</time></trkpt><trkpt lat="45.5855295" lon="10.4683229"><ele>253.25</ele><time>2026-03-29T07:42:17.989Z</time></trkpt><trkpt lat="45.5856076" lon="10.4681585"><ele>251.5</ele><time>2026-03-29T07:42:18.99Z</time></trkpt><trkpt lat="45.5856835" lon="10.4679895"><ele>249.75</ele><time>2026-03-29T07:42:19.989Z</time></trkpt><trkpt lat="45.5857602" lon="10.4678194"><ele>248.0</ele><time>2026-03-29T07:42:20.989Z</time></trkpt><trkpt lat="45.5858371" lon="10.4676548"><ele>248.0</ele><time>2026-03-29T07:42:21.99Z</time></trkpt><trkpt lat="45.5859134" lon="10.4674955"><ele>248.0</ele><time>2026-03-29T07:42:22.99Z</time></trkpt><trkpt lat="45.5859963" lon="10.4673411"><ele>248.0</ele><time>2026-03-29T07:42:23.99Z</time></trkpt><trkpt lat="45.5860864" lon="10.4671939"><ele>248.0</ele><time>2026-03-29T07:42:24.989Z</time></trkpt><trkpt lat="45.58618" lon="10.4670536"><ele>249.75</ele><time>2026-03-29T07:42:25.99Z</time></trkpt><trkpt lat="45.5862752" lon="10.4669214"><ele>251.5</ele><time>2026-03-29T07:42:26.989Z</time></trkpt><trkpt lat="45.5863757" lon="10.4667811"><ele>253.25</ele><time>2026-03-29T07:42:27.989Z</time></trkpt><trkpt lat="45.5864714" lon="10.4666402"><ele>255.0</ele><time>2026-03-29T07:42:28.99Z</time></trkpt><trkpt lat="45.5865606" lon="10.466506"><ele>255.0</ele><time>2026-03-29T07:42:29.99Z</time></trkpt><trkpt lat="45.5866569" lon="10.4663684"><ele>255.0</ele><time>2026-03-29T07:42:30.99Z</time></trkpt><trkpt lat="45.5867513" lon="10.4662335"><ele>255.0</ele><time>2026-03-29T07:42:31.99Z</time></trkpt><trkpt lat="45.5868467" lon="10.4660935"><ele>255.0</ele><time>2026-03-29T07:42:32.989Z</time></trkpt><trkpt lat="45.5869456" lon="10.4659482"><ele>256.25</ele><time>2026-03-29T07:42:33.99Z</time></trkpt><trkpt lat="45.5870502" lon="10.4657997"><ele>257.5</ele><time>2026-03-29T07:42:34.989Z</time></trkpt><trkpt lat="45.5871562" lon="10.4656493"><ele>258.75</ele><time>2026-03-29T07:42:35.99Z</time></trkpt><trkpt lat="45.5872628" lon="10.4655093"><ele>260.0</ele><time>2026-03-29T07:42:36.99Z</time></trkpt><trkpt lat="45.5873663" lon="10.465383"><ele>260.25</ele><time>2026-03-29T07:42:37.989Z</time></trkpt><trkpt lat="45.5874645" lon="10.4652592"><ele>260.5</ele><time>2026-03-29T07:42:38.99Z</time></trkpt><trkpt lat="45.5875561" lon="10.4651369"><ele>260.75</ele><time>2026-03-29T07:42:39.989Z</time></trkpt><trkpt lat="45.5876366" lon="10.4650302"><ele>261.0</ele><time>2026-03-29T07:42:40.989Z</time></trkpt><trkpt lat="45.5876993" lon="10.4649493"><ele>261.0</ele><time>2026-03-29T07:42:41.99Z</time></trkpt><trkpt lat="45.5877863" lon="10.4648898"><ele>261.0</ele><time>2026-03-29T07:42:43.99Z</time></trkpt><trkpt lat="45.587876" lon="10.4649919"><ele>261.0</ele><time>2026-03-29T07:42:45.99Z</time></trkpt><trkpt lat="45.5879258" lon="10.4650922"><ele>261.0</ele><time>2026-03-29T07:42:46.989Z</time></trkpt><trkpt lat="45.5879807" lon="10.4652018"><ele>261.0</ele><time>2026-03-29T07:42:47.989Z</time></trkpt><trkpt lat="45.5880422" lon="10.4652914"><ele>262.0</ele><time>2026-03-29T07:42:48.99Z</time></trkpt><trkpt lat="45.5880933" lon="10.4653571"><ele>263.0</ele><time>2026-03-29T07:42:49.99Z</time></trkpt><trkpt lat="45.5881279" lon="10.4654598"><ele>264.0</ele><time>2026-03-29T07:42:51.991Z</time></trkpt><trkpt lat="45.5880779" lon="10.4656131"><ele>265.0</ele><time>2026-03-29T07:42:53.99Z</time></trkpt><trkpt lat="45.5880189" lon="10.4657082"><ele>266.0</ele><time>2026-03-29T07:42:54.99Z</time></trkpt><trkpt lat="45.5879559" lon="10.4658132"><ele>266.5</ele><time>2026-03-29T07:42:55.99Z</time></trkpt><trkpt lat="45.5878911" lon="10.4659397"><ele>267.0</ele><time>2026-03-29T07:42:56.989Z</time></trkpt><trkpt lat="45.5878216" lon="10.4660739"><ele>267.5</ele><time>2026-03-29T07:42:57.99Z</time></trkpt><trkpt lat="45.5877535" lon="10.466215"><ele>268.0</ele><time>2026-03-29T07:42:58.989Z</time></trkpt><trkpt lat="45.5876865" lon="10.4663589"><ele>266.75</ele><time>2026-03-29T07:42:59.99Z</time></trkpt><trkpt lat="45.5876201" lon="10.4665123"><ele>265.5</ele><time>2026-03-29T07:43:00.989Z</time></trkpt><trkpt lat="45.5875636" lon="10.4666633"><ele>264.25</ele><time>2026-03-29T07:43:01.99Z</time></trkpt><trkpt lat="45.5875247" lon="10.4668192"><ele>263.0</ele><time>2026-03-29T07:43:02.989Z</time></trkpt><trkpt lat="45.5875027" lon="10.4669843"><ele>263.4</ele><time>2026-03-29T07:43:03.99Z</time></trkpt><trkpt lat="45.5874908" lon="10.4671516"><ele>263.8</ele><time>2026-03-29T07:43:04.99Z</time></trkpt><trkpt lat="45.5874839" lon="10.4672994"><ele>264.2</ele><time>2026-03-29T07:43:05.99Z</time></trkpt><trkpt lat="45.5874907" lon="10.4674496"><ele>264.6</ele><time>2026-03-29T07:43:06.989Z</time></trkpt><trkpt lat="45.5875163" lon="10.4675997"><ele>265.0</ele><time>2026-03-29T07:43:07.99Z</time></trkpt><trkpt lat="45.587562" lon="10.4677398"><ele>265.0</ele><time>2026-03-29T07:43:08.99Z</time></trkpt><trkpt lat="45.5876212" lon="10.4678707"><ele>265.0</ele><time>2026-03-29T07:43:09.99Z</time></trkpt><trkpt lat="45.587696" lon="10.4679825"><ele>265.0</ele><time>2026-03-29T07:43:10.989Z</time></trkpt><trkpt lat="45.5877749" lon="10.4680676"><ele>265.0</ele><time>2026-03-29T07:43:11.99Z</time></trkpt><trkpt lat="45.5878505" lon="10.4681264"><ele>265.0</ele><time>2026-03-29T07:43:12.99Z</time></trkpt><trkpt lat="45.587922" lon="10.4681675"><ele>265.0</ele><time>2026-03-29T07:43:13.989Z</time></trkpt><trkpt lat="45.5879842" lon="10.4682126"><ele>265.0</ele><time>2026-03-29T07:43:14.99Z</time></trkpt><trkpt lat="45.58804" lon="10.468282"><ele>265.0</ele><time>2026-03-29T07:43:15.99Z</time></trkpt><trkpt lat="45.588095" lon="10.4683765"><ele>265.0</ele><time>2026-03-29T07:43:16.99Z</time></trkpt><trkpt lat="45.588144" lon="10.4685042"><ele>265.0</ele><time>2026-03-29T07:43:17.99Z</time></trkpt><trkpt lat="45.588204" lon="10.4686289"><ele>265.0</ele><time>2026-03-29T07:43:18.989Z</time></trkpt><trkpt lat="45.5882622" lon="10.4687685"><ele>263.5</ele><time>2026-03-29T07:43:19.99Z</time></trkpt><trkpt lat="45.5883182" lon="10.4689251"><ele>262.0</ele><time>2026-03-29T07:43:20.99Z</time></trkpt><trkpt lat="45.5883678" lon="10.4690807"><ele>260.5</ele><time>2026-03-29T07:43:21.99Z</time></trkpt><trkpt lat="45.5884078" lon="10.4692252"><ele>259.0</ele><time>2026-03-29T07:43:22.989Z</time></trkpt><trkpt lat="45.5884444" lon="10.4693682"><ele>259.0</ele><time>2026-03-29T07:43:23.99Z</time></trkpt><trkpt lat="45.5884803" lon="10.4695097"><ele>259.0</ele><time>2026-03-29T07:43:24.99Z</time></trkpt><trkpt lat="45.5885253" lon="10.469645"><ele>259.0</ele><time>2026-03-29T07:43:25.99Z</time></trkpt><trkpt lat="45.5885726" lon="10.4697722"><ele>259.0</ele><time>2026-03-29T07:43:26.99Z</time></trkpt><trkpt lat="45.5886135" lon="10.4698763"><ele>259.0</ele><time>2026-03-29T07:43:27.989Z</time></trkpt><trkpt lat="45.5886435" lon="10.4699721"><ele>258.66666666666663</ele><time>2026-03-29T07:43:28.991Z</time></trkpt><trkpt lat="45.5886699" lon="10.4701524"><ele>258.3333333333333</ele><time>2026-03-29T07:43:30.989Z</time></trkpt><trkpt lat="45.5886822" lon="10.4702423"><ele>258.0</ele><time>2026-03-29T07:43:31.989Z</time></trkpt><trkpt lat="45.5886953" lon="10.4703463"><ele>257.6666666666667</ele><time>2026-03-29T07:43:32.99Z</time></trkpt><trkpt lat="45.5887084" lon="10.4704601"><ele>257.33333333333337</ele><time>2026-03-29T07:43:33.99Z</time></trkpt><trkpt lat="45.5887218" lon="10.4705692"><ele>257.0</ele><time>2026-03-29T07:43:34.989Z</time></trkpt><trkpt lat="45.5887368" lon="10.4706736"><ele>258.2</ele><time>2026-03-29T07:43:35.99Z</time></trkpt><trkpt lat="45.5887614" lon="10.4708494"><ele>259.4</ele><time>2026-03-29T07:43:37.99Z</time></trkpt><trkpt lat="45.5887663" lon="10.4709523"><ele>260.6</ele><time>2026-03-29T07:43:38.989Z</time></trkpt><trkpt lat="45.5887644" lon="10.4710707"><ele>261.8</ele><time>2026-03-29T07:43:39.99Z</time></trkpt><trkpt lat="45.5887637" lon="10.4712037"><ele>263.0</ele><time>2026-03-29T07:43:40.989Z</time></trkpt><trkpt lat="45.5887633" lon="10.4713358"><ele>263.2</ele><time>2026-03-29T07:43:41.99Z</time></trkpt><trkpt lat="45.5887665" lon="10.4714704"><ele>263.4</ele><time>2026-03-29T07:43:42.99Z</time></trkpt><trkpt lat="45.5887631" lon="10.4716084"><ele>263.59999999999997</ele><time>2026-03-29T07:43:43.99Z</time></trkpt><trkpt lat="45.5887683" lon="10.4717517"><ele>263.8</ele><time>2026-03-29T07:43:44.99Z</time></trkpt><trkpt lat="45.5887772" lon="10.4718978"><ele>264.0</ele><time>2026-03-29T07:43:45.99Z</time></trkpt><trkpt lat="45.5887858" lon="10.4720499"><ele>264.4</ele><time>2026-03-29T07:43:46.99Z</time></trkpt><trkpt lat="45.5887955" lon="10.4721938"><ele>264.79999999999995</ele><time>2026-03-29T07:43:47.99Z</time></trkpt><trkpt lat="45.5888092" lon="10.4723454"><ele>265.20000000000005</ele><time>2026-03-29T07:43:48.989Z</time></trkpt><trkpt lat="45.5888258" lon="10.4724992"><ele>265.6</ele><time>2026-03-29T07:43:49.99Z</time></trkpt><trkpt lat="45.5888462" lon="10.4726524"><ele>266.0</ele><time>2026-03-29T07:43:50.99Z</time></trkpt><trkpt lat="45.5888677" lon="10.4728001"><ele>266.2</ele><time>2026-03-29T07:43:51.99Z</time></trkpt><trkpt lat="45.5888874" lon="10.4729445"><ele>266.40000000000003</ele><time>2026-03-29T07:43:52.991Z</time></trkpt><trkpt lat="45.5889085" lon="10.4730909"><ele>266.6</ele><time>2026-03-29T07:43:53.99Z</time></trkpt><trkpt lat="45.5889311" lon="10.4732328"><ele>266.8</ele><time>2026-03-29T07:43:54.989Z</time></trkpt><trkpt lat="45.588955" lon="10.4733757"><ele>267.0</ele><time>2026-03-29T07:43:55.99Z</time></trkpt><trkpt lat="45.5889719" lon="10.4735184"><ele>267.0</ele><time>2026-03-29T07:43:56.991Z</time></trkpt><trkpt lat="45.5889765" lon="10.4736551"><ele>267.0</ele><time>2026-03-29T07:43:57.989Z</time></trkpt><trkpt lat="45.5889639" lon="10.4737983"><ele>267.0</ele><time>2026-03-29T07:43:58.99Z</time></trkpt><trkpt lat="45.5889494" lon="10.4739429"><ele>267.0</ele><time>2026-03-29T07:43:59.99Z</time></trkpt><trkpt lat="45.5889342" lon="10.4740855"><ele>267.0</ele><time>2026-03-29T07:44:00.989Z</time></trkpt><trkpt lat="45.5889164" lon="10.4742256"><ele>266.8</ele><time>2026-03-29T07:44:01.989Z</time></trkpt><trkpt lat="45.5889011" lon="10.474362"><ele>266.6</ele><time>2026-03-29T07:44:02.99Z</time></trkpt><trkpt lat="45.5888928" lon="10.4744981"><ele>266.40000000000003</ele><time>2026-03-29T07:44:03.99Z</time></trkpt><trkpt lat="45.5888951" lon="10.4746351"><ele>266.2</ele><time>2026-03-29T07:44:04.989Z</time></trkpt><trkpt lat="45.5889028" lon="10.4747721"><ele>266.0</ele><time>2026-03-29T07:44:05.99Z</time></trkpt><trkpt lat="45.5889128" lon="10.4749088"><ele>265.8</ele><time>2026-03-29T07:44:06.99Z</time></trkpt><trkpt lat="45.5889159" lon="10.4750475"><ele>265.6</ele><time>2026-03-29T07:44:07.99Z</time></trkpt><trkpt lat="45.588914" lon="10.4751842"><ele>265.4</ele><time>2026-03-29T07:44:08.99Z</time></trkpt><trkpt lat="45.5889028" lon="10.4753124"><ele>265.2</ele><time>2026-03-29T07:44:09.989Z</time></trkpt><trkpt lat="45.5888816" lon="10.4754411"><ele>265.0</ele><time>2026-03-29T07:44:10.99Z</time></trkpt><trkpt lat="45.588859" lon="10.4755646"><ele>265.0</ele><time>2026-03-29T07:44:11.99Z</time></trkpt><trkpt lat="45.5888422" lon="10.4756814"><ele>265.0</ele><time>2026-03-29T07:44:12.989Z</time></trkpt><trkpt lat="45.5888374" lon="10.4757973"><ele>265.0</ele><time>2026-03-29T07:44:13.99Z</time></trkpt><trkpt lat="45.5888425" lon="10.4759131"><ele>265.0</ele><time>2026-03-29T07:44:14.99Z</time></trkpt><trkpt lat="45.5888659" lon="10.476051"><ele>265.0</ele><time>2026-03-29T07:44:15.989Z</time></trkpt><trkpt lat="45.5888985" lon="10.476185"><ele>265.0</ele><time>2026-03-29T07:44:16.99Z</time></trkpt><trkpt lat="45.5889252" lon="10.476322"><ele>265.2</ele><time>2026-03-29T07:44:17.99Z</time></trkpt><trkpt lat="45.5889395" lon="10.4764623"><ele>265.4</ele><time>2026-03-29T07:44:18.99Z</time></trkpt><trkpt lat="45.5889498" lon="10.4766033"><ele>265.6</ele><time>2026-03-29T07:44:19.989Z</time></trkpt><trkpt lat="45.5889605" lon="10.4767372"><ele>265.8</ele><time>2026-03-29T07:44:20.989Z</time></trkpt><trkpt lat="45.5889685" lon="10.4768667"><ele>266.0</ele><time>2026-03-29T07:44:21.99Z</time></trkpt><trkpt lat="45.588977" lon="10.4769986"><ele>267.2</ele><time>2026-03-29T07:44:22.989Z</time></trkpt><trkpt lat="45.5889829" lon="10.4771338"><ele>268.40000000000003</ele><time>2026-03-29T07:44:23.99Z</time></trkpt><trkpt lat="45.5889863" lon="10.4772689"><ele>269.6</ele><time>2026-03-29T07:44:24.989Z</time></trkpt><trkpt lat="45.5889915" lon="10.4774038"><ele>270.8</ele><time>2026-03-29T07:44:25.989Z</time></trkpt><trkpt lat="45.588997" lon="10.4775392"><ele>272.0</ele><time>2026-03-29T07:44:26.991Z</time></trkpt><trkpt lat="45.5889984" lon="10.4776643"><ele>272.0</ele><time>2026-03-29T07:44:27.991Z</time></trkpt><trkpt lat="45.589009" lon="10.477791"><ele>272.0</ele><time>2026-03-29T07:44:28.989Z</time></trkpt><trkpt lat="45.5890164" lon="10.4779189"><ele>272.0</ele><time>2026-03-29T07:44:29.99Z</time></trkpt><trkpt lat="45.5890183" lon="10.4780132"><ele>272.0</ele><time>2026-03-29T07:44:30.99Z</time></trkpt><trkpt lat="45.5890604" lon="10.478132"><ele>272.0</ele><time>2026-03-29T07:44:32.989Z</time></trkpt><trkpt lat="45.5891294" lon="10.4781543"><ele>272.0</ele><time>2026-03-29T07:44:33.989Z</time></trkpt><trkpt lat="45.5892226" lon="10.4781677"><ele>272.75</ele><time>2026-03-29T07:44:34.99Z</time></trkpt><trkpt lat="45.5893275" lon="10.4782046"><ele>273.5</ele><time>2026-03-29T07:44:35.99Z</time></trkpt><trkpt lat="45.5894445" lon="10.4782435"><ele>274.25</ele><time>2026-03-29T07:44:36.99Z</time></trkpt><trkpt lat="45.5895675" lon="10.4782962"><ele>275.0</ele><time>2026-03-29T07:44:37.989Z</time></trkpt><trkpt lat="45.5896829" lon="10.478356"><ele>275.5</ele><time>2026-03-29T07:44:38.99Z</time></trkpt><trkpt lat="45.5897872" lon="10.4784284"><ele>276.0</ele><time>2026-03-29T07:44:39.99Z</time></trkpt><trkpt lat="45.5898881" lon="10.4785102"><ele>276.5</ele><time>2026-03-29T07:44:40.989Z</time></trkpt><trkpt lat="45.5899831" lon="10.4785893"><ele>277.0</ele><time>2026-03-29T07:44:41.989Z</time></trkpt><trkpt lat="45.5900747" lon="10.4786704"><ele>277.0</ele><time>2026-03-29T07:44:42.99Z</time></trkpt><trkpt lat="45.5901713" lon="10.478754"><ele>277.0</ele><time>2026-03-29T07:44:43.99Z</time></trkpt><trkpt lat="45.5902691" lon="10.4788255"><ele>277.0</ele><time>2026-03-29T07:44:44.989Z</time></trkpt><trkpt lat="45.5903699" lon="10.4788886"><ele>277.0</ele><time>2026-03-29T07:44:45.99Z</time></trkpt><trkpt lat="45.5904743" lon="10.4789395"><ele>277.0</ele><time>2026-03-29T07:44:46.99Z</time></trkpt><trkpt lat="45.5905826" lon="10.4789966"><ele>277.8</ele><time>2026-03-29T07:44:47.99Z</time></trkpt><trkpt lat="45.5906882" lon="10.4790665"><ele>278.6</ele><time>2026-03-29T07:44:48.989Z</time></trkpt><trkpt lat="45.5907923" lon="10.4791396"><ele>279.40000000000003</ele><time>2026-03-29T07:44:49.989Z</time></trkpt><trkpt lat="45.5908913" lon="10.4792072"><ele>280.2</ele><time>2026-03-29T07:44:50.989Z</time></trkpt><trkpt lat="45.5909751" lon="10.4792708"><ele>281.0</ele><time>2026-03-29T07:44:51.99Z</time></trkpt><trkpt lat="45.5910555" lon="10.4793194"><ele>281.0</ele><time>2026-03-29T07:44:52.989Z</time></trkpt><trkpt lat="45.5911485" lon="10.4793544"><ele>281.0</ele><time>2026-03-29T07:44:53.99Z</time></trkpt><trkpt lat="45.5912392" lon="10.4793848"><ele>281.0</ele><time>2026-03-29T07:44:54.989Z</time></trkpt><trkpt lat="45.5913439" lon="10.4794369"><ele>281.0</ele><time>2026-03-29T07:44:55.989Z</time></trkpt><trkpt lat="45.5914489" lon="10.4794761"><ele>281.0</ele><time>2026-03-29T07:44:56.989Z</time></trkpt><trkpt lat="45.5915665" lon="10.4794898"><ele>281.25</ele><time>2026-03-29T07:44:57.99Z</time></trkpt><trkpt lat="45.5916825" lon="10.4795137"><ele>281.5</ele><time>2026-03-29T07:44:58.989Z</time></trkpt><trkpt lat="45.5917943" lon="10.4795441"><ele>281.75</ele><time>2026-03-29T07:44:59.99Z</time></trkpt><trkpt lat="45.5919059" lon="10.4795801"><ele>282.0</ele><time>2026-03-29T07:45:00.989Z</time></trkpt><trkpt lat="45.592014" lon="10.4796222"><ele>283.6</ele><time>2026-03-29T07:45:01.991Z</time></trkpt><trkpt lat="45.5921213" lon="10.479673"><ele>285.2</ele><time>2026-03-29T07:45:02.99Z</time></trkpt><trkpt lat="45.5922253" lon="10.4797249"><ele>286.8</ele><time>2026-03-29T07:45:03.989Z</time></trkpt><trkpt lat="45.5923191" lon="10.4797942"><ele>288.4</ele><time>2026-03-29T07:45:04.99Z</time></trkpt><trkpt lat="45.5924127" lon="10.4798639"><ele>290.0</ele><time>2026-03-29T07:45:05.989Z</time></trkpt><trkpt lat="45.5925024" lon="10.479936"><ele>290.0</ele><time>2026-03-29T07:45:06.989Z</time></trkpt><trkpt lat="45.5925922" lon="10.4799827"><ele>290.0</ele><time>2026-03-29T07:45:07.99Z</time></trkpt><trkpt lat="45.5926941" lon="10.4800146"><ele>290.0</ele><time>2026-03-29T07:45:08.99Z</time></trkpt><trkpt lat="45.5927991" lon="10.4800443"><ele>290.0</ele><time>2026-03-29T07:45:09.99Z</time></trkpt><trkpt lat="45.5929061" lon="10.4800663"><ele>290.0</ele><time>2026-03-29T07:45:10.989Z</time></trkpt><trkpt lat="45.5930055" lon="10.4800755"><ele>290.1666666666667</ele><time>2026-03-29T07:45:11.99Z</time></trkpt><trkpt lat="45.593098" lon="10.4800708"><ele>290.33333333333337</ele><time>2026-03-29T07:45:12.99Z</time></trkpt><trkpt lat="45.5931784" lon="10.4800555"><ele>290.5</ele><time>2026-03-29T07:45:13.99Z</time></trkpt><trkpt lat="45.5932607" lon="10.480042"><ele>290.6666666666667</ele><time>2026-03-29T07:45:14.989Z</time></trkpt><trkpt lat="45.5933428" lon="10.4800171"><ele>290.8333333333333</ele><time>2026-03-29T07:45:15.99Z</time></trkpt><trkpt lat="45.5934274" lon="10.4799754"><ele>291.0</ele><time>2026-03-29T07:45:16.989Z</time></trkpt><trkpt lat="45.5935001" lon="10.4799388"><ele>291.0</ele><time>2026-03-29T07:45:17.99Z</time></trkpt><trkpt lat="45.5935764" lon="10.4799153"><ele>291.0</ele><time>2026-03-29T07:45:18.99Z</time></trkpt><trkpt lat="45.593662" lon="10.4799092"><ele>291.0</ele><time>2026-03-29T07:45:19.989Z</time></trkpt><trkpt lat="45.5937493" lon="10.4799236"><ele>291.0</ele><time>2026-03-29T07:45:20.99Z</time></trkpt><trkpt lat="45.5938405" lon="10.4799486"><ele>291.0</ele><time>2026-03-29T07:45:21.99Z</time></trkpt><trkpt lat="45.5939359" lon="10.4799721"><ele>291.0</ele><time>2026-03-29T07:45:22.99Z</time></trkpt><trkpt lat="45.5940342" lon="10.4799924"><ele>291.5</ele><time>2026-03-29T07:45:23.99Z</time></trkpt><trkpt lat="45.5941123" lon="10.4800083"><ele>292.0</ele><time>2026-03-29T07:45:24.989Z</time></trkpt><trkpt lat="45.5941769" lon="10.4800301"><ele>292.5</ele><time>2026-03-29T07:45:25.989Z</time></trkpt><trkpt lat="45.5942525" lon="10.4800436"><ele>293.0</ele><time>2026-03-29T07:45:27.99Z</time></trkpt><trkpt lat="45.594341" lon="10.4799624"><ele>293.5</ele><time>2026-03-29T07:45:37.99Z</time></trkpt><trkpt lat="45.5943757" lon="10.4798709"><ele>294.0</ele><time>2026-03-29T07:45:38.99Z</time></trkpt><trkpt lat="45.5944142" lon="10.4797525"><ele>294.0</ele><time>2026-03-29T07:45:39.99Z</time></trkpt><trkpt lat="45.5944558" lon="10.4796379"><ele>294.0</ele><time>2026-03-29T07:45:40.989Z</time></trkpt><trkpt lat="45.5944945" lon="10.4795195"><ele>294.0</ele><time>2026-03-29T07:45:41.99Z</time></trkpt><trkpt lat="45.5945255" lon="10.479388"><ele>294.0</ele><time>2026-03-29T07:45:42.99Z</time></trkpt><trkpt lat="45.5945397" lon="10.4792465"><ele>294.0</ele><time>2026-03-29T07:45:43.99Z</time></trkpt><trkpt lat="45.5945251" lon="10.4790959"><ele>294.8</ele><time>2026-03-29T07:45:44.99Z</time></trkpt><trkpt lat="45.5944804" lon="10.4789545"><ele>295.59999999999997</ele><time>2026-03-29T07:45:45.989Z</time></trkpt><trkpt lat="45.5944181" lon="10.4788241"><ele>296.4</ele><time>2026-03-29T07:45:46.99Z</time></trkpt><trkpt lat="45.5943544" lon="10.4786959"><ele>297.2</ele><time>2026-03-29T07:45:47.99Z</time></trkpt><trkpt lat="45.5942895" lon="10.4785662"><ele>298.0</ele><time>2026-03-29T07:45:48.99Z</time></trkpt><trkpt lat="45.5942304" lon="10.4784362"><ele>300.5</ele><time>2026-03-29T07:45:49.99Z</time></trkpt><trkpt lat="45.5941633" lon="10.478307"><ele>303.0</ele><time>2026-03-29T07:45:50.989Z</time></trkpt><trkpt lat="45.5940847" lon="10.4781873"><ele>305.5</ele><time>2026-03-29T07:45:51.99Z</time></trkpt><trkpt lat="45.5940011" lon="10.4780743"><ele>308.0</ele><time>2026-03-29T07:45:52.99Z</time></trkpt><trkpt lat="45.5939243" lon="10.4779614"><ele>308.4</ele><time>2026-03-29T07:45:53.989Z</time></trkpt><trkpt lat="45.5938504" lon="10.4778354"><ele>308.8</ele><time>2026-03-29T07:45:54.989Z</time></trkpt><trkpt lat="45.5937941" lon="10.4776972"><ele>309.2</ele><time>2026-03-29T07:45:55.99Z</time></trkpt><trkpt lat="45.5937386" lon="10.4775595"><ele>309.6</ele><time>2026-03-29T07:45:56.99Z</time></trkpt><trkpt lat="45.5936819" lon="10.4774262"><ele>310.0</ele><time>2026-03-29T07:45:57.989Z</time></trkpt><trkpt lat="45.5936252" lon="10.4772828"><ele>310.0</ele><time>2026-03-29T07:45:58.989Z</time></trkpt><trkpt lat="45.5935702" lon="10.4771349"><ele>310.0</ele><time>2026-03-29T07:45:59.99Z</time></trkpt><trkpt lat="45.5935204" lon="10.4769821"><ele>310.0</ele><time>2026-03-29T07:46:00.989Z</time></trkpt><trkpt lat="45.5934767" lon="10.4768177"><ele>310.0</ele><time>2026-03-29T07:46:01.989Z</time></trkpt><trkpt lat="45.5934393" lon="10.4766514"><ele>311.0</ele><time>2026-03-29T07:46:02.99Z</time></trkpt><trkpt lat="45.5934072" lon="10.4764811"><ele>312.0</ele><time>2026-03-29T07:46:03.989Z</time></trkpt><trkpt lat="45.5933774" lon="10.4763109"><ele>313.0</ele><time>2026-03-29T07:46:04.99Z</time></trkpt><trkpt lat="45.5933432" lon="10.4761419"><ele>314.0</ele><time>2026-03-29T07:46:05.99Z</time></trkpt><trkpt lat="45.5933085" lon="10.4759766"><ele>317.0</ele><time>2026-03-29T07:46:06.989Z</time></trkpt><trkpt lat="45.5932728" lon="10.4758124"><ele>320.0</ele><time>2026-03-29T07:46:07.99Z</time></trkpt><trkpt lat="45.5932387" lon="10.475647"><ele>323.0</ele><time>2026-03-29T07:46:08.989Z</time></trkpt><trkpt lat="45.5932112" lon="10.4754766"><ele>326.0</ele><time>2026-03-29T07:46:09.989Z</time></trkpt><trkpt lat="45.5931848" lon="10.4752996"><ele>327.25</ele><time>2026-03-29T07:46:10.991Z</time></trkpt><trkpt lat="45.5931648" lon="10.4751248"><ele>328.5</ele><time>2026-03-29T07:46:11.989Z</time></trkpt><trkpt lat="45.5931394" lon="10.4749505"><ele>329.75</ele><time>2026-03-29T07:46:12.99Z</time></trkpt><trkpt lat="45.5931133" lon="10.4747772"><ele>331.0</ele><time>2026-03-29T07:46:13.99Z</time></trkpt><trkpt lat="45.5930932" lon="10.4746123"><ele>332.0</ele><time>2026-03-29T07:46:14.99Z</time></trkpt><trkpt lat="45.593075" lon="10.4744583"><ele>333.0</ele><time>2026-03-29T07:46:15.989Z</time></trkpt><trkpt lat="45.5930579" lon="10.4743156"><ele>334.0</ele><time>2026-03-29T07:46:16.991Z</time></trkpt><trkpt lat="45.5930455" lon="10.474187"><ele>335.0</ele><time>2026-03-29T07:46:17.99Z</time></trkpt><trkpt lat="45.5930438" lon="10.474066"><ele>336.0</ele><time>2026-03-29T07:46:18.99Z</time></trkpt><trkpt lat="45.5930488" lon="10.4739461"><ele>336.0</ele><time>2026-03-29T07:46:19.99Z</time></trkpt><trkpt lat="45.5930508" lon="10.4738328"><ele>336.0</ele><time>2026-03-29T07:46:20.99Z</time></trkpt><trkpt lat="45.593049" lon="10.4737002"><ele>336.0</ele><time>2026-03-29T07:46:21.989Z</time></trkpt><trkpt lat="45.5930318" lon="10.4735586"><ele>336.0</ele><time>2026-03-29T07:46:22.989Z</time></trkpt><trkpt lat="45.5930063" lon="10.4734096"><ele>336.0</ele><time>2026-03-29T07:46:23.99Z</time></trkpt><trkpt lat="45.5929758" lon="10.4732509"><ele>335.8</ele><time>2026-03-29T07:46:24.99Z</time></trkpt><trkpt lat="45.59295" lon="10.4730887"><ele>335.6</ele><time>2026-03-29T07:46:25.99Z</time></trkpt><trkpt lat="45.592925" lon="10.4729393"><ele>335.4</ele><time>2026-03-29T07:46:26.989Z</time></trkpt><trkpt lat="45.5928918" lon="10.4728079"><ele>335.2</ele><time>2026-03-29T07:46:27.989Z</time></trkpt><trkpt lat="45.5928539" lon="10.472682"><ele>335.0</ele><time>2026-03-29T07:46:28.99Z</time></trkpt><trkpt lat="45.5927987" lon="10.4725513"><ele>330.75</ele><time>2026-03-29T07:46:29.989Z</time></trkpt><trkpt lat="45.5927409" lon="10.472411"><ele>326.5</ele><time>2026-03-29T07:46:30.99Z</time></trkpt><trkpt lat="45.5926783" lon="10.472263"><ele>322.25</ele><time>2026-03-29T07:46:31.99Z</time></trkpt><trkpt lat="45.5926168" lon="10.4721067"><ele>318.0</ele><time>2026-03-29T07:46:32.989Z</time></trkpt><trkpt lat="45.5925546" lon="10.4719446"><ele>318.0</ele><time>2026-03-29T07:46:33.99Z</time></trkpt><trkpt lat="45.5924938" lon="10.4717861"><ele>318.0</ele><time>2026-03-29T07:46:34.989Z</time></trkpt><trkpt lat="45.5924337" lon="10.4716211"><ele>318.0</ele><time>2026-03-29T07:46:35.99Z</time></trkpt><trkpt lat="45.5923766" lon="10.471454"><ele>318.0</ele><time>2026-03-29T07:46:36.989Z</time></trkpt><trkpt lat="45.5923105" lon="10.4712948"><ele>318.75</ele><time>2026-03-29T07:46:37.99Z</time></trkpt><trkpt lat="45.5922479" lon="10.4711335"><ele>319.5</ele><time>2026-03-29T07:46:38.99Z</time></trkpt><trkpt lat="45.5921951" lon="10.4709691"><ele>320.25</ele><time>2026-03-29T07:46:39.989Z</time></trkpt><trkpt lat="45.592149" lon="10.4708061"><ele>321.0</ele><time>2026-03-29T07:46:40.99Z</time></trkpt><trkpt lat="45.5921025" lon="10.4706394"><ele>321.0</ele><time>2026-03-29T07:46:41.99Z</time></trkpt><trkpt lat="45.5920613" lon="10.4704658"><ele>321.0</ele><time>2026-03-29T07:46:42.991Z</time></trkpt><trkpt lat="45.5920311" lon="10.4702989"><ele>321.0</ele><time>2026-03-29T07:46:43.989Z</time></trkpt><trkpt lat="45.5920211" lon="10.4701404"><ele>321.0</ele><time>2026-03-29T07:46:44.989Z</time></trkpt><trkpt lat="45.5920227" lon="10.4699863"><ele>322.0</ele><time>2026-03-29T07:46:45.99Z</time></trkpt><trkpt lat="45.5920214" lon="10.4698217"><ele>323.0</ele><time>2026-03-29T07:46:46.99Z</time></trkpt><trkpt lat="45.5920096" lon="10.4696585"><ele>324.0</ele><time>2026-03-29T07:46:47.989Z</time></trkpt><trkpt lat="45.5919909" lon="10.4695139"><ele>325.0</ele><time>2026-03-29T07:46:48.99Z</time></trkpt><trkpt lat="45.5919528" lon="10.4693895"><ele>326.0</ele><time>2026-03-29T07:46:49.99Z</time></trkpt><trkpt lat="45.5918878" lon="10.4692947"><ele>322.40000000000003</ele><time>2026-03-29T07:46:50.989Z</time></trkpt><trkpt lat="45.5918059" lon="10.469237"><ele>318.8</ele><time>2026-03-29T07:46:51.991Z</time></trkpt><trkpt lat="45.5917115" lon="10.4692209"><ele>315.20000000000005</ele><time>2026-03-29T07:46:52.989Z</time></trkpt><trkpt lat="45.5916226" lon="10.4692484"><ele>311.6</ele><time>2026-03-29T07:46:53.99Z</time></trkpt><trkpt lat="45.5915433" lon="10.4693137"><ele>308.0</ele><time>2026-03-29T07:46:54.99Z</time></trkpt><trkpt lat="45.5914906" lon="10.4694099"><ele>308.0</ele><time>2026-03-29T07:46:55.99Z</time></trkpt><trkpt lat="45.5914442" lon="10.4695062"><ele>308.0</ele><time>2026-03-29T07:46:56.99Z</time></trkpt><trkpt lat="45.591382" lon="10.4695713"><ele>308.0</ele><time>2026-03-29T07:46:57.99Z</time></trkpt><trkpt lat="45.5913128" lon="10.4695804"><ele>308.0</ele><time>2026-03-29T07:46:58.99Z</time></trkpt><trkpt lat="45.591251" lon="10.4695434"><ele>308.0</ele><time>2026-03-29T07:46:59.989Z</time></trkpt><trkpt lat="45.5911845" lon="10.4694515"><ele>308.0</ele><time>2026-03-29T07:47:00.99Z</time></trkpt><trkpt lat="45.5911336" lon="10.4693283"><ele>306.0</ele><time>2026-03-29T07:47:01.99Z</time></trkpt><trkpt lat="45.5910721" lon="10.4691952"><ele>304.0</ele><time>2026-03-29T07:47:02.989Z</time></trkpt><trkpt lat="45.5910078" lon="10.469058"><ele>302.0</ele><time>2026-03-29T07:47:03.99Z</time></trkpt><trkpt lat="45.5909404" lon="10.4689107"><ele>300.0</ele><time>2026-03-29T07:47:04.989Z</time></trkpt><trkpt lat="45.5908848" lon="10.468749"><ele>299.0</ele><time>2026-03-29T07:47:05.99Z</time></trkpt><trkpt lat="45.5908372" lon="10.4685716"><ele>298.0</ele><time>2026-03-29T07:47:06.99Z</time></trkpt><trkpt lat="45.5907903" lon="10.468389"><ele>297.0</ele><time>2026-03-29T07:47:07.991Z</time></trkpt><trkpt lat="45.5907498" lon="10.4681965"><ele>296.0</ele><time>2026-03-29T07:47:08.989Z</time></trkpt><trkpt lat="45.5907005" lon="10.467999"><ele>295.0</ele><time>2026-03-29T07:47:09.989Z</time></trkpt><trkpt lat="45.5906512" lon="10.4677996"><ele>294.0</ele><time>2026-03-29T07:47:10.99Z</time></trkpt><trkpt lat="45.5906023" lon="10.4675931"><ele>293.0</ele><time>2026-03-29T07:47:11.989Z</time></trkpt><trkpt lat="45.5905631" lon="10.4673826"><ele>293.0</ele><time>2026-03-29T07:47:12.989Z</time></trkpt><trkpt lat="45.5905201" lon="10.4671709"><ele>293.0</ele><time>2026-03-29T07:47:13.99Z</time></trkpt><trkpt lat="45.5904857" lon="10.466959"><ele>293.0</ele><time>2026-03-29T07:47:14.989Z</time></trkpt><trkpt lat="45.5904594" lon="10.4667441"><ele>291.0</ele><time>2026-03-29T07:47:15.99Z</time></trkpt><trkpt lat="45.590426" lon="10.4665377"><ele>289.0</ele><time>2026-03-29T07:47:16.99Z</time></trkpt><trkpt lat="45.5903753" lon="10.4663265"><ele>287.0</ele><time>2026-03-29T07:47:17.989Z</time></trkpt><trkpt lat="45.5903308" lon="10.4661214"><ele>284.6666666666667</ele><time>2026-03-29T07:47:18.99Z</time></trkpt><trkpt lat="45.5902801" lon="10.4659269"><ele>282.3333333333333</ele><time>2026-03-29T07:47:19.989Z</time></trkpt><trkpt lat="45.5902026" lon="10.4657311"><ele>280.0</ele><time>2026-03-29T07:47:20.99Z</time></trkpt><trkpt lat="45.5900968" lon="10.465569"><ele>278.75</ele><time>2026-03-29T07:47:21.99Z</time></trkpt><trkpt lat="45.5900062" lon="10.4654002"><ele>277.5</ele><time>2026-03-29T07:47:22.99Z</time></trkpt><trkpt lat="45.5899162" lon="10.4652416"><ele>276.25</ele><time>2026-03-29T07:47:23.989Z</time></trkpt><trkpt lat="45.5898201" lon="10.4650982"><ele>275.0</ele><time>2026-03-29T07:47:24.99Z</time></trkpt><trkpt lat="45.5897081" lon="10.4649843"><ele>275.0</ele><time>2026-03-29T07:47:25.99Z</time></trkpt><trkpt lat="45.5895886" lon="10.4648858"><ele>275.0</ele><time>2026-03-29T07:47:26.989Z</time></trkpt><trkpt lat="45.5894622" lon="10.464805"><ele>275.0</ele><time>2026-03-29T07:47:27.989Z</time></trkpt><trkpt lat="45.5893348" lon="10.4647576"><ele>275.0</ele><time>2026-03-29T07:47:28.99Z</time></trkpt><trkpt lat="45.5892039" lon="10.4647424"><ele>275.0</ele><time>2026-03-29T07:47:29.989Z</time></trkpt><trkpt lat="45.5890696" lon="10.4647518"><ele>275.0</ele><time>2026-03-29T07:47:30.99Z</time></trkpt><trkpt lat="45.5889352" lon="10.4647725"><ele>275.0</ele><time>2026-03-29T07:47:31.989Z</time></trkpt><trkpt lat="45.5888115" lon="10.4647916"><ele>275.0</ele><time>2026-03-29T07:47:32.99Z</time></trkpt><trkpt lat="45.5886955" lon="10.4648057"><ele>273.2</ele><time>2026-03-29T07:47:33.987Z</time></trkpt><trkpt lat="45.5885923" lon="10.4648007"><ele>271.4</ele><time>2026-03-29T07:47:34.99Z</time></trkpt><trkpt lat="45.5885088" lon="10.4647595"><ele>269.6</ele><time>2026-03-29T07:47:35.99Z</time></trkpt><trkpt lat="45.5884535" lon="10.4646638"><ele>267.8</ele><time>2026-03-29T07:47:36.99Z</time></trkpt><trkpt lat="45.5884195" lon="10.4645482"><ele>266.0</ele><time>2026-03-29T07:47:37.99Z</time></trkpt><trkpt lat="45.5883945" lon="10.4644286"><ele>265.8</ele><time>2026-03-29T07:47:38.989Z</time></trkpt><trkpt lat="45.5883685" lon="10.4643005"><ele>265.6</ele><time>2026-03-29T07:47:39.99Z</time></trkpt><trkpt lat="45.5883416" lon="10.4641659"><ele>265.4</ele><time>2026-03-29T07:47:40.989Z</time></trkpt><trkpt lat="45.5883081" lon="10.4640158"><ele>265.2</ele><time>2026-03-29T07:47:41.99Z</time></trkpt><trkpt lat="45.58827" lon="10.4638737"><ele>265.0</ele><time>2026-03-29T07:47:42.989Z</time></trkpt><trkpt lat="45.5882359" lon="10.4637297"><ele>264.8</ele><time>2026-03-29T07:47:43.99Z</time></trkpt><trkpt lat="45.5882055" lon="10.4635865"><ele>264.6</ele><time>2026-03-29T07:47:44.99Z</time></trkpt><trkpt lat="45.5881785" lon="10.4634459"><ele>264.4</ele><time>2026-03-29T07:47:45.99Z</time></trkpt><trkpt lat="45.5881612" lon="10.4632978"><ele>264.2</ele><time>2026-03-29T07:47:46.989Z</time></trkpt><trkpt lat="45.5881587" lon="10.4631409"><ele>264.0</ele><time>2026-03-29T07:47:47.99Z</time></trkpt><trkpt lat="45.5881727" lon="10.4629893"><ele>264.2</ele><time>2026-03-29T07:47:48.989Z</time></trkpt><trkpt lat="45.5881972" lon="10.4628391"><ele>264.4</ele><time>2026-03-29T07:47:49.99Z</time></trkpt><trkpt lat="45.5882401" lon="10.4626975"><ele>264.6</ele><time>2026-03-29T07:47:50.991Z</time></trkpt><trkpt lat="45.5882927" lon="10.4625562"><ele>264.8</ele><time>2026-03-29T07:47:51.989Z</time></trkpt><trkpt lat="45.5883419" lon="10.4624083"><ele>265.0</ele><time>2026-03-29T07:47:52.99Z</time></trkpt><trkpt lat="45.5883956" lon="10.4622605"><ele>265.25</ele><time>2026-03-29T07:47:53.99Z</time></trkpt><trkpt lat="45.5884538" lon="10.4621023"><ele>265.5</ele><time>2026-03-29T07:47:54.989Z</time></trkpt><trkpt lat="45.5885152" lon="10.461953"><ele>265.75</ele><time>2026-03-29T07:47:55.99Z</time></trkpt><trkpt lat="45.5885646" lon="10.4617804"><ele>266.0</ele><time>2026-03-29T07:47:56.99Z</time></trkpt><trkpt lat="45.588603" lon="10.4616015"><ele>266.0</ele><time>2026-03-29T07:47:57.989Z</time></trkpt><trkpt lat="45.5886328" lon="10.4614167"><ele>266.0</ele><time>2026-03-29T07:47:58.99Z</time></trkpt><trkpt lat="45.5886552" lon="10.4612224"><ele>266.0</ele><time>2026-03-29T07:47:59.99Z</time></trkpt><trkpt lat="45.5886643" lon="10.461025"><ele>266.0</ele><time>2026-03-29T07:48:00.989Z</time></trkpt><trkpt lat="45.5886735" lon="10.4608167"><ele>265.5</ele><time>2026-03-29T07:48:01.99Z</time></trkpt><trkpt lat="45.5886741" lon="10.4606105"><ele>265.0</ele><time>2026-03-29T07:48:02.99Z</time></trkpt><trkpt lat="45.5886765" lon="10.4604057"><ele>264.5</ele><time>2026-03-29T07:48:03.99Z</time></trkpt><trkpt lat="45.5886738" lon="10.4601988"><ele>264.0</ele><time>2026-03-29T07:48:04.99Z</time></trkpt><trkpt lat="45.5886683" lon="10.4599934"><ele>263.5</ele><time>2026-03-29T07:48:05.99Z</time></trkpt><trkpt lat="45.5886641" lon="10.459785"><ele>263.0</ele><time>2026-03-29T07:48:06.99Z</time></trkpt><trkpt lat="45.5886551" lon="10.4595689"><ele>262.5</ele><time>2026-03-29T07:48:07.99Z</time></trkpt><trkpt lat="45.5886529" lon="10.4593582"><ele>262.0</ele><time>2026-03-29T07:48:08.99Z</time></trkpt><trkpt lat="45.5886696" lon="10.459153"><ele>260.75</ele><time>2026-03-29T07:48:09.989Z</time></trkpt><trkpt lat="45.5887192" lon="10.4589543"><ele>259.5</ele><time>2026-03-29T07:48:10.99Z</time></trkpt><trkpt lat="45.5887863" lon="10.458762"><ele>258.25</ele><time>2026-03-29T07:48:11.99Z</time></trkpt><trkpt lat="45.5888612" lon="10.4585745"><ele>257.0</ele><time>2026-03-29T07:48:12.989Z</time></trkpt><trkpt lat="45.588939" lon="10.4583919"><ele>257.0</ele><time>2026-03-29T07:48:13.99Z</time></trkpt><trkpt lat="45.5890156" lon="10.4582131"><ele>257.0</ele><time>2026-03-29T07:48:14.99Z</time></trkpt><trkpt lat="45.5890929" lon="10.4580293"><ele>257.0</ele><time>2026-03-29T07:48:15.989Z</time></trkpt><trkpt lat="45.5891732" lon="10.4578448"><ele>257.0</ele><time>2026-03-29T07:48:16.99Z</time></trkpt><trkpt lat="45.5892544" lon="10.4576648"><ele>259.6666666666667</ele><time>2026-03-29T07:48:17.99Z</time></trkpt><trkpt lat="45.5893389" lon="10.4574845"><ele>262.3333333333333</ele><time>2026-03-29T07:48:18.99Z</time></trkpt><trkpt lat="45.5894274" lon="10.4573053"><ele>265.0</ele><time>2026-03-29T07:48:19.99Z</time></trkpt><trkpt lat="45.5895201" lon="10.4571325"><ele>259.75</ele><time>2026-03-29T07:48:20.99Z</time></trkpt><trkpt lat="45.5896123" lon="10.456958"><ele>254.5</ele><time>2026-03-29T07:48:21.989Z</time></trkpt><trkpt lat="45.5896958" lon="10.4567803"><ele>249.25</ele><time>2026-03-29T07:48:22.99Z</time></trkpt><trkpt lat="45.5897675" lon="10.4565987"><ele>244.0</ele><time>2026-03-29T07:48:23.989Z</time></trkpt><trkpt lat="45.5898275" lon="10.4564147"><ele>243.0</ele><time>2026-03-29T07:48:24.99Z</time></trkpt><trkpt lat="45.5898842" lon="10.4562396"><ele>242.0</ele><time>2026-03-29T07:48:25.989Z</time></trkpt><trkpt lat="45.5899342" lon="10.4560814"><ele>241.0</ele><time>2026-03-29T07:48:26.99Z</time></trkpt><trkpt lat="45.5899585" lon="10.4559273"><ele>240.0</ele><time>2026-03-29T07:48:27.99Z</time></trkpt><trkpt lat="45.5899471" lon="10.4557598"><ele>240.0</ele><time>2026-03-29T07:48:28.989Z</time></trkpt><trkpt lat="45.5898887" lon="10.4555873"><ele>240.0</ele><time>2026-03-29T07:48:29.99Z</time></trkpt><trkpt lat="45.5898126" lon="10.4554291"><ele>240.0</ele><time>2026-03-29T07:48:30.99Z</time></trkpt><trkpt lat="45.5897303" lon="10.4552824"><ele>240.0</ele><time>2026-03-29T07:48:31.989Z</time></trkpt><trkpt lat="45.5896547" lon="10.4551417"><ele>237.0</ele><time>2026-03-29T07:48:32.99Z</time></trkpt><trkpt lat="45.5895966" lon="10.455"><ele>234.0</ele><time>2026-03-29T07:48:33.989Z</time></trkpt><trkpt lat="45.5895721" lon="10.4548379"><ele>231.0</ele><time>2026-03-29T07:48:34.989Z</time></trkpt><trkpt lat="45.5895808" lon="10.4546803"><ele>228.0</ele><time>2026-03-29T07:48:35.99Z</time></trkpt><trkpt lat="45.5896121" lon="10.4545291"><ele>226.60000000000002</ele><time>2026-03-29T07:48:36.99Z</time></trkpt><trkpt lat="45.5896493" lon="10.4543776"><ele>225.20000000000002</ele><time>2026-03-29T07:48:37.989Z</time></trkpt><trkpt lat="45.5896679" lon="10.4542249"><ele>223.8</ele><time>2026-03-29T07:48:38.99Z</time></trkpt><trkpt lat="45.5896495" lon="10.4540782"><ele>222.4</ele><time>2026-03-29T07:48:39.989Z</time></trkpt><trkpt lat="45.5895928" lon="10.4539398"><ele>221.0</ele><time>2026-03-29T07:48:40.991Z</time></trkpt><trkpt lat="45.589511" lon="10.4538232"><ele>221.75</ele><time>2026-03-29T07:48:41.99Z</time></trkpt><trkpt lat="45.589412" lon="10.453714"><ele>222.5</ele><time>2026-03-29T07:48:42.989Z</time></trkpt><trkpt lat="45.5893038" lon="10.4536033"><ele>223.25</ele><time>2026-03-29T07:48:43.99Z</time></trkpt><trkpt lat="45.5892003" lon="10.4534829"><ele>224.0</ele><time>2026-03-29T07:48:44.99Z</time></trkpt><trkpt lat="45.5891032" lon="10.4533598"><ele>224.0</ele><time>2026-03-29T07:48:45.99Z</time></trkpt><trkpt lat="45.589028" lon="10.4532219"><ele>224.0</ele><time>2026-03-29T07:48:46.989Z</time></trkpt><trkpt lat="45.5889676" lon="10.4530792"><ele>224.0</ele><time>2026-03-29T07:48:47.99Z</time></trkpt><trkpt lat="45.5889369" lon="10.4529261"><ele>224.0</ele><time>2026-03-29T07:48:48.99Z</time></trkpt><trkpt lat="45.588933" lon="10.452771"><ele>223.0</ele><time>2026-03-29T07:48:49.989Z</time></trkpt><trkpt lat="45.5889635" lon="10.4526153"><ele>221.99999999999997</ele><time>2026-03-29T07:48:50.99Z</time></trkpt><trkpt lat="45.5890118" lon="10.4524676"><ele>220.99999999999997</ele><time>2026-03-29T07:48:51.989Z</time></trkpt><trkpt lat="45.5890643" lon="10.4523402"><ele>220.0</ele><time>2026-03-29T07:48:52.99Z</time></trkpt><trkpt lat="45.5890883" lon="10.4522027"><ele>219.0</ele><time>2026-03-29T07:48:53.989Z</time></trkpt><trkpt lat="45.5890757" lon="10.4520484"><ele>219.0</ele><time>2026-03-29T07:48:54.99Z</time></trkpt><trkpt lat="45.5890277" lon="10.4518937"><ele>219.0</ele><time>2026-03-29T07:48:55.99Z</time></trkpt><trkpt lat="45.5889531" lon="10.4517538"><ele>219.0</ele><time>2026-03-29T07:48:56.99Z</time></trkpt><trkpt lat="45.5888691" lon="10.451606"><ele>219.0</ele><time>2026-03-29T07:48:57.99Z</time></trkpt><trkpt lat="45.5887786" lon="10.4514562"><ele>219.0</ele><time>2026-03-29T07:48:58.989Z</time></trkpt><trkpt lat="45.5886905" lon="10.4513072"><ele>219.0</ele><time>2026-03-29T07:48:59.99Z</time></trkpt><trkpt lat="45.5886055" lon="10.451152"><ele>219.0</ele><time>2026-03-29T07:49:00.99Z</time></trkpt><trkpt lat="45.5885214" lon="10.4509987"><ele>219.0</ele><time>2026-03-29T07:49:01.989Z</time></trkpt><trkpt lat="45.5884371" lon="10.450844"><ele>218.75</ele><time>2026-03-29T07:49:02.989Z</time></trkpt><trkpt lat="45.5883519" lon="10.4506863"><ele>218.5</ele><time>2026-03-29T07:49:03.99Z</time></trkpt><trkpt lat="45.588267" lon="10.4505267"><ele>218.25</ele><time>2026-03-29T07:49:04.989Z</time></trkpt><trkpt lat="45.5881812" lon="10.4503723"><ele>218.0</ele><time>2026-03-29T07:49:05.989Z</time></trkpt><trkpt lat="45.5880929" lon="10.4502166"><ele>218.0</ele><time>2026-03-29T07:49:06.99Z</time></trkpt><trkpt lat="45.5880025" lon="10.4500574"><ele>218.0</ele><time>2026-03-29T07:49:07.99Z</time></trkpt><trkpt lat="45.5879113" lon="10.4499034"><ele>218.0</ele><time>2026-03-29T07:49:08.99Z</time></trkpt><trkpt lat="45.5878184" lon="10.4497558"><ele>218.0</ele><time>2026-03-29T07:49:09.99Z</time></trkpt><trkpt lat="45.5877236" lon="10.4496162"><ele>218.25</ele><time>2026-03-29T07:49:10.99Z</time></trkpt><trkpt lat="45.5876304" lon="10.449479"><ele>218.5</ele><time>2026-03-29T07:49:11.99Z</time></trkpt><trkpt lat="45.5875433" lon="10.4493565"><ele>218.75</ele><time>2026-03-29T07:49:12.989Z</time></trkpt><trkpt lat="45.5874695" lon="10.449239"><ele>219.0</ele><time>2026-03-29T07:49:13.99Z</time></trkpt><trkpt lat="45.5874313" lon="10.4491123"><ele>219.0</ele><time>2026-03-29T07:49:14.991Z</time></trkpt><trkpt lat="45.5874148" lon="10.4489946"><ele>219.0</ele><time>2026-03-29T07:49:15.99Z</time></trkpt><trkpt lat="45.5873844" lon="10.4489044"><ele>219.0</ele><time>2026-03-29T07:49:16.989Z</time></trkpt><trkpt lat="45.5873295" lon="10.4488475"><ele>219.0</ele><time>2026-03-29T07:49:17.989Z</time></trkpt><trkpt lat="45.5872637" lon="10.4488349"><ele>219.0</ele><time>2026-03-29T07:49:18.989Z</time></trkpt><trkpt lat="45.5871936" lon="10.4488615"><ele>219.0</ele><time>2026-03-29T07:49:19.99Z</time></trkpt><trkpt lat="45.5871121" lon="10.4489036"><ele>219.0</ele><time>2026-03-29T07:49:20.988Z</time></trkpt><trkpt lat="45.5870222" lon="10.4488991"><ele>218.39999999999998</ele><time>2026-03-29T07:49:21.988Z</time></trkpt><trkpt lat="45.5869374" lon="10.4488598"><ele>217.79999999999998</ele><time>2026-03-29T07:49:22.989Z</time></trkpt><trkpt lat="45.5868574" lon="10.4487767"><ele>217.20000000000002</ele><time>2026-03-29T07:49:23.989Z</time></trkpt><trkpt lat="45.5867956" lon="10.4486617"><ele>216.60000000000002</ele><time>2026-03-29T07:49:24.988Z</time></trkpt><trkpt lat="45.5867488" lon="10.4485131"><ele>216.0</ele><time>2026-03-29T07:49:25.989Z</time></trkpt><trkpt lat="45.5867126" lon="10.4483547"><ele>216.0</ele><time>2026-03-29T07:49:26.989Z</time></trkpt><trkpt lat="45.5866842" lon="10.4481915"><ele>216.0</ele><time>2026-03-29T07:49:27.988Z</time></trkpt><trkpt lat="45.5866485" lon="10.4480173"><ele>216.0</ele><time>2026-03-29T07:49:28.989Z</time></trkpt><trkpt lat="45.5866146" lon="10.4478358"><ele>216.0</ele><time>2026-03-29T07:49:29.989Z</time></trkpt><trkpt lat="45.5865783" lon="10.4476577"><ele>215.0</ele><time>2026-03-29T07:49:30.99Z</time></trkpt><trkpt lat="45.5865427" lon="10.4474816"><ele>214.0</ele><time>2026-03-29T07:49:31.988Z</time></trkpt><trkpt lat="45.5865087" lon="10.4473121"><ele>213.0</ele><time>2026-03-29T07:49:32.988Z</time></trkpt><trkpt lat="45.586479" lon="10.4471574"><ele>212.0</ele><time>2026-03-29T07:49:33.988Z</time></trkpt><trkpt lat="45.586451" lon="10.4470051"><ele>211.75</ele><time>2026-03-29T07:49:34.989Z</time></trkpt><trkpt lat="45.5864168" lon="10.4468521"><ele>211.5</ele><time>2026-03-29T07:49:35.988Z</time></trkpt><trkpt lat="45.5863712" lon="10.4467029"><ele>211.25</ele><time>2026-03-29T07:49:36.988Z</time></trkpt><trkpt lat="45.5863135" lon="10.4465549"><ele>211.0</ele><time>2026-03-29T07:49:37.988Z</time></trkpt><trkpt lat="45.586253" lon="10.446406"><ele>210.25</ele><time>2026-03-29T07:49:38.989Z</time></trkpt><trkpt lat="45.5861933" lon="10.4462591"><ele>209.5</ele><time>2026-03-29T07:49:39.989Z</time></trkpt><trkpt lat="45.5861351" lon="10.4461023"><ele>208.75</ele><time>2026-03-29T07:49:40.988Z</time></trkpt><trkpt lat="45.5860704" lon="10.4459439"><ele>208.0</ele><time>2026-03-29T07:49:41.989Z</time></trkpt><trkpt lat="45.5860065" lon="10.4457764"><ele>208.0</ele><time>2026-03-29T07:49:42.989Z</time></trkpt><trkpt lat="45.585949" lon="10.4456081"><ele>208.0</ele><time>2026-03-29T07:49:43.989Z</time></trkpt><trkpt lat="45.5858942" lon="10.4454311"><ele>208.0</ele><time>2026-03-29T07:49:44.988Z</time></trkpt><trkpt lat="45.5858343" lon="10.445255"><ele>208.0</ele><time>2026-03-29T07:49:45.989Z</time></trkpt><trkpt lat="45.5857781" lon="10.445073"><ele>208.0</ele><time>2026-03-29T07:49:46.989Z</time></trkpt><trkpt lat="45.585714" lon="10.4448934"><ele>208.0</ele><time>2026-03-29T07:49:47.989Z</time></trkpt><trkpt lat="45.5856532" lon="10.4447145"><ele>208.0</ele><time>2026-03-29T07:49:48.988Z</time></trkpt><trkpt lat="45.5855922" lon="10.4445335"><ele>208.0</ele><time>2026-03-29T07:49:49.988Z</time></trkpt><trkpt lat="45.5855351" lon="10.4443546"><ele>207.75</ele><time>2026-03-29T07:49:50.989Z</time></trkpt><trkpt lat="45.5854783" lon="10.4441749"><ele>207.5</ele><time>2026-03-29T07:49:51.988Z</time></trkpt><trkpt lat="45.5854254" lon="10.4439999"><ele>207.25</ele><time>2026-03-29T07:49:52.989Z</time></trkpt><trkpt lat="45.5853712" lon="10.4438222"><ele>207.0</ele><time>2026-03-29T07:49:53.988Z</time></trkpt><trkpt lat="45.5853209" lon="10.443647"><ele>206.75</ele><time>2026-03-29T07:49:54.989Z</time></trkpt><trkpt lat="45.5852842" lon="10.4434695"><ele>206.5</ele><time>2026-03-29T07:49:55.989Z</time></trkpt><trkpt lat="45.5852544" lon="10.4432858"><ele>206.25</ele><time>2026-03-29T07:49:56.989Z</time></trkpt><trkpt lat="45.5852211" lon="10.4431084"><ele>206.0</ele><time>2026-03-29T07:49:57.988Z</time></trkpt><trkpt lat="45.5851827" lon="10.4429326"><ele>206.0</ele><time>2026-03-29T07:49:58.989Z</time></trkpt><trkpt lat="45.5851414" lon="10.4427566"><ele>206.0</ele><time>2026-03-29T07:49:59.988Z</time></trkpt><trkpt lat="45.5850899" lon="10.4425867"><ele>206.0</ele><time>2026-03-29T07:50:00.989Z</time></trkpt><trkpt lat="45.5850347" lon="10.4424215"><ele>206.0</ele><time>2026-03-29T07:50:01.989Z</time></trkpt><trkpt lat="45.5849822" lon="10.4422778"><ele>206.00000000000003</ele><time>2026-03-29T07:50:02.988Z</time></trkpt><trkpt lat="45.5849337" lon="10.4421494"><ele>206.0</ele><time>2026-03-29T07:50:03.988Z</time></trkpt><trkpt lat="45.5848975" lon="10.4420454"><ele>206.0</ele><time>2026-03-29T07:50:04.989Z</time></trkpt><trkpt lat="45.5848677" lon="10.4419572"><ele>206.0</ele><time>2026-03-29T07:50:05.988Z</time></trkpt><trkpt lat="45.5848378" lon="10.4418689"><ele>206.00000000000003</ele><time>2026-03-29T07:50:06.989Z</time></trkpt><trkpt lat="45.5848048" lon="10.4417737"><ele>206.0</ele><time>2026-03-29T07:50:07.988Z</time></trkpt><trkpt lat="45.5847463" lon="10.4417036"><ele>205.8</ele><time>2026-03-29T07:50:08.989Z</time></trkpt><trkpt lat="45.5846697" lon="10.4416728"><ele>205.60000000000002</ele><time>2026-03-29T07:50:09.988Z</time></trkpt><trkpt lat="45.584572" lon="10.441678"><ele>205.4</ele><time>2026-03-29T07:50:10.989Z</time></trkpt><trkpt lat="45.5844661" lon="10.4416711"><ele>205.2</ele><time>2026-03-29T07:50:11.988Z</time></trkpt><trkpt lat="45.5843556" lon="10.4416216"><ele>205.0</ele><time>2026-03-29T07:50:12.989Z</time></trkpt><trkpt lat="45.5842384" lon="10.4415745"><ele>205.0</ele><time>2026-03-29T07:50:13.989Z</time></trkpt><trkpt lat="45.5841201" lon="10.4415268"><ele>205.0</ele><time>2026-03-29T07:50:14.988Z</time></trkpt><trkpt lat="45.5840045" lon="10.4414811"><ele>205.0</ele><time>2026-03-29T07:50:15.989Z</time></trkpt><trkpt lat="45.58389" lon="10.4414363"><ele>205.0</ele><time>2026-03-29T07:50:16.988Z</time></trkpt><trkpt lat="45.583781" lon="10.4413911"><ele>205.0</ele><time>2026-03-29T07:50:17.989Z</time></trkpt><trkpt lat="45.5836664" lon="10.441354"><ele>205.0</ele><time>2026-03-29T07:50:18.989Z</time></trkpt><trkpt lat="45.5835603" lon="10.4413131"><ele>205.0</ele><time>2026-03-29T07:50:19.988Z</time></trkpt><trkpt lat="45.5834704" lon="10.4412825"><ele>205.0</ele><time>2026-03-29T07:50:20.989Z</time></trkpt><trkpt lat="45.5833923" lon="10.4412525"><ele>205.0</ele><time>2026-03-29T07:50:21.989Z</time></trkpt><trkpt lat="45.5833221" lon="10.4412176"><ele>205.0</ele><time>2026-03-29T07:50:22.988Z</time></trkpt><trkpt lat="45.5832607" lon="10.4411846"><ele>205.0</ele><time>2026-03-29T07:50:23.989Z</time></trkpt><trkpt lat="45.5831497" lon="10.4411601"><ele>205.0</ele><time>2026-03-29T07:50:25.988Z</time></trkpt><trkpt lat="45.5830507" lon="10.4412702"><ele>205.0</ele><time>2026-03-29T07:50:27.989Z</time></trkpt><trkpt lat="45.5829978" lon="10.4413588"><ele>205.0</ele><time>2026-03-29T07:50:28.988Z</time></trkpt><trkpt lat="45.5829303" lon="10.4414553"><ele>205.0</ele><time>2026-03-29T07:50:29.989Z</time></trkpt><trkpt lat="45.5828521" lon="10.4415579"><ele>205.0</ele><time>2026-03-29T07:50:30.989Z</time></trkpt><trkpt lat="45.5827689" lon="10.4416691"><ele>205.0</ele><time>2026-03-29T07:50:31.988Z</time></trkpt><trkpt lat="45.5826811" lon="10.4417825"><ele>205.0</ele><time>2026-03-29T07:50:32.988Z</time></trkpt><trkpt lat="45.5825874" lon="10.4418989"><ele>205.0</ele><time>2026-03-29T07:50:33.989Z</time></trkpt><trkpt lat="45.5824913" lon="10.442018"><ele>205.0</ele><time>2026-03-29T07:50:34.989Z</time></trkpt><trkpt lat="45.5823974" lon="10.4421421"><ele>205.0</ele><time>2026-03-29T07:50:35.988Z</time></trkpt><trkpt lat="45.5823121" lon="10.4422786"><ele>205.0</ele><time>2026-03-29T07:50:36.989Z</time></trkpt><trkpt lat="45.582235" lon="10.4424225"><ele>204.75</ele><time>2026-03-29T07:50:37.989Z</time></trkpt><trkpt lat="45.5821631" lon="10.4425699"><ele>204.5</ele><time>2026-03-29T07:50:38.988Z</time></trkpt><trkpt lat="45.5820924" lon="10.4427213"><ele>204.25</ele><time>2026-03-29T07:50:39.989Z</time></trkpt><trkpt lat="45.5820184" lon="10.4428727"><ele>204.0</ele><time>2026-03-29T07:50:40.988Z</time></trkpt><trkpt lat="45.5819408" lon="10.4430211"><ele>203.5</ele><time>2026-03-29T07:50:41.988Z</time></trkpt><trkpt lat="45.5818545" lon="10.4431674"><ele>203.0</ele><time>2026-03-29T07:50:42.989Z</time></trkpt><trkpt lat="45.5817588" lon="10.4433039"><ele>202.5</ele><time>2026-03-29T07:50:43.989Z</time></trkpt><trkpt lat="45.5816512" lon="10.4434307"><ele>202.0</ele><time>2026-03-29T07:50:44.988Z</time></trkpt><trkpt lat="45.5815361" lon="10.4435464"><ele>202.0</ele><time>2026-03-29T07:50:45.988Z</time></trkpt><trkpt lat="45.5814176" lon="10.4436527"><ele>202.0</ele><time>2026-03-29T07:50:46.989Z</time></trkpt><trkpt lat="45.5812924" lon="10.4437514"><ele>202.0</ele><time>2026-03-29T07:50:47.988Z</time></trkpt><trkpt lat="45.58116" lon="10.4438412"><ele>202.0</ele><time>2026-03-29T07:50:48.989Z</time></trkpt><trkpt lat="45.5810229" lon="10.4439191"><ele>202.0</ele><time>2026-03-29T07:50:49.989Z</time></trkpt><trkpt lat="45.580882" lon="10.4439925"><ele>202.0</ele><time>2026-03-29T07:50:50.989Z</time></trkpt><trkpt lat="45.5807406" lon="10.4440514"><ele>202.0</ele><time>2026-03-29T07:50:51.989Z</time></trkpt><trkpt lat="45.5805969" lon="10.4441007"><ele>202.0</ele><time>2026-03-29T07:50:52.989Z</time></trkpt><trkpt lat="45.5804545" lon="10.444147"><ele>201.75</ele><time>2026-03-29T07:50:53.989Z</time></trkpt><trkpt lat="45.5803165" lon="10.4441967"><ele>201.5</ele><time>2026-03-29T07:50:54.988Z</time></trkpt><trkpt lat="45.5801779" lon="10.4442512"><ele>201.25</ele><time>2026-03-29T07:50:55.988Z</time></trkpt><trkpt lat="45.5800422" lon="10.4443009"><ele>201.0</ele><time>2026-03-29T07:50:56.988Z</time></trkpt><trkpt lat="45.579912" lon="10.4443441"><ele>201.0</ele><time>2026-03-29T07:50:57.989Z</time></trkpt><trkpt lat="45.5797801" lon="10.444393"><ele>201.0</ele><time>2026-03-29T07:50:58.989Z</time></trkpt><trkpt lat="45.5796496" lon="10.4444383"><ele>201.0</ele><time>2026-03-29T07:50:59.989Z</time></trkpt><trkpt lat="45.5795233" lon="10.4444823"><ele>201.0</ele><time>2026-03-29T07:51:00.989Z</time></trkpt><trkpt lat="45.5793964" lon="10.4445329"><ele>201.25</ele><time>2026-03-29T07:51:01.988Z</time></trkpt><trkpt lat="45.5792697" lon="10.4445873"><ele>201.5</ele><time>2026-03-29T07:51:02.989Z</time></trkpt><trkpt lat="45.579145" lon="10.4446514"><ele>201.75</ele><time>2026-03-29T07:51:03.989Z</time></trkpt><trkpt lat="45.5790218" lon="10.4447255"><ele>202.0</ele><time>2026-03-29T07:51:04.988Z</time></trkpt><trkpt lat="45.5788993" lon="10.4448032"><ele>202.25</ele><time>2026-03-29T07:51:05.989Z</time></trkpt><trkpt lat="45.5787806" lon="10.444885"><ele>202.5</ele><time>2026-03-29T07:51:06.988Z</time></trkpt><trkpt lat="45.5786636" lon="10.4449618"><ele>202.75</ele><time>2026-03-29T07:51:07.989Z</time></trkpt><trkpt lat="45.5785462" lon="10.4450296"><ele>203.0</ele><time>2026-03-29T07:51:08.989Z</time></trkpt><trkpt lat="45.5784249" lon="10.4450767"><ele>203.0</ele><time>2026-03-29T07:51:09.988Z</time></trkpt><trkpt lat="45.5783113" lon="10.445099"><ele>203.0</ele><time>2026-03-29T07:51:10.989Z</time></trkpt><trkpt lat="45.5782097" lon="10.4451081"><ele>203.0</ele><time>2026-03-29T07:51:11.989Z</time></trkpt><trkpt lat="45.5781338" lon="10.4451089"><ele>203.0</ele><time>2026-03-29T07:51:12.989Z</time></trkpt><trkpt lat="45.578033" lon="10.4450627"><ele>203.0</ele><time>2026-03-29T07:51:14.989Z</time></trkpt><trkpt lat="45.5779872" lon="10.4449144"><ele>203.0</ele><time>2026-03-29T07:51:16.988Z</time></trkpt><trkpt lat="45.5779608" lon="10.4448067"><ele>203.0</ele><time>2026-03-29T07:51:17.989Z</time></trkpt><trkpt lat="45.5779321" lon="10.444676"><ele>203.0</ele><time>2026-03-29T07:51:18.989Z</time></trkpt><trkpt lat="45.5778955" lon="10.4445344"><ele>203.0</ele><time>2026-03-29T07:51:19.989Z</time></trkpt><trkpt lat="45.5778483" lon="10.4443814"><ele>203.0</ele><time>2026-03-29T07:51:20.988Z</time></trkpt><trkpt lat="45.5777998" lon="10.4442188"><ele>202.75</ele><time>2026-03-29T07:51:21.988Z</time></trkpt><trkpt lat="45.5777454" lon="10.4440522"><ele>202.5</ele><time>2026-03-29T07:51:22.989Z</time></trkpt><trkpt lat="45.5776955" lon="10.4438809"><ele>202.25</ele><time>2026-03-29T07:51:23.99Z</time></trkpt><trkpt lat="45.5776477" lon="10.4437059"><ele>202.0</ele><time>2026-03-29T07:51:24.989Z</time></trkpt><trkpt lat="45.5775956" lon="10.443533"><ele>201.25</ele><time>2026-03-29T07:51:25.989Z</time></trkpt><trkpt lat="45.5775448" lon="10.4433556"><ele>200.5</ele><time>2026-03-29T07:51:26.989Z</time></trkpt><trkpt lat="45.5774968" lon="10.4431809"><ele>199.75</ele><time>2026-03-29T07:51:27.988Z</time></trkpt><trkpt lat="45.5774499" lon="10.4430163"><ele>199.0</ele><time>2026-03-29T07:51:28.989Z</time></trkpt><trkpt lat="45.5773967" lon="10.4428546"><ele>198.6</ele><time>2026-03-29T07:51:29.988Z</time></trkpt><trkpt lat="45.5773268" lon="10.4427157"><ele>198.2</ele><time>2026-03-29T07:51:30.989Z</time></trkpt><trkpt lat="45.5772547" lon="10.4425965"><ele>197.79999999999998</ele><time>2026-03-29T07:51:31.988Z</time></trkpt><trkpt lat="45.5771906" lon="10.4424959"><ele>197.39999999999998</ele><time>2026-03-29T07:51:32.989Z</time></trkpt><trkpt lat="45.5771525" lon="10.4423857"><ele>197.0</ele><time>2026-03-29T07:51:33.988Z</time></trkpt><trkpt lat="45.5771135" lon="10.4422892"><ele>197.00000000000003</ele><time>2026-03-29T07:51:34.988Z</time></trkpt><trkpt lat="45.5770653" lon="10.4422245"><ele>197.0</ele><time>2026-03-29T07:51:35.989Z</time></trkpt><trkpt lat="45.5769603" lon="10.4422112"><ele>197.0</ele><time>2026-03-29T07:51:37.989Z</time></trkpt><trkpt lat="45.5769004" lon="10.4422739"><ele>197.0</ele><time>2026-03-29T07:51:38.988Z</time></trkpt><trkpt lat="45.5768371" lon="10.4423549"><ele>197.00000000000003</ele><time>2026-03-29T07:51:39.989Z</time></trkpt><trkpt lat="45.5767656" lon="10.4424284"><ele>197.0</ele><time>2026-03-29T07:51:40.988Z</time></trkpt><trkpt lat="45.576684" lon="10.4425148"><ele>197.39999999999998</ele><time>2026-03-29T07:51:41.989Z</time></trkpt><trkpt lat="45.5765977" lon="10.4426109"><ele>197.79999999999998</ele><time>2026-03-29T07:51:42.989Z</time></trkpt><trkpt lat="45.576512" lon="10.4427091"><ele>198.2</ele><time>2026-03-29T07:51:43.989Z</time></trkpt><trkpt lat="45.5764231" lon="10.442799"><ele>198.6</ele><time>2026-03-29T07:51:44.989Z</time></trkpt><trkpt lat="45.5763326" lon="10.4428695"><ele>199.0</ele><time>2026-03-29T07:51:45.989Z</time></trkpt><trkpt lat="45.5762525" lon="10.442921"><ele>199.79999999999998</ele><time>2026-03-29T07:51:46.988Z</time></trkpt><trkpt lat="45.5761849" lon="10.4429919"><ele>200.6</ele><time>2026-03-29T07:51:47.988Z</time></trkpt><trkpt lat="45.5761358" lon="10.4431023"><ele>201.4</ele><time>2026-03-29T07:51:48.989Z</time></trkpt><trkpt lat="45.5761148" lon="10.4432444"><ele>202.2</ele><time>2026-03-29T07:51:49.989Z</time></trkpt><trkpt lat="45.5761017" lon="10.4434027"><ele>203.0</ele><time>2026-03-29T07:51:50.989Z</time></trkpt><trkpt lat="45.5760723" lon="10.4435678"><ele>203.0</ele><time>2026-03-29T07:51:51.989Z</time></trkpt><trkpt lat="45.5760149" lon="10.4437246"><ele>203.0</ele><time>2026-03-29T07:51:52.988Z</time></trkpt><trkpt lat="45.5759463" lon="10.4438813"><ele>203.0</ele><time>2026-03-29T07:51:53.989Z</time></trkpt><trkpt lat="45.5758799" lon="10.444049"><ele>203.0</ele><time>2026-03-29T07:51:54.989Z</time></trkpt><trkpt lat="45.5758115" lon="10.444222"><ele>202.75</ele><time>2026-03-29T07:51:55.989Z</time></trkpt><trkpt lat="45.5757577" lon="10.4444037"><ele>202.5</ele><time>2026-03-29T07:51:56.989Z</time></trkpt><trkpt lat="45.5757139" lon="10.4445833"><ele>202.25</ele><time>2026-03-29T07:51:57.988Z</time></trkpt><trkpt lat="45.5756548" lon="10.4447624"><ele>202.0</ele><time>2026-03-29T07:51:58.989Z</time></trkpt><trkpt lat="45.57558" lon="10.4449377"><ele>202.0</ele><time>2026-03-29T07:51:59.988Z</time></trkpt><trkpt lat="45.5754944" lon="10.4451048"><ele>202.0</ele><time>2026-03-29T07:52:00.989Z</time></trkpt><trkpt lat="45.5754034" lon="10.4452744"><ele>202.0</ele><time>2026-03-29T07:52:01.988Z</time></trkpt><trkpt lat="45.5753162" lon="10.4454543"><ele>202.0</ele><time>2026-03-29T07:52:02.989Z</time></trkpt><trkpt lat="45.5752335" lon="10.4456419"><ele>203.33333333333331</ele><time>2026-03-29T07:52:03.989Z</time></trkpt><trkpt lat="45.5751423" lon="10.4458239"><ele>204.66666666666669</ele><time>2026-03-29T07:52:04.988Z</time></trkpt><trkpt lat="45.5750415" lon="10.445996"><ele>206.0</ele><time>2026-03-29T07:52:05.989Z</time></trkpt><trkpt lat="45.5749351" lon="10.4461599"><ele>207.33333333333334</ele><time>2026-03-29T07:52:06.989Z</time></trkpt><trkpt lat="45.5748279" lon="10.446316"><ele>208.66666666666669</ele><time>2026-03-29T07:52:07.989Z</time></trkpt><trkpt lat="45.574718" lon="10.4464708"><ele>210.0</ele><time>2026-03-29T07:52:08.988Z</time></trkpt><trkpt lat="45.5746062" lon="10.4466222"><ele>209.66666666666669</ele><time>2026-03-29T07:52:09.989Z</time></trkpt><trkpt lat="45.5744946" lon="10.4467745"><ele>209.33333333333334</ele><time>2026-03-29T07:52:10.988Z</time></trkpt><trkpt lat="45.5743824" lon="10.4469313"><ele>209.0</ele><time>2026-03-29T07:52:11.989Z</time></trkpt><trkpt lat="45.5742737" lon="10.4470888"><ele>210.33333333333334</ele><time>2026-03-29T07:52:12.989Z</time></trkpt><trkpt lat="45.574166" lon="10.4472481"><ele>211.66666666666669</ele><time>2026-03-29T07:52:13.988Z</time></trkpt><trkpt lat="45.5740602" lon="10.4474017"><ele>213.0</ele><time>2026-03-29T07:52:14.989Z</time></trkpt><trkpt lat="45.5739529" lon="10.4475502"><ele>213.0</ele><time>2026-03-29T07:52:15.988Z</time></trkpt><trkpt lat="45.5738481" lon="10.4477044"><ele>213.0</ele><time>2026-03-29T07:52:16.989Z</time></trkpt><trkpt lat="45.5737523" lon="10.4478698"><ele>213.0</ele><time>2026-03-29T07:52:17.989Z</time></trkpt><trkpt lat="45.5736654" lon="10.4480382"><ele>213.0</ele><time>2026-03-29T07:52:18.988Z</time></trkpt><trkpt lat="45.5735892" lon="10.4482132"><ele>215.33333333333331</ele><time>2026-03-29T07:52:19.989Z</time></trkpt><trkpt lat="45.5735223" lon="10.4484027"><ele>217.66666666666666</ele><time>2026-03-29T07:52:20.988Z</time></trkpt><trkpt lat="45.5734614" lon="10.4485974"><ele>220.0</ele><time>2026-03-29T07:52:21.989Z</time></trkpt><trkpt lat="45.5734031" lon="10.4487975"><ele>220.66666666666666</ele><time>2026-03-29T07:52:22.988Z</time></trkpt><trkpt lat="45.573345" lon="10.4489978"><ele>221.33333333333331</ele><time>2026-03-29T07:52:23.989Z</time></trkpt><trkpt lat="45.5732871" lon="10.4491967"><ele>222.0</ele><time>2026-03-29T07:52:24.988Z</time></trkpt><trkpt lat="45.5732326" lon="10.4493956"><ele>222.0</ele><time>2026-03-29T07:52:25.988Z</time></trkpt><trkpt lat="45.5731734" lon="10.4495902"><ele>222.0</ele><time>2026-03-29T07:52:26.988Z</time></trkpt><trkpt lat="45.5730975" lon="10.4497783"><ele>222.0</ele><time>2026-03-29T07:52:27.989Z</time></trkpt><trkpt lat="45.573007" lon="10.4499538"><ele>222.0</ele><time>2026-03-29T07:52:28.988Z</time></trkpt><trkpt lat="45.5729033" lon="10.4501195"><ele>222.0</ele><time>2026-03-29T07:52:29.989Z</time></trkpt><trkpt lat="45.5727858" lon="10.4502745"><ele>222.0</ele><time>2026-03-29T07:52:30.989Z</time></trkpt><trkpt lat="45.5726623" lon="10.4504271"><ele>222.66666666666669</ele><time>2026-03-29T07:52:31.988Z</time></trkpt><trkpt lat="45.572539" lon="10.4505876"><ele>223.33333333333334</ele><time>2026-03-29T07:52:32.989Z</time></trkpt><trkpt lat="45.5724157" lon="10.4507513"><ele>224.0</ele><time>2026-03-29T07:52:33.989Z</time></trkpt><trkpt lat="45.5722903" lon="10.4509119"><ele>224.0</ele><time>2026-03-29T07:52:34.988Z</time></trkpt><trkpt lat="45.5721634" lon="10.451073"><ele>224.0</ele><time>2026-03-29T07:52:35.989Z</time></trkpt><trkpt lat="45.5720382" lon="10.4512399"><ele>224.0</ele><time>2026-03-29T07:52:36.989Z</time></trkpt><trkpt lat="45.571914" lon="10.4514133"><ele>224.33333333333334</ele><time>2026-03-29T07:52:37.988Z</time></trkpt><trkpt lat="45.5717964" lon="10.4515929"><ele>224.66666666666669</ele><time>2026-03-29T07:52:38.989Z</time></trkpt><trkpt lat="45.5716804" lon="10.4517789"><ele>225.0</ele><time>2026-03-29T07:52:39.988Z</time></trkpt><trkpt lat="45.5715666" lon="10.4519697"><ele>226.0</ele><time>2026-03-29T07:52:40.989Z</time></trkpt><trkpt lat="45.5714524" lon="10.4521634"><ele>227.0</ele><time>2026-03-29T07:52:41.988Z</time></trkpt><trkpt lat="45.5713368" lon="10.4523559"><ele>228.0</ele><time>2026-03-29T07:52:42.988Z</time></trkpt><trkpt lat="45.5712194" lon="10.452546"><ele>227.33333333333331</ele><time>2026-03-29T07:52:43.989Z</time></trkpt><trkpt lat="45.5710994" lon="10.4527336"><ele>226.66666666666666</ele><time>2026-03-29T07:52:44.989Z</time></trkpt><trkpt lat="45.5709747" lon="10.4529178"><ele>226.0</ele><time>2026-03-29T07:52:45.989Z</time></trkpt><trkpt lat="45.5708456" lon="10.4530953"><ele>226.0</ele><time>2026-03-29T07:52:46.989Z</time></trkpt><trkpt lat="45.5707081" lon="10.4532596"><ele>226.0</ele><time>2026-03-29T07:52:47.989Z</time></trkpt><trkpt lat="45.5705656" lon="10.4534157"><ele>226.0</ele><time>2026-03-29T07:52:48.989Z</time></trkpt><trkpt lat="45.5704206" lon="10.4535656"><ele>226.0</ele><time>2026-03-29T07:52:49.988Z</time></trkpt><trkpt lat="45.5702744" lon="10.4537157"><ele>226.0</ele><time>2026-03-29T07:52:50.989Z</time></trkpt><trkpt lat="45.5701321" lon="10.4538649"><ele>226.0</ele><time>2026-03-29T07:52:51.99Z</time></trkpt><trkpt lat="45.5699916" lon="10.4540178"><ele>227.33333333333331</ele><time>2026-03-29T07:52:52.988Z</time></trkpt><trkpt lat="45.5698508" lon="10.4541712"><ele>228.66666666666669</ele><time>2026-03-29T07:52:53.989Z</time></trkpt><trkpt lat="45.5697083" lon="10.4543226"><ele>230.0</ele><time>2026-03-29T07:52:54.99Z</time></trkpt><trkpt lat="45.569564" lon="10.4544713"><ele>230.33333333333334</ele><time>2026-03-29T07:52:55.988Z</time></trkpt><trkpt lat="45.5694186" lon="10.454617"><ele>230.66666666666669</ele><time>2026-03-29T07:52:56.989Z</time></trkpt><trkpt lat="45.5692719" lon="10.4547619"><ele>231.0</ele><time>2026-03-29T07:52:57.988Z</time></trkpt><trkpt lat="45.5691241" lon="10.4549055"><ele>232.0</ele><time>2026-03-29T07:52:58.989Z</time></trkpt><trkpt lat="45.5689745" lon="10.4550457"><ele>233.0</ele><time>2026-03-29T07:52:59.989Z</time></trkpt><trkpt lat="45.5688236" lon="10.4551796"><ele>234.0</ele><time>2026-03-29T07:53:00.988Z</time></trkpt><trkpt lat="45.5686721" lon="10.4553087"><ele>234.0</ele><time>2026-03-29T07:53:01.989Z</time></trkpt><trkpt lat="45.568523" lon="10.4554368"><ele>234.0</ele><time>2026-03-29T07:53:02.989Z</time></trkpt><trkpt lat="45.5683776" lon="10.4555691"><ele>234.0</ele><time>2026-03-29T07:53:03.988Z</time></trkpt><trkpt lat="45.5682363" lon="10.4557089"><ele>235.0</ele><time>2026-03-29T07:53:04.988Z</time></trkpt><trkpt lat="45.5681051" lon="10.4558545"><ele>236.0</ele><time>2026-03-29T07:53:05.989Z</time></trkpt><trkpt lat="45.5679827" lon="10.4560106"><ele>237.0</ele><time>2026-03-29T07:53:06.989Z</time></trkpt><trkpt lat="45.5678707" lon="10.4561703"><ele>237.25</ele><time>2026-03-29T07:53:07.988Z</time></trkpt><trkpt lat="45.5677671" lon="10.4563335"><ele>237.5</ele><time>2026-03-29T07:53:08.989Z</time></trkpt><trkpt lat="45.5676698" lon="10.4564838"><ele>237.75</ele><time>2026-03-29T07:53:09.989Z</time></trkpt><trkpt lat="45.5675772" lon="10.456629"><ele>238.0</ele><time>2026-03-29T07:53:10.988Z</time></trkpt><trkpt lat="45.5674904" lon="10.4567639"><ele>238.0</ele><time>2026-03-29T07:53:11.989Z</time></trkpt><trkpt lat="45.567406" lon="10.456903"><ele>238.0</ele><time>2026-03-29T07:53:12.99Z</time></trkpt><trkpt lat="45.5673228" lon="10.4570362"><ele>238.0</ele><time>2026-03-29T07:53:13.989Z</time></trkpt><trkpt lat="45.5672346" lon="10.4571679"><ele>238.0</ele><time>2026-03-29T07:53:14.988Z</time></trkpt><trkpt lat="45.5671446" lon="10.4573002"><ele>238.25</ele><time>2026-03-29T07:53:15.988Z</time></trkpt><trkpt lat="45.5670547" lon="10.4574355"><ele>238.5</ele><time>2026-03-29T07:53:16.989Z</time></trkpt><trkpt lat="45.5669643" lon="10.4575744"><ele>238.75</ele><time>2026-03-29T07:53:17.989Z</time></trkpt><trkpt lat="45.5668717" lon="10.4577086"><ele>239.0</ele><time>2026-03-29T07:53:18.989Z</time></trkpt><trkpt lat="45.5667794" lon="10.4578496"><ele>238.25</ele><time>2026-03-29T07:53:19.989Z</time></trkpt><trkpt lat="45.5666847" lon="10.4579881"><ele>237.5</ele><time>2026-03-29T07:53:20.99Z</time></trkpt><trkpt lat="45.5665924" lon="10.458122"><ele>236.75</ele><time>2026-03-29T07:53:21.989Z</time></trkpt><trkpt lat="45.566505" lon="10.4582583"><ele>236.0</ele><time>2026-03-29T07:53:22.989Z</time></trkpt><trkpt lat="45.5664201" lon="10.4583841"><ele>236.0</ele><time>2026-03-29T07:53:23.988Z</time></trkpt><trkpt lat="45.5663399" lon="10.4584946"><ele>236.0</ele><time>2026-03-29T07:53:24.989Z</time></trkpt><trkpt lat="45.5662462" lon="10.4585775"><ele>236.0</ele><time>2026-03-29T07:53:25.988Z</time></trkpt><trkpt lat="45.5661369" lon="10.4586274"><ele>236.0</ele><time>2026-03-29T07:53:26.989Z</time></trkpt><trkpt lat="45.5660191" lon="10.4586336"><ele>236.60000000000002</ele><time>2026-03-29T07:53:27.989Z</time></trkpt><trkpt lat="45.5659057" lon="10.4586134"><ele>237.20000000000002</ele><time>2026-03-29T07:53:28.989Z</time></trkpt><trkpt lat="45.5658098" lon="10.4585812"><ele>237.79999999999998</ele><time>2026-03-29T07:53:29.989Z</time></trkpt><trkpt lat="45.5657284" lon="10.4585477"><ele>238.39999999999998</ele><time>2026-03-29T07:53:30.988Z</time></trkpt><trkpt lat="45.5656532" lon="10.4585088"><ele>239.0</ele><time>2026-03-29T07:53:31.989Z</time></trkpt><trkpt lat="45.5655792" lon="10.4584796"><ele>239.0</ele><time>2026-03-29T07:53:32.988Z</time></trkpt><trkpt lat="45.5654944" lon="10.4584531"><ele>238.99999999999997</ele><time>2026-03-29T07:53:33.988Z</time></trkpt><trkpt lat="45.5653984" lon="10.45843"><ele>238.99999999999997</ele><time>2026-03-29T07:53:34.989Z</time></trkpt><trkpt lat="45.5653024" lon="10.4584226"><ele>239.0</ele><time>2026-03-29T07:53:35.989Z</time></trkpt><trkpt lat="45.5652034" lon="10.4584128"><ele>239.0</ele><time>2026-03-29T07:53:36.988Z</time></trkpt><trkpt lat="45.5651139" lon="10.4583834"><ele>238.79999999999998</ele><time>2026-03-29T07:53:37.989Z</time></trkpt><trkpt lat="45.5650277" lon="10.4583316"><ele>238.59999999999997</ele><time>2026-03-29T07:53:38.988Z</time></trkpt><trkpt lat="45.5649466" lon="10.4582829"><ele>238.4</ele><time>2026-03-29T07:53:39.989Z</time></trkpt><trkpt lat="45.5648622" lon="10.4582307"><ele>238.2</ele><time>2026-03-29T07:53:40.988Z</time></trkpt><trkpt lat="45.5647775" lon="10.4581712"><ele>238.0</ele><time>2026-03-29T07:53:41.988Z</time></trkpt><trkpt lat="45.5646877" lon="10.458105"><ele>238.0</ele><time>2026-03-29T07:53:42.989Z</time></trkpt><trkpt lat="45.5645909" lon="10.458039"><ele>238.0</ele><time>2026-03-29T07:53:43.988Z</time></trkpt><trkpt lat="45.5644899" lon="10.4579823"><ele>238.0</ele><time>2026-03-29T07:53:44.988Z</time></trkpt><trkpt lat="45.564389" lon="10.4579299"><ele>238.0</ele><time>2026-03-29T07:53:45.989Z</time></trkpt><trkpt lat="45.5642854" lon="10.4578847"><ele>238.0</ele><time>2026-03-29T07:53:46.988Z</time></trkpt><trkpt lat="45.5641783" lon="10.4578269"><ele>237.60000000000002</ele><time>2026-03-29T07:53:47.989Z</time></trkpt><trkpt lat="45.5640762" lon="10.4577593"><ele>237.20000000000002</ele><time>2026-03-29T07:53:48.988Z</time></trkpt><trkpt lat="45.5639713" lon="10.457705"><ele>236.8</ele><time>2026-03-29T07:53:49.989Z</time></trkpt><trkpt lat="45.5638674" lon="10.4576506"><ele>236.4</ele><time>2026-03-29T07:53:50.989Z</time></trkpt><trkpt lat="45.5637686" lon="10.4576048"><ele>236.0</ele><time>2026-03-29T07:53:51.988Z</time></trkpt><trkpt lat="45.5636837" lon="10.4575615"><ele>236.0</ele><time>2026-03-29T07:53:52.989Z</time></trkpt><trkpt lat="45.5636065" lon="10.4575246"><ele>236.0</ele><time>2026-03-29T07:53:53.989Z</time></trkpt><trkpt lat="45.5635378" lon="10.4574957"><ele>236.0</ele><time>2026-03-29T07:53:54.989Z</time></trkpt><trkpt lat="45.5634687" lon="10.4574797"><ele>236.0</ele><time>2026-03-29T07:53:55.988Z</time></trkpt><trkpt lat="45.5634047" lon="10.4574926"><ele>236.0</ele><time>2026-03-29T07:53:56.988Z</time></trkpt><trkpt lat="45.563348" lon="10.4575367"><ele>236.0</ele><time>2026-03-29T07:53:57.988Z</time></trkpt><trkpt lat="45.5633029" lon="10.4576065"><ele>236.0</ele><time>2026-03-29T07:53:58.989Z</time></trkpt><trkpt lat="45.5632802" lon="10.4577297"><ele>236.0</ele><time>2026-03-29T07:53:59.989Z</time></trkpt><trkpt lat="45.5632605" lon="10.4578582"><ele>236.00000000000003</ele><time>2026-03-29T07:54:00.989Z</time></trkpt><trkpt lat="45.5632514" lon="10.457999"><ele>236.00000000000003</ele><time>2026-03-29T07:54:01.989Z</time></trkpt><trkpt lat="45.5632367" lon="10.4581278"><ele>236.0</ele><time>2026-03-29T07:54:02.989Z</time></trkpt><trkpt lat="45.5632183" lon="10.4582464"><ele>236.0</ele><time>2026-03-29T07:54:03.989Z</time></trkpt><trkpt lat="45.5631957" lon="10.4583723"><ele>236.60000000000002</ele><time>2026-03-29T07:54:04.989Z</time></trkpt><trkpt lat="45.5631667" lon="10.4585097"><ele>237.20000000000002</ele><time>2026-03-29T07:54:05.989Z</time></trkpt><trkpt lat="45.5631309" lon="10.4586543"><ele>237.79999999999998</ele><time>2026-03-29T07:54:06.988Z</time></trkpt><trkpt lat="45.5630999" lon="10.4588039"><ele>238.39999999999998</ele><time>2026-03-29T07:54:07.989Z</time></trkpt><trkpt lat="45.56307" lon="10.458958"><ele>239.0</ele><time>2026-03-29T07:54:08.989Z</time></trkpt><trkpt lat="45.5630421" lon="10.4591088"><ele>239.39999999999998</ele><time>2026-03-29T07:54:09.989Z</time></trkpt><trkpt lat="45.5630102" lon="10.4592578"><ele>239.79999999999998</ele><time>2026-03-29T07:54:10.989Z</time></trkpt><trkpt lat="45.5629717" lon="10.4594092"><ele>240.20000000000002</ele><time>2026-03-29T07:54:11.988Z</time></trkpt><trkpt lat="45.5629313" lon="10.4595551"><ele>240.60000000000002</ele><time>2026-03-29T07:54:12.989Z</time></trkpt><trkpt lat="45.5628896" lon="10.4597004"><ele>241.0</ele><time>2026-03-29T07:54:13.989Z</time></trkpt><trkpt lat="45.5628544" lon="10.4598232"><ele>241.16666666666666</ele><time>2026-03-29T07:54:14.988Z</time></trkpt><trkpt lat="45.5628239" lon="10.459914"><ele>241.33333333333331</ele><time>2026-03-29T07:54:15.99Z</time></trkpt><trkpt lat="45.5627554" lon="10.4600049"><ele>241.5</ele><time>2026-03-29T07:54:17.988Z</time></trkpt><trkpt lat="45.5626883" lon="10.4600089"><ele>241.66666666666669</ele><time>2026-03-29T07:54:18.989Z</time></trkpt><trkpt lat="45.5626178" lon="10.4599683"><ele>241.83333333333334</ele><time>2026-03-29T07:54:19.989Z</time></trkpt><trkpt lat="45.5625394" lon="10.4599081"><ele>242.0</ele><time>2026-03-29T07:54:20.989Z</time></trkpt><trkpt lat="45.5624437" lon="10.4598679"><ele>242.0</ele><time>2026-03-29T07:54:21.988Z</time></trkpt><trkpt lat="45.562336" lon="10.4598339"><ele>242.0</ele><time>2026-03-29T07:54:22.99Z</time></trkpt><trkpt lat="45.5622262" lon="10.4597996"><ele>242.0</ele><time>2026-03-29T07:54:23.989Z</time></trkpt><trkpt lat="45.5621196" lon="10.4597563"><ele>242.0</ele><time>2026-03-29T07:54:24.989Z</time></trkpt><trkpt lat="45.5620041" lon="10.4597011"><ele>241.5</ele><time>2026-03-29T07:54:25.988Z</time></trkpt><trkpt lat="45.5618856" lon="10.4596389"><ele>241.0</ele><time>2026-03-29T07:54:26.988Z</time></trkpt><trkpt lat="45.561762" lon="10.4595774"><ele>240.5</ele><time>2026-03-29T07:54:27.989Z</time></trkpt><trkpt lat="45.5616369" lon="10.4595215"><ele>240.0</ele><time>2026-03-29T07:54:28.988Z</time></trkpt><trkpt lat="45.5615056" lon="10.4594575"><ele>239.5</ele><time>2026-03-29T07:54:29.989Z</time></trkpt><trkpt lat="45.5613675" lon="10.4593982"><ele>239.0</ele><time>2026-03-29T07:54:30.988Z</time></trkpt><trkpt lat="45.5612237" lon="10.4593556"><ele>238.5</ele><time>2026-03-29T07:54:31.989Z</time></trkpt><trkpt lat="45.5610734" lon="10.4593315"><ele>238.0</ele><time>2026-03-29T07:54:32.989Z</time></trkpt><trkpt lat="45.5609242" lon="10.4593167"><ele>236.66666666666666</ele><time>2026-03-29T07:54:33.989Z</time></trkpt><trkpt lat="45.5607699" lon="10.4593073"><ele>235.33333333333331</ele><time>2026-03-29T07:54:34.988Z</time></trkpt><trkpt lat="45.5606215" lon="10.4592956"><ele>234.0</ele><time>2026-03-29T07:54:35.989Z</time></trkpt><trkpt lat="45.56047" lon="10.4592851"><ele>233.5</ele><time>2026-03-29T07:54:36.988Z</time></trkpt><trkpt lat="45.5603217" lon="10.4592694"><ele>233.0</ele><time>2026-03-29T07:54:37.989Z</time></trkpt><trkpt lat="45.560181" lon="10.4592476"><ele>232.5</ele><time>2026-03-29T07:54:38.988Z</time></trkpt><trkpt lat="45.5600548" lon="10.4592084"><ele>232.0</ele><time>2026-03-29T07:54:39.989Z</time></trkpt><trkpt lat="45.5599593" lon="10.4591155"><ele>232.0</ele><time>2026-03-29T07:54:40.988Z</time></trkpt><trkpt lat="45.5598893" lon="10.4589875"><ele>232.0</ele><time>2026-03-29T07:54:41.988Z</time></trkpt><trkpt lat="45.5598536" lon="10.4588259"><ele>232.0</ele><time>2026-03-29T07:54:42.989Z</time></trkpt><trkpt lat="45.5598456" lon="10.4586436"><ele>232.0</ele><time>2026-03-29T07:54:43.988Z</time></trkpt><trkpt lat="45.559855" lon="10.4584609"><ele>231.5</ele><time>2026-03-29T07:54:44.989Z</time></trkpt><trkpt lat="45.5598671" lon="10.4582732"><ele>231.0</ele><time>2026-03-29T07:54:45.988Z</time></trkpt><trkpt lat="45.5598747" lon="10.4580834"><ele>230.5</ele><time>2026-03-29T07:54:46.989Z</time></trkpt><trkpt lat="45.5598829" lon="10.4578949"><ele>230.0</ele><time>2026-03-29T07:54:47.989Z</time></trkpt><trkpt lat="45.5598937" lon="10.4577025"><ele>230.0</ele><time>2026-03-29T07:54:48.989Z</time></trkpt><trkpt lat="45.5599072" lon="10.4575164"><ele>230.0</ele><time>2026-03-29T07:54:49.989Z</time></trkpt><trkpt lat="45.5599188" lon="10.4573276"><ele>230.0</ele><time>2026-03-29T07:54:50.989Z</time></trkpt><trkpt lat="45.5599326" lon="10.45714"><ele>230.0</ele><time>2026-03-29T07:54:51.989Z</time></trkpt><trkpt lat="45.5599481" lon="10.4569524"><ele>230.0</ele><time>2026-03-29T07:54:52.989Z</time></trkpt><trkpt lat="45.5599602" lon="10.4567719"><ele>230.0</ele><time>2026-03-29T07:54:53.989Z</time></trkpt><trkpt lat="45.559974" lon="10.4566092"><ele>230.0</ele><time>2026-03-29T07:54:54.988Z</time></trkpt><trkpt lat="45.5599883" lon="10.4564434"><ele>230.0</ele><time>2026-03-29T07:54:55.989Z</time></trkpt><trkpt lat="45.5600027" lon="10.4562745"><ele>230.0</ele><time>2026-03-29T07:54:56.988Z</time></trkpt><trkpt lat="45.5600068" lon="10.4561033"><ele>230.0</ele><time>2026-03-29T07:54:57.989Z</time></trkpt><trkpt lat="45.5600146" lon="10.4559281"><ele>230.0</ele><time>2026-03-29T07:54:58.989Z</time></trkpt><trkpt lat="45.5600256" lon="10.45575"><ele>230.0</ele><time>2026-03-29T07:54:59.989Z</time></trkpt><trkpt lat="45.5600386" lon="10.4555681"><ele>230.0</ele><time>2026-03-29T07:55:00.988Z</time></trkpt><trkpt lat="45.5600546" lon="10.4553842"><ele>230.0</ele><time>2026-03-29T07:55:01.989Z</time></trkpt><trkpt lat="45.5600663" lon="10.4551969"><ele>230.0</ele><time>2026-03-29T07:55:02.988Z</time></trkpt><trkpt lat="45.5600664" lon="10.4550104"><ele>230.0</ele><time>2026-03-29T07:55:03.988Z</time></trkpt><trkpt lat="45.5600645" lon="10.4548222"><ele>230.0</ele><time>2026-03-29T07:55:04.988Z</time></trkpt><trkpt lat="45.5600612" lon="10.4546511"><ele>230.0</ele><time>2026-03-29T07:55:05.989Z</time></trkpt><trkpt lat="45.5600582" lon="10.4544905"><ele>230.0</ele><time>2026-03-29T07:55:06.988Z</time></trkpt><trkpt lat="45.5600559" lon="10.4543537"><ele>230.0</ele><time>2026-03-29T07:55:07.989Z</time></trkpt><trkpt lat="45.560056" lon="10.454234"><ele>230.0</ele><time>2026-03-29T07:55:08.988Z</time></trkpt><trkpt lat="45.5600634" lon="10.4541349"><ele>229.6</ele><time>2026-03-29T07:55:09.99Z</time></trkpt><trkpt lat="45.5600884" lon="10.453981"><ele>229.2</ele><time>2026-03-29T07:55:11.989Z</time></trkpt><trkpt lat="45.5600497" lon="10.4539083"><ele>228.8</ele><time>2026-03-29T07:55:14.989Z</time></trkpt><trkpt lat="45.560023" lon="10.4540111"><ele>228.4</ele><time>2026-03-29T07:55:16.989Z</time></trkpt><trkpt lat="45.5600485" lon="10.4542131"><ele>228.0</ele><time>2026-03-29T07:55:18.988Z</time></trkpt><trkpt lat="45.5600516" lon="10.4543441"><ele>228.0</ele><time>2026-03-29T07:55:19.989Z</time></trkpt><trkpt lat="45.5600532" lon="10.4544775"><ele>228.0</ele><time>2026-03-29T07:55:20.989Z</time></trkpt><trkpt lat="45.5600571" lon="10.454608"><ele>228.0</ele><time>2026-03-29T07:55:21.988Z</time></trkpt><trkpt lat="45.5600589" lon="10.454735"><ele>228.0</ele><time>2026-03-29T07:55:22.989Z</time></trkpt><trkpt lat="45.5600571" lon="10.4548301"><ele>228.0</ele><time>2026-03-29T07:55:23.99Z</time></trkpt><trkpt lat="45.5599889" lon="10.454962"><ele>227.83333333333334</ele><time>2026-03-29T07:55:25.988Z</time></trkpt><trkpt lat="45.5599237" lon="10.4549926"><ele>227.66666666666669</ele><time>2026-03-29T07:55:26.989Z</time></trkpt><trkpt lat="45.5598521" lon="10.454995"><ele>227.5</ele><time>2026-03-29T07:55:27.988Z</time></trkpt><trkpt lat="45.5597793" lon="10.454995"><ele>227.33333333333334</ele><time>2026-03-29T07:55:28.989Z</time></trkpt><trkpt lat="45.559703" lon="10.4550067"><ele>227.16666666666669</ele><time>2026-03-29T07:55:29.989Z</time></trkpt><trkpt lat="45.5596176" lon="10.455022"><ele>227.0</ele><time>2026-03-29T07:55:30.989Z</time></trkpt><trkpt lat="45.5595253" lon="10.4550345"><ele>227.0</ele><time>2026-03-29T07:55:31.988Z</time></trkpt><trkpt lat="45.5594246" lon="10.4550473"><ele>227.0</ele><time>2026-03-29T07:55:32.989Z</time></trkpt><trkpt lat="45.5593168" lon="10.4550563"><ele>227.0</ele><time>2026-03-29T07:55:33.988Z</time></trkpt><trkpt lat="45.5591976" lon="10.4550601"><ele>227.0</ele><time>2026-03-29T07:55:34.989Z</time></trkpt><trkpt lat="45.5590687" lon="10.4550604"><ele>227.0</ele><time>2026-03-29T07:55:35.988Z</time></trkpt><trkpt lat="45.5589345" lon="10.4550616"><ele>227.0</ele><time>2026-03-29T07:55:36.989Z</time></trkpt><trkpt lat="45.5588002" lon="10.4550674"><ele>227.0</ele><time>2026-03-29T07:55:37.988Z</time></trkpt><trkpt lat="45.5586601" lon="10.4550856"><ele>227.0</ele><time>2026-03-29T07:55:38.989Z</time></trkpt><trkpt lat="45.5585235" lon="10.4551164"><ele>226.0</ele><time>2026-03-29T07:55:39.989Z</time></trkpt><trkpt lat="45.5583901" lon="10.4551547"><ele>225.0</ele><time>2026-03-29T07:55:40.988Z</time></trkpt><trkpt lat="45.5582602" lon="10.4551891"><ele>224.0</ele><time>2026-03-29T07:55:41.989Z</time></trkpt><trkpt lat="45.5581339" lon="10.4552227"><ele>223.0</ele><time>2026-03-29T07:55:42.988Z</time></trkpt><trkpt lat="45.5580201" lon="10.4552574"><ele>223.0</ele><time>2026-03-29T07:55:43.989Z</time></trkpt><trkpt lat="45.5579212" lon="10.4552993"><ele>223.0</ele><time>2026-03-29T07:55:44.988Z</time></trkpt><trkpt lat="45.5578399" lon="10.4553563"><ele>223.0</ele><time>2026-03-29T07:55:45.989Z</time></trkpt><trkpt lat="45.557772" lon="10.4554488"><ele>223.0</ele><time>2026-03-29T07:55:46.988Z</time></trkpt><trkpt lat="45.5577287" lon="10.4555745"><ele>223.0</ele><time>2026-03-29T07:55:47.989Z</time></trkpt><trkpt lat="45.557709" lon="10.4557164"><ele>224.0</ele><time>2026-03-29T07:55:48.988Z</time></trkpt><trkpt lat="45.5577051" lon="10.4558627"><ele>225.0</ele><time>2026-03-29T07:55:49.989Z</time></trkpt><trkpt lat="45.557698" lon="10.4560091"><ele>226.0</ele><time>2026-03-29T07:55:50.989Z</time></trkpt><trkpt lat="45.5576766" lon="10.4561546"><ele>227.0</ele><time>2026-03-29T07:55:51.988Z</time></trkpt><trkpt lat="45.5576478" lon="10.4562892"><ele>228.0</ele><time>2026-03-29T07:55:52.989Z</time></trkpt><trkpt lat="45.5575993" lon="10.4564184"><ele>228.60000000000002</ele><time>2026-03-29T07:55:53.989Z</time></trkpt><trkpt lat="45.5575363" lon="10.4565377"><ele>229.20000000000002</ele><time>2026-03-29T07:55:54.99Z</time></trkpt><trkpt lat="45.5574636" lon="10.4566336"><ele>229.8</ele><time>2026-03-29T07:55:55.988Z</time></trkpt><trkpt lat="45.5573776" lon="10.4567173"><ele>230.4</ele><time>2026-03-29T07:55:56.99Z</time></trkpt><trkpt lat="45.5572852" lon="10.456799"><ele>231.0</ele><time>2026-03-29T07:55:57.988Z</time></trkpt><trkpt lat="45.5571951" lon="10.4568851"><ele>231.0</ele><time>2026-03-29T07:55:58.989Z</time></trkpt><trkpt lat="45.5571049" lon="10.4569776"><ele>231.00000000000003</ele><time>2026-03-29T07:55:59.988Z</time></trkpt><trkpt lat="45.5570188" lon="10.4570773"><ele>231.00000000000003</ele><time>2026-03-29T07:56:00.989Z</time></trkpt><trkpt lat="45.556932" lon="10.4571699"><ele>231.0</ele><time>2026-03-29T07:56:01.988Z</time></trkpt><trkpt lat="45.5568412" lon="10.4572551"><ele>231.0</ele><time>2026-03-29T07:56:02.988Z</time></trkpt><trkpt lat="45.5567403" lon="10.4573288"><ele>232.8</ele><time>2026-03-29T07:56:03.988Z</time></trkpt><trkpt lat="45.5566357" lon="10.4573947"><ele>234.60000000000002</ele><time>2026-03-29T07:56:04.989Z</time></trkpt><trkpt lat="45.5565349" lon="10.4574508"><ele>236.4</ele><time>2026-03-29T07:56:05.989Z</time></trkpt><trkpt lat="45.5564378" lon="10.4575136"><ele>238.2</ele><time>2026-03-29T07:56:06.989Z</time></trkpt><trkpt lat="45.5563444" lon="10.45759"><ele>240.0</ele><time>2026-03-29T07:56:07.988Z</time></trkpt><trkpt lat="45.5562564" lon="10.4576719"><ele>239.6</ele><time>2026-03-29T07:56:08.99Z</time></trkpt><trkpt lat="45.5561703" lon="10.4577527"><ele>239.2</ele><time>2026-03-29T07:56:09.988Z</time></trkpt><trkpt lat="45.5560928" lon="10.4578388"><ele>238.8</ele><time>2026-03-29T07:56:10.989Z</time></trkpt><trkpt lat="45.5560284" lon="10.4579456"><ele>238.4</ele><time>2026-03-29T07:56:11.989Z</time></trkpt><trkpt lat="45.5559767" lon="10.4580622"><ele>238.0</ele><time>2026-03-29T07:56:12.988Z</time></trkpt><trkpt lat="45.5559325" lon="10.4581862"><ele>239.8</ele><time>2026-03-29T07:56:13.989Z</time></trkpt><trkpt lat="45.5558756" lon="10.4582877"><ele>241.60000000000002</ele><time>2026-03-29T07:56:14.988Z</time></trkpt><trkpt lat="45.5557967" lon="10.4583673"><ele>243.39999999999998</ele><time>2026-03-29T07:56:15.989Z</time></trkpt><trkpt lat="45.555704" lon="10.4584238"><ele>245.2</ele><time>2026-03-29T07:56:16.989Z</time></trkpt><trkpt lat="45.555603" lon="10.4584796"><ele>247.0</ele><time>2026-03-29T07:56:17.988Z</time></trkpt><trkpt lat="45.5554954" lon="10.4585319"><ele>247.0</ele><time>2026-03-29T07:56:18.989Z</time></trkpt><trkpt lat="45.555387" lon="10.4585909"><ele>247.0</ele><time>2026-03-29T07:56:19.989Z</time></trkpt><trkpt lat="45.555277" lon="10.4586533"><ele>247.0</ele><time>2026-03-29T07:56:20.988Z</time></trkpt><trkpt lat="45.5551622" lon="10.4587118"><ele>247.0</ele><time>2026-03-29T07:56:21.989Z</time></trkpt><trkpt lat="45.5550435" lon="10.4587673"><ele>248.5</ele><time>2026-03-29T07:56:22.989Z</time></trkpt><trkpt lat="45.5549225" lon="10.4588195"><ele>250.0</ele><time>2026-03-29T07:56:23.988Z</time></trkpt><trkpt lat="45.5548024" lon="10.4588742"><ele>251.5</ele><time>2026-03-29T07:56:24.988Z</time></trkpt><trkpt lat="45.5546909" lon="10.4589372"><ele>253.0</ele><time>2026-03-29T07:56:25.989Z</time></trkpt><trkpt lat="45.5545873" lon="10.4590129"><ele>251.2</ele><time>2026-03-29T07:56:26.988Z</time></trkpt><trkpt lat="45.5544967" lon="10.4591052"><ele>249.4</ele><time>2026-03-29T07:56:27.989Z</time></trkpt><trkpt lat="45.5544332" lon="10.4592111"><ele>247.59999999999997</ele><time>2026-03-29T07:56:28.989Z</time></trkpt><trkpt lat="45.5543943" lon="10.4593232"><ele>245.79999999999998</ele><time>2026-03-29T07:56:29.988Z</time></trkpt><trkpt lat="45.5543784" lon="10.4594496"><ele>244.0</ele><time>2026-03-29T07:56:30.989Z</time></trkpt><trkpt lat="45.5543806" lon="10.4595881"><ele>245.0</ele><time>2026-03-29T07:56:31.989Z</time></trkpt><trkpt lat="45.5543836" lon="10.4597383"><ele>245.99999999999997</ele><time>2026-03-29T07:56:32.988Z</time></trkpt><trkpt lat="45.5543778" lon="10.4598983"><ele>246.99999999999997</ele><time>2026-03-29T07:56:33.989Z</time></trkpt><trkpt lat="45.5543694" lon="10.460061"><ele>248.0</ele><time>2026-03-29T07:56:34.989Z</time></trkpt><trkpt lat="45.5543635" lon="10.4602264"><ele>249.0</ele><time>2026-03-29T07:56:35.989Z</time></trkpt><trkpt lat="45.5543623" lon="10.4603908"><ele>249.5</ele><time>2026-03-29T07:56:36.989Z</time></trkpt><trkpt lat="45.5543696" lon="10.4605607"><ele>250.0</ele><time>2026-03-29T07:56:37.989Z</time></trkpt><trkpt lat="45.554383" lon="10.4607331"><ele>250.5</ele><time>2026-03-29T07:56:38.989Z</time></trkpt><trkpt lat="45.5543962" lon="10.4609002"><ele>251.0</ele><time>2026-03-29T07:56:39.989Z</time></trkpt><trkpt lat="45.5544134" lon="10.4610753"><ele>251.0</ele><time>2026-03-29T07:56:40.988Z</time></trkpt><trkpt lat="45.5544267" lon="10.4612538"><ele>251.00000000000003</ele><time>2026-03-29T07:56:41.99Z</time></trkpt><trkpt lat="45.5544361" lon="10.461429"><ele>251.00000000000003</ele><time>2026-03-29T07:56:42.989Z</time></trkpt><trkpt lat="45.5544431" lon="10.461571"><ele>251.0</ele><time>2026-03-29T07:56:43.989Z</time></trkpt><trkpt lat="45.5544451" lon="10.4616765"><ele>251.0</ele><time>2026-03-29T07:56:44.99Z</time></trkpt><trkpt lat="45.5544273" lon="10.4617779"><ele>251.0</ele><time>2026-03-29T07:56:46.989Z</time></trkpt><trkpt lat="45.5544591" lon="10.4616448"><ele>251.00000000000003</ele><time>2026-03-29T07:56:52.988Z</time></trkpt><trkpt lat="45.5544525" lon="10.4615385"><ele>251.00000000000003</ele><time>2026-03-29T07:56:53.988Z</time></trkpt><trkpt lat="45.5544448" lon="10.4614182"><ele>251.0</ele><time>2026-03-29T07:56:54.988Z</time></trkpt><trkpt lat="45.5544367" lon="10.4612829"><ele>251.0</ele><time>2026-03-29T07:56:55.989Z</time></trkpt><trkpt lat="45.5544243" lon="10.4611307"><ele>251.0</ele><time>2026-03-29T07:56:56.988Z</time></trkpt><trkpt lat="45.5544111" lon="10.460979"><ele>251.00000000000003</ele><time>2026-03-29T07:56:57.988Z</time></trkpt><trkpt lat="45.5544005" lon="10.4608239"><ele>251.00000000000003</ele><time>2026-03-29T07:56:58.989Z</time></trkpt><trkpt lat="45.5543902" lon="10.4606797"><ele>251.0</ele><time>2026-03-29T07:56:59.988Z</time></trkpt><trkpt lat="45.5543831" lon="10.4605327"><ele>251.0</ele><time>2026-03-29T07:57:00.99Z</time></trkpt><trkpt lat="45.5543789" lon="10.4603995"><ele>250.60000000000002</ele><time>2026-03-29T07:57:01.988Z</time></trkpt><trkpt lat="45.5543808" lon="10.4602703"><ele>250.20000000000002</ele><time>2026-03-29T07:57:02.989Z</time></trkpt><trkpt lat="45.554384" lon="10.4601339"><ele>249.79999999999998</ele><time>2026-03-29T07:57:03.988Z</time></trkpt><trkpt lat="45.5543864" lon="10.4600015"><ele>249.39999999999998</ele><time>2026-03-29T07:57:04.988Z</time></trkpt><trkpt lat="45.5543869" lon="10.4598683"><ele>249.0</ele><time>2026-03-29T07:57:05.988Z</time></trkpt><trkpt lat="45.5543903" lon="10.4597441"><ele>249.0</ele><time>2026-03-29T07:57:06.989Z</time></trkpt><trkpt lat="45.55439" lon="10.4596321"><ele>249.0</ele><time>2026-03-29T07:57:07.989Z</time></trkpt><trkpt lat="45.5543925" lon="10.4595318"><ele>249.0</ele><time>2026-03-29T07:57:08.988Z</time></trkpt><trkpt lat="45.5543908" lon="10.4593927"><ele>249.0</ele><time>2026-03-29T07:57:10.989Z</time></trkpt><trkpt lat="45.5543224" lon="10.459356"><ele>249.0</ele><time>2026-03-29T07:57:13.988Z</time></trkpt><trkpt lat="45.5542301" lon="10.4594003"><ele>249.0</ele><time>2026-03-29T07:57:15.989Z</time></trkpt><trkpt lat="45.5541774" lon="10.4594497"><ele>249.0</ele><time>2026-03-29T07:57:16.989Z</time></trkpt><trkpt lat="45.5541221" lon="10.4595117"><ele>249.0</ele><time>2026-03-29T07:57:17.988Z</time></trkpt><trkpt lat="45.5540638" lon="10.4595906"><ele>249.0</ele><time>2026-03-29T07:57:18.989Z</time></trkpt><trkpt lat="45.5540015" lon="10.4596613"><ele>249.0</ele><time>2026-03-29T07:57:19.988Z</time></trkpt><trkpt lat="45.553942" lon="10.4597324"><ele>249.0</ele><time>2026-03-29T07:57:20.989Z</time></trkpt><trkpt lat="45.5538787" lon="10.45982"><ele>249.0</ele><time>2026-03-29T07:57:21.988Z</time></trkpt><trkpt lat="45.5538212" lon="10.4599198"><ele>249.0</ele><time>2026-03-29T07:57:22.989Z</time></trkpt><trkpt lat="45.553764" lon="10.4600244"><ele>248.99999999999997</ele><time>2026-03-29T07:57:23.989Z</time></trkpt><trkpt lat="45.5537123" lon="10.4601346"><ele>248.99999999999997</ele><time>2026-03-29T07:57:24.988Z</time></trkpt><trkpt lat="45.5536606" lon="10.4602479"><ele>249.0</ele><time>2026-03-29T07:57:25.989Z</time></trkpt><trkpt lat="45.5536138" lon="10.460362"><ele>249.0</ele><time>2026-03-29T07:57:26.988Z</time></trkpt><trkpt lat="45.553575" lon="10.4604649"><ele>248.16666666666666</ele><time>2026-03-29T07:57:27.989Z</time></trkpt><trkpt lat="45.5535274" lon="10.4605631"><ele>247.33333333333331</ele><time>2026-03-29T07:57:28.988Z</time></trkpt><trkpt lat="45.5534744" lon="10.4606643"><ele>246.5</ele><time>2026-03-29T07:57:29.989Z</time></trkpt><trkpt lat="45.5534167" lon="10.4607565"><ele>245.66666666666666</ele><time>2026-03-29T07:57:30.988Z</time></trkpt><trkpt lat="45.5533628" lon="10.4608297"><ele>244.83333333333331</ele><time>2026-03-29T07:57:31.989Z</time></trkpt><trkpt lat="45.5533052" lon="10.460877"><ele>244.0</ele><time>2026-03-29T07:57:32.989Z</time></trkpt><trkpt lat="45.5532403" lon="10.4609094"><ele>244.0</ele><time>2026-03-29T07:57:33.988Z</time></trkpt><trkpt lat="45.5531661" lon="10.4609398"><ele>243.99999999999997</ele><time>2026-03-29T07:57:34.989Z</time></trkpt><trkpt lat="45.5530955" lon="10.4609597"><ele>243.99999999999997</ele><time>2026-03-29T07:57:35.988Z</time></trkpt><trkpt lat="45.5529768" lon="10.4609828"><ele>244.0</ele><time>2026-03-29T07:57:37.989Z</time></trkpt><trkpt lat="45.5529164" lon="10.4610636"><ele>244.0</ele><time>2026-03-29T07:57:39.988Z</time></trkpt><trkpt lat="45.5529111" lon="10.4612521"><ele>243.99999999999997</ele><time>2026-03-29T07:57:41.989Z</time></trkpt><trkpt lat="45.5529011" lon="10.4613554"><ele>244.0</ele><time>2026-03-29T07:57:42.989Z</time></trkpt><trkpt lat="45.5528794" lon="10.4614928"><ele>244.0</ele><time>2026-03-29T07:57:44.99Z</time></trkpt><trkpt lat="45.552835" lon="10.4615793"><ele>244.0</ele><time>2026-03-29T07:57:51.989Z</time></trkpt><trkpt lat="45.5527702" lon="10.4615422"><ele>243.99999999999997</ele><time>2026-03-29T07:57:53.989Z</time></trkpt><trkpt lat="45.5526757" lon="10.461547"><ele>244.0</ele><time>2026-03-29T07:57:55.989Z</time></trkpt><trkpt lat="45.5525647" lon="10.4615677"><ele>243.99999999999997</ele><time>2026-03-29T07:57:57.989Z</time></trkpt><trkpt lat="45.5524958" lon="10.4615768"><ele>244.0</ele><time>2026-03-29T07:57:58.988Z</time></trkpt><trkpt lat="45.5524225" lon="10.4615759"><ele>244.0</ele><time>2026-03-29T07:57:59.989Z</time></trkpt><trkpt lat="45.5523563" lon="10.4615563"><ele>244.0</ele><time>2026-03-29T07:58:00.989Z</time></trkpt><trkpt lat="45.55226" lon="10.4614597"><ele>243.99999999999997</ele><time>2026-03-29T07:58:02.989Z</time></trkpt><trkpt lat="45.5522007" lon="10.4613918"><ele>244.0</ele><time>2026-03-29T07:58:03.989Z</time></trkpt><trkpt lat="45.5521392" lon="10.4613469"><ele>243.99999999999997</ele><time>2026-03-29T07:58:04.989Z</time></trkpt><trkpt lat="45.5520737" lon="10.4613163"><ele>244.0</ele><time>2026-03-29T07:58:05.989Z</time></trkpt><trkpt lat="45.5520169" lon="10.4612658"><ele>244.0</ele><time>2026-03-29T07:58:06.989Z</time></trkpt><trkpt lat="45.5519766" lon="10.461189"><ele>244.0</ele><time>2026-03-29T07:58:07.988Z</time></trkpt><trkpt lat="45.5518821" lon="10.4610722"><ele>243.99999999999997</ele><time>2026-03-29T07:58:09.989Z</time></trkpt><trkpt lat="45.5517996" lon="10.4610396"><ele>244.0</ele><time>2026-03-29T07:58:10.988Z</time></trkpt><trkpt lat="45.5517124" lon="10.4609927"><ele>243.6</ele><time>2026-03-29T07:58:11.989Z</time></trkpt><trkpt lat="45.5516263" lon="10.460969"><ele>243.2</ele><time>2026-03-29T07:58:12.988Z</time></trkpt><trkpt lat="45.5515397" lon="10.4609628"><ele>242.79999999999998</ele><time>2026-03-29T07:58:13.989Z</time></trkpt><trkpt lat="45.5514395" lon="10.4609807"><ele>242.39999999999998</ele><time>2026-03-29T07:58:14.989Z</time></trkpt><trkpt lat="45.5513359" lon="10.4610005"><ele>242.0</ele><time>2026-03-29T07:58:15.987Z</time></trkpt><trkpt lat="45.5512336" lon="10.461028"><ele>241.83333333333334</ele><time>2026-03-29T07:58:16.989Z</time></trkpt><trkpt lat="45.5511247" lon="10.4610413"><ele>241.66666666666669</ele><time>2026-03-29T07:58:17.989Z</time></trkpt><trkpt lat="45.5510275" lon="10.4610497"><ele>241.5</ele><time>2026-03-29T07:58:18.988Z</time></trkpt><trkpt lat="45.5509416" lon="10.4610288"><ele>241.33333333333331</ele><time>2026-03-29T07:58:19.988Z</time></trkpt><trkpt lat="45.5508613" lon="10.4609844"><ele>241.16666666666666</ele><time>2026-03-29T07:58:20.989Z</time></trkpt><trkpt lat="45.550811" lon="10.4609208"><ele>241.0</ele><time>2026-03-29T07:58:21.989Z</time></trkpt><trkpt lat="45.5507739" lon="10.4608347"><ele>240.99999999999997</ele><time>2026-03-29T07:58:22.989Z</time></trkpt><trkpt lat="45.5507681" lon="10.4607291"><ele>241.0</ele><time>2026-03-29T07:58:23.989Z</time></trkpt><trkpt lat="45.5507639" lon="10.4606037"><ele>241.0</ele><time>2026-03-29T07:58:24.989Z</time></trkpt><trkpt lat="45.5507545" lon="10.4604913"><ele>241.0</ele><time>2026-03-29T07:58:25.988Z</time></trkpt><trkpt lat="45.5507411" lon="10.4603881"><ele>240.99999999999997</ele><time>2026-03-29T07:58:26.989Z</time></trkpt><trkpt lat="45.5507194" lon="10.460295"><ele>241.0</ele><time>2026-03-29T07:58:27.989Z</time></trkpt><trkpt lat="45.5506381" lon="10.4602122"><ele>240.5</ele><time>2026-03-29T07:58:29.989Z</time></trkpt><trkpt lat="45.5504717" lon="10.4602296"><ele>240.0</ele><time>2026-03-29T07:58:31.988Z</time></trkpt><trkpt lat="45.5503644" lon="10.4602456"><ele>239.5</ele><time>2026-03-29T07:58:32.988Z</time></trkpt><trkpt lat="45.5502575" lon="10.4602748"><ele>239.0</ele><time>2026-03-29T07:58:33.988Z</time></trkpt><trkpt lat="45.5501398" lon="10.4602961"><ele>239.0</ele><time>2026-03-29T07:58:34.989Z</time></trkpt><trkpt lat="45.5500269" lon="10.4603153"><ele>238.99999999999997</ele><time>2026-03-29T07:58:35.989Z</time></trkpt><trkpt lat="45.549916" lon="10.4603348"><ele>238.99999999999997</ele><time>2026-03-29T07:58:36.989Z</time></trkpt><trkpt lat="45.5498074" lon="10.4603517"><ele>239.0</ele><time>2026-03-29T07:58:37.989Z</time></trkpt><trkpt lat="45.549711" lon="10.4603658"><ele>239.0</ele><time>2026-03-29T07:58:38.989Z</time></trkpt><trkpt lat="45.549627" lon="10.4603765"><ele>239.0</ele><time>2026-03-29T07:58:39.989Z</time></trkpt><trkpt lat="45.5495611" lon="10.460378"><ele>238.99999999999997</ele><time>2026-03-29T07:58:40.988Z</time></trkpt><trkpt lat="45.5494712" lon="10.4603261"><ele>238.99999999999997</ele><time>2026-03-29T07:58:42.988Z</time></trkpt><trkpt lat="45.5494039" lon="10.4601722"><ele>239.0</ele><time>2026-03-29T07:58:44.989Z</time></trkpt><trkpt lat="45.5493468" lon="10.4600755"><ele>239.0</ele><time>2026-03-29T07:58:45.988Z</time></trkpt><trkpt lat="45.5492718" lon="10.4599787"><ele>240.0</ele><time>2026-03-29T07:58:46.989Z</time></trkpt><trkpt lat="45.5491876" lon="10.4598774"><ele>241.0</ele><time>2026-03-29T07:58:47.988Z</time></trkpt><trkpt lat="45.549101" lon="10.4597699"><ele>242.0</ele><time>2026-03-29T07:58:48.988Z</time></trkpt><trkpt lat="45.5490134" lon="10.4596581"><ele>243.0</ele><time>2026-03-29T07:58:49.99Z</time></trkpt><trkpt lat="45.5489292" lon="10.4595581"><ele>243.0</ele><time>2026-03-29T07:58:50.989Z</time></trkpt><trkpt lat="45.548836" lon="10.4594659"><ele>243.0</ele><time>2026-03-29T07:58:51.989Z</time></trkpt><trkpt lat="45.5487366" lon="10.4593815"><ele>243.0</ele><time>2026-03-29T07:58:52.989Z</time></trkpt><trkpt lat="45.5486437" lon="10.4592964"><ele>243.0</ele><time>2026-03-29T07:58:53.989Z</time></trkpt><trkpt lat="45.5485601" lon="10.4591999"><ele>243.0</ele><time>2026-03-29T07:58:54.988Z</time></trkpt><trkpt lat="45.5484849" lon="10.459115"><ele>243.33333333333334</ele><time>2026-03-29T07:58:55.989Z</time></trkpt><trkpt lat="45.5484145" lon="10.4590568"><ele>243.66666666666669</ele><time>2026-03-29T07:58:56.989Z</time></trkpt><trkpt lat="45.548342" lon="10.4590327"><ele>244.0</ele><time>2026-03-29T07:58:57.989Z</time></trkpt><trkpt lat="45.548264" lon="10.4590491"><ele>244.33333333333334</ele><time>2026-03-29T07:58:58.99Z</time></trkpt><trkpt lat="45.5482005" lon="10.459108"><ele>244.66666666666669</ele><time>2026-03-29T07:58:59.988Z</time></trkpt><trkpt lat="45.5481597" lon="10.4591971"><ele>245.0</ele><time>2026-03-29T07:59:00.989Z</time></trkpt><trkpt lat="45.5481529" lon="10.4593072"><ele>245.0</ele><time>2026-03-29T07:59:01.989Z</time></trkpt><trkpt lat="45.5481735" lon="10.4594264"><ele>245.0</ele><time>2026-03-29T07:59:02.989Z</time></trkpt><trkpt lat="45.5482055" lon="10.4595646"><ele>245.0</ele><time>2026-03-29T07:59:03.989Z</time></trkpt><trkpt lat="45.5482202" lon="10.459725"><ele>245.0</ele><time>2026-03-29T07:59:04.989Z</time></trkpt><trkpt lat="45.548211" lon="10.4598986"><ele>245.0</ele><time>2026-03-29T07:59:05.989Z</time></trkpt><trkpt lat="45.5481813" lon="10.4600708"><ele>245.0</ele><time>2026-03-29T07:59:06.989Z</time></trkpt><trkpt lat="45.5481292" lon="10.4602408"><ele>245.0</ele><time>2026-03-29T07:59:07.989Z</time></trkpt><trkpt lat="45.5480572" lon="10.4604076"><ele>245.0</ele><time>2026-03-29T07:59:08.989Z</time></trkpt><trkpt lat="45.5479824" lon="10.4605841"><ele>245.0</ele><time>2026-03-29T07:59:09.988Z</time></trkpt><trkpt lat="45.5479184" lon="10.4607739"><ele>245.66666666666669</ele><time>2026-03-29T07:59:10.989Z</time></trkpt><trkpt lat="45.5478616" lon="10.4609788"><ele>246.33333333333331</ele><time>2026-03-29T07:59:11.988Z</time></trkpt><trkpt lat="45.5478168" lon="10.4611923"><ele>247.0</ele><time>2026-03-29T07:59:12.989Z</time></trkpt><trkpt lat="45.5477827" lon="10.4614102"><ele>247.0</ele><time>2026-03-29T07:59:13.989Z</time></trkpt><trkpt lat="45.5477554" lon="10.4616343"><ele>247.0</ele><time>2026-03-29T07:59:14.989Z</time></trkpt><trkpt lat="45.5477351" lon="10.4618576"><ele>247.0</ele><time>2026-03-29T07:59:15.989Z</time></trkpt><trkpt lat="45.5477141" lon="10.4620818"><ele>248.0</ele><time>2026-03-29T07:59:16.988Z</time></trkpt><trkpt lat="45.5476881" lon="10.462307"><ele>249.0</ele><time>2026-03-29T07:59:17.988Z</time></trkpt><trkpt lat="45.5476641" lon="10.4625315"><ele>250.0</ele><time>2026-03-29T07:59:18.988Z</time></trkpt><trkpt lat="45.5476407" lon="10.4627565"><ele>251.33333333333331</ele><time>2026-03-29T07:59:19.989Z</time></trkpt><trkpt lat="45.5476195" lon="10.4629787"><ele>252.66666666666669</ele><time>2026-03-29T07:59:20.988Z</time></trkpt><trkpt lat="45.5476001" lon="10.4631985"><ele>254.0</ele><time>2026-03-29T07:59:21.988Z</time></trkpt><trkpt lat="45.547578" lon="10.4634158"><ele>254.0</ele><time>2026-03-29T07:59:22.989Z</time></trkpt><trkpt lat="45.5475533" lon="10.4636337"><ele>254.0</ele><time>2026-03-29T07:59:23.989Z</time></trkpt><trkpt lat="45.5475299" lon="10.4638539"><ele>254.0</ele><time>2026-03-29T07:59:24.988Z</time></trkpt><trkpt lat="45.5475065" lon="10.464076"><ele>254.66666666666669</ele><time>2026-03-29T07:59:25.989Z</time></trkpt><trkpt lat="45.5474828" lon="10.4642996"><ele>255.33333333333331</ele><time>2026-03-29T07:59:26.988Z</time></trkpt><trkpt lat="45.5474577" lon="10.4645242"><ele>256.0</ele><time>2026-03-29T07:59:27.989Z</time></trkpt><trkpt lat="45.5474339" lon="10.4647453"><ele>256.0</ele><time>2026-03-29T07:59:28.988Z</time></trkpt><trkpt lat="45.5474145" lon="10.4649611"><ele>256.0</ele><time>2026-03-29T07:59:29.988Z</time></trkpt><trkpt lat="45.5473975" lon="10.4651615"><ele>256.0</ele><time>2026-03-29T07:59:30.989Z</time></trkpt><trkpt lat="45.5473756" lon="10.4653385"><ele>256.0</ele><time>2026-03-29T07:59:31.989Z</time></trkpt><trkpt lat="45.5473427" lon="10.4654892"><ele>256.2</ele><time>2026-03-29T07:59:32.989Z</time></trkpt><trkpt lat="45.5472967" lon="10.4656152"><ele>256.40000000000003</ele><time>2026-03-29T07:59:33.989Z</time></trkpt><trkpt lat="45.54725" lon="10.4657096"><ele>256.6</ele><time>2026-03-29T07:59:34.989Z</time></trkpt><trkpt lat="45.5472049" lon="10.4657809"><ele>256.8</ele><time>2026-03-29T07:59:35.989Z</time></trkpt><trkpt lat="45.5471188" lon="10.4659276"><ele>257.0</ele><time>2026-03-29T07:59:37.988Z</time></trkpt><trkpt lat="45.5471064" lon="10.4660365"><ele>257.0</ele><time>2026-03-29T07:59:38.988Z</time></trkpt><trkpt lat="45.5471312" lon="10.466142"><ele>257.0</ele><time>2026-03-29T07:59:39.989Z</time></trkpt><trkpt lat="45.5471869" lon="10.4662219"><ele>257.0</ele><time>2026-03-29T07:59:40.989Z</time></trkpt><trkpt lat="45.547248" lon="10.4662615"><ele>257.0</ele><time>2026-03-29T07:59:41.988Z</time></trkpt><trkpt lat="45.5473187" lon="10.4662491"><ele>257.0</ele><time>2026-03-29T07:59:42.989Z</time></trkpt><trkpt lat="45.5473805" lon="10.4661885"><ele>257.0</ele><time>2026-03-29T07:59:43.988Z</time></trkpt><trkpt lat="45.5474209" lon="10.4660929"><ele>257.0</ele><time>2026-03-29T07:59:44.989Z</time></trkpt><trkpt lat="45.5474295" lon="10.4659775"><ele>257.0</ele><time>2026-03-29T07:59:45.989Z</time></trkpt><trkpt lat="45.5474061" lon="10.4658517"><ele>257.0</ele><time>2026-03-29T07:59:46.988Z</time></trkpt><trkpt lat="45.5473857" lon="10.4656995"><ele>257.0</ele><time>2026-03-29T07:59:47.989Z</time></trkpt><trkpt lat="45.5473827" lon="10.4655334"><ele>257.0</ele><time>2026-03-29T07:59:48.989Z</time></trkpt><trkpt lat="45.5473987" lon="10.46537"><ele>257.0</ele><time>2026-03-29T07:59:49.989Z</time></trkpt><trkpt lat="45.5474054" lon="10.4652295"><ele>256.83333333333337</ele><time>2026-03-29T07:59:50.988Z</time></trkpt><trkpt lat="45.5474078" lon="10.4651132"><ele>256.6666666666667</ele><time>2026-03-29T07:59:51.988Z</time></trkpt><trkpt lat="45.5473965" lon="10.4650156"><ele>256.5</ele><time>2026-03-29T07:59:52.989Z</time></trkpt><trkpt lat="45.547362" lon="10.4649398"><ele>256.3333333333333</ele><time>2026-03-29T07:59:53.988Z</time></trkpt><trkpt lat="45.547306" lon="10.4648708"><ele>256.16666666666663</ele><time>2026-03-29T07:59:54.99Z</time></trkpt><trkpt lat="45.5472359" lon="10.4648143"><ele>256.0</ele><time>2026-03-29T07:59:55.989Z</time></trkpt><trkpt lat="45.5471528" lon="10.4647827"><ele>256.0</ele><time>2026-03-29T07:59:56.989Z</time></trkpt><trkpt lat="45.5470543" lon="10.4647639"><ele>256.0</ele><time>2026-03-29T07:59:57.989Z</time></trkpt><trkpt lat="45.5469465" lon="10.4647441"><ele>256.0</ele><time>2026-03-29T07:59:58.988Z</time></trkpt><trkpt lat="45.5468347" lon="10.4647304"><ele>256.0</ele><time>2026-03-29T07:59:59.988Z</time></trkpt><trkpt lat="45.5467166" lon="10.4647221"><ele>256.0</ele><time>2026-03-29T08:00:00.989Z</time></trkpt><trkpt lat="45.5465984" lon="10.4647119"><ele>255.75</ele><time>2026-03-29T08:00:01.989Z</time></trkpt><trkpt lat="45.5464775" lon="10.4646948"><ele>255.5</ele><time>2026-03-29T08:00:02.989Z</time></trkpt><trkpt lat="45.5463585" lon="10.4646636"><ele>255.25</ele><time>2026-03-29T08:00:03.989Z</time></trkpt><trkpt lat="45.5462416" lon="10.4646095"><ele>255.0</ele><time>2026-03-29T08:00:04.989Z</time></trkpt><trkpt lat="45.5461149" lon="10.4645449"><ele>254.5</ele><time>2026-03-29T08:00:05.989Z</time></trkpt><trkpt lat="45.5459891" lon="10.4644827"><ele>254.0</ele><time>2026-03-29T08:00:06.988Z</time></trkpt><trkpt lat="45.5458566" lon="10.4644264"><ele>253.5</ele><time>2026-03-29T08:00:07.989Z</time></trkpt><trkpt lat="45.5457218" lon="10.4643809"><ele>253.0</ele><time>2026-03-29T08:00:08.989Z</time></trkpt><trkpt lat="45.5455782" lon="10.4643478"><ele>253.0</ele><time>2026-03-29T08:00:09.988Z</time></trkpt><trkpt lat="45.5454396" lon="10.4643137"><ele>253.0</ele><time>2026-03-29T08:00:10.989Z</time></trkpt><trkpt lat="45.5453005" lon="10.4642738"><ele>253.0</ele><time>2026-03-29T08:00:11.988Z</time></trkpt><trkpt lat="45.5451597" lon="10.4642275"><ele>253.0</ele><time>2026-03-29T08:00:12.989Z</time></trkpt><trkpt lat="45.5450271" lon="10.4641749"><ele>252.75</ele><time>2026-03-29T08:00:13.989Z</time></trkpt><trkpt lat="45.5449006" lon="10.4641302"><ele>252.5</ele><time>2026-03-29T08:00:14.989Z</time></trkpt><trkpt lat="45.5447697" lon="10.4640852"><ele>252.25</ele><time>2026-03-29T08:00:15.988Z</time></trkpt><trkpt lat="45.5446327" lon="10.4640395"><ele>252.0</ele><time>2026-03-29T08:00:16.989Z</time></trkpt><trkpt lat="45.5444967" lon="10.4639902"><ele>252.0</ele><time>2026-03-29T08:00:17.989Z</time></trkpt><trkpt lat="45.5443605" lon="10.4639465"><ele>252.0</ele><time>2026-03-29T08:00:18.989Z</time></trkpt><trkpt lat="45.5442262" lon="10.4639018"><ele>252.0</ele><time>2026-03-29T08:00:19.988Z</time></trkpt><trkpt lat="45.544111" lon="10.4638643"><ele>252.0</ele><time>2026-03-29T08:00:20.989Z</time></trkpt><trkpt lat="45.544003" lon="10.4638323"><ele>252.0</ele><time>2026-03-29T08:00:21.989Z</time></trkpt><trkpt lat="45.5439056" lon="10.4638078"><ele>252.0</ele><time>2026-03-29T08:00:22.989Z</time></trkpt><trkpt lat="45.5438257" lon="10.4637977"><ele>252.0</ele><time>2026-03-29T08:00:23.989Z</time></trkpt><trkpt lat="45.5437599" lon="10.4637945"><ele>252.0</ele><time>2026-03-29T08:00:24.989Z</time></trkpt><trkpt lat="45.5436686" lon="10.463715"><ele>252.0</ele><time>2026-03-29T08:00:26.989Z</time></trkpt><trkpt lat="45.5436506" lon="10.4636225"><ele>252.0</ele><time>2026-03-29T08:00:27.989Z</time></trkpt><trkpt lat="45.5436276" lon="10.4634883"><ele>252.25</ele><time>2026-03-29T08:00:28.989Z</time></trkpt><trkpt lat="45.5435997" lon="10.4633307"><ele>252.5</ele><time>2026-03-29T08:00:29.989Z</time></trkpt><trkpt lat="45.5435694" lon="10.4631643"><ele>252.75</ele><time>2026-03-29T08:00:30.989Z</time></trkpt><trkpt lat="45.5435349" lon="10.4629882"><ele>253.0</ele><time>2026-03-29T08:00:31.989Z</time></trkpt><trkpt lat="45.5434911" lon="10.462815"><ele>253.0</ele><time>2026-03-29T08:00:32.989Z</time></trkpt><trkpt lat="45.5434561" lon="10.4626377"><ele>253.0</ele><time>2026-03-29T08:00:33.988Z</time></trkpt><trkpt lat="45.5434258" lon="10.4624609"><ele>253.0</ele><time>2026-03-29T08:00:34.989Z</time></trkpt><trkpt lat="45.5434165" lon="10.4622842"><ele>253.0</ele><time>2026-03-29T08:00:35.988Z</time></trkpt><trkpt lat="45.5434108" lon="10.4620881"><ele>253.25</ele><time>2026-03-29T08:00:36.989Z</time></trkpt><trkpt lat="45.5434115" lon="10.4618917"><ele>253.5</ele><time>2026-03-29T08:00:37.988Z</time></trkpt><trkpt lat="45.5433991" lon="10.4617213"><ele>253.75</ele><time>2026-03-29T08:00:38.989Z</time></trkpt><trkpt lat="45.5433674" lon="10.4615454"><ele>254.0</ele><time>2026-03-29T08:00:39.988Z</time></trkpt><trkpt lat="45.5433129" lon="10.4613651"><ele>254.25</ele><time>2026-03-29T08:00:40.988Z</time></trkpt><trkpt lat="45.5432562" lon="10.4611783"><ele>254.5</ele><time>2026-03-29T08:00:41.989Z</time></trkpt><trkpt lat="45.5432141" lon="10.4610116"><ele>254.75</ele><time>2026-03-29T08:00:42.988Z</time></trkpt><trkpt lat="45.5431745" lon="10.4608688"><ele>255.0</ele><time>2026-03-29T08:00:43.989Z</time></trkpt><trkpt lat="45.5431427" lon="10.4607446"><ele>255.0</ele><time>2026-03-29T08:00:44.988Z</time></trkpt><trkpt lat="45.5431316" lon="10.460632"><ele>255.0</ele><time>2026-03-29T08:00:45.988Z</time></trkpt><trkpt lat="45.5431315" lon="10.4605154"><ele>255.0</ele><time>2026-03-29T08:00:46.989Z</time></trkpt><trkpt lat="45.5431407" lon="10.4603972"><ele>255.0</ele><time>2026-03-29T08:00:47.988Z</time></trkpt><trkpt lat="45.5431329" lon="10.4602875"><ele>255.0</ele><time>2026-03-29T08:00:48.988Z</time></trkpt><trkpt lat="45.5431216" lon="10.4601555"><ele>255.0</ele><time>2026-03-29T08:00:49.989Z</time></trkpt><trkpt lat="45.5431113" lon="10.4599848"><ele>255.25</ele><time>2026-03-29T08:00:50.989Z</time></trkpt><trkpt lat="45.5430753" lon="10.4598544"><ele>255.5</ele><time>2026-03-29T08:00:51.988Z</time></trkpt><trkpt lat="45.5429881" lon="10.4596878"><ele>255.75</ele><time>2026-03-29T08:00:52.988Z</time></trkpt><trkpt lat="45.5429383" lon="10.4595354"><ele>256.0</ele><time>2026-03-29T08:00:53.988Z</time></trkpt><trkpt lat="45.5429206" lon="10.4594006"><ele>255.66666666666666</ele><time>2026-03-29T08:00:54.989Z</time></trkpt><trkpt lat="45.5428963" lon="10.459276"><ele>255.33333333333331</ele><time>2026-03-29T08:00:55.988Z</time></trkpt><trkpt lat="45.5428881" lon="10.4591379"><ele>255.0</ele><time>2026-03-29T08:00:56.989Z</time></trkpt><trkpt lat="45.5428955" lon="10.4589991"><ele>254.66666666666669</ele><time>2026-03-29T08:00:57.99Z</time></trkpt><trkpt lat="45.5429035" lon="10.4588923"><ele>254.33333333333334</ele><time>2026-03-29T08:00:58.989Z</time></trkpt><trkpt lat="45.5429222" lon="10.4587834"><ele>254.0</ele><time>2026-03-29T08:01:00.989Z</time></trkpt><trkpt lat="45.5429402" lon="10.458664"><ele>254.00000000000003</ele><time>2026-03-29T08:01:03.988Z</time></trkpt><trkpt lat="45.5429296" lon="10.4585616"><ele>254.0</ele><time>2026-03-29T08:01:05.988Z</time></trkpt><trkpt lat="45.5429234" lon="10.4586741"><ele>254.0</ele><time>2026-03-29T08:01:13.989Z</time></trkpt><trkpt lat="45.5429256" lon="10.4587714"><ele>254.0</ele><time>2026-03-29T08:01:15.988Z</time></trkpt><trkpt lat="45.5430045" lon="10.4588138"><ele>254.00000000000003</ele><time>2026-03-29T08:01:17.989Z</time></trkpt><trkpt lat="45.5430676" lon="10.4588175"><ele>254.0</ele><time>2026-03-29T08:01:18.989Z</time></trkpt><trkpt lat="45.5431729" lon="10.4588322"><ele>254.00000000000003</ele><time>2026-03-29T08:01:19.989Z</time></trkpt><trkpt lat="45.5432379" lon="10.458834"><ele>254.0</ele><time>2026-03-29T08:01:20.989Z</time></trkpt><trkpt lat="45.5433058" lon="10.4587744"><ele>254.0</ele><time>2026-03-29T08:01:22.989Z</time></trkpt><trkpt lat="45.5433201" lon="10.458664"><ele>254.0</ele><time>2026-03-29T08:01:23.989Z</time></trkpt><trkpt lat="45.5433183" lon="10.4585385"><ele>254.00000000000003</ele><time>2026-03-29T08:01:24.989Z</time></trkpt><trkpt lat="45.5433014" lon="10.4583824"><ele>254.0</ele><time>2026-03-29T08:01:25.988Z</time></trkpt><trkpt lat="45.5432845" lon="10.4581993"><ele>253.25</ele><time>2026-03-29T08:01:26.989Z</time></trkpt><trkpt lat="45.5432756" lon="10.4580097"><ele>252.5</ele><time>2026-03-29T08:01:27.989Z</time></trkpt><trkpt lat="45.5432644" lon="10.457828"><ele>251.75</ele><time>2026-03-29T08:01:28.988Z</time></trkpt><trkpt lat="45.5432537" lon="10.4576752"><ele>251.0</ele><time>2026-03-29T08:01:29.988Z</time></trkpt><trkpt lat="45.5432593" lon="10.4575457"><ele>250.60000000000002</ele><time>2026-03-29T08:01:30.988Z</time></trkpt><trkpt lat="45.5432844" lon="10.4574193"><ele>250.20000000000002</ele><time>2026-03-29T08:01:31.988Z</time></trkpt><trkpt lat="45.5433164" lon="10.4572759"><ele>249.79999999999998</ele><time>2026-03-29T08:01:32.988Z</time></trkpt><trkpt lat="45.5433614" lon="10.4571222"><ele>249.39999999999998</ele><time>2026-03-29T08:01:33.988Z</time></trkpt><trkpt lat="45.5434158" lon="10.4569674"><ele>249.0</ele><time>2026-03-29T08:01:34.988Z</time></trkpt><trkpt lat="45.5434721" lon="10.4568075"><ele>248.5</ele><time>2026-03-29T08:01:35.989Z</time></trkpt><trkpt lat="45.5435143" lon="10.4566452"><ele>248.0</ele><time>2026-03-29T08:01:36.988Z</time></trkpt><trkpt lat="45.5435483" lon="10.456493"><ele>247.5</ele><time>2026-03-29T08:01:37.988Z</time></trkpt><trkpt lat="45.543576" lon="10.4563331"><ele>247.0</ele><time>2026-03-29T08:01:38.989Z</time></trkpt><trkpt lat="45.5435931" lon="10.4561583"><ele>247.0</ele><time>2026-03-29T08:01:39.988Z</time></trkpt><trkpt lat="45.5435991" lon="10.4559684"><ele>247.0</ele><time>2026-03-29T08:01:40.989Z</time></trkpt><trkpt lat="45.5435973" lon="10.4557696"><ele>247.0</ele><time>2026-03-29T08:01:41.988Z</time></trkpt><trkpt lat="45.5436043" lon="10.4555713"><ele>247.0</ele><time>2026-03-29T08:01:42.988Z</time></trkpt><trkpt lat="45.5436129" lon="10.4553698"><ele>246.39999999999998</ele><time>2026-03-29T08:01:43.988Z</time></trkpt><trkpt lat="45.5436278" lon="10.4551841"><ele>245.79999999999998</ele><time>2026-03-29T08:01:44.988Z</time></trkpt><trkpt lat="45.5436317" lon="10.45502"><ele>245.2</ele><time>2026-03-29T08:01:45.989Z</time></trkpt><trkpt lat="45.5436352" lon="10.4548866"><ele>244.6</ele><time>2026-03-29T08:01:46.989Z</time></trkpt><trkpt lat="45.5436508" lon="10.4547688"><ele>244.0</ele><time>2026-03-29T08:01:47.989Z</time></trkpt><trkpt lat="45.543665" lon="10.4546621"><ele>243.2</ele><time>2026-03-29T08:01:48.988Z</time></trkpt><trkpt lat="45.5436746" lon="10.4545537"><ele>242.39999999999998</ele><time>2026-03-29T08:01:49.989Z</time></trkpt><trkpt lat="45.5436697" lon="10.4544261"><ele>241.6</ele><time>2026-03-29T08:01:50.989Z</time></trkpt><trkpt lat="45.5436517" lon="10.4542896"><ele>240.8</ele><time>2026-03-29T08:01:51.988Z</time></trkpt><trkpt lat="45.5436182" lon="10.4541401"><ele>240.0</ele><time>2026-03-29T08:01:52.989Z</time></trkpt><trkpt lat="45.5435857" lon="10.4539886"><ele>240.0</ele><time>2026-03-29T08:01:53.988Z</time></trkpt><trkpt lat="45.5435654" lon="10.4538431"><ele>240.0</ele><time>2026-03-29T08:01:54.989Z</time></trkpt><trkpt lat="45.5435495" lon="10.4537239"><ele>240.0</ele><time>2026-03-29T08:01:55.989Z</time></trkpt><trkpt lat="45.5435361" lon="10.4536359"><ele>240.0</ele><time>2026-03-29T08:01:56.988Z</time></trkpt><trkpt lat="45.5434975" lon="10.4535328"><ele>240.0</ele><time>2026-03-29T08:01:58.988Z</time></trkpt><trkpt lat="45.5434022" lon="10.4534408"><ele>240.0</ele><time>2026-03-29T08:02:00.989Z</time></trkpt><trkpt lat="45.5433342" lon="10.4533919"><ele>240.0</ele><time>2026-03-29T08:02:01.988Z</time></trkpt><trkpt lat="45.5432707" lon="10.4533183"><ele>240.0</ele><time>2026-03-29T08:02:02.988Z</time></trkpt><trkpt lat="45.5432066" lon="10.4532211"><ele>240.0</ele><time>2026-03-29T08:02:03.988Z</time></trkpt><trkpt lat="45.543145" lon="10.4531084"><ele>240.0</ele><time>2026-03-29T08:02:04.989Z</time></trkpt><trkpt lat="45.5430891" lon="10.4529725"><ele>240.0</ele><time>2026-03-29T08:02:05.99Z</time></trkpt><trkpt lat="45.5430416" lon="10.4528234"><ele>240.0</ele><time>2026-03-29T08:02:06.989Z</time></trkpt><trkpt lat="45.543004" lon="10.4526981"><ele>240.0</ele><time>2026-03-29T08:02:07.988Z</time></trkpt><trkpt lat="45.5429826" lon="10.452593"><ele>240.0</ele><time>2026-03-29T08:02:08.989Z</time></trkpt><trkpt lat="45.5429762" lon="10.4524964"><ele>240.0</ele><time>2026-03-29T08:02:09.989Z</time></trkpt><trkpt lat="45.5429828" lon="10.4523946"><ele>240.0</ele><time>2026-03-29T08:02:10.989Z</time></trkpt><trkpt lat="45.5430091" lon="10.4523014"><ele>240.0</ele><time>2026-03-29T08:02:11.989Z</time></trkpt><trkpt lat="45.5430628" lon="10.4521963"><ele>239.33333333333334</ele><time>2026-03-29T08:02:12.989Z</time></trkpt><trkpt lat="45.5431439" lon="10.4520895"><ele>238.66666666666669</ele><time>2026-03-29T08:02:13.989Z</time></trkpt><trkpt lat="45.5432092" lon="10.451996"><ele>238.0</ele><time>2026-03-29T08:02:14.988Z</time></trkpt><trkpt lat="45.5432521" lon="10.451912"><ele>237.33333333333334</ele><time>2026-03-29T08:02:15.989Z</time></trkpt><trkpt lat="45.543278" lon="10.4518241"><ele>236.66666666666669</ele><time>2026-03-29T08:02:16.989Z</time></trkpt><trkpt lat="45.5432796" lon="10.4517093"><ele>236.0</ele><time>2026-03-29T08:02:17.989Z</time></trkpt><trkpt lat="45.5432599" lon="10.4515644"><ele>236.0</ele><time>2026-03-29T08:02:18.988Z</time></trkpt><trkpt lat="45.5432404" lon="10.4514157"><ele>236.00000000000003</ele><time>2026-03-29T08:02:19.988Z</time></trkpt><trkpt lat="45.5432239" lon="10.4512626"><ele>236.00000000000003</ele><time>2026-03-29T08:02:20.99Z</time></trkpt><trkpt lat="45.5432082" lon="10.4511092"><ele>236.0</ele><time>2026-03-29T08:02:21.989Z</time></trkpt><trkpt lat="45.5431995" lon="10.4509643"><ele>236.0</ele><time>2026-03-29T08:02:22.989Z</time></trkpt><trkpt lat="45.5431941" lon="10.4508161"><ele>236.00000000000003</ele><time>2026-03-29T08:02:23.988Z</time></trkpt><trkpt lat="45.5431895" lon="10.4506726"><ele>236.0</ele><time>2026-03-29T08:02:24.989Z</time></trkpt><trkpt lat="45.5431909" lon="10.4505416"><ele>236.0</ele><time>2026-03-29T08:02:25.989Z</time></trkpt><trkpt lat="45.5431993" lon="10.4504199"><ele>236.0</ele><time>2026-03-29T08:02:26.988Z</time></trkpt><trkpt lat="45.5432121" lon="10.4503034"><ele>236.00000000000003</ele><time>2026-03-29T08:02:27.989Z</time></trkpt><trkpt lat="45.5432255" lon="10.450196"><ele>236.0</ele><time>2026-03-29T08:02:28.989Z</time></trkpt><trkpt lat="45.5432339" lon="10.4500782"><ele>236.00000000000003</ele><time>2026-03-29T08:02:29.988Z</time></trkpt><trkpt lat="45.5432452" lon="10.4499647"><ele>236.0</ele><time>2026-03-29T08:02:30.989Z</time></trkpt><trkpt lat="45.5432726" lon="10.4498564"><ele>236.0</ele><time>2026-03-29T08:02:31.988Z</time></trkpt><trkpt lat="45.5432902" lon="10.4497539"><ele>236.0</ele><time>2026-03-29T08:02:32.989Z</time></trkpt><trkpt lat="45.54331" lon="10.4496653"><ele>236.00000000000003</ele><time>2026-03-29T08:02:33.989Z</time></trkpt><trkpt lat="45.5433358" lon="10.4495171"><ele>236.0</ele><time>2026-03-29T08:02:35.988Z</time></trkpt><trkpt lat="45.5433693" lon="10.4493665"><ele>235.66666666666669</ele><time>2026-03-29T08:02:37.989Z</time></trkpt><trkpt lat="45.5434029" lon="10.4492888"><ele>235.33333333333334</ele><time>2026-03-29T08:02:38.989Z</time></trkpt><trkpt lat="45.543439" lon="10.449197"><ele>235.0</ele><time>2026-03-29T08:02:39.989Z</time></trkpt><trkpt lat="45.5434688" lon="10.4491043"><ele>234.66666666666669</ele><time>2026-03-29T08:02:40.989Z</time></trkpt><trkpt lat="45.5435046" lon="10.4490166"><ele>234.33333333333334</ele><time>2026-03-29T08:02:41.989Z</time></trkpt><trkpt lat="45.5435535" lon="10.4488867"><ele>234.0</ele><time>2026-03-29T08:02:43.989Z</time></trkpt><trkpt lat="45.5435312" lon="10.4487411"><ele>233.39999999999998</ele><time>2026-03-29T08:02:45.988Z</time></trkpt><trkpt lat="45.5434935" lon="10.4486441"><ele>232.79999999999998</ele><time>2026-03-29T08:02:46.988Z</time></trkpt><trkpt lat="45.5434394" lon="10.448546"><ele>232.20000000000002</ele><time>2026-03-29T08:02:47.989Z</time></trkpt><trkpt lat="45.5433789" lon="10.4484328"><ele>231.60000000000002</ele><time>2026-03-29T08:02:48.989Z</time></trkpt><trkpt lat="45.5433177" lon="10.4483235"><ele>231.0</ele><time>2026-03-29T08:02:49.989Z</time></trkpt><trkpt lat="45.5432521" lon="10.448224"><ele>231.0</ele><time>2026-03-29T08:02:50.989Z</time></trkpt><trkpt lat="45.5431862" lon="10.4481332"><ele>231.0</ele><time>2026-03-29T08:02:51.988Z</time></trkpt><trkpt lat="45.5431186" lon="10.4480538"><ele>231.0</ele><time>2026-03-29T08:02:52.988Z</time></trkpt><trkpt lat="45.543052" lon="10.4479764"><ele>231.0</ele><time>2026-03-29T08:02:53.989Z</time></trkpt><trkpt lat="45.5429988" lon="10.4478962"><ele>231.0</ele><time>2026-03-29T08:02:54.989Z</time></trkpt><trkpt lat="45.5429529" lon="10.4478264"><ele>231.0</ele><time>2026-03-29T08:02:55.988Z</time></trkpt><trkpt lat="45.5429241" lon="10.4477111"><ele>230.20000000000002</ele><time>2026-03-29T08:02:58.988Z</time></trkpt><trkpt lat="45.5429089" lon="10.447582"><ele>229.40000000000003</ele><time>2026-03-29T08:03:00.988Z</time></trkpt><trkpt lat="45.5429604" lon="10.4474893"><ele>228.6</ele><time>2026-03-29T08:03:02.989Z</time></trkpt><trkpt lat="45.5430524" lon="10.4473422"><ele>227.8</ele><time>2026-03-29T08:03:04.989Z</time></trkpt><trkpt lat="45.5431044" lon="10.4472576"><ele>227.0</ele><time>2026-03-29T08:03:05.988Z</time></trkpt><trkpt lat="45.5431617" lon="10.4471652"><ele>227.00000000000003</ele><time>2026-03-29T08:03:06.989Z</time></trkpt><trkpt lat="45.5432242" lon="10.4470847"><ele>227.0</ele><time>2026-03-29T08:03:07.988Z</time></trkpt><trkpt lat="45.543293" lon="10.4470057"><ele>227.0</ele><time>2026-03-29T08:03:08.989Z</time></trkpt><trkpt lat="45.5433611" lon="10.4469238"><ele>227.0</ele><time>2026-03-29T08:03:09.988Z</time></trkpt><trkpt lat="45.5434259" lon="10.4468289"><ele>227.00000000000003</ele><time>2026-03-29T08:03:10.989Z</time></trkpt><trkpt lat="45.5434864" lon="10.4467264"><ele>227.0</ele><time>2026-03-29T08:03:11.989Z</time></trkpt><trkpt lat="45.543538" lon="10.4466284"><ele>227.00000000000003</ele><time>2026-03-29T08:03:12.988Z</time></trkpt><trkpt lat="45.5435778" lon="10.4465522"><ele>227.0</ele><time>2026-03-29T08:03:13.988Z</time></trkpt><trkpt lat="45.5436227" lon="10.4464578"><ele>227.0</ele><time>2026-03-29T08:03:15.988Z</time></trkpt><trkpt lat="45.5436466" lon="10.4463179"><ele>227.0</ele><time>2026-03-29T08:03:21.988Z</time></trkpt><trkpt lat="45.5436259" lon="10.4462188"><ele>227.00000000000003</ele><time>2026-03-29T08:03:22.989Z</time></trkpt><trkpt lat="45.5435748" lon="10.4461048"><ele>227.0</ele><time>2026-03-29T08:03:23.989Z</time></trkpt><trkpt lat="45.5435117" lon="10.4459703"><ele>227.5</ele><time>2026-03-29T08:03:24.989Z</time></trkpt><trkpt lat="45.5434503" lon="10.4458153"><ele>228.0</ele><time>2026-03-29T08:03:25.989Z</time></trkpt><trkpt lat="45.5433832" lon="10.4456569"><ele>228.5</ele><time>2026-03-29T08:03:26.988Z</time></trkpt><trkpt lat="45.5433093" lon="10.4454873"><ele>229.0</ele><time>2026-03-29T08:03:27.989Z</time></trkpt><trkpt lat="45.5432344" lon="10.4453185"><ele>229.5</ele><time>2026-03-29T08:03:28.988Z</time></trkpt><trkpt lat="45.54316" lon="10.4451473"><ele>230.0</ele><time>2026-03-29T08:03:29.989Z</time></trkpt><trkpt lat="45.5430881" lon="10.4449734"><ele>230.5</ele><time>2026-03-29T08:03:30.989Z</time></trkpt><trkpt lat="45.5430149" lon="10.4447998"><ele>231.0</ele><time>2026-03-29T08:03:31.988Z</time></trkpt><trkpt lat="45.5429407" lon="10.4446256"><ele>229.75</ele><time>2026-03-29T08:03:32.989Z</time></trkpt><trkpt lat="45.5428689" lon="10.4444566"><ele>228.5</ele><time>2026-03-29T08:03:33.988Z</time></trkpt><trkpt lat="45.542802" lon="10.444284"><ele>227.25</ele><time>2026-03-29T08:03:34.989Z</time></trkpt><trkpt lat="45.5427287" lon="10.4441142"><ele>226.0</ele><time>2026-03-29T08:03:35.988Z</time></trkpt><trkpt lat="45.5426397" lon="10.4439539"><ele>226.0</ele><time>2026-03-29T08:03:36.989Z</time></trkpt><trkpt lat="45.542529" lon="10.4438177"><ele>226.0</ele><time>2026-03-29T08:03:37.989Z</time></trkpt><trkpt lat="45.5424101" lon="10.4437015"><ele>226.0</ele><time>2026-03-29T08:03:38.989Z</time></trkpt><trkpt lat="45.54229" lon="10.4436129"><ele>226.0</ele><time>2026-03-29T08:03:39.989Z</time></trkpt><trkpt lat="45.5421657" lon="10.443555"><ele>224.33333333333331</ele><time>2026-03-29T08:03:40.989Z</time></trkpt><trkpt lat="45.5420504" lon="10.4435164"><ele>222.66666666666666</ele><time>2026-03-29T08:03:41.989Z</time></trkpt><trkpt lat="45.5419556" lon="10.4434926"><ele>221.0</ele><time>2026-03-29T08:03:42.988Z</time></trkpt><trkpt lat="45.5418794" lon="10.4434846"><ele>219.33333333333331</ele><time>2026-03-29T08:03:43.988Z</time></trkpt><trkpt lat="45.541818" lon="10.4435099"><ele>217.66666666666666</ele><time>2026-03-29T08:03:44.99Z</time></trkpt><trkpt lat="45.5417722" lon="10.4435779"><ele>216.0</ele><time>2026-03-29T08:03:45.988Z</time></trkpt><trkpt lat="45.5417371" lon="10.4436935"><ele>217.75</ele><time>2026-03-29T08:03:46.989Z</time></trkpt><trkpt lat="45.5417066" lon="10.4438401"><ele>219.5</ele><time>2026-03-29T08:03:47.988Z</time></trkpt><trkpt lat="45.5416679" lon="10.4440006"><ele>221.25</ele><time>2026-03-29T08:03:48.989Z</time></trkpt><trkpt lat="45.5416238" lon="10.4441608"><ele>223.0</ele><time>2026-03-29T08:03:49.989Z</time></trkpt><trkpt lat="45.5415834" lon="10.444319"><ele>223.0</ele><time>2026-03-29T08:03:50.988Z</time></trkpt><trkpt lat="45.5415401" lon="10.4444736"><ele>223.0</ele><time>2026-03-29T08:03:51.989Z</time></trkpt><trkpt lat="45.5414961" lon="10.4446288"><ele>223.0</ele><time>2026-03-29T08:03:52.989Z</time></trkpt><trkpt lat="45.5414522" lon="10.4447881"><ele>223.0</ele><time>2026-03-29T08:03:53.99Z</time></trkpt><trkpt lat="45.5414123" lon="10.4449442"><ele>223.4</ele><time>2026-03-29T08:03:54.988Z</time></trkpt><trkpt lat="45.5413701" lon="10.4450942"><ele>223.8</ele><time>2026-03-29T08:03:55.989Z</time></trkpt><trkpt lat="45.54133" lon="10.4452384"><ele>224.2</ele><time>2026-03-29T08:03:56.988Z</time></trkpt><trkpt lat="45.5412945" lon="10.4453685"><ele>224.6</ele><time>2026-03-29T08:03:57.989Z</time></trkpt><trkpt lat="45.5412595" lon="10.445481"><ele>225.0</ele><time>2026-03-29T08:03:58.989Z</time></trkpt><trkpt lat="45.5412166" lon="10.4455792"><ele>224.8</ele><time>2026-03-29T08:03:59.988Z</time></trkpt><trkpt lat="45.5411542" lon="10.4456502"><ele>224.6</ele><time>2026-03-29T08:04:00.989Z</time></trkpt><trkpt lat="45.5410744" lon="10.4456973"><ele>224.39999999999998</ele><time>2026-03-29T08:04:01.989Z</time></trkpt><trkpt lat="45.5409758" lon="10.4457081"><ele>224.2</ele><time>2026-03-29T08:04:02.989Z</time></trkpt><trkpt lat="45.5408625" lon="10.4456799"><ele>224.0</ele><time>2026-03-29T08:04:03.988Z</time></trkpt><trkpt lat="45.5407432" lon="10.4456384"><ele>224.0</ele><time>2026-03-29T08:04:04.989Z</time></trkpt><trkpt lat="45.540616" lon="10.445596"><ele>224.0</ele><time>2026-03-29T08:04:05.989Z</time></trkpt><trkpt lat="45.5404827" lon="10.4455516"><ele>224.0</ele><time>2026-03-29T08:04:06.989Z</time></trkpt><trkpt lat="45.5403456" lon="10.44551"><ele>224.0</ele><time>2026-03-29T08:04:07.989Z</time></trkpt><trkpt lat="45.540212" lon="10.4454642"><ele>223.25</ele><time>2026-03-29T08:04:08.988Z</time></trkpt><trkpt lat="45.5400775" lon="10.4454246"><ele>222.5</ele><time>2026-03-29T08:04:09.989Z</time></trkpt><trkpt lat="45.5399455" lon="10.4453779"><ele>221.75</ele><time>2026-03-29T08:04:10.989Z</time></trkpt><trkpt lat="45.5398177" lon="10.4453334"><ele>221.0</ele><time>2026-03-29T08:04:11.988Z</time></trkpt><trkpt lat="45.5396902" lon="10.4452864"><ele>221.0</ele><time>2026-03-29T08:04:12.989Z</time></trkpt><trkpt lat="45.5395641" lon="10.4452419"><ele>221.0</ele><time>2026-03-29T08:04:13.988Z</time></trkpt><trkpt lat="45.5394354" lon="10.4452023"><ele>221.0</ele><time>2026-03-29T08:04:14.989Z</time></trkpt><trkpt lat="45.5393111" lon="10.4451593"><ele>221.0</ele><time>2026-03-29T08:04:15.989Z</time></trkpt><trkpt lat="45.5391925" lon="10.4451136"><ele>221.0</ele><time>2026-03-29T08:04:16.989Z</time></trkpt><trkpt lat="45.5390904" lon="10.4450602"><ele>221.00000000000003</ele><time>2026-03-29T08:04:17.989Z</time></trkpt><trkpt lat="45.5390013" lon="10.4449847"><ele>221.00000000000003</ele><time>2026-03-29T08:04:18.989Z</time></trkpt><trkpt lat="45.538906" lon="10.4449241"><ele>221.0</ele><time>2026-03-29T08:04:19.989Z</time></trkpt><trkpt lat="45.5387903" lon="10.444918"><ele>221.0</ele><time>2026-03-29T08:04:20.989Z</time></trkpt><trkpt lat="45.5386671" lon="10.4449103"><ele>221.0</ele><time>2026-03-29T08:04:21.989Z</time></trkpt><trkpt lat="45.5385408" lon="10.4448727"><ele>221.0</ele><time>2026-03-29T08:04:22.989Z</time></trkpt><trkpt lat="45.5384099" lon="10.4448252"><ele>221.0</ele><time>2026-03-29T08:04:23.989Z</time></trkpt><trkpt lat="45.538275" lon="10.4447786"><ele>221.0</ele><time>2026-03-29T08:04:24.988Z</time></trkpt><trkpt lat="45.5381424" lon="10.4447323"><ele>221.0</ele><time>2026-03-29T08:04:25.988Z</time></trkpt><trkpt lat="45.5380098" lon="10.4446877"><ele>221.0</ele><time>2026-03-29T08:04:26.989Z</time></trkpt><trkpt lat="45.5378776" lon="10.4446412"><ele>221.0</ele><time>2026-03-29T08:04:27.989Z</time></trkpt><trkpt lat="45.5377436" lon="10.4445917"><ele>221.0</ele><time>2026-03-29T08:04:28.988Z</time></trkpt><trkpt lat="45.5376103" lon="10.4445418"><ele>220.25</ele><time>2026-03-29T08:04:29.989Z</time></trkpt><trkpt lat="45.5374754" lon="10.4444906"><ele>219.5</ele><time>2026-03-29T08:04:30.989Z</time></trkpt><trkpt lat="45.5373416" lon="10.4444426"><ele>218.75</ele><time>2026-03-29T08:04:31.989Z</time></trkpt><trkpt lat="45.5372069" lon="10.4443952"><ele>218.0</ele><time>2026-03-29T08:04:32.989Z</time></trkpt><trkpt lat="45.5370734" lon="10.4443568"><ele>217.5</ele><time>2026-03-29T08:04:33.989Z</time></trkpt><trkpt lat="45.5369371" lon="10.4443282"><ele>217.0</ele><time>2026-03-29T08:04:34.988Z</time></trkpt><trkpt lat="45.5367924" lon="10.444318"><ele>216.5</ele><time>2026-03-29T08:04:35.989Z</time></trkpt><trkpt lat="45.5366482" lon="10.4443129"><ele>216.0</ele><time>2026-03-29T08:04:36.989Z</time></trkpt><trkpt lat="45.5365008" lon="10.4443137"><ele>216.0</ele><time>2026-03-29T08:04:37.989Z</time></trkpt><trkpt lat="45.5363511" lon="10.444324"><ele>216.0</ele><time>2026-03-29T08:04:38.988Z</time></trkpt><trkpt lat="45.5362024" lon="10.4443352"><ele>216.0</ele><time>2026-03-29T08:04:39.989Z</time></trkpt><trkpt lat="45.5360497" lon="10.4443456"><ele>214.66666666666669</ele><time>2026-03-29T08:04:40.989Z</time></trkpt><trkpt lat="45.5358953" lon="10.4443519"><ele>213.33333333333334</ele><time>2026-03-29T08:04:41.988Z</time></trkpt><trkpt lat="45.5357462" lon="10.4443517"><ele>212.0</ele><time>2026-03-29T08:04:42.989Z</time></trkpt><trkpt lat="45.5356001" lon="10.4443558"><ele>212.0</ele><time>2026-03-29T08:04:43.989Z</time></trkpt><trkpt lat="45.535455" lon="10.444359"><ele>212.0</ele><time>2026-03-29T08:04:44.989Z</time></trkpt><trkpt lat="45.5353144" lon="10.4443453"><ele>212.0</ele><time>2026-03-29T08:04:45.989Z</time></trkpt><trkpt lat="45.5351717" lon="10.4443165"><ele>212.0</ele><time>2026-03-29T08:04:46.989Z</time></trkpt><trkpt lat="45.5350348" lon="10.4442687"><ele>211.75</ele><time>2026-03-29T08:04:47.988Z</time></trkpt><trkpt lat="45.5349076" lon="10.444214"><ele>211.5</ele><time>2026-03-29T08:04:48.989Z</time></trkpt><trkpt lat="45.5347835" lon="10.4441525"><ele>211.25</ele><time>2026-03-29T08:04:49.988Z</time></trkpt><trkpt lat="45.5346663" lon="10.4440746"><ele>211.0</ele><time>2026-03-29T08:04:50.989Z</time></trkpt><trkpt lat="45.5345446" lon="10.444005"><ele>211.0</ele><time>2026-03-29T08:04:51.989Z</time></trkpt><trkpt lat="45.5344142" lon="10.4439518"><ele>211.0</ele><time>2026-03-29T08:04:52.989Z</time></trkpt><trkpt lat="45.5342821" lon="10.4439106"><ele>211.0</ele><time>2026-03-29T08:04:53.989Z</time></trkpt><trkpt lat="45.5341445" lon="10.4438872"><ele>211.0</ele><time>2026-03-29T08:04:54.988Z</time></trkpt><trkpt lat="45.5340095" lon="10.4438757"><ele>211.0</ele><time>2026-03-29T08:04:55.988Z</time></trkpt><trkpt lat="45.5338739" lon="10.4438709"><ele>211.0</ele><time>2026-03-29T08:04:56.989Z</time></trkpt><trkpt lat="45.5337356" lon="10.4438645"><ele>211.0</ele><time>2026-03-29T08:04:57.989Z</time></trkpt><trkpt lat="45.5335954" lon="10.4438639"><ele>211.0</ele><time>2026-03-29T08:04:58.989Z</time></trkpt><trkpt lat="45.5334548" lon="10.4438602"><ele>211.0</ele><time>2026-03-29T08:04:59.989Z</time></trkpt><trkpt lat="45.5333106" lon="10.4438464"><ele>211.0</ele><time>2026-03-29T08:05:00.989Z</time></trkpt><trkpt lat="45.533169" lon="10.443839"><ele>211.0</ele><time>2026-03-29T08:05:01.989Z</time></trkpt><trkpt lat="45.5330248" lon="10.4438301"><ele>211.0</ele><time>2026-03-29T08:05:02.989Z</time></trkpt><trkpt lat="45.5328809" lon="10.4438235"><ele>211.0</ele><time>2026-03-29T08:05:03.989Z</time></trkpt><trkpt lat="45.5327354" lon="10.443814"><ele>211.0</ele><time>2026-03-29T08:05:04.989Z</time></trkpt><trkpt lat="45.5325875" lon="10.4438045"><ele>211.0</ele><time>2026-03-29T08:05:05.989Z</time></trkpt><trkpt lat="45.5324416" lon="10.443778"><ele>211.0</ele><time>2026-03-29T08:05:06.988Z</time></trkpt><trkpt lat="45.532291" lon="10.4437477"><ele>210.5</ele><time>2026-03-29T08:05:07.989Z</time></trkpt><trkpt lat="45.532144" lon="10.4437135"><ele>210.0</ele><time>2026-03-29T08:05:08.988Z</time></trkpt><trkpt lat="45.5319957" lon="10.4436831"><ele>209.5</ele><time>2026-03-29T08:05:09.988Z</time></trkpt><trkpt lat="45.5318524" lon="10.443654"><ele>209.0</ele><time>2026-03-29T08:05:10.989Z</time></trkpt><trkpt lat="45.5317108" lon="10.4436289"><ele>209.0</ele><time>2026-03-29T08:05:11.989Z</time></trkpt><trkpt lat="45.5315677" lon="10.4436"><ele>209.0</ele><time>2026-03-29T08:05:12.989Z</time></trkpt><trkpt lat="45.5314314" lon="10.4435752"><ele>209.0</ele><time>2026-03-29T08:05:13.989Z</time></trkpt><trkpt lat="45.5313035" lon="10.4435458"><ele>209.0</ele><time>2026-03-29T08:05:14.988Z</time></trkpt><trkpt lat="45.5311769" lon="10.4435129"><ele>209.0</ele><time>2026-03-29T08:05:15.989Z</time></trkpt><trkpt lat="45.5310587" lon="10.443474"><ele>209.0</ele><time>2026-03-29T08:05:16.988Z</time></trkpt><trkpt lat="45.5309526" lon="10.4434217"><ele>209.0</ele><time>2026-03-29T08:05:17.988Z</time></trkpt><trkpt lat="45.5308662" lon="10.443352"><ele>209.0</ele><time>2026-03-29T08:05:18.989Z</time></trkpt><trkpt lat="45.5307947" lon="10.4432643"><ele>209.0</ele><time>2026-03-29T08:05:19.989Z</time></trkpt><trkpt lat="45.5307345" lon="10.443175"><ele>209.00000000000003</ele><time>2026-03-29T08:05:20.989Z</time></trkpt><trkpt lat="45.5306728" lon="10.443106"><ele>209.0</ele><time>2026-03-29T08:05:21.989Z</time></trkpt><trkpt lat="45.5306003" lon="10.4430615"><ele>209.0</ele><time>2026-03-29T08:05:22.989Z</time></trkpt><trkpt lat="45.5305287" lon="10.4430698"><ele>209.0</ele><time>2026-03-29T08:05:23.989Z</time></trkpt><trkpt lat="45.5304682" lon="10.4431312"><ele>209.00000000000003</ele><time>2026-03-29T08:05:24.989Z</time></trkpt><trkpt lat="45.5304292" lon="10.4432302"><ele>209.0</ele><time>2026-03-29T08:05:25.989Z</time></trkpt><trkpt lat="45.530423" lon="10.4433529"><ele>209.0</ele><time>2026-03-29T08:05:26.989Z</time></trkpt><trkpt lat="45.5304473" lon="10.443479"><ele>209.0</ele><time>2026-03-29T08:05:27.989Z</time></trkpt><trkpt lat="45.5304896" lon="10.4436147"><ele>209.0</ele><time>2026-03-29T08:05:28.989Z</time></trkpt><trkpt lat="45.5305274" lon="10.4437618"><ele>209.0</ele><time>2026-03-29T08:05:29.988Z</time></trkpt><trkpt lat="45.5305376" lon="10.4439295"><ele>209.0</ele><time>2026-03-29T08:05:30.988Z</time></trkpt><trkpt lat="45.5305233" lon="10.4440966"><ele>209.0</ele><time>2026-03-29T08:05:31.989Z</time></trkpt><trkpt lat="45.5304984" lon="10.4442687"><ele>209.0</ele><time>2026-03-29T08:05:32.988Z</time></trkpt><trkpt lat="45.5304647" lon="10.4444433"><ele>209.0</ele><time>2026-03-29T08:05:33.988Z</time></trkpt><trkpt lat="45.5304263" lon="10.4446244"><ele>209.0</ele><time>2026-03-29T08:05:34.989Z</time></trkpt><trkpt lat="45.5303922" lon="10.4448117"><ele>210.0</ele><time>2026-03-29T08:05:35.989Z</time></trkpt><trkpt lat="45.5303585" lon="10.4450108"><ele>211.0</ele><time>2026-03-29T08:05:36.989Z</time></trkpt><trkpt lat="45.5303231" lon="10.445214"><ele>212.0</ele><time>2026-03-29T08:05:37.988Z</time></trkpt><trkpt lat="45.5302847" lon="10.4454131"><ele>213.0</ele><time>2026-03-29T08:05:38.989Z</time></trkpt><trkpt lat="45.5302447" lon="10.4456244"><ele>213.0</ele><time>2026-03-29T08:05:39.988Z</time></trkpt><trkpt lat="45.5302033" lon="10.4458355"><ele>213.0</ele><time>2026-03-29T08:05:40.989Z</time></trkpt><trkpt lat="45.5301587" lon="10.4460464"><ele>213.0</ele><time>2026-03-29T08:05:41.99Z</time></trkpt><trkpt lat="45.5301125" lon="10.446253"><ele>212.75</ele><time>2026-03-29T08:05:42.988Z</time></trkpt><trkpt lat="45.5300612" lon="10.4464541"><ele>212.5</ele><time>2026-03-29T08:05:43.989Z</time></trkpt><trkpt lat="45.5300062" lon="10.4466453"><ele>212.25</ele><time>2026-03-29T08:05:44.989Z</time></trkpt><trkpt lat="45.5299411" lon="10.4468257"><ele>212.0</ele><time>2026-03-29T08:05:45.988Z</time></trkpt><trkpt lat="45.529859" lon="10.446992"><ele>211.5</ele><time>2026-03-29T08:05:46.99Z</time></trkpt><trkpt lat="45.5297547" lon="10.4471346"><ele>211.0</ele><time>2026-03-29T08:05:47.989Z</time></trkpt><trkpt lat="45.5296355" lon="10.4472593"><ele>210.5</ele><time>2026-03-29T08:05:48.989Z</time></trkpt><trkpt lat="45.5295076" lon="10.4473708"><ele>210.0</ele><time>2026-03-29T08:05:49.988Z</time></trkpt><trkpt lat="45.5293787" lon="10.4474833"><ele>211.0</ele><time>2026-03-29T08:05:50.988Z</time></trkpt><trkpt lat="45.5292514" lon="10.4475945"><ele>212.0</ele><time>2026-03-29T08:05:51.989Z</time></trkpt><trkpt lat="45.5291263" lon="10.4477091"><ele>213.0</ele><time>2026-03-29T08:05:52.989Z</time></trkpt><trkpt lat="45.5290064" lon="10.4478268"><ele>214.0</ele><time>2026-03-29T08:05:53.989Z</time></trkpt><trkpt lat="45.5288911" lon="10.4479553"><ele>212.5</ele><time>2026-03-29T08:05:54.989Z</time></trkpt><trkpt lat="45.5287899" lon="10.4480985"><ele>211.0</ele><time>2026-03-29T08:05:55.988Z</time></trkpt><trkpt lat="45.5287006" lon="10.4482662"><ele>209.5</ele><time>2026-03-29T08:05:56.988Z</time></trkpt><trkpt lat="45.5286305" lon="10.4484483"><ele>208.0</ele><time>2026-03-29T08:05:57.989Z</time></trkpt><trkpt lat="45.5285796" lon="10.4486363"><ele>208.0</ele><time>2026-03-29T08:05:58.989Z</time></trkpt><trkpt lat="45.5285508" lon="10.4488326"><ele>208.0</ele><time>2026-03-29T08:05:59.989Z</time></trkpt><trkpt lat="45.5285444" lon="10.4490311"><ele>208.0</ele><time>2026-03-29T08:06:00.989Z</time></trkpt><trkpt lat="45.5285506" lon="10.449233"><ele>208.0</ele><time>2026-03-29T08:06:01.989Z</time></trkpt><trkpt lat="45.5285561" lon="10.449435"><ele>208.25</ele><time>2026-03-29T08:06:02.988Z</time></trkpt><trkpt lat="45.5285587" lon="10.4496412"><ele>208.5</ele><time>2026-03-29T08:06:03.988Z</time></trkpt><trkpt lat="45.5285566" lon="10.4498519"><ele>208.75</ele><time>2026-03-29T08:06:04.989Z</time></trkpt><trkpt lat="45.528543" lon="10.4500591"><ele>209.0</ele><time>2026-03-29T08:06:05.988Z</time></trkpt><trkpt lat="45.5285147" lon="10.4502589"><ele>209.0</ele><time>2026-03-29T08:06:06.989Z</time></trkpt><trkpt lat="45.5284713" lon="10.4504459"><ele>209.0</ele><time>2026-03-29T08:06:07.988Z</time></trkpt><trkpt lat="45.5284189" lon="10.45063"><ele>209.0</ele><time>2026-03-29T08:06:08.989Z</time></trkpt><trkpt lat="45.5283538" lon="10.450804"><ele>209.0</ele><time>2026-03-29T08:06:09.988Z</time></trkpt><trkpt lat="45.5282756" lon="10.4509646"><ele>208.75</ele><time>2026-03-29T08:06:10.988Z</time></trkpt><trkpt lat="45.5281833" lon="10.45111"><ele>208.5</ele><time>2026-03-29T08:06:11.988Z</time></trkpt><trkpt lat="45.5280851" lon="10.4512415"><ele>208.25</ele><time>2026-03-29T08:06:12.989Z</time></trkpt><trkpt lat="45.5279846" lon="10.4513698"><ele>208.0</ele><time>2026-03-29T08:06:13.99Z</time></trkpt><trkpt lat="45.5278945" lon="10.4514868"><ele>208.0</ele><time>2026-03-29T08:06:14.989Z</time></trkpt><trkpt lat="45.5278095" lon="10.4516001"><ele>208.0</ele><time>2026-03-29T08:06:15.989Z</time></trkpt><trkpt lat="45.5277241" lon="10.4517145"><ele>208.0</ele><time>2026-03-29T08:06:16.988Z</time></trkpt><trkpt lat="45.5276431" lon="10.451828"><ele>208.0</ele><time>2026-03-29T08:06:17.988Z</time></trkpt><trkpt lat="45.5275692" lon="10.4519514"><ele>208.0</ele><time>2026-03-29T08:06:18.988Z</time></trkpt><trkpt lat="45.5274983" lon="10.4520783"><ele>208.0</ele><time>2026-03-29T08:06:19.989Z</time></trkpt><trkpt lat="45.5274337" lon="10.4522141"><ele>208.0</ele><time>2026-03-29T08:06:20.99Z</time></trkpt><trkpt lat="45.5273724" lon="10.4523516"><ele>208.0</ele><time>2026-03-29T08:06:21.989Z</time></trkpt><trkpt lat="45.5273171" lon="10.4524801"><ele>208.0</ele><time>2026-03-29T08:06:22.989Z</time></trkpt><trkpt lat="45.5272674" lon="10.4525936"><ele>208.16666666666666</ele><time>2026-03-29T08:06:23.988Z</time></trkpt><trkpt lat="45.5272216" lon="10.4526979"><ele>208.33333333333331</ele><time>2026-03-29T08:06:24.989Z</time></trkpt><trkpt lat="45.5271787" lon="10.4527877"><ele>208.5</ele><time>2026-03-29T08:06:25.988Z</time></trkpt><trkpt lat="45.5271321" lon="10.45288"><ele>208.66666666666669</ele><time>2026-03-29T08:06:26.99Z</time></trkpt><trkpt lat="45.5270836" lon="10.4529789"><ele>208.83333333333334</ele><time>2026-03-29T08:06:27.989Z</time></trkpt><trkpt lat="45.5270255" lon="10.4530932"><ele>209.0</ele><time>2026-03-29T08:06:28.988Z</time></trkpt><trkpt lat="45.5269604" lon="10.4532242"><ele>208.25</ele><time>2026-03-29T08:06:29.989Z</time></trkpt><trkpt lat="45.5268849" lon="10.4533556"><ele>207.5</ele><time>2026-03-29T08:06:30.989Z</time></trkpt><trkpt lat="45.5268037" lon="10.4534844"><ele>206.75</ele><time>2026-03-29T08:06:31.988Z</time></trkpt><trkpt lat="45.5267174" lon="10.4536064"><ele>206.0</ele><time>2026-03-29T08:06:32.989Z</time></trkpt><trkpt lat="45.5266345" lon="10.4537286"><ele>206.5</ele><time>2026-03-29T08:06:33.988Z</time></trkpt><trkpt lat="45.5265568" lon="10.4538539"><ele>207.0</ele><time>2026-03-29T08:06:34.989Z</time></trkpt><trkpt lat="45.5264892" lon="10.4539906"><ele>207.5</ele><time>2026-03-29T08:06:35.988Z</time></trkpt><trkpt lat="45.5264336" lon="10.4541398"><ele>208.0</ele><time>2026-03-29T08:06:36.989Z</time></trkpt><trkpt lat="45.5263852" lon="10.4542907"><ele>208.0</ele><time>2026-03-29T08:06:37.989Z</time></trkpt><trkpt lat="45.5263355" lon="10.4544379"><ele>208.0</ele><time>2026-03-29T08:06:38.989Z</time></trkpt><trkpt lat="45.5262818" lon="10.4545844"><ele>208.0</ele><time>2026-03-29T08:06:39.989Z</time></trkpt><trkpt lat="45.5262287" lon="10.4547217"><ele>208.0</ele><time>2026-03-29T08:06:40.988Z</time></trkpt><trkpt lat="45.5261733" lon="10.4548592"><ele>207.25</ele><time>2026-03-29T08:06:41.99Z</time></trkpt><trkpt lat="45.5261227" lon="10.4549955"><ele>206.5</ele><time>2026-03-29T08:06:42.989Z</time></trkpt><trkpt lat="45.5260688" lon="10.4551372"><ele>205.75</ele><time>2026-03-29T08:06:43.988Z</time></trkpt><trkpt lat="45.5260132" lon="10.4552827"><ele>205.0</ele><time>2026-03-29T08:06:44.989Z</time></trkpt><trkpt lat="45.5259604" lon="10.4554289"><ele>205.0</ele><time>2026-03-29T08:06:45.988Z</time></trkpt><trkpt lat="45.5259142" lon="10.4555643"><ele>205.0</ele><time>2026-03-29T08:06:46.99Z</time></trkpt><trkpt lat="45.5258705" lon="10.4556853"><ele>205.0</ele><time>2026-03-29T08:06:47.989Z</time></trkpt><trkpt lat="45.5258328" lon="10.4557931"><ele>205.0</ele><time>2026-03-29T08:06:48.988Z</time></trkpt><trkpt lat="45.5257917" lon="10.4559055"><ele>205.0</ele><time>2026-03-29T08:06:49.988Z</time></trkpt><trkpt lat="45.525752" lon="10.4560128"><ele>205.0</ele><time>2026-03-29T08:06:50.989Z</time></trkpt><trkpt lat="45.5257152" lon="10.4561134"><ele>205.0</ele><time>2026-03-29T08:06:51.989Z</time></trkpt><trkpt lat="45.5256861" lon="10.4561973"><ele>205.0</ele><time>2026-03-29T08:06:52.989Z</time></trkpt><trkpt lat="45.5256553" lon="10.4562774"><ele>205.0</ele><time>2026-03-29T08:06:53.989Z</time></trkpt><trkpt lat="45.5256212" lon="10.4563611"><ele>205.0</ele><time>2026-03-29T08:06:54.989Z</time></trkpt><trkpt lat="45.5255784" lon="10.4564437"><ele>205.0</ele><time>2026-03-29T08:06:55.989Z</time></trkpt><trkpt lat="45.5255334" lon="10.4565326"><ele>205.0</ele><time>2026-03-29T08:06:56.989Z</time></trkpt><trkpt lat="45.5254839" lon="10.4566268"><ele>205.0</ele><time>2026-03-29T08:06:57.988Z</time></trkpt><trkpt lat="45.5254353" lon="10.4567309"><ele>205.0</ele><time>2026-03-29T08:06:58.988Z</time></trkpt><trkpt lat="45.5253814" lon="10.4568361"><ele>205.0</ele><time>2026-03-29T08:06:59.989Z</time></trkpt><trkpt lat="45.5253262" lon="10.45695"><ele>205.0</ele><time>2026-03-29T08:07:00.988Z</time></trkpt><trkpt lat="45.5252757" lon="10.4570563"><ele>205.0</ele><time>2026-03-29T08:07:01.988Z</time></trkpt><trkpt lat="45.5252186" lon="10.4571589"><ele>204.66666666666666</ele><time>2026-03-29T08:07:02.989Z</time></trkpt><trkpt lat="45.5251644" lon="10.4572621"><ele>204.33333333333331</ele><time>2026-03-29T08:07:03.989Z</time></trkpt><trkpt lat="45.5251205" lon="10.4573508"><ele>204.0</ele><time>2026-03-29T08:07:04.989Z</time></trkpt><trkpt lat="45.5250696" lon="10.4574521"><ele>203.66666666666669</ele><time>2026-03-29T08:07:05.989Z</time></trkpt><trkpt lat="45.5250142" lon="10.457554"><ele>203.33333333333334</ele><time>2026-03-29T08:07:06.99Z</time></trkpt><trkpt lat="45.5249605" lon="10.4576589"><ele>203.0</ele><time>2026-03-29T08:07:07.989Z</time></trkpt><trkpt lat="45.5249066" lon="10.4577653"><ele>203.00000000000003</ele><time>2026-03-29T08:07:08.989Z</time></trkpt><trkpt lat="45.5248514" lon="10.4578769"><ele>203.0</ele><time>2026-03-29T08:07:09.988Z</time></trkpt><trkpt lat="45.5247956" lon="10.4579885"><ele>203.0</ele><time>2026-03-29T08:07:10.988Z</time></trkpt><trkpt lat="45.5247466" lon="10.4580939"><ele>203.0</ele><time>2026-03-29T08:07:11.989Z</time></trkpt><trkpt lat="45.5247097" lon="10.4581879"><ele>203.00000000000003</ele><time>2026-03-29T08:07:12.989Z</time></trkpt><trkpt lat="45.5246753" lon="10.4582785"><ele>203.0</ele><time>2026-03-29T08:07:13.989Z</time></trkpt><trkpt lat="45.5246384" lon="10.4583559"><ele>203.00000000000003</ele><time>2026-03-29T08:07:14.989Z</time></trkpt><trkpt lat="45.5245997" lon="10.4584305"><ele>203.0</ele><time>2026-03-29T08:07:15.989Z</time></trkpt><trkpt lat="45.5245216" lon="10.4585436"><ele>203.0</ele><time>2026-03-29T08:07:17.989Z</time></trkpt><trkpt lat="45.524441" lon="10.4586229"><ele>203.0</ele><time>2026-03-29T08:07:19.988Z</time></trkpt><trkpt lat="45.5244294" lon="10.4587183"><ele>203.00000000000003</ele><time>2026-03-29T08:07:21.988Z</time></trkpt><trkpt lat="45.5244905" lon="10.4586407"><ele>203.0</ele><time>2026-03-29T08:07:24.988Z</time></trkpt><trkpt lat="45.5245443" lon="10.4585354"><ele>203.00000000000003</ele><time>2026-03-29T08:07:26.989Z</time></trkpt><trkpt lat="45.5246004" lon="10.4584695"><ele>203.0</ele><time>2026-03-29T08:07:28.989Z</time></trkpt><trkpt lat="45.5246735" lon="10.4583352"><ele>203.0</ele><time>2026-03-29T08:07:30.988Z</time></trkpt><trkpt lat="45.5247119" lon="10.4582543"><ele>203.0</ele><time>2026-03-29T08:07:31.988Z</time></trkpt><trkpt lat="45.5247574" lon="10.4581629"><ele>203.00000000000003</ele><time>2026-03-29T08:07:32.989Z</time></trkpt><trkpt lat="45.524801" lon="10.4580652"><ele>203.0</ele><time>2026-03-29T08:07:33.989Z</time></trkpt><trkpt lat="45.5248492" lon="10.4579578"><ele>203.0</ele><time>2026-03-29T08:07:34.988Z</time></trkpt><trkpt lat="45.5249028" lon="10.4578388"><ele>203.0</ele><time>2026-03-29T08:07:35.988Z</time></trkpt><trkpt lat="45.5249618" lon="10.4577227"><ele>203.0</ele><time>2026-03-29T08:07:36.988Z</time></trkpt><trkpt lat="45.5250073" lon="10.4576287"><ele>203.0</ele><time>2026-03-29T08:07:37.989Z</time></trkpt><trkpt lat="45.5250546" lon="10.4574922"><ele>203.0</ele><time>2026-03-29T08:07:39.989Z</time></trkpt><trkpt lat="45.5249962" lon="10.4573849"><ele>203.00000000000003</ele><time>2026-03-29T08:07:41.989Z</time></trkpt><trkpt lat="45.524921" lon="10.457362"><ele>203.0</ele><time>2026-03-29T08:07:42.989Z</time></trkpt><trkpt lat="45.5248409" lon="10.4573608"><ele>203.0</ele><time>2026-03-29T08:07:43.989Z</time></trkpt><trkpt lat="45.5247522" lon="10.45735"><ele>203.0</ele><time>2026-03-29T08:07:44.988Z</time></trkpt><trkpt lat="45.5246552" lon="10.4573282"><ele>203.00000000000003</ele><time>2026-03-29T08:07:45.989Z</time></trkpt><trkpt lat="45.5245539" lon="10.4573107"><ele>203.0</ele><time>2026-03-29T08:07:46.989Z</time></trkpt><trkpt lat="45.5244495" lon="10.4572924"><ele>202.60000000000002</ele><time>2026-03-29T08:07:47.989Z</time></trkpt><trkpt lat="45.5243469" lon="10.4572707"><ele>202.20000000000002</ele><time>2026-03-29T08:07:48.988Z</time></trkpt><trkpt lat="45.5242371" lon="10.4572527"><ele>201.8</ele><time>2026-03-29T08:07:49.989Z</time></trkpt><trkpt lat="45.5241296" lon="10.4572345"><ele>201.4</ele><time>2026-03-29T08:07:50.989Z</time></trkpt><trkpt lat="45.5240189" lon="10.4572198"><ele>201.0</ele><time>2026-03-29T08:07:51.988Z</time></trkpt><trkpt lat="45.523902" lon="10.4571974"><ele>201.0</ele><time>2026-03-29T08:07:52.989Z</time></trkpt><trkpt lat="45.5237773" lon="10.4571624"><ele>201.0</ele><time>2026-03-29T08:07:53.989Z</time></trkpt><trkpt lat="45.5236483" lon="10.4571284"><ele>201.0</ele><time>2026-03-29T08:07:54.989Z</time></trkpt><trkpt lat="45.5235188" lon="10.4570848"><ele>201.0</ele><time>2026-03-29T08:07:55.988Z</time></trkpt><trkpt lat="45.5233839" lon="10.4570442"><ele>200.25</ele><time>2026-03-29T08:07:56.99Z</time></trkpt><trkpt lat="45.5232441" lon="10.4570007"><ele>199.5</ele><time>2026-03-29T08:07:57.989Z</time></trkpt><trkpt lat="45.5231061" lon="10.4569502"><ele>198.75</ele><time>2026-03-29T08:07:58.989Z</time></trkpt><trkpt lat="45.5229717" lon="10.4569001"><ele>198.0</ele><time>2026-03-29T08:07:59.989Z</time></trkpt><trkpt lat="45.5228381" lon="10.4568512"><ele>197.5</ele><time>2026-03-29T08:08:00.988Z</time></trkpt><trkpt lat="45.5227062" lon="10.4568046"><ele>197.0</ele><time>2026-03-29T08:08:01.99Z</time></trkpt><trkpt lat="45.5225778" lon="10.4567533"><ele>196.5</ele><time>2026-03-29T08:08:02.989Z</time></trkpt><trkpt lat="45.5224491" lon="10.4567037"><ele>196.0</ele><time>2026-03-29T08:08:03.988Z</time></trkpt><trkpt lat="45.5223228" lon="10.4566528"><ele>196.0</ele><time>2026-03-29T08:08:04.989Z</time></trkpt><trkpt lat="45.5221993" lon="10.4566022"><ele>196.0</ele><time>2026-03-29T08:08:05.989Z</time></trkpt><trkpt lat="45.5220748" lon="10.4565565"><ele>196.0</ele><time>2026-03-29T08:08:06.989Z</time></trkpt><trkpt lat="45.5219463" lon="10.4565133"><ele>196.0</ele><time>2026-03-29T08:08:07.988Z</time></trkpt><trkpt lat="45.5218222" lon="10.4564665"><ele>195.5</ele><time>2026-03-29T08:08:08.989Z</time></trkpt><trkpt lat="45.5216972" lon="10.4564289"><ele>195.0</ele><time>2026-03-29T08:08:09.989Z</time></trkpt><trkpt lat="45.5215728" lon="10.4563981"><ele>194.5</ele><time>2026-03-29T08:08:10.988Z</time></trkpt><trkpt lat="45.5214583" lon="10.4563658"><ele>194.0</ele><time>2026-03-29T08:08:11.989Z</time></trkpt><trkpt lat="45.5213409" lon="10.4563214"><ele>193.75</ele><time>2026-03-29T08:08:12.988Z</time></trkpt><trkpt lat="45.5212211" lon="10.4562581"><ele>193.5</ele><time>2026-03-29T08:08:13.989Z</time></trkpt><trkpt lat="45.5211008" lon="10.4561838"><ele>193.25</ele><time>2026-03-29T08:08:14.989Z</time></trkpt><trkpt lat="45.5209743" lon="10.4561083"><ele>193.0</ele><time>2026-03-29T08:08:15.988Z</time></trkpt><trkpt lat="45.5208464" lon="10.4560285"><ele>193.0</ele><time>2026-03-29T08:08:16.989Z</time></trkpt><trkpt lat="45.520714" lon="10.4559436"><ele>193.0</ele><time>2026-03-29T08:08:17.989Z</time></trkpt><trkpt lat="45.5205871" lon="10.4558543"><ele>193.0</ele><time>2026-03-29T08:08:18.989Z</time></trkpt><trkpt lat="45.5204616" lon="10.4557712"><ele>193.0</ele><time>2026-03-29T08:08:19.988Z</time></trkpt><trkpt lat="45.520336" lon="10.4556836"><ele>192.75</ele><time>2026-03-29T08:08:20.989Z</time></trkpt><trkpt lat="45.5202173" lon="10.4556111"><ele>192.5</ele><time>2026-03-29T08:08:21.988Z</time></trkpt><trkpt lat="45.520103" lon="10.4555447"><ele>192.25</ele><time>2026-03-29T08:08:22.988Z</time></trkpt><trkpt lat="45.519996" lon="10.455482"><ele>192.0</ele><time>2026-03-29T08:08:23.988Z</time></trkpt><trkpt lat="45.519892" lon="10.4554158"><ele>192.0</ele><time>2026-03-29T08:08:24.989Z</time></trkpt><trkpt lat="45.5197881" lon="10.4553496"><ele>192.0</ele><time>2026-03-29T08:08:25.988Z</time></trkpt><trkpt lat="45.5196822" lon="10.4552916"><ele>192.0</ele><time>2026-03-29T08:08:26.989Z</time></trkpt><trkpt lat="45.5195694" lon="10.4552359"><ele>192.0</ele><time>2026-03-29T08:08:27.988Z</time></trkpt><trkpt lat="45.5194469" lon="10.4551777"><ele>191.5</ele><time>2026-03-29T08:08:28.989Z</time></trkpt><trkpt lat="45.519324" lon="10.4551167"><ele>191.0</ele><time>2026-03-29T08:08:29.989Z</time></trkpt><trkpt lat="45.5192048" lon="10.4550566"><ele>190.5</ele><time>2026-03-29T08:08:30.988Z</time></trkpt><trkpt lat="45.5190862" lon="10.4549977"><ele>190.0</ele><time>2026-03-29T08:08:31.989Z</time></trkpt><trkpt lat="45.5189676" lon="10.4549406"><ele>190.0</ele><time>2026-03-29T08:08:32.989Z</time></trkpt><trkpt lat="45.5188524" lon="10.4548879"><ele>190.0</ele><time>2026-03-29T08:08:33.988Z</time></trkpt><trkpt lat="45.5187473" lon="10.4548419"><ele>190.0</ele><time>2026-03-29T08:08:34.989Z</time></trkpt><trkpt lat="45.5186492" lon="10.4548011"><ele>190.0</ele><time>2026-03-29T08:08:35.988Z</time></trkpt><trkpt lat="45.5185546" lon="10.4547586"><ele>190.0</ele><time>2026-03-29T08:08:36.989Z</time></trkpt><trkpt lat="45.518463" lon="10.4547162"><ele>190.0</ele><time>2026-03-29T08:08:37.989Z</time></trkpt><trkpt lat="45.5183937" lon="10.4546498"><ele>190.0</ele><time>2026-03-29T08:08:38.988Z</time></trkpt><trkpt lat="45.5183272" lon="10.4545515"><ele>190.0</ele><time>2026-03-29T08:08:39.989Z</time></trkpt><trkpt lat="45.5182648" lon="10.4544401"><ele>190.0</ele><time>2026-03-29T08:08:40.989Z</time></trkpt><trkpt lat="45.5181965" lon="10.4543252"><ele>190.0</ele><time>2026-03-29T08:08:41.988Z</time></trkpt><trkpt lat="45.5181227" lon="10.4542169"><ele>190.0</ele><time>2026-03-29T08:08:42.988Z</time></trkpt><trkpt lat="45.5180405" lon="10.4541099"><ele>190.0</ele><time>2026-03-29T08:08:43.988Z</time></trkpt><trkpt lat="45.5179527" lon="10.453999"><ele>190.0</ele><time>2026-03-29T08:08:44.988Z</time></trkpt><trkpt lat="45.5178681" lon="10.4538814"><ele>190.0</ele><time>2026-03-29T08:08:45.988Z</time></trkpt><trkpt lat="45.5177913" lon="10.4537624"><ele>189.4</ele><time>2026-03-29T08:08:46.989Z</time></trkpt><trkpt lat="45.5177237" lon="10.4536307"><ele>188.8</ele><time>2026-03-29T08:08:47.989Z</time></trkpt><trkpt lat="45.517687" lon="10.4534834"><ele>188.2</ele><time>2026-03-29T08:08:48.988Z</time></trkpt><trkpt lat="45.5176695" lon="10.4533245"><ele>187.6</ele><time>2026-03-29T08:08:49.988Z</time></trkpt><trkpt lat="45.5176764" lon="10.4531643"><ele>187.0</ele><time>2026-03-29T08:08:50.988Z</time></trkpt><trkpt lat="45.5176898" lon="10.4530115"><ele>187.25</ele><time>2026-03-29T08:08:51.988Z</time></trkpt><trkpt lat="45.5176846" lon="10.4528565"><ele>187.5</ele><time>2026-03-29T08:08:52.99Z</time></trkpt><trkpt lat="45.5176704" lon="10.4526847"><ele>187.75</ele><time>2026-03-29T08:08:53.989Z</time></trkpt><trkpt lat="45.5176519" lon="10.4525235"><ele>188.0</ele><time>2026-03-29T08:08:54.99Z</time></trkpt><trkpt lat="45.5176414" lon="10.4523647"><ele>188.0</ele><time>2026-03-29T08:08:55.989Z</time></trkpt><trkpt lat="45.5176413" lon="10.452198"><ele>188.0</ele><time>2026-03-29T08:08:56.988Z</time></trkpt><trkpt lat="45.5176399" lon="10.4520205"><ele>188.0</ele><time>2026-03-29T08:08:57.989Z</time></trkpt><trkpt lat="45.5176466" lon="10.4518472"><ele>188.0</ele><time>2026-03-29T08:08:58.989Z</time></trkpt><trkpt lat="45.5176515" lon="10.4516727"><ele>188.0</ele><time>2026-03-29T08:08:59.988Z</time></trkpt><trkpt lat="45.5176612" lon="10.4514984"><ele>188.0</ele><time>2026-03-29T08:09:00.988Z</time></trkpt><trkpt lat="45.5176752" lon="10.4513256"><ele>188.0</ele><time>2026-03-29T08:09:01.989Z</time></trkpt><trkpt lat="45.5176754" lon="10.4511546"><ele>188.0</ele><time>2026-03-29T08:09:02.989Z</time></trkpt><trkpt lat="45.5176623" lon="10.4509838"><ele>188.0</ele><time>2026-03-29T08:09:03.988Z</time></trkpt><trkpt lat="45.5176367" lon="10.4508076"><ele>188.0</ele><time>2026-03-29T08:09:04.989Z</time></trkpt><trkpt lat="45.5176044" lon="10.450632"><ele>188.0</ele><time>2026-03-29T08:09:05.989Z</time></trkpt><trkpt lat="45.5175732" lon="10.4504663"><ele>188.0</ele><time>2026-03-29T08:09:06.988Z</time></trkpt><trkpt lat="45.5175319" lon="10.4503052"><ele>188.0</ele><time>2026-03-29T08:09:07.988Z</time></trkpt><trkpt lat="45.5174925" lon="10.4501452"><ele>188.0</ele><time>2026-03-29T08:09:08.989Z</time></trkpt><trkpt lat="45.5174428" lon="10.4499909"><ele>188.0</ele><time>2026-03-29T08:09:09.989Z</time></trkpt><trkpt lat="45.5173818" lon="10.4498358"><ele>188.0</ele><time>2026-03-29T08:09:10.989Z</time></trkpt><trkpt lat="45.5173223" lon="10.4496719"><ele>188.0</ele><time>2026-03-29T08:09:11.989Z</time></trkpt><trkpt lat="45.5172595" lon="10.4495064"><ele>188.0</ele><time>2026-03-29T08:09:12.988Z</time></trkpt><trkpt lat="45.5172029" lon="10.4493315"><ele>188.0</ele><time>2026-03-29T08:09:13.989Z</time></trkpt><trkpt lat="45.5171521" lon="10.4491614"><ele>188.0</ele><time>2026-03-29T08:09:14.988Z</time></trkpt><trkpt lat="45.5171014" lon="10.4489943"><ele>188.0</ele><time>2026-03-29T08:09:15.989Z</time></trkpt><trkpt lat="45.5170452" lon="10.4488326"><ele>188.0</ele><time>2026-03-29T08:09:16.989Z</time></trkpt><trkpt lat="45.5169883" lon="10.4486831"><ele>188.0</ele><time>2026-03-29T08:09:17.988Z</time></trkpt><trkpt lat="45.5169299" lon="10.4485556"><ele>188.0</ele><time>2026-03-29T08:09:18.989Z</time></trkpt><trkpt lat="45.516866" lon="10.4484489"><ele>187.60000000000002</ele><time>2026-03-29T08:09:19.99Z</time></trkpt><trkpt lat="45.5167864" lon="10.448343"><ele>187.20000000000002</ele><time>2026-03-29T08:09:20.988Z</time></trkpt><trkpt lat="45.516702" lon="10.4482499"><ele>186.8</ele><time>2026-03-29T08:09:21.989Z</time></trkpt><trkpt lat="45.5166076" lon="10.4481723"><ele>186.4</ele><time>2026-03-29T08:09:22.989Z</time></trkpt><trkpt lat="45.5164937" lon="10.4481044"><ele>186.0</ele><time>2026-03-29T08:09:23.989Z</time></trkpt><trkpt lat="45.5163849" lon="10.4480442"><ele>186.0</ele><time>2026-03-29T08:09:24.989Z</time></trkpt><trkpt lat="45.5162811" lon="10.4479862"><ele>186.0</ele><time>2026-03-29T08:09:25.988Z</time></trkpt><trkpt lat="45.5161795" lon="10.4479246"><ele>186.0</ele><time>2026-03-29T08:09:26.989Z</time></trkpt><trkpt lat="45.5160865" lon="10.4478688"><ele>186.0</ele><time>2026-03-29T08:09:27.989Z</time></trkpt><trkpt lat="45.516003" lon="10.4478223"><ele>186.0</ele><time>2026-03-29T08:09:28.988Z</time></trkpt><trkpt lat="45.5159244" lon="10.4477765"><ele>185.4</ele><time>2026-03-29T08:09:29.989Z</time></trkpt><trkpt lat="45.515847" lon="10.44773"><ele>184.8</ele><time>2026-03-29T08:09:30.99Z</time></trkpt><trkpt lat="45.5157612" lon="10.4476808"><ele>184.20000000000002</ele><time>2026-03-29T08:09:31.988Z</time></trkpt><trkpt lat="45.5156694" lon="10.4476251"><ele>183.60000000000002</ele><time>2026-03-29T08:09:32.988Z</time></trkpt><trkpt lat="45.5155696" lon="10.4475609"><ele>183.0</ele><time>2026-03-29T08:09:33.989Z</time></trkpt><trkpt lat="45.5154649" lon="10.447492"><ele>182.83333333333334</ele><time>2026-03-29T08:09:34.988Z</time></trkpt><trkpt lat="45.5153636" lon="10.4474304"><ele>182.66666666666666</ele><time>2026-03-29T08:09:35.989Z</time></trkpt><trkpt lat="45.5152764" lon="10.4473754"><ele>182.5</ele><time>2026-03-29T08:09:36.988Z</time></trkpt><trkpt lat="45.5151972" lon="10.4473278"><ele>182.33333333333331</ele><time>2026-03-29T08:09:37.988Z</time></trkpt><trkpt lat="45.5151233" lon="10.4472858"><ele>182.16666666666666</ele><time>2026-03-29T08:09:38.99Z</time></trkpt><trkpt lat="45.5150628" lon="10.4472583"><ele>182.0</ele><time>2026-03-29T08:09:39.988Z</time></trkpt><trkpt lat="45.5149797" lon="10.4472073"><ele>182.0</ele><time>2026-03-29T08:09:41.988Z</time></trkpt><trkpt lat="45.5149316" lon="10.4471287"><ele>182.0</ele><time>2026-03-29T08:09:44.989Z</time></trkpt><trkpt lat="45.5149537" lon="10.4470163"><ele>182.0</ele><time>2026-03-29T08:09:46.988Z</time></trkpt><trkpt lat="45.515" lon="10.4468649"><ele>182.0</ele><time>2026-03-29T08:09:48.989Z</time></trkpt><trkpt lat="45.5150299" lon="10.4467667"><ele>182.0</ele><time>2026-03-29T08:09:49.989Z</time></trkpt><trkpt lat="45.5150683" lon="10.446669"><ele>182.0</ele><time>2026-03-29T08:09:50.989Z</time></trkpt><trkpt lat="45.5151103" lon="10.4465575"><ele>182.0</ele><time>2026-03-29T08:09:51.989Z</time></trkpt><trkpt lat="45.515151" lon="10.4464346"><ele>182.0</ele><time>2026-03-29T08:09:52.988Z</time></trkpt><trkpt lat="45.5151907" lon="10.4463158"><ele>182.0</ele><time>2026-03-29T08:09:53.989Z</time></trkpt><trkpt lat="45.5152309" lon="10.4462031"><ele>182.0</ele><time>2026-03-29T08:09:54.989Z</time></trkpt><trkpt lat="45.5152668" lon="10.4461048"><ele>182.0</ele><time>2026-03-29T08:09:55.989Z</time></trkpt><trkpt lat="45.5152949" lon="10.4460081"><ele>182.0</ele><time>2026-03-29T08:09:56.989Z</time></trkpt><trkpt lat="45.5153182" lon="10.4459239"><ele>182.0</ele><time>2026-03-29T08:09:57.99Z</time></trkpt><trkpt lat="45.5153646" lon="10.4457607"><ele>182.0</ele><time>2026-03-29T08:09:59.989Z</time></trkpt><trkpt lat="45.5154042" lon="10.4456262"><ele>182.0</ele><time>2026-03-29T08:10:01.988Z</time></trkpt><trkpt lat="45.5154387" lon="10.445489"><ele>182.0</ele><time>2026-03-29T08:10:03.989Z</time></trkpt><trkpt lat="45.5154616" lon="10.4453743"><ele>182.0</ele><time>2026-03-29T08:10:04.99Z</time></trkpt><trkpt lat="45.5154917" lon="10.4452377"><ele>182.0</ele><time>2026-03-29T08:10:05.988Z</time></trkpt><trkpt lat="45.5155243" lon="10.4450906"><ele>182.0</ele><time>2026-03-29T08:10:06.989Z</time></trkpt><trkpt lat="45.5155566" lon="10.4449433"><ele>182.0</ele><time>2026-03-29T08:10:07.988Z</time></trkpt><trkpt lat="45.5155862" lon="10.4448044"><ele>182.0</ele><time>2026-03-29T08:10:08.99Z</time></trkpt><trkpt lat="45.515613" lon="10.4446661"><ele>182.0</ele><time>2026-03-29T08:10:09.988Z</time></trkpt><trkpt lat="45.5156439" lon="10.4445202"><ele>182.0</ele><time>2026-03-29T08:10:10.989Z</time></trkpt><trkpt lat="45.5156717" lon="10.4443644"><ele>182.0</ele><time>2026-03-29T08:10:11.988Z</time></trkpt><trkpt lat="45.515702" lon="10.4442057"><ele>182.0</ele><time>2026-03-29T08:10:12.989Z</time></trkpt><trkpt lat="45.515742" lon="10.4440482"><ele>182.0</ele><time>2026-03-29T08:10:13.988Z</time></trkpt><trkpt lat="45.5157844" lon="10.4439142"><ele>182.0</ele><time>2026-03-29T08:10:14.989Z</time></trkpt><trkpt lat="45.5158285" lon="10.4437941"><ele>182.0</ele><time>2026-03-29T08:10:15.989Z</time></trkpt><trkpt lat="45.5158674" lon="10.4436901"><ele>182.0</ele><time>2026-03-29T08:10:16.989Z</time></trkpt><trkpt lat="45.5159033" lon="10.4435947"><ele>182.0</ele><time>2026-03-29T08:10:17.99Z</time></trkpt><trkpt lat="45.515941" lon="10.4435048"><ele>182.0</ele><time>2026-03-29T08:10:18.989Z</time></trkpt><trkpt lat="45.5159837" lon="10.443401"><ele>182.0</ele><time>2026-03-29T08:10:19.989Z</time></trkpt><trkpt lat="45.5160308" lon="10.4432799"><ele>182.0</ele><time>2026-03-29T08:10:20.989Z</time></trkpt><trkpt lat="45.5160724" lon="10.4431369"><ele>182.0</ele><time>2026-03-29T08:10:21.988Z</time></trkpt><trkpt lat="45.5161047" lon="10.4429866"><ele>182.0</ele><time>2026-03-29T08:10:22.988Z</time></trkpt><trkpt lat="45.5161351" lon="10.4428474"><ele>182.0</ele><time>2026-03-29T08:10:23.989Z</time></trkpt><trkpt lat="45.5161729" lon="10.4427157"><ele>182.0</ele><time>2026-03-29T08:10:24.989Z</time></trkpt><trkpt lat="45.5162002" lon="10.4425983"><ele>182.0</ele><time>2026-03-29T08:10:25.989Z</time></trkpt><trkpt lat="45.5162144" lon="10.44246"><ele>182.0</ele><time>2026-03-29T08:10:26.988Z</time></trkpt><trkpt lat="45.5162212" lon="10.4423124"><ele>182.0</ele><time>2026-03-29T08:10:27.989Z</time></trkpt><trkpt lat="45.5162283" lon="10.4421571"><ele>182.0</ele><time>2026-03-29T08:10:28.99Z</time></trkpt><trkpt lat="45.5162416" lon="10.4420025"><ele>182.0</ele><time>2026-03-29T08:10:29.989Z</time></trkpt><trkpt lat="45.5162646" lon="10.4418427"><ele>182.0</ele><time>2026-03-29T08:10:30.988Z</time></trkpt><trkpt lat="45.5162834" lon="10.4417071"><ele>182.0</ele><time>2026-03-29T08:10:31.989Z</time></trkpt><trkpt lat="45.5163058" lon="10.4415719"><ele>182.0</ele><time>2026-03-29T08:10:32.988Z</time></trkpt><trkpt lat="45.5163247" lon="10.441448"><ele>182.0</ele><time>2026-03-29T08:10:33.988Z</time></trkpt><trkpt lat="45.5163426" lon="10.4413256"><ele>182.0</ele><time>2026-03-29T08:10:34.989Z</time></trkpt><trkpt lat="45.5163661" lon="10.4412006"><ele>182.0</ele><time>2026-03-29T08:10:35.989Z</time></trkpt><trkpt lat="45.5163896" lon="10.4410967"><ele>182.0</ele><time>2026-03-29T08:10:36.989Z</time></trkpt><trkpt lat="45.5164088" lon="10.4410005"><ele>182.0</ele><time>2026-03-29T08:10:37.989Z</time></trkpt><trkpt lat="45.516414" lon="10.4409094"><ele>182.0</ele><time>2026-03-29T08:10:38.988Z</time></trkpt><trkpt lat="45.5163575" lon="10.4407532"><ele>182.0</ele><time>2026-03-29T08:10:40.989Z</time></trkpt><trkpt lat="45.5162672" lon="10.4406978"><ele>182.0</ele><time>2026-03-29T08:10:41.989Z</time></trkpt><trkpt lat="45.5162039" lon="10.4406261"><ele>182.0</ele><time>2026-03-29T08:10:42.988Z</time></trkpt><trkpt lat="45.516156" lon="10.4405469"><ele>182.0</ele><time>2026-03-29T08:10:43.989Z</time></trkpt><trkpt lat="45.5161211" lon="10.4403989"><ele>182.16666666666666</ele><time>2026-03-29T08:10:45.988Z</time></trkpt><trkpt lat="45.5161222" lon="10.4402818"><ele>182.33333333333331</ele><time>2026-03-29T08:10:47.988Z</time></trkpt><trkpt lat="45.5161344" lon="10.4401868"><ele>182.5</ele><time>2026-03-29T08:10:48.989Z</time></trkpt><trkpt lat="45.5161545" lon="10.4400664"><ele>182.66666666666666</ele><time>2026-03-29T08:10:49.989Z</time></trkpt><trkpt lat="45.5161826" lon="10.4399314"><ele>182.83333333333334</ele><time>2026-03-29T08:10:50.988Z</time></trkpt><trkpt lat="45.5162139" lon="10.4398002"><ele>183.0</ele><time>2026-03-29T08:10:51.988Z</time></trkpt><trkpt lat="45.5162551" lon="10.4396644"><ele>183.5</ele><time>2026-03-29T08:10:52.989Z</time></trkpt><trkpt lat="45.5163" lon="10.4395368"><ele>184.0</ele><time>2026-03-29T08:10:53.988Z</time></trkpt><trkpt lat="45.5163428" lon="10.4394365"><ele>184.5</ele><time>2026-03-29T08:10:54.988Z</time></trkpt><trkpt lat="45.5163783" lon="10.4393576"><ele>185.0</ele><time>2026-03-29T08:10:55.989Z</time></trkpt><trkpt lat="45.5164148" lon="10.4392796"><ele>185.5</ele><time>2026-03-29T08:10:56.989Z</time></trkpt><trkpt lat="45.5164615" lon="10.4391851"><ele>186.0</ele><time>2026-03-29T08:10:57.988Z</time></trkpt><trkpt lat="45.5165141" lon="10.4390784"><ele>186.0</ele><time>2026-03-29T08:10:58.989Z</time></trkpt><trkpt lat="45.5165697" lon="10.4389603"><ele>186.0</ele><time>2026-03-29T08:10:59.989Z</time></trkpt><trkpt lat="45.5166212" lon="10.4388407"><ele>186.0</ele><time>2026-03-29T08:11:00.988Z</time></trkpt><trkpt lat="45.5166629" lon="10.4387217"><ele>186.0</ele><time>2026-03-29T08:11:01.989Z</time></trkpt><trkpt lat="45.5166831" lon="10.4386262"><ele>186.0</ele><time>2026-03-29T08:11:02.988Z</time></trkpt><trkpt lat="45.5167329" lon="10.4385315"><ele>186.0</ele><time>2026-03-29T08:11:04.988Z</time></trkpt><trkpt lat="45.5168004" lon="10.4385363"><ele>186.66666666666666</ele><time>2026-03-29T08:11:06.988Z</time></trkpt><trkpt lat="45.5168939" lon="10.4385917"><ele>187.33333333333334</ele><time>2026-03-29T08:11:07.988Z</time></trkpt><trkpt lat="45.5169575" lon="10.4386383"><ele>188.0</ele><time>2026-03-29T08:11:08.989Z</time></trkpt><trkpt lat="45.5170303" lon="10.438651"><ele>188.66666666666669</ele><time>2026-03-29T08:11:09.988Z</time></trkpt><trkpt lat="45.5171092" lon="10.4386485"><ele>189.33333333333334</ele><time>2026-03-29T08:11:10.989Z</time></trkpt><trkpt lat="45.5171977" lon="10.4386247"><ele>190.0</ele><time>2026-03-29T08:11:11.988Z</time></trkpt><trkpt lat="45.5172905" lon="10.4385873"><ele>190.16666666666669</ele><time>2026-03-29T08:11:12.988Z</time></trkpt><trkpt lat="45.5173833" lon="10.4385479"><ele>190.33333333333334</ele><time>2026-03-29T08:11:13.989Z</time></trkpt><trkpt lat="45.5174733" lon="10.4385102"><ele>190.5</ele><time>2026-03-29T08:11:14.988Z</time></trkpt><trkpt lat="45.5175593" lon="10.4384664"><ele>190.66666666666666</ele><time>2026-03-29T08:11:15.989Z</time></trkpt><trkpt lat="45.517636" lon="10.438425"><ele>190.83333333333331</ele><time>2026-03-29T08:11:16.988Z</time></trkpt><trkpt lat="45.5177139" lon="10.4383835"><ele>191.0</ele><time>2026-03-29T08:11:17.99Z</time></trkpt><trkpt lat="45.5177793" lon="10.4383391"><ele>191.0</ele><time>2026-03-29T08:11:18.988Z</time></trkpt><trkpt lat="45.5178381" lon="10.4382891"><ele>191.0</ele><time>2026-03-29T08:11:19.989Z</time></trkpt><trkpt lat="45.5178974" lon="10.4382272"><ele>191.0</ele><time>2026-03-29T08:11:20.988Z</time></trkpt><trkpt lat="45.5179655" lon="10.4381591"><ele>191.0</ele><time>2026-03-29T08:11:21.989Z</time></trkpt><trkpt lat="45.5180342" lon="10.4380915"><ele>191.0</ele><time>2026-03-29T08:11:22.989Z</time></trkpt><trkpt lat="45.518107" lon="10.4380212"><ele>191.0</ele><time>2026-03-29T08:11:23.989Z</time></trkpt><trkpt lat="45.5181764" lon="10.4379438"><ele>191.0</ele><time>2026-03-29T08:11:24.989Z</time></trkpt><trkpt lat="45.518252" lon="10.4378658"><ele>191.0</ele><time>2026-03-29T08:11:25.988Z</time></trkpt><trkpt lat="45.5183176" lon="10.4377822"><ele>191.0</ele><time>2026-03-29T08:11:26.989Z</time></trkpt><trkpt lat="45.5184049" lon="10.4377391"><ele>191.0</ele><time>2026-03-29T08:11:27.989Z</time></trkpt><trkpt lat="45.5184766" lon="10.4376867"><ele>191.0</ele><time>2026-03-29T08:11:28.988Z</time></trkpt><trkpt lat="45.5185568" lon="10.437629"><ele>191.0</ele><time>2026-03-29T08:11:29.988Z</time></trkpt><trkpt lat="45.5186435" lon="10.4375651"><ele>191.0</ele><time>2026-03-29T08:11:30.988Z</time></trkpt><trkpt lat="45.5187284" lon="10.4374946"><ele>191.0</ele><time>2026-03-29T08:11:31.989Z</time></trkpt><trkpt lat="45.5188134" lon="10.4374249"><ele>191.0</ele><time>2026-03-29T08:11:32.99Z</time></trkpt><trkpt lat="45.5188987" lon="10.4373505"><ele>191.0</ele><time>2026-03-29T08:11:33.989Z</time></trkpt><trkpt lat="45.5189851" lon="10.4372834"><ele>191.0</ele><time>2026-03-29T08:11:34.989Z</time></trkpt><trkpt lat="45.5190686" lon="10.4372157"><ele>190.60000000000002</ele><time>2026-03-29T08:11:35.988Z</time></trkpt><trkpt lat="45.5191515" lon="10.437151"><ele>190.2</ele><time>2026-03-29T08:11:36.988Z</time></trkpt><trkpt lat="45.5192297" lon="10.4370892"><ele>189.8</ele><time>2026-03-29T08:11:37.989Z</time></trkpt><trkpt lat="45.5193076" lon="10.4370241"><ele>189.39999999999998</ele><time>2026-03-29T08:11:38.988Z</time></trkpt><trkpt lat="45.5193899" lon="10.4369565"><ele>189.0</ele><time>2026-03-29T08:11:39.989Z</time></trkpt><trkpt lat="45.5194817" lon="10.4368818"><ele>189.39999999999998</ele><time>2026-03-29T08:11:40.989Z</time></trkpt><trkpt lat="45.519577" lon="10.4368017"><ele>189.8</ele><time>2026-03-29T08:11:41.988Z</time></trkpt><trkpt lat="45.519671" lon="10.4367271"><ele>190.2</ele><time>2026-03-29T08:11:42.989Z</time></trkpt><trkpt lat="45.519754" lon="10.4366666"><ele>190.60000000000002</ele><time>2026-03-29T08:11:43.988Z</time></trkpt><trkpt lat="45.5198245" lon="10.4366352"><ele>191.0</ele><time>2026-03-29T08:11:44.989Z</time></trkpt><trkpt lat="45.5199004" lon="10.436636"><ele>191.0</ele><time>2026-03-29T08:11:45.988Z</time></trkpt><trkpt lat="45.5199889" lon="10.4366482"><ele>191.0</ele><time>2026-03-29T08:11:46.988Z</time></trkpt><trkpt lat="45.5200987" lon="10.4366296"><ele>191.0</ele><time>2026-03-29T08:11:48.989Z</time></trkpt><trkpt lat="45.5201595" lon="10.4364638"><ele>191.0</ele><time>2026-03-29T08:11:50.988Z</time></trkpt><trkpt lat="45.520185" lon="10.4363352"><ele>191.0</ele><time>2026-03-29T08:11:51.989Z</time></trkpt><trkpt lat="45.5202171" lon="10.4361826"><ele>190.8</ele><time>2026-03-29T08:11:52.988Z</time></trkpt><trkpt lat="45.5202518" lon="10.4360257"><ele>190.60000000000002</ele><time>2026-03-29T08:11:53.988Z</time></trkpt><trkpt lat="45.5202916" lon="10.4358755"><ele>190.4</ele><time>2026-03-29T08:11:54.989Z</time></trkpt><trkpt lat="45.5203265" lon="10.4357455"><ele>190.2</ele><time>2026-03-29T08:11:55.99Z</time></trkpt><trkpt lat="45.5203639" lon="10.4356293"><ele>190.0</ele><time>2026-03-29T08:11:56.988Z</time></trkpt><trkpt lat="45.5204045" lon="10.4355398"><ele>190.71428571428572</ele><time>2026-03-29T08:11:57.989Z</time></trkpt><trkpt lat="45.5204531" lon="10.4354644"><ele>191.42857142857144</ele><time>2026-03-29T08:11:58.988Z</time></trkpt><trkpt lat="45.520506" lon="10.4354047"><ele>192.14285714285714</ele><time>2026-03-29T08:11:59.989Z</time></trkpt><trkpt lat="45.520562" lon="10.4353579"><ele>192.85714285714286</ele><time>2026-03-29T08:12:00.988Z</time></trkpt><trkpt lat="45.5206243" lon="10.4353021"><ele>193.57142857142856</ele><time>2026-03-29T08:12:01.989Z</time></trkpt><trkpt lat="45.5206959" lon="10.4352452"><ele>194.28571428571428</ele><time>2026-03-29T08:12:02.989Z</time></trkpt><trkpt lat="45.5207718" lon="10.4351999"><ele>195.0</ele><time>2026-03-29T08:12:03.989Z</time></trkpt><trkpt lat="45.5208469" lon="10.4351443"><ele>195.0</ele><time>2026-03-29T08:12:04.989Z</time></trkpt><trkpt lat="45.5209195" lon="10.435076"><ele>195.0</ele><time>2026-03-29T08:12:05.988Z</time></trkpt><trkpt lat="45.5209959" lon="10.434993"><ele>195.0</ele><time>2026-03-29T08:12:06.988Z</time></trkpt><trkpt lat="45.5210638" lon="10.4349191"><ele>195.0</ele><time>2026-03-29T08:12:07.989Z</time></trkpt><trkpt lat="45.5211247" lon="10.434841"><ele>195.0</ele><time>2026-03-29T08:12:08.989Z</time></trkpt><trkpt lat="45.5211848" lon="10.4347562"><ele>195.0</ele><time>2026-03-29T08:12:09.988Z</time></trkpt><trkpt lat="45.521243" lon="10.4346744"><ele>195.16666666666666</ele><time>2026-03-29T08:12:10.989Z</time></trkpt><trkpt lat="45.5213013" lon="10.4345942"><ele>195.33333333333331</ele><time>2026-03-29T08:12:11.988Z</time></trkpt><trkpt lat="45.5213586" lon="10.4345199"><ele>195.5</ele><time>2026-03-29T08:12:12.989Z</time></trkpt><trkpt lat="45.5214263" lon="10.4344392"><ele>195.66666666666666</ele><time>2026-03-29T08:12:13.989Z</time></trkpt><trkpt lat="45.5214863" lon="10.4343638"><ele>195.83333333333331</ele><time>2026-03-29T08:12:14.988Z</time></trkpt><trkpt lat="45.5215506" lon="10.434278"><ele>196.0</ele><time>2026-03-29T08:12:15.989Z</time></trkpt><trkpt lat="45.5216148" lon="10.4341936"><ele>196.0</ele><time>2026-03-29T08:12:16.988Z</time></trkpt><trkpt lat="45.5216901" lon="10.4341165"><ele>196.0</ele><time>2026-03-29T08:12:17.989Z</time></trkpt><trkpt lat="45.5217682" lon="10.4340458"><ele>196.0</ele><time>2026-03-29T08:12:18.988Z</time></trkpt><trkpt lat="45.5218491" lon="10.4339813"><ele>196.0</ele><time>2026-03-29T08:12:19.99Z</time></trkpt><trkpt lat="45.5219333" lon="10.4339262"><ele>196.0</ele><time>2026-03-29T08:12:20.988Z</time></trkpt><trkpt lat="45.5220217" lon="10.4338766"><ele>196.0</ele><time>2026-03-29T08:12:21.988Z</time></trkpt><trkpt lat="45.522102" lon="10.4338194"><ele>196.0</ele><time>2026-03-29T08:12:22.989Z</time></trkpt><trkpt lat="45.5221697" lon="10.4337674"><ele>196.0</ele><time>2026-03-29T08:12:23.988Z</time></trkpt><trkpt lat="45.5222206" lon="10.4337092"><ele>196.0</ele><time>2026-03-29T08:12:24.989Z</time></trkpt><trkpt lat="45.5222519" lon="10.4336281"><ele>196.0</ele><time>2026-03-29T08:12:25.988Z</time></trkpt><trkpt lat="45.5222569" lon="10.4335325"><ele>196.0</ele><time>2026-03-29T08:12:26.989Z</time></trkpt><trkpt lat="45.5222412" lon="10.4334363"><ele>196.0</ele><time>2026-03-29T08:12:27.989Z</time></trkpt><trkpt lat="45.5222109" lon="10.4333544"><ele>196.0</ele><time>2026-03-29T08:12:28.989Z</time></trkpt><trkpt lat="45.5221834" lon="10.4332675"><ele>196.0</ele><time>2026-03-29T08:12:29.989Z</time></trkpt><trkpt lat="45.5221551" lon="10.4331747"><ele>196.0</ele><time>2026-03-29T08:12:30.989Z</time></trkpt><trkpt lat="45.5221304" lon="10.4330745"><ele>196.0</ele><time>2026-03-29T08:12:31.989Z</time></trkpt><trkpt lat="45.5221102" lon="10.4329806"><ele>196.0</ele><time>2026-03-29T08:12:32.989Z</time></trkpt><trkpt lat="45.5220889" lon="10.4328905"><ele>196.0</ele><time>2026-03-29T08:12:33.988Z</time></trkpt><trkpt lat="45.5220585" lon="10.4327593"><ele>196.0</ele><time>2026-03-29T08:12:35.988Z</time></trkpt><trkpt lat="45.5220264" lon="10.4326666"><ele>195.49999999999997</ele><time>2026-03-29T08:12:37.989Z</time></trkpt><trkpt lat="45.5219907" lon="10.432575"><ele>195.0</ele><time>2026-03-29T08:12:39.989Z</time></trkpt><trkpt lat="45.5219377" lon="10.432507"><ele>194.5</ele><time>2026-03-29T08:12:41.988Z</time></trkpt><trkpt lat="45.5218667" lon="10.4325003"><ele>194.0</ele><time>2026-03-29T08:12:42.988Z</time></trkpt><trkpt lat="45.5217645" lon="10.4325156"><ele>193.49999999999997</ele><time>2026-03-29T08:12:43.989Z</time></trkpt><trkpt lat="45.521636" lon="10.4325291"><ele>193.0</ele><time>2026-03-29T08:12:44.988Z</time></trkpt><trkpt lat="45.5214883" lon="10.4325445"><ele>193.0</ele><time>2026-03-29T08:12:45.989Z</time></trkpt><trkpt lat="45.5213209" lon="10.4325567"><ele>193.0</ele><time>2026-03-29T08:12:46.989Z</time></trkpt><trkpt lat="45.521128" lon="10.4325501"><ele>193.0</ele><time>2026-03-29T08:12:47.988Z</time></trkpt><trkpt lat="45.5209463" lon="10.4325226"><ele>192.66666666666666</ele><time>2026-03-29T08:12:48.989Z</time></trkpt><trkpt lat="45.5207711" lon="10.4324705"><ele>192.33333333333331</ele><time>2026-03-29T08:12:49.99Z</time></trkpt><trkpt lat="45.5206115" lon="10.432398"><ele>192.0</ele><time>2026-03-29T08:12:50.988Z</time></trkpt><trkpt lat="45.5204569" lon="10.4323199"><ele>191.0</ele><time>2026-03-29T08:12:51.989Z</time></trkpt><trkpt lat="45.5203045" lon="10.4322465"><ele>190.0</ele><time>2026-03-29T08:12:52.988Z</time></trkpt><trkpt lat="45.5201427" lon="10.4321741"><ele>189.0</ele><time>2026-03-29T08:12:53.989Z</time></trkpt><trkpt lat="45.5199607" lon="10.4320919"><ele>188.33333333333334</ele><time>2026-03-29T08:12:54.988Z</time></trkpt><trkpt lat="45.5197615" lon="10.4320124"><ele>187.66666666666669</ele><time>2026-03-29T08:12:55.988Z</time></trkpt><trkpt lat="45.5195538" lon="10.4319428"><ele>187.0</ele><time>2026-03-29T08:12:56.989Z</time></trkpt><trkpt lat="45.5193462" lon="10.4318992"><ele>188.66666666666669</ele><time>2026-03-29T08:12:57.989Z</time></trkpt><trkpt lat="45.5191382" lon="10.4318726"><ele>190.33333333333334</ele><time>2026-03-29T08:12:58.988Z</time></trkpt><trkpt lat="45.5189312" lon="10.4318572"><ele>192.0</ele><time>2026-03-29T08:12:59.989Z</time></trkpt><trkpt lat="45.5187267" lon="10.4318437"><ele>192.0</ele><time>2026-03-29T08:13:00.99Z</time></trkpt><trkpt lat="45.5185223" lon="10.4318265"><ele>192.0</ele><time>2026-03-29T08:13:01.988Z</time></trkpt><trkpt lat="45.5183198" lon="10.4318133"><ele>192.0</ele><time>2026-03-29T08:13:02.989Z</time></trkpt><trkpt lat="45.5181204" lon="10.4318002"><ele>192.0</ele><time>2026-03-29T08:13:03.989Z</time></trkpt><trkpt lat="45.5179253" lon="10.4317891"><ele>192.0</ele><time>2026-03-29T08:13:04.988Z</time></trkpt><trkpt lat="45.5177329" lon="10.4317777"><ele>192.0</ele><time>2026-03-29T08:13:05.989Z</time></trkpt><trkpt lat="45.5175441" lon="10.431768"><ele>192.33333333333331</ele><time>2026-03-29T08:13:06.989Z</time></trkpt><trkpt lat="45.5173515" lon="10.4317618"><ele>192.66666666666666</ele><time>2026-03-29T08:13:07.988Z</time></trkpt><trkpt lat="45.5171608" lon="10.4317444"><ele>193.0</ele><time>2026-03-29T08:13:08.988Z</time></trkpt><trkpt lat="45.5169722" lon="10.431712"><ele>192.0</ele><time>2026-03-29T08:13:09.989Z</time></trkpt><trkpt lat="45.5167793" lon="10.4316489"><ele>191.0</ele><time>2026-03-29T08:13:10.988Z</time></trkpt><trkpt lat="45.5165855" lon="10.431565"><ele>190.0</ele><time>2026-03-29T08:13:11.988Z</time></trkpt><trkpt lat="45.5163968" lon="10.4314634"><ele>188.33333333333334</ele><time>2026-03-29T08:13:12.989Z</time></trkpt><trkpt lat="45.5162133" lon="10.4313515"><ele>186.66666666666666</ele><time>2026-03-29T08:13:13.989Z</time></trkpt><trkpt lat="45.5160365" lon="10.4312391"><ele>185.0</ele><time>2026-03-29T08:13:14.988Z</time></trkpt><trkpt lat="45.5158691" lon="10.4311355"><ele>185.0</ele><time>2026-03-29T08:13:15.989Z</time></trkpt><trkpt lat="45.5157145" lon="10.431032"><ele>185.0</ele><time>2026-03-29T08:13:16.988Z</time></trkpt><trkpt lat="45.5155595" lon="10.4309103"><ele>185.0</ele><time>2026-03-29T08:13:17.988Z</time></trkpt><trkpt lat="45.5154179" lon="10.4307707"><ele>184.66666666666666</ele><time>2026-03-29T08:13:18.989Z</time></trkpt><trkpt lat="45.5152812" lon="10.4306145"><ele>184.33333333333334</ele><time>2026-03-29T08:13:19.989Z</time></trkpt><trkpt lat="45.5151402" lon="10.4304466"><ele>184.0</ele><time>2026-03-29T08:13:20.989Z</time></trkpt><trkpt lat="45.5149864" lon="10.4302744"><ele>184.0</ele><time>2026-03-29T08:13:21.989Z</time></trkpt><trkpt lat="45.5148217" lon="10.4301105"><ele>184.0</ele><time>2026-03-29T08:13:22.989Z</time></trkpt><trkpt lat="45.5146421" lon="10.4299624"><ele>184.0</ele><time>2026-03-29T08:13:23.988Z</time></trkpt><trkpt lat="45.514449" lon="10.429834"><ele>183.33333333333334</ele><time>2026-03-29T08:13:24.988Z</time></trkpt><trkpt lat="45.5142527" lon="10.4297205"><ele>182.66666666666666</ele><time>2026-03-29T08:13:25.989Z</time></trkpt><trkpt lat="45.5140528" lon="10.429619"><ele>182.0</ele><time>2026-03-29T08:13:26.988Z</time></trkpt><trkpt lat="45.5138589" lon="10.4295175"><ele>182.66666666666666</ele><time>2026-03-29T08:13:27.989Z</time></trkpt><trkpt lat="45.5136714" lon="10.429418"><ele>183.33333333333334</ele><time>2026-03-29T08:13:28.989Z</time></trkpt><trkpt lat="45.5134904" lon="10.4293151"><ele>184.0</ele><time>2026-03-29T08:13:29.988Z</time></trkpt><trkpt lat="45.5133159" lon="10.4292253"><ele>184.0</ele><time>2026-03-29T08:13:30.989Z</time></trkpt><trkpt lat="45.5131468" lon="10.4291405"><ele>184.0</ele><time>2026-03-29T08:13:31.988Z</time></trkpt><trkpt lat="45.5129796" lon="10.4290563"><ele>184.0</ele><time>2026-03-29T08:13:32.989Z</time></trkpt><trkpt lat="45.5128197" lon="10.4289701"><ele>184.0</ele><time>2026-03-29T08:13:33.988Z</time></trkpt><trkpt lat="45.5126631" lon="10.4288841"><ele>184.0</ele><time>2026-03-29T08:13:34.989Z</time></trkpt><trkpt lat="45.5125048" lon="10.4287999"><ele>184.0</ele><time>2026-03-29T08:13:35.988Z</time></trkpt><trkpt lat="45.5123431" lon="10.4287104"><ele>184.33333333333334</ele><time>2026-03-29T08:13:36.989Z</time></trkpt><trkpt lat="45.5121841" lon="10.4286235"><ele>184.66666666666666</ele><time>2026-03-29T08:13:37.988Z</time></trkpt><trkpt lat="45.5120328" lon="10.4285359"><ele>185.0</ele><time>2026-03-29T08:13:38.989Z</time></trkpt><trkpt lat="45.5118966" lon="10.4284585"><ele>184.33333333333331</ele><time>2026-03-29T08:13:39.988Z</time></trkpt><trkpt lat="45.5117853" lon="10.4283874"><ele>183.66666666666666</ele><time>2026-03-29T08:13:40.989Z</time></trkpt><trkpt lat="45.511702" lon="10.4283169"><ele>183.0</ele><time>2026-03-29T08:13:41.989Z</time></trkpt><trkpt lat="45.5116506" lon="10.4282351"><ele>182.33333333333334</ele><time>2026-03-29T08:13:42.988Z</time></trkpt><trkpt lat="45.5116313" lon="10.4281357"><ele>181.66666666666669</ele><time>2026-03-29T08:13:43.988Z</time></trkpt><trkpt lat="45.5116225" lon="10.4280328"><ele>181.0</ele><time>2026-03-29T08:13:44.989Z</time></trkpt><trkpt lat="45.5116763" lon="10.4279067"><ele>180.5</ele><time>2026-03-29T08:13:45.989Z</time></trkpt><trkpt lat="45.5117331" lon="10.4277769"><ele>180.0</ele><time>2026-03-29T08:13:46.989Z</time></trkpt><trkpt lat="45.5117934" lon="10.4276475"><ele>179.5</ele><time>2026-03-29T08:13:47.988Z</time></trkpt><trkpt lat="45.5118608" lon="10.4274991"><ele>179.0</ele><time>2026-03-29T08:13:48.989Z</time></trkpt><trkpt lat="45.5119277" lon="10.427349"><ele>179.0</ele><time>2026-03-29T08:13:49.988Z</time></trkpt><trkpt lat="45.5119936" lon="10.4271938"><ele>179.0</ele><time>2026-03-29T08:13:50.989Z</time></trkpt><trkpt lat="45.5120468" lon="10.4270255"><ele>179.0</ele><time>2026-03-29T08:13:51.989Z</time></trkpt><trkpt lat="45.5120798" lon="10.4268452"><ele>179.0</ele><time>2026-03-29T08:13:52.988Z</time></trkpt><trkpt lat="45.5120975" lon="10.4266542"><ele>179.25</ele><time>2026-03-29T08:13:53.989Z</time></trkpt><trkpt lat="45.5120904" lon="10.426471"><ele>179.5</ele><time>2026-03-29T08:13:54.988Z</time></trkpt><trkpt lat="45.5120653" lon="10.4263084"><ele>179.75</ele><time>2026-03-29T08:13:55.989Z</time></trkpt><trkpt lat="45.5120371" lon="10.4261613"><ele>180.0</ele><time>2026-03-29T08:13:56.988Z</time></trkpt><trkpt lat="45.512016" lon="10.4260191"><ele>180.0</ele><time>2026-03-29T08:13:57.989Z</time></trkpt><trkpt lat="45.5119929" lon="10.4258641"><ele>180.0</ele><time>2026-03-29T08:13:58.988Z</time></trkpt><trkpt lat="45.5119702" lon="10.4257045"><ele>180.0</ele><time>2026-03-29T08:13:59.988Z</time></trkpt><trkpt lat="45.5119555" lon="10.4255514"><ele>180.0</ele><time>2026-03-29T08:14:00.988Z</time></trkpt><trkpt lat="45.5119369" lon="10.4253842"><ele>180.4</ele><time>2026-03-29T08:14:01.988Z</time></trkpt><trkpt lat="45.5119148" lon="10.4252245"><ele>180.8</ele><time>2026-03-29T08:14:02.989Z</time></trkpt><trkpt lat="45.5118925" lon="10.4250719"><ele>181.2</ele><time>2026-03-29T08:14:03.988Z</time></trkpt><trkpt lat="45.5118747" lon="10.4249431"><ele>181.6</ele><time>2026-03-29T08:14:04.989Z</time></trkpt><trkpt lat="45.5118587" lon="10.4248347"><ele>182.0</ele><time>2026-03-29T08:14:05.988Z</time></trkpt><trkpt lat="45.5118346" lon="10.4246872"><ele>182.0</ele><time>2026-03-29T08:14:07.989Z</time></trkpt><trkpt lat="45.5117524" lon="10.4246711"><ele>182.0</ele><time>2026-03-29T08:14:10.989Z</time></trkpt><trkpt lat="45.5117107" lon="10.4247563"><ele>182.0</ele><time>2026-03-29T08:14:11.988Z</time></trkpt><trkpt lat="45.5116545" lon="10.4248786"><ele>182.0</ele><time>2026-03-29T08:14:12.989Z</time></trkpt><trkpt lat="45.5115769" lon="10.425006"><ele>182.0</ele><time>2026-03-29T08:14:13.989Z</time></trkpt><trkpt lat="45.5114927" lon="10.4251428"><ele>182.0</ele><time>2026-03-29T08:14:14.989Z</time></trkpt><trkpt lat="45.5113976" lon="10.4252861"><ele>182.0</ele><time>2026-03-29T08:14:15.989Z</time></trkpt><trkpt lat="45.5112953" lon="10.4254273"><ele>182.0</ele><time>2026-03-29T08:14:16.988Z</time></trkpt><trkpt lat="45.5111855" lon="10.4255663"><ele>182.0</ele><time>2026-03-29T08:14:17.988Z</time></trkpt><trkpt lat="45.5110757" lon="10.4257018"><ele>180.0</ele><time>2026-03-29T08:14:18.988Z</time></trkpt><trkpt lat="45.5109745" lon="10.4258452"><ele>178.0</ele><time>2026-03-29T08:14:19.989Z</time></trkpt><trkpt lat="45.5108842" lon="10.425983"><ele>176.0</ele><time>2026-03-29T08:14:20.989Z</time></trkpt><trkpt lat="45.5108017" lon="10.4261013"><ele>174.0</ele><time>2026-03-29T08:14:21.989Z</time></trkpt><trkpt lat="45.5107169" lon="10.4261928"><ele>174.0</ele><time>2026-03-29T08:14:22.989Z</time></trkpt><trkpt lat="45.5106243" lon="10.4262504"><ele>174.0</ele><time>2026-03-29T08:14:23.989Z</time></trkpt><trkpt lat="45.5105302" lon="10.4262602"><ele>174.0</ele><time>2026-03-29T08:14:24.989Z</time></trkpt><trkpt lat="45.5104222" lon="10.426222"><ele>174.0</ele><time>2026-03-29T08:14:25.989Z</time></trkpt><trkpt lat="45.5103078" lon="10.4261499"><ele>174.0</ele><time>2026-03-29T08:14:26.988Z</time></trkpt><trkpt lat="45.5101779" lon="10.4260832"><ele>173.5</ele><time>2026-03-29T08:14:27.989Z</time></trkpt><trkpt lat="45.5100466" lon="10.4260247"><ele>173.0</ele><time>2026-03-29T08:14:28.989Z</time></trkpt><trkpt lat="45.50991" lon="10.4259657"><ele>172.5</ele><time>2026-03-29T08:14:29.989Z</time></trkpt><trkpt lat="45.5097758" lon="10.4259045"><ele>172.0</ele><time>2026-03-29T08:14:30.988Z</time></trkpt><trkpt lat="45.5096412" lon="10.4258416"><ele>172.0</ele><time>2026-03-29T08:14:31.989Z</time></trkpt><trkpt lat="45.509509" lon="10.4257795"><ele>172.0</ele><time>2026-03-29T08:14:32.989Z</time></trkpt><trkpt lat="45.5093787" lon="10.4257159"><ele>172.0</ele><time>2026-03-29T08:14:33.989Z</time></trkpt><trkpt lat="45.5092474" lon="10.4256485"><ele>172.0</ele><time>2026-03-29T08:14:34.988Z</time></trkpt><trkpt lat="45.5091247" lon="10.4255892"><ele>172.0</ele><time>2026-03-29T08:14:35.989Z</time></trkpt><trkpt lat="45.5090011" lon="10.4255295"><ele>172.0</ele><time>2026-03-29T08:14:36.988Z</time></trkpt><trkpt lat="45.5089088" lon="10.4254841"><ele>172.0</ele><time>2026-03-29T08:14:37.989Z</time></trkpt><trkpt lat="45.5088294" lon="10.4254355"><ele>172.0</ele><time>2026-03-29T08:14:38.988Z</time></trkpt><trkpt lat="45.5087803" lon="10.4253578"><ele>172.0</ele><time>2026-03-29T08:14:39.989Z</time></trkpt><trkpt lat="45.5087405" lon="10.4252756"><ele>171.2</ele><time>2026-03-29T08:14:40.989Z</time></trkpt><trkpt lat="45.508673" lon="10.4252454"><ele>170.39999999999998</ele><time>2026-03-29T08:14:41.989Z</time></trkpt><trkpt lat="45.508603" lon="10.4252467"><ele>169.60000000000002</ele><time>2026-03-29T08:14:42.989Z</time></trkpt><trkpt lat="45.5085151" lon="10.4251927"><ele>168.8</ele><time>2026-03-29T08:14:43.988Z</time></trkpt><trkpt lat="45.508428" lon="10.4250958"><ele>168.0</ele><time>2026-03-29T08:14:44.989Z</time></trkpt><trkpt lat="45.5083345" lon="10.4249857"><ele>168.0</ele><time>2026-03-29T08:14:45.989Z</time></trkpt><trkpt lat="45.5082307" lon="10.4248705"><ele>168.0</ele><time>2026-03-29T08:14:46.989Z</time></trkpt><trkpt lat="45.5081252" lon="10.4247536"><ele>168.0</ele><time>2026-03-29T08:14:47.99Z</time></trkpt><trkpt lat="45.5080169" lon="10.4246306"><ele>168.0</ele><time>2026-03-29T08:14:48.989Z</time></trkpt><trkpt lat="45.5079096" lon="10.4245043"><ele>168.2</ele><time>2026-03-29T08:14:49.988Z</time></trkpt><trkpt lat="45.5078035" lon="10.4243853"><ele>168.4</ele><time>2026-03-29T08:14:50.989Z</time></trkpt><trkpt lat="45.5077084" lon="10.4242816"><ele>168.6</ele><time>2026-03-29T08:14:51.988Z</time></trkpt><trkpt lat="45.5076254" lon="10.4241874"><ele>168.79999999999998</ele><time>2026-03-29T08:14:52.989Z</time></trkpt><trkpt lat="45.5075632" lon="10.4241093"><ele>169.0</ele><time>2026-03-29T08:14:53.989Z</time></trkpt><trkpt lat="45.5075202" lon="10.4240263"><ele>169.0</ele><time>2026-03-29T08:14:54.99Z</time></trkpt><trkpt lat="45.507476" lon="10.4239231"><ele>169.0</ele><time>2026-03-29T08:14:55.988Z</time></trkpt><trkpt lat="45.5074164" lon="10.4238102"><ele>169.0</ele><time>2026-03-29T08:14:56.99Z</time></trkpt><trkpt lat="45.5073364" lon="10.4237029"><ele>169.0</ele><time>2026-03-29T08:14:57.989Z</time></trkpt><trkpt lat="45.5072152" lon="10.4236255"><ele>169.0</ele><time>2026-03-29T08:14:58.989Z</time></trkpt><trkpt lat="45.507086" lon="10.4235746"><ele>168.5</ele><time>2026-03-29T08:14:59.988Z</time></trkpt><trkpt lat="45.5069544" lon="10.4235388"><ele>168.0</ele><time>2026-03-29T08:15:00.988Z</time></trkpt><trkpt lat="45.5068171" lon="10.423507"><ele>167.5</ele><time>2026-03-29T08:15:01.989Z</time></trkpt><trkpt lat="45.5066734" lon="10.4234778"><ele>167.0</ele><time>2026-03-29T08:15:02.989Z</time></trkpt><trkpt lat="45.5065307" lon="10.4234597"><ele>167.0</ele><time>2026-03-29T08:15:03.989Z</time></trkpt><trkpt lat="45.506386" lon="10.4234449"><ele>167.0</ele><time>2026-03-29T08:15:04.988Z</time></trkpt><trkpt lat="45.5062486" lon="10.4234349"><ele>167.0</ele><time>2026-03-29T08:15:05.989Z</time></trkpt><trkpt lat="45.5061137" lon="10.4234283"><ele>167.0</ele><time>2026-03-29T08:15:06.989Z</time></trkpt><trkpt lat="45.5059863" lon="10.4234215"><ele>167.0</ele><time>2026-03-29T08:15:07.988Z</time></trkpt><trkpt lat="45.5058567" lon="10.4233981"><ele>167.0</ele><time>2026-03-29T08:15:08.988Z</time></trkpt><trkpt lat="45.5057369" lon="10.4233429"><ele>167.0</ele><time>2026-03-29T08:15:09.989Z</time></trkpt><trkpt lat="45.5056394" lon="10.4232705"><ele>167.0</ele><time>2026-03-29T08:15:10.989Z</time></trkpt><trkpt lat="45.505548" lon="10.4231752"><ele>167.0</ele><time>2026-03-29T08:15:11.988Z</time></trkpt><trkpt lat="45.5054534" lon="10.4230825"><ele>167.0</ele><time>2026-03-29T08:15:12.989Z</time></trkpt><trkpt lat="45.5053577" lon="10.4229956"><ele>167.0</ele><time>2026-03-29T08:15:13.989Z</time></trkpt><trkpt lat="45.5052617" lon="10.4229178"><ele>167.0</ele><time>2026-03-29T08:15:14.989Z</time></trkpt><trkpt lat="45.5051645" lon="10.4228599"><ele>167.0</ele><time>2026-03-29T08:15:15.988Z</time></trkpt><trkpt lat="45.5050583" lon="10.4228281"><ele>167.2</ele><time>2026-03-29T08:15:16.99Z</time></trkpt><trkpt lat="45.5049495" lon="10.422821"><ele>167.39999999999998</ele><time>2026-03-29T08:15:17.989Z</time></trkpt><trkpt lat="45.5048336" lon="10.4228128"><ele>167.60000000000002</ele><time>2026-03-29T08:15:18.988Z</time></trkpt><trkpt lat="45.50472" lon="10.4227993"><ele>167.8</ele><time>2026-03-29T08:15:19.988Z</time></trkpt><trkpt lat="45.5046105" lon="10.4227973"><ele>168.0</ele><time>2026-03-29T08:15:20.989Z</time></trkpt><trkpt lat="45.5045116" lon="10.4227956"><ele>168.0</ele><time>2026-03-29T08:15:21.989Z</time></trkpt><trkpt lat="45.5044193" lon="10.4227936"><ele>168.0</ele><time>2026-03-29T08:15:22.988Z</time></trkpt><trkpt lat="45.5043295" lon="10.422787"><ele>168.0</ele><time>2026-03-29T08:15:23.99Z</time></trkpt><trkpt lat="45.5042422" lon="10.4227746"><ele>168.0</ele><time>2026-03-29T08:15:24.988Z</time></trkpt><trkpt lat="45.5041609" lon="10.422749"><ele>168.0</ele><time>2026-03-29T08:15:25.989Z</time></trkpt><trkpt lat="45.5040719" lon="10.4227306"><ele>168.0</ele><time>2026-03-29T08:15:26.989Z</time></trkpt><trkpt lat="45.5039753" lon="10.4227182"><ele>168.0</ele><time>2026-03-29T08:15:27.989Z</time></trkpt><trkpt lat="45.5038802" lon="10.4227026"><ele>168.0</ele><time>2026-03-29T08:15:28.989Z</time></trkpt><trkpt lat="45.5037954" lon="10.4226921"><ele>168.0</ele><time>2026-03-29T08:15:29.988Z</time></trkpt><trkpt lat="45.5037091" lon="10.4226847"><ele>168.0</ele><time>2026-03-29T08:15:30.988Z</time></trkpt><trkpt lat="45.5036239" lon="10.4227119"><ele>168.0</ele><time>2026-03-29T08:15:31.989Z</time></trkpt><trkpt lat="45.5035377" lon="10.4227475"><ele>168.0</ele><time>2026-03-29T08:15:32.989Z</time></trkpt><trkpt lat="45.5034481" lon="10.4227924"><ele>167.75</ele><time>2026-03-29T08:15:33.988Z</time></trkpt><trkpt lat="45.5033502" lon="10.422835"><ele>167.5</ele><time>2026-03-29T08:15:34.988Z</time></trkpt><trkpt lat="45.5032459" lon="10.4228964"><ele>167.25</ele><time>2026-03-29T08:15:35.989Z</time></trkpt><trkpt lat="45.5031408" lon="10.4229735"><ele>167.0</ele><time>2026-03-29T08:15:36.989Z</time></trkpt><trkpt lat="45.5030304" lon="10.4230665"><ele>166.75</ele><time>2026-03-29T08:15:37.989Z</time></trkpt><trkpt lat="45.5029287" lon="10.423161"><ele>166.5</ele><time>2026-03-29T08:15:38.989Z</time></trkpt><trkpt lat="45.5028302" lon="10.4232558"><ele>166.25</ele><time>2026-03-29T08:15:39.988Z</time></trkpt><trkpt lat="45.5027297" lon="10.4233612"><ele>166.0</ele><time>2026-03-29T08:15:40.989Z</time></trkpt><trkpt lat="45.502617" lon="10.4234401"><ele>165.5</ele><time>2026-03-29T08:15:41.988Z</time></trkpt><trkpt lat="45.5024915" lon="10.4235001"><ele>165.0</ele><time>2026-03-29T08:15:42.989Z</time></trkpt><trkpt lat="45.5023525" lon="10.4235496"><ele>164.5</ele><time>2026-03-29T08:15:43.989Z</time></trkpt><trkpt lat="45.5022116" lon="10.4235756"><ele>164.0</ele><time>2026-03-29T08:15:44.988Z</time></trkpt><trkpt lat="45.5020843" lon="10.4235709"><ele>163.6</ele><time>2026-03-29T08:15:45.989Z</time></trkpt><trkpt lat="45.501975" lon="10.4235515"><ele>163.2</ele><time>2026-03-29T08:15:46.988Z</time></trkpt><trkpt lat="45.5018728" lon="10.4235355"><ele>162.79999999999998</ele><time>2026-03-29T08:15:47.988Z</time></trkpt><trkpt lat="45.5017684" lon="10.4235356"><ele>162.39999999999998</ele><time>2026-03-29T08:15:48.988Z</time></trkpt><trkpt lat="45.5016606" lon="10.4235565"><ele>162.0</ele><time>2026-03-29T08:15:49.989Z</time></trkpt><trkpt lat="45.5015523" lon="10.4235747"><ele>162.0</ele><time>2026-03-29T08:15:50.988Z</time></trkpt><trkpt lat="45.5014427" lon="10.4235891"><ele>162.0</ele><time>2026-03-29T08:15:51.989Z</time></trkpt><trkpt lat="45.5013349" lon="10.4235994"><ele>162.0</ele><time>2026-03-29T08:15:52.989Z</time></trkpt><trkpt lat="45.5012177" lon="10.4236189"><ele>162.0</ele><time>2026-03-29T08:15:53.989Z</time></trkpt><trkpt lat="45.5011005" lon="10.4236288"><ele>161.75</ele><time>2026-03-29T08:15:54.988Z</time></trkpt><trkpt lat="45.5009806" lon="10.4236345"><ele>161.5</ele><time>2026-03-29T08:15:55.988Z</time></trkpt><trkpt lat="45.5008523" lon="10.4236438"><ele>161.25</ele><time>2026-03-29T08:15:56.99Z</time></trkpt><trkpt lat="45.5007156" lon="10.4236572"><ele>161.0</ele><time>2026-03-29T08:15:57.989Z</time></trkpt><trkpt lat="45.5005786" lon="10.4236729"><ele>161.0</ele><time>2026-03-29T08:15:58.989Z</time></trkpt><trkpt lat="45.5004393" lon="10.4236867"><ele>161.0</ele><time>2026-03-29T08:15:59.989Z</time></trkpt><trkpt lat="45.5003054" lon="10.423699"><ele>161.0</ele><time>2026-03-29T08:16:00.988Z</time></trkpt><trkpt lat="45.5001741" lon="10.4237212"><ele>161.0</ele><time>2026-03-29T08:16:01.988Z</time></trkpt><trkpt lat="45.5000478" lon="10.4237588"><ele>160.5</ele><time>2026-03-29T08:16:02.989Z</time></trkpt><trkpt lat="45.4999222" lon="10.4238152"><ele>160.0</ele><time>2026-03-29T08:16:03.988Z</time></trkpt><trkpt lat="45.4997936" lon="10.4238912"><ele>159.5</ele><time>2026-03-29T08:16:04.988Z</time></trkpt><trkpt lat="45.4996697" lon="10.423987"><ele>159.0</ele><time>2026-03-29T08:16:05.989Z</time></trkpt><trkpt lat="45.4995486" lon="10.4240692"><ele>159.0</ele><time>2026-03-29T08:16:06.988Z</time></trkpt><trkpt lat="45.4994279" lon="10.424148"><ele>159.0</ele><time>2026-03-29T08:16:07.989Z</time></trkpt><trkpt lat="45.4993056" lon="10.4242291"><ele>159.0</ele><time>2026-03-29T08:16:08.988Z</time></trkpt><trkpt lat="45.4991865" lon="10.4243114"><ele>159.0</ele><time>2026-03-29T08:16:09.989Z</time></trkpt><trkpt lat="45.4990656" lon="10.4243878"><ele>159.0</ele><time>2026-03-29T08:16:10.988Z</time></trkpt><trkpt lat="45.498943" lon="10.4244597"><ele>159.0</ele><time>2026-03-29T08:16:11.989Z</time></trkpt><trkpt lat="45.4988195" lon="10.4245234"><ele>159.0</ele><time>2026-03-29T08:16:12.988Z</time></trkpt><trkpt lat="45.4986945" lon="10.4245922"><ele>159.0</ele><time>2026-03-29T08:16:13.989Z</time></trkpt><trkpt lat="45.498571" lon="10.4246722"><ele>159.0</ele><time>2026-03-29T08:16:14.989Z</time></trkpt><trkpt lat="45.4984427" lon="10.4247577"><ele>159.0</ele><time>2026-03-29T08:16:15.989Z</time></trkpt><trkpt lat="45.4983282" lon="10.4248396"><ele>159.0</ele><time>2026-03-29T08:16:16.988Z</time></trkpt><trkpt lat="45.4982188" lon="10.4249205"><ele>159.0</ele><time>2026-03-29T08:16:17.989Z</time></trkpt><trkpt lat="45.4981138" lon="10.4249973"><ele>159.0</ele><time>2026-03-29T08:16:18.989Z</time></trkpt><trkpt lat="45.4980106" lon="10.4250738"><ele>159.0</ele><time>2026-03-29T08:16:19.989Z</time></trkpt><trkpt lat="45.4979073" lon="10.4251484"><ele>159.0</ele><time>2026-03-29T08:16:20.988Z</time></trkpt><trkpt lat="45.4978011" lon="10.4252288"><ele>159.0</ele><time>2026-03-29T08:16:21.989Z</time></trkpt><trkpt lat="45.497691" lon="10.425313"><ele>158.5</ele><time>2026-03-29T08:16:22.988Z</time></trkpt><trkpt lat="45.4975782" lon="10.4254054"><ele>158.0</ele><time>2026-03-29T08:16:23.989Z</time></trkpt><trkpt lat="45.4974629" lon="10.425495"><ele>157.5</ele><time>2026-03-29T08:16:24.988Z</time></trkpt><trkpt lat="45.4973409" lon="10.4255886"><ele>157.0</ele><time>2026-03-29T08:16:25.989Z</time></trkpt><trkpt lat="45.4972185" lon="10.4256875"><ele>157.0</ele><time>2026-03-29T08:16:26.989Z</time></trkpt><trkpt lat="45.4970982" lon="10.4257949"><ele>157.0</ele><time>2026-03-29T08:16:27.988Z</time></trkpt><trkpt lat="45.4969817" lon="10.4259111"><ele>157.0</ele><time>2026-03-29T08:16:28.989Z</time></trkpt><trkpt lat="45.496867" lon="10.4260378"><ele>157.0</ele><time>2026-03-29T08:16:29.989Z</time></trkpt><trkpt lat="45.4967568" lon="10.4261691"><ele>157.0</ele><time>2026-03-29T08:16:30.989Z</time></trkpt><trkpt lat="45.4966453" lon="10.4262995"><ele>157.0</ele><time>2026-03-29T08:16:31.989Z</time></trkpt><trkpt lat="45.4965344" lon="10.4264344"><ele>157.0</ele><time>2026-03-29T08:16:32.989Z</time></trkpt><trkpt lat="45.4964237" lon="10.426568"><ele>157.0</ele><time>2026-03-29T08:16:33.988Z</time></trkpt><trkpt lat="45.4963117" lon="10.4266893"><ele>157.0</ele><time>2026-03-29T08:16:34.989Z</time></trkpt><trkpt lat="45.4961991" lon="10.4268192"><ele>157.0</ele><time>2026-03-29T08:16:35.989Z</time></trkpt><trkpt lat="45.4960837" lon="10.4269526"><ele>157.0</ele><time>2026-03-29T08:16:36.989Z</time></trkpt><trkpt lat="45.4959709" lon="10.4270914"><ele>157.0</ele><time>2026-03-29T08:16:37.989Z</time></trkpt><trkpt lat="45.4958577" lon="10.4272291"><ele>157.0</ele><time>2026-03-29T08:16:38.989Z</time></trkpt><trkpt lat="45.4957388" lon="10.4273633"><ele>157.0</ele><time>2026-03-29T08:16:39.989Z</time></trkpt><trkpt lat="45.4956092" lon="10.4274895"><ele>157.0</ele><time>2026-03-29T08:16:40.988Z</time></trkpt><trkpt lat="45.4954759" lon="10.4276067"><ele>156.66666666666669</ele><time>2026-03-29T08:16:41.989Z</time></trkpt><trkpt lat="45.4953444" lon="10.4277198"><ele>156.33333333333334</ele><time>2026-03-29T08:16:42.988Z</time></trkpt><trkpt lat="45.4952115" lon="10.4278389"><ele>156.0</ele><time>2026-03-29T08:16:43.989Z</time></trkpt><trkpt lat="45.4950784" lon="10.4279583"><ele>155.66666666666666</ele><time>2026-03-29T08:16:44.988Z</time></trkpt><trkpt lat="45.4949457" lon="10.4280753"><ele>155.33333333333331</ele><time>2026-03-29T08:16:45.989Z</time></trkpt><trkpt lat="45.494814" lon="10.4281942"><ele>155.0</ele><time>2026-03-29T08:16:46.989Z</time></trkpt><trkpt lat="45.4946825" lon="10.4283106"><ele>155.0</ele><time>2026-03-29T08:16:47.989Z</time></trkpt><trkpt lat="45.4945511" lon="10.4284317"><ele>155.0</ele><time>2026-03-29T08:16:48.988Z</time></trkpt><trkpt lat="45.4944249" lon="10.4285481"><ele>155.0</ele><time>2026-03-29T08:16:49.989Z</time></trkpt><trkpt lat="45.494296" lon="10.4286632"><ele>155.0</ele><time>2026-03-29T08:16:50.989Z</time></trkpt><trkpt lat="45.4941665" lon="10.4287738"><ele>155.0</ele><time>2026-03-29T08:16:51.989Z</time></trkpt><trkpt lat="45.4940414" lon="10.4288919"><ele>155.0</ele><time>2026-03-29T08:16:52.989Z</time></trkpt><trkpt lat="45.4939149" lon="10.4290028"><ele>155.0</ele><time>2026-03-29T08:16:53.988Z</time></trkpt><trkpt lat="45.4937945" lon="10.4291171"><ele>154.75</ele><time>2026-03-29T08:16:54.989Z</time></trkpt><trkpt lat="45.4936871" lon="10.429222"><ele>154.5</ele><time>2026-03-29T08:16:55.988Z</time></trkpt><trkpt lat="45.4935902" lon="10.4293201"><ele>154.25</ele><time>2026-03-29T08:16:56.989Z</time></trkpt><trkpt lat="45.4935049" lon="10.4294124"><ele>154.0</ele><time>2026-03-29T08:16:57.99Z</time></trkpt><trkpt lat="45.4934206" lon="10.4295047"><ele>154.0</ele><time>2026-03-29T08:16:58.989Z</time></trkpt><trkpt lat="45.4933463" lon="10.4295957"><ele>154.0</ele><time>2026-03-29T08:16:59.988Z</time></trkpt><trkpt lat="45.4932759" lon="10.4296766"><ele>154.0</ele><time>2026-03-29T08:17:00.988Z</time></trkpt><trkpt lat="45.493197" lon="10.4297255"><ele>154.0</ele><time>2026-03-29T08:17:01.989Z</time></trkpt><trkpt lat="45.4931109" lon="10.4297281"><ele>154.0</ele><time>2026-03-29T08:17:02.989Z</time></trkpt><trkpt lat="45.4930188" lon="10.4296791"><ele>154.0</ele><time>2026-03-29T08:17:03.988Z</time></trkpt><trkpt lat="45.4929237" lon="10.4295935"><ele>154.0</ele><time>2026-03-29T08:17:04.989Z</time></trkpt><trkpt lat="45.492827" lon="10.4294896"><ele>154.0</ele><time>2026-03-29T08:17:05.989Z</time></trkpt><trkpt lat="45.4927233" lon="10.4293878"><ele>154.0</ele><time>2026-03-29T08:17:06.989Z</time></trkpt><trkpt lat="45.4926029" lon="10.4293067"><ele>154.0</ele><time>2026-03-29T08:17:07.988Z</time></trkpt><trkpt lat="45.4924658" lon="10.4292587"><ele>154.0</ele><time>2026-03-29T08:17:08.988Z</time></trkpt><trkpt lat="45.4923247" lon="10.4292505"><ele>154.0</ele><time>2026-03-29T08:17:09.989Z</time></trkpt><trkpt lat="45.4921848" lon="10.4292535"><ele>154.0</ele><time>2026-03-29T08:17:10.989Z</time></trkpt><trkpt lat="45.4920439" lon="10.4292568"><ele>153.75</ele><time>2026-03-29T08:17:11.988Z</time></trkpt><trkpt lat="45.4919022" lon="10.4292611"><ele>153.5</ele><time>2026-03-29T08:17:12.989Z</time></trkpt><trkpt lat="45.4917585" lon="10.4292618"><ele>153.25</ele><time>2026-03-29T08:17:13.988Z</time></trkpt><trkpt lat="45.4916122" lon="10.4292533"><ele>153.0</ele><time>2026-03-29T08:17:14.989Z</time></trkpt><trkpt lat="45.4914754" lon="10.429237"><ele>153.0</ele><time>2026-03-29T08:17:15.989Z</time></trkpt><trkpt lat="45.4913506" lon="10.4292182"><ele>153.0</ele><time>2026-03-29T08:17:16.988Z</time></trkpt><trkpt lat="45.4912373" lon="10.429195"><ele>153.0</ele><time>2026-03-29T08:17:17.99Z</time></trkpt><trkpt lat="45.4911317" lon="10.429177"><ele>153.0</ele><time>2026-03-29T08:17:18.988Z</time></trkpt><trkpt lat="45.4910255" lon="10.4291811"><ele>153.20000000000002</ele><time>2026-03-29T08:17:19.989Z</time></trkpt><trkpt lat="45.4909369" lon="10.4292264"><ele>153.4</ele><time>2026-03-29T08:17:20.988Z</time></trkpt><trkpt lat="45.4908644" lon="10.4293149"><ele>153.60000000000002</ele><time>2026-03-29T08:17:21.989Z</time></trkpt><trkpt lat="45.4908162" lon="10.4294543"><ele>153.8</ele><time>2026-03-29T08:17:22.988Z</time></trkpt><trkpt lat="45.4907799" lon="10.4296235"><ele>154.0</ele><time>2026-03-29T08:17:23.989Z</time></trkpt><trkpt lat="45.4907479" lon="10.4298149"><ele>154.0</ele><time>2026-03-29T08:17:24.988Z</time></trkpt><trkpt lat="45.4907196" lon="10.4300179"><ele>154.0</ele><time>2026-03-29T08:17:25.989Z</time></trkpt><trkpt lat="45.4906892" lon="10.4302268"><ele>154.0</ele><time>2026-03-29T08:17:26.988Z</time></trkpt><trkpt lat="45.4906541" lon="10.4304452"><ele>153.0</ele><time>2026-03-29T08:17:27.988Z</time></trkpt><trkpt lat="45.4906191" lon="10.4306665"><ele>152.0</ele><time>2026-03-29T08:17:28.989Z</time></trkpt><trkpt lat="45.4905867" lon="10.4308768"><ele>151.0</ele><time>2026-03-29T08:17:29.988Z</time></trkpt><trkpt lat="45.4905586" lon="10.4310641"><ele>150.0</ele><time>2026-03-29T08:17:30.989Z</time></trkpt><trkpt lat="45.4905207" lon="10.4312172"><ele>150.25</ele><time>2026-03-29T08:17:31.989Z</time></trkpt><trkpt lat="45.4904651" lon="10.4313378"><ele>150.5</ele><time>2026-03-29T08:17:32.989Z</time></trkpt><trkpt lat="45.4903693" lon="10.4314312"><ele>150.75</ele><time>2026-03-29T08:17:33.988Z</time></trkpt><trkpt lat="45.4902468" lon="10.4314915"><ele>151.0</ele><time>2026-03-29T08:17:34.989Z</time></trkpt><trkpt lat="45.4901082" lon="10.4315478"><ele>151.0</ele><time>2026-03-29T08:17:35.989Z</time></trkpt><trkpt lat="45.4899664" lon="10.4316006"><ele>151.0</ele><time>2026-03-29T08:17:36.988Z</time></trkpt><trkpt lat="45.4898176" lon="10.4316589"><ele>151.0</ele><time>2026-03-29T08:17:37.989Z</time></trkpt><trkpt lat="45.4896613" lon="10.4316985"><ele>150.66666666666669</ele><time>2026-03-29T08:17:38.988Z</time></trkpt><trkpt lat="45.4895024" lon="10.4317223"><ele>150.33333333333334</ele><time>2026-03-29T08:17:39.989Z</time></trkpt><trkpt lat="45.4893409" lon="10.4317407"><ele>150.0</ele><time>2026-03-29T08:17:40.989Z</time></trkpt><trkpt lat="45.4891775" lon="10.431754"><ele>150.0</ele><time>2026-03-29T08:17:41.989Z</time></trkpt><trkpt lat="45.4890095" lon="10.4317783"><ele>150.0</ele><time>2026-03-29T08:17:42.989Z</time></trkpt><trkpt lat="45.4888454" lon="10.4318156"><ele>150.0</ele><time>2026-03-29T08:17:43.988Z</time></trkpt><trkpt lat="45.48868" lon="10.4318569"><ele>150.0</ele><time>2026-03-29T08:17:44.989Z</time></trkpt><trkpt lat="45.4885113" lon="10.4319161"><ele>150.0</ele><time>2026-03-29T08:17:45.988Z</time></trkpt><trkpt lat="45.4883456" lon="10.4319888"><ele>150.0</ele><time>2026-03-29T08:17:46.989Z</time></trkpt><trkpt lat="45.4881815" lon="10.4320645"><ele>150.0</ele><time>2026-03-29T08:17:47.989Z</time></trkpt><trkpt lat="45.4880213" lon="10.4321341"><ele>150.0</ele><time>2026-03-29T08:17:48.989Z</time></trkpt><trkpt lat="45.4878626" lon="10.4322104"><ele>150.0</ele><time>2026-03-29T08:17:49.989Z</time></trkpt><trkpt lat="45.4877074" lon="10.4322872"><ele>150.33333333333334</ele><time>2026-03-29T08:17:50.989Z</time></trkpt><trkpt lat="45.4875511" lon="10.4323575"><ele>150.66666666666669</ele><time>2026-03-29T08:17:51.989Z</time></trkpt><trkpt lat="45.4873965" lon="10.4324278"><ele>151.0</ele><time>2026-03-29T08:17:52.99Z</time></trkpt><trkpt lat="45.4872415" lon="10.4325054"><ele>151.0</ele><time>2026-03-29T08:17:53.989Z</time></trkpt><trkpt lat="45.4870813" lon="10.4325717"><ele>151.0</ele><time>2026-03-29T08:17:54.988Z</time></trkpt><trkpt lat="45.4869146" lon="10.4326265"><ele>151.0</ele><time>2026-03-29T08:17:55.989Z</time></trkpt><trkpt lat="45.4867464" lon="10.432674"><ele>151.0</ele><time>2026-03-29T08:17:56.988Z</time></trkpt><trkpt lat="45.4865813" lon="10.4327242"><ele>151.0</ele><time>2026-03-29T08:17:57.988Z</time></trkpt><trkpt lat="45.4864219" lon="10.4327737"><ele>151.0</ele><time>2026-03-29T08:17:58.989Z</time></trkpt><trkpt lat="45.4862639" lon="10.4328117"><ele>150.33333333333334</ele><time>2026-03-29T08:17:59.989Z</time></trkpt><trkpt lat="45.4861117" lon="10.4328381"><ele>149.66666666666666</ele><time>2026-03-29T08:18:00.988Z</time></trkpt><trkpt lat="45.4859616" lon="10.4328207"><ele>149.0</ele><time>2026-03-29T08:18:01.989Z</time></trkpt><trkpt lat="45.4858093" lon="10.4327633"><ele>149.0</ele><time>2026-03-29T08:18:02.988Z</time></trkpt><trkpt lat="45.4856605" lon="10.4326565"><ele>149.0</ele><time>2026-03-29T08:18:03.988Z</time></trkpt><trkpt lat="45.485503" lon="10.432556"><ele>149.0</ele><time>2026-03-29T08:18:04.988Z</time></trkpt><trkpt lat="45.4853427" lon="10.4324571"><ele>149.0</ele><time>2026-03-29T08:18:05.989Z</time></trkpt><trkpt lat="45.4851765" lon="10.4323616"><ele>149.0</ele><time>2026-03-29T08:18:06.989Z</time></trkpt><trkpt lat="45.4850024" lon="10.4322792"><ele>149.0</ele><time>2026-03-29T08:18:07.989Z</time></trkpt><trkpt lat="45.4848259" lon="10.4322072"><ele>149.0</ele><time>2026-03-29T08:18:08.989Z</time></trkpt><trkpt lat="45.4846446" lon="10.4321501"><ele>149.0</ele><time>2026-03-29T08:18:09.989Z</time></trkpt><trkpt lat="45.4844638" lon="10.4320929"><ele>149.0</ele><time>2026-03-29T08:18:10.989Z</time></trkpt><trkpt lat="45.4842805" lon="10.4320283"><ele>148.66666666666666</ele><time>2026-03-29T08:18:11.989Z</time></trkpt><trkpt lat="45.4840996" lon="10.4319625"><ele>148.33333333333334</ele><time>2026-03-29T08:18:12.989Z</time></trkpt><trkpt lat="45.4839198" lon="10.4318935"><ele>148.0</ele><time>2026-03-29T08:18:13.989Z</time></trkpt><trkpt lat="45.4837434" lon="10.4318287"><ele>147.0</ele><time>2026-03-29T08:18:14.989Z</time></trkpt><trkpt lat="45.4835675" lon="10.4317653"><ele>146.0</ele><time>2026-03-29T08:18:15.988Z</time></trkpt><trkpt lat="45.4833909" lon="10.4316982"><ele>145.0</ele><time>2026-03-29T08:18:16.989Z</time></trkpt><trkpt lat="45.4832185" lon="10.431633"><ele>145.0</ele><time>2026-03-29T08:18:17.989Z</time></trkpt><trkpt lat="45.4830425" lon="10.4315759"><ele>145.0</ele><time>2026-03-29T08:18:18.988Z</time></trkpt><trkpt lat="45.4828688" lon="10.431527"><ele>145.0</ele><time>2026-03-29T08:18:19.989Z</time></trkpt><trkpt lat="45.482694" lon="10.4314847"><ele>145.33333333333334</ele><time>2026-03-29T08:18:20.988Z</time></trkpt><trkpt lat="45.4825262" lon="10.4314472"><ele>145.66666666666666</ele><time>2026-03-29T08:18:21.989Z</time></trkpt><trkpt lat="45.482359" lon="10.4314126"><ele>146.0</ele><time>2026-03-29T08:18:22.988Z</time></trkpt><trkpt lat="45.4821859" lon="10.4313849"><ele>145.66666666666666</ele><time>2026-03-29T08:18:23.989Z</time></trkpt><trkpt lat="45.4820085" lon="10.4313755"><ele>145.33333333333334</ele><time>2026-03-29T08:18:24.989Z</time></trkpt><trkpt lat="45.481828" lon="10.4313806"><ele>145.0</ele><time>2026-03-29T08:18:25.989Z</time></trkpt><trkpt lat="45.481646" lon="10.4314013"><ele>145.0</ele><time>2026-03-29T08:18:26.988Z</time></trkpt><trkpt lat="45.4814752" lon="10.4314236"><ele>145.0</ele><time>2026-03-29T08:18:27.989Z</time></trkpt><trkpt lat="45.4813168" lon="10.4314542"><ele>145.0</ele><time>2026-03-29T08:18:28.989Z</time></trkpt><trkpt lat="45.4811651" lon="10.4314634"><ele>144.66666666666669</ele><time>2026-03-29T08:18:29.989Z</time></trkpt><trkpt lat="45.4810152" lon="10.431453"><ele>144.33333333333334</ele><time>2026-03-29T08:18:30.989Z</time></trkpt><trkpt lat="45.4808629" lon="10.4314084"><ele>144.0</ele><time>2026-03-29T08:18:31.989Z</time></trkpt><trkpt lat="45.4807095" lon="10.4313329"><ele>144.33333333333334</ele><time>2026-03-29T08:18:32.989Z</time></trkpt><trkpt lat="45.480561" lon="10.4312373"><ele>144.66666666666669</ele><time>2026-03-29T08:18:33.988Z</time></trkpt><trkpt lat="45.4804128" lon="10.4311389"><ele>145.0</ele><time>2026-03-29T08:18:34.989Z</time></trkpt><trkpt lat="45.4802675" lon="10.431031"><ele>144.33333333333334</ele><time>2026-03-29T08:18:35.989Z</time></trkpt><trkpt lat="45.4801164" lon="10.4309135"><ele>143.66666666666666</ele><time>2026-03-29T08:18:36.989Z</time></trkpt><trkpt lat="45.4799591" lon="10.4307953"><ele>143.0</ele><time>2026-03-29T08:18:37.988Z</time></trkpt><trkpt lat="45.4797924" lon="10.4306881"><ele>143.0</ele><time>2026-03-29T08:18:38.99Z</time></trkpt><trkpt lat="45.4796218" lon="10.4305965"><ele>143.0</ele><time>2026-03-29T08:18:39.989Z</time></trkpt><trkpt lat="45.4794499" lon="10.4305275"><ele>143.0</ele><time>2026-03-29T08:18:40.989Z</time></trkpt><trkpt lat="45.4792821" lon="10.4304624"><ele>142.33333333333331</ele><time>2026-03-29T08:18:41.989Z</time></trkpt><trkpt lat="45.4791142" lon="10.4304022"><ele>141.66666666666666</ele><time>2026-03-29T08:18:42.99Z</time></trkpt><trkpt lat="45.4789497" lon="10.4303491"><ele>141.0</ele><time>2026-03-29T08:18:43.989Z</time></trkpt><trkpt lat="45.4787878" lon="10.4302988"><ele>141.0</ele><time>2026-03-29T08:18:44.989Z</time></trkpt><trkpt lat="45.4786211" lon="10.4302463"><ele>141.0</ele><time>2026-03-29T08:18:45.989Z</time></trkpt><trkpt lat="45.47846" lon="10.4301927"><ele>141.0</ele><time>2026-03-29T08:18:46.989Z</time></trkpt><trkpt lat="45.4782986" lon="10.430146"><ele>141.0</ele><time>2026-03-29T08:18:47.989Z</time></trkpt><trkpt lat="45.478137" lon="10.4301023"><ele>141.0</ele><time>2026-03-29T08:18:48.989Z</time></trkpt><trkpt lat="45.4779754" lon="10.4300657"><ele>141.0</ele><time>2026-03-29T08:18:49.989Z</time></trkpt><trkpt lat="45.4778099" lon="10.4300339"><ele>140.75</ele><time>2026-03-29T08:18:50.989Z</time></trkpt><trkpt lat="45.477653" lon="10.4300044"><ele>140.5</ele><time>2026-03-29T08:18:51.989Z</time></trkpt><trkpt lat="45.477513" lon="10.4299778"><ele>140.25</ele><time>2026-03-29T08:18:52.988Z</time></trkpt><trkpt lat="45.477392" lon="10.4299515"><ele>140.0</ele><time>2026-03-29T08:18:53.99Z</time></trkpt><trkpt lat="45.4772908" lon="10.4299642"><ele>140.0</ele><time>2026-03-29T08:18:54.988Z</time></trkpt><trkpt lat="45.4772042" lon="10.4300359"><ele>140.0</ele><time>2026-03-29T08:18:55.989Z</time></trkpt><trkpt lat="45.477136" lon="10.4301549"><ele>140.0</ele><time>2026-03-29T08:18:56.988Z</time></trkpt><trkpt lat="45.4770875" lon="10.4303009"><ele>140.0</ele><time>2026-03-29T08:18:57.989Z</time></trkpt><trkpt lat="45.4770589" lon="10.4304687"><ele>140.0</ele><time>2026-03-29T08:18:58.989Z</time></trkpt><trkpt lat="45.4770321" lon="10.4306368"><ele>139.75</ele><time>2026-03-29T08:18:59.988Z</time></trkpt><trkpt lat="45.4769747" lon="10.4307822"><ele>139.5</ele><time>2026-03-29T08:19:00.988Z</time></trkpt><trkpt lat="45.4768887" lon="10.4308902"><ele>139.25</ele><time>2026-03-29T08:19:01.989Z</time></trkpt><trkpt lat="45.4767786" lon="10.4309405"><ele>139.0</ele><time>2026-03-29T08:19:02.989Z</time></trkpt><trkpt lat="45.4766519" lon="10.4309337"><ele>139.0</ele><time>2026-03-29T08:19:03.989Z</time></trkpt><trkpt lat="45.4765126" lon="10.4308752"><ele>139.0</ele><time>2026-03-29T08:19:04.988Z</time></trkpt><trkpt lat="45.4763655" lon="10.4307966"><ele>139.0</ele><time>2026-03-29T08:19:05.989Z</time></trkpt><trkpt lat="45.4762114" lon="10.4307286"><ele>139.33333333333334</ele><time>2026-03-29T08:19:06.989Z</time></trkpt><trkpt lat="45.4760481" lon="10.4306638"><ele>139.66666666666666</ele><time>2026-03-29T08:19:07.989Z</time></trkpt><trkpt lat="45.4758838" lon="10.430592"><ele>140.0</ele><time>2026-03-29T08:19:08.989Z</time></trkpt><trkpt lat="45.47572" lon="10.4305124"><ele>139.66666666666666</ele><time>2026-03-29T08:19:09.989Z</time></trkpt><trkpt lat="45.4755541" lon="10.4304194"><ele>139.33333333333334</ele><time>2026-03-29T08:19:10.989Z</time></trkpt><trkpt lat="45.4753861" lon="10.4303106"><ele>139.0</ele><time>2026-03-29T08:19:11.988Z</time></trkpt><trkpt lat="45.4752114" lon="10.4302136"><ele>139.0</ele><time>2026-03-29T08:19:12.989Z</time></trkpt><trkpt lat="45.4750326" lon="10.4301219"><ele>139.0</ele><time>2026-03-29T08:19:13.989Z</time></trkpt><trkpt lat="45.4748527" lon="10.4300309"><ele>139.0</ele><time>2026-03-29T08:19:14.989Z</time></trkpt><trkpt lat="45.4746742" lon="10.4299402"><ele>138.66666666666669</ele><time>2026-03-29T08:19:15.988Z</time></trkpt><trkpt lat="45.4745018" lon="10.4298522"><ele>138.33333333333334</ele><time>2026-03-29T08:19:16.989Z</time></trkpt><trkpt lat="45.4743369" lon="10.42977"><ele>138.0</ele><time>2026-03-29T08:19:17.989Z</time></trkpt><trkpt lat="45.474184" lon="10.4296971"><ele>137.75</ele><time>2026-03-29T08:19:18.988Z</time></trkpt><trkpt lat="45.4740476" lon="10.4296336"><ele>137.5</ele><time>2026-03-29T08:19:19.988Z</time></trkpt><trkpt lat="45.4739299" lon="10.429568"><ele>137.25</ele><time>2026-03-29T08:19:20.989Z</time></trkpt><trkpt lat="45.4738371" lon="10.4295093"><ele>137.0</ele><time>2026-03-29T08:19:21.989Z</time></trkpt><trkpt lat="45.4737625" lon="10.4294758"><ele>137.0</ele><time>2026-03-29T08:19:22.989Z</time></trkpt><trkpt lat="45.4736484" lon="10.429518"><ele>137.0</ele><time>2026-03-29T08:19:24.989Z</time></trkpt><trkpt lat="45.4736059" lon="10.4296114"><ele>137.0</ele><time>2026-03-29T08:19:25.989Z</time></trkpt><trkpt lat="45.4735861" lon="10.4297442"><ele>137.0</ele><time>2026-03-29T08:19:26.988Z</time></trkpt><trkpt lat="45.4735726" lon="10.4299"><ele>137.0</ele><time>2026-03-29T08:19:27.989Z</time></trkpt><trkpt lat="45.473545" lon="10.4300766"><ele>137.0</ele><time>2026-03-29T08:19:28.988Z</time></trkpt><trkpt lat="45.473516" lon="10.4302641"><ele>137.0</ele><time>2026-03-29T08:19:29.988Z</time></trkpt><trkpt lat="45.473484" lon="10.4304659"><ele>137.0</ele><time>2026-03-29T08:19:30.989Z</time></trkpt><trkpt lat="45.4734483" lon="10.4306724"><ele>137.0</ele><time>2026-03-29T08:19:31.989Z</time></trkpt><trkpt lat="45.4734007" lon="10.4308773"><ele>137.0</ele><time>2026-03-29T08:19:32.989Z</time></trkpt><trkpt lat="45.4733469" lon="10.4310829"><ele>137.0</ele><time>2026-03-29T08:19:33.988Z</time></trkpt><trkpt lat="45.4732897" lon="10.4312917"><ele>137.0</ele><time>2026-03-29T08:19:34.989Z</time></trkpt><trkpt lat="45.473231" lon="10.4315034"><ele>137.66666666666666</ele><time>2026-03-29T08:19:35.988Z</time></trkpt><trkpt lat="45.4731712" lon="10.4317131"><ele>138.33333333333334</ele><time>2026-03-29T08:19:36.989Z</time></trkpt><trkpt lat="45.4731117" lon="10.4319285"><ele>139.0</ele><time>2026-03-29T08:19:37.988Z</time></trkpt><trkpt lat="45.4730517" lon="10.4321408"><ele>139.0</ele><time>2026-03-29T08:19:38.988Z</time></trkpt><trkpt lat="45.4729933" lon="10.4323552"><ele>139.0</ele><time>2026-03-29T08:19:39.989Z</time></trkpt><trkpt lat="45.4729368" lon="10.4325702"><ele>139.0</ele><time>2026-03-29T08:19:40.989Z</time></trkpt><trkpt lat="45.4728804" lon="10.4327855"><ele>139.33333333333334</ele><time>2026-03-29T08:19:41.989Z</time></trkpt><trkpt lat="45.4728256" lon="10.4329984"><ele>139.66666666666666</ele><time>2026-03-29T08:19:42.987Z</time></trkpt><trkpt lat="45.4727683" lon="10.4332115"><ele>140.0</ele><time>2026-03-29T08:19:43.988Z</time></trkpt><trkpt lat="45.4727112" lon="10.4334208"><ele>140.0</ele><time>2026-03-29T08:19:44.988Z</time></trkpt><trkpt lat="45.4726559" lon="10.4336268"><ele>140.0</ele><time>2026-03-29T08:19:45.988Z</time></trkpt><trkpt lat="45.4726025" lon="10.4338293"><ele>140.0</ele><time>2026-03-29T08:19:46.987Z</time></trkpt><trkpt lat="45.4725488" lon="10.4340222"><ele>139.5</ele><time>2026-03-29T08:19:47.988Z</time></trkpt><trkpt lat="45.4725015" lon="10.4341981"><ele>139.0</ele><time>2026-03-29T08:19:48.987Z</time></trkpt><trkpt lat="45.4724589" lon="10.4343572"><ele>138.5</ele><time>2026-03-29T08:19:49.988Z</time></trkpt><trkpt lat="45.4724223" lon="10.4345015"><ele>138.0</ele><time>2026-03-29T08:19:50.987Z</time></trkpt><trkpt lat="45.4723878" lon="10.4346284"><ele>137.8</ele><time>2026-03-29T08:19:51.988Z</time></trkpt><trkpt lat="45.4723534" lon="10.4347376"><ele>137.60000000000002</ele><time>2026-03-29T08:19:52.988Z</time></trkpt><trkpt lat="45.472309" lon="10.4348369"><ele>137.39999999999998</ele><time>2026-03-29T08:19:53.987Z</time></trkpt><trkpt lat="45.4722558" lon="10.4349335"><ele>137.2</ele><time>2026-03-29T08:19:54.988Z</time></trkpt><trkpt lat="45.4722076" lon="10.4350527"><ele>137.0</ele><time>2026-03-29T08:19:55.987Z</time></trkpt><trkpt lat="45.4721785" lon="10.4352051"><ele>137.0</ele><time>2026-03-29T08:19:56.987Z</time></trkpt><trkpt lat="45.4721682" lon="10.4353726"><ele>137.0</ele><time>2026-03-29T08:19:57.987Z</time></trkpt><trkpt lat="45.4721484" lon="10.4355515"><ele>137.0</ele><time>2026-03-29T08:19:58.988Z</time></trkpt><trkpt lat="45.4721193" lon="10.4357311"><ele>137.0</ele><time>2026-03-29T08:19:59.987Z</time></trkpt><trkpt lat="45.4720784" lon="10.4359087"><ele>137.5</ele><time>2026-03-29T08:20:00.988Z</time></trkpt><trkpt lat="45.4720206" lon="10.4360944"><ele>138.0</ele><time>2026-03-29T08:20:01.988Z</time></trkpt><trkpt lat="45.4719546" lon="10.4362846"><ele>138.5</ele><time>2026-03-29T08:20:02.987Z</time></trkpt><trkpt lat="45.4718854" lon="10.4364801"><ele>139.0</ele><time>2026-03-29T08:20:03.988Z</time></trkpt><trkpt lat="45.471819" lon="10.4366836"><ele>139.0</ele><time>2026-03-29T08:20:04.987Z</time></trkpt><trkpt lat="45.4717572" lon="10.4368983"><ele>139.0</ele><time>2026-03-29T08:20:05.988Z</time></trkpt><trkpt lat="45.4716942" lon="10.4371158"><ele>139.0</ele><time>2026-03-29T08:20:06.988Z</time></trkpt><trkpt lat="45.4716289" lon="10.4373315"><ele>138.66666666666669</ele><time>2026-03-29T08:20:07.988Z</time></trkpt><trkpt lat="45.4715627" lon="10.4375503"><ele>138.33333333333334</ele><time>2026-03-29T08:20:08.987Z</time></trkpt><trkpt lat="45.4714962" lon="10.4377714"><ele>138.0</ele><time>2026-03-29T08:20:09.988Z</time></trkpt><trkpt lat="45.4714308" lon="10.4379955"><ele>138.0</ele><time>2026-03-29T08:20:10.987Z</time></trkpt><trkpt lat="45.471366" lon="10.4382243"><ele>138.0</ele><time>2026-03-29T08:20:11.987Z</time></trkpt><trkpt lat="45.471301" lon="10.4384534"><ele>138.0</ele><time>2026-03-29T08:20:12.988Z</time></trkpt><trkpt lat="45.4712385" lon="10.4386803"><ele>138.0</ele><time>2026-03-29T08:20:13.988Z</time></trkpt><trkpt lat="45.4711768" lon="10.4389048"><ele>138.0</ele><time>2026-03-29T08:20:14.987Z</time></trkpt><trkpt lat="45.4711183" lon="10.4391256"><ele>138.0</ele><time>2026-03-29T08:20:15.987Z</time></trkpt><trkpt lat="45.4710646" lon="10.4393369"><ele>138.0</ele><time>2026-03-29T08:20:16.989Z</time></trkpt><trkpt lat="45.4710204" lon="10.4395368"><ele>138.0</ele><time>2026-03-29T08:20:17.988Z</time></trkpt><trkpt lat="45.470989" lon="10.439715"><ele>138.0</ele><time>2026-03-29T08:20:18.988Z</time></trkpt><trkpt lat="45.4709684" lon="10.4398795"><ele>138.0</ele><time>2026-03-29T08:20:19.988Z</time></trkpt><trkpt lat="45.4709453" lon="10.4400252"><ele>138.20000000000002</ele><time>2026-03-29T08:20:20.988Z</time></trkpt><trkpt lat="45.4709058" lon="10.4401497"><ele>138.4</ele><time>2026-03-29T08:20:21.987Z</time></trkpt><trkpt lat="45.4708576" lon="10.4402385"><ele>138.60000000000002</ele><time>2026-03-29T08:20:22.988Z</time></trkpt><trkpt lat="45.4707781" lon="10.4403319"><ele>138.8</ele><time>2026-03-29T08:20:24.988Z</time></trkpt><trkpt lat="45.4707052" lon="10.4403374"><ele>139.0</ele><time>2026-03-29T08:20:25.988Z</time></trkpt><trkpt lat="45.4706033" lon="10.4403247"><ele>139.0</ele><time>2026-03-29T08:20:26.987Z</time></trkpt><trkpt lat="45.4704881" lon="10.440298"><ele>139.0</ele><time>2026-03-29T08:20:27.988Z</time></trkpt><trkpt lat="45.4703621" lon="10.4402897"><ele>139.0</ele><time>2026-03-29T08:20:28.987Z</time></trkpt><trkpt lat="45.4702332" lon="10.4402959"><ele>139.0</ele><time>2026-03-29T08:20:29.988Z</time></trkpt><trkpt lat="45.4700994" lon="10.4403046"><ele>139.0</ele><time>2026-03-29T08:20:30.987Z</time></trkpt><trkpt lat="45.4699633" lon="10.4403215"><ele>139.0</ele><time>2026-03-29T08:20:31.988Z</time></trkpt><trkpt lat="45.4698247" lon="10.440347"><ele>139.0</ele><time>2026-03-29T08:20:32.987Z</time></trkpt><trkpt lat="45.4696842" lon="10.4403757"><ele>139.0</ele><time>2026-03-29T08:20:33.987Z</time></trkpt><trkpt lat="45.4695458" lon="10.4404059"><ele>139.0</ele><time>2026-03-29T08:20:34.988Z</time></trkpt><trkpt lat="45.4694079" lon="10.4404383"><ele>139.0</ele><time>2026-03-29T08:20:35.988Z</time></trkpt><trkpt lat="45.4692843" lon="10.4404678"><ele>139.0</ele><time>2026-03-29T08:20:36.987Z</time></trkpt><trkpt lat="45.4691766" lon="10.4404873"><ele>139.0</ele><time>2026-03-29T08:20:37.988Z</time></trkpt><trkpt lat="45.4690771" lon="10.4405058"><ele>138.8</ele><time>2026-03-29T08:20:38.988Z</time></trkpt><trkpt lat="45.4689737" lon="10.4405273"><ele>138.60000000000002</ele><time>2026-03-29T08:20:39.988Z</time></trkpt><trkpt lat="45.4688765" lon="10.4405567"><ele>138.4</ele><time>2026-03-29T08:20:40.988Z</time></trkpt><trkpt lat="45.4687774" lon="10.4405853"><ele>138.20000000000002</ele><time>2026-03-29T08:20:41.988Z</time></trkpt><trkpt lat="45.4686744" lon="10.4406084"><ele>138.0</ele><time>2026-03-29T08:20:42.987Z</time></trkpt><trkpt lat="45.4685741" lon="10.4406324"><ele>138.33333333333334</ele><time>2026-03-29T08:20:43.988Z</time></trkpt><trkpt lat="45.4684832" lon="10.4406536"><ele>138.66666666666666</ele><time>2026-03-29T08:20:44.988Z</time></trkpt><trkpt lat="45.4684014" lon="10.4406598"><ele>139.0</ele><time>2026-03-29T08:20:45.988Z</time></trkpt><trkpt lat="45.4683218" lon="10.440641"><ele>139.33333333333331</ele><time>2026-03-29T08:20:46.989Z</time></trkpt><trkpt lat="45.4682473" lon="10.440606"><ele>139.66666666666666</ele><time>2026-03-29T08:20:47.988Z</time></trkpt><trkpt lat="45.4681676" lon="10.4405715"><ele>140.0</ele><time>2026-03-29T08:20:48.988Z</time></trkpt><trkpt lat="45.4680862" lon="10.4405478"><ele>140.0</ele><time>2026-03-29T08:20:49.987Z</time></trkpt><trkpt lat="45.4679898" lon="10.4405784"><ele>140.0</ele><time>2026-03-29T08:20:50.987Z</time></trkpt><trkpt lat="45.4678887" lon="10.4405947"><ele>140.0</ele><time>2026-03-29T08:20:51.988Z</time></trkpt><trkpt lat="45.4677756" lon="10.4406192"><ele>140.0</ele><time>2026-03-29T08:20:52.987Z</time></trkpt><trkpt lat="45.4676576" lon="10.4406331"><ele>140.0</ele><time>2026-03-29T08:20:53.987Z</time></trkpt><trkpt lat="45.4675309" lon="10.4406505"><ele>139.75</ele><time>2026-03-29T08:20:54.988Z</time></trkpt><trkpt lat="45.4673927" lon="10.4406739"><ele>139.5</ele><time>2026-03-29T08:20:55.987Z</time></trkpt><trkpt lat="45.467248" lon="10.440692"><ele>139.25</ele><time>2026-03-29T08:20:56.987Z</time></trkpt><trkpt lat="45.4671016" lon="10.4407133"><ele>139.0</ele><time>2026-03-29T08:20:57.987Z</time></trkpt><trkpt lat="45.4669446" lon="10.4407325"><ele>138.0</ele><time>2026-03-29T08:20:58.988Z</time></trkpt><trkpt lat="45.4667831" lon="10.4407578"><ele>137.0</ele><time>2026-03-29T08:20:59.987Z</time></trkpt><trkpt lat="45.4666178" lon="10.4407818"><ele>136.0</ele><time>2026-03-29T08:21:00.987Z</time></trkpt><trkpt lat="45.4664508" lon="10.4408037"><ele>136.0</ele><time>2026-03-29T08:21:01.988Z</time></trkpt><trkpt lat="45.4662847" lon="10.4408319"><ele>136.0</ele><time>2026-03-29T08:21:02.988Z</time></trkpt><trkpt lat="45.4661186" lon="10.4408693"><ele>136.0</ele><time>2026-03-29T08:21:03.988Z</time></trkpt><trkpt lat="45.4659503" lon="10.4409182"><ele>135.66666666666669</ele><time>2026-03-29T08:21:04.987Z</time></trkpt><trkpt lat="45.4657831" lon="10.4409672"><ele>135.33333333333334</ele><time>2026-03-29T08:21:05.987Z</time></trkpt><trkpt lat="45.4656174" lon="10.4410187"><ele>135.0</ele><time>2026-03-29T08:21:06.988Z</time></trkpt><trkpt lat="45.465451" lon="10.441065"><ele>134.66666666666666</ele><time>2026-03-29T08:21:07.987Z</time></trkpt><trkpt lat="45.4652871" lon="10.4411097"><ele>134.33333333333331</ele><time>2026-03-29T08:21:08.987Z</time></trkpt><trkpt lat="45.4651287" lon="10.4411551"><ele>134.0</ele><time>2026-03-29T08:21:09.987Z</time></trkpt><trkpt lat="45.464972" lon="10.4412046"><ele>134.0</ele><time>2026-03-29T08:21:10.988Z</time></trkpt><trkpt lat="45.4648132" lon="10.441257"><ele>134.0</ele><time>2026-03-29T08:21:11.987Z</time></trkpt><trkpt lat="45.464652" lon="10.4413057"><ele>134.0</ele><time>2026-03-29T08:21:12.988Z</time></trkpt><trkpt lat="45.4644869" lon="10.4413433"><ele>134.66666666666666</ele><time>2026-03-29T08:21:13.988Z</time></trkpt><trkpt lat="45.4643147" lon="10.4413642"><ele>135.33333333333334</ele><time>2026-03-29T08:21:14.988Z</time></trkpt><trkpt lat="45.4641385" lon="10.4413716"><ele>136.0</ele><time>2026-03-29T08:21:15.989Z</time></trkpt><trkpt lat="45.4639605" lon="10.4413801"><ele>136.0</ele><time>2026-03-29T08:21:16.988Z</time></trkpt><trkpt lat="45.4637804" lon="10.4413894"><ele>136.0</ele><time>2026-03-29T08:21:17.987Z</time></trkpt><trkpt lat="45.463598" lon="10.4414072"><ele>136.0</ele><time>2026-03-29T08:21:18.988Z</time></trkpt><trkpt lat="45.4634134" lon="10.4414228"><ele>135.66666666666669</ele><time>2026-03-29T08:21:19.987Z</time></trkpt><trkpt lat="45.4632328" lon="10.4414426"><ele>135.33333333333334</ele><time>2026-03-29T08:21:20.988Z</time></trkpt><trkpt lat="45.4630494" lon="10.4414628"><ele>135.0</ele><time>2026-03-29T08:21:21.988Z</time></trkpt><trkpt lat="45.4628678" lon="10.441499"><ele>134.66666666666666</ele><time>2026-03-29T08:21:22.988Z</time></trkpt><trkpt lat="45.4626868" lon="10.4415383"><ele>134.33333333333331</ele><time>2026-03-29T08:21:23.987Z</time></trkpt><trkpt lat="45.4625062" lon="10.4415848"><ele>134.0</ele><time>2026-03-29T08:21:24.988Z</time></trkpt><trkpt lat="45.4623262" lon="10.4416335"><ele>134.0</ele><time>2026-03-29T08:21:25.987Z</time></trkpt><trkpt lat="45.4621464" lon="10.4416842"><ele>134.0</ele><time>2026-03-29T08:21:26.988Z</time></trkpt><trkpt lat="45.4619679" lon="10.4417352"><ele>134.0</ele><time>2026-03-29T08:21:27.987Z</time></trkpt><trkpt lat="45.46179" lon="10.4417846"><ele>134.0</ele><time>2026-03-29T08:21:28.988Z</time></trkpt><trkpt lat="45.4616095" lon="10.441836"><ele>134.0</ele><time>2026-03-29T08:21:29.988Z</time></trkpt><trkpt lat="45.46143" lon="10.4418874"><ele>134.0</ele><time>2026-03-29T08:21:30.988Z</time></trkpt><trkpt lat="45.461247" lon="10.4419406"><ele>133.66666666666666</ele><time>2026-03-29T08:21:31.988Z</time></trkpt><trkpt lat="45.4610644" lon="10.4419911"><ele>133.33333333333334</ele><time>2026-03-29T08:21:32.988Z</time></trkpt><trkpt lat="45.4608786" lon="10.4420405"><ele>133.0</ele><time>2026-03-29T08:21:33.987Z</time></trkpt><trkpt lat="45.4606895" lon="10.4420873"><ele>133.0</ele><time>2026-03-29T08:21:34.988Z</time></trkpt><trkpt lat="45.4604997" lon="10.4421385"><ele>133.0</ele><time>2026-03-29T08:21:35.988Z</time></trkpt><trkpt lat="45.4603085" lon="10.4421948"><ele>133.0</ele><time>2026-03-29T08:21:36.988Z</time></trkpt><trkpt lat="45.4601157" lon="10.4422519"><ele>133.0</ele><time>2026-03-29T08:21:37.988Z</time></trkpt><trkpt lat="45.4599249" lon="10.4423061"><ele>133.0</ele><time>2026-03-29T08:21:38.987Z</time></trkpt><trkpt lat="45.4597368" lon="10.4423615"><ele>133.0</ele><time>2026-03-29T08:21:39.988Z</time></trkpt><trkpt lat="45.4595523" lon="10.442415"><ele>132.33333333333334</ele><time>2026-03-29T08:21:40.988Z</time></trkpt><trkpt lat="45.4593763" lon="10.4424631"><ele>131.66666666666666</ele><time>2026-03-29T08:21:41.988Z</time></trkpt><trkpt lat="45.4592104" lon="10.4425138"><ele>131.0</ele><time>2026-03-29T08:21:42.988Z</time></trkpt><trkpt lat="45.459055" lon="10.4425569"><ele>131.0</ele><time>2026-03-29T08:21:43.988Z</time></trkpt><trkpt lat="45.458905" lon="10.4425954"><ele>131.0</ele><time>2026-03-29T08:21:44.988Z</time></trkpt><trkpt lat="45.4587721" lon="10.4426276"><ele>131.0</ele><time>2026-03-29T08:21:45.987Z</time></trkpt><trkpt lat="45.4586532" lon="10.4426564"><ele>131.0</ele><time>2026-03-29T08:21:46.987Z</time></trkpt><trkpt lat="45.458559" lon="10.442685"><ele>130.83333333333331</ele><time>2026-03-29T08:21:47.988Z</time></trkpt><trkpt lat="45.4584979" lon="10.4427417"><ele>130.66666666666666</ele><time>2026-03-29T08:21:48.988Z</time></trkpt><trkpt lat="45.4584605" lon="10.4428321"><ele>130.5</ele><time>2026-03-29T08:21:49.988Z</time></trkpt><trkpt lat="45.4584455" lon="10.4429642"><ele>130.33333333333334</ele><time>2026-03-29T08:21:50.987Z</time></trkpt><trkpt lat="45.4584227" lon="10.4430962"><ele>130.16666666666669</ele><time>2026-03-29T08:21:51.989Z</time></trkpt><trkpt lat="45.458365" lon="10.4432018"><ele>130.0</ele><time>2026-03-29T08:21:52.987Z</time></trkpt><trkpt lat="45.4582819" lon="10.4432832"><ele>130.0</ele><time>2026-03-29T08:21:53.988Z</time></trkpt><trkpt lat="45.458161" lon="10.4433278"><ele>130.0</ele><time>2026-03-29T08:21:54.987Z</time></trkpt><trkpt lat="45.4580266" lon="10.4433509"><ele>130.0</ele><time>2026-03-29T08:21:55.988Z</time></trkpt><trkpt lat="45.4578791" lon="10.4433675"><ele>130.0</ele><time>2026-03-29T08:21:56.987Z</time></trkpt><trkpt lat="45.4577283" lon="10.4433818"><ele>130.0</ele><time>2026-03-29T08:21:57.988Z</time></trkpt><trkpt lat="45.457575" lon="10.4433958"><ele>130.0</ele><time>2026-03-29T08:21:58.988Z</time></trkpt><trkpt lat="45.4574241" lon="10.443437"><ele>130.0</ele><time>2026-03-29T08:21:59.987Z</time></trkpt><trkpt lat="45.4572833" lon="10.443491"><ele>130.0</ele><time>2026-03-29T08:22:00.987Z</time></trkpt><trkpt lat="45.4571403" lon="10.4435161"><ele>130.0</ele><time>2026-03-29T08:22:01.988Z</time></trkpt><trkpt lat="45.4569876" lon="10.4435078"><ele>130.0</ele><time>2026-03-29T08:22:02.987Z</time></trkpt><trkpt lat="45.4568284" lon="10.4434909"><ele>129.66666666666669</ele><time>2026-03-29T08:22:03.988Z</time></trkpt><trkpt lat="45.456663" lon="10.4434739"><ele>129.33333333333334</ele><time>2026-03-29T08:22:04.987Z</time></trkpt><trkpt lat="45.4564968" lon="10.4434498"><ele>129.0</ele><time>2026-03-29T08:22:05.988Z</time></trkpt><trkpt lat="45.4563331" lon="10.4434262"><ele>129.66666666666666</ele><time>2026-03-29T08:22:06.987Z</time></trkpt><trkpt lat="45.4561719" lon="10.4434086"><ele>130.33333333333331</ele><time>2026-03-29T08:22:07.988Z</time></trkpt><trkpt lat="45.4560143" lon="10.4433843"><ele>131.0</ele><time>2026-03-29T08:22:08.988Z</time></trkpt><trkpt lat="45.4558731" lon="10.443361"><ele>131.0</ele><time>2026-03-29T08:22:09.987Z</time></trkpt><trkpt lat="45.4557532" lon="10.4433406"><ele>131.0</ele><time>2026-03-29T08:22:10.988Z</time></trkpt><trkpt lat="45.4556378" lon="10.4433332"><ele>131.0</ele><time>2026-03-29T08:22:11.988Z</time></trkpt><trkpt lat="45.4555149" lon="10.4433436"><ele>131.0</ele><time>2026-03-29T08:22:12.987Z</time></trkpt><trkpt lat="45.4553869" lon="10.4433663"><ele>130.5</ele><time>2026-03-29T08:22:13.988Z</time></trkpt><trkpt lat="45.4552611" lon="10.4434271"><ele>130.0</ele><time>2026-03-29T08:22:14.988Z</time></trkpt><trkpt lat="45.4551405" lon="10.4434834"><ele>129.5</ele><time>2026-03-29T08:22:15.987Z</time></trkpt><trkpt lat="45.4550185" lon="10.4435357"><ele>129.0</ele><time>2026-03-29T08:22:16.988Z</time></trkpt><trkpt lat="45.4548984" lon="10.4435869"><ele>129.0</ele><time>2026-03-29T08:22:17.988Z</time></trkpt><trkpt lat="45.4547789" lon="10.4436329"><ele>129.0</ele><time>2026-03-29T08:22:18.988Z</time></trkpt><trkpt lat="45.4546581" lon="10.4436835"><ele>129.0</ele><time>2026-03-29T08:22:19.988Z</time></trkpt><trkpt lat="45.4545331" lon="10.4437444"><ele>129.0</ele><time>2026-03-29T08:22:20.987Z</time></trkpt><trkpt lat="45.4544027" lon="10.4437962"><ele>128.75</ele><time>2026-03-29T08:22:21.989Z</time></trkpt><trkpt lat="45.4542672" lon="10.4438395"><ele>128.5</ele><time>2026-03-29T08:22:22.988Z</time></trkpt><trkpt lat="45.4541307" lon="10.4438714"><ele>128.25</ele><time>2026-03-29T08:22:23.988Z</time></trkpt><trkpt lat="45.4539867" lon="10.4438896"><ele>128.0</ele><time>2026-03-29T08:22:24.987Z</time></trkpt><trkpt lat="45.4538394" lon="10.4438927"><ele>128.0</ele><time>2026-03-29T08:22:25.988Z</time></trkpt><trkpt lat="45.4536931" lon="10.4439115"><ele>128.0</ele><time>2026-03-29T08:22:26.987Z</time></trkpt><trkpt lat="45.4535405" lon="10.4439415"><ele>128.0</ele><time>2026-03-29T08:22:27.988Z</time></trkpt><trkpt lat="45.453389" lon="10.4439719"><ele>128.0</ele><time>2026-03-29T08:22:28.987Z</time></trkpt><trkpt lat="45.4532362" lon="10.4440034"><ele>128.0</ele><time>2026-03-29T08:22:29.987Z</time></trkpt><trkpt lat="45.4530801" lon="10.4440384"><ele>128.0</ele><time>2026-03-29T08:22:30.988Z</time></trkpt><trkpt lat="45.4529251" lon="10.4440708"><ele>127.5</ele><time>2026-03-29T08:22:31.987Z</time></trkpt><trkpt lat="45.4527732" lon="10.444097"><ele>127.0</ele><time>2026-03-29T08:22:32.988Z</time></trkpt><trkpt lat="45.4526352" lon="10.4441229"><ele>126.5</ele><time>2026-03-29T08:22:33.988Z</time></trkpt><trkpt lat="45.4524829" lon="10.4441478"><ele>126.0</ele><time>2026-03-29T08:22:34.989Z</time></trkpt><trkpt lat="45.4523349" lon="10.444172"><ele>126.0</ele><time>2026-03-29T08:22:35.987Z</time></trkpt><trkpt lat="45.4521817" lon="10.4442046"><ele>126.0</ele><time>2026-03-29T08:22:36.988Z</time></trkpt><trkpt lat="45.4520284" lon="10.4442375"><ele>126.0</ele><time>2026-03-29T08:22:37.987Z</time></trkpt><trkpt lat="45.4518748" lon="10.4442655"><ele>126.33333333333334</ele><time>2026-03-29T08:22:38.988Z</time></trkpt><trkpt lat="45.4517208" lon="10.4442958"><ele>126.66666666666667</ele><time>2026-03-29T08:22:39.987Z</time></trkpt><trkpt lat="45.4515651" lon="10.4443268"><ele>127.0</ele><time>2026-03-29T08:22:40.987Z</time></trkpt><trkpt lat="45.4514101" lon="10.4443554"><ele>126.33333333333334</ele><time>2026-03-29T08:22:41.987Z</time></trkpt><trkpt lat="45.4512555" lon="10.4443747"><ele>125.66666666666666</ele><time>2026-03-29T08:22:42.988Z</time></trkpt><trkpt lat="45.4511039" lon="10.4444002"><ele>125.0</ele><time>2026-03-29T08:22:43.988Z</time></trkpt><trkpt lat="45.4509569" lon="10.4444249"><ele>125.0</ele><time>2026-03-29T08:22:44.988Z</time></trkpt><trkpt lat="45.4508072" lon="10.44445"><ele>125.0</ele><time>2026-03-29T08:22:45.987Z</time></trkpt><trkpt lat="45.4506553" lon="10.4444748"><ele>125.0</ele><time>2026-03-29T08:22:46.988Z</time></trkpt><trkpt lat="45.4505045" lon="10.4445031"><ele>124.33333333333333</ele><time>2026-03-29T08:22:47.987Z</time></trkpt><trkpt lat="45.4503511" lon="10.4445344"><ele>123.66666666666666</ele><time>2026-03-29T08:22:48.988Z</time></trkpt><trkpt lat="45.4501997" lon="10.4445641"><ele>123.0</ele><time>2026-03-29T08:22:49.988Z</time></trkpt><trkpt lat="45.4500492" lon="10.4445908"><ele>123.0</ele><time>2026-03-29T08:22:50.987Z</time></trkpt><trkpt lat="45.4498979" lon="10.4446153"><ele>123.0</ele><time>2026-03-29T08:22:51.988Z</time></trkpt><trkpt lat="45.4497451" lon="10.4446378"><ele>123.0</ele><time>2026-03-29T08:22:52.987Z</time></trkpt><trkpt lat="45.4495907" lon="10.4446618"><ele>123.66666666666666</ele><time>2026-03-29T08:22:53.988Z</time></trkpt><trkpt lat="45.4494366" lon="10.44468"><ele>124.33333333333333</ele><time>2026-03-29T08:22:54.987Z</time></trkpt><trkpt lat="45.4492821" lon="10.4447028"><ele>125.0</ele><time>2026-03-29T08:22:55.988Z</time></trkpt><trkpt lat="45.4491277" lon="10.4447248"><ele>125.0</ele><time>2026-03-29T08:22:56.988Z</time></trkpt><trkpt lat="45.4489736" lon="10.4447501"><ele>125.0</ele><time>2026-03-29T08:22:57.988Z</time></trkpt><trkpt lat="45.4488249" lon="10.444772"><ele>125.0</ele><time>2026-03-29T08:22:58.988Z</time></trkpt><trkpt lat="45.4486795" lon="10.4447977"><ele>124.33333333333333</ele><time>2026-03-29T08:22:59.988Z</time></trkpt><trkpt lat="45.4485265" lon="10.4448235"><ele>123.66666666666666</ele><time>2026-03-29T08:23:00.987Z</time></trkpt><trkpt lat="45.4483699" lon="10.4448463"><ele>123.0</ele><time>2026-03-29T08:23:01.989Z</time></trkpt><trkpt lat="45.4482128" lon="10.4448741"><ele>123.0</ele><time>2026-03-29T08:23:02.987Z</time></trkpt><trkpt lat="45.4480472" lon="10.4449037"><ele>123.0</ele><time>2026-03-29T08:23:03.987Z</time></trkpt><trkpt lat="45.4478816" lon="10.4449383"><ele>123.0</ele><time>2026-03-29T08:23:04.988Z</time></trkpt><trkpt lat="45.4477164" lon="10.4449704"><ele>122.33333333333334</ele><time>2026-03-29T08:23:05.988Z</time></trkpt><trkpt lat="45.4475485" lon="10.4449958"><ele>121.66666666666667</ele><time>2026-03-29T08:23:06.988Z</time></trkpt><trkpt lat="45.4473845" lon="10.4450225"><ele>121.0</ele><time>2026-03-29T08:23:07.987Z</time></trkpt><trkpt lat="45.447222" lon="10.4450522"><ele>121.0</ele><time>2026-03-29T08:23:08.988Z</time></trkpt><trkpt lat="45.4470648" lon="10.4450856"><ele>121.0</ele><time>2026-03-29T08:23:09.987Z</time></trkpt><trkpt lat="45.4469115" lon="10.4451199"><ele>121.0</ele><time>2026-03-29T08:23:10.988Z</time></trkpt><trkpt lat="45.4467759" lon="10.4451462"><ele>121.0</ele><time>2026-03-29T08:23:11.988Z</time></trkpt><trkpt lat="45.4466423" lon="10.445171"><ele>121.0</ele><time>2026-03-29T08:23:12.987Z</time></trkpt><trkpt lat="45.4464967" lon="10.4451929"><ele>121.0</ele><time>2026-03-29T08:23:13.989Z</time></trkpt><trkpt lat="45.4463435" lon="10.4452058"><ele>121.0</ele><time>2026-03-29T08:23:14.987Z</time></trkpt><trkpt lat="45.4461825" lon="10.445201"><ele>121.0</ele><time>2026-03-29T08:23:15.988Z</time></trkpt><trkpt lat="45.4460181" lon="10.4451957"><ele>121.0</ele><time>2026-03-29T08:23:16.988Z</time></trkpt><trkpt lat="45.4458505" lon="10.445191"><ele>121.0</ele><time>2026-03-29T08:23:17.987Z</time></trkpt><trkpt lat="45.4456819" lon="10.4451866"><ele>121.0</ele><time>2026-03-29T08:23:18.988Z</time></trkpt><trkpt lat="45.4455171" lon="10.4451785"><ele>121.0</ele><time>2026-03-29T08:23:19.987Z</time></trkpt><trkpt lat="45.4453521" lon="10.4451711"><ele>121.0</ele><time>2026-03-29T08:23:20.988Z</time></trkpt><trkpt lat="45.4451857" lon="10.4451696"><ele>121.33333333333334</ele><time>2026-03-29T08:23:21.988Z</time></trkpt><trkpt lat="45.4450272" lon="10.4451658"><ele>121.66666666666666</ele><time>2026-03-29T08:23:22.989Z</time></trkpt><trkpt lat="45.4448685" lon="10.4451676"><ele>122.0</ele><time>2026-03-29T08:23:23.988Z</time></trkpt><trkpt lat="45.4447061" lon="10.4451699"><ele>121.33333333333333</ele><time>2026-03-29T08:23:24.988Z</time></trkpt><trkpt lat="45.4445432" lon="10.4451688"><ele>120.66666666666666</ele><time>2026-03-29T08:23:25.987Z</time></trkpt><trkpt lat="45.4443762" lon="10.4451673"><ele>120.0</ele><time>2026-03-29T08:23:26.988Z</time></trkpt><trkpt lat="45.4442089" lon="10.4451644"><ele>120.0</ele><time>2026-03-29T08:23:27.988Z</time></trkpt><trkpt lat="45.4440408" lon="10.4451605"><ele>120.0</ele><time>2026-03-29T08:23:28.988Z</time></trkpt><trkpt lat="45.4438729" lon="10.4451602"><ele>120.0</ele><time>2026-03-29T08:23:29.988Z</time></trkpt><trkpt lat="45.4437062" lon="10.4451597"><ele>120.33333333333334</ele><time>2026-03-29T08:23:30.987Z</time></trkpt><trkpt lat="45.4435401" lon="10.4451598"><ele>120.66666666666667</ele><time>2026-03-29T08:23:31.988Z</time></trkpt><trkpt lat="45.443375" lon="10.4451602"><ele>121.0</ele><time>2026-03-29T08:23:32.988Z</time></trkpt><trkpt lat="45.4432103" lon="10.4451582"><ele>121.0</ele><time>2026-03-29T08:23:33.987Z</time></trkpt><trkpt lat="45.443043" lon="10.445154"><ele>121.0</ele><time>2026-03-29T08:23:34.988Z</time></trkpt><trkpt lat="45.4428779" lon="10.4451529"><ele>121.0</ele><time>2026-03-29T08:23:35.987Z</time></trkpt><trkpt lat="45.4427102" lon="10.4451498"><ele>121.33333333333334</ele><time>2026-03-29T08:23:36.988Z</time></trkpt><trkpt lat="45.4425515" lon="10.4451461"><ele>121.66666666666666</ele><time>2026-03-29T08:23:37.988Z</time></trkpt><trkpt lat="45.4423962" lon="10.4451426"><ele>122.0</ele><time>2026-03-29T08:23:38.987Z</time></trkpt><trkpt lat="45.4422425" lon="10.4451568"><ele>121.66666666666666</ele><time>2026-03-29T08:23:39.988Z</time></trkpt><trkpt lat="45.4420844" lon="10.4451736"><ele>121.33333333333334</ele><time>2026-03-29T08:23:40.987Z</time></trkpt><trkpt lat="45.4419238" lon="10.4451743"><ele>121.0</ele><time>2026-03-29T08:23:41.987Z</time></trkpt><trkpt lat="45.4417629" lon="10.445172"><ele>121.0</ele><time>2026-03-29T08:23:42.988Z</time></trkpt><trkpt lat="45.4416048" lon="10.4451741"><ele>121.0</ele><time>2026-03-29T08:23:43.988Z</time></trkpt><trkpt lat="45.4414436" lon="10.4451777"><ele>121.0</ele><time>2026-03-29T08:23:44.987Z</time></trkpt><trkpt lat="45.4412799" lon="10.4451745"><ele>120.66666666666667</ele><time>2026-03-29T08:23:45.988Z</time></trkpt><trkpt lat="45.4411167" lon="10.4451677"><ele>120.33333333333334</ele><time>2026-03-29T08:23:46.988Z</time></trkpt><trkpt lat="45.4409523" lon="10.4451641"><ele>120.0</ele><time>2026-03-29T08:23:47.987Z</time></trkpt><trkpt lat="45.4407864" lon="10.4451616"><ele>120.0</ele><time>2026-03-29T08:23:48.988Z</time></trkpt><trkpt lat="45.4406194" lon="10.4451565"><ele>120.0</ele><time>2026-03-29T08:23:49.988Z</time></trkpt><trkpt lat="45.440456" lon="10.4451508"><ele>120.0</ele><time>2026-03-29T08:23:50.988Z</time></trkpt><trkpt lat="45.4403056" lon="10.4451492"><ele>120.0</ele><time>2026-03-29T08:23:51.988Z</time></trkpt><trkpt lat="45.4401743" lon="10.4451517"><ele>120.0</ele><time>2026-03-29T08:23:52.989Z</time></trkpt><trkpt lat="45.4400594" lon="10.4451612"><ele>120.0</ele><time>2026-03-29T08:23:53.988Z</time></trkpt><trkpt lat="45.4399595" lon="10.4451665"><ele>120.0</ele><time>2026-03-29T08:23:54.987Z</time></trkpt><trkpt lat="45.4398913" lon="10.4451707"><ele>120.0</ele><time>2026-03-29T08:23:55.988Z</time></trkpt><trkpt lat="45.439786" lon="10.4451501"><ele>120.0</ele><time>2026-03-29T08:23:57.988Z</time></trkpt><trkpt lat="45.4397294" lon="10.4451083"><ele>120.0</ele><time>2026-03-29T08:23:59.988Z</time></trkpt><trkpt lat="45.4396131" lon="10.4451152"><ele>120.0</ele><time>2026-03-29T08:24:01.989Z</time></trkpt><trkpt lat="45.4395143" lon="10.4451541"><ele>120.0</ele><time>2026-03-29T08:24:02.988Z</time></trkpt><trkpt lat="45.4393894" lon="10.4451906"><ele>120.0</ele><time>2026-03-29T08:24:03.988Z</time></trkpt><trkpt lat="45.439245" lon="10.4452299"><ele>120.0</ele><time>2026-03-29T08:24:04.989Z</time></trkpt><trkpt lat="45.439083" lon="10.4452824"><ele>120.0</ele><time>2026-03-29T08:24:05.987Z</time></trkpt><trkpt lat="45.4389115" lon="10.4453386"><ele>120.0</ele><time>2026-03-29T08:24:06.988Z</time></trkpt><trkpt lat="45.438742" lon="10.4453965"><ele>120.0</ele><time>2026-03-29T08:24:07.988Z</time></trkpt><trkpt lat="45.4385741" lon="10.445451"><ele>120.0</ele><time>2026-03-29T08:24:08.987Z</time></trkpt><trkpt lat="45.4384196" lon="10.4454998"><ele>120.0</ele><time>2026-03-29T08:24:09.987Z</time></trkpt><trkpt lat="45.4382804" lon="10.4455386"><ele>120.0</ele><time>2026-03-29T08:24:10.987Z</time></trkpt><trkpt lat="45.4381384" lon="10.4455829"><ele>120.0</ele><time>2026-03-29T08:24:11.988Z</time></trkpt><trkpt lat="45.4379938" lon="10.4456277"><ele>120.0</ele><time>2026-03-29T08:24:12.987Z</time></trkpt><trkpt lat="45.4378505" lon="10.4456757"><ele>120.0</ele><time>2026-03-29T08:24:13.988Z</time></trkpt><trkpt lat="45.4377213" lon="10.4457242"><ele>120.0</ele><time>2026-03-29T08:24:14.987Z</time></trkpt><trkpt lat="45.4376094" lon="10.4457712"><ele>120.0</ele><time>2026-03-29T08:24:15.988Z</time></trkpt><trkpt lat="45.4375107" lon="10.4458048"><ele>120.0</ele><time>2026-03-29T08:24:16.988Z</time></trkpt><trkpt lat="45.437422" lon="10.4458412"><ele>120.0</ele><time>2026-03-29T08:24:17.987Z</time></trkpt><trkpt lat="45.4373349" lon="10.4458795"><ele>120.0</ele><time>2026-03-29T08:24:18.988Z</time></trkpt><trkpt lat="45.4372506" lon="10.4459336"><ele>120.0</ele><time>2026-03-29T08:24:19.989Z</time></trkpt><trkpt lat="45.4371718" lon="10.4459972"><ele>120.0</ele><time>2026-03-29T08:24:20.987Z</time></trkpt><trkpt lat="45.4370934" lon="10.4460838"><ele>120.0</ele><time>2026-03-29T08:24:21.987Z</time></trkpt><trkpt lat="45.4370205" lon="10.4461809"><ele>120.0</ele><time>2026-03-29T08:24:22.988Z</time></trkpt><trkpt lat="45.4369399" lon="10.4462774"><ele>120.0</ele><time>2026-03-29T08:24:23.988Z</time></trkpt><trkpt lat="45.4368538" lon="10.4463805"><ele>119.5</ele><time>2026-03-29T08:24:24.988Z</time></trkpt><trkpt lat="45.4367633" lon="10.4464827"><ele>119.0</ele><time>2026-03-29T08:24:25.987Z</time></trkpt><trkpt lat="45.436682" lon="10.4466077"><ele>118.5</ele><time>2026-03-29T08:24:26.987Z</time></trkpt><trkpt lat="45.4365937" lon="10.4467258"><ele>118.0</ele><time>2026-03-29T08:24:27.988Z</time></trkpt><trkpt lat="45.4365121" lon="10.4468365"><ele>118.0</ele><time>2026-03-29T08:24:28.988Z</time></trkpt><trkpt lat="45.4364277" lon="10.4469443"><ele>118.0</ele><time>2026-03-29T08:24:29.987Z</time></trkpt><trkpt lat="45.4363464" lon="10.4470488"><ele>118.0</ele><time>2026-03-29T08:24:30.987Z</time></trkpt><trkpt lat="45.4362634" lon="10.447164"><ele>118.0</ele><time>2026-03-29T08:24:31.988Z</time></trkpt><trkpt lat="45.4361762" lon="10.4472819"><ele>117.75</ele><time>2026-03-29T08:24:32.988Z</time></trkpt><trkpt lat="45.4360817" lon="10.447403"><ele>117.5</ele><time>2026-03-29T08:24:33.988Z</time></trkpt><trkpt lat="45.435986" lon="10.4475255"><ele>117.25</ele><time>2026-03-29T08:24:34.988Z</time></trkpt><trkpt lat="45.4358965" lon="10.4476322"><ele>117.0</ele><time>2026-03-29T08:24:35.987Z</time></trkpt><trkpt lat="45.4358066" lon="10.4477454"><ele>117.0</ele><time>2026-03-29T08:24:36.988Z</time></trkpt><trkpt lat="45.4357276" lon="10.4478367"><ele>116.99999999999999</ele><time>2026-03-29T08:24:37.988Z</time></trkpt><trkpt lat="45.4356476" lon="10.4479377"><ele>116.99999999999999</ele><time>2026-03-29T08:24:38.987Z</time></trkpt><trkpt lat="45.4355693" lon="10.4480263"><ele>117.0</ele><time>2026-03-29T08:24:39.988Z</time></trkpt><trkpt lat="45.4354806" lon="10.4481246"><ele>117.0</ele><time>2026-03-29T08:24:40.987Z</time></trkpt><trkpt lat="45.4353946" lon="10.4482265"><ele>116.8</ele><time>2026-03-29T08:24:41.988Z</time></trkpt><trkpt lat="45.4353101" lon="10.448329"><ele>116.6</ele><time>2026-03-29T08:24:42.987Z</time></trkpt><trkpt lat="45.4352309" lon="10.4484312"><ele>116.39999999999999</ele><time>2026-03-29T08:24:43.987Z</time></trkpt><trkpt lat="45.4351543" lon="10.4485298"><ele>116.19999999999999</ele><time>2026-03-29T08:24:44.988Z</time></trkpt><trkpt lat="45.4350766" lon="10.4486291"><ele>116.0</ele><time>2026-03-29T08:24:45.987Z</time></trkpt><trkpt lat="45.4349992" lon="10.4487311"><ele>116.25</ele><time>2026-03-29T08:24:46.988Z</time></trkpt><trkpt lat="45.4349176" lon="10.4488395"><ele>116.5</ele><time>2026-03-29T08:24:47.988Z</time></trkpt><trkpt lat="45.4348341" lon="10.4489571"><ele>116.75</ele><time>2026-03-29T08:24:48.987Z</time></trkpt><trkpt lat="45.4347466" lon="10.4490785"><ele>117.0</ele><time>2026-03-29T08:24:49.988Z</time></trkpt><trkpt lat="45.434657" lon="10.4492047"><ele>117.0</ele><time>2026-03-29T08:24:50.989Z</time></trkpt><trkpt lat="45.4345655" lon="10.4493335"><ele>117.0</ele><time>2026-03-29T08:24:51.987Z</time></trkpt><trkpt lat="45.4344733" lon="10.4494622"><ele>117.0</ele><time>2026-03-29T08:24:52.988Z</time></trkpt><trkpt lat="45.43439" lon="10.4495788"><ele>117.0</ele><time>2026-03-29T08:24:53.987Z</time></trkpt><trkpt lat="45.4343101" lon="10.4496838"><ele>117.0</ele><time>2026-03-29T08:24:54.987Z</time></trkpt><trkpt lat="45.4342342" lon="10.4497897"><ele>116.99999999999999</ele><time>2026-03-29T08:24:55.987Z</time></trkpt><trkpt lat="45.4341595" lon="10.4498898"><ele>116.99999999999999</ele><time>2026-03-29T08:24:56.988Z</time></trkpt><trkpt lat="45.4340836" lon="10.4499919"><ele>117.0</ele><time>2026-03-29T08:24:57.988Z</time></trkpt><trkpt lat="45.4340005" lon="10.4501001"><ele>117.0</ele><time>2026-03-29T08:24:58.987Z</time></trkpt><trkpt lat="45.4339159" lon="10.4502095"><ele>117.0</ele><time>2026-03-29T08:24:59.988Z</time></trkpt><trkpt lat="45.4338268" lon="10.4503279"><ele>117.0</ele><time>2026-03-29T08:25:00.987Z</time></trkpt><trkpt lat="45.4337405" lon="10.4504456"><ele>117.0</ele><time>2026-03-29T08:25:01.988Z</time></trkpt><trkpt lat="45.4336483" lon="10.4505723"><ele>117.0</ele><time>2026-03-29T08:25:02.987Z</time></trkpt><trkpt lat="45.4335587" lon="10.4506993"><ele>117.0</ele><time>2026-03-29T08:25:03.988Z</time></trkpt><trkpt lat="45.4334655" lon="10.4508229"><ele>117.0</ele><time>2026-03-29T08:25:04.988Z</time></trkpt><trkpt lat="45.4333723" lon="10.4509449"><ele>117.0</ele><time>2026-03-29T08:25:05.988Z</time></trkpt><trkpt lat="45.4332763" lon="10.45107"><ele>117.0</ele><time>2026-03-29T08:25:06.988Z</time></trkpt><trkpt lat="45.4331789" lon="10.4512006"><ele>117.0</ele><time>2026-03-29T08:25:07.987Z</time></trkpt><trkpt lat="45.4330803" lon="10.4513295"><ele>117.0</ele><time>2026-03-29T08:25:08.988Z</time></trkpt><trkpt lat="45.4329826" lon="10.4514566"><ele>117.0</ele><time>2026-03-29T08:25:09.988Z</time></trkpt><trkpt lat="45.4328811" lon="10.4515814"><ele>117.0</ele><time>2026-03-29T08:25:10.988Z</time></trkpt><trkpt lat="45.4327877" lon="10.4517109"><ele>116.75</ele><time>2026-03-29T08:25:11.988Z</time></trkpt><trkpt lat="45.4326983" lon="10.4518367"><ele>116.5</ele><time>2026-03-29T08:25:12.987Z</time></trkpt><trkpt lat="45.4326077" lon="10.4519629"><ele>116.25</ele><time>2026-03-29T08:25:13.989Z</time></trkpt><trkpt lat="45.4325109" lon="10.4520968"><ele>116.0</ele><time>2026-03-29T08:25:14.988Z</time></trkpt><trkpt lat="45.4324177" lon="10.4522322"><ele>116.0</ele><time>2026-03-29T08:25:15.988Z</time></trkpt><trkpt lat="45.4323203" lon="10.452368"><ele>116.0</ele><time>2026-03-29T08:25:16.987Z</time></trkpt><trkpt lat="45.432231" lon="10.4525087"><ele>116.0</ele><time>2026-03-29T08:25:17.987Z</time></trkpt><trkpt lat="45.4321378" lon="10.4526473"><ele>116.0</ele><time>2026-03-29T08:25:18.988Z</time></trkpt><trkpt lat="45.4320428" lon="10.4527866"><ele>116.0</ele><time>2026-03-29T08:25:19.987Z</time></trkpt><trkpt lat="45.4319498" lon="10.4529301"><ele>116.0</ele><time>2026-03-29T08:25:20.988Z</time></trkpt><trkpt lat="45.4318576" lon="10.453083"><ele>116.0</ele><time>2026-03-29T08:25:21.987Z</time></trkpt><trkpt lat="45.4317703" lon="10.4532246"><ele>116.0</ele><time>2026-03-29T08:25:22.988Z</time></trkpt><trkpt lat="45.4316848" lon="10.4533606"><ele>116.0</ele><time>2026-03-29T08:25:23.988Z</time></trkpt><trkpt lat="45.4315945" lon="10.4534851"><ele>116.0</ele><time>2026-03-29T08:25:24.987Z</time></trkpt><trkpt lat="45.4315041" lon="10.4536205"><ele>116.0</ele><time>2026-03-29T08:25:25.988Z</time></trkpt><trkpt lat="45.4314171" lon="10.4537601"><ele>116.0</ele><time>2026-03-29T08:25:26.988Z</time></trkpt><trkpt lat="45.4313279" lon="10.4539024"><ele>115.75</ele><time>2026-03-29T08:25:27.988Z</time></trkpt><trkpt lat="45.4312358" lon="10.4540433"><ele>115.5</ele><time>2026-03-29T08:25:28.987Z</time></trkpt><trkpt lat="45.4311391" lon="10.4541891"><ele>115.25</ele><time>2026-03-29T08:25:29.987Z</time></trkpt><trkpt lat="45.4310442" lon="10.454323"><ele>115.0</ele><time>2026-03-29T08:25:30.988Z</time></trkpt><trkpt lat="45.4309653" lon="10.4544311"><ele>115.0</ele><time>2026-03-29T08:25:31.988Z</time></trkpt><trkpt lat="45.4308985" lon="10.4545028"><ele>115.0</ele><time>2026-03-29T08:25:32.988Z</time></trkpt><trkpt lat="45.4308216" lon="10.4545416"><ele>115.0</ele><time>2026-03-29T08:25:33.988Z</time></trkpt><trkpt lat="45.4307212" lon="10.4545758"><ele>115.0</ele><time>2026-03-29T08:25:34.988Z</time></trkpt><trkpt lat="45.4306311" lon="10.4546494"><ele>115.0</ele><time>2026-03-29T08:25:35.988Z</time></trkpt><trkpt lat="45.4305188" lon="10.4547607"><ele>115.0</ele><time>2026-03-29T08:25:36.988Z</time></trkpt><trkpt lat="45.4303972" lon="10.4548832"><ele>115.0</ele><time>2026-03-29T08:25:37.987Z</time></trkpt><trkpt lat="45.430271" lon="10.4550138"><ele>115.0</ele><time>2026-03-29T08:25:38.988Z</time></trkpt><trkpt lat="45.4301259" lon="10.4551502"><ele>115.0</ele><time>2026-03-29T08:25:39.987Z</time></trkpt><trkpt lat="45.4299907" lon="10.4552798"><ele>115.0</ele><time>2026-03-29T08:25:40.988Z</time></trkpt><trkpt lat="45.4298589" lon="10.4554082"><ele>115.0</ele><time>2026-03-29T08:25:41.987Z</time></trkpt><trkpt lat="45.4297316" lon="10.4555334"><ele>115.0</ele><time>2026-03-29T08:25:42.988Z</time></trkpt><trkpt lat="45.4296078" lon="10.4556617"><ele>115.0</ele><time>2026-03-29T08:25:43.987Z</time></trkpt><trkpt lat="45.4294918" lon="10.4557764"><ele>115.0</ele><time>2026-03-29T08:25:44.987Z</time></trkpt><trkpt lat="45.4293765" lon="10.4558916"><ele>115.0</ele><time>2026-03-29T08:25:45.987Z</time></trkpt><trkpt lat="45.429256" lon="10.4560121"><ele>115.0</ele><time>2026-03-29T08:25:46.988Z</time></trkpt><trkpt lat="45.4291383" lon="10.4561271"><ele>115.0</ele><time>2026-03-29T08:25:47.988Z</time></trkpt><trkpt lat="45.4290217" lon="10.4562393"><ele>115.0</ele><time>2026-03-29T08:25:48.987Z</time></trkpt><trkpt lat="45.4289042" lon="10.456348"><ele>115.0</ele><time>2026-03-29T08:25:49.988Z</time></trkpt><trkpt lat="45.4287873" lon="10.456455"><ele>115.0</ele><time>2026-03-29T08:25:50.988Z</time></trkpt><trkpt lat="45.4286738" lon="10.4565618"><ele>115.0</ele><time>2026-03-29T08:25:51.988Z</time></trkpt><trkpt lat="45.4285661" lon="10.456667"><ele>115.0</ele><time>2026-03-29T08:25:52.987Z</time></trkpt><trkpt lat="45.4284741" lon="10.4567551"><ele>115.0</ele><time>2026-03-29T08:25:53.988Z</time></trkpt><trkpt lat="45.4283887" lon="10.4568243"><ele>115.0</ele><time>2026-03-29T08:25:54.988Z</time></trkpt><trkpt lat="45.4283185" lon="10.4568541"><ele>115.0</ele><time>2026-03-29T08:25:55.987Z</time></trkpt><trkpt lat="45.4282402" lon="10.4568478"><ele>115.0</ele><time>2026-03-29T08:25:56.987Z</time></trkpt><trkpt lat="45.4281426" lon="10.4567915"><ele>115.0</ele><time>2026-03-29T08:25:57.988Z</time></trkpt><trkpt lat="45.4280257" lon="10.4567161"><ele>115.0</ele><time>2026-03-29T08:25:58.987Z</time></trkpt><trkpt lat="45.4278892" lon="10.4566381"><ele>115.0</ele><time>2026-03-29T08:25:59.988Z</time></trkpt><trkpt lat="45.4277374" lon="10.4565396"><ele>115.0</ele><time>2026-03-29T08:26:00.987Z</time></trkpt><trkpt lat="45.4275718" lon="10.4564308"><ele>115.0</ele><time>2026-03-29T08:26:01.988Z</time></trkpt><trkpt lat="45.4273929" lon="10.4563195"><ele>114.66666666666667</ele><time>2026-03-29T08:26:02.988Z</time></trkpt><trkpt lat="45.4272118" lon="10.4562065"><ele>114.33333333333334</ele><time>2026-03-29T08:26:03.988Z</time></trkpt><trkpt lat="45.4270313" lon="10.4560925"><ele>114.0</ele><time>2026-03-29T08:26:04.988Z</time></trkpt><trkpt lat="45.4268538" lon="10.4559792"><ele>113.33333333333334</ele><time>2026-03-29T08:26:05.988Z</time></trkpt><trkpt lat="45.4266766" lon="10.4558642"><ele>112.66666666666667</ele><time>2026-03-29T08:26:06.987Z</time></trkpt><trkpt lat="45.4264999" lon="10.4557557"><ele>112.0</ele><time>2026-03-29T08:26:07.988Z</time></trkpt><trkpt lat="45.426325" lon="10.4556502"><ele>112.0</ele><time>2026-03-29T08:26:08.988Z</time></trkpt><trkpt lat="45.4261549" lon="10.4555397"><ele>112.0</ele><time>2026-03-29T08:26:09.987Z</time></trkpt><trkpt lat="45.4259841" lon="10.4554279"><ele>112.0</ele><time>2026-03-29T08:26:10.988Z</time></trkpt><trkpt lat="45.4258139" lon="10.4553201"><ele>112.0</ele><time>2026-03-29T08:26:11.987Z</time></trkpt><trkpt lat="45.4256436" lon="10.4552132"><ele>112.0</ele><time>2026-03-29T08:26:12.988Z</time></trkpt><trkpt lat="45.425474" lon="10.4551051"><ele>112.0</ele><time>2026-03-29T08:26:13.988Z</time></trkpt><trkpt lat="45.4253176" lon="10.4550071"><ele>112.33333333333334</ele><time>2026-03-29T08:26:14.987Z</time></trkpt><trkpt lat="45.4251802" lon="10.4549172"><ele>112.66666666666666</ele><time>2026-03-29T08:26:15.988Z</time></trkpt><trkpt lat="45.4250428" lon="10.4548207"><ele>113.0</ele><time>2026-03-29T08:26:16.988Z</time></trkpt><trkpt lat="45.424899" lon="10.4547287"><ele>113.0</ele><time>2026-03-29T08:26:17.988Z</time></trkpt><trkpt lat="45.4247516" lon="10.4546362"><ele>113.0</ele><time>2026-03-29T08:26:18.987Z</time></trkpt><trkpt lat="45.4246153" lon="10.4545451"><ele>113.0</ele><time>2026-03-29T08:26:19.987Z</time></trkpt><trkpt lat="45.4244809" lon="10.4544596"><ele>112.75</ele><time>2026-03-29T08:26:20.988Z</time></trkpt><trkpt lat="45.4243573" lon="10.454383"><ele>112.5</ele><time>2026-03-29T08:26:21.988Z</time></trkpt><trkpt lat="45.4242456" lon="10.4543181"><ele>112.25</ele><time>2026-03-29T08:26:22.987Z</time></trkpt><trkpt lat="45.4241358" lon="10.4542733"><ele>112.0</ele><time>2026-03-29T08:26:23.987Z</time></trkpt><trkpt lat="45.4240218" lon="10.4542345"><ele>112.0</ele><time>2026-03-29T08:26:24.988Z</time></trkpt><trkpt lat="45.4238892" lon="10.4541533"><ele>112.0</ele><time>2026-03-29T08:26:25.988Z</time></trkpt><trkpt lat="45.4237485" lon="10.4540565"><ele>112.0</ele><time>2026-03-29T08:26:26.988Z</time></trkpt><trkpt lat="45.4236045" lon="10.453964"><ele>111.66666666666667</ele><time>2026-03-29T08:26:27.989Z</time></trkpt><trkpt lat="45.423452" lon="10.4538633"><ele>111.33333333333334</ele><time>2026-03-29T08:26:28.988Z</time></trkpt><trkpt lat="45.4232985" lon="10.453763"><ele>111.0</ele><time>2026-03-29T08:26:29.988Z</time></trkpt><trkpt lat="45.4231403" lon="10.4536621"><ele>110.66666666666666</ele><time>2026-03-29T08:26:30.988Z</time></trkpt><trkpt lat="45.4229789" lon="10.4535612"><ele>110.33333333333333</ele><time>2026-03-29T08:26:31.987Z</time></trkpt><trkpt lat="45.4228174" lon="10.4534648"><ele>110.0</ele><time>2026-03-29T08:26:32.988Z</time></trkpt><trkpt lat="45.4226708" lon="10.4533704"><ele>110.0</ele><time>2026-03-29T08:26:33.987Z</time></trkpt><trkpt lat="45.4225302" lon="10.4532838"><ele>110.0</ele><time>2026-03-29T08:26:34.987Z</time></trkpt><trkpt lat="45.422399" lon="10.453209"><ele>110.0</ele><time>2026-03-29T08:26:35.987Z</time></trkpt><trkpt lat="45.4222559" lon="10.4531303"><ele>110.0</ele><time>2026-03-29T08:26:36.987Z</time></trkpt><trkpt lat="45.4220995" lon="10.4530315"><ele>110.0</ele><time>2026-03-29T08:26:37.988Z</time></trkpt><trkpt lat="45.4219425" lon="10.4529285"><ele>110.0</ele><time>2026-03-29T08:26:38.988Z</time></trkpt><trkpt lat="45.4217796" lon="10.452826"><ele>110.0</ele><time>2026-03-29T08:26:39.987Z</time></trkpt><trkpt lat="45.4216184" lon="10.4527248"><ele>110.0</ele><time>2026-03-29T08:26:40.988Z</time></trkpt><trkpt lat="45.4214682" lon="10.4526353"><ele>110.0</ele><time>2026-03-29T08:26:41.987Z</time></trkpt><trkpt lat="45.4213262" lon="10.4525438"><ele>110.0</ele><time>2026-03-29T08:26:42.987Z</time></trkpt><trkpt lat="45.4211842" lon="10.4524465"><ele>109.33333333333333</ele><time>2026-03-29T08:26:43.988Z</time></trkpt><trkpt lat="45.4210458" lon="10.4523574"><ele>108.66666666666666</ele><time>2026-03-29T08:26:44.988Z</time></trkpt><trkpt lat="45.4209068" lon="10.4522734"><ele>108.0</ele><time>2026-03-29T08:26:45.988Z</time></trkpt><trkpt lat="45.42077" lon="10.452183"><ele>108.33333333333334</ele><time>2026-03-29T08:26:46.988Z</time></trkpt><trkpt lat="45.4206302" lon="10.4520915"><ele>108.66666666666667</ele><time>2026-03-29T08:26:47.987Z</time></trkpt><trkpt lat="45.420489" lon="10.4519993"><ele>109.0</ele><time>2026-03-29T08:26:48.988Z</time></trkpt><trkpt lat="45.420353" lon="10.4519099"><ele>109.0</ele><time>2026-03-29T08:26:49.988Z</time></trkpt><trkpt lat="45.4202148" lon="10.4518186"><ele>109.0</ele><time>2026-03-29T08:26:50.987Z</time></trkpt><trkpt lat="45.4200707" lon="10.4517302"><ele>109.0</ele><time>2026-03-29T08:26:51.988Z</time></trkpt><trkpt lat="45.4199268" lon="10.4516402"><ele>109.0</ele><time>2026-03-29T08:26:52.988Z</time></trkpt><trkpt lat="45.4197814" lon="10.4515481"><ele>109.0</ele><time>2026-03-29T08:26:53.988Z</time></trkpt><trkpt lat="45.4196313" lon="10.4514529"><ele>109.0</ele><time>2026-03-29T08:26:54.987Z</time></trkpt><trkpt lat="45.4194735" lon="10.4513541"><ele>108.0</ele><time>2026-03-29T08:26:55.988Z</time></trkpt><trkpt lat="45.4193167" lon="10.4512486"><ele>107.0</ele><time>2026-03-29T08:26:56.988Z</time></trkpt><trkpt lat="45.4191564" lon="10.4511453"><ele>106.0</ele><time>2026-03-29T08:26:57.988Z</time></trkpt><trkpt lat="45.4189949" lon="10.4510433"><ele>106.0</ele><time>2026-03-29T08:26:58.988Z</time></trkpt><trkpt lat="45.4188325" lon="10.4509351"><ele>106.0</ele><time>2026-03-29T08:26:59.987Z</time></trkpt><trkpt lat="45.4186713" lon="10.4508331"><ele>106.0</ele><time>2026-03-29T08:27:00.988Z</time></trkpt><trkpt lat="45.4185071" lon="10.4507366"><ele>105.66666666666667</ele><time>2026-03-29T08:27:01.988Z</time></trkpt><trkpt lat="45.4183453" lon="10.4506376"><ele>105.33333333333334</ele><time>2026-03-29T08:27:02.988Z</time></trkpt><trkpt lat="45.4181958" lon="10.4505403"><ele>105.0</ele><time>2026-03-29T08:27:03.989Z</time></trkpt><trkpt lat="45.4180495" lon="10.4504429"><ele>104.33333333333334</ele><time>2026-03-29T08:27:04.987Z</time></trkpt><trkpt lat="45.4178959" lon="10.4503454"><ele>103.66666666666667</ele><time>2026-03-29T08:27:05.987Z</time></trkpt><trkpt lat="45.4177408" lon="10.4502507"><ele>103.0</ele><time>2026-03-29T08:27:06.988Z</time></trkpt><trkpt lat="45.4175912" lon="10.4501521"><ele>103.0</ele><time>2026-03-29T08:27:07.988Z</time></trkpt><trkpt lat="45.4174478" lon="10.4500632"><ele>103.0</ele><time>2026-03-29T08:27:08.988Z</time></trkpt><trkpt lat="45.4173132" lon="10.4499743"><ele>103.0</ele><time>2026-03-29T08:27:09.988Z</time></trkpt><trkpt lat="45.4172053" lon="10.4499044"><ele>103.0</ele><time>2026-03-29T08:27:10.987Z</time></trkpt><trkpt lat="45.4171204" lon="10.4498542"><ele>103.4</ele><time>2026-03-29T08:27:11.988Z</time></trkpt><trkpt lat="45.4170569" lon="10.4498291"><ele>103.80000000000001</ele><time>2026-03-29T08:27:12.987Z</time></trkpt><trkpt lat="45.4169474" lon="10.4498887"><ele>104.2</ele><time>2026-03-29T08:27:14.988Z</time></trkpt><trkpt lat="45.4168871" lon="10.4499798"><ele>104.6</ele><time>2026-03-29T08:27:15.987Z</time></trkpt><trkpt lat="45.4168204" lon="10.4501036"><ele>105.0</ele><time>2026-03-29T08:27:16.988Z</time></trkpt><trkpt lat="45.4167319" lon="10.4502649"><ele>105.0</ele><time>2026-03-29T08:27:17.988Z</time></trkpt><trkpt lat="45.4166288" lon="10.4504384"><ele>105.0</ele><time>2026-03-29T08:27:18.987Z</time></trkpt><trkpt lat="45.4165035" lon="10.4506381"><ele>105.0</ele><time>2026-03-29T08:27:19.988Z</time></trkpt><trkpt lat="45.4163707" lon="10.4508481"><ele>105.33333333333334</ele><time>2026-03-29T08:27:20.988Z</time></trkpt><trkpt lat="45.4162332" lon="10.4510654"><ele>105.66666666666667</ele><time>2026-03-29T08:27:21.988Z</time></trkpt><trkpt lat="45.4161108" lon="10.4512649"><ele>106.0</ele><time>2026-03-29T08:27:22.988Z</time></trkpt><trkpt lat="45.4159896" lon="10.4514576"><ele>105.33333333333334</ele><time>2026-03-29T08:27:23.988Z</time></trkpt><trkpt lat="45.4158865" lon="10.4516299"><ele>104.66666666666666</ele><time>2026-03-29T08:27:24.987Z</time></trkpt><trkpt lat="45.4157747" lon="10.4518002"><ele>104.0</ele><time>2026-03-29T08:27:25.988Z</time></trkpt><trkpt lat="45.4156612" lon="10.451974"><ele>103.75</ele><time>2026-03-29T08:27:26.988Z</time></trkpt><trkpt lat="45.415549" lon="10.4521458"><ele>103.5</ele><time>2026-03-29T08:27:27.987Z</time></trkpt><trkpt lat="45.4154572" lon="10.4522962"><ele>103.25</ele><time>2026-03-29T08:27:28.987Z</time></trkpt><trkpt lat="45.4153714" lon="10.4524427"><ele>103.0</ele><time>2026-03-29T08:27:29.987Z</time></trkpt><trkpt lat="45.4152734" lon="10.452598"><ele>103.0</ele><time>2026-03-29T08:27:30.988Z</time></trkpt><trkpt lat="45.4151792" lon="10.45275"><ele>103.0</ele><time>2026-03-29T08:27:31.988Z</time></trkpt><trkpt lat="45.4150949" lon="10.4528859"><ele>103.0</ele><time>2026-03-29T08:27:32.987Z</time></trkpt><trkpt lat="45.4150173" lon="10.4530188"><ele>103.0</ele><time>2026-03-29T08:27:33.988Z</time></trkpt><trkpt lat="45.4149562" lon="10.4531298"><ele>103.60000000000001</ele><time>2026-03-29T08:27:34.987Z</time></trkpt><trkpt lat="45.4149153" lon="10.4532151"><ele>104.2</ele><time>2026-03-29T08:27:35.987Z</time></trkpt><trkpt lat="45.4149313" lon="10.4533617"><ele>104.8</ele><time>2026-03-29T08:27:37.988Z</time></trkpt><trkpt lat="45.4149803" lon="10.4534214"><ele>105.4</ele><time>2026-03-29T08:27:38.988Z</time></trkpt><trkpt lat="45.4150626" lon="10.4535"><ele>106.0</ele><time>2026-03-29T08:27:39.987Z</time></trkpt><trkpt lat="45.4151596" lon="10.4535999"><ele>106.0</ele><time>2026-03-29T08:27:40.988Z</time></trkpt><trkpt lat="45.4152649" lon="10.4537095"><ele>106.0</ele><time>2026-03-29T08:27:41.988Z</time></trkpt><trkpt lat="45.4153714" lon="10.4538172"><ele>106.0</ele><time>2026-03-29T08:27:42.987Z</time></trkpt><trkpt lat="45.4154788" lon="10.4539209"><ele>106.0</ele><time>2026-03-29T08:27:43.987Z</time></trkpt><trkpt lat="45.415584" lon="10.4540202"><ele>106.0</ele><time>2026-03-29T08:27:44.988Z</time></trkpt><trkpt lat="45.4156938" lon="10.4541223"><ele>106.0</ele><time>2026-03-29T08:27:45.987Z</time></trkpt><trkpt lat="45.4157926" lon="10.4542102"><ele>106.0</ele><time>2026-03-29T08:27:46.988Z</time></trkpt><trkpt lat="45.4158707" lon="10.4542952"><ele>106.0</ele><time>2026-03-29T08:27:47.988Z</time></trkpt><trkpt lat="45.4159286" lon="10.4543697"><ele>106.0</ele><time>2026-03-29T08:27:48.988Z</time></trkpt><trkpt lat="45.4159666" lon="10.4544413"><ele>106.0</ele><time>2026-03-29T08:27:49.987Z</time></trkpt><trkpt lat="45.4159836" lon="10.4545424"><ele>106.0</ele><time>2026-03-29T08:27:50.988Z</time></trkpt><trkpt lat="45.415971" lon="10.4546722"><ele>106.0</ele><time>2026-03-29T08:27:51.988Z</time></trkpt><trkpt lat="45.4159451" lon="10.454832"><ele>106.0</ele><time>2026-03-29T08:27:52.988Z</time></trkpt><trkpt lat="45.4159196" lon="10.4550184"><ele>106.0</ele><time>2026-03-29T08:27:53.988Z</time></trkpt><trkpt lat="45.4158865" lon="10.4552239"><ele>106.0</ele><time>2026-03-29T08:27:54.988Z</time></trkpt><trkpt lat="45.415859" lon="10.4554369"><ele>106.0</ele><time>2026-03-29T08:27:55.988Z</time></trkpt><trkpt lat="45.4158326" lon="10.4556579"><ele>106.0</ele><time>2026-03-29T08:27:56.987Z</time></trkpt><trkpt lat="45.4158054" lon="10.4558742"><ele>106.0</ele><time>2026-03-29T08:27:57.988Z</time></trkpt><trkpt lat="45.415781" lon="10.4560904"><ele>106.0</ele><time>2026-03-29T08:27:58.987Z</time></trkpt><trkpt lat="45.4157562" lon="10.456307"><ele>106.0</ele><time>2026-03-29T08:27:59.987Z</time></trkpt><trkpt lat="45.4157292" lon="10.4565268"><ele>106.0</ele><time>2026-03-29T08:28:00.987Z</time></trkpt><trkpt lat="45.4157068" lon="10.4567375"><ele>106.0</ele><time>2026-03-29T08:28:01.987Z</time></trkpt><trkpt lat="45.4156874" lon="10.4569504"><ele>106.0</ele><time>2026-03-29T08:28:02.988Z</time></trkpt><trkpt lat="45.4156677" lon="10.4571642"><ele>105.75</ele><time>2026-03-29T08:28:03.988Z</time></trkpt><trkpt lat="45.4156472" lon="10.4573746"><ele>105.5</ele><time>2026-03-29T08:28:04.988Z</time></trkpt><trkpt lat="45.4156264" lon="10.4575864"><ele>105.25</ele><time>2026-03-29T08:28:05.988Z</time></trkpt><trkpt lat="45.4156069" lon="10.4577965"><ele>105.0</ele><time>2026-03-29T08:28:06.988Z</time></trkpt><trkpt lat="45.4155892" lon="10.4580091"><ele>104.33333333333334</ele><time>2026-03-29T08:28:07.988Z</time></trkpt><trkpt lat="45.4155742" lon="10.4582269"><ele>103.66666666666667</ele><time>2026-03-29T08:28:08.988Z</time></trkpt><trkpt lat="45.4155625" lon="10.458446"><ele>103.0</ele><time>2026-03-29T08:28:09.987Z</time></trkpt><trkpt lat="45.4155517" lon="10.458667"><ele>103.33333333333334</ele><time>2026-03-29T08:28:10.988Z</time></trkpt><trkpt lat="45.41554" lon="10.4588857"><ele>103.66666666666666</ele><time>2026-03-29T08:28:11.988Z</time></trkpt><trkpt lat="45.4155277" lon="10.4591034"><ele>104.0</ele><time>2026-03-29T08:28:12.988Z</time></trkpt><trkpt lat="45.4155161" lon="10.4593216"><ele>104.0</ele><time>2026-03-29T08:28:13.988Z</time></trkpt><trkpt lat="45.4155025" lon="10.4595385"><ele>104.0</ele><time>2026-03-29T08:28:14.988Z</time></trkpt><trkpt lat="45.4154917" lon="10.4597589"><ele>104.0</ele><time>2026-03-29T08:28:15.988Z</time></trkpt><trkpt lat="45.415483" lon="10.4599749"><ele>104.0</ele><time>2026-03-29T08:28:16.988Z</time></trkpt><trkpt lat="45.4154731" lon="10.4601918"><ele>104.0</ele><time>2026-03-29T08:28:17.988Z</time></trkpt><trkpt lat="45.4154652" lon="10.4604064"><ele>104.0</ele><time>2026-03-29T08:28:18.988Z</time></trkpt><trkpt lat="45.415457" lon="10.4606129"><ele>104.0</ele><time>2026-03-29T08:28:19.988Z</time></trkpt><trkpt lat="45.4154463" lon="10.4608224"><ele>104.0</ele><time>2026-03-29T08:28:20.988Z</time></trkpt><trkpt lat="45.4154304" lon="10.4610377"><ele>104.0</ele><time>2026-03-29T08:28:21.988Z</time></trkpt><trkpt lat="45.4154199" lon="10.4612577"><ele>104.0</ele><time>2026-03-29T08:28:22.988Z</time></trkpt><trkpt lat="45.4154125" lon="10.4614814"><ele>104.0</ele><time>2026-03-29T08:28:23.987Z</time></trkpt><trkpt lat="45.4154051" lon="10.4617051"><ele>104.0</ele><time>2026-03-29T08:28:24.987Z</time></trkpt><trkpt lat="45.4153979" lon="10.4619258"><ele>104.0</ele><time>2026-03-29T08:28:25.988Z</time></trkpt><trkpt lat="45.4153896" lon="10.4621406"><ele>104.0</ele><time>2026-03-29T08:28:26.988Z</time></trkpt><trkpt lat="45.4153806" lon="10.4623495"><ele>104.0</ele><time>2026-03-29T08:28:27.988Z</time></trkpt><trkpt lat="45.4153735" lon="10.4625479"><ele>104.0</ele><time>2026-03-29T08:28:28.987Z</time></trkpt><trkpt lat="45.4153681" lon="10.4627421"><ele>104.0</ele><time>2026-03-29T08:28:29.987Z</time></trkpt><trkpt lat="45.4153654" lon="10.4629564"><ele>104.33333333333333</ele><time>2026-03-29T08:28:30.989Z</time></trkpt><trkpt lat="45.4153693" lon="10.4631691"><ele>104.66666666666666</ele><time>2026-03-29T08:28:31.988Z</time></trkpt><trkpt lat="45.415379" lon="10.4633926"><ele>105.0</ele><time>2026-03-29T08:28:32.987Z</time></trkpt><trkpt lat="45.4153927" lon="10.463616"><ele>106.0</ele><time>2026-03-29T08:28:33.988Z</time></trkpt><trkpt lat="45.4154118" lon="10.4638408"><ele>107.0</ele><time>2026-03-29T08:28:34.989Z</time></trkpt><trkpt lat="45.4154267" lon="10.4640553"><ele>108.0</ele><time>2026-03-29T08:28:35.988Z</time></trkpt><trkpt lat="45.4154396" lon="10.4642539"><ele>108.0</ele><time>2026-03-29T08:28:36.988Z</time></trkpt><trkpt lat="45.4154596" lon="10.4644622"><ele>108.0</ele><time>2026-03-29T08:28:37.988Z</time></trkpt><trkpt lat="45.4154822" lon="10.4646682"><ele>108.0</ele><time>2026-03-29T08:28:38.988Z</time></trkpt><trkpt lat="45.4155023" lon="10.4648735"><ele>108.0</ele><time>2026-03-29T08:28:39.988Z</time></trkpt><trkpt lat="45.4155189" lon="10.4650693"><ele>107.75</ele><time>2026-03-29T08:28:40.987Z</time></trkpt><trkpt lat="45.4155267" lon="10.4652642"><ele>107.5</ele><time>2026-03-29T08:28:41.988Z</time></trkpt><trkpt lat="45.415537" lon="10.4654555"><ele>107.25</ele><time>2026-03-29T08:28:42.988Z</time></trkpt><trkpt lat="45.4155479" lon="10.4656454"><ele>107.0</ele><time>2026-03-29T08:28:43.987Z</time></trkpt><trkpt lat="45.4155586" lon="10.4658391"><ele>107.0</ele><time>2026-03-29T08:28:44.987Z</time></trkpt><trkpt lat="45.4155733" lon="10.4660393"><ele>107.0</ele><time>2026-03-29T08:28:45.988Z</time></trkpt><trkpt lat="45.4155873" lon="10.4662376"><ele>107.0</ele><time>2026-03-29T08:28:46.988Z</time></trkpt><trkpt lat="45.4155963" lon="10.466438"><ele>107.0</ele><time>2026-03-29T08:28:47.988Z</time></trkpt><trkpt lat="45.4156003" lon="10.4666436"><ele>107.0</ele><time>2026-03-29T08:28:48.988Z</time></trkpt><trkpt lat="45.4155969" lon="10.4668467"><ele>107.0</ele><time>2026-03-29T08:28:49.989Z</time></trkpt><trkpt lat="45.4155939" lon="10.4670464"><ele>107.0</ele><time>2026-03-29T08:28:50.987Z</time></trkpt><trkpt lat="45.4155869" lon="10.467249"><ele>107.0</ele><time>2026-03-29T08:28:51.987Z</time></trkpt><trkpt lat="45.4155732" lon="10.4674476"><ele>107.0</ele><time>2026-03-29T08:28:52.988Z</time></trkpt><trkpt lat="45.4155533" lon="10.4676473"><ele>107.0</ele><time>2026-03-29T08:28:53.988Z</time></trkpt><trkpt lat="45.41553" lon="10.4678466"><ele>107.0</ele><time>2026-03-29T08:28:54.988Z</time></trkpt><trkpt lat="45.4155058" lon="10.4680433"><ele>107.0</ele><time>2026-03-29T08:28:55.987Z</time></trkpt><trkpt lat="45.4154794" lon="10.4682428"><ele>107.0</ele><time>2026-03-29T08:28:56.988Z</time></trkpt><trkpt lat="45.4154597" lon="10.4684415"><ele>107.0</ele><time>2026-03-29T08:28:57.988Z</time></trkpt><trkpt lat="45.4154375" lon="10.4686373"><ele>107.0</ele><time>2026-03-29T08:28:58.987Z</time></trkpt><trkpt lat="45.4154205" lon="10.4688379"><ele>107.0</ele><time>2026-03-29T08:28:59.988Z</time></trkpt><trkpt lat="45.4154" lon="10.4690366"><ele>107.0</ele><time>2026-03-29T08:29:00.987Z</time></trkpt><trkpt lat="45.4153793" lon="10.4692339"><ele>107.0</ele><time>2026-03-29T08:29:01.988Z</time></trkpt><trkpt lat="45.4153579" lon="10.4694332"><ele>107.0</ele><time>2026-03-29T08:29:02.988Z</time></trkpt><trkpt lat="45.4153368" lon="10.4696316"><ele>107.0</ele><time>2026-03-29T08:29:03.988Z</time></trkpt><trkpt lat="45.4153145" lon="10.4698305"><ele>107.25</ele><time>2026-03-29T08:29:04.987Z</time></trkpt><trkpt lat="45.4152946" lon="10.4700356"><ele>107.5</ele><time>2026-03-29T08:29:05.988Z</time></trkpt><trkpt lat="45.4152778" lon="10.4702391"><ele>107.75</ele><time>2026-03-29T08:29:06.988Z</time></trkpt><trkpt lat="45.4152596" lon="10.4704404"><ele>108.0</ele><time>2026-03-29T08:29:07.988Z</time></trkpt><trkpt lat="45.4152417" lon="10.4706382"><ele>108.5</ele><time>2026-03-29T08:29:08.989Z</time></trkpt><trkpt lat="45.4152227" lon="10.4708353"><ele>109.0</ele><time>2026-03-29T08:29:09.987Z</time></trkpt><trkpt lat="45.4152051" lon="10.4710075"><ele>109.5</ele><time>2026-03-29T08:29:10.987Z</time></trkpt><trkpt lat="45.4151939" lon="10.4711391"><ele>110.0</ele><time>2026-03-29T08:29:11.988Z</time></trkpt><trkpt lat="45.4151786" lon="10.4712799"><ele>110.16666666666666</ele><time>2026-03-29T08:29:12.989Z</time></trkpt><trkpt lat="45.415165" lon="10.4714289"><ele>110.33333333333333</ele><time>2026-03-29T08:29:13.988Z</time></trkpt><trkpt lat="45.4151522" lon="10.471577"><ele>110.5</ele><time>2026-03-29T08:29:14.988Z</time></trkpt><trkpt lat="45.4151408" lon="10.4716999"><ele>110.66666666666666</ele><time>2026-03-29T08:29:15.987Z</time></trkpt><trkpt lat="45.4151319" lon="10.4718012"><ele>110.83333333333333</ele><time>2026-03-29T08:29:16.987Z</time></trkpt><trkpt lat="45.4151253" lon="10.4718961"><ele>111.0</ele><time>2026-03-29T08:29:17.988Z</time></trkpt><trkpt lat="45.4151377" lon="10.4719946"><ele>111.0</ele><time>2026-03-29T08:29:19.988Z</time></trkpt><trkpt lat="45.4152" lon="10.4720346"><ele>111.0</ele><time>2026-03-29T08:29:21.988Z</time></trkpt><trkpt lat="45.415305" lon="10.4720238"><ele>111.0</ele><time>2026-03-29T08:29:23.987Z</time></trkpt><trkpt lat="45.4153939" lon="10.472028"><ele>111.0</ele><time>2026-03-29T08:29:24.987Z</time></trkpt><trkpt lat="45.4155105" lon="10.4720417"><ele>111.0</ele><time>2026-03-29T08:29:25.987Z</time></trkpt><trkpt lat="45.415635" lon="10.4720401"><ele>111.0</ele><time>2026-03-29T08:29:26.987Z</time></trkpt><trkpt lat="45.415774" lon="10.4720457"><ele>111.0</ele><time>2026-03-29T08:29:27.987Z</time></trkpt><trkpt lat="45.4159144" lon="10.4720667"><ele>111.0</ele><time>2026-03-29T08:29:28.987Z</time></trkpt><trkpt lat="45.4160642" lon="10.4720815"><ele>111.0</ele><time>2026-03-29T08:29:29.987Z</time></trkpt><trkpt lat="45.416208" lon="10.4721003"><ele>111.0</ele><time>2026-03-29T08:29:30.988Z</time></trkpt><trkpt lat="45.4163445" lon="10.4721181"><ele>111.0</ele><time>2026-03-29T08:29:31.987Z</time></trkpt><trkpt lat="45.4164842" lon="10.4721317"><ele>111.0</ele><time>2026-03-29T08:29:32.988Z</time></trkpt><trkpt lat="45.4166289" lon="10.4721524"><ele>111.0</ele><time>2026-03-29T08:29:33.988Z</time></trkpt><trkpt lat="45.4167733" lon="10.4721725"><ele>111.0</ele><time>2026-03-29T08:29:34.988Z</time></trkpt><trkpt lat="45.4169202" lon="10.4721899"><ele>111.0</ele><time>2026-03-29T08:29:35.988Z</time></trkpt><trkpt lat="45.4170691" lon="10.4722057"><ele>111.0</ele><time>2026-03-29T08:29:36.988Z</time></trkpt><trkpt lat="45.417216" lon="10.4722221"><ele>111.0</ele><time>2026-03-29T08:29:37.988Z</time></trkpt><trkpt lat="45.4173636" lon="10.4722429"><ele>111.25</ele><time>2026-03-29T08:29:38.987Z</time></trkpt><trkpt lat="45.4175106" lon="10.4722615"><ele>111.5</ele><time>2026-03-29T08:29:39.987Z</time></trkpt><trkpt lat="45.4176548" lon="10.4722817"><ele>111.75</ele><time>2026-03-29T08:29:40.988Z</time></trkpt><trkpt lat="45.4177968" lon="10.4723032"><ele>112.0</ele><time>2026-03-29T08:29:41.987Z</time></trkpt><trkpt lat="45.4179352" lon="10.4723211"><ele>112.0</ele><time>2026-03-29T08:29:42.988Z</time></trkpt><trkpt lat="45.4180756" lon="10.4723447"><ele>112.0</ele><time>2026-03-29T08:29:43.989Z</time></trkpt><trkpt lat="45.4182148" lon="10.4723635"><ele>112.0</ele><time>2026-03-29T08:29:44.987Z</time></trkpt><trkpt lat="45.4183563" lon="10.4723741"><ele>112.0</ele><time>2026-03-29T08:29:45.987Z</time></trkpt><trkpt lat="45.4185015" lon="10.4723818"><ele>112.0</ele><time>2026-03-29T08:29:46.987Z</time></trkpt><trkpt lat="45.418652" lon="10.4723985"><ele>112.0</ele><time>2026-03-29T08:29:47.987Z</time></trkpt><trkpt lat="45.4188024" lon="10.4724119"><ele>112.0</ele><time>2026-03-29T08:29:48.988Z</time></trkpt><trkpt lat="45.4189472" lon="10.4724259"><ele>112.0</ele><time>2026-03-29T08:29:49.988Z</time></trkpt><trkpt lat="45.4190753" lon="10.4724388"><ele>111.83333333333334</ele><time>2026-03-29T08:29:50.987Z</time></trkpt><trkpt lat="45.4191868" lon="10.4724543"><ele>111.66666666666667</ele><time>2026-03-29T08:29:51.987Z</time></trkpt><trkpt lat="45.4192827" lon="10.4724681"><ele>111.5</ele><time>2026-03-29T08:29:52.988Z</time></trkpt><trkpt lat="45.4193612" lon="10.4724868"><ele>111.33333333333334</ele><time>2026-03-29T08:29:53.987Z</time></trkpt><trkpt lat="45.419431" lon="10.4725062"><ele>111.16666666666667</ele><time>2026-03-29T08:29:54.988Z</time></trkpt><trkpt lat="45.4194981" lon="10.4725488"><ele>111.0</ele><time>2026-03-29T08:29:56.987Z</time></trkpt><trkpt lat="45.4195066" lon="10.4726547"><ele>111.0</ele><time>2026-03-29T08:29:58.987Z</time></trkpt><trkpt lat="45.4194649" lon="10.4728109"><ele>111.0</ele><time>2026-03-29T08:30:00.987Z</time></trkpt><trkpt lat="45.4194414" lon="10.472895"><ele>111.0</ele><time>2026-03-29T08:30:01.988Z</time></trkpt><trkpt lat="45.4194222" lon="10.4729986"><ele>111.0</ele><time>2026-03-29T08:30:02.988Z</time></trkpt><trkpt lat="45.4193988" lon="10.4731056"><ele>111.0</ele><time>2026-03-29T08:30:03.988Z</time></trkpt><trkpt lat="45.4193702" lon="10.4732156"><ele>111.0</ele><time>2026-03-29T08:30:04.987Z</time></trkpt><trkpt lat="45.4193375" lon="10.4733361"><ele>111.0</ele><time>2026-03-29T08:30:05.988Z</time></trkpt><trkpt lat="45.4193077" lon="10.4734647"><ele>111.0</ele><time>2026-03-29T08:30:06.988Z</time></trkpt><trkpt lat="45.4192733" lon="10.473605"><ele>111.0</ele><time>2026-03-29T08:30:07.988Z</time></trkpt><trkpt lat="45.4192314" lon="10.4737546"><ele>111.0</ele><time>2026-03-29T08:30:08.988Z</time></trkpt><trkpt lat="45.4191903" lon="10.4739117"><ele>111.0</ele><time>2026-03-29T08:30:09.988Z</time></trkpt><trkpt lat="45.419147" lon="10.4740787"><ele>111.0</ele><time>2026-03-29T08:30:10.988Z</time></trkpt><trkpt lat="45.4191024" lon="10.4742595"><ele>111.0</ele><time>2026-03-29T08:30:11.988Z</time></trkpt><trkpt lat="45.4190576" lon="10.4744457"><ele>111.0</ele><time>2026-03-29T08:30:12.987Z</time></trkpt><trkpt lat="45.4190142" lon="10.474636"><ele>111.0</ele><time>2026-03-29T08:30:13.988Z</time></trkpt><trkpt lat="45.4189786" lon="10.4748247"><ele>111.0</ele><time>2026-03-29T08:30:14.988Z</time></trkpt><trkpt lat="45.4189518" lon="10.4750108"><ele>111.0</ele><time>2026-03-29T08:30:15.987Z</time></trkpt><trkpt lat="45.4189323" lon="10.4752001"><ele>111.0</ele><time>2026-03-29T08:30:16.988Z</time></trkpt><trkpt lat="45.418924" lon="10.4753911"><ele>111.0</ele><time>2026-03-29T08:30:17.988Z</time></trkpt><trkpt lat="45.4189183" lon="10.4755747"><ele>111.5</ele><time>2026-03-29T08:30:18.988Z</time></trkpt><trkpt lat="45.4189134" lon="10.4757609"><ele>112.0</ele><time>2026-03-29T08:30:19.988Z</time></trkpt><trkpt lat="45.4189001" lon="10.4759382"><ele>112.5</ele><time>2026-03-29T08:30:20.987Z</time></trkpt><trkpt lat="45.4188794" lon="10.4761039"><ele>113.0</ele><time>2026-03-29T08:30:21.987Z</time></trkpt><trkpt lat="45.4188555" lon="10.4762533"><ele>113.33333333333333</ele><time>2026-03-29T08:30:22.987Z</time></trkpt><trkpt lat="45.4188279" lon="10.4763704"><ele>113.66666666666666</ele><time>2026-03-29T08:30:23.988Z</time></trkpt><trkpt lat="45.4187937" lon="10.4764558"><ele>114.0</ele><time>2026-03-29T08:30:24.988Z</time></trkpt><trkpt lat="45.4187184" lon="10.4765349"><ele>114.33333333333334</ele><time>2026-03-29T08:30:26.987Z</time></trkpt><trkpt lat="45.4186605" lon="10.4766569"><ele>114.66666666666667</ele><time>2026-03-29T08:30:45.987Z</time></trkpt><trkpt lat="45.4186558" lon="10.4767713"><ele>115.0</ele><time>2026-03-29T08:30:46.987Z</time></trkpt><trkpt lat="45.4186484" lon="10.4769175"><ele>115.0</ele><time>2026-03-29T08:30:47.988Z</time></trkpt><trkpt lat="45.4186098" lon="10.4770706"><ele>115.0</ele><time>2026-03-29T08:30:48.988Z</time></trkpt><trkpt lat="45.4185481" lon="10.4772284"><ele>115.0</ele><time>2026-03-29T08:30:49.988Z</time></trkpt><trkpt lat="45.4184558" lon="10.4773915"><ele>115.0</ele><time>2026-03-29T08:30:50.987Z</time></trkpt><trkpt lat="45.4183528" lon="10.4775557"><ele>116.25</ele><time>2026-03-29T08:30:51.988Z</time></trkpt><trkpt lat="45.4182582" lon="10.4777078"><ele>117.5</ele><time>2026-03-29T08:30:52.987Z</time></trkpt><trkpt lat="45.4181793" lon="10.4778569"><ele>118.75</ele><time>2026-03-29T08:30:53.987Z</time></trkpt><trkpt lat="45.418104" lon="10.478046"><ele>120.0</ele><time>2026-03-29T08:30:54.988Z</time></trkpt><trkpt lat="45.418054" lon="10.4782712"><ele>119.33333333333334</ele><time>2026-03-29T08:30:55.988Z</time></trkpt><trkpt lat="45.4179962" lon="10.4784987"><ele>118.66666666666667</ele><time>2026-03-29T08:30:56.988Z</time></trkpt><trkpt lat="45.4179433" lon="10.4787138"><ele>118.0</ele><time>2026-03-29T08:30:57.988Z</time></trkpt><trkpt lat="45.4179007" lon="10.4789061"><ele>119.0</ele><time>2026-03-29T08:30:58.988Z</time></trkpt><trkpt lat="45.4178697" lon="10.4790848"><ele>120.0</ele><time>2026-03-29T08:30:59.988Z</time></trkpt><trkpt lat="45.4178643" lon="10.4792604"><ele>121.0</ele><time>2026-03-29T08:31:00.988Z</time></trkpt><trkpt lat="45.4179059" lon="10.47943"><ele>122.0</ele><time>2026-03-29T08:31:01.988Z</time></trkpt><trkpt lat="45.4179551" lon="10.4796034"><ele>127.33333333333333</ele><time>2026-03-29T08:31:02.988Z</time></trkpt><trkpt lat="45.4180199" lon="10.4797964"><ele>132.66666666666666</ele><time>2026-03-29T08:31:03.988Z</time></trkpt><trkpt lat="45.4180785" lon="10.479998"><ele>138.0</ele><time>2026-03-29T08:31:04.988Z</time></trkpt><trkpt lat="45.4181324" lon="10.4801974"><ele>138.0</ele><time>2026-03-29T08:31:05.988Z</time></trkpt><trkpt lat="45.4181856" lon="10.4803872"><ele>138.0</ele><time>2026-03-29T08:31:06.988Z</time></trkpt><trkpt lat="45.4182522" lon="10.4805549"><ele>138.0</ele><time>2026-03-29T08:31:07.988Z</time></trkpt><trkpt lat="45.4183349" lon="10.4806842"><ele>138.0</ele><time>2026-03-29T08:31:08.988Z</time></trkpt><trkpt lat="45.418418" lon="10.4807792"><ele>135.8</ele><time>2026-03-29T08:31:09.987Z</time></trkpt><trkpt lat="45.4185057" lon="10.4808646"><ele>133.60000000000002</ele><time>2026-03-29T08:31:10.988Z</time></trkpt><trkpt lat="45.4185907" lon="10.4809607"><ele>131.39999999999998</ele><time>2026-03-29T08:31:11.988Z</time></trkpt><trkpt lat="45.4186636" lon="10.4810536"><ele>129.2</ele><time>2026-03-29T08:31:12.987Z</time></trkpt><trkpt lat="45.4187059" lon="10.4811575"><ele>127.0</ele><time>2026-03-29T08:31:13.988Z</time></trkpt><trkpt lat="45.4187184" lon="10.481269"><ele>126.50000000000001</ele><time>2026-03-29T08:31:14.989Z</time></trkpt><trkpt lat="45.4187202" lon="10.4813901"><ele>126.0</ele><time>2026-03-29T08:31:15.988Z</time></trkpt><trkpt lat="45.4187069" lon="10.4815065"><ele>125.5</ele><time>2026-03-29T08:31:16.988Z</time></trkpt><trkpt lat="45.418685" lon="10.4815994"><ele>125.0</ele><time>2026-03-29T08:31:17.988Z</time></trkpt><trkpt lat="45.4186394" lon="10.4817307"><ele>124.50000000000001</ele><time>2026-03-29T08:31:19.988Z</time></trkpt><trkpt lat="45.4186231" lon="10.4818313"><ele>124.0</ele><time>2026-03-29T08:31:23.988Z</time></trkpt><trkpt lat="45.418703" lon="10.4819027"><ele>124.00000000000001</ele><time>2026-03-29T08:31:25.988Z</time></trkpt><trkpt lat="45.4187486" lon="10.4819706"><ele>124.0</ele><time>2026-03-29T08:31:26.988Z</time></trkpt><trkpt lat="45.4187724" lon="10.4820669"><ele>124.0</ele><time>2026-03-29T08:31:27.987Z</time></trkpt><trkpt lat="45.4187844" lon="10.482201"><ele>124.0</ele><time>2026-03-29T08:31:28.987Z</time></trkpt><trkpt lat="45.4187927" lon="10.4823292"><ele>124.00000000000001</ele><time>2026-03-29T08:31:29.988Z</time></trkpt><trkpt lat="45.4187981" lon="10.4824586"><ele>124.0</ele><time>2026-03-29T08:31:30.989Z</time></trkpt><trkpt lat="45.4188013" lon="10.4825883"><ele>124.2</ele><time>2026-03-29T08:31:31.988Z</time></trkpt><trkpt lat="45.4188038" lon="10.4827082"><ele>124.4</ele><time>2026-03-29T08:31:32.988Z</time></trkpt><trkpt lat="45.4188108" lon="10.482826"><ele>124.6</ele><time>2026-03-29T08:31:33.989Z</time></trkpt><trkpt lat="45.4188167" lon="10.4829272"><ele>124.8</ele><time>2026-03-29T08:31:34.988Z</time></trkpt><trkpt lat="45.4189049" lon="10.4830722"><ele>125.0</ele><time>2026-03-29T08:31:36.987Z</time></trkpt><trkpt lat="45.4189775" lon="10.4831449"><ele>125.0</ele><time>2026-03-29T08:31:37.987Z</time></trkpt><trkpt lat="45.4190572" lon="10.4832242"><ele>125.0</ele><time>2026-03-29T08:31:38.987Z</time></trkpt><trkpt lat="45.4191347" lon="10.4833016"><ele>125.0</ele><time>2026-03-29T08:31:39.987Z</time></trkpt><trkpt lat="45.4192093" lon="10.4833878"><ele>125.0</ele><time>2026-03-29T08:31:40.987Z</time></trkpt><trkpt lat="45.4192806" lon="10.4834847"><ele>125.0</ele><time>2026-03-29T08:31:41.987Z</time></trkpt><trkpt lat="45.4193321" lon="10.4835786"><ele>124.99999999999999</ele><time>2026-03-29T08:31:42.988Z</time></trkpt><trkpt lat="45.419364" lon="10.4836643"><ele>125.0</ele><time>2026-03-29T08:31:43.988Z</time></trkpt><trkpt lat="45.419372" lon="10.4837699"><ele>125.0</ele><time>2026-03-29T08:31:44.988Z</time></trkpt><trkpt lat="45.4193617" lon="10.4838993"><ele>125.0</ele><time>2026-03-29T08:31:45.987Z</time></trkpt><trkpt lat="45.4193499" lon="10.4840398"><ele>124.99999999999999</ele><time>2026-03-29T08:31:46.987Z</time></trkpt><trkpt lat="45.4193374" lon="10.4841872"><ele>125.0</ele><time>2026-03-29T08:31:47.987Z</time></trkpt><trkpt lat="45.4193315" lon="10.484336"><ele>125.6</ele><time>2026-03-29T08:31:48.987Z</time></trkpt><trkpt lat="45.4193507" lon="10.4844754"><ele>126.2</ele><time>2026-03-29T08:31:49.987Z</time></trkpt><trkpt lat="45.4194018" lon="10.48459"><ele>126.80000000000001</ele><time>2026-03-29T08:31:50.987Z</time></trkpt><trkpt lat="45.4194747" lon="10.4847168"><ele>127.4</ele><time>2026-03-29T08:31:51.987Z</time></trkpt><trkpt lat="45.4195637" lon="10.484842"><ele>128.0</ele><time>2026-03-29T08:31:52.987Z</time></trkpt><trkpt lat="45.4196703" lon="10.4849689"><ele>128.0</ele><time>2026-03-29T08:31:53.988Z</time></trkpt><trkpt lat="45.4197892" lon="10.4850854"><ele>128.0</ele><time>2026-03-29T08:31:54.988Z</time></trkpt><trkpt lat="45.4199178" lon="10.4851957"><ele>128.0</ele><time>2026-03-29T08:31:55.988Z</time></trkpt><trkpt lat="45.4200531" lon="10.4852889"><ele>128.0</ele><time>2026-03-29T08:31:56.988Z</time></trkpt><trkpt lat="45.420187" lon="10.4853646"><ele>128.0</ele><time>2026-03-29T08:31:57.988Z</time></trkpt><trkpt lat="45.4203223" lon="10.4854263"><ele>128.0</ele><time>2026-03-29T08:31:58.987Z</time></trkpt><trkpt lat="45.42045" lon="10.4854533"><ele>128.0</ele><time>2026-03-29T08:31:59.988Z</time></trkpt><trkpt lat="45.4205793" lon="10.4854845"><ele>128.0</ele><time>2026-03-29T08:32:00.988Z</time></trkpt><trkpt lat="45.4206965" lon="10.4854788"><ele>130.75</ele><time>2026-03-29T08:32:01.988Z</time></trkpt><trkpt lat="45.4208195" lon="10.4854742"><ele>133.5</ele><time>2026-03-29T08:32:02.987Z</time></trkpt><trkpt lat="45.4209459" lon="10.4854592"><ele>136.25</ele><time>2026-03-29T08:32:03.988Z</time></trkpt><trkpt lat="45.4210639" lon="10.4854489"><ele>139.0</ele><time>2026-03-29T08:32:04.988Z</time></trkpt><trkpt lat="45.4211844" lon="10.485451"><ele>139.0</ele><time>2026-03-29T08:32:05.987Z</time></trkpt><trkpt lat="45.4213041" lon="10.4854684"><ele>139.0</ele><time>2026-03-29T08:32:06.987Z</time></trkpt><trkpt lat="45.4214546" lon="10.4855206"><ele>139.0</ele><time>2026-03-29T08:32:07.987Z</time></trkpt><trkpt lat="45.4215898" lon="10.4855514"><ele>139.0</ele><time>2026-03-29T08:32:08.988Z</time></trkpt><trkpt lat="45.4217259" lon="10.4855936"><ele>139.25</ele><time>2026-03-29T08:32:09.988Z</time></trkpt><trkpt lat="45.4218721" lon="10.4856618"><ele>139.5</ele><time>2026-03-29T08:32:10.989Z</time></trkpt><trkpt lat="45.4219748" lon="10.4857242"><ele>139.75</ele><time>2026-03-29T08:32:11.987Z</time></trkpt><trkpt lat="45.4220813" lon="10.4857996"><ele>140.0</ele><time>2026-03-29T08:32:12.988Z</time></trkpt><trkpt lat="45.4221747" lon="10.4858967"><ele>140.5</ele><time>2026-03-29T08:32:13.988Z</time></trkpt><trkpt lat="45.4222616" lon="10.4860254"><ele>141.0</ele><time>2026-03-29T08:32:14.989Z</time></trkpt><trkpt lat="45.4223366" lon="10.486161"><ele>141.5</ele><time>2026-03-29T08:32:15.988Z</time></trkpt><trkpt lat="45.4223894" lon="10.4863223"><ele>142.0</ele><time>2026-03-29T08:32:16.988Z</time></trkpt><trkpt lat="45.4224268" lon="10.4865005"><ele>142.5</ele><time>2026-03-29T08:32:17.987Z</time></trkpt><trkpt lat="45.4224539" lon="10.4866833"><ele>143.0</ele><time>2026-03-29T08:32:18.987Z</time></trkpt><trkpt lat="45.4224261" lon="10.4868898"><ele>143.5</ele><time>2026-03-29T08:32:19.987Z</time></trkpt><trkpt lat="45.4224026" lon="10.4871041"><ele>144.0</ele><time>2026-03-29T08:32:20.988Z</time></trkpt><trkpt lat="45.4223928" lon="10.4873127"><ele>144.75</ele><time>2026-03-29T08:32:21.988Z</time></trkpt><trkpt lat="45.4224103" lon="10.4875249"><ele>145.5</ele><time>2026-03-29T08:32:22.987Z</time></trkpt><trkpt lat="45.4224382" lon="10.4877332"><ele>146.25</ele><time>2026-03-29T08:32:23.988Z</time></trkpt><trkpt lat="45.4224913" lon="10.487912"><ele>147.0</ele><time>2026-03-29T08:32:24.987Z</time></trkpt><trkpt lat="45.4225565" lon="10.4880708"><ele>147.75</ele><time>2026-03-29T08:32:25.987Z</time></trkpt><trkpt lat="45.4226421" lon="10.4882096"><ele>148.5</ele><time>2026-03-29T08:32:26.988Z</time></trkpt><trkpt lat="45.4227363" lon="10.4883525"><ele>149.25</ele><time>2026-03-29T08:32:27.987Z</time></trkpt><trkpt lat="45.4228973" lon="10.488465"><ele>150.0</ele><time>2026-03-29T08:32:28.989Z</time></trkpt><trkpt lat="45.4230318" lon="10.488586"><ele>150.0</ele><time>2026-03-29T08:32:29.988Z</time></trkpt><trkpt lat="45.4231629" lon="10.4886998"><ele>150.0</ele><time>2026-03-29T08:32:30.987Z</time></trkpt><trkpt lat="45.423298" lon="10.488808"><ele>150.0</ele><time>2026-03-29T08:32:31.987Z</time></trkpt><trkpt lat="45.4234343" lon="10.4889183"><ele>151.0</ele><time>2026-03-29T08:32:32.987Z</time></trkpt><trkpt lat="45.4235696" lon="10.489035"><ele>152.0</ele><time>2026-03-29T08:32:33.987Z</time></trkpt><trkpt lat="45.4236956" lon="10.4891582"><ele>153.0</ele><time>2026-03-29T08:32:34.988Z</time></trkpt><trkpt lat="45.423824" lon="10.4893076"><ele>153.0</ele><time>2026-03-29T08:32:35.988Z</time></trkpt><trkpt lat="45.4239506" lon="10.4894792"><ele>153.0</ele><time>2026-03-29T08:32:36.988Z</time></trkpt><trkpt lat="45.424081" lon="10.4896521"><ele>153.0</ele><time>2026-03-29T08:32:37.988Z</time></trkpt><trkpt lat="45.4242219" lon="10.489833"><ele>152.66666666666666</ele><time>2026-03-29T08:32:38.987Z</time></trkpt><trkpt lat="45.4243589" lon="10.4900029"><ele>152.33333333333331</ele><time>2026-03-29T08:32:39.987Z</time></trkpt><trkpt lat="45.4244991" lon="10.4901841"><ele>152.0</ele><time>2026-03-29T08:32:40.988Z</time></trkpt><trkpt lat="45.4246314" lon="10.4903541"><ele>153.25</ele><time>2026-03-29T08:32:41.987Z</time></trkpt><trkpt lat="45.4247503" lon="10.4905087"><ele>154.5</ele><time>2026-03-29T08:32:42.988Z</time></trkpt><trkpt lat="45.4248584" lon="10.4906442"><ele>155.75</ele><time>2026-03-29T08:32:43.988Z</time></trkpt><trkpt lat="45.4249402" lon="10.4907724"><ele>157.0</ele><time>2026-03-29T08:32:44.988Z</time></trkpt><trkpt lat="45.4249984" lon="10.4909014"><ele>157.0</ele><time>2026-03-29T08:32:45.988Z</time></trkpt><trkpt lat="45.4250381" lon="10.4910474"><ele>157.0</ele><time>2026-03-29T08:32:46.988Z</time></trkpt><trkpt lat="45.4250544" lon="10.4911786"><ele>157.0</ele><time>2026-03-29T08:32:47.988Z</time></trkpt><trkpt lat="45.4250545" lon="10.4913423"><ele>157.0</ele><time>2026-03-29T08:32:48.988Z</time></trkpt><trkpt lat="45.4250556" lon="10.4915327"><ele>156.0</ele><time>2026-03-29T08:32:49.987Z</time></trkpt><trkpt lat="45.4250309" lon="10.4917299"><ele>155.0</ele><time>2026-03-29T08:32:50.988Z</time></trkpt><trkpt lat="45.4250258" lon="10.4919349"><ele>154.0</ele><time>2026-03-29T08:32:51.988Z</time></trkpt><trkpt lat="45.4250238" lon="10.4921313"><ele>153.0</ele><time>2026-03-29T08:32:52.988Z</time></trkpt><trkpt lat="45.4250314" lon="10.4923074"><ele>152.0</ele><time>2026-03-29T08:32:53.988Z</time></trkpt><trkpt lat="45.4250463" lon="10.4924536"><ele>151.0</ele><time>2026-03-29T08:32:54.989Z</time></trkpt><trkpt lat="45.4250761" lon="10.4925841"><ele>150.0</ele><time>2026-03-29T08:32:55.987Z</time></trkpt><trkpt lat="45.4251287" lon="10.4927038"><ele>149.0</ele><time>2026-03-29T08:32:56.988Z</time></trkpt><trkpt lat="45.4252086" lon="10.4928008"><ele>148.0</ele><time>2026-03-29T08:32:57.988Z</time></trkpt><trkpt lat="45.4253132" lon="10.4928861"><ele>147.0</ele><time>2026-03-29T08:32:58.987Z</time></trkpt><trkpt lat="45.4254391" lon="10.4929704"><ele>146.0</ele><time>2026-03-29T08:32:59.987Z</time></trkpt><trkpt lat="45.4255746" lon="10.4930544"><ele>145.0</ele><time>2026-03-29T08:33:00.987Z</time></trkpt><trkpt lat="45.4257315" lon="10.4931541"><ele>145.0</ele><time>2026-03-29T08:33:01.988Z</time></trkpt><trkpt lat="45.4258826" lon="10.4932511"><ele>145.0</ele><time>2026-03-29T08:33:02.988Z</time></trkpt><trkpt lat="45.4260343" lon="10.4933431"><ele>145.0</ele><time>2026-03-29T08:33:03.987Z</time></trkpt><trkpt lat="45.4261906" lon="10.4934311"><ele>144.0</ele><time>2026-03-29T08:33:04.988Z</time></trkpt><trkpt lat="45.4263454" lon="10.4935317"><ele>143.0</ele><time>2026-03-29T08:33:05.987Z</time></trkpt><trkpt lat="45.4265033" lon="10.493653"><ele>142.0</ele><time>2026-03-29T08:33:06.987Z</time></trkpt><trkpt lat="45.4266497" lon="10.4937747"><ele>142.0</ele><time>2026-03-29T08:33:07.988Z</time></trkpt><trkpt lat="45.4267781" lon="10.4938826"><ele>142.0</ele><time>2026-03-29T08:33:08.988Z</time></trkpt><trkpt lat="45.4268993" lon="10.4939835"><ele>142.0</ele><time>2026-03-29T08:33:09.988Z</time></trkpt><trkpt lat="45.4269918" lon="10.494047"><ele>142.0</ele><time>2026-03-29T08:33:10.988Z</time></trkpt><trkpt lat="45.4270862" lon="10.4940873"><ele>142.75</ele><time>2026-03-29T08:33:11.988Z</time></trkpt><trkpt lat="45.4271916" lon="10.4940942"><ele>143.5</ele><time>2026-03-29T08:33:12.988Z</time></trkpt><trkpt lat="45.427318" lon="10.494077"><ele>144.25</ele><time>2026-03-29T08:33:13.988Z</time></trkpt><trkpt lat="45.4274597" lon="10.4940632"><ele>145.0</ele><time>2026-03-29T08:33:14.988Z</time></trkpt><trkpt lat="45.4276113" lon="10.4940461"><ele>145.0</ele><time>2026-03-29T08:33:15.987Z</time></trkpt><trkpt lat="45.4277603" lon="10.4940262"><ele>145.0</ele><time>2026-03-29T08:33:16.989Z</time></trkpt><trkpt lat="45.4279136" lon="10.4940133"><ele>145.0</ele><time>2026-03-29T08:33:17.987Z</time></trkpt><trkpt lat="45.4280695" lon="10.4940095"><ele>145.75</ele><time>2026-03-29T08:33:18.988Z</time></trkpt><trkpt lat="45.4282196" lon="10.4940275"><ele>146.5</ele><time>2026-03-29T08:33:19.988Z</time></trkpt><trkpt lat="45.4283533" lon="10.4940744"><ele>147.25</ele><time>2026-03-29T08:33:20.988Z</time></trkpt><trkpt lat="45.4284943" lon="10.4941469"><ele>148.0</ele><time>2026-03-29T08:33:21.988Z</time></trkpt><trkpt lat="45.4286475" lon="10.4942474"><ele>148.66666666666669</ele><time>2026-03-29T08:33:22.988Z</time></trkpt><trkpt lat="45.4288229" lon="10.4943477"><ele>149.33333333333334</ele><time>2026-03-29T08:33:23.987Z</time></trkpt><trkpt lat="45.429012" lon="10.4944584"><ele>150.0</ele><time>2026-03-29T08:33:24.988Z</time></trkpt><trkpt lat="45.4291918" lon="10.494562"><ele>148.0</ele><time>2026-03-29T08:33:25.988Z</time></trkpt><trkpt lat="45.4293466" lon="10.494655"><ele>146.0</ele><time>2026-03-29T08:33:26.988Z</time></trkpt><trkpt lat="45.429487" lon="10.4947568"><ele>144.0</ele><time>2026-03-29T08:33:27.987Z</time></trkpt><trkpt lat="45.4296304" lon="10.4948822"><ele>148.0</ele><time>2026-03-29T08:33:28.988Z</time></trkpt><trkpt lat="45.4297724" lon="10.4950314"><ele>152.0</ele><time>2026-03-29T08:33:29.988Z</time></trkpt><trkpt lat="45.429909" lon="10.4951811"><ele>156.0</ele><time>2026-03-29T08:33:30.988Z</time></trkpt><trkpt lat="45.4300238" lon="10.4953196"><ele>154.5</ele><time>2026-03-29T08:33:31.988Z</time></trkpt><trkpt lat="45.4301263" lon="10.4954688"><ele>153.0</ele><time>2026-03-29T08:33:32.988Z</time></trkpt><trkpt lat="45.4302071" lon="10.4956275"><ele>151.5</ele><time>2026-03-29T08:33:33.988Z</time></trkpt><trkpt lat="45.4302773" lon="10.4958065"><ele>150.0</ele><time>2026-03-29T08:33:34.988Z</time></trkpt><trkpt lat="45.4303514" lon="10.4959757"><ele>150.0</ele><time>2026-03-29T08:33:35.987Z</time></trkpt><trkpt lat="45.4304333" lon="10.4961391"><ele>150.0</ele><time>2026-03-29T08:33:36.988Z</time></trkpt><trkpt lat="45.4305151" lon="10.4962835"><ele>150.0</ele><time>2026-03-29T08:33:37.988Z</time></trkpt><trkpt lat="45.4306167" lon="10.4964254"><ele>150.0</ele><time>2026-03-29T08:33:38.988Z</time></trkpt><trkpt lat="45.4307439" lon="10.4965603"><ele>152.66666666666666</ele><time>2026-03-29T08:33:39.988Z</time></trkpt><trkpt lat="45.4308929" lon="10.4967023"><ele>155.33333333333331</ele><time>2026-03-29T08:33:40.988Z</time></trkpt><trkpt lat="45.4310492" lon="10.4968389"><ele>158.0</ele><time>2026-03-29T08:33:41.988Z</time></trkpt><trkpt lat="45.4311699" lon="10.4969546"><ele>158.0</ele><time>2026-03-29T08:33:42.988Z</time></trkpt><trkpt lat="45.4312673" lon="10.4970639"><ele>158.0</ele><time>2026-03-29T08:33:43.988Z</time></trkpt><trkpt lat="45.4313411" lon="10.4971755"><ele>158.0</ele><time>2026-03-29T08:33:44.987Z</time></trkpt><trkpt lat="45.431406" lon="10.4973107"><ele>158.0</ele><time>2026-03-29T08:33:45.987Z</time></trkpt><trkpt lat="45.4314595" lon="10.4974676"><ele>157.5</ele><time>2026-03-29T08:33:46.988Z</time></trkpt><trkpt lat="45.4315171" lon="10.4976218"><ele>157.0</ele><time>2026-03-29T08:33:47.988Z</time></trkpt><trkpt lat="45.431575" lon="10.4977765"><ele>156.5</ele><time>2026-03-29T08:33:48.987Z</time></trkpt><trkpt lat="45.4316285" lon="10.4979307"><ele>156.0</ele><time>2026-03-29T08:33:49.988Z</time></trkpt><trkpt lat="45.4316725" lon="10.498083"><ele>154.5</ele><time>2026-03-29T08:33:50.988Z</time></trkpt><trkpt lat="45.4317079" lon="10.4982422"><ele>153.0</ele><time>2026-03-29T08:33:51.987Z</time></trkpt><trkpt lat="45.4317344" lon="10.4984056"><ele>151.5</ele><time>2026-03-29T08:33:52.988Z</time></trkpt><trkpt lat="45.4317462" lon="10.4985703"><ele>150.0</ele><time>2026-03-29T08:33:53.988Z</time></trkpt><trkpt lat="45.4317387" lon="10.498743"><ele>150.0</ele><time>2026-03-29T08:33:54.988Z</time></trkpt><trkpt lat="45.4317295" lon="10.4989162"><ele>150.0</ele><time>2026-03-29T08:33:55.988Z</time></trkpt><trkpt lat="45.4317121" lon="10.4990953"><ele>150.0</ele><time>2026-03-29T08:33:56.988Z</time></trkpt><trkpt lat="45.431694" lon="10.4992734"><ele>150.0</ele><time>2026-03-29T08:33:57.988Z</time></trkpt><trkpt lat="45.4316689" lon="10.499453"><ele>150.0</ele><time>2026-03-29T08:33:58.988Z</time></trkpt><trkpt lat="45.4316407" lon="10.4996274"><ele>150.0</ele><time>2026-03-29T08:33:59.988Z</time></trkpt><trkpt lat="45.4316112" lon="10.4998052"><ele>150.0</ele><time>2026-03-29T08:34:00.988Z</time></trkpt><trkpt lat="45.4315829" lon="10.4999813"><ele>150.0</ele><time>2026-03-29T08:34:01.988Z</time></trkpt><trkpt lat="45.4315537" lon="10.5001581"><ele>150.0</ele><time>2026-03-29T08:34:02.988Z</time></trkpt><trkpt lat="45.4315227" lon="10.5003311"><ele>150.0</ele><time>2026-03-29T08:34:03.988Z</time></trkpt><trkpt lat="45.4314874" lon="10.5005071"><ele>150.0</ele><time>2026-03-29T08:34:04.988Z</time></trkpt><trkpt lat="45.431451" lon="10.5006854"><ele>150.0</ele><time>2026-03-29T08:34:05.987Z</time></trkpt><trkpt lat="45.4314184" lon="10.5008709"><ele>149.5</ele><time>2026-03-29T08:34:06.987Z</time></trkpt><trkpt lat="45.4313875" lon="10.5010575"><ele>149.0</ele><time>2026-03-29T08:34:07.988Z</time></trkpt><trkpt lat="45.4313603" lon="10.5012437"><ele>148.5</ele><time>2026-03-29T08:34:08.988Z</time></trkpt><trkpt lat="45.4313285" lon="10.5014286"><ele>148.0</ele><time>2026-03-29T08:34:09.988Z</time></trkpt><trkpt lat="45.4312992" lon="10.5016034"><ele>147.83333333333334</ele><time>2026-03-29T08:34:10.987Z</time></trkpt><trkpt lat="45.4312697" lon="10.5017593"><ele>147.66666666666669</ele><time>2026-03-29T08:34:11.988Z</time></trkpt><trkpt lat="45.4312394" lon="10.5018728"><ele>147.5</ele><time>2026-03-29T08:34:12.988Z</time></trkpt><trkpt lat="45.4312058" lon="10.5019496"><ele>147.33333333333334</ele><time>2026-03-29T08:34:13.988Z</time></trkpt><trkpt lat="45.4311312" lon="10.5019946"><ele>147.16666666666666</ele><time>2026-03-29T08:34:15.987Z</time></trkpt><trkpt lat="45.4310525" lon="10.5019356"><ele>147.0</ele><time>2026-03-29T08:34:17.988Z</time></trkpt><trkpt lat="45.430991" lon="10.5018645"><ele>147.0</ele><time>2026-03-29T08:34:18.988Z</time></trkpt><trkpt lat="45.4309168" lon="10.5017801"><ele>147.0</ele><time>2026-03-29T08:34:19.987Z</time></trkpt><trkpt lat="45.4308321" lon="10.5016886"><ele>147.0</ele><time>2026-03-29T08:34:20.988Z</time></trkpt><trkpt lat="45.4307479" lon="10.5016025"><ele>147.0</ele><time>2026-03-29T08:34:21.988Z</time></trkpt><trkpt lat="45.4306705" lon="10.5015245"><ele>147.0</ele><time>2026-03-29T08:34:22.987Z</time></trkpt><trkpt lat="45.4305942" lon="10.5014499"><ele>147.0</ele><time>2026-03-29T08:34:23.987Z</time></trkpt><trkpt lat="45.4305206" lon="10.5013806"><ele>147.0</ele><time>2026-03-29T08:34:24.988Z</time></trkpt><trkpt lat="45.4304465" lon="10.5013079"><ele>147.0</ele><time>2026-03-29T08:34:25.987Z</time></trkpt><trkpt lat="45.4303799" lon="10.5012404"><ele>147.0</ele><time>2026-03-29T08:34:26.988Z</time></trkpt><trkpt lat="45.4303098" lon="10.5011738"><ele>147.0</ele><time>2026-03-29T08:34:27.988Z</time></trkpt><trkpt lat="45.4302399" lon="10.5011021"><ele>147.0</ele><time>2026-03-29T08:34:28.988Z</time></trkpt><trkpt lat="45.4301682" lon="10.501029"><ele>146.6</ele><time>2026-03-29T08:34:29.988Z</time></trkpt><trkpt lat="45.4300927" lon="10.5009557"><ele>146.2</ele><time>2026-03-29T08:34:30.988Z</time></trkpt><trkpt lat="45.4300174" lon="10.5008809"><ele>145.8</ele><time>2026-03-29T08:34:31.988Z</time></trkpt><trkpt lat="45.429936" lon="10.5008029"><ele>145.4</ele><time>2026-03-29T08:34:32.987Z</time></trkpt><trkpt lat="45.42987" lon="10.5007475"><ele>145.0</ele><time>2026-03-29T08:34:33.987Z</time></trkpt><trkpt lat="45.4297658" lon="10.5007495"><ele>145.0</ele><time>2026-03-29T08:34:35.988Z</time></trkpt><trkpt lat="45.4297061" lon="10.5008244"><ele>145.0</ele><time>2026-03-29T08:34:36.988Z</time></trkpt><trkpt lat="45.4296477" lon="10.5009178"><ele>145.0</ele><time>2026-03-29T08:34:37.989Z</time></trkpt><trkpt lat="45.4295854" lon="10.5010491"><ele>145.0</ele><time>2026-03-29T08:34:38.988Z</time></trkpt><trkpt lat="45.4295125" lon="10.5011881"><ele>145.0</ele><time>2026-03-29T08:34:39.987Z</time></trkpt><trkpt lat="45.4294276" lon="10.5013275"><ele>146.5</ele><time>2026-03-29T08:34:40.987Z</time></trkpt><trkpt lat="45.4293307" lon="10.5014663"><ele>148.0</ele><time>2026-03-29T08:34:41.989Z</time></trkpt><trkpt lat="45.4292394" lon="10.5015799"><ele>149.5</ele><time>2026-03-29T08:34:42.988Z</time></trkpt><trkpt lat="45.429157" lon="10.5016964"><ele>151.0</ele><time>2026-03-29T08:34:43.988Z</time></trkpt><trkpt lat="45.4290812" lon="10.5018272"><ele>151.0</ele><time>2026-03-29T08:34:44.988Z</time></trkpt><trkpt lat="45.4290297" lon="10.501965"><ele>151.0</ele><time>2026-03-29T08:34:45.988Z</time></trkpt><trkpt lat="45.4290037" lon="10.5021123"><ele>151.0</ele><time>2026-03-29T08:34:46.987Z</time></trkpt><trkpt lat="45.4289479" lon="10.5022744"><ele>151.0</ele><time>2026-03-29T08:34:47.987Z</time></trkpt><trkpt lat="45.4289045" lon="10.5024364"><ele>151.2</ele><time>2026-03-29T08:34:48.988Z</time></trkpt><trkpt lat="45.4288554" lon="10.5025832"><ele>151.39999999999998</ele><time>2026-03-29T08:34:49.988Z</time></trkpt><trkpt lat="45.428802" lon="10.5027178"><ele>151.6</ele><time>2026-03-29T08:34:50.988Z</time></trkpt><trkpt lat="45.4287538" lon="10.5028238"><ele>151.79999999999998</ele><time>2026-03-29T08:34:51.988Z</time></trkpt><trkpt lat="45.4287011" lon="10.5029302"><ele>152.0</ele><time>2026-03-29T08:34:52.988Z</time></trkpt><trkpt lat="45.4286411" lon="10.5029995"><ele>151.6</ele><time>2026-03-29T08:34:53.988Z</time></trkpt><trkpt lat="45.4285555" lon="10.5030608"><ele>151.2</ele><time>2026-03-29T08:34:54.988Z</time></trkpt><trkpt lat="45.4284631" lon="10.5031218"><ele>150.8</ele><time>2026-03-29T08:34:55.987Z</time></trkpt><trkpt lat="45.4283759" lon="10.5031793"><ele>150.4</ele><time>2026-03-29T08:34:56.987Z</time></trkpt><trkpt lat="45.4283009" lon="10.5032449"><ele>150.0</ele><time>2026-03-29T08:34:57.988Z</time></trkpt><trkpt lat="45.428241" lon="10.5033371"><ele>150.0</ele><time>2026-03-29T08:34:58.988Z</time></trkpt><trkpt lat="45.428187" lon="10.5034356"><ele>150.0</ele><time>2026-03-29T08:34:59.987Z</time></trkpt><trkpt lat="45.4281288" lon="10.5035382"><ele>150.0</ele><time>2026-03-29T08:35:00.988Z</time></trkpt><trkpt lat="45.4280756" lon="10.50364"><ele>150.0</ele><time>2026-03-29T08:35:01.989Z</time></trkpt><trkpt lat="45.428017" lon="10.5037148"><ele>150.0</ele><time>2026-03-29T08:35:02.988Z</time></trkpt><trkpt lat="45.4279148" lon="10.5037768"><ele>147.8</ele><time>2026-03-29T08:35:04.988Z</time></trkpt><trkpt lat="45.4278439" lon="10.5038092"><ele>145.6</ele><time>2026-03-29T08:35:05.987Z</time></trkpt><trkpt lat="45.4277808" lon="10.5038378"><ele>143.4</ele><time>2026-03-29T08:35:06.988Z</time></trkpt><trkpt lat="45.4276766" lon="10.5039391"><ele>141.2</ele><time>2026-03-29T08:35:07.988Z</time></trkpt><trkpt lat="45.4275801" lon="10.5040099"><ele>139.0</ele><time>2026-03-29T08:35:08.988Z</time></trkpt><trkpt lat="45.4274802" lon="10.5040627"><ele>139.0</ele><time>2026-03-29T08:35:09.988Z</time></trkpt><trkpt lat="45.4273607" lon="10.5041122"><ele>139.0</ele><time>2026-03-29T08:35:10.987Z</time></trkpt><trkpt lat="45.4272367" lon="10.5041356"><ele>139.0</ele><time>2026-03-29T08:35:11.987Z</time></trkpt><trkpt lat="45.427119" lon="10.5041007"><ele>139.0</ele><time>2026-03-29T08:35:12.988Z</time></trkpt><trkpt lat="45.4270097" lon="10.5040942"><ele>139.2</ele><time>2026-03-29T08:35:13.987Z</time></trkpt><trkpt lat="45.426895" lon="10.5040849"><ele>139.4</ele><time>2026-03-29T08:35:14.987Z</time></trkpt><trkpt lat="45.4267825" lon="10.504086"><ele>139.6</ele><time>2026-03-29T08:35:15.987Z</time></trkpt><trkpt lat="45.4266828" lon="10.5040927"><ele>139.8</ele><time>2026-03-29T08:35:16.987Z</time></trkpt><trkpt lat="45.4265805" lon="10.5041235"><ele>140.0</ele><time>2026-03-29T08:35:17.988Z</time></trkpt><trkpt lat="45.4264769" lon="10.5041797"><ele>140.0</ele><time>2026-03-29T08:35:18.988Z</time></trkpt><trkpt lat="45.4263617" lon="10.5042681"><ele>140.0</ele><time>2026-03-29T08:35:19.987Z</time></trkpt><trkpt lat="45.4262363" lon="10.5043809"><ele>140.0</ele><time>2026-03-29T08:35:20.987Z</time></trkpt><trkpt lat="45.4261155" lon="10.5044903"><ele>140.0</ele><time>2026-03-29T08:35:21.987Z</time></trkpt><trkpt lat="45.4260034" lon="10.5045933"><ele>137.8</ele><time>2026-03-29T08:35:22.988Z</time></trkpt><trkpt lat="45.4259002" lon="10.5046878"><ele>135.6</ele><time>2026-03-29T08:35:23.987Z</time></trkpt><trkpt lat="45.4258049" lon="10.5047691"><ele>133.4</ele><time>2026-03-29T08:35:24.988Z</time></trkpt><trkpt lat="45.4257301" lon="10.50483"><ele>131.2</ele><time>2026-03-29T08:35:25.987Z</time></trkpt><trkpt lat="45.4256735" lon="10.5048835"><ele>129.0</ele><time>2026-03-29T08:35:26.987Z</time></trkpt><trkpt lat="45.4256147" lon="10.5049443"><ele>129.0</ele><time>2026-03-29T08:35:28.987Z</time></trkpt><trkpt lat="45.4257178" lon="10.5049781"><ele>129.0</ele><time>2026-03-29T08:35:32.987Z</time></trkpt><trkpt lat="45.4257933" lon="10.5049584"><ele>129.0</ele><time>2026-03-29T08:35:33.988Z</time></trkpt><trkpt lat="45.4258744" lon="10.504931"><ele>129.0</ele><time>2026-03-29T08:35:34.988Z</time></trkpt><trkpt lat="45.4259705" lon="10.5049095"><ele>129.0</ele><time>2026-03-29T08:35:35.988Z</time></trkpt><trkpt lat="45.4260752" lon="10.5048896"><ele>129.0</ele><time>2026-03-29T08:35:36.988Z</time></trkpt><trkpt lat="45.4261901" lon="10.5048502"><ele>129.0</ele><time>2026-03-29T08:35:37.988Z</time></trkpt><trkpt lat="45.4263071" lon="10.5047874"><ele>129.0</ele><time>2026-03-29T08:35:38.987Z</time></trkpt><trkpt lat="45.426432" lon="10.5047275"><ele>129.0</ele><time>2026-03-29T08:35:39.988Z</time></trkpt><trkpt lat="45.4265644" lon="10.504693"><ele>128.75</ele><time>2026-03-29T08:35:40.988Z</time></trkpt><trkpt lat="45.4266993" lon="10.5046732"><ele>128.5</ele><time>2026-03-29T08:35:41.987Z</time></trkpt><trkpt lat="45.4268352" lon="10.5046728"><ele>128.25</ele><time>2026-03-29T08:35:42.987Z</time></trkpt><trkpt lat="45.4269729" lon="10.5046798"><ele>128.0</ele><time>2026-03-29T08:35:43.988Z</time></trkpt><trkpt lat="45.4271051" lon="10.5046929"><ele>128.5</ele><time>2026-03-29T08:35:44.988Z</time></trkpt><trkpt lat="45.427235" lon="10.5047033"><ele>129.0</ele><time>2026-03-29T08:35:45.988Z</time></trkpt><trkpt lat="45.4273444" lon="10.5047081"><ele>129.5</ele><time>2026-03-29T08:35:46.988Z</time></trkpt><trkpt lat="45.427461" lon="10.5047123"><ele>130.0</ele><time>2026-03-29T08:35:47.987Z</time></trkpt><trkpt lat="45.4275722" lon="10.5047727"><ele>130.0</ele><time>2026-03-29T08:35:48.987Z</time></trkpt><trkpt lat="45.427681" lon="10.5048188"><ele>130.0</ele><time>2026-03-29T08:35:49.988Z</time></trkpt><trkpt lat="45.4277874" lon="10.5048623"><ele>130.0</ele><time>2026-03-29T08:35:50.988Z</time></trkpt><trkpt lat="45.4278722" lon="10.5048991"><ele>130.0</ele><time>2026-03-29T08:35:51.988Z</time></trkpt><trkpt lat="45.4279517" lon="10.5049297"><ele>130.0</ele><time>2026-03-29T08:35:52.988Z</time></trkpt><trkpt lat="45.4280311" lon="10.5049663"><ele>130.8</ele><time>2026-03-29T08:35:53.988Z</time></trkpt><trkpt lat="45.4281175" lon="10.5050009"><ele>131.6</ele><time>2026-03-29T08:35:54.988Z</time></trkpt><trkpt lat="45.4282162" lon="10.5050567"><ele>132.4</ele><time>2026-03-29T08:35:55.988Z</time></trkpt><trkpt lat="45.4283282" lon="10.5051235"><ele>133.2</ele><time>2026-03-29T08:35:56.988Z</time></trkpt><trkpt lat="45.4284516" lon="10.5051864"><ele>134.0</ele><time>2026-03-29T08:35:57.988Z</time></trkpt><trkpt lat="45.4285884" lon="10.5052468"><ele>134.0</ele><time>2026-03-29T08:35:58.987Z</time></trkpt><trkpt lat="45.4287292" lon="10.5053089"><ele>134.0</ele><time>2026-03-29T08:35:59.988Z</time></trkpt><trkpt lat="45.4288727" lon="10.5053687"><ele>134.0</ele><time>2026-03-29T08:36:00.988Z</time></trkpt><trkpt lat="45.4290139" lon="10.5054331"><ele>134.0</ele><time>2026-03-29T08:36:01.987Z</time></trkpt><trkpt lat="45.4291573" lon="10.5055015"><ele>133.5</ele><time>2026-03-29T08:36:02.987Z</time></trkpt><trkpt lat="45.4293026" lon="10.5055683"><ele>133.0</ele><time>2026-03-29T08:36:03.989Z</time></trkpt><trkpt lat="45.4294441" lon="10.5056397"><ele>132.5</ele><time>2026-03-29T08:36:04.988Z</time></trkpt><trkpt lat="45.4295758" lon="10.5057159"><ele>132.0</ele><time>2026-03-29T08:36:05.988Z</time></trkpt><trkpt lat="45.4296983" lon="10.5058041"><ele>133.5</ele><time>2026-03-29T08:36:06.988Z</time></trkpt><trkpt lat="45.4298142" lon="10.5059111"><ele>135.0</ele><time>2026-03-29T08:36:07.988Z</time></trkpt><trkpt lat="45.4299366" lon="10.506016"><ele>136.5</ele><time>2026-03-29T08:36:08.988Z</time></trkpt><trkpt lat="45.4300674" lon="10.5061086"><ele>138.0</ele><time>2026-03-29T08:36:09.987Z</time></trkpt><trkpt lat="45.4302094" lon="10.5061755"><ele>138.0</ele><time>2026-03-29T08:36:10.987Z</time></trkpt><trkpt lat="45.4303529" lon="10.5062222"><ele>138.0</ele><time>2026-03-29T08:36:11.987Z</time></trkpt><trkpt lat="45.430501" lon="10.5062531"><ele>138.0</ele><time>2026-03-29T08:36:12.987Z</time></trkpt><trkpt lat="45.4306503" lon="10.5062654"><ele>138.0</ele><time>2026-03-29T08:36:13.987Z</time></trkpt><trkpt lat="45.4308029" lon="10.5062702"><ele>137.0</ele><time>2026-03-29T08:36:14.988Z</time></trkpt><trkpt lat="45.4309536" lon="10.5062818"><ele>136.0</ele><time>2026-03-29T08:36:15.988Z</time></trkpt><trkpt lat="45.4311064" lon="10.5062963"><ele>135.0</ele><time>2026-03-29T08:36:16.988Z</time></trkpt><trkpt lat="45.4312581" lon="10.5063184"><ele>135.75</ele><time>2026-03-29T08:36:17.988Z</time></trkpt><trkpt lat="45.4314016" lon="10.5063434"><ele>136.5</ele><time>2026-03-29T08:36:18.988Z</time></trkpt><trkpt lat="45.4315352" lon="10.506364"><ele>137.25</ele><time>2026-03-29T08:36:19.988Z</time></trkpt><trkpt lat="45.4316483" lon="10.5063773"><ele>138.0</ele><time>2026-03-29T08:36:20.987Z</time></trkpt><trkpt lat="45.4317426" lon="10.5063905"><ele>138.0</ele><time>2026-03-29T08:36:21.988Z</time></trkpt><trkpt lat="45.4318154" lon="10.5064143"><ele>138.0</ele><time>2026-03-29T08:36:22.987Z</time></trkpt><trkpt lat="45.4318805" lon="10.5065339"><ele>138.0</ele><time>2026-03-29T08:36:24.988Z</time></trkpt><trkpt lat="45.4318767" lon="10.506625"><ele>138.0</ele><time>2026-03-29T08:36:25.988Z</time></trkpt><trkpt lat="45.4318393" lon="10.5067324"><ele>138.0</ele><time>2026-03-29T08:36:26.988Z</time></trkpt><trkpt lat="45.4317678" lon="10.5068549"><ele>138.0</ele><time>2026-03-29T08:36:27.988Z</time></trkpt><trkpt lat="45.4316881" lon="10.5069914"><ele>139.0</ele><time>2026-03-29T08:36:28.988Z</time></trkpt><trkpt lat="45.4315946" lon="10.5071277"><ele>140.0</ele><time>2026-03-29T08:36:29.988Z</time></trkpt><trkpt lat="45.4314665" lon="10.5072446"><ele>141.0</ele><time>2026-03-29T08:36:30.987Z</time></trkpt><trkpt lat="45.4313102" lon="10.5073372"><ele>138.66666666666666</ele><time>2026-03-29T08:36:31.988Z</time></trkpt><trkpt lat="45.4311445" lon="10.5074391"><ele>136.33333333333331</ele><time>2026-03-29T08:36:32.988Z</time></trkpt><trkpt lat="45.4309755" lon="10.507566"><ele>134.0</ele><time>2026-03-29T08:36:33.987Z</time></trkpt><trkpt lat="45.4308124" lon="10.5077066"><ele>134.0</ele><time>2026-03-29T08:36:34.987Z</time></trkpt><trkpt lat="45.4306549" lon="10.5078529"><ele>134.0</ele><time>2026-03-29T08:36:35.987Z</time></trkpt><trkpt lat="45.4305059" lon="10.5080076"><ele>134.0</ele><time>2026-03-29T08:36:36.987Z</time></trkpt><trkpt lat="45.4303615" lon="10.5081507"><ele>132.0</ele><time>2026-03-29T08:36:37.989Z</time></trkpt><trkpt lat="45.4302125" lon="10.508292"><ele>130.0</ele><time>2026-03-29T08:36:38.987Z</time></trkpt><trkpt lat="45.4300642" lon="10.5084377"><ele>128.0</ele><time>2026-03-29T08:36:39.988Z</time></trkpt><trkpt lat="45.4299239" lon="10.5086093"><ele>127.33333333333333</ele><time>2026-03-29T08:36:40.988Z</time></trkpt><trkpt lat="45.4297909" lon="10.5088097"><ele>126.66666666666666</ele><time>2026-03-29T08:36:41.988Z</time></trkpt><trkpt lat="45.4296715" lon="10.5090374"><ele>126.0</ele><time>2026-03-29T08:36:42.988Z</time></trkpt><trkpt lat="45.4295612" lon="10.509274"><ele>125.66666666666666</ele><time>2026-03-29T08:36:43.989Z</time></trkpt><trkpt lat="45.4294543" lon="10.5095175"><ele>125.33333333333333</ele><time>2026-03-29T08:36:44.988Z</time></trkpt><trkpt lat="45.4293416" lon="10.5097495"><ele>125.0</ele><time>2026-03-29T08:36:45.988Z</time></trkpt><trkpt lat="45.4292341" lon="10.5099693"><ele>124.66666666666666</ele><time>2026-03-29T08:36:46.988Z</time></trkpt><trkpt lat="45.4291308" lon="10.5101831"><ele>124.33333333333334</ele><time>2026-03-29T08:36:47.987Z</time></trkpt><trkpt lat="45.4290317" lon="10.5103902"><ele>124.0</ele><time>2026-03-29T08:36:48.987Z</time></trkpt><trkpt lat="45.4289452" lon="10.5105806"><ele>123.75</ele><time>2026-03-29T08:36:49.987Z</time></trkpt><trkpt lat="45.4288719" lon="10.5107568"><ele>123.5</ele><time>2026-03-29T08:36:50.988Z</time></trkpt><trkpt lat="45.4288147" lon="10.5109175"><ele>123.25</ele><time>2026-03-29T08:36:51.987Z</time></trkpt><trkpt lat="45.4287739" lon="10.5110709"><ele>123.0</ele><time>2026-03-29T08:36:52.987Z</time></trkpt><trkpt lat="45.4287581" lon="10.5112255"><ele>122.25</ele><time>2026-03-29T08:36:53.988Z</time></trkpt><trkpt lat="45.4287629" lon="10.5114033"><ele>121.5</ele><time>2026-03-29T08:36:54.987Z</time></trkpt><trkpt lat="45.4287455" lon="10.5115889"><ele>120.75</ele><time>2026-03-29T08:36:55.987Z</time></trkpt><trkpt lat="45.4287174" lon="10.5117815"><ele>120.0</ele><time>2026-03-29T08:36:56.987Z</time></trkpt><trkpt lat="45.4286927" lon="10.5119762"><ele>121.0</ele><time>2026-03-29T08:36:57.987Z</time></trkpt><trkpt lat="45.428663" lon="10.5121859"><ele>122.0</ele><time>2026-03-29T08:36:58.987Z</time></trkpt><trkpt lat="45.4286319" lon="10.5124017"><ele>123.0</ele><time>2026-03-29T08:36:59.987Z</time></trkpt><trkpt lat="45.4285991" lon="10.5126242"><ele>123.0</ele><time>2026-03-29T08:37:00.988Z</time></trkpt><trkpt lat="45.4285672" lon="10.5128447"><ele>123.0</ele><time>2026-03-29T08:37:01.988Z</time></trkpt><trkpt lat="45.4285382" lon="10.5130606"><ele>123.0</ele><time>2026-03-29T08:37:02.988Z</time></trkpt><trkpt lat="45.4285103" lon="10.5132663"><ele>123.0</ele><time>2026-03-29T08:37:03.988Z</time></trkpt><trkpt lat="45.428483" lon="10.5134623"><ele>123.0</ele><time>2026-03-29T08:37:04.988Z</time></trkpt><trkpt lat="45.4284558" lon="10.5136526"><ele>123.0</ele><time>2026-03-29T08:37:05.988Z</time></trkpt><trkpt lat="45.4284332" lon="10.5138157"><ele>123.0</ele><time>2026-03-29T08:37:06.988Z</time></trkpt><trkpt lat="45.428411" lon="10.5139634"><ele>122.83333333333333</ele><time>2026-03-29T08:37:07.988Z</time></trkpt><trkpt lat="45.4283819" lon="10.5140849"><ele>122.66666666666666</ele><time>2026-03-29T08:37:08.988Z</time></trkpt><trkpt lat="45.4283365" lon="10.5141725"><ele>122.5</ele><time>2026-03-29T08:37:09.988Z</time></trkpt><trkpt lat="45.4282707" lon="10.5143"><ele>122.33333333333333</ele><time>2026-03-29T08:37:11.987Z</time></trkpt><trkpt lat="45.4282912" lon="10.5143861"><ele>122.16666666666666</ele><time>2026-03-29T08:37:12.987Z</time></trkpt><trkpt lat="45.4283169" lon="10.5144897"><ele>122.0</ele><time>2026-03-29T08:37:13.987Z</time></trkpt><trkpt lat="45.4283116" lon="10.5146182"><ele>122.0</ele><time>2026-03-29T08:37:14.988Z</time></trkpt><trkpt lat="45.4282983" lon="10.5147413"><ele>121.99999999999999</ele><time>2026-03-29T08:37:15.988Z</time></trkpt><trkpt lat="45.428279" lon="10.5148666"><ele>121.99999999999999</ele><time>2026-03-29T08:37:16.988Z</time></trkpt><trkpt lat="45.4282569" lon="10.5150055"><ele>122.0</ele><time>2026-03-29T08:37:17.988Z</time></trkpt><trkpt lat="45.4282372" lon="10.5151483"><ele>122.0</ele><time>2026-03-29T08:37:18.987Z</time></trkpt><trkpt lat="45.4282152" lon="10.5153073"><ele>122.19999999999999</ele><time>2026-03-29T08:37:19.988Z</time></trkpt><trkpt lat="45.4281901" lon="10.5154755"><ele>122.39999999999999</ele><time>2026-03-29T08:37:20.988Z</time></trkpt><trkpt lat="45.4281701" lon="10.515646"><ele>122.60000000000001</ele><time>2026-03-29T08:37:21.988Z</time></trkpt><trkpt lat="45.4281441" lon="10.5157896"><ele>122.80000000000001</ele><time>2026-03-29T08:37:22.988Z</time></trkpt><trkpt lat="45.4281034" lon="10.5159052"><ele>123.0</ele><time>2026-03-29T08:37:23.988Z</time></trkpt><trkpt lat="45.4280487" lon="10.5159763"><ele>122.83333333333333</ele><time>2026-03-29T08:37:24.988Z</time></trkpt><trkpt lat="45.4279331" lon="10.5160323"><ele>122.66666666666666</ele><time>2026-03-29T08:37:26.988Z</time></trkpt><trkpt lat="45.4278559" lon="10.5160253"><ele>122.5</ele><time>2026-03-29T08:37:27.988Z</time></trkpt><trkpt lat="45.4277725" lon="10.5159997"><ele>122.33333333333333</ele><time>2026-03-29T08:37:28.988Z</time></trkpt><trkpt lat="45.4276909" lon="10.5159665"><ele>122.16666666666666</ele><time>2026-03-29T08:37:29.988Z</time></trkpt><trkpt lat="45.4276144" lon="10.5159376"><ele>122.0</ele><time>2026-03-29T08:37:30.988Z</time></trkpt><trkpt lat="45.4275306" lon="10.5159045"><ele>121.99999999999999</ele><time>2026-03-29T08:37:31.988Z</time></trkpt><trkpt lat="45.427452" lon="10.5158512"><ele>122.0</ele><time>2026-03-29T08:37:32.987Z</time></trkpt><trkpt lat="45.4273896" lon="10.5157859"><ele>122.0</ele><time>2026-03-29T08:37:33.988Z</time></trkpt><trkpt lat="45.427338" lon="10.5157223"><ele>122.0</ele><time>2026-03-29T08:37:34.988Z</time></trkpt><trkpt lat="45.4272769" lon="10.5156342"><ele>121.99999999999999</ele><time>2026-03-29T08:37:36.987Z</time></trkpt><trkpt lat="45.4272396" lon="10.5155481"><ele>122.0</ele><time>2026-03-29T08:37:40.988Z</time></trkpt><trkpt lat="45.4272097" lon="10.5154616"><ele>121.99999999999999</ele><time>2026-03-29T08:37:41.988Z</time></trkpt><trkpt lat="45.4271613" lon="10.5153784"><ele>122.0</ele><time>2026-03-29T08:37:42.987Z</time></trkpt><trkpt lat="45.4270956" lon="10.5153409"><ele>122.0</ele><time>2026-03-29T08:37:43.988Z</time></trkpt><trkpt lat="45.4270198" lon="10.5153503"><ele>122.0</ele><time>2026-03-29T08:37:44.988Z</time></trkpt><trkpt lat="45.4269503" lon="10.5154085"><ele>121.99999999999999</ele><time>2026-03-29T08:37:45.988Z</time></trkpt><trkpt lat="45.4268856" lon="10.5154894"><ele>122.0</ele><time>2026-03-29T08:37:46.988Z</time></trkpt><trkpt lat="45.4268111" lon="10.5155561"><ele>122.0</ele><time>2026-03-29T08:37:47.988Z</time></trkpt><trkpt lat="45.4267185" lon="10.5155925"><ele>121.99999999999999</ele><time>2026-03-29T08:37:48.988Z</time></trkpt><trkpt lat="45.4266233" lon="10.5155803"><ele>121.99999999999999</ele><time>2026-03-29T08:37:49.988Z</time></trkpt><trkpt lat="45.4265226" lon="10.5155285"><ele>122.0</ele><time>2026-03-29T08:37:50.988Z</time></trkpt><trkpt lat="45.4264129" lon="10.5154648"><ele>122.0</ele><time>2026-03-29T08:37:51.987Z</time></trkpt><trkpt lat="45.426299" lon="10.5154006"><ele>122.0</ele><time>2026-03-29T08:37:52.987Z</time></trkpt><trkpt lat="45.4261852" lon="10.5153438"><ele>122.0</ele><time>2026-03-29T08:37:53.988Z</time></trkpt><trkpt lat="45.4260608" lon="10.5152734"><ele>122.0</ele><time>2026-03-29T08:37:54.989Z</time></trkpt><trkpt lat="45.4259345" lon="10.5151975"><ele>122.0</ele><time>2026-03-29T08:37:55.988Z</time></trkpt><trkpt lat="45.4258056" lon="10.5151174"><ele>122.0</ele><time>2026-03-29T08:37:56.988Z</time></trkpt><trkpt lat="45.4256766" lon="10.5150304"><ele>122.0</ele><time>2026-03-29T08:37:57.988Z</time></trkpt><trkpt lat="45.425549" lon="10.5149398"><ele>122.0</ele><time>2026-03-29T08:37:58.988Z</time></trkpt><trkpt lat="45.4254227" lon="10.5148486"><ele>122.0</ele><time>2026-03-29T08:37:59.988Z</time></trkpt><trkpt lat="45.4252997" lon="10.5147588"><ele>122.0</ele><time>2026-03-29T08:38:00.988Z</time></trkpt><trkpt lat="45.425177" lon="10.5146669"><ele>122.0</ele><time>2026-03-29T08:38:01.988Z</time></trkpt><trkpt lat="45.4250655" lon="10.5145771"><ele>122.0</ele><time>2026-03-29T08:38:02.988Z</time></trkpt><trkpt lat="45.4249579" lon="10.5144891"><ele>122.0</ele><time>2026-03-29T08:38:03.987Z</time></trkpt><trkpt lat="45.4248559" lon="10.5144065"><ele>121.75</ele><time>2026-03-29T08:38:04.988Z</time></trkpt><trkpt lat="45.4247519" lon="10.5143246"><ele>121.5</ele><time>2026-03-29T08:38:05.987Z</time></trkpt><trkpt lat="45.4246437" lon="10.5142382"><ele>121.25</ele><time>2026-03-29T08:38:06.987Z</time></trkpt><trkpt lat="45.424532" lon="10.5141404"><ele>121.0</ele><time>2026-03-29T08:38:07.988Z</time></trkpt><trkpt lat="45.4244154" lon="10.5140387"><ele>120.75</ele><time>2026-03-29T08:38:08.988Z</time></trkpt><trkpt lat="45.4243" lon="10.5139249"><ele>120.5</ele><time>2026-03-29T08:38:09.988Z</time></trkpt><trkpt lat="45.4241818" lon="10.5138073"><ele>120.25</ele><time>2026-03-29T08:38:10.989Z</time></trkpt><trkpt lat="45.4240629" lon="10.5136879"><ele>120.0</ele><time>2026-03-29T08:38:11.987Z</time></trkpt><trkpt lat="45.4239388" lon="10.5135698"><ele>120.0</ele><time>2026-03-29T08:38:12.987Z</time></trkpt><trkpt lat="45.4238147" lon="10.5134482"><ele>120.0</ele><time>2026-03-29T08:38:13.987Z</time></trkpt><trkpt lat="45.423689" lon="10.5133235"><ele>120.0</ele><time>2026-03-29T08:38:14.987Z</time></trkpt><trkpt lat="45.4235598" lon="10.5132054"><ele>120.0</ele><time>2026-03-29T08:38:15.987Z</time></trkpt><trkpt lat="45.4234286" lon="10.513083"><ele>120.0</ele><time>2026-03-29T08:38:16.988Z</time></trkpt><trkpt lat="45.4232924" lon="10.5129657"><ele>120.0</ele><time>2026-03-29T08:38:17.988Z</time></trkpt><trkpt lat="45.4231549" lon="10.5128553"><ele>119.66666666666666</ele><time>2026-03-29T08:38:18.987Z</time></trkpt><trkpt lat="45.4230121" lon="10.5127569"><ele>119.33333333333333</ele><time>2026-03-29T08:38:19.987Z</time></trkpt><trkpt lat="45.4228756" lon="10.5126692"><ele>119.0</ele><time>2026-03-29T08:38:20.987Z</time></trkpt><trkpt lat="45.4227396" lon="10.5125893"><ele>119.75</ele><time>2026-03-29T08:38:21.987Z</time></trkpt><trkpt lat="45.4226059" lon="10.5124997"><ele>120.5</ele><time>2026-03-29T08:38:22.987Z</time></trkpt><trkpt lat="45.4224869" lon="10.5123874"><ele>121.25</ele><time>2026-03-29T08:38:23.988Z</time></trkpt><trkpt lat="45.4223832" lon="10.512265"><ele>122.0</ele><time>2026-03-29T08:38:24.988Z</time></trkpt><trkpt lat="45.4222893" lon="10.5121383"><ele>121.8</ele><time>2026-03-29T08:38:25.988Z</time></trkpt><trkpt lat="45.4222009" lon="10.512013"><ele>121.6</ele><time>2026-03-29T08:38:26.988Z</time></trkpt><trkpt lat="45.4221196" lon="10.5118877"><ele>121.39999999999999</ele><time>2026-03-29T08:38:27.987Z</time></trkpt><trkpt lat="45.4220521" lon="10.5117748"><ele>121.19999999999999</ele><time>2026-03-29T08:38:28.987Z</time></trkpt><trkpt lat="45.4219997" lon="10.511668"><ele>121.0</ele><time>2026-03-29T08:38:29.987Z</time></trkpt><trkpt lat="45.421963" lon="10.5115691"><ele>121.00000000000001</ele><time>2026-03-29T08:38:30.987Z</time></trkpt><trkpt lat="45.4219412" lon="10.5114618"><ele>121.0</ele><time>2026-03-29T08:38:31.987Z</time></trkpt><trkpt lat="45.4219347" lon="10.5113313"><ele>121.0</ele><time>2026-03-29T08:38:32.987Z</time></trkpt><trkpt lat="45.4219362" lon="10.5112056"><ele>121.0</ele><time>2026-03-29T08:38:33.988Z</time></trkpt><trkpt lat="45.4219346" lon="10.5110915"><ele>121.00000000000001</ele><time>2026-03-29T08:38:34.988Z</time></trkpt><trkpt lat="45.4219098" lon="10.5109835"><ele>121.0</ele><time>2026-03-29T08:38:35.988Z</time></trkpt><trkpt lat="45.421868" lon="10.5109016"><ele>120.83333333333334</ele><time>2026-03-29T08:38:36.988Z</time></trkpt><trkpt lat="45.4218064" lon="10.510865"><ele>120.66666666666667</ele><time>2026-03-29T08:38:37.988Z</time></trkpt><trkpt lat="45.4217413" lon="10.5108411"><ele>120.5</ele><time>2026-03-29T08:38:38.988Z</time></trkpt><trkpt lat="45.4216694" lon="10.5108067"><ele>120.33333333333334</ele><time>2026-03-29T08:38:39.988Z</time></trkpt><trkpt lat="45.4215813" lon="10.5107436"><ele>120.16666666666667</ele><time>2026-03-29T08:38:40.987Z</time></trkpt><trkpt lat="45.4214856" lon="10.510656"><ele>120.0</ele><time>2026-03-29T08:38:41.987Z</time></trkpt><trkpt lat="45.4213803" lon="10.510574"><ele>120.5</ele><time>2026-03-29T08:38:42.987Z</time></trkpt><trkpt lat="45.4212515" lon="10.5105171"><ele>121.0</ele><time>2026-03-29T08:38:43.987Z</time></trkpt><trkpt lat="45.4211101" lon="10.5105051"><ele>121.5</ele><time>2026-03-29T08:38:44.987Z</time></trkpt><trkpt lat="45.4209725" lon="10.5105445"><ele>122.0</ele><time>2026-03-29T08:38:45.987Z</time></trkpt><trkpt lat="45.4208471" lon="10.5106301"><ele>122.0</ele><time>2026-03-29T08:38:46.987Z</time></trkpt><trkpt lat="45.42075" lon="10.5107655"><ele>121.99999999999999</ele><time>2026-03-29T08:38:47.988Z</time></trkpt><trkpt lat="45.4206894" lon="10.5109022"><ele>121.99999999999999</ele><time>2026-03-29T08:38:48.988Z</time></trkpt><trkpt lat="45.4206527" lon="10.5110369"><ele>122.0</ele><time>2026-03-29T08:38:49.987Z</time></trkpt><trkpt lat="45.420628" lon="10.5111683"><ele>122.0</ele><time>2026-03-29T08:38:50.988Z</time></trkpt><trkpt lat="45.4206097" lon="10.5113009"><ele>121.8</ele><time>2026-03-29T08:38:51.988Z</time></trkpt><trkpt lat="45.4205986" lon="10.5114258"><ele>121.6</ele><time>2026-03-29T08:38:52.988Z</time></trkpt><trkpt lat="45.4205623" lon="10.5115372"><ele>121.39999999999999</ele><time>2026-03-29T08:38:53.988Z</time></trkpt><trkpt lat="45.4204954" lon="10.5116321"><ele>121.19999999999999</ele><time>2026-03-29T08:38:54.987Z</time></trkpt><trkpt lat="45.420391" lon="10.5116841"><ele>121.0</ele><time>2026-03-29T08:38:55.988Z</time></trkpt><trkpt lat="45.4202704" lon="10.5116873"><ele>121.0</ele><time>2026-03-29T08:38:56.987Z</time></trkpt><trkpt lat="45.4201367" lon="10.5116516"><ele>121.0</ele><time>2026-03-29T08:38:57.988Z</time></trkpt><trkpt lat="45.4199974" lon="10.5115983"><ele>121.0</ele><time>2026-03-29T08:38:58.988Z</time></trkpt><trkpt lat="45.419848" lon="10.5115494"><ele>121.0</ele><time>2026-03-29T08:38:59.988Z</time></trkpt><trkpt lat="45.4196919" lon="10.5115036"><ele>121.25</ele><time>2026-03-29T08:39:00.988Z</time></trkpt><trkpt lat="45.4195422" lon="10.5114587"><ele>121.5</ele><time>2026-03-29T08:39:01.987Z</time></trkpt><trkpt lat="45.4194069" lon="10.5114191"><ele>121.75</ele><time>2026-03-29T08:39:02.987Z</time></trkpt><trkpt lat="45.4192814" lon="10.5113841"><ele>122.0</ele><time>2026-03-29T08:39:03.988Z</time></trkpt><trkpt lat="45.4191578" lon="10.511343"><ele>122.0</ele><time>2026-03-29T08:39:04.987Z</time></trkpt><trkpt lat="45.4190274" lon="10.5113036"><ele>122.0</ele><time>2026-03-29T08:39:05.987Z</time></trkpt><trkpt lat="45.4188976" lon="10.511264"><ele>122.0</ele><time>2026-03-29T08:39:06.987Z</time></trkpt><trkpt lat="45.4187664" lon="10.5112226"><ele>122.0</ele><time>2026-03-29T08:39:07.988Z</time></trkpt><trkpt lat="45.4186333" lon="10.5111805"><ele>120.25</ele><time>2026-03-29T08:39:08.988Z</time></trkpt><trkpt lat="45.418499" lon="10.5111375"><ele>118.5</ele><time>2026-03-29T08:39:09.988Z</time></trkpt><trkpt lat="45.4183675" lon="10.5110966"><ele>116.75</ele><time>2026-03-29T08:39:10.988Z</time></trkpt><trkpt lat="45.4182326" lon="10.5110556"><ele>115.0</ele><time>2026-03-29T08:39:11.987Z</time></trkpt><trkpt lat="45.418103" lon="10.5110182"><ele>115.0</ele><time>2026-03-29T08:39:12.988Z</time></trkpt><trkpt lat="45.4179736" lon="10.5109748"><ele>115.0</ele><time>2026-03-29T08:39:13.988Z</time></trkpt><trkpt lat="45.4178451" lon="10.510934"><ele>115.0</ele><time>2026-03-29T08:39:14.987Z</time></trkpt><trkpt lat="45.4177203" lon="10.5109001"><ele>115.0</ele><time>2026-03-29T08:39:15.987Z</time></trkpt><trkpt lat="45.4176116" lon="10.5108725"><ele>115.0</ele><time>2026-03-29T08:39:16.987Z</time></trkpt><trkpt lat="45.4175224" lon="10.5108475"><ele>115.0</ele><time>2026-03-29T08:39:17.987Z</time></trkpt><trkpt lat="45.4174538" lon="10.510835"><ele>115.0</ele><time>2026-03-29T08:39:18.988Z</time></trkpt><trkpt lat="45.4173824" lon="10.5108582"><ele>115.0</ele><time>2026-03-29T08:39:20.988Z</time></trkpt><trkpt lat="45.4173305" lon="10.5109891"><ele>115.0</ele><time>2026-03-29T08:39:33.987Z</time></trkpt><trkpt lat="45.4172838" lon="10.5111709"><ele>114.99999999999999</ele><time>2026-03-29T08:39:35.987Z</time></trkpt><trkpt lat="45.4172593" lon="10.5112635"><ele>115.0</ele><time>2026-03-29T08:39:36.988Z</time></trkpt><trkpt lat="45.417231" lon="10.511357"><ele>114.99999999999999</ele><time>2026-03-29T08:39:37.988Z</time></trkpt><trkpt lat="45.4172018" lon="10.5114445"><ele>114.99999999999999</ele><time>2026-03-29T08:39:38.988Z</time></trkpt><trkpt lat="45.4171709" lon="10.5115349"><ele>115.0</ele><time>2026-03-29T08:39:39.988Z</time></trkpt><trkpt lat="45.4171488" lon="10.511623"><ele>114.99999999999999</ele><time>2026-03-29T08:39:40.987Z</time></trkpt><trkpt lat="45.4171157" lon="10.511763"><ele>114.99999999999999</ele><time>2026-03-29T08:39:42.987Z</time></trkpt><trkpt lat="45.4170984" lon="10.511875"><ele>115.2</ele><time>2026-03-29T08:39:44.988Z</time></trkpt><trkpt lat="45.4170826" lon="10.5120085"><ele>115.4</ele><time>2026-03-29T08:39:46.988Z</time></trkpt><trkpt lat="45.4170474" lon="10.5121672"><ele>115.6</ele><time>2026-03-29T08:39:48.988Z</time></trkpt><trkpt lat="45.4170117" lon="10.5122659"><ele>115.8</ele><time>2026-03-29T08:39:49.988Z</time></trkpt><trkpt lat="45.416973" lon="10.5123706"><ele>116.0</ele><time>2026-03-29T08:39:50.988Z</time></trkpt><trkpt lat="45.4169323" lon="10.5124809"><ele>115.99999999999999</ele><time>2026-03-29T08:39:51.988Z</time></trkpt><trkpt lat="45.4168963" lon="10.5125941"><ele>116.0</ele><time>2026-03-29T08:39:52.988Z</time></trkpt><trkpt lat="45.4168783" lon="10.5126885"><ele>116.0</ele><time>2026-03-29T08:39:53.988Z</time></trkpt><trkpt lat="45.4168648" lon="10.5128155"><ele>116.0</ele><time>2026-03-29T08:39:55.989Z</time></trkpt><trkpt lat="45.4167892" lon="10.5128792"><ele>115.99999999999999</ele><time>2026-03-29T08:39:58.988Z</time></trkpt><trkpt lat="45.4167108" lon="10.5128781"><ele>116.0</ele><time>2026-03-29T08:39:59.988Z</time></trkpt><trkpt lat="45.4166036" lon="10.512881"><ele>116.0</ele><time>2026-03-29T08:40:00.987Z</time></trkpt><trkpt lat="45.4164645" lon="10.5128913"><ele>116.0</ele><time>2026-03-29T08:40:01.987Z</time></trkpt><trkpt lat="45.4163106" lon="10.5129047"><ele>116.0</ele><time>2026-03-29T08:40:02.987Z</time></trkpt><trkpt lat="45.4161391" lon="10.5129174"><ele>116.0</ele><time>2026-03-29T08:40:03.987Z</time></trkpt><trkpt lat="45.4159559" lon="10.5129297"><ele>116.0</ele><time>2026-03-29T08:40:04.988Z</time></trkpt><trkpt lat="45.4157581" lon="10.5129347"><ele>116.0</ele><time>2026-03-29T08:40:05.988Z</time></trkpt><trkpt lat="45.4155452" lon="10.5129298"><ele>115.75</ele><time>2026-03-29T08:40:06.987Z</time></trkpt><trkpt lat="45.4153614" lon="10.5128987"><ele>115.5</ele><time>2026-03-29T08:40:07.987Z</time></trkpt><trkpt lat="45.4152151" lon="10.5128661"><ele>115.25</ele><time>2026-03-29T08:40:08.988Z</time></trkpt><trkpt lat="45.415121" lon="10.5128452"><ele>115.0</ele><time>2026-03-29T08:40:09.987Z</time></trkpt><trkpt lat="45.4150267" lon="10.5128906"><ele>115.5</ele><time>2026-03-29T08:40:11.987Z</time></trkpt><trkpt lat="45.4149904" lon="10.5130868"><ele>116.0</ele><time>2026-03-29T08:40:13.988Z</time></trkpt><trkpt lat="45.4149736" lon="10.513218"><ele>116.5</ele><time>2026-03-29T08:40:14.988Z</time></trkpt><trkpt lat="45.4149631" lon="10.5133933"><ele>117.0</ele><time>2026-03-29T08:40:15.987Z</time></trkpt><trkpt lat="45.4149585" lon="10.5135573"><ele>117.0</ele><time>2026-03-29T08:40:16.987Z</time></trkpt><trkpt lat="45.4149499" lon="10.5136906"><ele>117.0</ele><time>2026-03-29T08:40:17.987Z</time></trkpt><trkpt lat="45.4149328" lon="10.5138249"><ele>117.0</ele><time>2026-03-29T08:40:18.987Z</time></trkpt><trkpt lat="45.4148946" lon="10.513905"><ele>117.0</ele><time>2026-03-29T08:40:19.988Z</time></trkpt><trkpt lat="45.4148368" lon="10.5139526"><ele>117.0</ele><time>2026-03-29T08:40:20.987Z</time></trkpt><trkpt lat="45.4147485" lon="10.5139612"><ele>117.0</ele><time>2026-03-29T08:40:21.987Z</time></trkpt><trkpt lat="45.4146334" lon="10.5139571"><ele>116.75</ele><time>2026-03-29T08:40:22.988Z</time></trkpt><trkpt lat="45.4144966" lon="10.5139595"><ele>116.5</ele><time>2026-03-29T08:40:23.987Z</time></trkpt><trkpt lat="45.4143607" lon="10.5139717"><ele>116.25</ele><time>2026-03-29T08:40:24.988Z</time></trkpt><trkpt lat="45.4142422" lon="10.5140067"><ele>116.0</ele><time>2026-03-29T08:40:25.988Z</time></trkpt><trkpt lat="45.4141147" lon="10.514079"><ele>116.0</ele><time>2026-03-29T08:40:26.987Z</time></trkpt><trkpt lat="45.4139757" lon="10.5141645"><ele>116.0</ele><time>2026-03-29T08:40:27.987Z</time></trkpt><trkpt lat="45.4138345" lon="10.5142179"><ele>116.0</ele><time>2026-03-29T08:40:28.987Z</time></trkpt><trkpt lat="45.4137046" lon="10.5142576"><ele>116.0</ele><time>2026-03-29T08:40:29.987Z</time></trkpt><trkpt lat="45.4135997" lon="10.5143095"><ele>116.0</ele><time>2026-03-29T08:40:30.988Z</time></trkpt><trkpt lat="45.4135186" lon="10.514388"><ele>116.0</ele><time>2026-03-29T08:40:31.989Z</time></trkpt><trkpt lat="45.4134409" lon="10.5145128"><ele>116.0</ele><time>2026-03-29T08:40:32.988Z</time></trkpt><trkpt lat="45.4133872" lon="10.5146787"><ele>116.0</ele><time>2026-03-29T08:40:33.987Z</time></trkpt><trkpt lat="45.4133458" lon="10.5148789"><ele>116.0</ele><time>2026-03-29T08:40:34.989Z</time></trkpt><trkpt lat="45.4133028" lon="10.5151127"><ele>116.0</ele><time>2026-03-29T08:40:35.988Z</time></trkpt><trkpt lat="45.4132357" lon="10.5153675"><ele>116.0</ele><time>2026-03-29T08:40:36.988Z</time></trkpt><trkpt lat="45.4131584" lon="10.5156315"><ele>116.0</ele><time>2026-03-29T08:40:37.988Z</time></trkpt><trkpt lat="45.4130581" lon="10.5159117"><ele>116.0</ele><time>2026-03-29T08:40:38.988Z</time></trkpt><trkpt lat="45.4129541" lon="10.5161943"><ele>116.0</ele><time>2026-03-29T08:40:39.987Z</time></trkpt><trkpt lat="45.4128571" lon="10.5164714"><ele>115.33333333333333</ele><time>2026-03-29T08:40:40.988Z</time></trkpt><trkpt lat="45.4127751" lon="10.5167329"><ele>114.66666666666666</ele><time>2026-03-29T08:40:41.988Z</time></trkpt><trkpt lat="45.4127005" lon="10.5169682"><ele>114.0</ele><time>2026-03-29T08:40:42.987Z</time></trkpt><trkpt lat="45.4126264" lon="10.517185"><ele>114.0</ele><time>2026-03-29T08:40:43.988Z</time></trkpt><trkpt lat="45.4125461" lon="10.517371"><ele>114.0</ele><time>2026-03-29T08:40:44.987Z</time></trkpt><trkpt lat="45.4124368" lon="10.5175458"><ele>114.0</ele><time>2026-03-29T08:40:45.987Z</time></trkpt><trkpt lat="45.4123158" lon="10.5177056"><ele>114.0</ele><time>2026-03-29T08:40:46.987Z</time></trkpt><trkpt lat="45.4121867" lon="10.517845"><ele>114.0</ele><time>2026-03-29T08:40:47.987Z</time></trkpt><trkpt lat="45.4120561" lon="10.5180005"><ele>114.0</ele><time>2026-03-29T08:40:48.988Z</time></trkpt><trkpt lat="45.4119279" lon="10.5181862"><ele>115.66666666666666</ele><time>2026-03-29T08:40:49.988Z</time></trkpt><trkpt lat="45.4118186" lon="10.5183671"><ele>117.33333333333333</ele><time>2026-03-29T08:40:50.988Z</time></trkpt><trkpt lat="45.4117363" lon="10.5185453"><ele>119.0</ele><time>2026-03-29T08:40:51.987Z</time></trkpt><trkpt lat="45.4116513" lon="10.5187179"><ele>119.0</ele><time>2026-03-29T08:40:52.987Z</time></trkpt><trkpt lat="45.4115722" lon="10.5188565"><ele>119.0</ele><time>2026-03-29T08:40:53.987Z</time></trkpt><trkpt lat="45.4114973" lon="10.5189912"><ele>119.0</ele><time>2026-03-29T08:40:54.987Z</time></trkpt><trkpt lat="45.4114416" lon="10.5191074"><ele>119.0</ele><time>2026-03-29T08:40:55.988Z</time></trkpt><trkpt lat="45.4114082" lon="10.5192134"><ele>119.0</ele><time>2026-03-29T08:40:56.988Z</time></trkpt><trkpt lat="45.4113998" lon="10.5193092"><ele>119.0</ele><time>2026-03-29T08:40:57.989Z</time></trkpt><trkpt lat="45.4114439" lon="10.5194107"><ele>119.0</ele><time>2026-03-29T08:40:58.988Z</time></trkpt><trkpt lat="45.4115059" lon="10.5195098"><ele>119.0</ele><time>2026-03-29T08:40:59.987Z</time></trkpt><trkpt lat="45.4115563" lon="10.5196096"><ele>119.0</ele><time>2026-03-29T08:41:00.987Z</time></trkpt><trkpt lat="45.4115865" lon="10.5197435"><ele>119.0</ele><time>2026-03-29T08:41:01.987Z</time></trkpt><trkpt lat="45.4115959" lon="10.5198986"><ele>118.5</ele><time>2026-03-29T08:41:02.988Z</time></trkpt><trkpt lat="45.4115932" lon="10.5200829"><ele>118.0</ele><time>2026-03-29T08:41:03.988Z</time></trkpt><trkpt lat="45.4115843" lon="10.5202888"><ele>117.5</ele><time>2026-03-29T08:41:04.988Z</time></trkpt><trkpt lat="45.4115803" lon="10.5204719"><ele>117.0</ele><time>2026-03-29T08:41:05.988Z</time></trkpt><trkpt lat="45.4115868" lon="10.5206403"><ele>116.8</ele><time>2026-03-29T08:41:06.988Z</time></trkpt><trkpt lat="45.4116177" lon="10.520778"><ele>116.6</ele><time>2026-03-29T08:41:07.988Z</time></trkpt><trkpt lat="45.4116687" lon="10.5208902"><ele>116.39999999999999</ele><time>2026-03-29T08:41:08.988Z</time></trkpt><trkpt lat="45.4117479" lon="10.5209797"><ele>116.19999999999999</ele><time>2026-03-29T08:41:09.987Z</time></trkpt><trkpt lat="45.4118677" lon="10.5210487"><ele>116.0</ele><time>2026-03-29T08:41:10.987Z</time></trkpt><trkpt lat="45.4119842" lon="10.5211284"><ele>116.0</ele><time>2026-03-29T08:41:11.989Z</time></trkpt><trkpt lat="45.4120701" lon="10.5212061"><ele>116.0</ele><time>2026-03-29T08:41:12.988Z</time></trkpt><trkpt lat="45.4121372" lon="10.5213045"><ele>116.0</ele><time>2026-03-29T08:41:13.988Z</time></trkpt><trkpt lat="45.4121687" lon="10.5214313"><ele>116.0</ele><time>2026-03-29T08:41:14.988Z</time></trkpt><trkpt lat="45.4121743" lon="10.5215905"><ele>116.0</ele><time>2026-03-29T08:41:15.988Z</time></trkpt><trkpt lat="45.4121544" lon="10.5217717"><ele>116.16666666666666</ele><time>2026-03-29T08:41:16.988Z</time></trkpt><trkpt lat="45.4121198" lon="10.5219144"><ele>116.33333333333333</ele><time>2026-03-29T08:41:17.988Z</time></trkpt><trkpt lat="45.4120773" lon="10.5220254"><ele>116.5</ele><time>2026-03-29T08:41:18.988Z</time></trkpt><trkpt lat="45.412034" lon="10.5220958"><ele>116.66666666666666</ele><time>2026-03-29T08:41:19.987Z</time></trkpt><trkpt lat="45.4119449" lon="10.522113"><ele>116.83333333333333</ele><time>2026-03-29T08:41:21.988Z</time></trkpt><trkpt lat="45.4118775" lon="10.5220519"><ele>117.0</ele><time>2026-03-29T08:41:22.988Z</time></trkpt><trkpt lat="45.4117928" lon="10.5219924"><ele>117.0</ele><time>2026-03-29T08:41:23.988Z</time></trkpt><trkpt lat="45.4116881" lon="10.5219318"><ele>117.0</ele><time>2026-03-29T08:41:24.987Z</time></trkpt><trkpt lat="45.411564" lon="10.5218943"><ele>117.0</ele><time>2026-03-29T08:41:25.987Z</time></trkpt><trkpt lat="45.4114165" lon="10.5218827"><ele>117.0</ele><time>2026-03-29T08:41:26.987Z</time></trkpt><trkpt lat="45.4112508" lon="10.5219007"><ele>117.33333333333334</ele><time>2026-03-29T08:41:27.987Z</time></trkpt><trkpt lat="45.4110692" lon="10.5219334"><ele>117.66666666666667</ele><time>2026-03-29T08:41:28.987Z</time></trkpt><trkpt lat="45.4108682" lon="10.5219788"><ele>118.0</ele><time>2026-03-29T08:41:29.988Z</time></trkpt><trkpt lat="45.4106622" lon="10.5220572"><ele>118.66666666666667</ele><time>2026-03-29T08:41:30.988Z</time></trkpt><trkpt lat="45.4104483" lon="10.5221532"><ele>119.33333333333334</ele><time>2026-03-29T08:41:31.987Z</time></trkpt><trkpt lat="45.4102364" lon="10.5222528"><ele>120.0</ele><time>2026-03-29T08:41:32.988Z</time></trkpt><trkpt lat="45.4100232" lon="10.5223514"><ele>120.0</ele><time>2026-03-29T08:41:33.988Z</time></trkpt><trkpt lat="45.4098279" lon="10.522433"><ele>120.0</ele><time>2026-03-29T08:41:34.988Z</time></trkpt><trkpt lat="45.4096543" lon="10.5225006"><ele>120.0</ele><time>2026-03-29T08:41:35.988Z</time></trkpt><trkpt lat="45.4095052" lon="10.5225651"><ele>121.25</ele><time>2026-03-29T08:41:36.988Z</time></trkpt><trkpt lat="45.4093696" lon="10.522626"><ele>122.5</ele><time>2026-03-29T08:41:37.988Z</time></trkpt><trkpt lat="45.4092431" lon="10.5226805"><ele>123.75</ele><time>2026-03-29T08:41:38.987Z</time></trkpt><trkpt lat="45.4091247" lon="10.5227327"><ele>125.0</ele><time>2026-03-29T08:41:39.988Z</time></trkpt><trkpt lat="45.4090037" lon="10.5227866"><ele>125.0</ele><time>2026-03-29T08:41:40.987Z</time></trkpt><trkpt lat="45.4088864" lon="10.522844"><ele>125.0</ele><time>2026-03-29T08:41:41.988Z</time></trkpt><trkpt lat="45.4087698" lon="10.5228988"><ele>125.0</ele><time>2026-03-29T08:41:42.987Z</time></trkpt><trkpt lat="45.4086545" lon="10.5229517"><ele>125.0</ele><time>2026-03-29T08:41:43.987Z</time></trkpt><trkpt lat="45.4085514" lon="10.5229843"><ele>125.4</ele><time>2026-03-29T08:41:44.987Z</time></trkpt><trkpt lat="45.4084547" lon="10.5230029"><ele>125.8</ele><time>2026-03-29T08:41:45.988Z</time></trkpt><trkpt lat="45.4083528" lon="10.5230341"><ele>126.19999999999999</ele><time>2026-03-29T08:41:46.987Z</time></trkpt><trkpt lat="45.4082496" lon="10.5231066"><ele>126.6</ele><time>2026-03-29T08:41:47.987Z</time></trkpt><trkpt lat="45.4081473" lon="10.523179"><ele>127.0</ele><time>2026-03-29T08:41:48.988Z</time></trkpt><trkpt lat="45.4080339" lon="10.5232762"><ele>127.5</ele><time>2026-03-29T08:41:49.988Z</time></trkpt><trkpt lat="45.4079217" lon="10.5233684"><ele>128.0</ele><time>2026-03-29T08:41:50.988Z</time></trkpt><trkpt lat="45.4078091" lon="10.5234578"><ele>128.5</ele><time>2026-03-29T08:41:51.987Z</time></trkpt><trkpt lat="45.4076954" lon="10.5235463"><ele>129.0</ele><time>2026-03-29T08:41:52.987Z</time></trkpt><trkpt lat="45.4075816" lon="10.523638"><ele>129.25</ele><time>2026-03-29T08:41:53.988Z</time></trkpt><trkpt lat="45.4074687" lon="10.5237379"><ele>129.5</ele><time>2026-03-29T08:41:54.987Z</time></trkpt><trkpt lat="45.4073561" lon="10.5238347"><ele>129.75</ele><time>2026-03-29T08:41:55.987Z</time></trkpt><trkpt lat="45.4072386" lon="10.5239273"><ele>130.0</ele><time>2026-03-29T08:41:56.987Z</time></trkpt><trkpt lat="45.407119" lon="10.5240124"><ele>131.0</ele><time>2026-03-29T08:41:57.987Z</time></trkpt><trkpt lat="45.4070018" lon="10.5240897"><ele>132.0</ele><time>2026-03-29T08:41:58.987Z</time></trkpt><trkpt lat="45.4068841" lon="10.5241688"><ele>133.0</ele><time>2026-03-29T08:41:59.987Z</time></trkpt><trkpt lat="45.4067753" lon="10.5242463"><ele>134.0</ele><time>2026-03-29T08:42:00.987Z</time></trkpt><trkpt lat="45.4066692" lon="10.5243172"><ele>134.0</ele><time>2026-03-29T08:42:01.988Z</time></trkpt><trkpt lat="45.4065757" lon="10.5243792"><ele>134.0</ele><time>2026-03-29T08:42:02.988Z</time></trkpt><trkpt lat="45.4064895" lon="10.5244431"><ele>134.0</ele><time>2026-03-29T08:42:03.987Z</time></trkpt><trkpt lat="45.4064097" lon="10.5245199"><ele>134.0</ele><time>2026-03-29T08:42:04.988Z</time></trkpt><trkpt lat="45.4063307" lon="10.52461"><ele>134.0</ele><time>2026-03-29T08:42:05.988Z</time></trkpt><trkpt lat="45.4062429" lon="10.5247204"><ele>133.0</ele><time>2026-03-29T08:42:06.988Z</time></trkpt><trkpt lat="45.4061499" lon="10.5248509"><ele>132.0</ele><time>2026-03-29T08:42:07.987Z</time></trkpt><trkpt lat="45.4060589" lon="10.5249894"><ele>131.0</ele><time>2026-03-29T08:42:08.988Z</time></trkpt><trkpt lat="45.4059531" lon="10.5251185"><ele>130.0</ele><time>2026-03-29T08:42:09.988Z</time></trkpt><trkpt lat="45.4058425" lon="10.5252452"><ele>130.0</ele><time>2026-03-29T08:42:10.987Z</time></trkpt><trkpt lat="45.4057364" lon="10.5253781"><ele>130.0</ele><time>2026-03-29T08:42:11.988Z</time></trkpt><trkpt lat="45.4056347" lon="10.5255219"><ele>130.0</ele><time>2026-03-29T08:42:12.988Z</time></trkpt><trkpt lat="45.4055405" lon="10.5256612"><ele>130.0</ele><time>2026-03-29T08:42:13.988Z</time></trkpt><trkpt lat="45.4054541" lon="10.5257898"><ele>130.5</ele><time>2026-03-29T08:42:14.988Z</time></trkpt><trkpt lat="45.4053746" lon="10.5259005"><ele>131.0</ele><time>2026-03-29T08:42:15.988Z</time></trkpt><trkpt lat="45.4052836" lon="10.5260189"><ele>131.5</ele><time>2026-03-29T08:42:16.987Z</time></trkpt><trkpt lat="45.4051842" lon="10.5261485"><ele>132.0</ele><time>2026-03-29T08:42:17.987Z</time></trkpt><trkpt lat="45.4050716" lon="10.5262855"><ele>132.0</ele><time>2026-03-29T08:42:18.988Z</time></trkpt><trkpt lat="45.4049585" lon="10.5264288"><ele>132.0</ele><time>2026-03-29T08:42:19.988Z</time></trkpt><trkpt lat="45.4048489" lon="10.5265839"><ele>132.0</ele><time>2026-03-29T08:42:20.987Z</time></trkpt><trkpt lat="45.4047377" lon="10.5267443"><ele>132.0</ele><time>2026-03-29T08:42:21.988Z</time></trkpt><trkpt lat="45.4046226" lon="10.5269045"><ele>132.0</ele><time>2026-03-29T08:42:22.987Z</time></trkpt><trkpt lat="45.4045121" lon="10.527062"><ele>132.0</ele><time>2026-03-29T08:42:23.987Z</time></trkpt><trkpt lat="45.4044051" lon="10.5272192"><ele>132.25</ele><time>2026-03-29T08:42:24.988Z</time></trkpt><trkpt lat="45.4043038" lon="10.5273667"><ele>132.5</ele><time>2026-03-29T08:42:25.988Z</time></trkpt><trkpt lat="45.4042068" lon="10.5274941"><ele>132.75</ele><time>2026-03-29T08:42:26.988Z</time></trkpt><trkpt lat="45.4041196" lon="10.5276004"><ele>133.0</ele><time>2026-03-29T08:42:27.988Z</time></trkpt><trkpt lat="45.4040333" lon="10.5276543"><ele>133.0</ele><time>2026-03-29T08:42:28.988Z</time></trkpt><trkpt lat="45.4039323" lon="10.5276705"><ele>133.0</ele><time>2026-03-29T08:42:29.988Z</time></trkpt><trkpt lat="45.4038177" lon="10.5276655"><ele>133.0</ele><time>2026-03-29T08:42:30.988Z</time></trkpt><trkpt lat="45.4036929" lon="10.5276836"><ele>133.0</ele><time>2026-03-29T08:42:31.988Z</time></trkpt><trkpt lat="45.4035577" lon="10.527711"><ele>133.5</ele><time>2026-03-29T08:42:32.988Z</time></trkpt><trkpt lat="45.4034268" lon="10.5277417"><ele>134.0</ele><time>2026-03-29T08:42:33.988Z</time></trkpt><trkpt lat="45.4033075" lon="10.5277686"><ele>134.5</ele><time>2026-03-29T08:42:34.988Z</time></trkpt><trkpt lat="45.4032031" lon="10.5277924"><ele>135.0</ele><time>2026-03-29T08:42:35.988Z</time></trkpt><trkpt lat="45.4030976" lon="10.5278104"><ele>135.0</ele><time>2026-03-29T08:42:36.987Z</time></trkpt><trkpt lat="45.4029928" lon="10.5278287"><ele>135.0</ele><time>2026-03-29T08:42:37.988Z</time></trkpt><trkpt lat="45.4028903" lon="10.5278577"><ele>135.0</ele><time>2026-03-29T08:42:38.988Z</time></trkpt><trkpt lat="45.402783" lon="10.5279078"><ele>135.0</ele><time>2026-03-29T08:42:39.988Z</time></trkpt><trkpt lat="45.4026711" lon="10.5279878"><ele>135.0</ele><time>2026-03-29T08:42:40.988Z</time></trkpt><trkpt lat="45.4025548" lon="10.5280763"><ele>135.75</ele><time>2026-03-29T08:42:41.988Z</time></trkpt><trkpt lat="45.402439" lon="10.5281759"><ele>136.5</ele><time>2026-03-29T08:42:42.988Z</time></trkpt><trkpt lat="45.4023203" lon="10.5282804"><ele>137.25</ele><time>2026-03-29T08:42:43.988Z</time></trkpt><trkpt lat="45.4021972" lon="10.5283887"><ele>138.0</ele><time>2026-03-29T08:42:44.988Z</time></trkpt><trkpt lat="45.4020719" lon="10.5284924"><ele>138.0</ele><time>2026-03-29T08:42:45.988Z</time></trkpt><trkpt lat="45.4019422" lon="10.5286"><ele>138.0</ele><time>2026-03-29T08:42:46.988Z</time></trkpt><trkpt lat="45.4018069" lon="10.5287103"><ele>138.0</ele><time>2026-03-29T08:42:47.987Z</time></trkpt><trkpt lat="45.40167" lon="10.5288239"><ele>137.66666666666666</ele><time>2026-03-29T08:42:48.988Z</time></trkpt><trkpt lat="45.4015367" lon="10.5289374"><ele>137.33333333333331</ele><time>2026-03-29T08:42:49.989Z</time></trkpt><trkpt lat="45.4014044" lon="10.529051"><ele>137.0</ele><time>2026-03-29T08:42:50.988Z</time></trkpt><trkpt lat="45.4012704" lon="10.5291679"><ele>136.66666666666666</ele><time>2026-03-29T08:42:51.988Z</time></trkpt><trkpt lat="45.4011374" lon="10.5292802"><ele>136.33333333333334</ele><time>2026-03-29T08:42:52.989Z</time></trkpt><trkpt lat="45.4010065" lon="10.5293884"><ele>136.0</ele><time>2026-03-29T08:42:53.987Z</time></trkpt><trkpt lat="45.4008801" lon="10.5294947"><ele>135.66666666666669</ele><time>2026-03-29T08:42:54.987Z</time></trkpt><trkpt lat="45.4007554" lon="10.5295992"><ele>135.33333333333334</ele><time>2026-03-29T08:42:55.987Z</time></trkpt><trkpt lat="45.4006276" lon="10.5297105"><ele>135.0</ele><time>2026-03-29T08:42:56.988Z</time></trkpt><trkpt lat="45.4004974" lon="10.5298316"><ele>135.5</ele><time>2026-03-29T08:42:57.988Z</time></trkpt><trkpt lat="45.4003695" lon="10.5299523"><ele>136.0</ele><time>2026-03-29T08:42:58.988Z</time></trkpt><trkpt lat="45.4002421" lon="10.5300674"><ele>136.5</ele><time>2026-03-29T08:42:59.988Z</time></trkpt><trkpt lat="45.4001278" lon="10.5301726"><ele>137.0</ele><time>2026-03-29T08:43:00.988Z</time></trkpt><trkpt lat="45.4000273" lon="10.5302584"><ele>137.0</ele><time>2026-03-29T08:43:01.988Z</time></trkpt><trkpt lat="45.3999418" lon="10.5303399"><ele>137.0</ele><time>2026-03-29T08:43:02.988Z</time></trkpt><trkpt lat="45.3998621" lon="10.530428"><ele>137.0</ele><time>2026-03-29T08:43:03.988Z</time></trkpt><trkpt lat="45.3997693" lon="10.5305341"><ele>137.0</ele><time>2026-03-29T08:43:04.988Z</time></trkpt><trkpt lat="45.3996719" lon="10.5306442"><ele>137.0</ele><time>2026-03-29T08:43:05.987Z</time></trkpt><trkpt lat="45.39958" lon="10.5307443"><ele>135.75</ele><time>2026-03-29T08:43:06.988Z</time></trkpt><trkpt lat="45.3994946" lon="10.5308477"><ele>134.5</ele><time>2026-03-29T08:43:07.988Z</time></trkpt><trkpt lat="45.3994171" lon="10.5309644"><ele>133.25</ele><time>2026-03-29T08:43:08.989Z</time></trkpt><trkpt lat="45.3993408" lon="10.5311116"><ele>132.0</ele><time>2026-03-29T08:43:09.988Z</time></trkpt><trkpt lat="45.3992678" lon="10.5312641"><ele>132.0</ele><time>2026-03-29T08:43:10.988Z</time></trkpt><trkpt lat="45.3992041" lon="10.5313948"><ele>132.0</ele><time>2026-03-29T08:43:11.987Z</time></trkpt><trkpt lat="45.3991379" lon="10.5315262"><ele>132.0</ele><time>2026-03-29T08:43:12.988Z</time></trkpt><trkpt lat="45.3990672" lon="10.5316497"><ele>132.0</ele><time>2026-03-29T08:43:13.988Z</time></trkpt><trkpt lat="45.3989895" lon="10.5317699"><ele>132.0</ele><time>2026-03-29T08:43:14.987Z</time></trkpt><trkpt lat="45.3988992" lon="10.5318894"><ele>132.0</ele><time>2026-03-29T08:43:15.988Z</time></trkpt><trkpt lat="45.3988067" lon="10.5320043"><ele>132.0</ele><time>2026-03-29T08:43:16.988Z</time></trkpt><trkpt lat="45.3987161" lon="10.5321225"><ele>132.0</ele><time>2026-03-29T08:43:17.988Z</time></trkpt><trkpt lat="45.3986281" lon="10.5322326"><ele>131.2</ele><time>2026-03-29T08:43:18.988Z</time></trkpt><trkpt lat="45.3985496" lon="10.5323277"><ele>130.39999999999998</ele><time>2026-03-29T08:43:19.988Z</time></trkpt><trkpt lat="45.3984806" lon="10.5324174"><ele>129.60000000000002</ele><time>2026-03-29T08:43:20.987Z</time></trkpt><trkpt lat="45.3984228" lon="10.5324904"><ele>128.8</ele><time>2026-03-29T08:43:21.987Z</time></trkpt><trkpt lat="45.3983629" lon="10.532613"><ele>128.0</ele><time>2026-03-29T08:43:23.988Z</time></trkpt><trkpt lat="45.3983825" lon="10.5327813"><ele>127.99999999999999</ele><time>2026-03-29T08:43:25.988Z</time></trkpt><trkpt lat="45.3984266" lon="10.5328794"><ele>128.0</ele><time>2026-03-29T08:43:26.987Z</time></trkpt><trkpt lat="45.3984643" lon="10.5330067"><ele>128.0</ele><time>2026-03-29T08:43:28.987Z</time></trkpt><trkpt lat="45.3985296" lon="10.5331201"><ele>128.0</ele><time>2026-03-29T08:43:30.988Z</time></trkpt><trkpt lat="45.3985676" lon="10.5331916"><ele>127.99999999999999</ele><time>2026-03-29T08:43:31.988Z</time></trkpt><trkpt lat="45.3986077" lon="10.5333002"><ele>128.0</ele><time>2026-03-29T08:43:32.988Z</time></trkpt><trkpt lat="45.3986457" lon="10.5334318"><ele>128.0</ele><time>2026-03-29T08:43:33.987Z</time></trkpt><trkpt lat="45.3986803" lon="10.533573"><ele>128.0</ele><time>2026-03-29T08:43:34.988Z</time></trkpt><trkpt lat="45.3987316" lon="10.5337269"><ele>128.0</ele><time>2026-03-29T08:43:35.988Z</time></trkpt><trkpt lat="45.398811" lon="10.5338841"><ele>128.0</ele><time>2026-03-29T08:43:36.988Z</time></trkpt><trkpt lat="45.3989094" lon="10.5340365"><ele>127.75</ele><time>2026-03-29T08:43:37.988Z</time></trkpt><trkpt lat="45.3990288" lon="10.5341754"><ele>127.5</ele><time>2026-03-29T08:43:38.988Z</time></trkpt><trkpt lat="45.3991358" lon="10.5343085"><ele>127.25</ele><time>2026-03-29T08:43:39.988Z</time></trkpt><trkpt lat="45.3992322" lon="10.5344516"><ele>127.0</ele><time>2026-03-29T08:43:40.988Z</time></trkpt><trkpt lat="45.3993104" lon="10.5346009"><ele>128.0</ele><time>2026-03-29T08:43:41.988Z</time></trkpt><trkpt lat="45.3993741" lon="10.5347634"><ele>129.0</ele><time>2026-03-29T08:43:42.988Z</time></trkpt><trkpt lat="45.3994297" lon="10.5349458"><ele>130.0</ele><time>2026-03-29T08:43:43.988Z</time></trkpt><trkpt lat="45.399464" lon="10.5351264"><ele>131.0</ele><time>2026-03-29T08:43:44.988Z</time></trkpt><trkpt lat="45.3994861" lon="10.5353228"><ele>131.0</ele><time>2026-03-29T08:43:45.988Z</time></trkpt><trkpt lat="45.3994923" lon="10.5355445"><ele>131.0</ele><time>2026-03-29T08:43:46.988Z</time></trkpt><trkpt lat="45.3994821" lon="10.5357856"><ele>131.0</ele><time>2026-03-29T08:43:47.988Z</time></trkpt><trkpt lat="45.3994642" lon="10.5360358"><ele>130.0</ele><time>2026-03-29T08:43:48.987Z</time></trkpt><trkpt lat="45.3994459" lon="10.536284"><ele>129.0</ele><time>2026-03-29T08:43:49.987Z</time></trkpt><trkpt lat="45.3994298" lon="10.5365188"><ele>128.0</ele><time>2026-03-29T08:43:50.987Z</time></trkpt><trkpt lat="45.3994088" lon="10.5367503"><ele>128.0</ele><time>2026-03-29T08:43:51.988Z</time></trkpt><trkpt lat="45.3993852" lon="10.5369856"><ele>128.0</ele><time>2026-03-29T08:43:52.987Z</time></trkpt><trkpt lat="45.399358" lon="10.5372291"><ele>128.0</ele><time>2026-03-29T08:43:53.988Z</time></trkpt><trkpt lat="45.3993172" lon="10.5374769"><ele>126.66666666666666</ele><time>2026-03-29T08:43:54.988Z</time></trkpt><trkpt lat="45.3992642" lon="10.5377248"><ele>125.33333333333334</ele><time>2026-03-29T08:43:55.988Z</time></trkpt><trkpt lat="45.3992157" lon="10.5379745"><ele>124.0</ele><time>2026-03-29T08:43:56.987Z</time></trkpt><trkpt lat="45.399171" lon="10.5382222"><ele>123.0</ele><time>2026-03-29T08:43:57.988Z</time></trkpt><trkpt lat="45.3991408" lon="10.5384656"><ele>122.0</ele><time>2026-03-29T08:43:58.988Z</time></trkpt><trkpt lat="45.3991213" lon="10.5387037"><ele>121.0</ele><time>2026-03-29T08:43:59.988Z</time></trkpt><trkpt lat="45.3991038" lon="10.5389304"><ele>120.75</ele><time>2026-03-29T08:44:00.988Z</time></trkpt><trkpt lat="45.3990812" lon="10.5391567"><ele>120.5</ele><time>2026-03-29T08:44:01.987Z</time></trkpt><trkpt lat="45.3990599" lon="10.5393624"><ele>120.25</ele><time>2026-03-29T08:44:02.987Z</time></trkpt><trkpt lat="45.3990396" lon="10.5395622"><ele>120.0</ele><time>2026-03-29T08:44:03.987Z</time></trkpt><trkpt lat="45.3990039" lon="10.5397618"><ele>118.33333333333334</ele><time>2026-03-29T08:44:04.988Z</time></trkpt><trkpt lat="45.3989513" lon="10.5399736"><ele>116.66666666666667</ele><time>2026-03-29T08:44:05.987Z</time></trkpt><trkpt lat="45.3988941" lon="10.5401768"><ele>115.0</ele><time>2026-03-29T08:44:06.988Z</time></trkpt><trkpt lat="45.3988389" lon="10.5403774"><ele>115.75</ele><time>2026-03-29T08:44:07.988Z</time></trkpt><trkpt lat="45.3987816" lon="10.5405749"><ele>116.5</ele><time>2026-03-29T08:44:08.987Z</time></trkpt><trkpt lat="45.398726" lon="10.5407598"><ele>117.25</ele><time>2026-03-29T08:44:09.987Z</time></trkpt><trkpt lat="45.3986736" lon="10.5409269"><ele>118.0</ele><time>2026-03-29T08:44:10.987Z</time></trkpt><trkpt lat="45.3986366" lon="10.5410745"><ele>118.0</ele><time>2026-03-29T08:44:11.988Z</time></trkpt><trkpt lat="45.3986184" lon="10.5412116"><ele>118.00000000000001</ele><time>2026-03-29T08:44:12.988Z</time></trkpt><trkpt lat="45.3986195" lon="10.5413458"><ele>118.00000000000001</ele><time>2026-03-29T08:44:13.987Z</time></trkpt><trkpt lat="45.3986571" lon="10.5414927"><ele>118.0</ele><time>2026-03-29T08:44:14.988Z</time></trkpt><trkpt lat="45.3987144" lon="10.5416251"><ele>118.0</ele><time>2026-03-29T08:44:15.989Z</time></trkpt><trkpt lat="45.3987685" lon="10.5417493"><ele>117.0</ele><time>2026-03-29T08:44:16.987Z</time></trkpt><trkpt lat="45.3988037" lon="10.5418704"><ele>116.00000000000001</ele><time>2026-03-29T08:44:17.988Z</time></trkpt><trkpt lat="45.3988158" lon="10.5420214"><ele>115.00000000000001</ele><time>2026-03-29T08:44:18.988Z</time></trkpt><trkpt lat="45.3987974" lon="10.5421726"><ele>114.0</ele><time>2026-03-29T08:44:19.988Z</time></trkpt><trkpt lat="45.3987436" lon="10.5423432"><ele>113.0</ele><time>2026-03-29T08:44:20.988Z</time></trkpt><trkpt lat="45.3986797" lon="10.5425294"><ele>112.33333333333333</ele><time>2026-03-29T08:44:21.988Z</time></trkpt><trkpt lat="45.3986333" lon="10.5427357"><ele>111.66666666666666</ele><time>2026-03-29T08:44:22.987Z</time></trkpt><trkpt lat="45.398591" lon="10.5429654"><ele>111.0</ele><time>2026-03-29T08:44:23.986Z</time></trkpt><trkpt lat="45.3985415" lon="10.5431989"><ele>111.0</ele><time>2026-03-29T08:44:24.987Z</time></trkpt><trkpt lat="45.3984673" lon="10.5434406"><ele>111.0</ele><time>2026-03-29T08:44:25.986Z</time></trkpt><trkpt lat="45.3983803" lon="10.5436868"><ele>111.0</ele><time>2026-03-29T08:44:26.986Z</time></trkpt><trkpt lat="45.3982837" lon="10.5439476"><ele>111.66666666666666</ele><time>2026-03-29T08:44:27.986Z</time></trkpt><trkpt lat="45.3981867" lon="10.5441895"><ele>112.33333333333333</ele><time>2026-03-29T08:44:28.987Z</time></trkpt><trkpt lat="45.3980856" lon="10.5444015"><ele>113.0</ele><time>2026-03-29T08:44:29.987Z</time></trkpt><trkpt lat="45.3979851" lon="10.5445896"><ele>113.0</ele><time>2026-03-29T08:44:30.987Z</time></trkpt><trkpt lat="45.3978944" lon="10.5447641"><ele>113.0</ele><time>2026-03-29T08:44:31.987Z</time></trkpt><trkpt lat="45.3978175" lon="10.5449475"><ele>113.0</ele><time>2026-03-29T08:44:32.987Z</time></trkpt><trkpt lat="45.3977492" lon="10.545154"><ele>113.0</ele><time>2026-03-29T08:44:33.986Z</time></trkpt><trkpt lat="45.3976932" lon="10.5453547"><ele>113.0</ele><time>2026-03-29T08:44:34.986Z</time></trkpt><trkpt lat="45.3976498" lon="10.5455289"><ele>113.0</ele><time>2026-03-29T08:44:35.986Z</time></trkpt><trkpt lat="45.3976192" lon="10.545698"><ele>113.0</ele><time>2026-03-29T08:44:36.988Z</time></trkpt><trkpt lat="45.3976115" lon="10.5458677"><ele>113.0</ele><time>2026-03-29T08:44:37.987Z</time></trkpt><trkpt lat="45.3976273" lon="10.5460553"><ele>113.0</ele><time>2026-03-29T08:44:38.986Z</time></trkpt><trkpt lat="45.3976586" lon="10.5462689"><ele>113.0</ele><time>2026-03-29T08:44:39.986Z</time></trkpt><trkpt lat="45.3976817" lon="10.5464949"><ele>113.0</ele><time>2026-03-29T08:44:40.986Z</time></trkpt><trkpt lat="45.3976819" lon="10.5467261"><ele>113.0</ele><time>2026-03-29T08:44:41.987Z</time></trkpt><trkpt lat="45.3976559" lon="10.5469621"><ele>113.0</ele><time>2026-03-29T08:44:42.987Z</time></trkpt><trkpt lat="45.397603" lon="10.5472098"><ele>113.0</ele><time>2026-03-29T08:44:43.987Z</time></trkpt><trkpt lat="45.3975426" lon="10.5474579"><ele>114.0</ele><time>2026-03-29T08:44:44.986Z</time></trkpt><trkpt lat="45.3974947" lon="10.5476691"><ele>115.0</ele><time>2026-03-29T08:44:45.986Z</time></trkpt><trkpt lat="45.3974529" lon="10.5478866"><ele>116.0</ele><time>2026-03-29T08:44:46.986Z</time></trkpt><trkpt lat="45.3974191" lon="10.5481194"><ele>116.33333333333333</ele><time>2026-03-29T08:44:47.987Z</time></trkpt><trkpt lat="45.39739" lon="10.5483575"><ele>116.66666666666666</ele><time>2026-03-29T08:44:48.987Z</time></trkpt><trkpt lat="45.3973567" lon="10.548603"><ele>117.0</ele><time>2026-03-29T08:44:49.986Z</time></trkpt><trkpt lat="45.3973247" lon="10.5488634"><ele>118.0</ele><time>2026-03-29T08:44:50.986Z</time></trkpt><trkpt lat="45.3972987" lon="10.5491299"><ele>119.0</ele><time>2026-03-29T08:44:51.986Z</time></trkpt><trkpt lat="45.3972669" lon="10.5494077"><ele>120.0</ele><time>2026-03-29T08:44:52.986Z</time></trkpt><trkpt lat="45.3972288" lon="10.5497033"><ele>120.66666666666666</ele><time>2026-03-29T08:44:53.986Z</time></trkpt><trkpt lat="45.3971962" lon="10.5499858"><ele>121.33333333333333</ele><time>2026-03-29T08:44:54.986Z</time></trkpt><trkpt lat="45.3971649" lon="10.5502305"><ele>122.0</ele><time>2026-03-29T08:44:55.987Z</time></trkpt><trkpt lat="45.3971288" lon="10.5504577"><ele>120.25</ele><time>2026-03-29T08:44:56.987Z</time></trkpt><trkpt lat="45.3970787" lon="10.5506694"><ele>118.5</ele><time>2026-03-29T08:44:57.986Z</time></trkpt><trkpt lat="45.397024" lon="10.5508612"><ele>116.75</ele><time>2026-03-29T08:44:58.986Z</time></trkpt><trkpt lat="45.3969796" lon="10.5510376"><ele>115.0</ele><time>2026-03-29T08:44:59.986Z</time></trkpt><trkpt lat="45.3969473" lon="10.5512067"><ele>116.00000000000001</ele><time>2026-03-29T08:45:00.987Z</time></trkpt><trkpt lat="45.3969239" lon="10.5513488"><ele>117.0</ele><time>2026-03-29T08:45:01.987Z</time></trkpt><trkpt lat="45.3969075" lon="10.5514643"><ele>118.0</ele><time>2026-03-29T08:45:02.987Z</time></trkpt><trkpt lat="45.3968991" lon="10.5516005"><ele>119.0</ele><time>2026-03-29T08:45:04.987Z</time></trkpt><trkpt lat="45.396841" lon="10.5516676"><ele>120.00000000000001</ele><time>2026-03-29T08:45:13.987Z</time></trkpt><trkpt lat="45.396764" lon="10.5516628"><ele>121.0</ele><time>2026-03-29T08:45:15.987Z</time></trkpt><trkpt lat="45.3966995" lon="10.551657"><ele>121.0</ele><time>2026-03-29T08:45:16.988Z</time></trkpt><trkpt lat="45.3966061" lon="10.5516559"><ele>121.0</ele><time>2026-03-29T08:45:17.987Z</time></trkpt><trkpt lat="45.396501" lon="10.5516544"><ele>121.0</ele><time>2026-03-29T08:45:18.986Z</time></trkpt><trkpt lat="45.3963847" lon="10.5516543"><ele>121.0</ele><time>2026-03-29T08:45:19.986Z</time></trkpt><trkpt lat="45.3962578" lon="10.5516687"><ele>121.0</ele><time>2026-03-29T08:45:20.986Z</time></trkpt><trkpt lat="45.3961357" lon="10.5516816"><ele>121.25</ele><time>2026-03-29T08:45:21.986Z</time></trkpt><trkpt lat="45.3960156" lon="10.551697"><ele>121.5</ele><time>2026-03-29T08:45:22.987Z</time></trkpt><trkpt lat="45.3958929" lon="10.551721"><ele>121.75</ele><time>2026-03-29T08:45:23.986Z</time></trkpt><trkpt lat="45.3957803" lon="10.5517468"><ele>122.0</ele><time>2026-03-29T08:45:24.987Z</time></trkpt><trkpt lat="45.3956752" lon="10.5517702"><ele>122.0</ele><time>2026-03-29T08:45:25.986Z</time></trkpt><trkpt lat="45.3955761" lon="10.5517755"><ele>121.99999999999999</ele><time>2026-03-29T08:45:26.986Z</time></trkpt><trkpt lat="45.3954806" lon="10.5517736"><ele>121.99999999999999</ele><time>2026-03-29T08:45:27.986Z</time></trkpt><trkpt lat="45.3953833" lon="10.5517548"><ele>122.0</ele><time>2026-03-29T08:45:28.986Z</time></trkpt><trkpt lat="45.3952907" lon="10.5517234"><ele>122.0</ele><time>2026-03-29T08:45:29.987Z</time></trkpt><trkpt lat="45.3951963" lon="10.5516835"><ele>122.19999999999999</ele><time>2026-03-29T08:45:30.986Z</time></trkpt><trkpt lat="45.3951009" lon="10.5516451"><ele>122.39999999999999</ele><time>2026-03-29T08:45:31.987Z</time></trkpt><trkpt lat="45.3949993" lon="10.5516085"><ele>122.60000000000001</ele><time>2026-03-29T08:45:32.987Z</time></trkpt><trkpt lat="45.3948901" lon="10.5515804"><ele>122.80000000000001</ele><time>2026-03-29T08:45:33.987Z</time></trkpt><trkpt lat="45.3947839" lon="10.551556"><ele>123.0</ele><time>2026-03-29T08:45:34.987Z</time></trkpt><trkpt lat="45.3946665" lon="10.5515325"><ele>121.5</ele><time>2026-03-29T08:45:35.987Z</time></trkpt><trkpt lat="45.3945414" lon="10.5515261"><ele>120.0</ele><time>2026-03-29T08:45:36.986Z</time></trkpt><trkpt lat="45.394415" lon="10.5515368"><ele>118.5</ele><time>2026-03-29T08:45:37.986Z</time></trkpt><trkpt lat="45.3942822" lon="10.5515566"><ele>117.0</ele><time>2026-03-29T08:45:38.987Z</time></trkpt><trkpt lat="45.3941547" lon="10.5515876"><ele>117.0</ele><time>2026-03-29T08:45:39.986Z</time></trkpt><trkpt lat="45.394023" lon="10.5516188"><ele>117.0</ele><time>2026-03-29T08:45:40.987Z</time></trkpt><trkpt lat="45.3938979" lon="10.5516557"><ele>117.0</ele><time>2026-03-29T08:45:41.987Z</time></trkpt><trkpt lat="45.3937723" lon="10.5517072"><ele>117.0</ele><time>2026-03-29T08:45:42.986Z</time></trkpt><trkpt lat="45.3936473" lon="10.5517492"><ele>116.0</ele><time>2026-03-29T08:45:43.986Z</time></trkpt><trkpt lat="45.3935387" lon="10.5518065"><ele>114.99999999999999</ele><time>2026-03-29T08:45:44.987Z</time></trkpt><trkpt lat="45.3934368" lon="10.5518556"><ele>113.99999999999999</ele><time>2026-03-29T08:45:45.987Z</time></trkpt><trkpt lat="45.3933335" lon="10.5518857"><ele>113.0</ele><time>2026-03-29T08:45:46.987Z</time></trkpt><trkpt lat="45.3932328" lon="10.5519062"><ele>112.0</ele><time>2026-03-29T08:45:47.986Z</time></trkpt><trkpt lat="45.3931823" lon="10.5518085"><ele>112.0</ele><time>2026-03-29T08:45:48.987Z</time></trkpt><trkpt lat="45.393097" lon="10.5517176"><ele>112.0</ele><time>2026-03-29T08:45:49.986Z</time></trkpt><trkpt lat="45.3930101" lon="10.5516025"><ele>112.0</ele><time>2026-03-29T08:45:50.987Z</time></trkpt><trkpt lat="45.392898" lon="10.5515062"><ele>112.0</ele><time>2026-03-29T08:45:51.987Z</time></trkpt><trkpt lat="45.3927801" lon="10.551422"><ele>111.5</ele><time>2026-03-29T08:45:52.987Z</time></trkpt><trkpt lat="45.3926406" lon="10.5513664"><ele>111.0</ele><time>2026-03-29T08:45:53.986Z</time></trkpt><trkpt lat="45.3924806" lon="10.5513162"><ele>110.5</ele><time>2026-03-29T08:45:54.987Z</time></trkpt><trkpt lat="45.3923469" lon="10.5512588"><ele>110.0</ele><time>2026-03-29T08:45:55.987Z</time></trkpt><trkpt lat="45.3922245" lon="10.5512099"><ele>111.5</ele><time>2026-03-29T08:45:56.987Z</time></trkpt><trkpt lat="45.3921087" lon="10.5511608"><ele>113.0</ele><time>2026-03-29T08:45:57.987Z</time></trkpt><trkpt lat="45.391993" lon="10.5511163"><ele>114.5</ele><time>2026-03-29T08:45:58.986Z</time></trkpt><trkpt lat="45.3918807" lon="10.5510753"><ele>116.0</ele><time>2026-03-29T08:45:59.987Z</time></trkpt><trkpt lat="45.3917693" lon="10.5510341"><ele>116.0</ele><time>2026-03-29T08:46:00.987Z</time></trkpt><trkpt lat="45.3916516" lon="10.5509846"><ele>116.0</ele><time>2026-03-29T08:46:01.987Z</time></trkpt><trkpt lat="45.3915343" lon="10.5509335"><ele>116.0</ele><time>2026-03-29T08:46:02.988Z</time></trkpt><trkpt lat="45.3914128" lon="10.5508833"><ele>116.0</ele><time>2026-03-29T08:46:03.987Z</time></trkpt><trkpt lat="45.3912891" lon="10.5508314"><ele>116.75</ele><time>2026-03-29T08:46:04.987Z</time></trkpt><trkpt lat="45.3911617" lon="10.5507749"><ele>117.5</ele><time>2026-03-29T08:46:05.987Z</time></trkpt><trkpt lat="45.3910325" lon="10.5507187"><ele>118.25</ele><time>2026-03-29T08:46:06.987Z</time></trkpt><trkpt lat="45.3909089" lon="10.5506652"><ele>119.0</ele><time>2026-03-29T08:46:07.987Z</time></trkpt><trkpt lat="45.3908057" lon="10.5506143"><ele>119.0</ele><time>2026-03-29T08:46:08.986Z</time></trkpt><trkpt lat="45.3907294" lon="10.5505399"><ele>119.0</ele><time>2026-03-29T08:46:09.987Z</time></trkpt><trkpt lat="45.3906729" lon="10.5504402"><ele>119.0</ele><time>2026-03-29T08:46:10.987Z</time></trkpt><trkpt lat="45.3906275" lon="10.5503087"><ele>119.0</ele><time>2026-03-29T08:46:11.987Z</time></trkpt><trkpt lat="45.3905982" lon="10.5501694"><ele>119.0</ele><time>2026-03-29T08:46:12.987Z</time></trkpt><trkpt lat="45.3905672" lon="10.5500186"><ele>120.0</ele><time>2026-03-29T08:46:13.986Z</time></trkpt><trkpt lat="45.3905304" lon="10.549874"><ele>121.0</ele><time>2026-03-29T08:46:14.987Z</time></trkpt><trkpt lat="45.390495" lon="10.5497207"><ele>122.0</ele><time>2026-03-29T08:46:15.987Z</time></trkpt><trkpt lat="45.3904578" lon="10.5495608"><ele>123.0</ele><time>2026-03-29T08:46:16.987Z</time></trkpt><trkpt lat="45.3904172" lon="10.549394"><ele>123.5</ele><time>2026-03-29T08:46:17.986Z</time></trkpt><trkpt lat="45.3903777" lon="10.5492264"><ele>124.0</ele><time>2026-03-29T08:46:18.987Z</time></trkpt><trkpt lat="45.3903371" lon="10.5490568"><ele>124.5</ele><time>2026-03-29T08:46:19.986Z</time></trkpt><trkpt lat="45.3902986" lon="10.5489076"><ele>125.0</ele><time>2026-03-29T08:46:20.987Z</time></trkpt><trkpt lat="45.3902618" lon="10.5487613"><ele>123.75</ele><time>2026-03-29T08:46:21.987Z</time></trkpt><trkpt lat="45.3902243" lon="10.5486132"><ele>122.5</ele><time>2026-03-29T08:46:22.986Z</time></trkpt><trkpt lat="45.3901804" lon="10.548452"><ele>121.25</ele><time>2026-03-29T08:46:23.987Z</time></trkpt><trkpt lat="45.3901321" lon="10.5482782"><ele>120.0</ele><time>2026-03-29T08:46:24.987Z</time></trkpt><trkpt lat="45.3900788" lon="10.5480977"><ele>120.0</ele><time>2026-03-29T08:46:25.986Z</time></trkpt><trkpt lat="45.3900223" lon="10.5479058"><ele>120.0</ele><time>2026-03-29T08:46:26.986Z</time></trkpt><trkpt lat="45.3899684" lon="10.5477037"><ele>120.0</ele><time>2026-03-29T08:46:27.987Z</time></trkpt><trkpt lat="45.3899137" lon="10.5475062"><ele>120.0</ele><time>2026-03-29T08:46:28.986Z</time></trkpt><trkpt lat="45.3898537" lon="10.5473054"><ele>120.0</ele><time>2026-03-29T08:46:29.987Z</time></trkpt><trkpt lat="45.3897899" lon="10.5471047"><ele>120.0</ele><time>2026-03-29T08:46:30.987Z</time></trkpt><trkpt lat="45.3897208" lon="10.5469015"><ele>120.0</ele><time>2026-03-29T08:46:31.986Z</time></trkpt><trkpt lat="45.3896441" lon="10.546686"><ele>119.66666666666666</ele><time>2026-03-29T08:46:32.986Z</time></trkpt><trkpt lat="45.3895695" lon="10.5464686"><ele>119.33333333333333</ele><time>2026-03-29T08:46:33.986Z</time></trkpt><trkpt lat="45.389499" lon="10.5462616"><ele>119.0</ele><time>2026-03-29T08:46:34.987Z</time></trkpt><trkpt lat="45.3894247" lon="10.546056"><ele>121.0</ele><time>2026-03-29T08:46:35.987Z</time></trkpt><trkpt lat="45.3893562" lon="10.5458498"><ele>123.0</ele><time>2026-03-29T08:46:36.987Z</time></trkpt><trkpt lat="45.389289" lon="10.5456568"><ele>125.0</ele><time>2026-03-29T08:46:37.987Z</time></trkpt><trkpt lat="45.38922" lon="10.5454822"><ele>126.0</ele><time>2026-03-29T08:46:38.987Z</time></trkpt><trkpt lat="45.3891572" lon="10.5453301"><ele>127.0</ele><time>2026-03-29T08:46:39.987Z</time></trkpt><trkpt lat="45.3891093" lon="10.5451961"><ele>128.0</ele><time>2026-03-29T08:46:40.987Z</time></trkpt><trkpt lat="45.3890664" lon="10.5450905"><ele>129.0</ele><time>2026-03-29T08:46:41.987Z</time></trkpt><trkpt lat="45.3890284" lon="10.5450175"><ele>130.0</ele><time>2026-03-29T08:46:42.986Z</time></trkpt><trkpt lat="45.38895" lon="10.5449718"><ele>130.0</ele><time>2026-03-29T08:46:44.987Z</time></trkpt><trkpt lat="45.3888487" lon="10.5450441"><ele>130.0</ele><time>2026-03-29T08:46:46.987Z</time></trkpt><trkpt lat="45.3887943" lon="10.5451387"><ele>130.0</ele><time>2026-03-29T08:46:47.987Z</time></trkpt><trkpt lat="45.3887228" lon="10.5452459"><ele>130.0</ele><time>2026-03-29T08:46:48.986Z</time></trkpt><trkpt lat="45.3886376" lon="10.5453758"><ele>130.0</ele><time>2026-03-29T08:46:49.986Z</time></trkpt><trkpt lat="45.3885429" lon="10.5455148"><ele>128.25</ele><time>2026-03-29T08:46:50.987Z</time></trkpt><trkpt lat="45.3884379" lon="10.5456707"><ele>126.5</ele><time>2026-03-29T08:46:51.987Z</time></trkpt><trkpt lat="45.3883309" lon="10.5458182"><ele>124.75</ele><time>2026-03-29T08:46:52.986Z</time></trkpt><trkpt lat="45.3882195" lon="10.5459519"><ele>123.0</ele><time>2026-03-29T08:46:53.987Z</time></trkpt><trkpt lat="45.3881014" lon="10.546073"><ele>123.0</ele><time>2026-03-29T08:46:54.986Z</time></trkpt><trkpt lat="45.3879827" lon="10.5461889"><ele>123.0</ele><time>2026-03-29T08:46:55.986Z</time></trkpt><trkpt lat="45.3878623" lon="10.5463141"><ele>123.0</ele><time>2026-03-29T08:46:56.987Z</time></trkpt><trkpt lat="45.3877424" lon="10.5464412"><ele>123.0</ele><time>2026-03-29T08:46:57.987Z</time></trkpt><trkpt lat="45.3876265" lon="10.546578"><ele>123.25</ele><time>2026-03-29T08:46:58.986Z</time></trkpt><trkpt lat="45.387504" lon="10.5467034"><ele>123.5</ele><time>2026-03-29T08:46:59.987Z</time></trkpt><trkpt lat="45.3873787" lon="10.5468129"><ele>123.75</ele><time>2026-03-29T08:47:00.986Z</time></trkpt><trkpt lat="45.3872556" lon="10.5469287"><ele>124.0</ele><time>2026-03-29T08:47:01.986Z</time></trkpt><trkpt lat="45.3871323" lon="10.5470509"><ele>124.25</ele><time>2026-03-29T08:47:02.987Z</time></trkpt><trkpt lat="45.3870071" lon="10.5471795"><ele>124.5</ele><time>2026-03-29T08:47:03.987Z</time></trkpt><trkpt lat="45.3868831" lon="10.5473056"><ele>124.75</ele><time>2026-03-29T08:47:04.987Z</time></trkpt><trkpt lat="45.3867695" lon="10.5474218"><ele>125.0</ele><time>2026-03-29T08:47:05.986Z</time></trkpt><trkpt lat="45.3866537" lon="10.5475396"><ele>125.0</ele><time>2026-03-29T08:47:06.987Z</time></trkpt><trkpt lat="45.3865416" lon="10.5476643"><ele>125.0</ele><time>2026-03-29T08:47:07.986Z</time></trkpt><trkpt lat="45.3864337" lon="10.5477887"><ele>125.0</ele><time>2026-03-29T08:47:08.987Z</time></trkpt><trkpt lat="45.3863249" lon="10.5479014"><ele>125.0</ele><time>2026-03-29T08:47:09.986Z</time></trkpt><trkpt lat="45.386216" lon="10.5480083"><ele>125.0</ele><time>2026-03-29T08:47:10.987Z</time></trkpt><trkpt lat="45.3861075" lon="10.5481094"><ele>125.0</ele><time>2026-03-29T08:47:11.986Z</time></trkpt><trkpt lat="45.3859952" lon="10.5481933"><ele>125.0</ele><time>2026-03-29T08:47:12.986Z</time></trkpt><trkpt lat="45.3858938" lon="10.5482621"><ele>125.0</ele><time>2026-03-29T08:47:13.987Z</time></trkpt><trkpt lat="45.3857945" lon="10.5483368"><ele>125.0</ele><time>2026-03-29T08:47:14.986Z</time></trkpt><trkpt lat="45.3857015" lon="10.5484385"><ele>125.0</ele><time>2026-03-29T08:47:15.986Z</time></trkpt><trkpt lat="45.3855963" lon="10.548565"><ele>125.0</ele><time>2026-03-29T08:47:16.986Z</time></trkpt><trkpt lat="45.3855007" lon="10.5487018"><ele>125.0</ele><time>2026-03-29T08:47:17.986Z</time></trkpt><trkpt lat="45.3853952" lon="10.5488628"><ele>126.0</ele><time>2026-03-29T08:47:18.987Z</time></trkpt><trkpt lat="45.3852919" lon="10.5490119"><ele>127.0</ele><time>2026-03-29T08:47:19.987Z</time></trkpt><trkpt lat="45.3851847" lon="10.5491505"><ele>128.0</ele><time>2026-03-29T08:47:20.987Z</time></trkpt><trkpt lat="45.3850801" lon="10.5492676"><ele>129.0</ele><time>2026-03-29T08:47:21.986Z</time></trkpt><trkpt lat="45.3849801" lon="10.549375"><ele>129.0</ele><time>2026-03-29T08:47:22.986Z</time></trkpt><trkpt lat="45.384877" lon="10.5494737"><ele>129.0</ele><time>2026-03-29T08:47:23.986Z</time></trkpt><trkpt lat="45.3847713" lon="10.5495645"><ele>129.0</ele><time>2026-03-29T08:47:24.986Z</time></trkpt><trkpt lat="45.3846677" lon="10.5496427"><ele>129.0</ele><time>2026-03-29T08:47:25.987Z</time></trkpt><trkpt lat="45.3845539" lon="10.5497125"><ele>130.25</ele><time>2026-03-29T08:47:26.987Z</time></trkpt><trkpt lat="45.3844331" lon="10.5497811"><ele>131.5</ele><time>2026-03-29T08:47:27.987Z</time></trkpt><trkpt lat="45.3843108" lon="10.5498448"><ele>132.75</ele><time>2026-03-29T08:47:28.988Z</time></trkpt><trkpt lat="45.3841847" lon="10.549911"><ele>134.0</ele><time>2026-03-29T08:47:29.988Z</time></trkpt><trkpt lat="45.3840635" lon="10.5499625"><ele>134.0</ele><time>2026-03-29T08:47:30.986Z</time></trkpt><trkpt lat="45.3839507" lon="10.5500192"><ele>134.0</ele><time>2026-03-29T08:47:31.987Z</time></trkpt><trkpt lat="45.3838388" lon="10.5500809"><ele>134.0</ele><time>2026-03-29T08:47:32.986Z</time></trkpt><trkpt lat="45.3837317" lon="10.5501436"><ele>134.0</ele><time>2026-03-29T08:47:33.987Z</time></trkpt><trkpt lat="45.3836342" lon="10.5502016"><ele>133.0</ele><time>2026-03-29T08:47:34.987Z</time></trkpt><trkpt lat="45.3835558" lon="10.5502682"><ele>132.0</ele><time>2026-03-29T08:47:35.987Z</time></trkpt><trkpt lat="45.3834643" lon="10.5503378"><ele>131.0</ele><time>2026-03-29T08:47:36.987Z</time></trkpt><trkpt lat="45.383371" lon="10.5504116"><ele>130.0</ele><time>2026-03-29T08:47:37.987Z</time></trkpt><trkpt lat="45.3832717" lon="10.5505055"><ele>129.0</ele><time>2026-03-29T08:47:38.986Z</time></trkpt><trkpt lat="45.383169" lon="10.5505948"><ele>129.0</ele><time>2026-03-29T08:47:39.987Z</time></trkpt><trkpt lat="45.3830686" lon="10.5506954"><ele>129.0</ele><time>2026-03-29T08:47:40.987Z</time></trkpt><trkpt lat="45.3829449" lon="10.5507967"><ele>129.0</ele><time>2026-03-29T08:47:41.986Z</time></trkpt><trkpt lat="45.382797" lon="10.5508928"><ele>129.0</ele><time>2026-03-29T08:47:42.986Z</time></trkpt><trkpt lat="45.3826386" lon="10.5509917"><ele>128.33333333333334</ele><time>2026-03-29T08:47:43.987Z</time></trkpt><trkpt lat="45.3824796" lon="10.5510775"><ele>127.66666666666667</ele><time>2026-03-29T08:47:44.987Z</time></trkpt><trkpt lat="45.3823234" lon="10.5511536"><ele>127.0</ele><time>2026-03-29T08:47:45.986Z</time></trkpt><trkpt lat="45.3821672" lon="10.5512244"><ele>126.33333333333334</ele><time>2026-03-29T08:47:46.987Z</time></trkpt><trkpt lat="45.382015" lon="10.5512955"><ele>125.66666666666666</ele><time>2026-03-29T08:47:47.987Z</time></trkpt><trkpt lat="45.3818649" lon="10.5513616"><ele>125.0</ele><time>2026-03-29T08:47:48.986Z</time></trkpt><trkpt lat="45.3817174" lon="10.5514344"><ele>125.0</ele><time>2026-03-29T08:47:49.986Z</time></trkpt><trkpt lat="45.3815789" lon="10.5515203"><ele>125.0</ele><time>2026-03-29T08:47:50.987Z</time></trkpt><trkpt lat="45.3814441" lon="10.5516092"><ele>125.0</ele><time>2026-03-29T08:47:51.986Z</time></trkpt><trkpt lat="45.3813179" lon="10.5516949"><ele>125.0</ele><time>2026-03-29T08:47:52.987Z</time></trkpt><trkpt lat="45.3812101" lon="10.551782"><ele>124.75</ele><time>2026-03-29T08:47:53.987Z</time></trkpt><trkpt lat="45.381108" lon="10.5518591"><ele>124.5</ele><time>2026-03-29T08:47:54.986Z</time></trkpt><trkpt lat="45.3810001" lon="10.5519466"><ele>124.25</ele><time>2026-03-29T08:47:55.986Z</time></trkpt><trkpt lat="45.38088" lon="10.5520375"><ele>124.0</ele><time>2026-03-29T08:47:56.987Z</time></trkpt><trkpt lat="45.3807678" lon="10.5521233"><ele>124.0</ele><time>2026-03-29T08:47:57.986Z</time></trkpt><trkpt lat="45.3806657" lon="10.5522041"><ele>124.0</ele><time>2026-03-29T08:47:58.986Z</time></trkpt><trkpt lat="45.3805783" lon="10.5522915"><ele>124.0</ele><time>2026-03-29T08:47:59.987Z</time></trkpt><trkpt lat="45.3805078" lon="10.552396"><ele>124.0</ele><time>2026-03-29T08:48:00.987Z</time></trkpt><trkpt lat="45.3804473" lon="10.552514"><ele>124.0</ele><time>2026-03-29T08:48:01.986Z</time></trkpt><trkpt lat="45.3804052" lon="10.5526397"><ele>123.80000000000001</ele><time>2026-03-29T08:48:02.987Z</time></trkpt><trkpt lat="45.3803823" lon="10.552782"><ele>123.60000000000001</ele><time>2026-03-29T08:48:03.986Z</time></trkpt><trkpt lat="45.3803748" lon="10.5529483"><ele>123.4</ele><time>2026-03-29T08:48:04.987Z</time></trkpt><trkpt lat="45.3803752" lon="10.5530867"><ele>123.2</ele><time>2026-03-29T08:48:05.986Z</time></trkpt><trkpt lat="45.3803824" lon="10.5532056"><ele>123.0</ele><time>2026-03-29T08:48:06.987Z</time></trkpt><trkpt lat="45.3804117" lon="10.5533263"><ele>123.0</ele><time>2026-03-29T08:48:07.987Z</time></trkpt><trkpt lat="45.3804689" lon="10.5534312"><ele>123.00000000000001</ele><time>2026-03-29T08:48:08.987Z</time></trkpt><trkpt lat="45.3805533" lon="10.5535367"><ele>123.00000000000001</ele><time>2026-03-29T08:48:09.987Z</time></trkpt><trkpt lat="45.3806384" lon="10.5536528"><ele>123.0</ele><time>2026-03-29T08:48:10.987Z</time></trkpt><trkpt lat="45.3807105" lon="10.553781"><ele>123.0</ele><time>2026-03-29T08:48:11.986Z</time></trkpt><trkpt lat="45.3807575" lon="10.5539134"><ele>123.2</ele><time>2026-03-29T08:48:12.987Z</time></trkpt><trkpt lat="45.3807777" lon="10.5540439"><ele>123.4</ele><time>2026-03-29T08:48:13.986Z</time></trkpt><trkpt lat="45.3807736" lon="10.5541733"><ele>123.60000000000001</ele><time>2026-03-29T08:48:14.986Z</time></trkpt><trkpt lat="45.3807341" lon="10.5543276"><ele>123.80000000000001</ele><time>2026-03-29T08:48:15.987Z</time></trkpt><trkpt lat="45.3806749" lon="10.554494"><ele>124.0</ele><time>2026-03-29T08:48:16.987Z</time></trkpt><trkpt lat="45.3805981" lon="10.5546602"><ele>124.33333333333334</ele><time>2026-03-29T08:48:17.986Z</time></trkpt><trkpt lat="45.3805096" lon="10.5548301"><ele>124.66666666666666</ele><time>2026-03-29T08:48:18.987Z</time></trkpt><trkpt lat="45.3804327" lon="10.5550181"><ele>125.0</ele><time>2026-03-29T08:48:19.986Z</time></trkpt><trkpt lat="45.3803615" lon="10.5552175"><ele>125.6</ele><time>2026-03-29T08:48:20.987Z</time></trkpt><trkpt lat="45.3802971" lon="10.5553784"><ele>126.2</ele><time>2026-03-29T08:48:21.987Z</time></trkpt><trkpt lat="45.3802461" lon="10.5555119"><ele>126.80000000000001</ele><time>2026-03-29T08:48:22.987Z</time></trkpt><trkpt lat="45.3802088" lon="10.555625"><ele>127.4</ele><time>2026-03-29T08:48:23.987Z</time></trkpt><trkpt lat="45.3801584" lon="10.5557537"><ele>128.0</ele><time>2026-03-29T08:48:25.987Z</time></trkpt><trkpt lat="45.380072" lon="10.5559008"><ele>128.0</ele><time>2026-03-29T08:48:27.986Z</time></trkpt><trkpt lat="45.3800083" lon="10.5559791"><ele>128.0</ele><time>2026-03-29T08:48:28.987Z</time></trkpt><trkpt lat="45.3799359" lon="10.5560613"><ele>128.0</ele><time>2026-03-29T08:48:29.986Z</time></trkpt><trkpt lat="45.3798593" lon="10.5561507"><ele>128.0</ele><time>2026-03-29T08:48:30.986Z</time></trkpt><trkpt lat="45.3797751" lon="10.5562301"><ele>128.0</ele><time>2026-03-29T08:48:31.987Z</time></trkpt><trkpt lat="45.3796895" lon="10.556304"><ele>128.0</ele><time>2026-03-29T08:48:32.987Z</time></trkpt><trkpt lat="45.3796033" lon="10.5563853"><ele>128.0</ele><time>2026-03-29T08:48:33.986Z</time></trkpt><trkpt lat="45.3795237" lon="10.5564666"><ele>128.0</ele><time>2026-03-29T08:48:34.986Z</time></trkpt><trkpt lat="45.3794363" lon="10.5565496"><ele>128.0</ele><time>2026-03-29T08:48:35.987Z</time></trkpt><trkpt lat="45.3793549" lon="10.5566372"><ele>128.0</ele><time>2026-03-29T08:48:36.986Z</time></trkpt><trkpt lat="45.3792766" lon="10.5567304"><ele>128.0</ele><time>2026-03-29T08:48:37.987Z</time></trkpt><trkpt lat="45.3792102" lon="10.5568324"><ele>128.0</ele><time>2026-03-29T08:48:38.986Z</time></trkpt><trkpt lat="45.3791425" lon="10.5569514"><ele>128.0</ele><time>2026-03-29T08:48:39.987Z</time></trkpt><trkpt lat="45.3790779" lon="10.5570705"><ele>128.0</ele><time>2026-03-29T08:48:40.987Z</time></trkpt><trkpt lat="45.379013" lon="10.5572119"><ele>128.0</ele><time>2026-03-29T08:48:41.987Z</time></trkpt><trkpt lat="45.3789447" lon="10.5573635"><ele>128.25</ele><time>2026-03-29T08:48:42.986Z</time></trkpt><trkpt lat="45.3788748" lon="10.5575243"><ele>128.5</ele><time>2026-03-29T08:48:43.987Z</time></trkpt><trkpt lat="45.3788045" lon="10.5576879"><ele>128.75</ele><time>2026-03-29T08:48:44.987Z</time></trkpt><trkpt lat="45.3787369" lon="10.5578517"><ele>129.0</ele><time>2026-03-29T08:48:45.986Z</time></trkpt><trkpt lat="45.3786782" lon="10.5579982"><ele>129.33333333333334</ele><time>2026-03-29T08:48:46.987Z</time></trkpt><trkpt lat="45.3786298" lon="10.5581337"><ele>129.66666666666666</ele><time>2026-03-29T08:48:47.987Z</time></trkpt><trkpt lat="45.3785844" lon="10.5582526"><ele>130.0</ele><time>2026-03-29T08:48:48.986Z</time></trkpt><trkpt lat="45.3785467" lon="10.5583426"><ele>130.33333333333331</ele><time>2026-03-29T08:48:49.987Z</time></trkpt><trkpt lat="45.3785242" lon="10.5584535"><ele>130.66666666666666</ele><time>2026-03-29T08:48:51.987Z</time></trkpt><trkpt lat="45.3785919" lon="10.5585132"><ele>131.0</ele><time>2026-03-29T08:48:53.987Z</time></trkpt><trkpt lat="45.3787306" lon="10.5585943"><ele>131.0</ele><time>2026-03-29T08:48:55.987Z</time></trkpt><trkpt lat="45.3788116" lon="10.558665"><ele>131.0</ele><time>2026-03-29T08:48:56.986Z</time></trkpt><trkpt lat="45.3789073" lon="10.5587346"><ele>131.0</ele><time>2026-03-29T08:48:57.987Z</time></trkpt><trkpt lat="45.3790083" lon="10.5588149"><ele>131.0</ele><time>2026-03-29T08:48:58.988Z</time></trkpt><trkpt lat="45.3791109" lon="10.5589047"><ele>131.0</ele><time>2026-03-29T08:48:59.986Z</time></trkpt><trkpt lat="45.3792139" lon="10.5590008"><ele>130.5</ele><time>2026-03-29T08:49:00.987Z</time></trkpt><trkpt lat="45.3793103" lon="10.5591029"><ele>130.0</ele><time>2026-03-29T08:49:01.986Z</time></trkpt><trkpt lat="45.379394" lon="10.5592246"><ele>129.5</ele><time>2026-03-29T08:49:02.988Z</time></trkpt><trkpt lat="45.3794583" lon="10.5593677"><ele>129.0</ele><time>2026-03-29T08:49:03.987Z</time></trkpt><trkpt lat="45.3795222" lon="10.5595278"><ele>128.5</ele><time>2026-03-29T08:49:04.987Z</time></trkpt><trkpt lat="45.3795842" lon="10.5596934"><ele>128.0</ele><time>2026-03-29T08:49:05.986Z</time></trkpt><trkpt lat="45.3796508" lon="10.5598553"><ele>127.5</ele><time>2026-03-29T08:49:06.987Z</time></trkpt><trkpt lat="45.3797222" lon="10.5600172"><ele>127.0</ele><time>2026-03-29T08:49:07.986Z</time></trkpt><trkpt lat="45.3797941" lon="10.5601702"><ele>125.5</ele><time>2026-03-29T08:49:08.987Z</time></trkpt><trkpt lat="45.3798704" lon="10.560309"><ele>124.0</ele><time>2026-03-29T08:49:09.987Z</time></trkpt><trkpt lat="45.3799558" lon="10.5604324"><ele>122.5</ele><time>2026-03-29T08:49:10.987Z</time></trkpt><trkpt lat="45.380053" lon="10.5605309"><ele>121.0</ele><time>2026-03-29T08:49:11.987Z</time></trkpt><trkpt lat="45.3801626" lon="10.5605989"><ele>121.0</ele><time>2026-03-29T08:49:12.987Z</time></trkpt><trkpt lat="45.3802745" lon="10.5606511"><ele>121.0</ele><time>2026-03-29T08:49:13.986Z</time></trkpt><trkpt lat="45.3803929" lon="10.560699"><ele>121.0</ele><time>2026-03-29T08:49:14.987Z</time></trkpt><trkpt lat="45.380511" lon="10.5607391"><ele>121.0</ele><time>2026-03-29T08:49:15.986Z</time></trkpt><trkpt lat="45.3806325" lon="10.5607802"><ele>120.25</ele><time>2026-03-29T08:49:16.987Z</time></trkpt><trkpt lat="45.3807636" lon="10.5608199"><ele>119.5</ele><time>2026-03-29T08:49:17.987Z</time></trkpt><trkpt lat="45.3808989" lon="10.5608643"><ele>118.75</ele><time>2026-03-29T08:49:18.986Z</time></trkpt><trkpt lat="45.3810419" lon="10.5609099"><ele>118.0</ele><time>2026-03-29T08:49:19.987Z</time></trkpt><trkpt lat="45.3811921" lon="10.5609567"><ele>118.0</ele><time>2026-03-29T08:49:20.987Z</time></trkpt><trkpt lat="45.3813408" lon="10.5610011"><ele>118.0</ele><time>2026-03-29T08:49:21.986Z</time></trkpt><trkpt lat="45.3814902" lon="10.5610498"><ele>118.0</ele><time>2026-03-29T08:49:22.987Z</time></trkpt><trkpt lat="45.3816391" lon="10.5610998"><ele>117.0</ele><time>2026-03-29T08:49:23.987Z</time></trkpt><trkpt lat="45.3817849" lon="10.5611473"><ele>116.0</ele><time>2026-03-29T08:49:24.987Z</time></trkpt><trkpt lat="45.3819294" lon="10.5611931"><ele>115.0</ele><time>2026-03-29T08:49:25.987Z</time></trkpt><trkpt lat="45.3820687" lon="10.5612171"><ele>114.0</ele><time>2026-03-29T08:49:26.986Z</time></trkpt><trkpt lat="45.3822174" lon="10.5611882"><ele>113.33333333333334</ele><time>2026-03-29T08:49:27.987Z</time></trkpt><trkpt lat="45.3823639" lon="10.5611071"><ele>112.66666666666667</ele><time>2026-03-29T08:49:28.987Z</time></trkpt><trkpt lat="45.3824978" lon="10.5609749"><ele>112.0</ele><time>2026-03-29T08:49:29.986Z</time></trkpt><trkpt lat="45.382622" lon="10.5608243"><ele>112.0</ele><time>2026-03-29T08:49:30.987Z</time></trkpt><trkpt lat="45.3827517" lon="10.5606805"><ele>112.0</ele><time>2026-03-29T08:49:31.986Z</time></trkpt><trkpt lat="45.3828815" lon="10.5605385"><ele>112.0</ele><time>2026-03-29T08:49:32.987Z</time></trkpt><trkpt lat="45.3830156" lon="10.5604077"><ele>112.66666666666667</ele><time>2026-03-29T08:49:33.986Z</time></trkpt><trkpt lat="45.3831597" lon="10.560308"><ele>113.33333333333334</ele><time>2026-03-29T08:49:34.987Z</time></trkpt><trkpt lat="45.383314" lon="10.5602626"><ele>114.0</ele><time>2026-03-29T08:49:35.987Z</time></trkpt><trkpt lat="45.3834821" lon="10.5602721"><ele>114.0</ele><time>2026-03-29T08:49:36.987Z</time></trkpt><trkpt lat="45.3836462" lon="10.5603114"><ele>114.0</ele><time>2026-03-29T08:49:37.986Z</time></trkpt><trkpt lat="45.3838117" lon="10.5603561"><ele>114.0</ele><time>2026-03-29T08:49:38.987Z</time></trkpt><trkpt lat="45.3839753" lon="10.5604047"><ele>112.0</ele><time>2026-03-29T08:49:39.987Z</time></trkpt><trkpt lat="45.3841421" lon="10.5604515"><ele>110.0</ele><time>2026-03-29T08:49:40.987Z</time></trkpt><trkpt lat="45.3843123" lon="10.5604962"><ele>108.0</ele><time>2026-03-29T08:49:41.987Z</time></trkpt><trkpt lat="45.3844834" lon="10.5605501"><ele>108.0</ele><time>2026-03-29T08:49:42.987Z</time></trkpt><trkpt lat="45.3846541" lon="10.5606077"><ele>108.0</ele><time>2026-03-29T08:49:43.987Z</time></trkpt><trkpt lat="45.3848261" lon="10.560666"><ele>108.0</ele><time>2026-03-29T08:49:44.986Z</time></trkpt><trkpt lat="45.3849994" lon="10.56072"><ele>107.33333333333334</ele><time>2026-03-29T08:49:45.987Z</time></trkpt><trkpt lat="45.3851728" lon="10.5607834"><ele>106.66666666666667</ele><time>2026-03-29T08:49:46.986Z</time></trkpt><trkpt lat="45.3853471" lon="10.5608405"><ele>106.0</ele><time>2026-03-29T08:49:47.987Z</time></trkpt><trkpt lat="45.3855215" lon="10.5608959"><ele>105.33333333333334</ele><time>2026-03-29T08:49:48.987Z</time></trkpt><trkpt lat="45.3856978" lon="10.560954"><ele>104.66666666666666</ele><time>2026-03-29T08:49:49.986Z</time></trkpt><trkpt lat="45.385874" lon="10.5610113"><ele>104.0</ele><time>2026-03-29T08:49:50.987Z</time></trkpt><trkpt lat="45.386049" lon="10.5610693"><ele>104.0</ele><time>2026-03-29T08:49:51.986Z</time></trkpt><trkpt lat="45.3862217" lon="10.5611274"><ele>104.0</ele><time>2026-03-29T08:49:52.987Z</time></trkpt><trkpt lat="45.3863914" lon="10.5611822"><ele>104.0</ele><time>2026-03-29T08:49:53.987Z</time></trkpt><trkpt lat="45.3865605" lon="10.5612384"><ele>104.66666666666666</ele><time>2026-03-29T08:49:54.987Z</time></trkpt><trkpt lat="45.3867277" lon="10.5612965"><ele>105.33333333333334</ele><time>2026-03-29T08:49:55.987Z</time></trkpt><trkpt lat="45.3868918" lon="10.5613482"><ele>106.0</ele><time>2026-03-29T08:49:56.987Z</time></trkpt><trkpt lat="45.3870613" lon="10.5613999"><ele>107.33333333333334</ele><time>2026-03-29T08:49:57.986Z</time></trkpt><trkpt lat="45.387228" lon="10.5614413"><ele>108.66666666666666</ele><time>2026-03-29T08:49:58.986Z</time></trkpt><trkpt lat="45.3873904" lon="10.5614595"><ele>110.0</ele><time>2026-03-29T08:49:59.986Z</time></trkpt><trkpt lat="45.3875523" lon="10.5614314"><ele>110.0</ele><time>2026-03-29T08:50:00.987Z</time></trkpt><trkpt lat="45.3877064" lon="10.561357"><ele>110.0</ele><time>2026-03-29T08:50:01.986Z</time></trkpt><trkpt lat="45.3878463" lon="10.5612456"><ele>110.0</ele><time>2026-03-29T08:50:02.987Z</time></trkpt><trkpt lat="45.3879753" lon="10.5611162"><ele>112.25</ele><time>2026-03-29T08:50:03.987Z</time></trkpt><trkpt lat="45.3880977" lon="10.5609927"><ele>114.5</ele><time>2026-03-29T08:50:04.986Z</time></trkpt><trkpt lat="45.3882194" lon="10.5608772"><ele>116.75</ele><time>2026-03-29T08:50:05.986Z</time></trkpt><trkpt lat="45.3883465" lon="10.560787"><ele>119.0</ele><time>2026-03-29T08:50:06.987Z</time></trkpt><trkpt lat="45.3884861" lon="10.5607336"><ele>119.0</ele><time>2026-03-29T08:50:07.987Z</time></trkpt><trkpt lat="45.3886264" lon="10.5607103"><ele>119.0</ele><time>2026-03-29T08:50:08.987Z</time></trkpt><trkpt lat="45.3887749" lon="10.5607366"><ele>119.0</ele><time>2026-03-29T08:50:09.988Z</time></trkpt><trkpt lat="45.3889174" lon="10.5607738"><ele>119.0</ele><time>2026-03-29T08:50:10.986Z</time></trkpt><trkpt lat="45.3890537" lon="10.560812"><ele>120.25</ele><time>2026-03-29T08:50:11.987Z</time></trkpt><trkpt lat="45.38919" lon="10.5608526"><ele>121.5</ele><time>2026-03-29T08:50:12.986Z</time></trkpt><trkpt lat="45.3893179" lon="10.5608969"><ele>122.75</ele><time>2026-03-29T08:50:13.987Z</time></trkpt><trkpt lat="45.3894383" lon="10.5609363"><ele>124.0</ele><time>2026-03-29T08:50:14.987Z</time></trkpt><trkpt lat="45.3895574" lon="10.5609781"><ele>124.0</ele><time>2026-03-29T08:50:15.987Z</time></trkpt><trkpt lat="45.3896663" lon="10.5610178"><ele>124.0</ele><time>2026-03-29T08:50:16.987Z</time></trkpt><trkpt lat="45.38978" lon="10.561059"><ele>124.0</ele><time>2026-03-29T08:50:17.987Z</time></trkpt><trkpt lat="45.3899002" lon="10.5610998"><ele>124.0</ele><time>2026-03-29T08:50:18.986Z</time></trkpt><trkpt lat="45.3900277" lon="10.5611362"><ele>122.75</ele><time>2026-03-29T08:50:19.987Z</time></trkpt><trkpt lat="45.3901601" lon="10.5611732"><ele>121.5</ele><time>2026-03-29T08:50:20.987Z</time></trkpt><trkpt lat="45.3902942" lon="10.5612154"><ele>120.25</ele><time>2026-03-29T08:50:21.986Z</time></trkpt><trkpt lat="45.390427" lon="10.5612632"><ele>119.0</ele><time>2026-03-29T08:50:22.987Z</time></trkpt><trkpt lat="45.3905553" lon="10.5613099"><ele>118.25</ele><time>2026-03-29T08:50:23.987Z</time></trkpt><trkpt lat="45.390688" lon="10.5613482"><ele>117.5</ele><time>2026-03-29T08:50:24.986Z</time></trkpt><trkpt lat="45.3908156" lon="10.5613846"><ele>116.75</ele><time>2026-03-29T08:50:25.987Z</time></trkpt><trkpt lat="45.3909309" lon="10.5614158"><ele>116.0</ele><time>2026-03-29T08:50:26.986Z</time></trkpt><trkpt lat="45.3910223" lon="10.5614394"><ele>116.0</ele><time>2026-03-29T08:50:27.987Z</time></trkpt><trkpt lat="45.3911176" lon="10.561477"><ele>116.0</ele><time>2026-03-29T08:50:29.986Z</time></trkpt><trkpt lat="45.3911363" lon="10.5616037"><ele>116.0</ele><time>2026-03-29T08:50:32.986Z</time></trkpt><trkpt lat="45.3911103" lon="10.5617699"><ele>116.0</ele><time>2026-03-29T08:50:34.987Z</time></trkpt><trkpt lat="45.3911016" lon="10.5618659"><ele>116.0</ele><time>2026-03-29T08:50:35.986Z</time></trkpt><trkpt lat="45.3910937" lon="10.5619733"><ele>115.99999999999999</ele><time>2026-03-29T08:50:36.987Z</time></trkpt><trkpt lat="45.3910827" lon="10.5620909"><ele>116.0</ele><time>2026-03-29T08:50:37.986Z</time></trkpt><trkpt lat="45.3910789" lon="10.5622114"><ele>116.0</ele><time>2026-03-29T08:50:38.987Z</time></trkpt><trkpt lat="45.3910817" lon="10.5623359"><ele>116.0</ele><time>2026-03-29T08:50:39.987Z</time></trkpt><trkpt lat="45.3910889" lon="10.5624545"><ele>115.99999999999999</ele><time>2026-03-29T08:50:40.987Z</time></trkpt><trkpt lat="45.3911022" lon="10.5625738"><ele>116.0</ele><time>2026-03-29T08:50:41.986Z</time></trkpt><trkpt lat="45.3911182" lon="10.5627008"><ele>116.0</ele><time>2026-03-29T08:50:42.987Z</time></trkpt><trkpt lat="45.3911254" lon="10.5628425"><ele>116.0</ele><time>2026-03-29T08:50:43.987Z</time></trkpt><trkpt lat="45.3911295" lon="10.5630003"><ele>116.0</ele><time>2026-03-29T08:50:44.987Z</time></trkpt><trkpt lat="45.3911299" lon="10.5631771"><ele>116.0</ele><time>2026-03-29T08:50:45.986Z</time></trkpt><trkpt lat="45.391122" lon="10.5633562"><ele>116.25</ele><time>2026-03-29T08:50:46.987Z</time></trkpt><trkpt lat="45.3911074" lon="10.5635446"><ele>116.5</ele><time>2026-03-29T08:50:47.987Z</time></trkpt><trkpt lat="45.3910887" lon="10.5637316"><ele>116.75</ele><time>2026-03-29T08:50:48.987Z</time></trkpt><trkpt lat="45.3910628" lon="10.5639194"><ele>117.0</ele><time>2026-03-29T08:50:49.987Z</time></trkpt><trkpt lat="45.3910339" lon="10.5641059"><ele>117.0</ele><time>2026-03-29T08:50:50.987Z</time></trkpt><trkpt lat="45.3910067" lon="10.564284"><ele>117.0</ele><time>2026-03-29T08:50:51.987Z</time></trkpt><trkpt lat="45.3909751" lon="10.564463"><ele>117.0</ele><time>2026-03-29T08:50:52.986Z</time></trkpt><trkpt lat="45.3909367" lon="10.5646312"><ele>117.0</ele><time>2026-03-29T08:50:53.987Z</time></trkpt><trkpt lat="45.3908885" lon="10.5647922"><ele>117.0</ele><time>2026-03-29T08:50:54.988Z</time></trkpt><trkpt lat="45.3908336" lon="10.5649477"><ele>117.0</ele><time>2026-03-29T08:50:55.986Z</time></trkpt><trkpt lat="45.3907774" lon="10.5650985"><ele>117.0</ele><time>2026-03-29T08:50:56.986Z</time></trkpt><trkpt lat="45.3907208" lon="10.5652477"><ele>117.0</ele><time>2026-03-29T08:50:57.986Z</time></trkpt><trkpt lat="45.3906607" lon="10.5653981"><ele>117.0</ele><time>2026-03-29T08:50:58.988Z</time></trkpt><trkpt lat="45.390595" lon="10.5655448"><ele>117.0</ele><time>2026-03-29T08:50:59.986Z</time></trkpt><trkpt lat="45.3905207" lon="10.5656894"><ele>117.0</ele><time>2026-03-29T08:51:00.987Z</time></trkpt><trkpt lat="45.3904438" lon="10.5658369"><ele>117.0</ele><time>2026-03-29T08:51:01.986Z</time></trkpt><trkpt lat="45.3903631" lon="10.5659835"><ele>116.5</ele><time>2026-03-29T08:51:02.987Z</time></trkpt><trkpt lat="45.3902792" lon="10.566129"><ele>116.0</ele><time>2026-03-29T08:51:03.987Z</time></trkpt><trkpt lat="45.3901961" lon="10.5662649"><ele>115.5</ele><time>2026-03-29T08:51:04.986Z</time></trkpt><trkpt lat="45.3901111" lon="10.566382"><ele>115.0</ele><time>2026-03-29T08:51:05.987Z</time></trkpt><trkpt lat="45.3900096" lon="10.5664865"><ele>114.75</ele><time>2026-03-29T08:51:06.986Z</time></trkpt><trkpt lat="45.3899102" lon="10.5665655"><ele>114.5</ele><time>2026-03-29T08:51:07.987Z</time></trkpt><trkpt lat="45.3898075" lon="10.5666336"><ele>114.25</ele><time>2026-03-29T08:51:08.987Z</time></trkpt><trkpt lat="45.3896991" lon="10.5667143"><ele>114.0</ele><time>2026-03-29T08:51:09.987Z</time></trkpt><trkpt lat="45.3895794" lon="10.5667969"><ele>114.0</ele><time>2026-03-29T08:51:10.987Z</time></trkpt><trkpt lat="45.3894524" lon="10.5668815"><ele>114.0</ele><time>2026-03-29T08:51:11.986Z</time></trkpt><trkpt lat="45.389323" lon="10.5669651"><ele>114.0</ele><time>2026-03-29T08:51:12.987Z</time></trkpt><trkpt lat="45.3891939" lon="10.5670484"><ele>114.0</ele><time>2026-03-29T08:51:13.986Z</time></trkpt><trkpt lat="45.3890706" lon="10.5671431"><ele>114.0</ele><time>2026-03-29T08:51:14.987Z</time></trkpt><trkpt lat="45.3889553" lon="10.5672578"><ele>114.0</ele><time>2026-03-29T08:51:15.987Z</time></trkpt><trkpt lat="45.3888511" lon="10.5673929"><ele>114.0</ele><time>2026-03-29T08:51:16.986Z</time></trkpt><trkpt lat="45.3887399" lon="10.5675374"><ele>114.0</ele><time>2026-03-29T08:51:17.987Z</time></trkpt><trkpt lat="45.3886196" lon="10.5676725"><ele>114.0</ele><time>2026-03-29T08:51:18.987Z</time></trkpt><trkpt lat="45.3884978" lon="10.5678041"><ele>114.0</ele><time>2026-03-29T08:51:19.987Z</time></trkpt><trkpt lat="45.3883779" lon="10.5679265"><ele>114.0</ele><time>2026-03-29T08:51:20.987Z</time></trkpt><trkpt lat="45.3882526" lon="10.5680511"><ele>113.66666666666666</ele><time>2026-03-29T08:51:21.987Z</time></trkpt><trkpt lat="45.3881242" lon="10.5681733"><ele>113.33333333333333</ele><time>2026-03-29T08:51:22.987Z</time></trkpt><trkpt lat="45.3879862" lon="10.5682873"><ele>113.0</ele><time>2026-03-29T08:51:23.986Z</time></trkpt><trkpt lat="45.3878441" lon="10.5683913"><ele>113.0</ele><time>2026-03-29T08:51:24.987Z</time></trkpt><trkpt lat="45.3877037" lon="10.5685"><ele>113.0</ele><time>2026-03-29T08:51:25.987Z</time></trkpt><trkpt lat="45.3875694" lon="10.5686205"><ele>113.0</ele><time>2026-03-29T08:51:26.986Z</time></trkpt><trkpt lat="45.3874478" lon="10.5687327"><ele>113.0</ele><time>2026-03-29T08:51:27.987Z</time></trkpt><trkpt lat="45.387325" lon="10.5688308"><ele>113.0</ele><time>2026-03-29T08:51:28.987Z</time></trkpt><trkpt lat="45.3872128" lon="10.5689324"><ele>113.0</ele><time>2026-03-29T08:51:29.987Z</time></trkpt><trkpt lat="45.3871082" lon="10.5690382"><ele>113.0</ele><time>2026-03-29T08:51:30.987Z</time></trkpt><trkpt lat="45.3869976" lon="10.5691679"><ele>113.0</ele><time>2026-03-29T08:51:31.986Z</time></trkpt><trkpt lat="45.3868931" lon="10.5693178"><ele>113.0</ele><time>2026-03-29T08:51:32.988Z</time></trkpt><trkpt lat="45.3867924" lon="10.5694768"><ele>113.0</ele><time>2026-03-29T08:51:33.987Z</time></trkpt><trkpt lat="45.3867027" lon="10.5696417"><ele>113.0</ele><time>2026-03-29T08:51:34.987Z</time></trkpt><trkpt lat="45.3866182" lon="10.5698051"><ele>113.0</ele><time>2026-03-29T08:51:35.986Z</time></trkpt><trkpt lat="45.3865408" lon="10.5699526"><ele>113.0</ele><time>2026-03-29T08:51:36.986Z</time></trkpt><trkpt lat="45.3864639" lon="10.5701014"><ele>113.0</ele><time>2026-03-29T08:51:37.987Z</time></trkpt><trkpt lat="45.3864006" lon="10.5702674"><ele>113.0</ele><time>2026-03-29T08:51:38.986Z</time></trkpt><trkpt lat="45.3863542" lon="10.5704508"><ele>112.0</ele><time>2026-03-29T08:51:39.987Z</time></trkpt><trkpt lat="45.3863229" lon="10.5706308"><ele>111.0</ele><time>2026-03-29T08:51:40.986Z</time></trkpt><trkpt lat="45.3862959" lon="10.5707921"><ele>110.0</ele><time>2026-03-29T08:51:41.987Z</time></trkpt><trkpt lat="45.3862715" lon="10.5709479"><ele>109.0</ele><time>2026-03-29T08:51:42.986Z</time></trkpt><trkpt lat="45.3862476" lon="10.5710849"><ele>108.83333333333334</ele><time>2026-03-29T08:51:43.986Z</time></trkpt><trkpt lat="45.3862314" lon="10.5712086"><ele>108.66666666666667</ele><time>2026-03-29T08:51:44.986Z</time></trkpt><trkpt lat="45.3862195" lon="10.5713235"><ele>108.5</ele><time>2026-03-29T08:51:45.987Z</time></trkpt><trkpt lat="45.3862085" lon="10.5714396"><ele>108.33333333333334</ele><time>2026-03-29T08:51:46.986Z</time></trkpt><trkpt lat="45.3862115" lon="10.5715508"><ele>108.16666666666667</ele><time>2026-03-29T08:51:47.987Z</time></trkpt><trkpt lat="45.3862251" lon="10.5716465"><ele>108.0</ele><time>2026-03-29T08:51:48.986Z</time></trkpt><trkpt lat="45.3862727" lon="10.5718173"><ele>108.0</ele><time>2026-03-29T08:51:50.987Z</time></trkpt><trkpt lat="45.3863157" lon="10.571908"><ele>108.0</ele><time>2026-03-29T08:51:51.987Z</time></trkpt><trkpt lat="45.3863696" lon="10.5719866"><ele>108.0</ele><time>2026-03-29T08:51:52.986Z</time></trkpt><trkpt lat="45.38644" lon="10.5720544"><ele>108.0</ele><time>2026-03-29T08:51:53.987Z</time></trkpt><trkpt lat="45.3865172" lon="10.5721055"><ele>108.0</ele><time>2026-03-29T08:51:54.986Z</time></trkpt><trkpt lat="45.3865806" lon="10.572151"><ele>108.0</ele><time>2026-03-29T08:51:55.987Z</time></trkpt><trkpt lat="45.3866593" lon="10.5722666"><ele>107.0</ele><time>2026-03-29T08:51:57.986Z</time></trkpt><trkpt lat="45.3866588" lon="10.5724278"><ele>106.00000000000001</ele><time>2026-03-29T08:51:59.987Z</time></trkpt><trkpt lat="45.3866221" lon="10.5725104"><ele>105.0</ele><time>2026-03-29T08:52:00.986Z</time></trkpt><trkpt lat="45.3865557" lon="10.5725955"><ele>104.0</ele><time>2026-03-29T08:52:01.987Z</time></trkpt><trkpt lat="45.386478" lon="10.5726837"><ele>103.0</ele><time>2026-03-29T08:52:02.987Z</time></trkpt><trkpt lat="45.3864256" lon="10.5727784"><ele>103.0</ele><time>2026-03-29T08:52:03.987Z</time></trkpt><trkpt lat="45.3864034" lon="10.5728943"><ele>103.0</ele><time>2026-03-29T08:52:04.987Z</time></trkpt><trkpt lat="45.3864056" lon="10.5730199"><ele>103.0</ele><time>2026-03-29T08:52:05.987Z</time></trkpt><trkpt lat="45.3864245" lon="10.5731685"><ele>103.0</ele><time>2026-03-29T08:52:06.986Z</time></trkpt><trkpt lat="45.386444" lon="10.5733223"><ele>103.0</ele><time>2026-03-29T08:52:07.986Z</time></trkpt><trkpt lat="45.386468" lon="10.5734865"><ele>103.0</ele><time>2026-03-29T08:52:08.987Z</time></trkpt><trkpt lat="45.3864887" lon="10.5736477"><ele>103.0</ele><time>2026-03-29T08:52:09.986Z</time></trkpt><trkpt lat="45.3865106" lon="10.5738055"><ele>103.0</ele><time>2026-03-29T08:52:10.987Z</time></trkpt><trkpt lat="45.3865345" lon="10.5739657"><ele>103.0</ele><time>2026-03-29T08:52:11.987Z</time></trkpt><trkpt lat="45.3865563" lon="10.5741168"><ele>102.83333333333334</ele><time>2026-03-29T08:52:12.986Z</time></trkpt><trkpt lat="45.3865694" lon="10.5742539"><ele>102.66666666666667</ele><time>2026-03-29T08:52:13.987Z</time></trkpt><trkpt lat="45.3865763" lon="10.5743935"><ele>102.5</ele><time>2026-03-29T08:52:14.986Z</time></trkpt><trkpt lat="45.3865602" lon="10.5745097"><ele>102.33333333333334</ele><time>2026-03-29T08:52:15.987Z</time></trkpt><trkpt lat="45.3865269" lon="10.5746193"><ele>102.16666666666667</ele><time>2026-03-29T08:52:16.986Z</time></trkpt><trkpt lat="45.3864821" lon="10.5747203"><ele>102.0</ele><time>2026-03-29T08:52:17.987Z</time></trkpt><trkpt lat="45.3864346" lon="10.5748168"><ele>101.8</ele><time>2026-03-29T08:52:18.986Z</time></trkpt><trkpt lat="45.3863751" lon="10.5749094"><ele>101.6</ele><time>2026-03-29T08:52:19.987Z</time></trkpt><trkpt lat="45.3863071" lon="10.5750045"><ele>101.39999999999999</ele><time>2026-03-29T08:52:20.987Z</time></trkpt><trkpt lat="45.3862243" lon="10.5751114"><ele>101.19999999999999</ele><time>2026-03-29T08:52:21.986Z</time></trkpt><trkpt lat="45.3861414" lon="10.5752268"><ele>101.0</ele><time>2026-03-29T08:52:22.987Z</time></trkpt><trkpt lat="45.3860548" lon="10.5753791"><ele>102.0</ele><time>2026-03-29T08:52:23.987Z</time></trkpt><trkpt lat="45.3859799" lon="10.5755607"><ele>103.0</ele><time>2026-03-29T08:52:24.987Z</time></trkpt><trkpt lat="45.3859122" lon="10.57575"><ele>104.0</ele><time>2026-03-29T08:52:25.987Z</time></trkpt><trkpt lat="45.3858503" lon="10.575939"><ele>105.0</ele><time>2026-03-29T08:52:26.987Z</time></trkpt><trkpt lat="45.3857943" lon="10.5761217"><ele>105.5</ele><time>2026-03-29T08:52:27.986Z</time></trkpt><trkpt lat="45.3857437" lon="10.5762976"><ele>106.0</ele><time>2026-03-29T08:52:28.987Z</time></trkpt><trkpt lat="45.3857036" lon="10.5764652"><ele>106.5</ele><time>2026-03-29T08:52:29.986Z</time></trkpt><trkpt lat="45.3856745" lon="10.5766284"><ele>107.0</ele><time>2026-03-29T08:52:30.987Z</time></trkpt><trkpt lat="45.3856516" lon="10.576788"><ele>107.0</ele><time>2026-03-29T08:52:31.987Z</time></trkpt><trkpt lat="45.3856242" lon="10.5769639"><ele>107.0</ele><time>2026-03-29T08:52:32.987Z</time></trkpt><trkpt lat="45.3855969" lon="10.5771563"><ele>107.0</ele><time>2026-03-29T08:52:33.986Z</time></trkpt><trkpt lat="45.3855689" lon="10.5773568"><ele>107.0</ele><time>2026-03-29T08:52:34.987Z</time></trkpt><trkpt lat="45.3855381" lon="10.5775647"><ele>106.75</ele><time>2026-03-29T08:52:35.986Z</time></trkpt><trkpt lat="45.3855105" lon="10.5777628"><ele>106.5</ele><time>2026-03-29T08:52:36.987Z</time></trkpt><trkpt lat="45.3854893" lon="10.5779386"><ele>106.25</ele><time>2026-03-29T08:52:37.987Z</time></trkpt><trkpt lat="45.3854686" lon="10.5781161"><ele>106.0</ele><time>2026-03-29T08:52:38.988Z</time></trkpt><trkpt lat="45.3854535" lon="10.5782662"><ele>106.0</ele><time>2026-03-29T08:52:39.987Z</time></trkpt><trkpt lat="45.3854373" lon="10.5783919"><ele>106.0</ele><time>2026-03-29T08:52:40.986Z</time></trkpt><trkpt lat="45.3854113" lon="10.5785393"><ele>106.0</ele><time>2026-03-29T08:52:42.987Z</time></trkpt><trkpt lat="45.3853078" lon="10.5785789"><ele>106.0</ele><time>2026-03-29T08:52:45.986Z</time></trkpt><trkpt lat="45.3852296" lon="10.5785484"><ele>106.0</ele><time>2026-03-29T08:52:46.987Z</time></trkpt><trkpt lat="45.3851377" lon="10.578497"><ele>106.0</ele><time>2026-03-29T08:52:47.987Z</time></trkpt><trkpt lat="45.3850275" lon="10.5784533"><ele>106.0</ele><time>2026-03-29T08:52:48.987Z</time></trkpt><trkpt lat="45.3848999" lon="10.578401"><ele>106.0</ele><time>2026-03-29T08:52:49.987Z</time></trkpt><trkpt lat="45.3847651" lon="10.5783395"><ele>106.0</ele><time>2026-03-29T08:52:50.987Z</time></trkpt><trkpt lat="45.384635" lon="10.578284"><ele>106.19999999999999</ele><time>2026-03-29T08:52:51.986Z</time></trkpt><trkpt lat="45.3845242" lon="10.5782371"><ele>106.39999999999999</ele><time>2026-03-29T08:52:52.987Z</time></trkpt><trkpt lat="45.3844282" lon="10.5781954"><ele>106.6</ele><time>2026-03-29T08:52:53.987Z</time></trkpt><trkpt lat="45.3843395" lon="10.5781789"><ele>106.8</ele><time>2026-03-29T08:52:54.986Z</time></trkpt><trkpt lat="45.3842488" lon="10.5781996"><ele>107.0</ele><time>2026-03-29T08:52:55.987Z</time></trkpt><trkpt lat="45.384165" lon="10.5782261"><ele>106.99999999999999</ele><time>2026-03-29T08:52:56.986Z</time></trkpt><trkpt lat="45.3840898" lon="10.5782213"><ele>107.0</ele><time>2026-03-29T08:52:57.986Z</time></trkpt><trkpt lat="45.3840103" lon="10.5782128"><ele>107.0</ele><time>2026-03-29T08:52:58.987Z</time></trkpt><trkpt lat="45.3839369" lon="10.578201"><ele>107.0</ele><time>2026-03-29T08:52:59.986Z</time></trkpt><trkpt lat="45.3838654" lon="10.5781896"><ele>106.99999999999999</ele><time>2026-03-29T08:53:00.986Z</time></trkpt><trkpt lat="45.3837922" lon="10.5781783"><ele>107.0</ele><time>2026-03-29T08:53:01.987Z</time></trkpt><trkpt lat="45.3836749" lon="10.5781271"><ele>107.39999999999999</ele><time>2026-03-29T08:53:03.987Z</time></trkpt><trkpt lat="45.3836144" lon="10.5780544"><ele>107.79999999999998</ele><time>2026-03-29T08:53:04.987Z</time></trkpt><trkpt lat="45.3835461" lon="10.5779619"><ele>108.2</ele><time>2026-03-29T08:53:05.987Z</time></trkpt><trkpt lat="45.3834578" lon="10.5778702"><ele>108.6</ele><time>2026-03-29T08:53:06.986Z</time></trkpt><trkpt lat="45.3833515" lon="10.5777808"><ele>109.0</ele><time>2026-03-29T08:53:07.987Z</time></trkpt><trkpt lat="45.3832362" lon="10.5776946"><ele>109.0</ele><time>2026-03-29T08:53:08.987Z</time></trkpt><trkpt lat="45.3831114" lon="10.5776073"><ele>109.0</ele><time>2026-03-29T08:53:09.986Z</time></trkpt><trkpt lat="45.3829802" lon="10.5775335"><ele>109.0</ele><time>2026-03-29T08:53:10.987Z</time></trkpt><trkpt lat="45.3828458" lon="10.5774791"><ele>109.0</ele><time>2026-03-29T08:53:11.987Z</time></trkpt><trkpt lat="45.3827104" lon="10.5774452"><ele>110.5</ele><time>2026-03-29T08:53:12.986Z</time></trkpt><trkpt lat="45.3825811" lon="10.5774405"><ele>112.0</ele><time>2026-03-29T08:53:13.986Z</time></trkpt><trkpt lat="45.3824684" lon="10.5774431"><ele>113.5</ele><time>2026-03-29T08:53:14.986Z</time></trkpt><trkpt lat="45.3823599" lon="10.5774439"><ele>115.0</ele><time>2026-03-29T08:53:15.987Z</time></trkpt><trkpt lat="45.3822586" lon="10.577452"><ele>115.00000000000001</ele><time>2026-03-29T08:53:16.986Z</time></trkpt><trkpt lat="45.3821723" lon="10.5774663"><ele>115.0</ele><time>2026-03-29T08:53:17.986Z</time></trkpt><trkpt lat="45.3820918" lon="10.5774774"><ele>115.0</ele><time>2026-03-29T08:53:18.987Z</time></trkpt><trkpt lat="45.3820154" lon="10.577486"><ele>115.0</ele><time>2026-03-29T08:53:19.987Z</time></trkpt><trkpt lat="45.3819295" lon="10.5774913"><ele>115.00000000000001</ele><time>2026-03-29T08:53:20.986Z</time></trkpt><trkpt lat="45.3818342" lon="10.5774967"><ele>115.0</ele><time>2026-03-29T08:53:21.987Z</time></trkpt><trkpt lat="45.3817302" lon="10.5774938"><ele>115.0</ele><time>2026-03-29T08:53:22.988Z</time></trkpt><trkpt lat="45.38162" lon="10.5774969"><ele>115.0</ele><time>2026-03-29T08:53:23.986Z</time></trkpt><trkpt lat="45.3815107" lon="10.5774944"><ele>115.0</ele><time>2026-03-29T08:53:24.987Z</time></trkpt><trkpt lat="45.3814013" lon="10.5774938"><ele>115.0</ele><time>2026-03-29T08:53:25.987Z</time></trkpt><trkpt lat="45.3812937" lon="10.5774874"><ele>115.0</ele><time>2026-03-29T08:53:26.986Z</time></trkpt><trkpt lat="45.3811873" lon="10.5774765"><ele>113.4</ele><time>2026-03-29T08:53:27.987Z</time></trkpt><trkpt lat="45.3810737" lon="10.5774676"><ele>111.8</ele><time>2026-03-29T08:53:28.986Z</time></trkpt><trkpt lat="45.3809481" lon="10.5774311"><ele>110.19999999999999</ele><time>2026-03-29T08:53:29.987Z</time></trkpt><trkpt lat="45.3808442" lon="10.577372"><ele>108.6</ele><time>2026-03-29T08:53:30.987Z</time></trkpt><trkpt lat="45.3807719" lon="10.5773123"><ele>107.0</ele><time>2026-03-29T08:53:31.986Z</time></trkpt><trkpt lat="45.3807229" lon="10.5772413"><ele>106.99999999999999</ele><time>2026-03-29T08:53:32.987Z</time></trkpt><trkpt lat="45.3807109" lon="10.5771498"><ele>107.0</ele><time>2026-03-29T08:53:33.987Z</time></trkpt><trkpt lat="45.3807114" lon="10.5770409"><ele>107.0</ele><time>2026-03-29T08:53:34.986Z</time></trkpt><trkpt lat="45.3807053" lon="10.576926"><ele>107.0</ele><time>2026-03-29T08:53:35.987Z</time></trkpt><trkpt lat="45.3806779" lon="10.576812"><ele>106.99999999999999</ele><time>2026-03-29T08:53:36.986Z</time></trkpt><trkpt lat="45.3806166" lon="10.5766978"><ele>107.0</ele><time>2026-03-29T08:53:37.987Z</time></trkpt><trkpt lat="45.3805303" lon="10.576603"><ele>106.0</ele><time>2026-03-29T08:53:38.987Z</time></trkpt><trkpt lat="45.3804204" lon="10.5765297"><ele>105.0</ele><time>2026-03-29T08:53:39.986Z</time></trkpt><trkpt lat="45.3803011" lon="10.5764772"><ele>104.0</ele><time>2026-03-29T08:53:40.987Z</time></trkpt><trkpt lat="45.380173" lon="10.5764497"><ele>103.0</ele><time>2026-03-29T08:53:41.986Z</time></trkpt><trkpt lat="45.3800594" lon="10.5764304"><ele>103.0</ele><time>2026-03-29T08:53:42.986Z</time></trkpt><trkpt lat="45.3799414" lon="10.5763673"><ele>103.0</ele><time>2026-03-29T08:53:43.987Z</time></trkpt><trkpt lat="45.3798261" lon="10.5762897"><ele>103.0</ele><time>2026-03-29T08:53:44.987Z</time></trkpt><trkpt lat="45.3796974" lon="10.5762449"><ele>103.0</ele><time>2026-03-29T08:53:45.987Z</time></trkpt><trkpt lat="45.3795562" lon="10.5762426"><ele>103.25</ele><time>2026-03-29T08:53:46.987Z</time></trkpt><trkpt lat="45.3794092" lon="10.5762566"><ele>103.5</ele><time>2026-03-29T08:53:47.987Z</time></trkpt><trkpt lat="45.3792626" lon="10.5762722"><ele>103.75</ele><time>2026-03-29T08:53:48.986Z</time></trkpt><trkpt lat="45.3791297" lon="10.5762876"><ele>104.0</ele><time>2026-03-29T08:53:49.987Z</time></trkpt><trkpt lat="45.3790175" lon="10.5762934"><ele>103.99999999999999</ele><time>2026-03-29T08:53:50.986Z</time></trkpt><trkpt lat="45.3789313" lon="10.5762758"><ele>104.0</ele><time>2026-03-29T08:53:51.987Z</time></trkpt><trkpt lat="45.3788737" lon="10.5762143"><ele>104.0</ele><time>2026-03-29T08:53:52.987Z</time></trkpt><trkpt lat="45.3788323" lon="10.5761036"><ele>104.0</ele><time>2026-03-29T08:53:53.986Z</time></trkpt><trkpt lat="45.3788192" lon="10.5759653"><ele>103.99999999999999</ele><time>2026-03-29T08:53:54.987Z</time></trkpt><trkpt lat="45.378812" lon="10.5758222"><ele>104.0</ele><time>2026-03-29T08:53:55.987Z</time></trkpt><trkpt lat="45.3787899" lon="10.5756912"><ele>104.4</ele><time>2026-03-29T08:53:56.987Z</time></trkpt><trkpt lat="45.3787476" lon="10.5755955"><ele>104.80000000000001</ele><time>2026-03-29T08:53:57.987Z</time></trkpt><trkpt lat="45.3786798" lon="10.5755317"><ele>105.19999999999999</ele><time>2026-03-29T08:53:58.986Z</time></trkpt><trkpt lat="45.3785878" lon="10.575517"><ele>105.6</ele><time>2026-03-29T08:53:59.986Z</time></trkpt><trkpt lat="45.3784673" lon="10.5755443"><ele>106.0</ele><time>2026-03-29T08:54:00.986Z</time></trkpt><trkpt lat="45.3783293" lon="10.575572"><ele>106.0</ele><time>2026-03-29T08:54:01.987Z</time></trkpt><trkpt lat="45.37819" lon="10.5755882"><ele>106.0</ele><time>2026-03-29T08:54:02.986Z</time></trkpt><trkpt lat="45.3780412" lon="10.5756005"><ele>106.0</ele><time>2026-03-29T08:54:03.987Z</time></trkpt><trkpt lat="45.3778823" lon="10.5756111"><ele>106.0</ele><time>2026-03-29T08:54:04.986Z</time></trkpt><trkpt lat="45.3777222" lon="10.5756229"><ele>105.66666666666667</ele><time>2026-03-29T08:54:05.987Z</time></trkpt><trkpt lat="45.3775628" lon="10.5756326"><ele>105.33333333333334</ele><time>2026-03-29T08:54:06.986Z</time></trkpt><trkpt lat="45.3774026" lon="10.5756447"><ele>105.0</ele><time>2026-03-29T08:54:07.987Z</time></trkpt><trkpt lat="45.3772448" lon="10.575659"><ele>106.66666666666666</ele><time>2026-03-29T08:54:08.986Z</time></trkpt><trkpt lat="45.3770885" lon="10.5756677"><ele>108.33333333333333</ele><time>2026-03-29T08:54:09.987Z</time></trkpt><trkpt lat="45.3769291" lon="10.575656"><ele>110.0</ele><time>2026-03-29T08:54:10.987Z</time></trkpt><trkpt lat="45.3767645" lon="10.5756097"><ele>110.0</ele><time>2026-03-29T08:54:11.986Z</time></trkpt><trkpt lat="45.3765981" lon="10.575534"><ele>110.0</ele><time>2026-03-29T08:54:12.987Z</time></trkpt><trkpt lat="45.3764322" lon="10.575439"><ele>110.0</ele><time>2026-03-29T08:54:13.986Z</time></trkpt><trkpt lat="45.3762656" lon="10.5753418"><ele>110.33333333333333</ele><time>2026-03-29T08:54:14.987Z</time></trkpt><trkpt lat="45.3760937" lon="10.5752559"><ele>110.66666666666666</ele><time>2026-03-29T08:54:15.986Z</time></trkpt><trkpt lat="45.3759257" lon="10.5751702"><ele>111.0</ele><time>2026-03-29T08:54:16.987Z</time></trkpt><trkpt lat="45.3757782" lon="10.5750974"><ele>111.0</ele><time>2026-03-29T08:54:17.986Z</time></trkpt><trkpt lat="45.3756573" lon="10.5750278"><ele>111.0</ele><time>2026-03-29T08:54:18.987Z</time></trkpt><trkpt lat="45.3755643" lon="10.5749665"><ele>111.0</ele><time>2026-03-29T08:54:19.987Z</time></trkpt><trkpt lat="45.3755009" lon="10.5749173"><ele>111.0</ele><time>2026-03-29T08:54:20.986Z</time></trkpt><trkpt lat="45.3754287" lon="10.5748515"><ele>111.0</ele><time>2026-03-29T08:54:22.987Z</time></trkpt><trkpt lat="45.3753498" lon="10.5748656"><ele>111.19999999999999</ele><time>2026-03-29T08:54:25.987Z</time></trkpt><trkpt lat="45.3752996" lon="10.5749826"><ele>111.39999999999999</ele><time>2026-03-29T08:54:27.987Z</time></trkpt><trkpt lat="45.3752908" lon="10.5750895"><ele>111.6</ele><time>2026-03-29T08:54:28.987Z</time></trkpt><trkpt lat="45.3752826" lon="10.5752218"><ele>111.8</ele><time>2026-03-29T08:54:29.987Z</time></trkpt><trkpt lat="45.3752725" lon="10.575385"><ele>112.0</ele><time>2026-03-29T08:54:30.986Z</time></trkpt><trkpt lat="45.375257" lon="10.5755606"><ele>112.0</ele><time>2026-03-29T08:54:31.987Z</time></trkpt><trkpt lat="45.3752366" lon="10.5757624"><ele>112.0</ele><time>2026-03-29T08:54:32.986Z</time></trkpt><trkpt lat="45.3752159" lon="10.5759805"><ele>112.0</ele><time>2026-03-29T08:54:33.987Z</time></trkpt><trkpt lat="45.3751976" lon="10.5762037"><ele>111.33333333333334</ele><time>2026-03-29T08:54:34.986Z</time></trkpt><trkpt lat="45.3751767" lon="10.5764202"><ele>110.66666666666666</ele><time>2026-03-29T08:54:35.986Z</time></trkpt><trkpt lat="45.3751571" lon="10.5766398"><ele>110.0</ele><time>2026-03-29T08:54:36.987Z</time></trkpt><trkpt lat="45.3751403" lon="10.5768652"><ele>110.0</ele><time>2026-03-29T08:54:37.987Z</time></trkpt><trkpt lat="45.3751195" lon="10.577094"><ele>110.0</ele><time>2026-03-29T08:54:38.986Z</time></trkpt><trkpt lat="45.3751002" lon="10.5773123"><ele>110.0</ele><time>2026-03-29T08:54:39.986Z</time></trkpt><trkpt lat="45.3750825" lon="10.5775006"><ele>110.0</ele><time>2026-03-29T08:54:40.987Z</time></trkpt><trkpt lat="45.375064" lon="10.5776836"><ele>110.0</ele><time>2026-03-29T08:54:41.986Z</time></trkpt><trkpt lat="45.375047" lon="10.5778846"><ele>110.0</ele><time>2026-03-29T08:54:42.986Z</time></trkpt><trkpt lat="45.3750284" lon="10.5780934"><ele>110.0</ele><time>2026-03-29T08:54:43.987Z</time></trkpt><trkpt lat="45.3750101" lon="10.5782851"><ele>110.0</ele><time>2026-03-29T08:54:44.987Z</time></trkpt><trkpt lat="45.3749948" lon="10.5784467"><ele>110.0</ele><time>2026-03-29T08:54:45.986Z</time></trkpt><trkpt lat="45.3749758" lon="10.5785674"><ele>110.0</ele><time>2026-03-29T08:54:46.987Z</time></trkpt><trkpt lat="45.3749269" lon="10.5786981"><ele>110.0</ele><time>2026-03-29T08:54:48.986Z</time></trkpt><trkpt lat="45.3748123" lon="10.5787471"><ele>110.0</ele><time>2026-03-29T08:54:50.987Z</time></trkpt><trkpt lat="45.3747175" lon="10.5787332"><ele>111.25</ele><time>2026-03-29T08:54:51.986Z</time></trkpt><trkpt lat="45.3746075" lon="10.5787292"><ele>112.5</ele><time>2026-03-29T08:54:52.987Z</time></trkpt><trkpt lat="45.3744728" lon="10.578731"><ele>113.75</ele><time>2026-03-29T08:54:53.988Z</time></trkpt><trkpt lat="45.374321" lon="10.5787382"><ele>115.0</ele><time>2026-03-29T08:54:54.986Z</time></trkpt><trkpt lat="45.3741585" lon="10.5787495"><ele>115.0</ele><time>2026-03-29T08:54:55.986Z</time></trkpt><trkpt lat="45.3739954" lon="10.5787607"><ele>115.0</ele><time>2026-03-29T08:54:56.986Z</time></trkpt><trkpt lat="45.3738335" lon="10.5787744"><ele>115.0</ele><time>2026-03-29T08:54:57.986Z</time></trkpt><trkpt lat="45.3736822" lon="10.5787886"><ele>115.2</ele><time>2026-03-29T08:54:58.987Z</time></trkpt><trkpt lat="45.3735497" lon="10.5787962"><ele>115.4</ele><time>2026-03-29T08:54:59.987Z</time></trkpt><trkpt lat="45.3734325" lon="10.5788048"><ele>115.6</ele><time>2026-03-29T08:55:00.986Z</time></trkpt><trkpt lat="45.3733407" lon="10.5788106"><ele>115.8</ele><time>2026-03-29T08:55:01.986Z</time></trkpt><trkpt lat="45.3732744" lon="10.578817"><ele>116.0</ele><time>2026-03-29T08:55:02.987Z</time></trkpt><trkpt lat="45.3731531" lon="10.5788281"><ele>116.0</ele><time>2026-03-29T08:55:04.986Z</time></trkpt><trkpt lat="45.3730475" lon="10.5788369"><ele>116.0</ele><time>2026-03-29T08:55:06.986Z</time></trkpt><trkpt lat="45.3729502" lon="10.5788435"><ele>116.0</ele><time>2026-03-29T08:55:08.986Z</time></trkpt><trkpt lat="45.3728725" lon="10.5788639"><ele>116.0</ele><time>2026-03-29T08:55:10.987Z</time></trkpt><trkpt lat="45.3727707" lon="10.5789099"><ele>116.0</ele><time>2026-03-29T08:55:12.988Z</time></trkpt><trkpt lat="45.3727012" lon="10.5789942"><ele>115.66666666666666</ele><time>2026-03-29T08:55:14.986Z</time></trkpt><trkpt lat="45.3726721" lon="10.5790813"><ele>115.33333333333333</ele><time>2026-03-29T08:55:15.987Z</time></trkpt><trkpt lat="45.3726539" lon="10.5792095"><ele>115.0</ele><time>2026-03-29T08:55:16.986Z</time></trkpt><trkpt lat="45.3726287" lon="10.5793545"><ele>114.66666666666666</ele><time>2026-03-29T08:55:17.988Z</time></trkpt><trkpt lat="45.3725888" lon="10.579471"><ele>114.33333333333333</ele><time>2026-03-29T08:55:18.986Z</time></trkpt><trkpt lat="45.3725554" lon="10.5795752"><ele>114.0</ele><time>2026-03-29T08:55:19.987Z</time></trkpt><trkpt lat="45.3725376" lon="10.5796716"><ele>113.80000000000001</ele><time>2026-03-29T08:55:20.986Z</time></trkpt><trkpt lat="45.3725501" lon="10.5798148"><ele>113.60000000000001</ele><time>2026-03-29T08:55:22.987Z</time></trkpt><trkpt lat="45.372628" lon="10.5799403"><ele>113.4</ele><time>2026-03-29T08:55:24.987Z</time></trkpt><trkpt lat="45.3726977" lon="10.5800001"><ele>113.2</ele><time>2026-03-29T08:55:25.986Z</time></trkpt><trkpt lat="45.3727961" lon="10.5800474"><ele>113.0</ele><time>2026-03-29T08:55:26.987Z</time></trkpt><trkpt lat="45.3729132" lon="10.5800995"><ele>113.0</ele><time>2026-03-29T08:55:27.986Z</time></trkpt><trkpt lat="45.3730349" lon="10.5801626"><ele>113.0</ele><time>2026-03-29T08:55:28.987Z</time></trkpt><trkpt lat="45.3731572" lon="10.5802427"><ele>113.0</ele><time>2026-03-29T08:55:29.987Z</time></trkpt><trkpt lat="45.373279" lon="10.5803308"><ele>113.0</ele><time>2026-03-29T08:55:30.987Z</time></trkpt><trkpt lat="45.3734022" lon="10.5804366"><ele>112.66666666666666</ele><time>2026-03-29T08:55:31.986Z</time></trkpt><trkpt lat="45.3735293" lon="10.5805524"><ele>112.33333333333334</ele><time>2026-03-29T08:55:32.988Z</time></trkpt><trkpt lat="45.3736653" lon="10.580681"><ele>112.0</ele><time>2026-03-29T08:55:33.987Z</time></trkpt><trkpt lat="45.3737939" lon="10.5808119"><ele>111.66666666666667</ele><time>2026-03-29T08:55:34.986Z</time></trkpt><trkpt lat="45.3739184" lon="10.580954"><ele>111.33333333333334</ele><time>2026-03-29T08:55:35.987Z</time></trkpt><trkpt lat="45.3740416" lon="10.5811167"><ele>111.0</ele><time>2026-03-29T08:55:36.987Z</time></trkpt><trkpt lat="45.3741653" lon="10.581287"><ele>111.66666666666666</ele><time>2026-03-29T08:55:37.986Z</time></trkpt><trkpt lat="45.3742868" lon="10.5814461"><ele>112.33333333333333</ele><time>2026-03-29T08:55:38.987Z</time></trkpt><trkpt lat="45.3744163" lon="10.5816108"><ele>113.0</ele><time>2026-03-29T08:55:39.987Z</time></trkpt><trkpt lat="45.3745477" lon="10.5817781"><ele>113.0</ele><time>2026-03-29T08:55:40.986Z</time></trkpt><trkpt lat="45.3746834" lon="10.5819542"><ele>113.0</ele><time>2026-03-29T08:55:41.986Z</time></trkpt><trkpt lat="45.3748228" lon="10.5821329"><ele>113.0</ele><time>2026-03-29T08:55:42.987Z</time></trkpt><trkpt lat="45.3749646" lon="10.5823168"><ele>112.33333333333333</ele><time>2026-03-29T08:55:43.987Z</time></trkpt><trkpt lat="45.3751054" lon="10.5825"><ele>111.66666666666666</ele><time>2026-03-29T08:55:44.987Z</time></trkpt><trkpt lat="45.3752499" lon="10.5826859"><ele>111.0</ele><time>2026-03-29T08:55:45.986Z</time></trkpt><trkpt lat="45.3753985" lon="10.5828721"><ele>111.0</ele><time>2026-03-29T08:55:46.987Z</time></trkpt><trkpt lat="45.3755525" lon="10.5830545"><ele>111.0</ele><time>2026-03-29T08:55:47.987Z</time></trkpt><trkpt lat="45.3757154" lon="10.5832284"><ele>111.0</ele><time>2026-03-29T08:55:48.986Z</time></trkpt><trkpt lat="45.3758781" lon="10.5834005"><ele>111.0</ele><time>2026-03-29T08:55:49.987Z</time></trkpt><trkpt lat="45.3760373" lon="10.5835702"><ele>111.0</ele><time>2026-03-29T08:55:50.987Z</time></trkpt><trkpt lat="45.3761903" lon="10.5837377"><ele>111.0</ele><time>2026-03-29T08:55:51.987Z</time></trkpt><trkpt lat="45.3763387" lon="10.5838987"><ele>111.0</ele><time>2026-03-29T08:55:52.987Z</time></trkpt><trkpt lat="45.3764925" lon="10.5840595"><ele>111.0</ele><time>2026-03-29T08:55:53.986Z</time></trkpt><trkpt lat="45.3766496" lon="10.5842237"><ele>111.0</ele><time>2026-03-29T08:55:54.987Z</time></trkpt><trkpt lat="45.3768054" lon="10.5843997"><ele>111.33333333333334</ele><time>2026-03-29T08:55:55.987Z</time></trkpt><trkpt lat="45.3769577" lon="10.5845844"><ele>111.66666666666667</ele><time>2026-03-29T08:55:56.987Z</time></trkpt><trkpt lat="45.3771001" lon="10.5847724"><ele>112.0</ele><time>2026-03-29T08:55:57.986Z</time></trkpt><trkpt lat="45.3772324" lon="10.5849662"><ele>112.0</ele><time>2026-03-29T08:55:58.987Z</time></trkpt><trkpt lat="45.3773587" lon="10.5851685"><ele>112.0</ele><time>2026-03-29T08:55:59.986Z</time></trkpt><trkpt lat="45.377488" lon="10.5853833"><ele>112.0</ele><time>2026-03-29T08:56:00.987Z</time></trkpt><trkpt lat="45.3776219" lon="10.5856019"><ele>112.33333333333334</ele><time>2026-03-29T08:56:01.987Z</time></trkpt><trkpt lat="45.3777563" lon="10.58582"><ele>112.66666666666666</ele><time>2026-03-29T08:56:02.987Z</time></trkpt><trkpt lat="45.3778884" lon="10.5860372"><ele>113.0</ele><time>2026-03-29T08:56:03.986Z</time></trkpt><trkpt lat="45.3780172" lon="10.5862527"><ele>114.33333333333333</ele><time>2026-03-29T08:56:04.987Z</time></trkpt><trkpt lat="45.3781425" lon="10.5864676"><ele>115.66666666666666</ele><time>2026-03-29T08:56:05.986Z</time></trkpt><trkpt lat="45.3782567" lon="10.5866927"><ele>117.0</ele><time>2026-03-29T08:56:06.987Z</time></trkpt><trkpt lat="45.3783571" lon="10.5869345"><ele>118.0</ele><time>2026-03-29T08:56:07.986Z</time></trkpt><trkpt lat="45.3784477" lon="10.5871787"><ele>119.0</ele><time>2026-03-29T08:56:08.987Z</time></trkpt><trkpt lat="45.3785341" lon="10.5874224"><ele>120.0</ele><time>2026-03-29T08:56:09.987Z</time></trkpt><trkpt lat="45.3786162" lon="10.5876589"><ele>120.66666666666666</ele><time>2026-03-29T08:56:10.986Z</time></trkpt><trkpt lat="45.37869" lon="10.5878891"><ele>121.33333333333333</ele><time>2026-03-29T08:56:11.987Z</time></trkpt><trkpt lat="45.3787504" lon="10.588129"><ele>122.0</ele><time>2026-03-29T08:56:12.986Z</time></trkpt><trkpt lat="45.3787848" lon="10.5883824"><ele>122.0</ele><time>2026-03-29T08:56:13.987Z</time></trkpt><trkpt lat="45.3788002" lon="10.5886371"><ele>122.0</ele><time>2026-03-29T08:56:14.986Z</time></trkpt><trkpt lat="45.3787925" lon="10.5888951"><ele>122.0</ele><time>2026-03-29T08:56:15.986Z</time></trkpt><trkpt lat="45.3787673" lon="10.5891511"><ele>123.0</ele><time>2026-03-29T08:56:16.987Z</time></trkpt><trkpt lat="45.3787351" lon="10.5894109"><ele>124.0</ele><time>2026-03-29T08:56:17.986Z</time></trkpt><trkpt lat="45.3787051" lon="10.5896745"><ele>125.0</ele><time>2026-03-29T08:56:18.987Z</time></trkpt><trkpt lat="45.3786795" lon="10.5899417"><ele>126.0</ele><time>2026-03-29T08:56:19.987Z</time></trkpt><trkpt lat="45.378667" lon="10.5902158"><ele>127.0</ele><time>2026-03-29T08:56:20.986Z</time></trkpt><trkpt lat="45.3786735" lon="10.5904925"><ele>128.0</ele><time>2026-03-29T08:56:21.987Z</time></trkpt><trkpt lat="45.3787074" lon="10.5907653"><ele>129.0</ele><time>2026-03-29T08:56:22.986Z</time></trkpt><trkpt lat="45.378766" lon="10.5910364"><ele>130.0</ele><time>2026-03-29T08:56:23.987Z</time></trkpt><trkpt lat="45.3788475" lon="10.5912903"><ele>131.0</ele><time>2026-03-29T08:56:24.986Z</time></trkpt><trkpt lat="45.378949" lon="10.5915269"><ele>132.66666666666666</ele><time>2026-03-29T08:56:25.986Z</time></trkpt><trkpt lat="45.3790489" lon="10.5917621"><ele>134.33333333333334</ele><time>2026-03-29T08:56:26.987Z</time></trkpt><trkpt lat="45.3791481" lon="10.5919907"><ele>136.0</ele><time>2026-03-29T08:56:27.986Z</time></trkpt><trkpt lat="45.3792439" lon="10.5922175"><ele>136.33333333333334</ele><time>2026-03-29T08:56:28.987Z</time></trkpt><trkpt lat="45.3793261" lon="10.592453"><ele>136.66666666666666</ele><time>2026-03-29T08:56:29.987Z</time></trkpt><trkpt lat="45.3793941" lon="10.5927033"><ele>137.0</ele><time>2026-03-29T08:56:30.987Z</time></trkpt><trkpt lat="45.3794496" lon="10.5929665"><ele>137.33333333333331</ele><time>2026-03-29T08:56:31.987Z</time></trkpt><trkpt lat="45.3794809" lon="10.5932357"><ele>137.66666666666666</ele><time>2026-03-29T08:56:32.986Z</time></trkpt><trkpt lat="45.3794932" lon="10.5935127"><ele>138.0</ele><time>2026-03-29T08:56:33.987Z</time></trkpt><trkpt lat="45.379498" lon="10.5937953"><ele>138.0</ele><time>2026-03-29T08:56:34.986Z</time></trkpt><trkpt lat="45.3795045" lon="10.5940806"><ele>138.0</ele><time>2026-03-29T08:56:35.986Z</time></trkpt><trkpt lat="45.3795075" lon="10.5943721"><ele>138.0</ele><time>2026-03-29T08:56:36.987Z</time></trkpt><trkpt lat="45.3795108" lon="10.5946655"><ele>138.0</ele><time>2026-03-29T08:56:37.987Z</time></trkpt><trkpt lat="45.3795251" lon="10.594957"><ele>138.0</ele><time>2026-03-29T08:56:38.986Z</time></trkpt><trkpt lat="45.3795592" lon="10.5952429"><ele>138.0</ele><time>2026-03-29T08:56:39.987Z</time></trkpt><trkpt lat="45.3796146" lon="10.5955238"><ele>138.66666666666666</ele><time>2026-03-29T08:56:40.986Z</time></trkpt><trkpt lat="45.379683" lon="10.5958041"><ele>139.33333333333331</ele><time>2026-03-29T08:56:41.987Z</time></trkpt><trkpt lat="45.3797575" lon="10.5960807"><ele>140.0</ele><time>2026-03-29T08:56:42.987Z</time></trkpt><trkpt lat="45.3798326" lon="10.596353"><ele>138.66666666666666</ele><time>2026-03-29T08:56:43.987Z</time></trkpt><trkpt lat="45.3799062" lon="10.5966244"><ele>137.33333333333334</ele><time>2026-03-29T08:56:44.987Z</time></trkpt><trkpt lat="45.3799776" lon="10.5968891"><ele>136.0</ele><time>2026-03-29T08:56:45.986Z</time></trkpt><trkpt lat="45.3800474" lon="10.5971504"><ele>136.0</ele><time>2026-03-29T08:56:46.987Z</time></trkpt><trkpt lat="45.3801187" lon="10.5974064"><ele>136.0</ele><time>2026-03-29T08:56:47.987Z</time></trkpt><trkpt lat="45.3801864" lon="10.5976611"><ele>136.0</ele><time>2026-03-29T08:56:48.986Z</time></trkpt><trkpt lat="45.3802508" lon="10.5978969"><ele>136.25</ele><time>2026-03-29T08:56:49.987Z</time></trkpt><trkpt lat="45.3803087" lon="10.5981022"><ele>136.5</ele><time>2026-03-29T08:56:50.987Z</time></trkpt><trkpt lat="45.38036" lon="10.5982934"><ele>136.75</ele><time>2026-03-29T08:56:51.986Z</time></trkpt><trkpt lat="45.3804059" lon="10.5984702"><ele>137.0</ele><time>2026-03-29T08:56:52.986Z</time></trkpt><trkpt lat="45.3804407" lon="10.5986178"><ele>137.0</ele><time>2026-03-29T08:56:53.987Z</time></trkpt><trkpt lat="45.3804616" lon="10.5987375"><ele>137.0</ele><time>2026-03-29T08:56:54.986Z</time></trkpt><trkpt lat="45.3804749" lon="10.5988301"><ele>137.0</ele><time>2026-03-29T08:56:55.987Z</time></trkpt><trkpt lat="45.3804554" lon="10.598942"><ele>137.0</ele><time>2026-03-29T08:56:57.986Z</time></trkpt><trkpt lat="45.3804193" lon="10.5990192"><ele>137.0</ele><time>2026-03-29T08:56:59.987Z</time></trkpt><trkpt lat="45.3803859" lon="10.5991681"><ele>137.0</ele><time>2026-03-29T08:57:01.987Z</time></trkpt><trkpt lat="45.3803938" lon="10.5992888"><ele>137.0</ele><time>2026-03-29T08:57:02.987Z</time></trkpt><trkpt lat="45.3804003" lon="10.5994204"><ele>137.0</ele><time>2026-03-29T08:57:03.987Z</time></trkpt><trkpt lat="45.3804065" lon="10.5995759"><ele>137.0</ele><time>2026-03-29T08:57:04.986Z</time></trkpt><trkpt lat="45.380411" lon="10.5997404"><ele>137.0</ele><time>2026-03-29T08:57:05.987Z</time></trkpt><trkpt lat="45.3804153" lon="10.5998995"><ele>137.0</ele><time>2026-03-29T08:57:06.986Z</time></trkpt><trkpt lat="45.3804187" lon="10.6000376"><ele>136.85714285714286</ele><time>2026-03-29T08:57:07.987Z</time></trkpt><trkpt lat="45.380424" lon="10.6001512"><ele>136.71428571428572</ele><time>2026-03-29T08:57:08.986Z</time></trkpt><trkpt lat="45.3804358" lon="10.600241"><ele>136.57142857142856</ele><time>2026-03-29T08:57:09.987Z</time></trkpt><trkpt lat="45.3804864" lon="10.6003478"><ele>136.42857142857144</ele><time>2026-03-29T08:57:11.987Z</time></trkpt><trkpt lat="45.3805479" lon="10.6003269"><ele>136.28571428571428</ele><time>2026-03-29T08:57:14.986Z</time></trkpt><trkpt lat="45.3805239" lon="10.6002183"><ele>136.14285714285714</ele><time>2026-03-29T08:57:16.986Z</time></trkpt><trkpt lat="45.3804575" lon="10.6002529"><ele>136.0</ele><time>2026-03-29T09:29:24.984Z</time></trkpt><trkpt lat="45.3804405" lon="10.6003863"><ele>135.4</ele><time>2026-03-29T09:29:26.984Z</time></trkpt><trkpt lat="45.3803889" lon="10.6005196"><ele>134.8</ele><time>2026-03-29T09:29:28.983Z</time></trkpt><trkpt lat="45.3803356" lon="10.6005708"><ele>134.20000000000002</ele><time>2026-03-29T09:29:29.983Z</time></trkpt><trkpt lat="45.3802548" lon="10.6006066"><ele>133.6</ele><time>2026-03-29T09:29:30.983Z</time></trkpt><trkpt lat="45.3801577" lon="10.6006252"><ele>133.0</ele><time>2026-03-29T09:29:31.983Z</time></trkpt><trkpt lat="45.3800514" lon="10.6006543"><ele>133.0</ele><time>2026-03-29T09:29:32.984Z</time></trkpt><trkpt lat="45.3799304" lon="10.6006771"><ele>133.0</ele><time>2026-03-29T09:29:33.984Z</time></trkpt><trkpt lat="45.3798002" lon="10.6006978"><ele>133.0</ele><time>2026-03-29T09:29:34.984Z</time></trkpt><trkpt lat="45.3796603" lon="10.6007209"><ele>133.0</ele><time>2026-03-29T09:29:35.984Z</time></trkpt><trkpt lat="45.3795171" lon="10.6007459"><ele>133.66666666666669</ele><time>2026-03-29T09:29:36.984Z</time></trkpt><trkpt lat="45.3793714" lon="10.6007739"><ele>134.33333333333334</ele><time>2026-03-29T09:29:37.983Z</time></trkpt><trkpt lat="45.3792212" lon="10.6008012"><ele>135.0</ele><time>2026-03-29T09:29:38.984Z</time></trkpt><trkpt lat="45.379066" lon="10.6008158"><ele>135.0</ele><time>2026-03-29T09:29:39.984Z</time></trkpt><trkpt lat="45.378907" lon="10.6008164"><ele>135.0</ele><time>2026-03-29T09:29:40.983Z</time></trkpt><trkpt lat="45.3787478" lon="10.6007948"><ele>135.0</ele><time>2026-03-29T09:29:41.983Z</time></trkpt><trkpt lat="45.3785847" lon="10.6007597"><ele>133.33333333333334</ele><time>2026-03-29T09:29:42.983Z</time></trkpt><trkpt lat="45.3784234" lon="10.6007242"><ele>131.66666666666669</ele><time>2026-03-29T09:29:43.983Z</time></trkpt><trkpt lat="45.3782671" lon="10.6006889"><ele>130.0</ele><time>2026-03-29T09:29:44.983Z</time></trkpt><trkpt lat="45.3781166" lon="10.6006673"><ele>127.33333333333334</ele><time>2026-03-29T09:29:45.983Z</time></trkpt><trkpt lat="45.3779661" lon="10.6006677"><ele>124.66666666666666</ele><time>2026-03-29T09:29:46.983Z</time></trkpt><trkpt lat="45.377814" lon="10.6007136"><ele>122.0</ele><time>2026-03-29T09:29:47.984Z</time></trkpt><trkpt lat="45.3776723" lon="10.6007996"><ele>122.0</ele><time>2026-03-29T09:29:48.984Z</time></trkpt><trkpt lat="45.3775389" lon="10.600917"><ele>122.0</ele><time>2026-03-29T09:29:49.984Z</time></trkpt><trkpt lat="45.3774153" lon="10.6010407"><ele>122.0</ele><time>2026-03-29T09:29:50.984Z</time></trkpt><trkpt lat="45.3772891" lon="10.6011596"><ele>121.0</ele><time>2026-03-29T09:29:51.984Z</time></trkpt><trkpt lat="45.37716" lon="10.6012673"><ele>120.0</ele><time>2026-03-29T09:29:52.984Z</time></trkpt><trkpt lat="45.3770229" lon="10.6013565"><ele>119.0</ele><time>2026-03-29T09:29:53.983Z</time></trkpt><trkpt lat="45.3768795" lon="10.6014207"><ele>119.0</ele><time>2026-03-29T09:29:54.984Z</time></trkpt><trkpt lat="45.3767285" lon="10.6014693"><ele>119.0</ele><time>2026-03-29T09:29:55.984Z</time></trkpt><trkpt lat="45.3765788" lon="10.6015043"><ele>119.0</ele><time>2026-03-29T09:29:56.983Z</time></trkpt><trkpt lat="45.3764272" lon="10.6015344"><ele>119.33333333333333</ele><time>2026-03-29T09:29:57.984Z</time></trkpt><trkpt lat="45.3762767" lon="10.6015598"><ele>119.66666666666666</ele><time>2026-03-29T09:29:58.983Z</time></trkpt><trkpt lat="45.3761227" lon="10.6015741"><ele>120.0</ele><time>2026-03-29T09:29:59.984Z</time></trkpt><trkpt lat="45.3759702" lon="10.6015765"><ele>120.0</ele><time>2026-03-29T09:30:00.983Z</time></trkpt><trkpt lat="45.3758146" lon="10.6015627"><ele>120.0</ele><time>2026-03-29T09:30:01.984Z</time></trkpt><trkpt lat="45.3756561" lon="10.6015394"><ele>120.0</ele><time>2026-03-29T09:30:02.983Z</time></trkpt><trkpt lat="45.3754973" lon="10.6014936"><ele>118.0</ele><time>2026-03-29T09:30:03.984Z</time></trkpt><trkpt lat="45.3753449" lon="10.6014115"><ele>116.0</ele><time>2026-03-29T09:30:04.984Z</time></trkpt><trkpt lat="45.3751928" lon="10.6013117"><ele>114.0</ele><time>2026-03-29T09:30:05.983Z</time></trkpt><trkpt lat="45.3750417" lon="10.6012012"><ele>114.66666666666666</ele><time>2026-03-29T09:30:06.983Z</time></trkpt><trkpt lat="45.3748899" lon="10.6010937"><ele>115.33333333333333</ele><time>2026-03-29T09:30:07.983Z</time></trkpt><trkpt lat="45.3747373" lon="10.6009843"><ele>116.0</ele><time>2026-03-29T09:30:08.983Z</time></trkpt><trkpt lat="45.374583" lon="10.6008744"><ele>114.33333333333333</ele><time>2026-03-29T09:30:09.984Z</time></trkpt><trkpt lat="45.374426" lon="10.6007613"><ele>112.66666666666666</ele><time>2026-03-29T09:30:10.984Z</time></trkpt><trkpt lat="45.3742702" lon="10.6006546"><ele>111.0</ele><time>2026-03-29T09:30:11.984Z</time></trkpt><trkpt lat="45.3741139" lon="10.6005457"><ele>111.0</ele><time>2026-03-29T09:30:12.984Z</time></trkpt><trkpt lat="45.3739607" lon="10.6004297"><ele>111.0</ele><time>2026-03-29T09:30:13.984Z</time></trkpt><trkpt lat="45.3738091" lon="10.6003033"><ele>111.0</ele><time>2026-03-29T09:30:14.984Z</time></trkpt><trkpt lat="45.3736665" lon="10.6001729"><ele>111.33333333333334</ele><time>2026-03-29T09:30:15.983Z</time></trkpt><trkpt lat="45.3735255" lon="10.6000398"><ele>111.66666666666667</ele><time>2026-03-29T09:30:16.984Z</time></trkpt><trkpt lat="45.3733896" lon="10.5999065"><ele>112.0</ele><time>2026-03-29T09:30:17.984Z</time></trkpt><trkpt lat="45.3732714" lon="10.599775"><ele>112.0</ele><time>2026-03-29T09:30:18.984Z</time></trkpt><trkpt lat="45.3731763" lon="10.5996294"><ele>112.0</ele><time>2026-03-29T09:30:19.984Z</time></trkpt><trkpt lat="45.3731099" lon="10.5994414"><ele>112.0</ele><time>2026-03-29T09:30:20.984Z</time></trkpt><trkpt lat="45.3730728" lon="10.5992291"><ele>112.0</ele><time>2026-03-29T09:30:21.983Z</time></trkpt><trkpt lat="45.3730456" lon="10.5990031"><ele>110.66666666666667</ele><time>2026-03-29T09:30:22.984Z</time></trkpt><trkpt lat="45.3730205" lon="10.5987753"><ele>109.33333333333334</ele><time>2026-03-29T09:30:23.984Z</time></trkpt><trkpt lat="45.3729849" lon="10.5985481"><ele>108.0</ele><time>2026-03-29T09:30:24.984Z</time></trkpt><trkpt lat="45.3729359" lon="10.5983177"><ele>108.0</ele><time>2026-03-29T09:30:25.984Z</time></trkpt><trkpt lat="45.3728751" lon="10.5980935"><ele>108.0</ele><time>2026-03-29T09:30:26.983Z</time></trkpt><trkpt lat="45.3728049" lon="10.5978696"><ele>108.0</ele><time>2026-03-29T09:30:27.983Z</time></trkpt><trkpt lat="45.3727292" lon="10.5976413"><ele>108.33333333333334</ele><time>2026-03-29T09:30:28.984Z</time></trkpt><trkpt lat="45.3726553" lon="10.5974337"><ele>108.66666666666667</ele><time>2026-03-29T09:30:29.983Z</time></trkpt><trkpt lat="45.372564" lon="10.5972542"><ele>109.0</ele><time>2026-03-29T09:30:30.984Z</time></trkpt><trkpt lat="45.3724467" lon="10.5971111"><ele>108.66666666666667</ele><time>2026-03-29T09:30:31.984Z</time></trkpt><trkpt lat="45.3723086" lon="10.5969959"><ele>108.33333333333334</ele><time>2026-03-29T09:30:32.984Z</time></trkpt><trkpt lat="45.3721611" lon="10.5968975"><ele>108.0</ele><time>2026-03-29T09:30:33.984Z</time></trkpt><trkpt lat="45.3720101" lon="10.5968083"><ele>109.33333333333334</ele><time>2026-03-29T09:30:34.983Z</time></trkpt><trkpt lat="45.3718619" lon="10.5967211"><ele>110.66666666666667</ele><time>2026-03-29T09:30:35.983Z</time></trkpt><trkpt lat="45.3717099" lon="10.5966255"><ele>112.0</ele><time>2026-03-29T09:30:36.983Z</time></trkpt><trkpt lat="45.3715554" lon="10.5965322"><ele>112.0</ele><time>2026-03-29T09:30:37.983Z</time></trkpt><trkpt lat="45.3714002" lon="10.59644"><ele>112.0</ele><time>2026-03-29T09:30:38.983Z</time></trkpt><trkpt lat="45.3712403" lon="10.5963437"><ele>112.0</ele><time>2026-03-29T09:30:39.984Z</time></trkpt><trkpt lat="45.3710814" lon="10.596255"><ele>112.66666666666667</ele><time>2026-03-29T09:30:40.983Z</time></trkpt><trkpt lat="45.3709249" lon="10.596168"><ele>113.33333333333334</ele><time>2026-03-29T09:30:41.984Z</time></trkpt><trkpt lat="45.3707707" lon="10.5960995"><ele>114.0</ele><time>2026-03-29T09:30:42.984Z</time></trkpt><trkpt lat="45.370629" lon="10.5960448"><ele>115.2</ele><time>2026-03-29T09:30:43.984Z</time></trkpt><trkpt lat="45.3705049" lon="10.5960022"><ele>116.4</ele><time>2026-03-29T09:30:44.984Z</time></trkpt><trkpt lat="45.370391" lon="10.5959723"><ele>117.6</ele><time>2026-03-29T09:30:45.985Z</time></trkpt><trkpt lat="45.3702979" lon="10.5959611"><ele>118.8</ele><time>2026-03-29T09:30:46.983Z</time></trkpt><trkpt lat="45.3702283" lon="10.5959582"><ele>120.0</ele><time>2026-03-29T09:30:47.983Z</time></trkpt><trkpt lat="45.3701316" lon="10.5959426"><ele>120.0</ele><time>2026-03-29T09:30:49.983Z</time></trkpt><trkpt lat="45.370106" lon="10.5958448"><ele>120.0</ele><time>2026-03-29T09:30:51.984Z</time></trkpt><trkpt lat="45.3701253" lon="10.5957172"><ele>120.0</ele><time>2026-03-29T09:30:53.985Z</time></trkpt><trkpt lat="45.3701258" lon="10.5956214"><ele>120.0</ele><time>2026-03-29T09:31:16.983Z</time></trkpt><trkpt lat="45.3701156" lon="10.5957583"><ele>120.0</ele><time>2026-03-29T09:31:25.984Z</time></trkpt><trkpt lat="45.3701078" lon="10.5959236"><ele>120.0</ele><time>2026-03-29T09:31:27.984Z</time></trkpt><trkpt lat="45.3700715" lon="10.5960372"><ele>120.0</ele><time>2026-03-29T09:31:29.983Z</time></trkpt><trkpt lat="45.3699766" lon="10.5961253"><ele>120.0</ele><time>2026-03-29T09:31:31.984Z</time></trkpt><trkpt lat="45.3699121" lon="10.5961448"><ele>120.0</ele><time>2026-03-29T09:31:32.983Z</time></trkpt><trkpt lat="45.3698385" lon="10.5961742"><ele>120.0</ele><time>2026-03-29T09:31:33.984Z</time></trkpt><trkpt lat="45.3697617" lon="10.5962172"><ele>120.0</ele><time>2026-03-29T09:31:34.984Z</time></trkpt><trkpt lat="45.3696747" lon="10.5962633"><ele>120.0</ele><time>2026-03-29T09:31:35.984Z</time></trkpt><trkpt lat="45.3695813" lon="10.5963025"><ele>121.6</ele><time>2026-03-29T09:31:36.984Z</time></trkpt><trkpt lat="45.3694842" lon="10.5963436"><ele>123.2</ele><time>2026-03-29T09:31:37.984Z</time></trkpt><trkpt lat="45.369384" lon="10.5963963"><ele>124.80000000000001</ele><time>2026-03-29T09:31:38.985Z</time></trkpt><trkpt lat="45.3692818" lon="10.5964522"><ele>126.4</ele><time>2026-03-29T09:31:39.984Z</time></trkpt><trkpt lat="45.3691772" lon="10.5965165"><ele>128.0</ele><time>2026-03-29T09:31:40.984Z</time></trkpt><trkpt lat="45.3690763" lon="10.5965951"><ele>128.0</ele><time>2026-03-29T09:31:41.984Z</time></trkpt><trkpt lat="45.3689795" lon="10.596688"><ele>128.0</ele><time>2026-03-29T09:31:42.984Z</time></trkpt><trkpt lat="45.3688918" lon="10.5967905"><ele>128.0</ele><time>2026-03-29T09:31:43.984Z</time></trkpt><trkpt lat="45.3688052" lon="10.5968892"><ele>128.0</ele><time>2026-03-29T09:31:44.983Z</time></trkpt><trkpt lat="45.3687095" lon="10.5969694"><ele>130.6</ele><time>2026-03-29T09:31:45.984Z</time></trkpt><trkpt lat="45.3686072" lon="10.5970007"><ele>133.20000000000002</ele><time>2026-03-29T09:31:46.983Z</time></trkpt><trkpt lat="45.3685086" lon="10.596994"><ele>135.8</ele><time>2026-03-29T09:31:47.984Z</time></trkpt><trkpt lat="45.3684061" lon="10.5969316"><ele>138.4</ele><time>2026-03-29T09:31:48.984Z</time></trkpt><trkpt lat="45.3683056" lon="10.5968552"><ele>141.0</ele><time>2026-03-29T09:31:49.983Z</time></trkpt><trkpt lat="45.3682038" lon="10.5967695"><ele>141.0</ele><time>2026-03-29T09:31:50.983Z</time></trkpt><trkpt lat="45.3680956" lon="10.5966854"><ele>141.0</ele><time>2026-03-29T09:31:51.983Z</time></trkpt><trkpt lat="45.3679828" lon="10.5966127"><ele>141.0</ele><time>2026-03-29T09:31:52.983Z</time></trkpt><trkpt lat="45.367865" lon="10.5965501"><ele>141.0</ele><time>2026-03-29T09:31:53.983Z</time></trkpt><trkpt lat="45.3677426" lon="10.5965037"><ele>144.0</ele><time>2026-03-29T09:31:54.983Z</time></trkpt><trkpt lat="45.3676119" lon="10.5964965"><ele>147.0</ele><time>2026-03-29T09:31:55.984Z</time></trkpt><trkpt lat="45.3674883" lon="10.5965324"><ele>150.0</ele><time>2026-03-29T09:31:56.983Z</time></trkpt><trkpt lat="45.36737" lon="10.5966005"><ele>153.0</ele><time>2026-03-29T09:31:57.984Z</time></trkpt><trkpt lat="45.3672619" lon="10.5966789"><ele>152.25</ele><time>2026-03-29T09:31:58.984Z</time></trkpt><trkpt lat="45.3671589" lon="10.5967714"><ele>151.5</ele><time>2026-03-29T09:31:59.984Z</time></trkpt><trkpt lat="45.367047" lon="10.5968627"><ele>150.75</ele><time>2026-03-29T09:32:00.984Z</time></trkpt><trkpt lat="45.3669334" lon="10.5969637"><ele>150.0</ele><time>2026-03-29T09:32:01.984Z</time></trkpt><trkpt lat="45.3668113" lon="10.5970718"><ele>150.0</ele><time>2026-03-29T09:32:02.984Z</time></trkpt><trkpt lat="45.3666822" lon="10.5971857"><ele>150.0</ele><time>2026-03-29T09:32:03.984Z</time></trkpt><trkpt lat="45.3665516" lon="10.5972994"><ele>150.0</ele><time>2026-03-29T09:32:04.984Z</time></trkpt><trkpt lat="45.3664181" lon="10.5974157"><ele>148.25</ele><time>2026-03-29T09:32:05.983Z</time></trkpt><trkpt lat="45.3662842" lon="10.5975278"><ele>146.5</ele><time>2026-03-29T09:32:06.984Z</time></trkpt><trkpt lat="45.3661559" lon="10.5976357"><ele>144.75</ele><time>2026-03-29T09:32:07.984Z</time></trkpt><trkpt lat="45.3660355" lon="10.5977382"><ele>143.0</ele><time>2026-03-29T09:32:08.984Z</time></trkpt><trkpt lat="45.3659205" lon="10.597829"><ele>143.20000000000002</ele><time>2026-03-29T09:32:09.985Z</time></trkpt><trkpt lat="45.3658134" lon="10.5979004"><ele>143.4</ele><time>2026-03-29T09:32:10.984Z</time></trkpt><trkpt lat="45.3657121" lon="10.5979451"><ele>143.60000000000002</ele><time>2026-03-29T09:32:11.984Z</time></trkpt><trkpt lat="45.3656152" lon="10.5979668"><ele>143.8</ele><time>2026-03-29T09:32:12.984Z</time></trkpt><trkpt lat="45.3655227" lon="10.5980076"><ele>144.0</ele><time>2026-03-29T09:32:13.983Z</time></trkpt><trkpt lat="45.3654231" lon="10.598006"><ele>144.0</ele><time>2026-03-29T09:32:14.984Z</time></trkpt><trkpt lat="45.3653268" lon="10.5980283"><ele>144.0</ele><time>2026-03-29T09:32:15.984Z</time></trkpt><trkpt lat="45.3652217" lon="10.5980285"><ele>144.0</ele><time>2026-03-29T09:32:16.984Z</time></trkpt><trkpt lat="45.3651257" lon="10.598012"><ele>144.0</ele><time>2026-03-29T09:32:17.984Z</time></trkpt><trkpt lat="45.3650519" lon="10.5979803"><ele>144.0</ele><time>2026-03-29T09:32:18.984Z</time></trkpt><trkpt lat="45.3649903" lon="10.5979422"><ele>144.0</ele><time>2026-03-29T09:32:19.983Z</time></trkpt><trkpt lat="45.3649004" lon="10.5978676"><ele>144.0</ele><time>2026-03-29T09:32:21.984Z</time></trkpt><trkpt lat="45.3648064" lon="10.5978225"><ele>144.0</ele><time>2026-03-29T09:32:23.984Z</time></trkpt><trkpt lat="45.3647162" lon="10.5978622"><ele>144.0</ele><time>2026-03-29T09:32:25.984Z</time></trkpt><trkpt lat="45.3646673" lon="10.5979209"><ele>144.0</ele><time>2026-03-29T09:32:26.983Z</time></trkpt><trkpt lat="45.3646292" lon="10.5980043"><ele>144.0</ele><time>2026-03-29T09:32:27.983Z</time></trkpt><trkpt lat="45.3646158" lon="10.598112"><ele>144.0</ele><time>2026-03-29T09:32:28.982Z</time></trkpt><trkpt lat="45.364622" lon="10.5982116"><ele>143.6</ele><time>2026-03-29T09:32:29.982Z</time></trkpt><trkpt lat="45.3646312" lon="10.5983768"><ele>143.2</ele><time>2026-03-29T09:32:31.982Z</time></trkpt><trkpt lat="45.3646149" lon="10.5984835"><ele>142.79999999999998</ele><time>2026-03-29T09:32:32.983Z</time></trkpt><trkpt lat="45.3645768" lon="10.5985944"><ele>142.4</ele><time>2026-03-29T09:32:33.982Z</time></trkpt><trkpt lat="45.3645348" lon="10.5987001"><ele>142.0</ele><time>2026-03-29T09:32:34.984Z</time></trkpt><trkpt lat="45.3644891" lon="10.5988133"><ele>142.0</ele><time>2026-03-29T09:32:35.983Z</time></trkpt><trkpt lat="45.3644371" lon="10.5989394"><ele>142.0</ele><time>2026-03-29T09:32:36.982Z</time></trkpt><trkpt lat="45.3643808" lon="10.5990739"><ele>142.0</ele><time>2026-03-29T09:32:37.983Z</time></trkpt><trkpt lat="45.3643295" lon="10.5992167"><ele>142.0</ele><time>2026-03-29T09:32:38.983Z</time></trkpt><trkpt lat="45.3642723" lon="10.599364"><ele>142.0</ele><time>2026-03-29T09:32:39.983Z</time></trkpt><trkpt lat="45.3642103" lon="10.5995152"><ele>143.25</ele><time>2026-03-29T09:32:40.983Z</time></trkpt><trkpt lat="45.364147" lon="10.599665"><ele>144.5</ele><time>2026-03-29T09:32:41.982Z</time></trkpt><trkpt lat="45.364082" lon="10.5998191"><ele>145.75</ele><time>2026-03-29T09:32:42.983Z</time></trkpt><trkpt lat="45.3640152" lon="10.5999722"><ele>147.0</ele><time>2026-03-29T09:32:43.982Z</time></trkpt><trkpt lat="45.3639432" lon="10.6001245"><ele>147.0</ele><time>2026-03-29T09:32:44.983Z</time></trkpt><trkpt lat="45.3638768" lon="10.6002837"><ele>147.0</ele><time>2026-03-29T09:32:45.982Z</time></trkpt><trkpt lat="45.363808" lon="10.6004462"><ele>147.0</ele><time>2026-03-29T09:32:46.982Z</time></trkpt><trkpt lat="45.3637407" lon="10.600614"><ele>147.0</ele><time>2026-03-29T09:32:47.982Z</time></trkpt><trkpt lat="45.3636732" lon="10.6007859"><ele>147.0</ele><time>2026-03-29T09:32:48.982Z</time></trkpt><trkpt lat="45.363603" lon="10.6009618"><ele>147.0</ele><time>2026-03-29T09:32:49.983Z</time></trkpt><trkpt lat="45.3635277" lon="10.6011428"><ele>147.0</ele><time>2026-03-29T09:32:50.983Z</time></trkpt><trkpt lat="45.3634553" lon="10.6013037"><ele>147.0</ele><time>2026-03-29T09:32:51.982Z</time></trkpt><trkpt lat="45.3633965" lon="10.6014468"><ele>147.0</ele><time>2026-03-29T09:32:52.983Z</time></trkpt><trkpt lat="45.3633469" lon="10.6015764"><ele>147.0</ele><time>2026-03-29T09:32:53.983Z</time></trkpt><trkpt lat="45.363301" lon="10.6016928"><ele>147.0</ele><time>2026-03-29T09:32:54.982Z</time></trkpt><trkpt lat="45.3632596" lon="10.6017962"><ele>147.0</ele><time>2026-03-29T09:32:55.983Z</time></trkpt><trkpt lat="45.3632207" lon="10.6018899"><ele>147.0</ele><time>2026-03-29T09:32:56.983Z</time></trkpt><trkpt lat="45.3631838" lon="10.6020154"><ele>148.25</ele><time>2026-03-29T09:32:57.982Z</time></trkpt><trkpt lat="45.3631404" lon="10.6021628"><ele>149.5</ele><time>2026-03-29T09:32:58.983Z</time></trkpt><trkpt lat="45.3630878" lon="10.6023249"><ele>150.75</ele><time>2026-03-29T09:32:59.982Z</time></trkpt><trkpt lat="45.3630325" lon="10.602497"><ele>152.0</ele><time>2026-03-29T09:33:00.983Z</time></trkpt><trkpt lat="45.3629736" lon="10.6026723"><ele>149.5</ele><time>2026-03-29T09:33:01.983Z</time></trkpt><trkpt lat="45.3629114" lon="10.6028568"><ele>147.0</ele><time>2026-03-29T09:33:02.982Z</time></trkpt><trkpt lat="45.36285" lon="10.603048"><ele>144.5</ele><time>2026-03-29T09:33:03.982Z</time></trkpt><trkpt lat="45.3627859" lon="10.6032385"><ele>142.0</ele><time>2026-03-29T09:33:04.983Z</time></trkpt><trkpt lat="45.3627156" lon="10.6034255"><ele>142.0</ele><time>2026-03-29T09:33:05.983Z</time></trkpt><trkpt lat="45.3626446" lon="10.6036128"><ele>142.0</ele><time>2026-03-29T09:33:06.982Z</time></trkpt><trkpt lat="45.3625649" lon="10.603796"><ele>142.0</ele><time>2026-03-29T09:33:07.982Z</time></trkpt><trkpt lat="45.3624823" lon="10.6039729"><ele>141.79999999999998</ele><time>2026-03-29T09:33:08.982Z</time></trkpt><trkpt lat="45.3623995" lon="10.6041305"><ele>141.6</ele><time>2026-03-29T09:33:09.983Z</time></trkpt><trkpt lat="45.3623267" lon="10.6042543"><ele>141.39999999999998</ele><time>2026-03-29T09:33:10.982Z</time></trkpt><trkpt lat="45.3622636" lon="10.6043376"><ele>141.2</ele><time>2026-03-29T09:33:11.983Z</time></trkpt><trkpt lat="45.3622045" lon="10.6043745"><ele>141.0</ele><time>2026-03-29T09:33:12.984Z</time></trkpt><trkpt lat="45.3621347" lon="10.6043769"><ele>141.0</ele><time>2026-03-29T09:33:13.983Z</time></trkpt><trkpt lat="45.3620537" lon="10.6043578"><ele>141.0</ele><time>2026-03-29T09:33:14.982Z</time></trkpt><trkpt lat="45.3619642" lon="10.6043353"><ele>141.0</ele><time>2026-03-29T09:33:15.982Z</time></trkpt><trkpt lat="45.3618644" lon="10.6043185"><ele>141.0</ele><time>2026-03-29T09:33:16.983Z</time></trkpt><trkpt lat="45.3617533" lon="10.6042889"><ele>141.0</ele><time>2026-03-29T09:33:17.983Z</time></trkpt><trkpt lat="45.3616323" lon="10.6042388"><ele>141.0</ele><time>2026-03-29T09:33:18.982Z</time></trkpt><trkpt lat="45.3615123" lon="10.6041678"><ele>141.0</ele><time>2026-03-29T09:33:19.982Z</time></trkpt><trkpt lat="45.3613927" lon="10.6040745"><ele>141.0</ele><time>2026-03-29T09:33:20.982Z</time></trkpt><trkpt lat="45.3612759" lon="10.6039617"><ele>141.0</ele><time>2026-03-29T09:33:21.982Z</time></trkpt><trkpt lat="45.3611627" lon="10.6038459"><ele>140.5</ele><time>2026-03-29T09:33:22.983Z</time></trkpt><trkpt lat="45.3610543" lon="10.6037195"><ele>140.0</ele><time>2026-03-29T09:33:23.983Z</time></trkpt><trkpt lat="45.3609519" lon="10.6035853"><ele>139.5</ele><time>2026-03-29T09:33:24.983Z</time></trkpt><trkpt lat="45.3608566" lon="10.6034411"><ele>139.0</ele><time>2026-03-29T09:33:25.983Z</time></trkpt><trkpt lat="45.3607676" lon="10.6032894"><ele>138.5</ele><time>2026-03-29T09:33:26.983Z</time></trkpt><trkpt lat="45.360681" lon="10.6031263"><ele>138.0</ele><time>2026-03-29T09:33:27.982Z</time></trkpt><trkpt lat="45.3605978" lon="10.6029535"><ele>137.5</ele><time>2026-03-29T09:33:28.984Z</time></trkpt><trkpt lat="45.3605161" lon="10.6027867"><ele>137.0</ele><time>2026-03-29T09:33:29.983Z</time></trkpt><trkpt lat="45.3604333" lon="10.6026199"><ele>137.0</ele><time>2026-03-29T09:33:30.983Z</time></trkpt><trkpt lat="45.3603571" lon="10.6024552"><ele>137.0</ele><time>2026-03-29T09:33:31.983Z</time></trkpt><trkpt lat="45.360294" lon="10.6022811"><ele>137.0</ele><time>2026-03-29T09:33:32.983Z</time></trkpt><trkpt lat="45.3602439" lon="10.6021011"><ele>137.0</ele><time>2026-03-29T09:33:33.983Z</time></trkpt><trkpt lat="45.3602014" lon="10.6019287"><ele>137.0</ele><time>2026-03-29T09:33:34.983Z</time></trkpt><trkpt lat="45.3601631" lon="10.6017694"><ele>137.0</ele><time>2026-03-29T09:33:35.982Z</time></trkpt><trkpt lat="45.3601303" lon="10.6016307"><ele>137.0</ele><time>2026-03-29T09:33:36.982Z</time></trkpt><trkpt lat="45.3600985" lon="10.6015117"><ele>137.0</ele><time>2026-03-29T09:33:37.983Z</time></trkpt><trkpt lat="45.3600641" lon="10.6014052"><ele>137.0</ele><time>2026-03-29T09:33:38.982Z</time></trkpt><trkpt lat="45.3600291" lon="10.6013085"><ele>137.0</ele><time>2026-03-29T09:33:39.983Z</time></trkpt><trkpt lat="45.3599876" lon="10.601208"><ele>137.0</ele><time>2026-03-29T09:33:40.983Z</time></trkpt><trkpt lat="45.3599379" lon="10.6011105"><ele>137.0</ele><time>2026-03-29T09:33:41.982Z</time></trkpt><trkpt lat="45.3598851" lon="10.6010289"><ele>137.0</ele><time>2026-03-29T09:33:42.983Z</time></trkpt><trkpt lat="45.3598266" lon="10.6009582"><ele>137.0</ele><time>2026-03-29T09:33:43.982Z</time></trkpt><trkpt lat="45.3597403" lon="10.6008344"><ele>137.0</ele><time>2026-03-29T09:33:45.983Z</time></trkpt><trkpt lat="45.3596878" lon="10.6007491"><ele>137.0</ele><time>2026-03-29T09:33:46.982Z</time></trkpt><trkpt lat="45.3596186" lon="10.6006558"><ele>137.0</ele><time>2026-03-29T09:33:47.983Z</time></trkpt><trkpt lat="45.35955" lon="10.6005545"><ele>137.0</ele><time>2026-03-29T09:33:48.982Z</time></trkpt><trkpt lat="45.3594749" lon="10.6004282"><ele>137.0</ele><time>2026-03-29T09:33:49.983Z</time></trkpt><trkpt lat="45.3594054" lon="10.6003017"><ele>137.0</ele><time>2026-03-29T09:33:50.982Z</time></trkpt><trkpt lat="45.3593289" lon="10.6001645"><ele>135.5</ele><time>2026-03-29T09:33:51.982Z</time></trkpt><trkpt lat="45.35926" lon="10.6000124"><ele>134.0</ele><time>2026-03-29T09:33:52.982Z</time></trkpt><trkpt lat="45.3592126" lon="10.5998575"><ele>132.5</ele><time>2026-03-29T09:33:53.983Z</time></trkpt><trkpt lat="45.3591696" lon="10.5996931"><ele>131.0</ele><time>2026-03-29T09:33:54.982Z</time></trkpt><trkpt lat="45.3591272" lon="10.5995467"><ele>131.25</ele><time>2026-03-29T09:33:55.982Z</time></trkpt><trkpt lat="45.3590681" lon="10.599431"><ele>131.5</ele><time>2026-03-29T09:33:56.983Z</time></trkpt><trkpt lat="45.3589888" lon="10.5993239"><ele>131.75</ele><time>2026-03-29T09:33:57.983Z</time></trkpt><trkpt lat="45.3588861" lon="10.5992215"><ele>132.0</ele><time>2026-03-29T09:33:58.984Z</time></trkpt><trkpt lat="45.3587763" lon="10.5991123"><ele>132.25</ele><time>2026-03-29T09:33:59.982Z</time></trkpt><trkpt lat="45.3586701" lon="10.5990011"><ele>132.5</ele><time>2026-03-29T09:34:00.983Z</time></trkpt><trkpt lat="45.3585737" lon="10.5988913"><ele>132.75</ele><time>2026-03-29T09:34:01.982Z</time></trkpt><trkpt lat="45.3584799" lon="10.5987656"><ele>133.0</ele><time>2026-03-29T09:34:02.983Z</time></trkpt><trkpt lat="45.3583846" lon="10.5986317"><ele>133.20000000000002</ele><time>2026-03-29T09:34:03.982Z</time></trkpt><trkpt lat="45.3582956" lon="10.5984972"><ele>133.4</ele><time>2026-03-29T09:34:04.983Z</time></trkpt><trkpt lat="45.3582207" lon="10.5983775"><ele>133.60000000000002</ele><time>2026-03-29T09:34:05.983Z</time></trkpt><trkpt lat="45.3581606" lon="10.5982664"><ele>133.8</ele><time>2026-03-29T09:34:06.982Z</time></trkpt><trkpt lat="45.35811" lon="10.5981657"><ele>134.0</ele><time>2026-03-29T09:34:07.983Z</time></trkpt><trkpt lat="45.3580731" lon="10.5980783"><ele>133.8</ele><time>2026-03-29T09:34:08.983Z</time></trkpt><trkpt lat="45.3580284" lon="10.5979804"><ele>133.60000000000002</ele><time>2026-03-29T09:34:10.983Z</time></trkpt><trkpt lat="45.357929" lon="10.5979247"><ele>133.4</ele><time>2026-03-29T09:34:14.982Z</time></trkpt><trkpt lat="45.3578042" lon="10.5978804"><ele>133.20000000000002</ele><time>2026-03-29T09:34:16.983Z</time></trkpt><trkpt lat="45.3577227" lon="10.5978558"><ele>133.0</ele><time>2026-03-29T09:34:17.983Z</time></trkpt><trkpt lat="45.3576292" lon="10.5978272"><ele>133.0</ele><time>2026-03-29T09:34:18.982Z</time></trkpt><trkpt lat="45.3575271" lon="10.5977961"><ele>133.0</ele><time>2026-03-29T09:34:19.983Z</time></trkpt><trkpt lat="45.3574161" lon="10.5977623"><ele>133.0</ele><time>2026-03-29T09:34:20.982Z</time></trkpt><trkpt lat="45.3572981" lon="10.5977277"><ele>133.0</ele><time>2026-03-29T09:34:21.983Z</time></trkpt><trkpt lat="45.3571733" lon="10.5976878"><ele>132.5</ele><time>2026-03-29T09:34:22.982Z</time></trkpt><trkpt lat="45.3570434" lon="10.5976516"><ele>132.0</ele><time>2026-03-29T09:34:23.982Z</time></trkpt><trkpt lat="45.356906" lon="10.5976189"><ele>131.5</ele><time>2026-03-29T09:34:24.982Z</time></trkpt><trkpt lat="45.356764" lon="10.5976047"><ele>131.0</ele><time>2026-03-29T09:34:25.983Z</time></trkpt><trkpt lat="45.3566201" lon="10.5976086"><ele>131.0</ele><time>2026-03-29T09:34:26.983Z</time></trkpt><trkpt lat="45.3564735" lon="10.5976228"><ele>131.0</ele><time>2026-03-29T09:34:27.982Z</time></trkpt><trkpt lat="45.3563283" lon="10.5976416"><ele>131.0</ele><time>2026-03-29T09:34:28.983Z</time></trkpt><trkpt lat="45.3561867" lon="10.5976686"><ele>131.0</ele><time>2026-03-29T09:34:29.983Z</time></trkpt><trkpt lat="45.3560402" lon="10.5976888"><ele>130.66666666666666</ele><time>2026-03-29T09:34:30.983Z</time></trkpt><trkpt lat="45.355894" lon="10.5976859"><ele>130.33333333333334</ele><time>2026-03-29T09:34:31.983Z</time></trkpt><trkpt lat="45.3557424" lon="10.5976572"><ele>130.0</ele><time>2026-03-29T09:34:32.984Z</time></trkpt><trkpt lat="45.3555955" lon="10.5975952"><ele>129.0</ele><time>2026-03-29T09:34:33.983Z</time></trkpt><trkpt lat="45.3554538" lon="10.5975197"><ele>128.0</ele><time>2026-03-29T09:34:34.983Z</time></trkpt><trkpt lat="45.3553087" lon="10.5974422"><ele>127.0</ele><time>2026-03-29T09:34:35.983Z</time></trkpt><trkpt lat="45.3551629" lon="10.5973775"><ele>127.0</ele><time>2026-03-29T09:34:36.983Z</time></trkpt><trkpt lat="45.3550093" lon="10.5973402"><ele>127.0</ele><time>2026-03-29T09:34:37.983Z</time></trkpt><trkpt lat="45.3548548" lon="10.5973446"><ele>127.0</ele><time>2026-03-29T09:34:38.982Z</time></trkpt><trkpt lat="45.3547026" lon="10.5973729"><ele>128.25</ele><time>2026-03-29T09:34:39.982Z</time></trkpt><trkpt lat="45.3545526" lon="10.5974146"><ele>129.5</ele><time>2026-03-29T09:34:40.983Z</time></trkpt><trkpt lat="45.354409" lon="10.5974566"><ele>130.75</ele><time>2026-03-29T09:34:41.983Z</time></trkpt><trkpt lat="45.3542711" lon="10.5974987"><ele>132.0</ele><time>2026-03-29T09:34:42.982Z</time></trkpt><trkpt lat="45.3541438" lon="10.5975551"><ele>132.0</ele><time>2026-03-29T09:34:43.982Z</time></trkpt><trkpt lat="45.3540282" lon="10.5976192"><ele>132.0</ele><time>2026-03-29T09:34:44.983Z</time></trkpt><trkpt lat="45.3539201" lon="10.597679"><ele>132.0</ele><time>2026-03-29T09:34:45.983Z</time></trkpt><trkpt lat="45.353815" lon="10.5977485"><ele>132.0</ele><time>2026-03-29T09:34:46.982Z</time></trkpt><trkpt lat="45.3537264" lon="10.5978391"><ele>134.25</ele><time>2026-03-29T09:34:47.983Z</time></trkpt><trkpt lat="45.3536502" lon="10.5979559"><ele>136.5</ele><time>2026-03-29T09:34:48.983Z</time></trkpt><trkpt lat="45.353595" lon="10.5981028"><ele>138.75</ele><time>2026-03-29T09:34:49.982Z</time></trkpt><trkpt lat="45.3535541" lon="10.5982516"><ele>141.0</ele><time>2026-03-29T09:34:50.983Z</time></trkpt><trkpt lat="45.3535114" lon="10.5983936"><ele>141.0</ele><time>2026-03-29T09:34:51.983Z</time></trkpt><trkpt lat="45.3534659" lon="10.5985323"><ele>141.0</ele><time>2026-03-29T09:34:52.983Z</time></trkpt><trkpt lat="45.3534233" lon="10.5986705"><ele>141.0</ele><time>2026-03-29T09:34:53.983Z</time></trkpt><trkpt lat="45.3533835" lon="10.5988123"><ele>141.0</ele><time>2026-03-29T09:34:54.983Z</time></trkpt><trkpt lat="45.3533385" lon="10.598954"><ele>141.0</ele><time>2026-03-29T09:34:55.983Z</time></trkpt><trkpt lat="45.3532893" lon="10.5990949"><ele>140.75</ele><time>2026-03-29T09:34:56.983Z</time></trkpt><trkpt lat="45.3532381" lon="10.5992374"><ele>140.5</ele><time>2026-03-29T09:34:57.983Z</time></trkpt><trkpt lat="45.3531828" lon="10.5993793"><ele>140.25</ele><time>2026-03-29T09:34:58.983Z</time></trkpt><trkpt lat="45.3531256" lon="10.5995183"><ele>140.0</ele><time>2026-03-29T09:34:59.982Z</time></trkpt><trkpt lat="45.353065" lon="10.5996538"><ele>144.4</ele><time>2026-03-29T09:35:00.982Z</time></trkpt><trkpt lat="45.3530054" lon="10.5997879"><ele>148.8</ele><time>2026-03-29T09:35:01.983Z</time></trkpt><trkpt lat="45.3529461" lon="10.5999226"><ele>153.2</ele><time>2026-03-29T09:35:02.982Z</time></trkpt><trkpt lat="45.3528905" lon="10.6000573"><ele>157.6</ele><time>2026-03-29T09:35:03.982Z</time></trkpt><trkpt lat="45.3528344" lon="10.6001934"><ele>162.0</ele><time>2026-03-29T09:35:04.983Z</time></trkpt><trkpt lat="45.3527766" lon="10.6003252"><ele>159.4</ele><time>2026-03-29T09:35:05.982Z</time></trkpt><trkpt lat="45.3527191" lon="10.6004507"><ele>156.79999999999998</ele><time>2026-03-29T09:35:06.983Z</time></trkpt><trkpt lat="45.3526556" lon="10.6005693"><ele>154.2</ele><time>2026-03-29T09:35:07.982Z</time></trkpt><trkpt lat="45.352584" lon="10.6006864"><ele>151.6</ele><time>2026-03-29T09:35:08.983Z</time></trkpt><trkpt lat="45.3525017" lon="10.6007906"><ele>149.0</ele><time>2026-03-29T09:35:09.982Z</time></trkpt><trkpt lat="45.3524104" lon="10.6008718"><ele>149.0</ele><time>2026-03-29T09:35:10.982Z</time></trkpt><trkpt lat="45.3523238" lon="10.60094"><ele>149.0</ele><time>2026-03-29T09:35:11.983Z</time></trkpt><trkpt lat="45.3522423" lon="10.6009991"><ele>149.0</ele><time>2026-03-29T09:35:12.983Z</time></trkpt><trkpt lat="45.3521716" lon="10.6010454"><ele>149.0</ele><time>2026-03-29T09:35:13.982Z</time></trkpt><trkpt lat="45.352067" lon="10.6010843"><ele>149.0</ele><time>2026-03-29T09:35:15.983Z</time></trkpt><trkpt lat="45.3519879" lon="10.6010883"><ele>150.4</ele><time>2026-03-29T09:35:18.984Z</time></trkpt><trkpt lat="45.351876" lon="10.6010849"><ele>151.8</ele><time>2026-03-29T09:36:16.99Z</time></trkpt><trkpt lat="45.3517949" lon="10.6010732"><ele>153.2</ele><time>2026-03-29T09:36:18.99Z</time></trkpt><trkpt lat="45.3517118" lon="10.6010601"><ele>154.6</ele><time>2026-03-29T09:36:20.99Z</time></trkpt><trkpt lat="45.3516219" lon="10.6010494"><ele>156.0</ele><time>2026-03-29T09:36:23.99Z</time></trkpt><trkpt lat="45.3515334" lon="10.601039"><ele>156.0</ele><time>2026-03-29T09:36:26.99Z</time></trkpt><trkpt lat="45.3514696" lon="10.6010328"><ele>156.0</ele><time>2026-03-29T09:36:28.99Z</time></trkpt><trkpt lat="45.3514098" lon="10.6009328"><ele>156.0</ele><time>2026-03-29T09:36:30.99Z</time></trkpt><trkpt lat="45.3513665" lon="10.6008248"><ele>156.0</ele><time>2026-03-29T09:36:32.99Z</time></trkpt><trkpt lat="45.3513209" lon="10.6006781"><ele>156.0</ele><time>2026-03-29T09:36:34.99Z</time></trkpt><trkpt lat="45.3512708" lon="10.60052"><ele>156.6</ele><time>2026-03-29T09:36:36.99Z</time></trkpt><trkpt lat="45.351245" lon="10.6004332"><ele>157.2</ele><time>2026-03-29T09:36:37.99Z</time></trkpt><trkpt lat="45.3512058" lon="10.600259"><ele>157.8</ele><time>2026-03-29T09:36:39.99Z</time></trkpt><trkpt lat="45.3511485" lon="10.6001005"><ele>158.4</ele><time>2026-03-29T09:36:41.99Z</time></trkpt><trkpt lat="45.3511188" lon="10.6000148"><ele>159.0</ele><time>2026-03-29T09:36:42.99Z</time></trkpt><trkpt lat="45.3510967" lon="10.5999268"><ele>159.0</ele><time>2026-03-29T09:36:43.99Z</time></trkpt><trkpt lat="45.3510676" lon="10.5998467"><ele>159.0</ele><time>2026-03-29T09:36:44.991Z</time></trkpt><trkpt lat="45.3510064" lon="10.5997106"><ele>159.0</ele><time>2026-03-29T09:36:46.99Z</time></trkpt><trkpt lat="45.3509477" lon="10.5995682"><ele>159.0</ele><time>2026-03-29T09:36:48.99Z</time></trkpt><trkpt lat="45.3509118" lon="10.5994854"><ele>159.0</ele><time>2026-03-29T09:36:49.99Z</time></trkpt><trkpt lat="45.3508747" lon="10.5993943"><ele>159.0</ele><time>2026-03-29T09:36:50.99Z</time></trkpt><trkpt lat="45.3508383" lon="10.5993056"><ele>158.66666666666666</ele><time>2026-03-29T09:36:51.99Z</time></trkpt><trkpt lat="45.3507962" lon="10.5992123"><ele>158.33333333333334</ele><time>2026-03-29T09:36:52.99Z</time></trkpt><trkpt lat="45.3507571" lon="10.5991126"><ele>158.0</ele><time>2026-03-29T09:36:53.99Z</time></trkpt><trkpt lat="45.3507256" lon="10.5990047"><ele>157.66666666666669</ele><time>2026-03-29T09:36:54.99Z</time></trkpt><trkpt lat="45.3506928" lon="10.5988989"><ele>157.33333333333334</ele><time>2026-03-29T09:36:55.99Z</time></trkpt><trkpt lat="45.350664" lon="10.5987847"><ele>157.0</ele><time>2026-03-29T09:36:56.99Z</time></trkpt><trkpt lat="45.3506261" lon="10.5986782"><ele>155.6</ele><time>2026-03-29T09:36:57.99Z</time></trkpt><trkpt lat="45.3505749" lon="10.5985852"><ele>154.2</ele><time>2026-03-29T09:36:58.99Z</time></trkpt><trkpt lat="45.3505094" lon="10.5984908"><ele>152.8</ele><time>2026-03-29T09:36:59.99Z</time></trkpt><trkpt lat="45.350435" lon="10.5984056"><ele>151.4</ele><time>2026-03-29T09:37:00.99Z</time></trkpt><trkpt lat="45.3503598" lon="10.5983219"><ele>150.0</ele><time>2026-03-29T09:37:01.99Z</time></trkpt><trkpt lat="45.3502775" lon="10.598236"><ele>149.6</ele><time>2026-03-29T09:37:02.99Z</time></trkpt><trkpt lat="45.3502071" lon="10.5981567"><ele>149.2</ele><time>2026-03-29T09:37:03.99Z</time></trkpt><trkpt lat="45.3501386" lon="10.5980741"><ele>148.8</ele><time>2026-03-29T09:37:04.99Z</time></trkpt><trkpt lat="45.3500689" lon="10.5979793"><ele>148.4</ele><time>2026-03-29T09:37:05.99Z</time></trkpt><trkpt lat="45.3499934" lon="10.5979171"><ele>148.0</ele><time>2026-03-29T09:37:06.99Z</time></trkpt><trkpt lat="45.3499038" lon="10.597854"><ele>147.20000000000002</ele><time>2026-03-29T09:37:07.99Z</time></trkpt><trkpt lat="45.3498187" lon="10.5977931"><ele>146.4</ele><time>2026-03-29T09:37:08.99Z</time></trkpt><trkpt lat="45.3497359" lon="10.5977504"><ele>145.60000000000002</ele><time>2026-03-29T09:37:09.99Z</time></trkpt><trkpt lat="45.3495911" lon="10.5977812"><ele>144.8</ele><time>2026-03-29T09:37:11.99Z</time></trkpt><trkpt lat="45.3495081" lon="10.5978302"><ele>144.0</ele><time>2026-03-29T09:37:12.99Z</time></trkpt><trkpt lat="45.349435" lon="10.5978926"><ele>144.00000000000003</ele><time>2026-03-29T09:37:13.99Z</time></trkpt><trkpt lat="45.3493802" lon="10.5979681"><ele>144.0</ele><time>2026-03-29T09:37:14.99Z</time></trkpt><trkpt lat="45.3493273" lon="10.5980283"><ele>144.0</ele><time>2026-03-29T09:37:15.99Z</time></trkpt><trkpt lat="45.3492602" lon="10.5980743"><ele>144.0</ele><time>2026-03-29T09:37:16.99Z</time></trkpt><trkpt lat="45.3491903" lon="10.5980941"><ele>144.0</ele><time>2026-03-29T09:37:17.99Z</time></trkpt><trkpt lat="45.3491189" lon="10.5981089"><ele>144.00000000000003</ele><time>2026-03-29T09:37:18.99Z</time></trkpt><trkpt lat="45.3490417" lon="10.5981414"><ele>144.0</ele><time>2026-03-29T09:37:19.99Z</time></trkpt><trkpt lat="45.3489561" lon="10.5981969"><ele>143.0</ele><time>2026-03-29T09:37:20.99Z</time></trkpt><trkpt lat="45.3488614" lon="10.5982526"><ele>142.0</ele><time>2026-03-29T09:37:21.99Z</time></trkpt><trkpt lat="45.348768" lon="10.5982896"><ele>141.0</ele><time>2026-03-29T09:37:22.99Z</time></trkpt><trkpt lat="45.3486664" lon="10.598323"><ele>140.0</ele><time>2026-03-29T09:37:23.99Z</time></trkpt><trkpt lat="45.34856" lon="10.5983554"><ele>139.0</ele><time>2026-03-29T09:37:24.99Z</time></trkpt><trkpt lat="45.3484558" lon="10.5983747"><ele>139.0</ele><time>2026-03-29T09:37:25.99Z</time></trkpt><trkpt lat="45.3483547" lon="10.5984059"><ele>139.0</ele><time>2026-03-29T09:37:26.99Z</time></trkpt><trkpt lat="45.3482519" lon="10.5984326"><ele>139.0</ele><time>2026-03-29T09:37:27.99Z</time></trkpt><trkpt lat="45.3481436" lon="10.5984471"><ele>139.0</ele><time>2026-03-29T09:37:28.99Z</time></trkpt><trkpt lat="45.3480433" lon="10.5984683"><ele>139.0</ele><time>2026-03-29T09:37:29.99Z</time></trkpt><trkpt lat="45.3479417" lon="10.5984879"><ele>138.8</ele><time>2026-03-29T09:37:30.99Z</time></trkpt><trkpt lat="45.3478381" lon="10.5984969"><ele>138.60000000000002</ele><time>2026-03-29T09:37:31.99Z</time></trkpt><trkpt lat="45.3477337" lon="10.5984823"><ele>138.4</ele><time>2026-03-29T09:37:32.99Z</time></trkpt><trkpt lat="45.3476273" lon="10.5984449"><ele>138.20000000000002</ele><time>2026-03-29T09:37:33.99Z</time></trkpt><trkpt lat="45.3475199" lon="10.5983854"><ele>138.0</ele><time>2026-03-29T09:37:34.99Z</time></trkpt><trkpt lat="45.34741" lon="10.5983138"><ele>138.0</ele><time>2026-03-29T09:37:35.99Z</time></trkpt><trkpt lat="45.3473011" lon="10.5982417"><ele>138.0</ele><time>2026-03-29T09:37:36.99Z</time></trkpt><trkpt lat="45.3471837" lon="10.5981771"><ele>138.0</ele><time>2026-03-29T09:37:37.99Z</time></trkpt><trkpt lat="45.3470604" lon="10.598109"><ele>138.0</ele><time>2026-03-29T09:37:38.99Z</time></trkpt><trkpt lat="45.3469358" lon="10.5980432"><ele>138.0</ele><time>2026-03-29T09:37:39.99Z</time></trkpt><trkpt lat="45.3468084" lon="10.5979748"><ele>138.0</ele><time>2026-03-29T09:37:40.99Z</time></trkpt><trkpt lat="45.3466791" lon="10.5979112"><ele>138.0</ele><time>2026-03-29T09:37:41.99Z</time></trkpt><trkpt lat="45.3465447" lon="10.597866"><ele>138.0</ele><time>2026-03-29T09:37:42.99Z</time></trkpt><trkpt lat="45.3464024" lon="10.5978509"><ele>135.5</ele><time>2026-03-29T09:37:43.99Z</time></trkpt><trkpt lat="45.3462608" lon="10.597881"><ele>133.0</ele><time>2026-03-29T09:37:44.99Z</time></trkpt><trkpt lat="45.3461321" lon="10.5979492"><ele>130.5</ele><time>2026-03-29T09:37:45.99Z</time></trkpt><trkpt lat="45.3460072" lon="10.5980458"><ele>128.0</ele><time>2026-03-29T09:37:46.99Z</time></trkpt><trkpt lat="45.3458809" lon="10.598152"><ele>128.0</ele><time>2026-03-29T09:37:47.99Z</time></trkpt><trkpt lat="45.3457531" lon="10.5982472"><ele>128.0</ele><time>2026-03-29T09:37:48.99Z</time></trkpt><trkpt lat="45.3456115" lon="10.5983062"><ele>128.0</ele><time>2026-03-29T09:37:49.99Z</time></trkpt><trkpt lat="45.3454622" lon="10.5983366"><ele>128.0</ele><time>2026-03-29T09:37:50.99Z</time></trkpt><trkpt lat="45.3453099" lon="10.5983138"><ele>125.0</ele><time>2026-03-29T09:37:51.99Z</time></trkpt><trkpt lat="45.3451538" lon="10.5982592"><ele>122.0</ele><time>2026-03-29T09:37:52.99Z</time></trkpt><trkpt lat="45.3450022" lon="10.5981886"><ele>119.0</ele><time>2026-03-29T09:37:53.99Z</time></trkpt><trkpt lat="45.3448466" lon="10.5981172"><ele>116.66666666666666</ele><time>2026-03-29T09:37:54.99Z</time></trkpt><trkpt lat="45.3446862" lon="10.5980421"><ele>114.33333333333334</ele><time>2026-03-29T09:37:55.99Z</time></trkpt><trkpt lat="45.3445207" lon="10.5979617"><ele>112.0</ele><time>2026-03-29T09:37:56.99Z</time></trkpt><trkpt lat="45.3443506" lon="10.5978791"><ele>111.66666666666667</ele><time>2026-03-29T09:37:57.99Z</time></trkpt><trkpt lat="45.3441828" lon="10.5977989"><ele>111.33333333333334</ele><time>2026-03-29T09:37:58.99Z</time></trkpt><trkpt lat="45.3440122" lon="10.5977163"><ele>111.0</ele><time>2026-03-29T09:37:59.99Z</time></trkpt><trkpt lat="45.3438447" lon="10.597641"><ele>109.66666666666666</ele><time>2026-03-29T09:38:00.99Z</time></trkpt><trkpt lat="45.343674" lon="10.5975637"><ele>108.33333333333333</ele><time>2026-03-29T09:38:01.99Z</time></trkpt><trkpt lat="45.3435027" lon="10.5974987"><ele>107.0</ele><time>2026-03-29T09:38:02.99Z</time></trkpt><trkpt lat="45.3433301" lon="10.5974497"><ele>107.0</ele><time>2026-03-29T09:38:03.991Z</time></trkpt><trkpt lat="45.3431588" lon="10.5974185"><ele>107.0</ele><time>2026-03-29T09:38:04.99Z</time></trkpt><trkpt lat="45.3429833" lon="10.5973845"><ele>107.0</ele><time>2026-03-29T09:38:05.99Z</time></trkpt><trkpt lat="45.3428062" lon="10.5973593"><ele>105.0</ele><time>2026-03-29T09:38:06.99Z</time></trkpt><trkpt lat="45.3426339" lon="10.5973328"><ele>103.0</ele><time>2026-03-29T09:38:07.99Z</time></trkpt><trkpt lat="45.3424522" lon="10.5973053"><ele>101.0</ele><time>2026-03-29T09:38:08.99Z</time></trkpt><trkpt lat="45.3422733" lon="10.5972752"><ele>99.33333333333333</ele><time>2026-03-29T09:38:09.99Z</time></trkpt><trkpt lat="45.3420953" lon="10.5972481"><ele>97.66666666666666</ele><time>2026-03-29T09:38:10.99Z</time></trkpt><trkpt lat="45.3419133" lon="10.5972245"><ele>96.0</ele><time>2026-03-29T09:38:11.99Z</time></trkpt><trkpt lat="45.3417299" lon="10.597194"><ele>96.0</ele><time>2026-03-29T09:38:12.99Z</time></trkpt><trkpt lat="45.3415482" lon="10.5971634"><ele>96.0</ele><time>2026-03-29T09:38:13.99Z</time></trkpt><trkpt lat="45.3413663" lon="10.59713"><ele>96.0</ele><time>2026-03-29T09:38:14.99Z</time></trkpt><trkpt lat="45.3411853" lon="10.5970926"><ele>94.0</ele><time>2026-03-29T09:38:15.99Z</time></trkpt><trkpt lat="45.3410065" lon="10.5970563"><ele>92.0</ele><time>2026-03-29T09:38:16.991Z</time></trkpt><trkpt lat="45.3408317" lon="10.5970171"><ele>90.0</ele><time>2026-03-29T09:38:17.99Z</time></trkpt><trkpt lat="45.3406673" lon="10.5969751"><ele>89.0</ele><time>2026-03-29T09:38:18.99Z</time></trkpt><trkpt lat="45.3405084" lon="10.5969265"><ele>88.0</ele><time>2026-03-29T09:38:19.991Z</time></trkpt><trkpt lat="45.3403616" lon="10.5968824"><ele>87.0</ele><time>2026-03-29T09:38:20.99Z</time></trkpt><trkpt lat="45.3402296" lon="10.5968442"><ele>86.0</ele><time>2026-03-29T09:38:21.99Z</time></trkpt><trkpt lat="45.340116" lon="10.5968161"><ele>86.0</ele><time>2026-03-29T09:38:22.99Z</time></trkpt><trkpt lat="45.3400212" lon="10.5968023"><ele>86.0</ele><time>2026-03-29T09:38:23.99Z</time></trkpt><trkpt lat="45.3399342" lon="10.5968148"><ele>86.0</ele><time>2026-03-29T09:38:24.99Z</time></trkpt><trkpt lat="45.3398589" lon="10.5968515"><ele>86.0</ele><time>2026-03-29T09:38:25.99Z</time></trkpt><trkpt lat="45.3397932" lon="10.5969001"><ele>86.0</ele><time>2026-03-29T09:38:26.99Z</time></trkpt><trkpt lat="45.3397021" lon="10.5969495"><ele>86.0</ele><time>2026-03-29T09:38:28.99Z</time></trkpt><trkpt lat="45.3396244" lon="10.5969478"><ele>86.0</ele><time>2026-03-29T09:45:06.99Z</time></trkpt><trkpt lat="45.3395594" lon="10.5968925"><ele>86.0</ele><time>2026-03-29T09:45:08.991Z</time></trkpt><trkpt lat="45.3395326" lon="10.5967955"><ele>86.0</ele><time>2026-03-29T09:45:10.99Z</time></trkpt><trkpt lat="45.339552" lon="10.5967048"><ele>86.0</ele><time>2026-03-29T09:45:14.99Z</time></trkpt><trkpt lat="45.3396619" lon="10.5967175"><ele>86.0</ele><time>2026-03-29T09:45:17.99Z</time></trkpt><trkpt lat="45.339788" lon="10.5967594"><ele>86.0</ele><time>2026-03-29T09:45:19.99Z</time></trkpt><trkpt lat="45.339856" lon="10.596786"><ele>86.0</ele><time>2026-03-29T09:45:20.99Z</time></trkpt><trkpt lat="45.3399343" lon="10.5968086"><ele>86.0</ele><time>2026-03-29T09:45:21.99Z</time></trkpt><trkpt lat="45.3400195" lon="10.5968342"><ele>86.0</ele><time>2026-03-29T09:45:22.99Z</time></trkpt><trkpt lat="45.3401107" lon="10.5968617"><ele>86.0</ele><time>2026-03-29T09:45:23.99Z</time></trkpt><trkpt lat="45.3402142" lon="10.59689"><ele>86.0</ele><time>2026-03-29T09:45:24.99Z</time></trkpt><trkpt lat="45.3403231" lon="10.5969175"><ele>86.0</ele><time>2026-03-29T09:45:25.99Z</time></trkpt><trkpt lat="45.340437" lon="10.5969504"><ele>86.0</ele><time>2026-03-29T09:45:26.991Z</time></trkpt><trkpt lat="45.3405567" lon="10.5969829"><ele>86.0</ele><time>2026-03-29T09:45:27.99Z</time></trkpt><trkpt lat="45.3406817" lon="10.5970195"><ele>86.0</ele><time>2026-03-29T09:45:28.991Z</time></trkpt><trkpt lat="45.3408078" lon="10.597057"><ele>86.75</ele><time>2026-03-29T09:45:29.99Z</time></trkpt><trkpt lat="45.3409354" lon="10.5970924"><ele>87.5</ele><time>2026-03-29T09:45:30.99Z</time></trkpt><trkpt lat="45.3410676" lon="10.5971265"><ele>88.25</ele><time>2026-03-29T09:45:31.99Z</time></trkpt><trkpt lat="45.3411998" lon="10.5971583"><ele>89.0</ele><time>2026-03-29T09:45:32.99Z</time></trkpt><trkpt lat="45.3413321" lon="10.597186"><ele>90.75</ele><time>2026-03-29T09:45:33.99Z</time></trkpt><trkpt lat="45.3414659" lon="10.5972077"><ele>92.5</ele><time>2026-03-29T09:45:34.99Z</time></trkpt><trkpt lat="45.341602" lon="10.5972292"><ele>94.25</ele><time>2026-03-29T09:45:35.99Z</time></trkpt><trkpt lat="45.3417394" lon="10.597249"><ele>96.0</ele><time>2026-03-29T09:45:36.99Z</time></trkpt><trkpt lat="45.3418738" lon="10.5972673"><ele>96.0</ele><time>2026-03-29T09:45:37.99Z</time></trkpt><trkpt lat="45.3420065" lon="10.5972876"><ele>96.0</ele><time>2026-03-29T09:45:38.99Z</time></trkpt><trkpt lat="45.3421363" lon="10.5973065"><ele>96.0</ele><time>2026-03-29T09:45:39.99Z</time></trkpt><trkpt lat="45.342266" lon="10.597322"><ele>96.0</ele><time>2026-03-29T09:45:40.99Z</time></trkpt><trkpt lat="45.3423928" lon="10.5973387"><ele>97.25</ele><time>2026-03-29T09:45:41.99Z</time></trkpt><trkpt lat="45.3425192" lon="10.5973518"><ele>98.5</ele><time>2026-03-29T09:45:42.99Z</time></trkpt><trkpt lat="45.3426435" lon="10.5973645"><ele>99.75</ele><time>2026-03-29T09:45:43.99Z</time></trkpt><trkpt lat="45.3427631" lon="10.5973807"><ele>101.0</ele><time>2026-03-29T09:45:44.99Z</time></trkpt><trkpt lat="45.3428816" lon="10.5973987"><ele>101.0</ele><time>2026-03-29T09:45:45.99Z</time></trkpt><trkpt lat="45.343002" lon="10.5974184"><ele>101.0</ele><time>2026-03-29T09:45:46.99Z</time></trkpt><trkpt lat="45.3431167" lon="10.5974365"><ele>101.0</ele><time>2026-03-29T09:45:47.99Z</time></trkpt><trkpt lat="45.3432332" lon="10.5974592"><ele>101.0</ele><time>2026-03-29T09:45:48.99Z</time></trkpt><trkpt lat="45.3433486" lon="10.5974841"><ele>102.5</ele><time>2026-03-29T09:45:49.99Z</time></trkpt><trkpt lat="45.3434625" lon="10.5975252"><ele>104.0</ele><time>2026-03-29T09:45:50.99Z</time></trkpt><trkpt lat="45.3435756" lon="10.5975658"><ele>105.5</ele><time>2026-03-29T09:45:51.99Z</time></trkpt><trkpt lat="45.34369" lon="10.5976124"><ele>107.0</ele><time>2026-03-29T09:45:52.99Z</time></trkpt><trkpt lat="45.3438002" lon="10.5976639"><ele>108.0</ele><time>2026-03-29T09:45:53.991Z</time></trkpt><trkpt lat="45.3439134" lon="10.5977205"><ele>109.0</ele><time>2026-03-29T09:45:54.991Z</time></trkpt><trkpt lat="45.3440258" lon="10.5977814"><ele>110.0</ele><time>2026-03-29T09:45:55.991Z</time></trkpt><trkpt lat="45.3441428" lon="10.5978395"><ele>111.0</ele><time>2026-03-29T09:45:56.99Z</time></trkpt><trkpt lat="45.3442628" lon="10.5978966"><ele>111.25</ele><time>2026-03-29T09:45:57.99Z</time></trkpt><trkpt lat="45.3443839" lon="10.5979546"><ele>111.5</ele><time>2026-03-29T09:45:58.99Z</time></trkpt><trkpt lat="45.3445052" lon="10.598016"><ele>111.75</ele><time>2026-03-29T09:45:59.991Z</time></trkpt><trkpt lat="45.344627" lon="10.5980776"><ele>112.0</ele><time>2026-03-29T09:46:00.99Z</time></trkpt><trkpt lat="45.344752" lon="10.5981348"><ele>113.75</ele><time>2026-03-29T09:46:01.991Z</time></trkpt><trkpt lat="45.3448764" lon="10.5981916"><ele>115.5</ele><time>2026-03-29T09:46:02.99Z</time></trkpt><trkpt lat="45.345002" lon="10.5982453"><ele>117.25</ele><time>2026-03-29T09:46:03.99Z</time></trkpt><trkpt lat="45.3451265" lon="10.5983024"><ele>119.0</ele><time>2026-03-29T09:46:04.99Z</time></trkpt><trkpt lat="45.3452511" lon="10.598354"><ele>119.0</ele><time>2026-03-29T09:46:05.99Z</time></trkpt><trkpt lat="45.3453796" lon="10.5983823"><ele>119.0</ele><time>2026-03-29T09:46:06.99Z</time></trkpt><trkpt lat="45.3455109" lon="10.5983789"><ele>119.0</ele><time>2026-03-29T09:46:07.99Z</time></trkpt><trkpt lat="45.3456399" lon="10.5983437"><ele>119.0</ele><time>2026-03-29T09:46:08.99Z</time></trkpt><trkpt lat="45.3457635" lon="10.5982767"><ele>121.25</ele><time>2026-03-29T09:46:09.99Z</time></trkpt><trkpt lat="45.3458828" lon="10.5981878"><ele>123.5</ele><time>2026-03-29T09:46:10.991Z</time></trkpt><trkpt lat="45.3460003" lon="10.5980879"><ele>125.75</ele><time>2026-03-29T09:46:11.99Z</time></trkpt><trkpt lat="45.3461239" lon="10.5979986"><ele>128.0</ele><time>2026-03-29T09:46:12.99Z</time></trkpt><trkpt lat="45.346259" lon="10.5979335"><ele>130.5</ele><time>2026-03-29T09:46:13.99Z</time></trkpt><trkpt lat="45.346398" lon="10.5979076"><ele>133.0</ele><time>2026-03-29T09:46:14.99Z</time></trkpt><trkpt lat="45.3465395" lon="10.5979154"><ele>135.5</ele><time>2026-03-29T09:46:15.99Z</time></trkpt><trkpt lat="45.3466771" lon="10.5979646"><ele>138.0</ele><time>2026-03-29T09:46:16.99Z</time></trkpt><trkpt lat="45.3468084" lon="10.5980246"><ele>138.0</ele><time>2026-03-29T09:46:17.99Z</time></trkpt><trkpt lat="45.3469391" lon="10.5980917"><ele>138.0</ele><time>2026-03-29T09:46:18.99Z</time></trkpt><trkpt lat="45.347068" lon="10.5981604"><ele>138.0</ele><time>2026-03-29T09:46:19.99Z</time></trkpt><trkpt lat="45.3471975" lon="10.5982335"><ele>138.0</ele><time>2026-03-29T09:46:20.99Z</time></trkpt><trkpt lat="45.3473185" lon="10.598309"><ele>138.0</ele><time>2026-03-29T09:46:21.99Z</time></trkpt><trkpt lat="45.3474359" lon="10.5983815"><ele>138.0</ele><time>2026-03-29T09:46:22.99Z</time></trkpt><trkpt lat="45.3475498" lon="10.598453"><ele>138.0</ele><time>2026-03-29T09:46:23.99Z</time></trkpt><trkpt lat="45.3476701" lon="10.5985007"><ele>138.0</ele><time>2026-03-29T09:46:24.99Z</time></trkpt><trkpt lat="45.3477941" lon="10.598511"><ele>138.0</ele><time>2026-03-29T09:46:25.99Z</time></trkpt><trkpt lat="45.3479185" lon="10.5984966"><ele>138.0</ele><time>2026-03-29T09:46:26.99Z</time></trkpt><trkpt lat="45.3480407" lon="10.5984774"><ele>138.0</ele><time>2026-03-29T09:46:27.99Z</time></trkpt><trkpt lat="45.3481651" lon="10.5984499"><ele>138.0</ele><time>2026-03-29T09:46:28.99Z</time></trkpt><trkpt lat="45.3482875" lon="10.5984257"><ele>138.25</ele><time>2026-03-29T09:46:29.99Z</time></trkpt><trkpt lat="45.3484074" lon="10.5983988"><ele>138.5</ele><time>2026-03-29T09:46:30.99Z</time></trkpt><trkpt lat="45.3485246" lon="10.5983718"><ele>138.75</ele><time>2026-03-29T09:46:31.991Z</time></trkpt><trkpt lat="45.3486416" lon="10.5983394"><ele>139.0</ele><time>2026-03-29T09:46:32.99Z</time></trkpt><trkpt lat="45.3487574" lon="10.5983047"><ele>139.0</ele><time>2026-03-29T09:46:33.99Z</time></trkpt><trkpt lat="45.348864" lon="10.5982638"><ele>139.0</ele><time>2026-03-29T09:46:34.99Z</time></trkpt><trkpt lat="45.3489688" lon="10.5982242"><ele>139.0</ele><time>2026-03-29T09:46:35.99Z</time></trkpt><trkpt lat="45.3490627" lon="10.5981911"><ele>139.0</ele><time>2026-03-29T09:46:36.99Z</time></trkpt><trkpt lat="45.349145" lon="10.5981614"><ele>139.0</ele><time>2026-03-29T09:46:37.99Z</time></trkpt><trkpt lat="45.3492101" lon="10.5981669"><ele>139.83333333333334</ele><time>2026-03-29T09:46:38.99Z</time></trkpt><trkpt lat="45.3493272" lon="10.5981207"><ele>140.66666666666669</ele><time>2026-03-29T09:46:40.99Z</time></trkpt><trkpt lat="45.3493849" lon="10.5980685"><ele>141.5</ele><time>2026-03-29T09:46:41.99Z</time></trkpt><trkpt lat="45.3494427" lon="10.5980166"><ele>142.33333333333334</ele><time>2026-03-29T09:46:42.99Z</time></trkpt><trkpt lat="45.3494927" lon="10.5979565"><ele>143.16666666666666</ele><time>2026-03-29T09:46:43.99Z</time></trkpt><trkpt lat="45.3495756" lon="10.5978728"><ele>144.0</ele><time>2026-03-29T09:46:45.99Z</time></trkpt><trkpt lat="45.3496971" lon="10.5978469"><ele>143.83333333333334</ele><time>2026-03-29T09:46:47.99Z</time></trkpt><trkpt lat="45.3497927" lon="10.5978415"><ele>143.66666666666666</ele><time>2026-03-29T09:46:49.99Z</time></trkpt><trkpt lat="45.3498975" lon="10.5978298"><ele>143.5</ele><time>2026-03-29T09:46:51.991Z</time></trkpt><trkpt lat="45.3499259" lon="10.5977397"><ele>143.33333333333331</ele><time>2026-03-29T09:46:52.991Z</time></trkpt><trkpt lat="45.3499548" lon="10.5976465"><ele>143.16666666666666</ele><time>2026-03-29T09:46:53.99Z</time></trkpt><trkpt lat="45.349988" lon="10.5975471"><ele>143.0</ele><time>2026-03-29T09:46:54.99Z</time></trkpt><trkpt lat="45.3500265" lon="10.5974307"><ele>143.0</ele><time>2026-03-29T09:46:55.99Z</time></trkpt><trkpt lat="45.3500598" lon="10.5973059"><ele>143.0</ele><time>2026-03-29T09:46:56.99Z</time></trkpt><trkpt lat="45.3500883" lon="10.5971717"><ele>143.0</ele><time>2026-03-29T09:46:57.99Z</time></trkpt><trkpt lat="45.3501218" lon="10.5970433"><ele>143.0</ele><time>2026-03-29T09:46:58.99Z</time></trkpt><trkpt lat="45.3501586" lon="10.5969151"><ele>143.0</ele><time>2026-03-29T09:46:59.99Z</time></trkpt><trkpt lat="45.350193" lon="10.5967856"><ele>142.6</ele><time>2026-03-29T09:47:00.99Z</time></trkpt><trkpt lat="45.3502219" lon="10.5966475"><ele>142.20000000000002</ele><time>2026-03-29T09:47:01.99Z</time></trkpt><trkpt lat="45.3502671" lon="10.5965144"><ele>141.8</ele><time>2026-03-29T09:47:02.99Z</time></trkpt><trkpt lat="45.3503295" lon="10.5963876"><ele>141.4</ele><time>2026-03-29T09:47:03.99Z</time></trkpt><trkpt lat="45.3503958" lon="10.5962564"><ele>141.0</ele><time>2026-03-29T09:47:04.99Z</time></trkpt><trkpt lat="45.3504631" lon="10.5961213"><ele>140.0</ele><time>2026-03-29T09:47:05.99Z</time></trkpt><trkpt lat="45.3505349" lon="10.5959802"><ele>139.0</ele><time>2026-03-29T09:47:06.99Z</time></trkpt><trkpt lat="45.3506076" lon="10.595835"><ele>138.0</ele><time>2026-03-29T09:47:07.99Z</time></trkpt><trkpt lat="45.3506834" lon="10.5956881"><ele>137.0</ele><time>2026-03-29T09:47:08.99Z</time></trkpt><trkpt lat="45.3507641" lon="10.5955385"><ele>137.0</ele><time>2026-03-29T09:47:09.99Z</time></trkpt><trkpt lat="45.3508442" lon="10.5953819"><ele>137.0</ele><time>2026-03-29T09:47:10.99Z</time></trkpt><trkpt lat="45.3509203" lon="10.5952173"><ele>137.0</ele><time>2026-03-29T09:47:11.99Z</time></trkpt><trkpt lat="45.350993" lon="10.5950465"><ele>137.0</ele><time>2026-03-29T09:47:12.99Z</time></trkpt><trkpt lat="45.3510548" lon="10.5948639"><ele>137.5</ele><time>2026-03-29T09:47:13.99Z</time></trkpt><trkpt lat="45.351106" lon="10.594674"><ele>138.0</ele><time>2026-03-29T09:47:14.99Z</time></trkpt><trkpt lat="45.3511537" lon="10.5944794"><ele>138.5</ele><time>2026-03-29T09:47:15.99Z</time></trkpt><trkpt lat="45.351206" lon="10.5942863"><ele>139.0</ele><time>2026-03-29T09:47:16.99Z</time></trkpt><trkpt lat="45.3512584" lon="10.5940967"><ele>138.0</ele><time>2026-03-29T09:47:17.99Z</time></trkpt><trkpt lat="45.3513058" lon="10.5939106"><ele>137.0</ele><time>2026-03-29T09:47:18.99Z</time></trkpt><trkpt lat="45.3513473" lon="10.5937346"><ele>136.0</ele><time>2026-03-29T09:47:19.99Z</time></trkpt><trkpt lat="45.3513844" lon="10.5935721"><ele>135.0</ele><time>2026-03-29T09:47:20.991Z</time></trkpt><trkpt lat="45.3514175" lon="10.5934268"><ele>132.83333333333334</ele><time>2026-03-29T09:47:21.99Z</time></trkpt><trkpt lat="45.3514535" lon="10.5933022"><ele>130.66666666666666</ele><time>2026-03-29T09:47:22.99Z</time></trkpt><trkpt lat="45.3515047" lon="10.5932014"><ele>128.5</ele><time>2026-03-29T09:47:23.99Z</time></trkpt><trkpt lat="45.351571" lon="10.5931335"><ele>126.33333333333333</ele><time>2026-03-29T09:47:24.99Z</time></trkpt><trkpt lat="45.3516563" lon="10.5930935"><ele>124.16666666666666</ele><time>2026-03-29T09:47:25.99Z</time></trkpt><trkpt lat="45.3517471" lon="10.5930697"><ele>122.0</ele><time>2026-03-29T09:47:26.99Z</time></trkpt><trkpt lat="45.351848" lon="10.5930636"><ele>122.0</ele><time>2026-03-29T09:47:27.99Z</time></trkpt><trkpt lat="45.3519586" lon="10.5930755"><ele>122.0</ele><time>2026-03-29T09:47:28.99Z</time></trkpt><trkpt lat="45.3520775" lon="10.5930994"><ele>122.0</ele><time>2026-03-29T09:47:29.99Z</time></trkpt><trkpt lat="45.3522056" lon="10.5931172"><ele>122.0</ele><time>2026-03-29T09:47:30.99Z</time></trkpt><trkpt lat="45.3523386" lon="10.5931342"><ele>121.75</ele><time>2026-03-29T09:47:31.99Z</time></trkpt><trkpt lat="45.3524751" lon="10.5931239"><ele>121.5</ele><time>2026-03-29T09:47:32.99Z</time></trkpt><trkpt lat="45.3526089" lon="10.5930942"><ele>121.25</ele><time>2026-03-29T09:47:33.991Z</time></trkpt><trkpt lat="45.3527393" lon="10.5930742"><ele>121.0</ele><time>2026-03-29T09:47:34.99Z</time></trkpt><trkpt lat="45.352865" lon="10.5930792"><ele>121.0</ele><time>2026-03-29T09:47:35.99Z</time></trkpt><trkpt lat="45.3529927" lon="10.5931294"><ele>121.0</ele><time>2026-03-29T09:47:36.99Z</time></trkpt><trkpt lat="45.3531173" lon="10.5932067"><ele>121.0</ele><time>2026-03-29T09:47:37.99Z</time></trkpt><trkpt lat="45.3532406" lon="10.5932975"><ele>121.0</ele><time>2026-03-29T09:47:38.99Z</time></trkpt><trkpt lat="45.3533658" lon="10.593406"><ele>121.33333333333334</ele><time>2026-03-29T09:47:39.99Z</time></trkpt><trkpt lat="45.3534938" lon="10.5935239"><ele>121.66666666666666</ele><time>2026-03-29T09:47:40.99Z</time></trkpt><trkpt lat="45.3536054" lon="10.5936689"><ele>122.0</ele><time>2026-03-29T09:47:41.99Z</time></trkpt><trkpt lat="45.3537069" lon="10.5938338"><ele>122.33333333333333</ele><time>2026-03-29T09:47:42.99Z</time></trkpt><trkpt lat="45.3537956" lon="10.5940151"><ele>122.66666666666666</ele><time>2026-03-29T09:47:43.99Z</time></trkpt><trkpt lat="45.3538653" lon="10.5942061"><ele>123.0</ele><time>2026-03-29T09:47:44.991Z</time></trkpt><trkpt lat="45.3539091" lon="10.5944109"><ele>124.25</ele><time>2026-03-29T09:47:45.99Z</time></trkpt><trkpt lat="45.3539311" lon="10.594622"><ele>125.5</ele><time>2026-03-29T09:47:46.99Z</time></trkpt><trkpt lat="45.3539466" lon="10.5948248"><ele>126.75</ele><time>2026-03-29T09:47:47.99Z</time></trkpt><trkpt lat="45.3539739" lon="10.5950214"><ele>128.0</ele><time>2026-03-29T09:47:48.99Z</time></trkpt><trkpt lat="45.354031" lon="10.5952067"><ele>127.0</ele><time>2026-03-29T09:47:49.99Z</time></trkpt><trkpt lat="45.3541086" lon="10.5953642"><ele>126.0</ele><time>2026-03-29T09:47:50.99Z</time></trkpt><trkpt lat="45.3542075" lon="10.595481"><ele>125.0</ele><time>2026-03-29T09:47:51.99Z</time></trkpt><trkpt lat="45.3543235" lon="10.5955542"><ele>124.0</ele><time>2026-03-29T09:47:52.99Z</time></trkpt><trkpt lat="45.3544475" lon="10.5955812"><ele>124.0</ele><time>2026-03-29T09:47:53.99Z</time></trkpt><trkpt lat="45.3545669" lon="10.5955854"><ele>124.0</ele><time>2026-03-29T09:47:54.99Z</time></trkpt><trkpt lat="45.3546813" lon="10.5956237"><ele>124.0</ele><time>2026-03-29T09:47:55.99Z</time></trkpt><trkpt lat="45.3547913" lon="10.5956886"><ele>124.0</ele><time>2026-03-29T09:47:56.99Z</time></trkpt><trkpt lat="45.3548958" lon="10.5957796"><ele>125.25</ele><time>2026-03-29T09:47:57.99Z</time></trkpt><trkpt lat="45.3549879" lon="10.5958999"><ele>126.5</ele><time>2026-03-29T09:47:58.99Z</time></trkpt><trkpt lat="45.3550644" lon="10.5960416"><ele>127.75</ele><time>2026-03-29T09:47:59.99Z</time></trkpt><trkpt lat="45.3551126" lon="10.5962075"><ele>129.0</ele><time>2026-03-29T09:48:00.99Z</time></trkpt><trkpt lat="45.3551443" lon="10.59638"><ele>129.0</ele><time>2026-03-29T09:48:01.99Z</time></trkpt><trkpt lat="45.3551589" lon="10.5965531"><ele>129.0</ele><time>2026-03-29T09:48:02.99Z</time></trkpt><trkpt lat="45.3551681" lon="10.5967163"><ele>129.0</ele><time>2026-03-29T09:48:03.991Z</time></trkpt><trkpt lat="45.3551717" lon="10.5968696"><ele>129.0</ele><time>2026-03-29T09:48:04.99Z</time></trkpt><trkpt lat="45.3551732" lon="10.5969984"><ele>129.0</ele><time>2026-03-29T09:48:05.99Z</time></trkpt><trkpt lat="45.355172" lon="10.5970997"><ele>128.6</ele><time>2026-03-29T09:48:06.99Z</time></trkpt><trkpt lat="45.3551426" lon="10.5972322"><ele>128.2</ele><time>2026-03-29T09:48:08.99Z</time></trkpt><trkpt lat="45.3550811" lon="10.5973063"><ele>127.79999999999998</ele><time>2026-03-29T09:48:10.99Z</time></trkpt><trkpt lat="45.3549544" lon="10.5973197"><ele>127.39999999999999</ele><time>2026-03-29T09:48:12.99Z</time></trkpt><trkpt lat="45.3548612" lon="10.5973275"><ele>127.0</ele><time>2026-03-29T09:48:13.99Z</time></trkpt><trkpt lat="45.3547593" lon="10.59735"><ele>128.25</ele><time>2026-03-29T09:48:14.99Z</time></trkpt><trkpt lat="45.3546521" lon="10.5973773"><ele>129.5</ele><time>2026-03-29T09:48:15.99Z</time></trkpt><trkpt lat="45.35454" lon="10.5974039"><ele>130.75</ele><time>2026-03-29T09:48:16.99Z</time></trkpt><trkpt lat="45.3544171" lon="10.5974365"><ele>132.0</ele><time>2026-03-29T09:48:17.99Z</time></trkpt><trkpt lat="45.3542942" lon="10.5974773"><ele>132.0</ele><time>2026-03-29T09:48:18.99Z</time></trkpt><trkpt lat="45.354174" lon="10.5975328"><ele>132.0</ele><time>2026-03-29T09:48:19.99Z</time></trkpt><trkpt lat="45.3540589" lon="10.5975935"><ele>132.0</ele><time>2026-03-29T09:48:20.99Z</time></trkpt><trkpt lat="45.3539501" lon="10.5976539"><ele>132.0</ele><time>2026-03-29T09:48:21.99Z</time></trkpt><trkpt lat="45.3538455" lon="10.5977146"><ele>134.25</ele><time>2026-03-29T09:48:22.99Z</time></trkpt><trkpt lat="45.3537481" lon="10.5977993"><ele>136.5</ele><time>2026-03-29T09:48:23.99Z</time></trkpt><trkpt lat="45.353668" lon="10.5979267"><ele>138.75</ele><time>2026-03-29T09:48:24.99Z</time></trkpt><trkpt lat="45.3536059" lon="10.598077"><ele>141.0</ele><time>2026-03-29T09:48:25.99Z</time></trkpt><trkpt lat="45.3535555" lon="10.5982433"><ele>141.0</ele><time>2026-03-29T09:48:26.99Z</time></trkpt><trkpt lat="45.3535037" lon="10.5984073"><ele>141.0</ele><time>2026-03-29T09:48:27.99Z</time></trkpt><trkpt lat="45.3534534" lon="10.5985745"><ele>141.0</ele><time>2026-03-29T09:48:28.99Z</time></trkpt><trkpt lat="45.3534022" lon="10.5987461"><ele>141.0</ele><time>2026-03-29T09:48:29.99Z</time></trkpt><trkpt lat="45.3533488" lon="10.5989179"><ele>140.75</ele><time>2026-03-29T09:48:30.991Z</time></trkpt><trkpt lat="45.3532933" lon="10.5990919"><ele>140.5</ele><time>2026-03-29T09:48:31.99Z</time></trkpt><trkpt lat="45.3532313" lon="10.5992651"><ele>140.25</ele><time>2026-03-29T09:48:32.99Z</time></trkpt><trkpt lat="45.3531609" lon="10.5994353"><ele>140.0</ele><time>2026-03-29T09:48:33.99Z</time></trkpt><trkpt lat="45.3530862" lon="10.5996013"><ele>145.5</ele><time>2026-03-29T09:48:34.99Z</time></trkpt><trkpt lat="45.3530099" lon="10.5997665"><ele>151.0</ele><time>2026-03-29T09:48:35.99Z</time></trkpt><trkpt lat="45.3529387" lon="10.5999292"><ele>156.5</ele><time>2026-03-29T09:48:36.99Z</time></trkpt><trkpt lat="45.3528744" lon="10.6000907"><ele>162.0</ele><time>2026-03-29T09:48:37.99Z</time></trkpt><trkpt lat="45.3528093" lon="10.6002507"><ele>158.75</ele><time>2026-03-29T09:48:38.99Z</time></trkpt><trkpt lat="45.3527415" lon="10.600408"><ele>155.5</ele><time>2026-03-29T09:48:39.99Z</time></trkpt><trkpt lat="45.352663" lon="10.6005564"><ele>152.25</ele><time>2026-03-29T09:48:40.99Z</time></trkpt><trkpt lat="45.3525649" lon="10.6006911"><ele>149.0</ele><time>2026-03-29T09:48:41.99Z</time></trkpt><trkpt lat="45.3524604" lon="10.6008083"><ele>149.0</ele><time>2026-03-29T09:48:42.99Z</time></trkpt><trkpt lat="45.3523647" lon="10.6008939"><ele>149.0</ele><time>2026-03-29T09:48:43.99Z</time></trkpt><trkpt lat="45.3522798" lon="10.6009611"><ele>149.0</ele><time>2026-03-29T09:48:44.99Z</time></trkpt><trkpt lat="45.3522074" lon="10.6010121"><ele>149.0</ele><time>2026-03-29T09:48:45.99Z</time></trkpt><trkpt lat="45.3521084" lon="10.6010778"><ele>149.0</ele><time>2026-03-29T09:48:47.99Z</time></trkpt><trkpt lat="45.352055" lon="10.6011802"><ele>149.16666666666666</ele><time>2026-03-29T09:48:50.99Z</time></trkpt><trkpt lat="45.3520896" lon="10.6013167"><ele>149.33333333333331</ele><time>2026-03-29T09:48:52.99Z</time></trkpt><trkpt lat="45.3521216" lon="10.6014011"><ele>149.5</ele><time>2026-03-29T09:48:53.99Z</time></trkpt><trkpt lat="45.3521545" lon="10.6014997"><ele>149.66666666666666</ele><time>2026-03-29T09:48:54.99Z</time></trkpt><trkpt lat="45.3521795" lon="10.6016025"><ele>149.83333333333334</ele><time>2026-03-29T09:48:55.99Z</time></trkpt><trkpt lat="45.3521861" lon="10.6017026"><ele>150.0</ele><time>2026-03-29T09:48:56.99Z</time></trkpt><trkpt lat="45.35217" lon="10.6018087"><ele>150.0</ele><time>2026-03-29T09:48:57.99Z</time></trkpt><trkpt lat="45.3521346" lon="10.6019182"><ele>150.0</ele><time>2026-03-29T09:48:58.99Z</time></trkpt><trkpt lat="45.3520985" lon="10.6020379"><ele>150.0</ele><time>2026-03-29T09:48:59.99Z</time></trkpt><trkpt lat="45.3520684" lon="10.6021719"><ele>150.0</ele><time>2026-03-29T09:49:00.99Z</time></trkpt><trkpt lat="45.3520442" lon="10.60231"><ele>150.0</ele><time>2026-03-29T09:49:01.99Z</time></trkpt><trkpt lat="45.3520139" lon="10.6024473"><ele>149.2</ele><time>2026-03-29T09:49:02.99Z</time></trkpt><trkpt lat="45.3519782" lon="10.6025828"><ele>148.4</ele><time>2026-03-29T09:49:03.99Z</time></trkpt><trkpt lat="45.3519376" lon="10.6027149"><ele>147.6</ele><time>2026-03-29T09:49:04.99Z</time></trkpt><trkpt lat="45.3518981" lon="10.6028488"><ele>146.8</ele><time>2026-03-29T09:49:05.99Z</time></trkpt><trkpt lat="45.3518574" lon="10.602978"><ele>146.0</ele><time>2026-03-29T09:49:06.99Z</time></trkpt><trkpt lat="45.3518673" lon="10.6031416"><ele>146.0</ele><time>2026-03-29T09:49:07.99Z</time></trkpt><trkpt lat="45.3518464" lon="10.6032909"><ele>146.0</ele><time>2026-03-29T09:49:08.99Z</time></trkpt><trkpt lat="45.3518248" lon="10.6034404"><ele>146.0</ele><time>2026-03-29T09:49:09.99Z</time></trkpt><trkpt lat="45.3518079" lon="10.6035958"><ele>146.0</ele><time>2026-03-29T09:49:10.99Z</time></trkpt><trkpt lat="45.3517925" lon="10.6037554"><ele>146.0</ele><time>2026-03-29T09:49:11.99Z</time></trkpt><trkpt lat="45.3517795" lon="10.6039151"><ele>146.0</ele><time>2026-03-29T09:49:12.99Z</time></trkpt><trkpt lat="45.3517759" lon="10.6040729"><ele>146.0</ele><time>2026-03-29T09:49:13.99Z</time></trkpt><trkpt lat="45.3517752" lon="10.6042262"><ele>146.0</ele><time>2026-03-29T09:49:14.99Z</time></trkpt><trkpt lat="45.3517827" lon="10.6043779"><ele>146.0</ele><time>2026-03-29T09:49:15.99Z</time></trkpt><trkpt lat="45.3517995" lon="10.6045131"><ele>146.0</ele><time>2026-03-29T09:49:16.99Z</time></trkpt><trkpt lat="45.3518407" lon="10.6046459"><ele>146.25</ele><time>2026-03-29T09:49:17.99Z</time></trkpt><trkpt lat="45.3518997" lon="10.6047712"><ele>146.5</ele><time>2026-03-29T09:49:18.99Z</time></trkpt><trkpt lat="45.3519707" lon="10.6048962"><ele>146.75</ele><time>2026-03-29T09:49:19.99Z</time></trkpt><trkpt lat="45.3520436" lon="10.6050339"><ele>147.0</ele><time>2026-03-29T09:49:20.99Z</time></trkpt><trkpt lat="45.3521223" lon="10.605172"><ele>147.0</ele><time>2026-03-29T09:49:21.99Z</time></trkpt><trkpt lat="45.3522046" lon="10.6053236"><ele>147.0</ele><time>2026-03-29T09:49:22.99Z</time></trkpt><trkpt lat="45.3522903" lon="10.6054819"><ele>147.0</ele><time>2026-03-29T09:49:23.99Z</time></trkpt><trkpt lat="45.3523822" lon="10.6056433"><ele>147.0</ele><time>2026-03-29T09:49:24.99Z</time></trkpt><trkpt lat="45.3524735" lon="10.6058132"><ele>143.33333333333334</ele><time>2026-03-29T09:49:25.99Z</time></trkpt><trkpt lat="45.3525649" lon="10.6059887"><ele>139.66666666666669</ele><time>2026-03-29T09:49:26.99Z</time></trkpt><trkpt lat="45.3526492" lon="10.6061769"><ele>136.0</ele><time>2026-03-29T09:49:27.99Z</time></trkpt><trkpt lat="45.3527181" lon="10.6063785"><ele>136.0</ele><time>2026-03-29T09:49:28.99Z</time></trkpt><trkpt lat="45.3527735" lon="10.6065929"><ele>136.0</ele><time>2026-03-29T09:49:29.99Z</time></trkpt><trkpt lat="45.352815" lon="10.6068151"><ele>136.0</ele><time>2026-03-29T09:49:30.99Z</time></trkpt><trkpt lat="45.3528562" lon="10.6070413"><ele>135.66666666666669</ele><time>2026-03-29T09:49:31.99Z</time></trkpt><trkpt lat="45.3528962" lon="10.6072776"><ele>135.33333333333334</ele><time>2026-03-29T09:49:32.99Z</time></trkpt><trkpt lat="45.3529359" lon="10.6075117"><ele>135.0</ele><time>2026-03-29T09:49:33.99Z</time></trkpt><trkpt lat="45.352971" lon="10.6077445"><ele>135.33333333333334</ele><time>2026-03-29T09:49:34.99Z</time></trkpt><trkpt lat="45.3529868" lon="10.6079823"><ele>135.66666666666669</ele><time>2026-03-29T09:49:35.99Z</time></trkpt><trkpt lat="45.352981" lon="10.6082285"><ele>136.0</ele><time>2026-03-29T09:49:36.99Z</time></trkpt><trkpt lat="45.3529549" lon="10.6084807"><ele>136.33333333333334</ele><time>2026-03-29T09:49:37.99Z</time></trkpt><trkpt lat="45.3529195" lon="10.60873"><ele>136.66666666666666</ele><time>2026-03-29T09:49:38.99Z</time></trkpt><trkpt lat="45.352875" lon="10.6089788"><ele>137.0</ele><time>2026-03-29T09:49:39.99Z</time></trkpt><trkpt lat="45.3528285" lon="10.6092286"><ele>137.0</ele><time>2026-03-29T09:49:40.99Z</time></trkpt><trkpt lat="45.3527956" lon="10.6094831"><ele>137.0</ele><time>2026-03-29T09:49:41.99Z</time></trkpt><trkpt lat="45.3527754" lon="10.6097447"><ele>137.0</ele><time>2026-03-29T09:49:42.99Z</time></trkpt><trkpt lat="45.3527808" lon="10.610013"><ele>137.66666666666666</ele><time>2026-03-29T09:49:43.99Z</time></trkpt><trkpt lat="45.3528018" lon="10.6102807"><ele>138.33333333333334</ele><time>2026-03-29T09:49:44.99Z</time></trkpt><trkpt lat="45.3528431" lon="10.6105417"><ele>139.0</ele><time>2026-03-29T09:49:45.99Z</time></trkpt><trkpt lat="45.3529001" lon="10.6107938"><ele>140.0</ele><time>2026-03-29T09:49:46.99Z</time></trkpt><trkpt lat="45.3529724" lon="10.6110266"><ele>141.0</ele><time>2026-03-29T09:49:47.99Z</time></trkpt><trkpt lat="45.3530497" lon="10.6112525"><ele>142.0</ele><time>2026-03-29T09:49:48.99Z</time></trkpt><trkpt lat="45.3531113" lon="10.6114881"><ele>137.66666666666669</ele><time>2026-03-29T09:49:49.99Z</time></trkpt><trkpt lat="45.3531436" lon="10.6117348"><ele>133.33333333333334</ele><time>2026-03-29T09:49:50.99Z</time></trkpt><trkpt lat="45.3531569" lon="10.6119906"><ele>129.0</ele><time>2026-03-29T09:49:51.99Z</time></trkpt><trkpt lat="45.3531572" lon="10.6122396"><ele>129.0</ele><time>2026-03-29T09:49:52.99Z</time></trkpt><trkpt lat="45.3531594" lon="10.6124926"><ele>129.0</ele><time>2026-03-29T09:49:53.99Z</time></trkpt><trkpt lat="45.3531762" lon="10.6127422"><ele>129.0</ele><time>2026-03-29T09:49:54.991Z</time></trkpt><trkpt lat="45.3532122" lon="10.6129903"><ele>129.33333333333334</ele><time>2026-03-29T09:49:55.99Z</time></trkpt><trkpt lat="45.353259" lon="10.613231"><ele>129.66666666666669</ele><time>2026-03-29T09:49:56.99Z</time></trkpt><trkpt lat="45.3533057" lon="10.6134732"><ele>130.0</ele><time>2026-03-29T09:49:57.99Z</time></trkpt><trkpt lat="45.3533458" lon="10.6137154"><ele>131.33333333333334</ele><time>2026-03-29T09:49:58.99Z</time></trkpt><trkpt lat="45.3533671" lon="10.6139598"><ele>132.66666666666666</ele><time>2026-03-29T09:49:59.99Z</time></trkpt><trkpt lat="45.3533679" lon="10.6142091"><ele>134.0</ele><time>2026-03-29T09:50:00.99Z</time></trkpt><trkpt lat="45.3533584" lon="10.6144585"><ele>133.66666666666666</ele><time>2026-03-29T09:50:01.99Z</time></trkpt><trkpt lat="45.3533446" lon="10.6147107"><ele>133.33333333333334</ele><time>2026-03-29T09:50:02.99Z</time></trkpt><trkpt lat="45.3533276" lon="10.6149615"><ele>133.0</ele><time>2026-03-29T09:50:03.99Z</time></trkpt><trkpt lat="45.3533035" lon="10.6152104"><ele>132.66666666666669</ele><time>2026-03-29T09:50:04.99Z</time></trkpt><trkpt lat="45.353271" lon="10.6154557"><ele>132.33333333333334</ele><time>2026-03-29T09:50:05.99Z</time></trkpt><trkpt lat="45.3532319" lon="10.6156984"><ele>132.0</ele><time>2026-03-29T09:50:06.99Z</time></trkpt><trkpt lat="45.3531907" lon="10.6159418"><ele>132.0</ele><time>2026-03-29T09:50:07.99Z</time></trkpt><trkpt lat="45.353156" lon="10.6161919"><ele>132.0</ele><time>2026-03-29T09:50:08.99Z</time></trkpt><trkpt lat="45.3531336" lon="10.616445"><ele>132.0</ele><time>2026-03-29T09:50:09.99Z</time></trkpt><trkpt lat="45.3531234" lon="10.6167011"><ele>132.0</ele><time>2026-03-29T09:50:10.99Z</time></trkpt><trkpt lat="45.3531227" lon="10.6169611"><ele>132.0</ele><time>2026-03-29T09:50:11.99Z</time></trkpt><trkpt lat="45.3531216" lon="10.6172219"><ele>132.0</ele><time>2026-03-29T09:50:12.99Z</time></trkpt><trkpt lat="45.3531249" lon="10.6174825"><ele>132.33333333333334</ele><time>2026-03-29T09:50:13.991Z</time></trkpt><trkpt lat="45.3531271" lon="10.6177423"><ele>132.66666666666669</ele><time>2026-03-29T09:50:14.99Z</time></trkpt><trkpt lat="45.3531298" lon="10.6179995"><ele>133.0</ele><time>2026-03-29T09:50:15.99Z</time></trkpt><trkpt lat="45.3531367" lon="10.6182551"><ele>133.33333333333334</ele><time>2026-03-29T09:50:16.99Z</time></trkpt><trkpt lat="45.3531504" lon="10.6185075"><ele>133.66666666666666</ele><time>2026-03-29T09:50:17.99Z</time></trkpt><trkpt lat="45.3531626" lon="10.6187549"><ele>134.0</ele><time>2026-03-29T09:50:18.99Z</time></trkpt><trkpt lat="45.3531845" lon="10.6189959"><ele>134.33333333333331</ele><time>2026-03-29T09:50:19.99Z</time></trkpt><trkpt lat="45.3532192" lon="10.6192407"><ele>134.66666666666666</ele><time>2026-03-29T09:50:20.99Z</time></trkpt><trkpt lat="45.3532621" lon="10.6194837"><ele>135.0</ele><time>2026-03-29T09:50:21.99Z</time></trkpt><trkpt lat="45.3533226" lon="10.6197247"><ele>135.0</ele><time>2026-03-29T09:50:22.991Z</time></trkpt><trkpt lat="45.3534035" lon="10.6199598"><ele>135.0</ele><time>2026-03-29T09:50:23.99Z</time></trkpt><trkpt lat="45.3535017" lon="10.6201841"><ele>135.0</ele><time>2026-03-29T09:50:24.99Z</time></trkpt><trkpt lat="45.3536143" lon="10.6204"><ele>135.0</ele><time>2026-03-29T09:50:25.991Z</time></trkpt><trkpt lat="45.3537382" lon="10.620601"><ele>135.0</ele><time>2026-03-29T09:50:26.99Z</time></trkpt><trkpt lat="45.3538762" lon="10.620787"><ele>135.0</ele><time>2026-03-29T09:50:27.99Z</time></trkpt><trkpt lat="45.3540259" lon="10.6209535"><ele>135.0</ele><time>2026-03-29T09:50:28.99Z</time></trkpt><trkpt lat="45.3541863" lon="10.6211007"><ele>135.0</ele><time>2026-03-29T09:50:29.99Z</time></trkpt><trkpt lat="45.3543488" lon="10.6212377"><ele>135.0</ele><time>2026-03-29T09:50:30.99Z</time></trkpt><trkpt lat="45.3545133" lon="10.6213748"><ele>137.33333333333334</ele><time>2026-03-29T09:50:31.99Z</time></trkpt><trkpt lat="45.3546731" lon="10.6215169"><ele>139.66666666666669</ele><time>2026-03-29T09:50:32.99Z</time></trkpt><trkpt lat="45.3548318" lon="10.6216589"><ele>142.0</ele><time>2026-03-29T09:50:33.99Z</time></trkpt><trkpt lat="45.3549917" lon="10.6217979"><ele>142.0</ele><time>2026-03-29T09:50:34.99Z</time></trkpt><trkpt lat="45.3551499" lon="10.6219402"><ele>142.0</ele><time>2026-03-29T09:50:35.99Z</time></trkpt><trkpt lat="45.3553074" lon="10.6220905"><ele>142.0</ele><time>2026-03-29T09:50:36.99Z</time></trkpt><trkpt lat="45.3554592" lon="10.6222491"><ele>143.33333333333334</ele><time>2026-03-29T09:50:37.99Z</time></trkpt><trkpt lat="45.3556104" lon="10.6224094"><ele>144.66666666666666</ele><time>2026-03-29T09:50:38.991Z</time></trkpt><trkpt lat="45.3557637" lon="10.6225701"><ele>146.0</ele><time>2026-03-29T09:50:39.991Z</time></trkpt><trkpt lat="45.3559176" lon="10.6227231"><ele>149.0</ele><time>2026-03-29T09:50:40.99Z</time></trkpt><trkpt lat="45.3560778" lon="10.6228653"><ele>152.0</ele><time>2026-03-29T09:50:41.99Z</time></trkpt><trkpt lat="45.3562399" lon="10.6229986"><ele>155.0</ele><time>2026-03-29T09:50:42.99Z</time></trkpt><trkpt lat="45.3564043" lon="10.6231173"><ele>155.0</ele><time>2026-03-29T09:50:43.99Z</time></trkpt><trkpt lat="45.3565686" lon="10.6232348"><ele>155.0</ele><time>2026-03-29T09:50:44.99Z</time></trkpt><trkpt lat="45.356732" lon="10.6233503"><ele>155.0</ele><time>2026-03-29T09:50:45.99Z</time></trkpt><trkpt lat="45.3568866" lon="10.6234703"><ele>155.0</ele><time>2026-03-29T09:50:46.99Z</time></trkpt><trkpt lat="45.3570269" lon="10.6236064"><ele>155.0</ele><time>2026-03-29T09:50:47.99Z</time></trkpt><trkpt lat="45.3571472" lon="10.6237675"><ele>155.0</ele><time>2026-03-29T09:50:48.99Z</time></trkpt><trkpt lat="45.3572479" lon="10.6239549"><ele>156.66666666666666</ele><time>2026-03-29T09:50:49.99Z</time></trkpt><trkpt lat="45.3573226" lon="10.6241629"><ele>158.33333333333334</ele><time>2026-03-29T09:50:50.99Z</time></trkpt><trkpt lat="45.3573663" lon="10.6243873"><ele>160.0</ele><time>2026-03-29T09:50:51.99Z</time></trkpt><trkpt lat="45.3573844" lon="10.6246224"><ele>160.33333333333334</ele><time>2026-03-29T09:50:52.99Z</time></trkpt><trkpt lat="45.3573781" lon="10.624861"><ele>160.66666666666666</ele><time>2026-03-29T09:50:53.99Z</time></trkpt><trkpt lat="45.3573569" lon="10.6251026"><ele>161.0</ele><time>2026-03-29T09:50:54.99Z</time></trkpt><trkpt lat="45.3573272" lon="10.6253483"><ele>161.0</ele><time>2026-03-29T09:50:55.991Z</time></trkpt><trkpt lat="45.3572936" lon="10.6255923"><ele>161.0</ele><time>2026-03-29T09:50:56.99Z</time></trkpt><trkpt lat="45.3572582" lon="10.6258397"><ele>161.0</ele><time>2026-03-29T09:50:57.99Z</time></trkpt><trkpt lat="45.3572184" lon="10.6260804"><ele>161.0</ele><time>2026-03-29T09:50:58.99Z</time></trkpt><trkpt lat="45.3571683" lon="10.6263123"><ele>161.0</ele><time>2026-03-29T09:50:59.99Z</time></trkpt><trkpt lat="45.3571042" lon="10.6265274"><ele>161.0</ele><time>2026-03-29T09:51:00.99Z</time></trkpt><trkpt lat="45.3570413" lon="10.6267289"><ele>161.0</ele><time>2026-03-29T09:51:01.99Z</time></trkpt><trkpt lat="45.3569819" lon="10.6269048"><ele>161.0</ele><time>2026-03-29T09:51:02.99Z</time></trkpt><trkpt lat="45.3569289" lon="10.6270512"><ele>161.0</ele><time>2026-03-29T09:51:03.99Z</time></trkpt><trkpt lat="45.3568865" lon="10.6271743"><ele>161.0</ele><time>2026-03-29T09:51:04.99Z</time></trkpt><trkpt lat="45.3568684" lon="10.6272866"><ele>161.0</ele><time>2026-03-29T09:51:05.99Z</time></trkpt><trkpt lat="45.3568608" lon="10.6274158"><ele>159.8</ele><time>2026-03-29T09:51:06.99Z</time></trkpt><trkpt lat="45.3568323" lon="10.6275538"><ele>158.60000000000002</ele><time>2026-03-29T09:51:07.991Z</time></trkpt><trkpt lat="45.356789" lon="10.6276988"><ele>157.4</ele><time>2026-03-29T09:51:08.99Z</time></trkpt><trkpt lat="45.3567379" lon="10.6278499"><ele>156.2</ele><time>2026-03-29T09:51:09.99Z</time></trkpt><trkpt lat="45.3566927" lon="10.6279965"><ele>155.0</ele><time>2026-03-29T09:51:10.99Z</time></trkpt><trkpt lat="45.3566591" lon="10.6281088"><ele>154.0</ele><time>2026-03-29T09:51:11.99Z</time></trkpt><trkpt lat="45.3566536" lon="10.628208"><ele>153.0</ele><time>2026-03-29T09:51:12.99Z</time></trkpt><trkpt lat="45.3567234" lon="10.6283221"><ele>152.0</ele><time>2026-03-29T09:51:14.99Z</time></trkpt><trkpt lat="45.3568347" lon="10.6283249"><ele>151.0</ele><time>2026-03-29T09:51:16.99Z</time></trkpt><trkpt lat="45.3569182" lon="10.6282937"><ele>150.0</ele><time>2026-03-29T09:51:17.99Z</time></trkpt><trkpt lat="45.3570175" lon="10.6282818"><ele>150.0</ele><time>2026-03-29T09:51:18.99Z</time></trkpt><trkpt lat="45.3571251" lon="10.6282854"><ele>150.0</ele><time>2026-03-29T09:51:19.99Z</time></trkpt><trkpt lat="45.3572353" lon="10.6282993"><ele>150.0</ele><time>2026-03-29T09:51:20.99Z</time></trkpt><trkpt lat="45.3573459" lon="10.6283003"><ele>150.0</ele><time>2026-03-29T09:51:21.99Z</time></trkpt><trkpt lat="45.3574546" lon="10.6282815"><ele>150.0</ele><time>2026-03-29T09:51:22.99Z</time></trkpt><trkpt lat="45.357559" lon="10.6282312"><ele>150.5</ele><time>2026-03-29T09:51:23.99Z</time></trkpt><trkpt lat="45.3576658" lon="10.6281515"><ele>151.0</ele><time>2026-03-29T09:51:24.99Z</time></trkpt><trkpt lat="45.3577623" lon="10.6280596"><ele>151.5</ele><time>2026-03-29T09:51:25.99Z</time></trkpt><trkpt lat="45.3578496" lon="10.6279535"><ele>152.0</ele><time>2026-03-29T09:51:26.99Z</time></trkpt><trkpt lat="45.3579318" lon="10.6278382"><ele>152.0</ele><time>2026-03-29T09:51:27.99Z</time></trkpt><trkpt lat="45.3580178" lon="10.627725"><ele>152.0</ele><time>2026-03-29T09:51:28.99Z</time></trkpt><trkpt lat="45.3581198" lon="10.6276353"><ele>152.0</ele><time>2026-03-29T09:51:29.99Z</time></trkpt><trkpt lat="45.3582307" lon="10.6275696"><ele>152.0</ele><time>2026-03-29T09:51:30.99Z</time></trkpt><trkpt lat="45.358343" lon="10.6275151"><ele>152.0</ele><time>2026-03-29T09:51:31.99Z</time></trkpt><trkpt lat="45.3584348" lon="10.6274503"><ele>152.0</ele><time>2026-03-29T09:51:32.99Z</time></trkpt><trkpt lat="45.3585148" lon="10.6273766"><ele>152.0</ele><time>2026-03-29T09:51:33.99Z</time></trkpt><trkpt lat="45.3585946" lon="10.6272803"><ele>152.0</ele><time>2026-03-29T09:51:34.99Z</time></trkpt><trkpt lat="45.3586575" lon="10.6271553"><ele>152.0</ele><time>2026-03-29T09:51:35.99Z</time></trkpt><trkpt lat="45.3587063" lon="10.6270148"><ele>153.75</ele><time>2026-03-29T09:51:36.99Z</time></trkpt><trkpt lat="45.358741" lon="10.6268575"><ele>155.5</ele><time>2026-03-29T09:51:37.99Z</time></trkpt><trkpt lat="45.3587648" lon="10.6266911"><ele>157.25</ele><time>2026-03-29T09:51:38.99Z</time></trkpt><trkpt lat="45.3587831" lon="10.6265164"><ele>159.0</ele><time>2026-03-29T09:51:39.99Z</time></trkpt><trkpt lat="45.3588066" lon="10.6263453"><ele>159.0</ele><time>2026-03-29T09:51:40.99Z</time></trkpt><trkpt lat="45.3588397" lon="10.6261951"><ele>159.0</ele><time>2026-03-29T09:51:41.99Z</time></trkpt><trkpt lat="45.3588889" lon="10.626049"><ele>159.0</ele><time>2026-03-29T09:51:42.99Z</time></trkpt><trkpt lat="45.3589543" lon="10.6259175"><ele>159.0</ele><time>2026-03-29T09:51:43.991Z</time></trkpt><trkpt lat="45.3590329" lon="10.6258025"><ele>156.8</ele><time>2026-03-29T09:51:44.99Z</time></trkpt><trkpt lat="45.3591172" lon="10.6257079"><ele>154.60000000000002</ele><time>2026-03-29T09:51:45.99Z</time></trkpt><trkpt lat="45.3591922" lon="10.6256288"><ele>152.4</ele><time>2026-03-29T09:51:46.99Z</time></trkpt><trkpt lat="45.3592549" lon="10.6255711"><ele>150.20000000000002</ele><time>2026-03-29T09:51:47.99Z</time></trkpt><trkpt lat="45.3593574" lon="10.6255316"><ele>148.0</ele><time>2026-03-29T09:51:49.99Z</time></trkpt><trkpt lat="45.3594388" lon="10.6255084"><ele>148.0</ele><time>2026-03-29T09:51:59.99Z</time></trkpt><trkpt lat="45.3595079" lon="10.6254952"><ele>148.0</ele><time>2026-03-29T09:52:00.99Z</time></trkpt><trkpt lat="45.3595883" lon="10.625512"><ele>148.0</ele><time>2026-03-29T09:52:01.99Z</time></trkpt><trkpt lat="45.3596729" lon="10.6255585"><ele>148.0</ele><time>2026-03-29T09:52:02.99Z</time></trkpt><trkpt lat="45.3597678" lon="10.6256224"><ele>148.0</ele><time>2026-03-29T09:52:03.99Z</time></trkpt><trkpt lat="45.3598701" lon="10.6256822"><ele>148.25</ele><time>2026-03-29T09:52:04.99Z</time></trkpt><trkpt lat="45.3599824" lon="10.6257345"><ele>148.5</ele><time>2026-03-29T09:52:05.99Z</time></trkpt><trkpt lat="45.3600925" lon="10.6257988"><ele>148.75</ele><time>2026-03-29T09:52:06.99Z</time></trkpt><trkpt lat="45.3602" lon="10.6258674"><ele>149.0</ele><time>2026-03-29T09:52:07.99Z</time></trkpt><trkpt lat="45.360303" lon="10.6259404"><ele>149.0</ele><time>2026-03-29T09:52:08.99Z</time></trkpt><trkpt lat="45.3604011" lon="10.6260312"><ele>149.0</ele><time>2026-03-29T09:52:09.99Z</time></trkpt><trkpt lat="45.3605042" lon="10.6261353"><ele>149.0</ele><time>2026-03-29T09:52:10.99Z</time></trkpt><trkpt lat="45.3606097" lon="10.6262448"><ele>149.0</ele><time>2026-03-29T09:52:11.99Z</time></trkpt><trkpt lat="45.3607163" lon="10.6263527"><ele>150.0</ele><time>2026-03-29T09:52:12.99Z</time></trkpt><trkpt lat="45.3608229" lon="10.6264597"><ele>151.0</ele><time>2026-03-29T09:52:13.99Z</time></trkpt><trkpt lat="45.3609234" lon="10.6265585"><ele>152.0</ele><time>2026-03-29T09:52:14.99Z</time></trkpt><trkpt lat="45.3610184" lon="10.6266595"><ele>153.0</ele><time>2026-03-29T09:52:15.99Z</time></trkpt><trkpt lat="45.3611059" lon="10.6267542"><ele>153.0</ele><time>2026-03-29T09:52:16.99Z</time></trkpt><trkpt lat="45.3611923" lon="10.6268448"><ele>153.0</ele><time>2026-03-29T09:52:17.99Z</time></trkpt><trkpt lat="45.3612847" lon="10.6269336"><ele>153.0</ele><time>2026-03-29T09:52:18.99Z</time></trkpt><trkpt lat="45.3613873" lon="10.627023"><ele>153.0</ele><time>2026-03-29T09:52:19.99Z</time></trkpt><trkpt lat="45.3614941" lon="10.6271118"><ele>153.0</ele><time>2026-03-29T09:52:20.99Z</time></trkpt><trkpt lat="45.3616056" lon="10.6271989"><ele>153.0</ele><time>2026-03-29T09:52:21.99Z</time></trkpt><trkpt lat="45.3617218" lon="10.6272879"><ele>153.0</ele><time>2026-03-29T09:52:22.99Z</time></trkpt><trkpt lat="45.3618309" lon="10.6273641"><ele>153.0</ele><time>2026-03-29T09:52:23.99Z</time></trkpt><trkpt lat="45.3619445" lon="10.6274346"><ele>153.0</ele><time>2026-03-29T09:52:24.99Z</time></trkpt><trkpt lat="45.362057" lon="10.6274907"><ele>153.0</ele><time>2026-03-29T09:52:25.99Z</time></trkpt><trkpt lat="45.3621627" lon="10.6275288"><ele>153.0</ele><time>2026-03-29T09:52:26.99Z</time></trkpt><trkpt lat="45.3622556" lon="10.6275628"><ele>153.0</ele><time>2026-03-29T09:52:27.99Z</time></trkpt><trkpt lat="45.3623412" lon="10.6275945"><ele>153.0</ele><time>2026-03-29T09:52:28.99Z</time></trkpt><trkpt lat="45.3624188" lon="10.627603"><ele>153.0</ele><time>2026-03-29T09:52:29.99Z</time></trkpt><trkpt lat="45.3624953" lon="10.6275889"><ele>153.0</ele><time>2026-03-29T09:52:30.99Z</time></trkpt><trkpt lat="45.362568" lon="10.6275394"><ele>153.0</ele><time>2026-03-29T09:52:31.99Z</time></trkpt><trkpt lat="45.3626522" lon="10.6274671"><ele>153.0</ele><time>2026-03-29T09:52:32.99Z</time></trkpt><trkpt lat="45.3627398" lon="10.6273845"><ele>153.0</ele><time>2026-03-29T09:52:33.991Z</time></trkpt><trkpt lat="45.362842" lon="10.6273194"><ele>153.0</ele><time>2026-03-29T09:52:34.99Z</time></trkpt><trkpt lat="45.3629324" lon="10.6272703"><ele>153.0</ele><time>2026-03-29T09:52:35.99Z</time></trkpt><trkpt lat="45.3630128" lon="10.6272157"><ele>153.0</ele><time>2026-03-29T09:52:36.99Z</time></trkpt><trkpt lat="45.3630784" lon="10.6271562"><ele>153.0</ele><time>2026-03-29T09:52:37.99Z</time></trkpt><trkpt lat="45.3631311" lon="10.6270924"><ele>153.0</ele><time>2026-03-29T09:52:39.99Z</time></trkpt><trkpt lat="45.3631964" lon="10.6270842"><ele>153.0</ele><time>2026-03-29T09:52:42.99Z</time></trkpt><trkpt lat="45.3633067" lon="10.62707"><ele>152.83333333333334</ele><time>2026-03-29T09:52:44.99Z</time></trkpt><trkpt lat="45.3633804" lon="10.6270514"><ele>152.66666666666666</ele><time>2026-03-29T09:52:45.99Z</time></trkpt><trkpt lat="45.3634582" lon="10.6270289"><ele>152.5</ele><time>2026-03-29T09:52:46.99Z</time></trkpt><trkpt lat="45.3635496" lon="10.6270002"><ele>152.33333333333331</ele><time>2026-03-29T09:52:47.99Z</time></trkpt><trkpt lat="45.3636321" lon="10.6269646"><ele>152.16666666666666</ele><time>2026-03-29T09:52:48.99Z</time></trkpt><trkpt lat="45.3637036" lon="10.6269273"><ele>152.0</ele><time>2026-03-29T09:52:49.991Z</time></trkpt><trkpt lat="45.3637717" lon="10.6269053"><ele>152.0</ele><time>2026-03-29T09:52:50.99Z</time></trkpt><trkpt lat="45.3638502" lon="10.6269001"><ele>152.0</ele><time>2026-03-29T09:52:52.99Z</time></trkpt><trkpt lat="45.3639161" lon="10.6269134"><ele>152.0</ele><time>2026-03-29T09:52:55.99Z</time></trkpt><trkpt lat="45.3638854" lon="10.6268182"><ele>152.0</ele><time>2026-03-29T09:53:07.99Z</time></trkpt><trkpt lat="45.3638656" lon="10.6266806"><ele>152.0</ele><time>2026-03-29T09:53:09.99Z</time></trkpt><trkpt lat="45.3638365" lon="10.6265178"><ele>152.0</ele><time>2026-03-29T09:53:11.99Z</time></trkpt><trkpt lat="45.3638239" lon="10.6263897"><ele>152.0</ele><time>2026-03-29T09:53:13.99Z</time></trkpt><trkpt lat="45.3637753" lon="10.6262473"><ele>152.0</ele><time>2026-03-29T09:53:15.991Z</time></trkpt><trkpt lat="45.363715" lon="10.6260888"><ele>152.0</ele><time>2026-03-29T09:53:17.99Z</time></trkpt><trkpt lat="45.3636826" lon="10.6259974"><ele>152.0</ele><time>2026-03-29T09:53:18.99Z</time></trkpt><trkpt lat="45.3636052" lon="10.6258453"><ele>152.0</ele><time>2026-03-29T09:53:20.99Z</time></trkpt><trkpt lat="45.3635548" lon="10.6257628"><ele>151.66666666666666</ele><time>2026-03-29T09:53:21.99Z</time></trkpt><trkpt lat="45.3635056" lon="10.6256904"><ele>151.33333333333331</ele><time>2026-03-29T09:53:22.99Z</time></trkpt><trkpt lat="45.3634473" lon="10.6256065"><ele>151.0</ele><time>2026-03-29T09:53:23.99Z</time></trkpt><trkpt lat="45.3634183" lon="10.6255061"><ele>150.66666666666666</ele><time>2026-03-29T09:53:24.99Z</time></trkpt><trkpt lat="45.3633582" lon="10.6253774"><ele>150.33333333333334</ele><time>2026-03-29T09:53:26.99Z</time></trkpt><trkpt lat="45.363323" lon="10.6252657"><ele>150.0</ele><time>2026-03-29T09:53:28.99Z</time></trkpt><trkpt lat="45.3632987" lon="10.6251579"><ele>150.0</ele><time>2026-03-29T09:53:31.99Z</time></trkpt><trkpt lat="45.3633586" lon="10.6250638"><ele>150.0</ele><time>2026-03-29T09:53:37.99Z</time></trkpt><trkpt lat="45.363405" lon="10.6249975"><ele>150.0</ele><time>2026-03-29T09:53:38.99Z</time></trkpt><trkpt lat="45.3634512" lon="10.6249087"><ele>150.0</ele><time>2026-03-29T09:53:39.99Z</time></trkpt><trkpt lat="45.3635034" lon="10.6247878"><ele>150.0</ele><time>2026-03-29T09:53:40.99Z</time></trkpt><trkpt lat="45.3635579" lon="10.6246631"><ele>150.0</ele><time>2026-03-29T09:53:41.99Z</time></trkpt><trkpt lat="45.3636151" lon="10.6245298"><ele>149.25</ele><time>2026-03-29T09:53:42.99Z</time></trkpt><trkpt lat="45.3636638" lon="10.6243951"><ele>148.5</ele><time>2026-03-29T09:53:43.99Z</time></trkpt><trkpt lat="45.3637253" lon="10.6242447"><ele>147.75</ele><time>2026-03-29T09:53:44.99Z</time></trkpt><trkpt lat="45.3637995" lon="10.6240903"><ele>147.0</ele><time>2026-03-29T09:53:45.99Z</time></trkpt><trkpt lat="45.3638768" lon="10.6239357"><ele>147.0</ele><time>2026-03-29T09:53:46.99Z</time></trkpt><trkpt lat="45.363966" lon="10.6237875"><ele>147.0</ele><time>2026-03-29T09:53:47.99Z</time></trkpt><trkpt lat="45.3640563" lon="10.6236467"><ele>147.0</ele><time>2026-03-29T09:53:48.99Z</time></trkpt><trkpt lat="45.3641351" lon="10.6235221"><ele>147.0</ele><time>2026-03-29T09:53:49.99Z</time></trkpt><trkpt lat="45.3642044" lon="10.6234092"><ele>147.2</ele><time>2026-03-29T09:53:50.99Z</time></trkpt><trkpt lat="45.3642465" lon="10.623322"><ele>147.39999999999998</ele><time>2026-03-29T09:53:51.99Z</time></trkpt><trkpt lat="45.3642797" lon="10.6231681"><ele>147.60000000000002</ele><time>2026-03-29T09:53:53.99Z</time></trkpt><trkpt lat="45.3642293" lon="10.6230568"><ele>147.8</ele><time>2026-03-29T09:53:54.99Z</time></trkpt><trkpt lat="45.3641823" lon="10.622937"><ele>148.0</ele><time>2026-03-29T09:53:55.99Z</time></trkpt><trkpt lat="45.3641274" lon="10.6228028"><ele>147.25</ele><time>2026-03-29T09:53:56.99Z</time></trkpt><trkpt lat="45.3640708" lon="10.6226551"><ele>146.5</ele><time>2026-03-29T09:53:57.99Z</time></trkpt><trkpt lat="45.3640079" lon="10.6224953"><ele>145.75</ele><time>2026-03-29T09:53:58.99Z</time></trkpt><trkpt lat="45.3639461" lon="10.6223269"><ele>145.0</ele><time>2026-03-29T09:53:59.99Z</time></trkpt><trkpt lat="45.3639142" lon="10.6221713"><ele>145.0</ele><time>2026-03-29T09:54:00.99Z</time></trkpt><trkpt lat="45.3639035" lon="10.6220057"><ele>145.0</ele><time>2026-03-29T09:54:01.99Z</time></trkpt><trkpt lat="45.3639065" lon="10.6218498"><ele>145.0</ele><time>2026-03-29T09:54:02.99Z</time></trkpt><trkpt lat="45.363928" lon="10.6216855"><ele>145.0</ele><time>2026-03-29T09:54:03.99Z</time></trkpt><trkpt lat="45.3639615" lon="10.6215096"><ele>145.0</ele><time>2026-03-29T09:54:04.99Z</time></trkpt><trkpt lat="45.3639831" lon="10.6213416"><ele>145.0</ele><time>2026-03-29T09:54:05.99Z</time></trkpt><trkpt lat="45.3639912" lon="10.6211931"><ele>145.0</ele><time>2026-03-29T09:54:06.99Z</time></trkpt><trkpt lat="45.3639819" lon="10.6210247"><ele>145.0</ele><time>2026-03-29T09:54:07.99Z</time></trkpt><trkpt lat="45.3639587" lon="10.6208464"><ele>145.0</ele><time>2026-03-29T09:54:08.99Z</time></trkpt><trkpt lat="45.3639315" lon="10.6206908"><ele>145.0</ele><time>2026-03-29T09:54:09.99Z</time></trkpt><trkpt lat="45.3638958" lon="10.6205561"><ele>145.0</ele><time>2026-03-29T09:54:10.99Z</time></trkpt><trkpt lat="45.3638439" lon="10.6204394"><ele>145.0</ele><time>2026-03-29T09:54:11.99Z</time></trkpt><trkpt lat="45.363782" lon="10.6203368"><ele>145.0</ele><time>2026-03-29T09:54:12.99Z</time></trkpt><trkpt lat="45.3637335" lon="10.6202459"><ele>146.4</ele><time>2026-03-29T09:54:13.99Z</time></trkpt><trkpt lat="45.363698" lon="10.620135"><ele>147.8</ele><time>2026-03-29T09:54:14.99Z</time></trkpt><trkpt lat="45.3636782" lon="10.6199994"><ele>149.2</ele><time>2026-03-29T09:54:15.99Z</time></trkpt><trkpt lat="45.3636729" lon="10.6198366"><ele>150.6</ele><time>2026-03-29T09:54:16.99Z</time></trkpt><trkpt lat="45.3636611" lon="10.61966"><ele>152.0</ele><time>2026-03-29T09:54:17.99Z</time></trkpt><trkpt lat="45.3636427" lon="10.6194897"><ele>152.2</ele><time>2026-03-29T09:54:18.99Z</time></trkpt><trkpt lat="45.3636313" lon="10.6193608"><ele>152.39999999999998</ele><time>2026-03-29T09:54:19.99Z</time></trkpt><trkpt lat="45.3636378" lon="10.6192435"><ele>152.60000000000002</ele><time>2026-03-29T09:54:20.99Z</time></trkpt><trkpt lat="45.3636574" lon="10.6191316"><ele>152.8</ele><time>2026-03-29T09:54:21.99Z</time></trkpt><trkpt lat="45.3637052" lon="10.6189929"><ele>153.0</ele><time>2026-03-29T09:54:22.99Z</time></trkpt><trkpt lat="45.3637577" lon="10.6188452"><ele>153.0</ele><time>2026-03-29T09:54:23.99Z</time></trkpt><trkpt lat="45.3638186" lon="10.6186691"><ele>153.0</ele><time>2026-03-29T09:54:24.99Z</time></trkpt><trkpt lat="45.3638851" lon="10.61848"><ele>153.0</ele><time>2026-03-29T09:54:25.99Z</time></trkpt><trkpt lat="45.3639608" lon="10.6182786"><ele>153.0</ele><time>2026-03-29T09:54:26.991Z</time></trkpt><trkpt lat="45.3640363" lon="10.618062"><ele>151.5</ele><time>2026-03-29T09:54:27.99Z</time></trkpt><trkpt lat="45.3641048" lon="10.6178567"><ele>150.0</ele><time>2026-03-29T09:54:28.99Z</time></trkpt><trkpt lat="45.3641648" lon="10.6176698"><ele>148.5</ele><time>2026-03-29T09:54:29.99Z</time></trkpt><trkpt lat="45.364218" lon="10.6175007"><ele>147.0</ele><time>2026-03-29T09:54:30.99Z</time></trkpt><trkpt lat="45.3642683" lon="10.6173468"><ele>147.0</ele><time>2026-03-29T09:54:31.99Z</time></trkpt><trkpt lat="45.3643212" lon="10.6172019"><ele>147.0</ele><time>2026-03-29T09:54:32.991Z</time></trkpt><trkpt lat="45.3643711" lon="10.6170656"><ele>147.0</ele><time>2026-03-29T09:54:33.99Z</time></trkpt><trkpt lat="45.3644176" lon="10.6169303"><ele>147.0</ele><time>2026-03-29T09:54:34.99Z</time></trkpt><trkpt lat="45.3644576" lon="10.616819"><ele>147.0</ele><time>2026-03-29T09:54:35.99Z</time></trkpt><trkpt lat="45.3644951" lon="10.6167367"><ele>146.66666666666666</ele><time>2026-03-29T09:54:36.99Z</time></trkpt><trkpt lat="45.3646006" lon="10.6166777"><ele>146.33333333333334</ele><time>2026-03-29T09:54:38.99Z</time></trkpt><trkpt lat="45.364686" lon="10.6166782"><ele>146.0</ele><time>2026-03-29T09:54:39.99Z</time></trkpt><trkpt lat="45.3647669" lon="10.6166638"><ele>145.66666666666669</ele><time>2026-03-29T09:54:40.99Z</time></trkpt><trkpt lat="45.3648433" lon="10.6166275"><ele>145.33333333333334</ele><time>2026-03-29T09:54:41.99Z</time></trkpt><trkpt lat="45.3649042" lon="10.6165737"><ele>145.0</ele><time>2026-03-29T09:54:42.99Z</time></trkpt><trkpt lat="45.3649776" lon="10.6164531"><ele>144.2</ele><time>2026-03-29T09:54:44.99Z</time></trkpt><trkpt lat="45.3649492" lon="10.6162871"><ele>143.4</ele><time>2026-03-29T09:54:45.99Z</time></trkpt><trkpt lat="45.3649529" lon="10.6161662"><ele>142.6</ele><time>2026-03-29T09:54:46.99Z</time></trkpt><trkpt lat="45.3649645" lon="10.6160757"><ele>141.8</ele><time>2026-03-29T09:54:47.99Z</time></trkpt><trkpt lat="45.3650408" lon="10.6159186"><ele>141.0</ele><time>2026-03-29T09:54:49.99Z</time></trkpt><trkpt lat="45.3650931" lon="10.6157705"><ele>140.6</ele><time>2026-03-29T09:54:51.99Z</time></trkpt><trkpt lat="45.3651076" lon="10.6156763"><ele>140.2</ele><time>2026-03-29T09:54:52.99Z</time></trkpt><trkpt lat="45.3650817" lon="10.6155311"><ele>139.8</ele><time>2026-03-29T09:54:53.99Z</time></trkpt><trkpt lat="45.365066" lon="10.6153971"><ele>139.4</ele><time>2026-03-29T09:54:54.99Z</time></trkpt><trkpt lat="45.3650453" lon="10.6152252"><ele>139.0</ele><time>2026-03-29T09:54:55.99Z</time></trkpt><trkpt lat="45.3650426" lon="10.6150363"><ele>139.0</ele><time>2026-03-29T09:54:56.99Z</time></trkpt><trkpt lat="45.365044" lon="10.6148496"><ele>139.0</ele><time>2026-03-29T09:54:57.99Z</time></trkpt><trkpt lat="45.3650421" lon="10.614683"><ele>139.0</ele><time>2026-03-29T09:54:58.99Z</time></trkpt><trkpt lat="45.3650409" lon="10.61454"><ele>139.0</ele><time>2026-03-29T09:54:59.99Z</time></trkpt><trkpt lat="45.3650364" lon="10.6144013"><ele>139.0</ele><time>2026-03-29T09:55:00.99Z</time></trkpt><trkpt lat="45.3650332" lon="10.6142707"><ele>138.83333333333334</ele><time>2026-03-29T09:55:01.99Z</time></trkpt><trkpt lat="45.3650301" lon="10.6141411"><ele>138.66666666666669</ele><time>2026-03-29T09:55:02.99Z</time></trkpt><trkpt lat="45.3650228" lon="10.6140205"><ele>138.5</ele><time>2026-03-29T09:55:03.99Z</time></trkpt><trkpt lat="45.3650218" lon="10.6139159"><ele>138.33333333333334</ele><time>2026-03-29T09:55:04.991Z</time></trkpt><trkpt lat="45.3650339" lon="10.6138055"><ele>138.16666666666666</ele><time>2026-03-29T09:55:05.99Z</time></trkpt><trkpt lat="45.3650514" lon="10.6136972"><ele>138.0</ele><time>2026-03-29T09:55:06.99Z</time></trkpt><trkpt lat="45.3650695" lon="10.6135815"><ele>138.33333333333334</ele><time>2026-03-29T09:55:07.99Z</time></trkpt><trkpt lat="45.3650824" lon="10.6134787"><ele>138.66666666666666</ele><time>2026-03-29T09:55:08.99Z</time></trkpt><trkpt lat="45.3650871" lon="10.6133835"><ele>139.0</ele><time>2026-03-29T09:55:09.99Z</time></trkpt><trkpt lat="45.3650881" lon="10.6132772"><ele>139.33333333333331</ele><time>2026-03-29T09:55:10.99Z</time></trkpt><trkpt lat="45.3650761" lon="10.6131579"><ele>139.66666666666666</ele><time>2026-03-29T09:55:11.99Z</time></trkpt><trkpt lat="45.3650403" lon="10.613024"><ele>140.0</ele><time>2026-03-29T09:55:12.99Z</time></trkpt><trkpt lat="45.3649993" lon="10.6128886"><ele>140.0</ele><time>2026-03-29T09:55:13.99Z</time></trkpt><trkpt lat="45.3649513" lon="10.6127509"><ele>140.0</ele><time>2026-03-29T09:55:14.99Z</time></trkpt><trkpt lat="45.3648922" lon="10.6126111"><ele>140.0</ele><time>2026-03-29T09:55:15.99Z</time></trkpt><trkpt lat="45.3648261" lon="10.612473"><ele>140.0</ele><time>2026-03-29T09:55:16.99Z</time></trkpt><trkpt lat="45.3647655" lon="10.6123352"><ele>140.0</ele><time>2026-03-29T09:55:17.99Z</time></trkpt><trkpt lat="45.3647149" lon="10.6121888"><ele>140.0</ele><time>2026-03-29T09:55:18.99Z</time></trkpt><trkpt lat="45.3646791" lon="10.6120302"><ele>140.0</ele><time>2026-03-29T09:55:19.99Z</time></trkpt><trkpt lat="45.3646535" lon="10.6118558"><ele>140.0</ele><time>2026-03-29T09:55:20.991Z</time></trkpt><trkpt lat="45.3646311" lon="10.6116715"><ele>139.5</ele><time>2026-03-29T09:55:21.99Z</time></trkpt><trkpt lat="45.3646046" lon="10.6114833"><ele>139.0</ele><time>2026-03-29T09:55:22.99Z</time></trkpt><trkpt lat="45.3645742" lon="10.611301"><ele>138.5</ele><time>2026-03-29T09:55:23.99Z</time></trkpt><trkpt lat="45.3645467" lon="10.6111406"><ele>138.0</ele><time>2026-03-29T09:55:24.99Z</time></trkpt><trkpt lat="45.3645226" lon="10.6109967"><ele>138.0</ele><time>2026-03-29T09:55:25.99Z</time></trkpt><trkpt lat="45.3645017" lon="10.6108641"><ele>138.0</ele><time>2026-03-29T09:55:26.99Z</time></trkpt><trkpt lat="45.3644836" lon="10.6107467"><ele>138.0</ele><time>2026-03-29T09:55:27.99Z</time></trkpt><trkpt lat="45.3644724" lon="10.6106427"><ele>138.0</ele><time>2026-03-29T09:55:28.99Z</time></trkpt><trkpt lat="45.3644681" lon="10.6105162"><ele>138.0</ele><time>2026-03-29T09:55:30.99Z</time></trkpt><trkpt lat="45.3644021" lon="10.6103985"><ele>138.0</ele><time>2026-03-29T09:55:33.99Z</time></trkpt><trkpt lat="45.3642698" lon="10.6103392"><ele>137.8</ele><time>2026-03-29T09:55:35.99Z</time></trkpt><trkpt lat="45.3641904" lon="10.610298"><ele>137.60000000000002</ele><time>2026-03-29T09:55:36.99Z</time></trkpt><trkpt lat="45.3641089" lon="10.6102734"><ele>137.39999999999998</ele><time>2026-03-29T09:55:37.99Z</time></trkpt><trkpt lat="45.3640037" lon="10.6102278"><ele>137.2</ele><time>2026-03-29T09:55:39.99Z</time></trkpt><trkpt lat="45.3639355" lon="10.6102197"><ele>137.0</ele><time>2026-03-29T09:55:41.99Z</time></trkpt><trkpt lat="45.3640337" lon="10.6103087"><ele>137.2</ele><time>2026-03-29T09:55:44.99Z</time></trkpt><trkpt lat="45.3641067" lon="10.6103277"><ele>137.39999999999998</ele><time>2026-03-29T09:55:45.991Z</time></trkpt><trkpt lat="45.3641933" lon="10.6103632"><ele>137.60000000000002</ele><time>2026-03-29T09:55:46.99Z</time></trkpt><trkpt lat="45.3642884" lon="10.6104093"><ele>137.8</ele><time>2026-03-29T09:55:47.99Z</time></trkpt><trkpt lat="45.3643859" lon="10.610463"><ele>138.0</ele><time>2026-03-29T09:55:48.99Z</time></trkpt><trkpt lat="45.3644865" lon="10.610517"><ele>138.0</ele><time>2026-03-29T09:55:49.99Z</time></trkpt><trkpt lat="45.3645932" lon="10.6105645"><ele>138.0</ele><time>2026-03-29T09:55:50.991Z</time></trkpt><trkpt lat="45.3647175" lon="10.610602"><ele>138.0</ele><time>2026-03-29T09:55:51.99Z</time></trkpt><trkpt lat="45.3648544" lon="10.61063"><ele>138.0</ele><time>2026-03-29T09:55:52.99Z</time></trkpt><trkpt lat="45.3649974" lon="10.610656"><ele>137.0</ele><time>2026-03-29T09:55:53.99Z</time></trkpt><trkpt lat="45.3651465" lon="10.6106771"><ele>136.0</ele><time>2026-03-29T09:55:54.991Z</time></trkpt><trkpt lat="45.3653003" lon="10.6107087"><ele>135.0</ele><time>2026-03-29T09:55:55.99Z</time></trkpt><trkpt lat="45.3654554" lon="10.610748"><ele>136.33333333333334</ele><time>2026-03-29T09:55:56.99Z</time></trkpt><trkpt lat="45.3656197" lon="10.6107756"><ele>137.66666666666669</ele><time>2026-03-29T09:55:57.99Z</time></trkpt><trkpt lat="45.3657888" lon="10.6108013"><ele>139.0</ele><time>2026-03-29T09:55:58.99Z</time></trkpt><trkpt lat="45.365962" lon="10.6108159"><ele>139.0</ele><time>2026-03-29T09:55:59.99Z</time></trkpt><trkpt lat="45.3661344" lon="10.6108256"><ele>139.0</ele><time>2026-03-29T09:56:00.99Z</time></trkpt><trkpt lat="45.3663047" lon="10.6108313"><ele>139.0</ele><time>2026-03-29T09:56:01.99Z</time></trkpt><trkpt lat="45.3664752" lon="10.6108383"><ele>139.2</ele><time>2026-03-29T09:56:02.99Z</time></trkpt><trkpt lat="45.3666171" lon="10.6108421"><ele>139.4</ele><time>2026-03-29T09:56:03.99Z</time></trkpt><trkpt lat="45.3667012" lon="10.6108455"><ele>139.6</ele><time>2026-03-29T09:56:04.99Z</time></trkpt><trkpt lat="45.3667659" lon="10.6108332"><ele>139.8</ele><time>2026-03-29T09:56:05.99Z</time></trkpt><trkpt lat="45.3668567" lon="10.6107056"><ele>140.0</ele><time>2026-03-29T09:56:07.99Z</time></trkpt><trkpt lat="45.3668897" lon="10.6105767"><ele>140.0</ele><time>2026-03-29T09:56:08.99Z</time></trkpt><trkpt lat="45.3669264" lon="10.6104369"><ele>140.0</ele><time>2026-03-29T09:56:09.99Z</time></trkpt><trkpt lat="45.3669599" lon="10.6102654"><ele>140.0</ele><time>2026-03-29T09:56:10.99Z</time></trkpt><trkpt lat="45.3669993" lon="10.610084"><ele>140.0</ele><time>2026-03-29T09:56:11.99Z</time></trkpt><trkpt lat="45.3670413" lon="10.6098838"><ele>139.66666666666666</ele><time>2026-03-29T09:56:12.99Z</time></trkpt><trkpt lat="45.3670833" lon="10.6096717"><ele>139.33333333333334</ele><time>2026-03-29T09:56:13.99Z</time></trkpt><trkpt lat="45.3671273" lon="10.6094559"><ele>139.0</ele><time>2026-03-29T09:56:14.99Z</time></trkpt><trkpt lat="45.3671705" lon="10.609245"><ele>139.5</ele><time>2026-03-29T09:56:15.99Z</time></trkpt><trkpt lat="45.3672124" lon="10.6090354"><ele>140.0</ele><time>2026-03-29T09:56:16.99Z</time></trkpt><trkpt lat="45.3672532" lon="10.6088345"><ele>140.5</ele><time>2026-03-29T09:56:17.99Z</time></trkpt><trkpt lat="45.3672931" lon="10.6086407"><ele>141.0</ele><time>2026-03-29T09:56:18.99Z</time></trkpt><trkpt lat="45.3673295" lon="10.6084534"><ele>141.0</ele><time>2026-03-29T09:56:19.99Z</time></trkpt><trkpt lat="45.3673637" lon="10.6082695"><ele>141.0</ele><time>2026-03-29T09:56:20.99Z</time></trkpt><trkpt lat="45.3673975" lon="10.6081085"><ele>141.0</ele><time>2026-03-29T09:56:21.99Z</time></trkpt><trkpt lat="45.367428" lon="10.6079721"><ele>141.0</ele><time>2026-03-29T09:56:22.99Z</time></trkpt><trkpt lat="45.3674549" lon="10.6078475"><ele>141.0</ele><time>2026-03-29T09:56:23.991Z</time></trkpt><trkpt lat="45.3674825" lon="10.607741"><ele>141.0</ele><time>2026-03-29T09:56:24.99Z</time></trkpt><trkpt lat="45.3675131" lon="10.6076408"><ele>141.0</ele><time>2026-03-29T09:56:25.99Z</time></trkpt><trkpt lat="45.3675665" lon="10.6074922"><ele>141.0</ele><time>2026-03-29T09:56:27.99Z</time></trkpt><trkpt lat="45.3676502" lon="10.6074154"><ele>141.0</ele><time>2026-03-29T09:56:29.99Z</time></trkpt><trkpt lat="45.3677145" lon="10.607418"><ele>141.0</ele><time>2026-03-29T09:56:30.99Z</time></trkpt><trkpt lat="45.3677838" lon="10.6074503"><ele>141.0</ele><time>2026-03-29T09:56:31.99Z</time></trkpt><trkpt lat="45.3678635" lon="10.6075091"><ele>141.0</ele><time>2026-03-29T09:56:32.99Z</time></trkpt><trkpt lat="45.3679449" lon="10.6075736"><ele>141.0</ele><time>2026-03-29T09:56:33.99Z</time></trkpt><trkpt lat="45.3680231" lon="10.6076224"><ele>141.0</ele><time>2026-03-29T09:56:34.99Z</time></trkpt><trkpt lat="45.368095" lon="10.6076555"><ele>141.0</ele><time>2026-03-29T09:56:35.99Z</time></trkpt><trkpt lat="45.3681624" lon="10.6076814"><ele>141.0</ele><time>2026-03-29T09:56:36.99Z</time></trkpt><trkpt lat="45.3682308" lon="10.6076849"><ele>141.0</ele><time>2026-03-29T09:56:37.99Z</time></trkpt><trkpt lat="45.3682969" lon="10.6076554"><ele>139.6</ele><time>2026-03-29T09:56:38.99Z</time></trkpt><trkpt lat="45.3683638" lon="10.6075973"><ele>138.2</ele><time>2026-03-29T09:56:39.99Z</time></trkpt><trkpt lat="45.3684304" lon="10.6075216"><ele>136.8</ele><time>2026-03-29T09:56:40.99Z</time></trkpt><trkpt lat="45.3684987" lon="10.6074364"><ele>135.4</ele><time>2026-03-29T09:56:41.99Z</time></trkpt><trkpt lat="45.3685664" lon="10.6073336"><ele>134.0</ele><time>2026-03-29T09:56:42.99Z</time></trkpt><trkpt lat="45.3686264" lon="10.6072229"><ele>134.0</ele><time>2026-03-29T09:56:43.99Z</time></trkpt><trkpt lat="45.3686831" lon="10.6071084"><ele>134.0</ele><time>2026-03-29T09:56:44.99Z</time></trkpt><trkpt lat="45.3687361" lon="10.6069943"><ele>134.0</ele><time>2026-03-29T09:56:45.99Z</time></trkpt><trkpt lat="45.3687902" lon="10.6068932"><ele>134.0</ele><time>2026-03-29T09:56:46.99Z</time></trkpt><trkpt lat="45.3688349" lon="10.6068191"><ele>134.0</ele><time>2026-03-29T09:56:47.99Z</time></trkpt><trkpt lat="45.3689248" lon="10.6067749"><ele>134.0</ele><time>2026-03-29T09:56:49.99Z</time></trkpt><trkpt lat="45.3690201" lon="10.6068084"><ele>132.0</ele><time>2026-03-29T09:56:51.99Z</time></trkpt><trkpt lat="45.3690804" lon="10.6068383"><ele>130.0</ele><time>2026-03-29T09:56:52.99Z</time></trkpt><trkpt lat="45.3691504" lon="10.606885"><ele>128.0</ele><time>2026-03-29T09:56:53.99Z</time></trkpt><trkpt lat="45.3692235" lon="10.6069491"><ele>126.0</ele><time>2026-03-29T09:56:54.99Z</time></trkpt><trkpt lat="45.369295" lon="10.6070149"><ele>123.99999999999999</ele><time>2026-03-29T09:56:55.99Z</time></trkpt><trkpt lat="45.3693686" lon="10.6070822"><ele>122.0</ele><time>2026-03-29T09:56:56.99Z</time></trkpt><trkpt lat="45.3694429" lon="10.6071391"><ele>121.99999999999999</ele><time>2026-03-29T09:56:57.99Z</time></trkpt><trkpt lat="45.3695222" lon="10.6071707"><ele>122.0</ele><time>2026-03-29T09:56:58.99Z</time></trkpt><trkpt lat="45.3695929" lon="10.6071891"><ele>122.0</ele><time>2026-03-29T09:56:59.99Z</time></trkpt><trkpt lat="45.3696653" lon="10.6072586"><ele>122.0</ele><time>2026-03-29T09:57:01.99Z</time></trkpt><trkpt lat="45.3696815" lon="10.6074138"><ele>121.99999999999999</ele><time>2026-03-29T09:57:03.99Z</time></trkpt><trkpt lat="45.3696892" lon="10.6075352"><ele>122.0</ele><time>2026-03-29T09:57:04.99Z</time></trkpt><trkpt lat="45.3696939" lon="10.6076804"><ele>121.0</ele><time>2026-03-29T09:57:05.99Z</time></trkpt><trkpt lat="45.3697022" lon="10.6078222"><ele>119.99999999999999</ele><time>2026-03-29T09:57:06.99Z</time></trkpt><trkpt lat="45.3697301" lon="10.6079484"><ele>118.99999999999999</ele><time>2026-03-29T09:57:07.99Z</time></trkpt><trkpt lat="45.3697706" lon="10.6080943"><ele>118.0</ele><time>2026-03-29T09:57:08.99Z</time></trkpt><trkpt lat="45.3698109" lon="10.6082328"><ele>117.0</ele><time>2026-03-29T09:57:09.99Z</time></trkpt><trkpt lat="45.3698411" lon="10.6083807"><ele>117.0</ele><time>2026-03-29T09:57:10.99Z</time></trkpt><trkpt lat="45.3698554" lon="10.6085428"><ele>117.0</ele><time>2026-03-29T09:57:11.99Z</time></trkpt><trkpt lat="45.3698642" lon="10.6087188"><ele>117.0</ele><time>2026-03-29T09:57:12.99Z</time></trkpt><trkpt lat="45.3698788" lon="10.6088986"><ele>117.0</ele><time>2026-03-29T09:57:13.991Z</time></trkpt><trkpt lat="45.369898" lon="10.6090837"><ele>118.75</ele><time>2026-03-29T09:57:14.991Z</time></trkpt><trkpt lat="45.3699234" lon="10.6092778"><ele>120.5</ele><time>2026-03-29T09:57:15.99Z</time></trkpt><trkpt lat="45.3699669" lon="10.60947"><ele>122.25</ele><time>2026-03-29T09:57:16.99Z</time></trkpt><trkpt lat="45.3700132" lon="10.609659"><ele>124.0</ele><time>2026-03-29T09:57:17.99Z</time></trkpt><trkpt lat="45.37005" lon="10.6098201"><ele>124.6</ele><time>2026-03-29T09:57:18.99Z</time></trkpt><trkpt lat="45.3700855" lon="10.6099588"><ele>125.2</ele><time>2026-03-29T09:57:19.99Z</time></trkpt><trkpt lat="45.370118" lon="10.6100956"><ele>125.79999999999998</ele><time>2026-03-29T09:57:20.99Z</time></trkpt><trkpt lat="45.370153" lon="10.6102448"><ele>126.39999999999999</ele><time>2026-03-29T09:57:21.99Z</time></trkpt><trkpt lat="45.3701949" lon="10.6104068"><ele>127.0</ele><time>2026-03-29T09:57:22.99Z</time></trkpt><trkpt lat="45.3702417" lon="10.6105784"><ele>127.25</ele><time>2026-03-29T09:57:23.99Z</time></trkpt><trkpt lat="45.3702908" lon="10.6107566"><ele>127.5</ele><time>2026-03-29T09:57:24.99Z</time></trkpt><trkpt lat="45.3703405" lon="10.610944"><ele>127.75</ele><time>2026-03-29T09:57:25.99Z</time></trkpt><trkpt lat="45.3703839" lon="10.6111389"><ele>128.0</ele><time>2026-03-29T09:57:26.99Z</time></trkpt><trkpt lat="45.3704247" lon="10.6113299"><ele>127.80000000000001</ele><time>2026-03-29T09:57:27.99Z</time></trkpt><trkpt lat="45.3704642" lon="10.6115082"><ele>127.60000000000001</ele><time>2026-03-29T09:57:28.99Z</time></trkpt><trkpt lat="45.3704983" lon="10.6116506"><ele>127.39999999999999</ele><time>2026-03-29T09:57:29.99Z</time></trkpt><trkpt lat="45.3705192" lon="10.6117665"><ele>127.19999999999999</ele><time>2026-03-29T09:57:30.99Z</time></trkpt><trkpt lat="45.370535" lon="10.6118747"><ele>127.0</ele><time>2026-03-29T09:57:31.99Z</time></trkpt><trkpt lat="45.3705558" lon="10.612012"><ele>125.6</ele><time>2026-03-29T09:57:32.99Z</time></trkpt><trkpt lat="45.3705722" lon="10.612159"><ele>124.19999999999999</ele><time>2026-03-29T09:57:33.99Z</time></trkpt><trkpt lat="45.3705771" lon="10.6123106"><ele>122.8</ele><time>2026-03-29T09:57:34.99Z</time></trkpt><trkpt lat="45.3705706" lon="10.6124611"><ele>121.4</ele><time>2026-03-29T09:57:35.99Z</time></trkpt><trkpt lat="45.3705637" lon="10.6126173"><ele>120.0</ele><time>2026-03-29T09:57:36.99Z</time></trkpt><trkpt lat="45.3705739" lon="10.6127563"><ele>118.75</ele><time>2026-03-29T09:57:37.99Z</time></trkpt><trkpt lat="45.3706171" lon="10.6128882"><ele>117.5</ele><time>2026-03-29T09:57:38.99Z</time></trkpt><trkpt lat="45.3706967" lon="10.6130024"><ele>116.25</ele><time>2026-03-29T09:57:39.99Z</time></trkpt><trkpt lat="45.370802" lon="10.6131032"><ele>115.0</ele><time>2026-03-29T09:57:40.99Z</time></trkpt><trkpt lat="45.3709265" lon="10.6131931"><ele>115.0</ele><time>2026-03-29T09:57:41.991Z</time></trkpt><trkpt lat="45.3710531" lon="10.6132964"><ele>115.0</ele><time>2026-03-29T09:57:42.99Z</time></trkpt><trkpt lat="45.3711841" lon="10.6134107"><ele>115.0</ele><time>2026-03-29T09:57:43.99Z</time></trkpt><trkpt lat="45.3713253" lon="10.6135299"><ele>114.66666666666667</ele><time>2026-03-29T09:57:44.99Z</time></trkpt><trkpt lat="45.3714664" lon="10.6136469"><ele>114.33333333333334</ele><time>2026-03-29T09:57:45.99Z</time></trkpt><trkpt lat="45.3716126" lon="10.6137641"><ele>114.0</ele><time>2026-03-29T09:57:46.99Z</time></trkpt><trkpt lat="45.3717602" lon="10.6138797"><ele>114.0</ele><time>2026-03-29T09:57:47.99Z</time></trkpt><trkpt lat="45.3719119" lon="10.6140005"><ele>114.0</ele><time>2026-03-29T09:57:48.99Z</time></trkpt><trkpt lat="45.3720634" lon="10.6141204"><ele>114.0</ele><time>2026-03-29T09:57:49.991Z</time></trkpt><trkpt lat="45.3722224" lon="10.6142298"><ele>113.66666666666666</ele><time>2026-03-29T09:57:50.99Z</time></trkpt><trkpt lat="45.3723942" lon="10.6143056"><ele>113.33333333333333</ele><time>2026-03-29T09:57:51.99Z</time></trkpt><trkpt lat="45.3725746" lon="10.614343"><ele>113.0</ele><time>2026-03-29T09:57:52.99Z</time></trkpt><trkpt lat="45.3727602" lon="10.6143473"><ele>113.0</ele><time>2026-03-29T09:57:53.99Z</time></trkpt><trkpt lat="45.3729478" lon="10.6143421"><ele>113.0</ele><time>2026-03-29T09:57:54.99Z</time></trkpt><trkpt lat="45.373133" lon="10.6143558"><ele>113.0</ele><time>2026-03-29T09:57:55.99Z</time></trkpt><trkpt lat="45.373318" lon="10.6143984"><ele>113.0</ele><time>2026-03-29T09:57:56.99Z</time></trkpt><trkpt lat="45.3735018" lon="10.614464"><ele>113.0</ele><time>2026-03-29T09:57:57.99Z</time></trkpt><trkpt lat="45.3736785" lon="10.6145559"><ele>113.0</ele><time>2026-03-29T09:57:58.99Z</time></trkpt><trkpt lat="45.3738474" lon="10.6146696"><ele>113.33333333333333</ele><time>2026-03-29T09:57:59.991Z</time></trkpt><trkpt lat="45.3740069" lon="10.614805"><ele>113.66666666666666</ele><time>2026-03-29T09:58:00.99Z</time></trkpt><trkpt lat="45.3741643" lon="10.6149398"><ele>114.0</ele><time>2026-03-29T09:58:01.99Z</time></trkpt><trkpt lat="45.3743234" lon="10.6150732"><ele>114.0</ele><time>2026-03-29T09:58:02.99Z</time></trkpt><trkpt lat="45.374482" lon="10.6152074"><ele>114.0</ele><time>2026-03-29T09:58:03.99Z</time></trkpt><trkpt lat="45.3746422" lon="10.6153359"><ele>114.0</ele><time>2026-03-29T09:58:04.99Z</time></trkpt><trkpt lat="45.3748022" lon="10.6154687"><ele>114.33333333333334</ele><time>2026-03-29T09:58:05.99Z</time></trkpt><trkpt lat="45.3749611" lon="10.6156015"><ele>114.66666666666667</ele><time>2026-03-29T09:58:06.99Z</time></trkpt><trkpt lat="45.3751206" lon="10.6157333"><ele>115.0</ele><time>2026-03-29T09:58:07.99Z</time></trkpt><trkpt lat="45.3752732" lon="10.615862"><ele>115.0</ele><time>2026-03-29T09:58:08.991Z</time></trkpt><trkpt lat="45.3754147" lon="10.6159862"><ele>115.0</ele><time>2026-03-29T09:58:09.99Z</time></trkpt><trkpt lat="45.3755409" lon="10.6160942"><ele>115.0</ele><time>2026-03-29T09:58:10.99Z</time></trkpt><trkpt lat="45.3756507" lon="10.6161922"><ele>115.0</ele><time>2026-03-29T09:58:11.99Z</time></trkpt><trkpt lat="45.3757384" lon="10.616279"><ele>115.4</ele><time>2026-03-29T09:58:12.99Z</time></trkpt><trkpt lat="45.3758114" lon="10.6163512"><ele>115.8</ele><time>2026-03-29T09:58:13.99Z</time></trkpt><trkpt lat="45.3759291" lon="10.6164144"><ele>116.19999999999999</ele><time>2026-03-29T09:58:15.99Z</time></trkpt><trkpt lat="45.3760055" lon="10.6164056"><ele>116.6</ele><time>2026-03-29T09:58:16.99Z</time></trkpt><trkpt lat="45.3760846" lon="10.6163797"><ele>117.0</ele><time>2026-03-29T09:58:17.99Z</time></trkpt><trkpt lat="45.3761734" lon="10.616348"><ele>117.0</ele><time>2026-03-29T09:58:18.99Z</time></trkpt><trkpt lat="45.376268" lon="10.6163159"><ele>116.99999999999999</ele><time>2026-03-29T09:58:19.99Z</time></trkpt><trkpt lat="45.3763706" lon="10.6162821"><ele>116.99999999999999</ele><time>2026-03-29T09:58:20.991Z</time></trkpt><trkpt lat="45.3764766" lon="10.6162418"><ele>117.0</ele><time>2026-03-29T09:58:21.99Z</time></trkpt><trkpt lat="45.3765892" lon="10.6162015"><ele>117.0</ele><time>2026-03-29T09:58:22.99Z</time></trkpt><trkpt lat="45.376719" lon="10.6161811"><ele>117.66666666666666</ele><time>2026-03-29T09:58:23.99Z</time></trkpt><trkpt lat="45.3768632" lon="10.6161898"><ele>118.33333333333333</ele><time>2026-03-29T09:58:24.99Z</time></trkpt><trkpt lat="45.3770111" lon="10.6162182"><ele>119.0</ele><time>2026-03-29T09:58:25.991Z</time></trkpt><trkpt lat="45.3771657" lon="10.6162651"><ele>119.0</ele><time>2026-03-29T09:58:26.99Z</time></trkpt><trkpt lat="45.3773171" lon="10.6163203"><ele>119.0</ele><time>2026-03-29T09:58:27.99Z</time></trkpt><trkpt lat="45.3774685" lon="10.6163753"><ele>119.0</ele><time>2026-03-29T09:58:28.99Z</time></trkpt><trkpt lat="45.3776105" lon="10.6164283"><ele>119.0</ele><time>2026-03-29T09:58:29.99Z</time></trkpt><trkpt lat="45.3777389" lon="10.6164731"><ele>119.0</ele><time>2026-03-29T09:58:30.99Z</time></trkpt><trkpt lat="45.3778542" lon="10.6165059"><ele>119.0</ele><time>2026-03-29T09:58:31.99Z</time></trkpt><trkpt lat="45.3779631" lon="10.6165025"><ele>119.0</ele><time>2026-03-29T09:58:32.99Z</time></trkpt><trkpt lat="45.3780723" lon="10.6164575"><ele>118.25</ele><time>2026-03-29T09:58:33.99Z</time></trkpt><trkpt lat="45.3781742" lon="10.6163487"><ele>117.5</ele><time>2026-03-29T09:58:34.99Z</time></trkpt><trkpt lat="45.3782685" lon="10.6162152"><ele>116.75</ele><time>2026-03-29T09:58:35.99Z</time></trkpt><trkpt lat="45.3783612" lon="10.6160804"><ele>116.0</ele><time>2026-03-29T09:58:36.99Z</time></trkpt><trkpt lat="45.3784553" lon="10.6159439"><ele>115.0</ele><time>2026-03-29T09:58:37.99Z</time></trkpt><trkpt lat="45.3785437" lon="10.6158055"><ele>114.0</ele><time>2026-03-29T09:58:38.99Z</time></trkpt><trkpt lat="45.3786374" lon="10.6156717"><ele>113.0</ele><time>2026-03-29T09:58:39.99Z</time></trkpt><trkpt lat="45.378723" lon="10.6155606"><ele>112.0</ele><time>2026-03-29T09:58:40.99Z</time></trkpt><trkpt lat="45.3788104" lon="10.6154766"><ele>111.8</ele><time>2026-03-29T09:58:41.99Z</time></trkpt><trkpt lat="45.3789034" lon="10.6154468"><ele>111.6</ele><time>2026-03-29T09:58:42.99Z</time></trkpt><trkpt lat="45.3790113" lon="10.6154636"><ele>111.39999999999999</ele><time>2026-03-29T09:58:43.991Z</time></trkpt><trkpt lat="45.379115" lon="10.6155304"><ele>111.19999999999999</ele><time>2026-03-29T09:58:44.99Z</time></trkpt><trkpt lat="45.3792061" lon="10.6156225"><ele>111.0</ele><time>2026-03-29T09:58:45.99Z</time></trkpt><trkpt lat="45.3792875" lon="10.6157165"><ele>111.0</ele><time>2026-03-29T09:58:46.99Z</time></trkpt><trkpt lat="45.3793713" lon="10.6157871"><ele>111.0</ele><time>2026-03-29T09:58:47.99Z</time></trkpt><trkpt lat="45.3794561" lon="10.6158089"><ele>111.0</ele><time>2026-03-29T09:58:48.99Z</time></trkpt><trkpt lat="45.3795416" lon="10.6157869"><ele>111.0</ele><time>2026-03-29T09:58:49.99Z</time></trkpt><trkpt lat="45.3796338" lon="10.6157279"><ele>111.0</ele><time>2026-03-29T09:58:50.99Z</time></trkpt><trkpt lat="45.3797169" lon="10.6156336"><ele>109.8</ele><time>2026-03-29T09:58:51.99Z</time></trkpt><trkpt lat="45.3798047" lon="10.6155429"><ele>108.6</ele><time>2026-03-29T09:58:52.99Z</time></trkpt><trkpt lat="45.3798841" lon="10.6154798"><ele>107.4</ele><time>2026-03-29T09:58:53.99Z</time></trkpt><trkpt lat="45.3799723" lon="10.6154435"><ele>106.2</ele><time>2026-03-29T09:58:54.99Z</time></trkpt><trkpt lat="45.3800794" lon="10.6154391"><ele>105.0</ele><time>2026-03-29T09:58:55.991Z</time></trkpt><trkpt lat="45.3801935" lon="10.6154797"><ele>105.0</ele><time>2026-03-29T09:58:56.99Z</time></trkpt><trkpt lat="45.3803176" lon="10.6155396"><ele>105.0</ele><time>2026-03-29T09:58:57.991Z</time></trkpt><trkpt lat="45.3804487" lon="10.6155792"><ele>105.0</ele><time>2026-03-29T09:58:58.99Z</time></trkpt><trkpt lat="45.3805864" lon="10.615586"><ele>105.0</ele><time>2026-03-29T09:58:59.99Z</time></trkpt><trkpt lat="45.3807368" lon="10.6155509"><ele>105.33333333333334</ele><time>2026-03-29T09:59:00.99Z</time></trkpt><trkpt lat="45.3808838" lon="10.6154752"><ele>105.66666666666667</ele><time>2026-03-29T09:59:01.99Z</time></trkpt><trkpt lat="45.3810365" lon="10.6153903"><ele>106.0</ele><time>2026-03-29T09:59:02.99Z</time></trkpt><trkpt lat="45.3811888" lon="10.6153009"><ele>106.0</ele><time>2026-03-29T09:59:03.99Z</time></trkpt><trkpt lat="45.381334" lon="10.6151921"><ele>106.0</ele><time>2026-03-29T09:59:04.99Z</time></trkpt><trkpt lat="45.3814634" lon="10.615052"><ele>106.0</ele><time>2026-03-29T09:59:05.99Z</time></trkpt><trkpt lat="45.3815845" lon="10.6148962"><ele>105.0</ele><time>2026-03-29T09:59:06.99Z</time></trkpt><trkpt lat="45.3817015" lon="10.6147401"><ele>104.0</ele><time>2026-03-29T09:59:07.99Z</time></trkpt><trkpt lat="45.3818187" lon="10.6145824"><ele>103.0</ele><time>2026-03-29T09:59:08.99Z</time></trkpt><trkpt lat="45.3819382" lon="10.6144181"><ele>103.0</ele><time>2026-03-29T09:59:09.99Z</time></trkpt><trkpt lat="45.3820593" lon="10.614248"><ele>103.0</ele><time>2026-03-29T09:59:10.99Z</time></trkpt><trkpt lat="45.3821797" lon="10.6140774"><ele>103.0</ele><time>2026-03-29T09:59:11.99Z</time></trkpt><trkpt lat="45.382297" lon="10.6139172"><ele>103.0</ele><time>2026-03-29T09:59:12.99Z</time></trkpt><trkpt lat="45.3823977" lon="10.6137858"><ele>103.0</ele><time>2026-03-29T09:59:13.99Z</time></trkpt><trkpt lat="45.3824865" lon="10.6136702"><ele>103.0</ele><time>2026-03-29T09:59:14.99Z</time></trkpt><trkpt lat="45.3825649" lon="10.6135701"><ele>103.0</ele><time>2026-03-29T09:59:15.99Z</time></trkpt><trkpt lat="45.3826314" lon="10.613487"><ele>103.00000000000001</ele><time>2026-03-29T09:59:16.99Z</time></trkpt><trkpt lat="45.3826874" lon="10.6134204"><ele>103.0</ele><time>2026-03-29T09:59:17.99Z</time></trkpt><trkpt lat="45.3827396" lon="10.6133559"><ele>103.0</ele><time>2026-03-29T09:59:19.99Z</time></trkpt><trkpt lat="45.3827961" lon="10.6132584"><ele>103.0</ele><time>2026-03-29T09:59:51.991Z</time></trkpt><trkpt lat="45.3828468" lon="10.6131872"><ele>103.00000000000001</ele><time>2026-03-29T09:59:52.99Z</time></trkpt><trkpt lat="45.3829189" lon="10.6130997"><ele>103.0</ele><time>2026-03-29T09:59:53.99Z</time></trkpt><trkpt lat="45.3830056" lon="10.6130006"><ele>103.0</ele><time>2026-03-29T09:59:54.99Z</time></trkpt><trkpt lat="45.3831035" lon="10.6129034"><ele>103.0</ele><time>2026-03-29T09:59:55.99Z</time></trkpt><trkpt lat="45.383207" lon="10.6128042"><ele>103.0</ele><time>2026-03-29T09:59:56.99Z</time></trkpt><trkpt lat="45.3833208" lon="10.612698"><ele>103.0</ele><time>2026-03-29T09:59:57.99Z</time></trkpt><trkpt lat="45.3834445" lon="10.6125926"><ele>103.0</ele><time>2026-03-29T09:59:58.99Z</time></trkpt><trkpt lat="45.3835754" lon="10.6124995"><ele>103.0</ele><time>2026-03-29T09:59:59.99Z</time></trkpt><trkpt lat="45.3837186" lon="10.6124214"><ele>103.0</ele><time>2026-03-29T10:00:00.99Z</time></trkpt><trkpt lat="45.383871" lon="10.6123419"><ele>103.5</ele><time>2026-03-29T10:00:01.99Z</time></trkpt><trkpt lat="45.384019" lon="10.6122659"><ele>104.0</ele><time>2026-03-29T10:00:02.99Z</time></trkpt><trkpt lat="45.3841563" lon="10.6121877"><ele>104.5</ele><time>2026-03-29T10:00:03.99Z</time></trkpt><trkpt lat="45.384284" lon="10.6121198"><ele>105.0</ele><time>2026-03-29T10:00:04.99Z</time></trkpt><trkpt lat="45.3844013" lon="10.6120611"><ele>105.0</ele><time>2026-03-29T10:00:05.99Z</time></trkpt><trkpt lat="45.384509" lon="10.6120116"><ele>105.0</ele><time>2026-03-29T10:00:06.99Z</time></trkpt><trkpt lat="45.3846051" lon="10.6119571"><ele>105.0</ele><time>2026-03-29T10:00:07.99Z</time></trkpt><trkpt lat="45.3846954" lon="10.6119099"><ele>105.0</ele><time>2026-03-29T10:00:08.99Z</time></trkpt><trkpt lat="45.3847969" lon="10.6118623"><ele>105.0</ele><time>2026-03-29T10:00:09.99Z</time></trkpt><trkpt lat="45.3849106" lon="10.611797"><ele>104.5</ele><time>2026-03-29T10:00:10.99Z</time></trkpt><trkpt lat="45.3850335" lon="10.6117186"><ele>104.0</ele><time>2026-03-29T10:00:11.991Z</time></trkpt><trkpt lat="45.3851614" lon="10.6116121"><ele>103.5</ele><time>2026-03-29T10:00:12.99Z</time></trkpt><trkpt lat="45.3852898" lon="10.6114861"><ele>103.0</ele><time>2026-03-29T10:00:13.991Z</time></trkpt><trkpt lat="45.385423" lon="10.6113436"><ele>102.33333333333334</ele><time>2026-03-29T10:00:14.99Z</time></trkpt><trkpt lat="45.385555" lon="10.611207"><ele>101.66666666666666</ele><time>2026-03-29T10:00:15.99Z</time></trkpt><trkpt lat="45.3856904" lon="10.6110851"><ele>101.0</ele><time>2026-03-29T10:00:16.99Z</time></trkpt><trkpt lat="45.3858372" lon="10.610986"><ele>101.0</ele><time>2026-03-29T10:00:17.99Z</time></trkpt><trkpt lat="45.385987" lon="10.6109326"><ele>101.0</ele><time>2026-03-29T10:00:18.99Z</time></trkpt><trkpt lat="45.3861472" lon="10.6109272"><ele>101.0</ele><time>2026-03-29T10:00:19.99Z</time></trkpt><trkpt lat="45.3863068" lon="10.6109425"><ele>100.66666666666666</ele><time>2026-03-29T10:00:20.99Z</time></trkpt><trkpt lat="45.3864705" lon="10.6109648"><ele>100.33333333333334</ele><time>2026-03-29T10:00:21.99Z</time></trkpt><trkpt lat="45.3866374" lon="10.6109926"><ele>100.0</ele><time>2026-03-29T10:00:22.99Z</time></trkpt><trkpt lat="45.3868041" lon="10.6110159"><ele>100.0</ele><time>2026-03-29T10:00:23.99Z</time></trkpt><trkpt lat="45.3869748" lon="10.6110398"><ele>100.0</ele><time>2026-03-29T10:00:24.99Z</time></trkpt><trkpt lat="45.3871516" lon="10.6110649"><ele>100.0</ele><time>2026-03-29T10:00:25.99Z</time></trkpt><trkpt lat="45.387329" lon="10.6110868"><ele>99.66666666666667</ele><time>2026-03-29T10:00:26.99Z</time></trkpt><trkpt lat="45.3875086" lon="10.611111"><ele>99.33333333333334</ele><time>2026-03-29T10:00:27.99Z</time></trkpt><trkpt lat="45.3876906" lon="10.6111345"><ele>99.0</ele><time>2026-03-29T10:00:28.99Z</time></trkpt><trkpt lat="45.3878764" lon="10.6111568"><ele>99.0</ele><time>2026-03-29T10:00:29.99Z</time></trkpt><trkpt lat="45.3880607" lon="10.6111752"><ele>99.0</ele><time>2026-03-29T10:00:30.99Z</time></trkpt><trkpt lat="45.3882463" lon="10.6111967"><ele>99.0</ele><time>2026-03-29T10:00:31.99Z</time></trkpt><trkpt lat="45.3884331" lon="10.6112188"><ele>99.0</ele><time>2026-03-29T10:00:32.99Z</time></trkpt><trkpt lat="45.3886151" lon="10.6112433"><ele>99.0</ele><time>2026-03-29T10:00:33.99Z</time></trkpt><trkpt lat="45.3887928" lon="10.6112648"><ele>99.0</ele><time>2026-03-29T10:00:34.99Z</time></trkpt><trkpt lat="45.3889641" lon="10.6112908"><ele>99.0</ele><time>2026-03-29T10:00:35.99Z</time></trkpt><trkpt lat="45.3891325" lon="10.6113277"><ele>99.0</ele><time>2026-03-29T10:00:36.99Z</time></trkpt><trkpt lat="45.3893031" lon="10.611382"><ele>99.0</ele><time>2026-03-29T10:00:37.99Z</time></trkpt><trkpt lat="45.3894744" lon="10.6114593"><ele>99.0</ele><time>2026-03-29T10:00:38.99Z</time></trkpt><trkpt lat="45.3896423" lon="10.6115532"><ele>99.0</ele><time>2026-03-29T10:00:39.99Z</time></trkpt><trkpt lat="45.3898155" lon="10.6116465"><ele>99.0</ele><time>2026-03-29T10:00:40.99Z</time></trkpt><trkpt lat="45.3899859" lon="10.6117367"><ele>98.66666666666666</ele><time>2026-03-29T10:00:41.99Z</time></trkpt><trkpt lat="45.3901528" lon="10.6118272"><ele>98.33333333333333</ele><time>2026-03-29T10:00:42.99Z</time></trkpt><trkpt lat="45.3903172" lon="10.6119188"><ele>98.0</ele><time>2026-03-29T10:00:43.99Z</time></trkpt><trkpt lat="45.39048" lon="10.6120122"><ele>97.66666666666666</ele><time>2026-03-29T10:00:44.99Z</time></trkpt><trkpt lat="45.3906355" lon="10.6121025"><ele>97.33333333333334</ele><time>2026-03-29T10:00:45.99Z</time></trkpt><trkpt lat="45.3907814" lon="10.6121768"><ele>97.0</ele><time>2026-03-29T10:00:46.99Z</time></trkpt><trkpt lat="45.3909333" lon="10.6122275"><ele>97.0</ele><time>2026-03-29T10:00:47.99Z</time></trkpt><trkpt lat="45.3910931" lon="10.612247"><ele>97.0</ele><time>2026-03-29T10:00:48.99Z</time></trkpt><trkpt lat="45.3912547" lon="10.6122323"><ele>97.0</ele><time>2026-03-29T10:00:49.99Z</time></trkpt><trkpt lat="45.3914114" lon="10.6122056"><ele>96.5</ele><time>2026-03-29T10:00:50.99Z</time></trkpt><trkpt lat="45.3915599" lon="10.612177"><ele>96.0</ele><time>2026-03-29T10:00:51.99Z</time></trkpt><trkpt lat="45.3916895" lon="10.6121489"><ele>95.5</ele><time>2026-03-29T10:00:52.99Z</time></trkpt><trkpt lat="45.391798" lon="10.6121199"><ele>95.0</ele><time>2026-03-29T10:00:53.99Z</time></trkpt><trkpt lat="45.391887" lon="10.6120953"><ele>95.0</ele><time>2026-03-29T10:00:54.99Z</time></trkpt><trkpt lat="45.3919565" lon="10.6120775"><ele>95.0</ele><time>2026-03-29T10:00:55.99Z</time></trkpt><trkpt lat="45.3920486" lon="10.6120555"><ele>95.0</ele><time>2026-03-29T10:00:57.99Z</time></trkpt><trkpt lat="45.3921325" lon="10.6120712"><ele>95.0</ele><time>2026-03-29T10:01:13.99Z</time></trkpt><trkpt lat="45.3921898" lon="10.6121379"><ele>95.0</ele><time>2026-03-29T10:01:14.99Z</time></trkpt><trkpt lat="45.3922521" lon="10.612231"><ele>95.0</ele><time>2026-03-29T10:01:15.99Z</time></trkpt><trkpt lat="45.3923248" lon="10.6123503"><ele>94.5</ele><time>2026-03-29T10:01:16.99Z</time></trkpt><trkpt lat="45.3924088" lon="10.6124782"><ele>94.0</ele><time>2026-03-29T10:01:17.99Z</time></trkpt><trkpt lat="45.3925007" lon="10.6126128"><ele>93.5</ele><time>2026-03-29T10:01:18.99Z</time></trkpt><trkpt lat="45.3926023" lon="10.6127623"><ele>93.0</ele><time>2026-03-29T10:01:19.99Z</time></trkpt><trkpt lat="45.3927052" lon="10.6129219"><ele>93.0</ele><time>2026-03-29T10:01:20.99Z</time></trkpt><trkpt lat="45.3928101" lon="10.6130928"><ele>93.0</ele><time>2026-03-29T10:01:21.99Z</time></trkpt><trkpt lat="45.3929115" lon="10.6132766"><ele>93.0</ele><time>2026-03-29T10:01:22.99Z</time></trkpt><trkpt lat="45.393008" lon="10.6134753"><ele>95.0</ele><time>2026-03-29T10:01:23.991Z</time></trkpt><trkpt lat="45.3930989" lon="10.61369"><ele>97.0</ele><time>2026-03-29T10:01:24.99Z</time></trkpt><trkpt lat="45.3931854" lon="10.61391"><ele>99.0</ele><time>2026-03-29T10:01:25.99Z</time></trkpt><trkpt lat="45.3932683" lon="10.6141332"><ele>99.0</ele><time>2026-03-29T10:01:26.99Z</time></trkpt><trkpt lat="45.3933533" lon="10.6143651"><ele>99.0</ele><time>2026-03-29T10:01:27.99Z</time></trkpt><trkpt lat="45.3934412" lon="10.6145913"><ele>99.0</ele><time>2026-03-29T10:01:28.99Z</time></trkpt><trkpt lat="45.393531" lon="10.6148178"><ele>98.0</ele><time>2026-03-29T10:01:29.99Z</time></trkpt><trkpt lat="45.3936193" lon="10.6150502"><ele>97.0</ele><time>2026-03-29T10:01:30.99Z</time></trkpt><trkpt lat="45.393705" lon="10.6152934"><ele>96.0</ele><time>2026-03-29T10:01:31.99Z</time></trkpt><trkpt lat="45.3937946" lon="10.6155359"><ele>97.33333333333334</ele><time>2026-03-29T10:01:32.991Z</time></trkpt><trkpt lat="45.3938858" lon="10.615774"><ele>98.66666666666667</ele><time>2026-03-29T10:01:33.99Z</time></trkpt><trkpt lat="45.3939824" lon="10.6160081"><ele>100.0</ele><time>2026-03-29T10:01:34.99Z</time></trkpt><trkpt lat="45.3940866" lon="10.6162388"><ele>100.0</ele><time>2026-03-29T10:01:35.99Z</time></trkpt><trkpt lat="45.3941948" lon="10.6164631"><ele>100.0</ele><time>2026-03-29T10:01:36.99Z</time></trkpt><trkpt lat="45.3943095" lon="10.616685"><ele>100.0</ele><time>2026-03-29T10:01:37.99Z</time></trkpt><trkpt lat="45.3944229" lon="10.6169087"><ele>100.66666666666667</ele><time>2026-03-29T10:01:38.99Z</time></trkpt><trkpt lat="45.3945304" lon="10.61714"><ele>101.33333333333334</ele><time>2026-03-29T10:01:39.99Z</time></trkpt><trkpt lat="45.3946377" lon="10.6173699"><ele>102.0</ele><time>2026-03-29T10:01:40.99Z</time></trkpt><trkpt lat="45.394742" lon="10.6176014"><ele>100.33333333333334</ele><time>2026-03-29T10:01:41.99Z</time></trkpt><trkpt lat="45.3948411" lon="10.6178413"><ele>98.66666666666667</ele><time>2026-03-29T10:01:42.99Z</time></trkpt><trkpt lat="45.3949347" lon="10.6180875"><ele>97.0</ele><time>2026-03-29T10:01:43.99Z</time></trkpt><trkpt lat="45.3950235" lon="10.6183364"><ele>97.0</ele><time>2026-03-29T10:01:44.99Z</time></trkpt><trkpt lat="45.3951093" lon="10.6185838"><ele>97.0</ele><time>2026-03-29T10:01:45.99Z</time></trkpt><trkpt lat="45.395195" lon="10.6188267"><ele>97.0</ele><time>2026-03-29T10:01:46.99Z</time></trkpt><trkpt lat="45.3952836" lon="10.6190708"><ele>96.33333333333334</ele><time>2026-03-29T10:01:47.99Z</time></trkpt><trkpt lat="45.3953697" lon="10.6193157"><ele>95.66666666666667</ele><time>2026-03-29T10:01:48.99Z</time></trkpt><trkpt lat="45.3954559" lon="10.6195603"><ele>95.0</ele><time>2026-03-29T10:01:49.99Z</time></trkpt><trkpt lat="45.3955402" lon="10.619811"><ele>95.0</ele><time>2026-03-29T10:01:50.99Z</time></trkpt><trkpt lat="45.3956124" lon="10.6200634"><ele>95.0</ele><time>2026-03-29T10:01:51.99Z</time></trkpt><trkpt lat="45.3956666" lon="10.6203256"><ele>95.0</ele><time>2026-03-29T10:01:52.99Z</time></trkpt><trkpt lat="45.3957007" lon="10.620595"><ele>94.33333333333334</ele><time>2026-03-29T10:01:53.99Z</time></trkpt><trkpt lat="45.3957167" lon="10.6208658"><ele>93.66666666666667</ele><time>2026-03-29T10:01:54.99Z</time></trkpt><trkpt lat="45.3957182" lon="10.6211363"><ele>93.0</ele><time>2026-03-29T10:01:55.99Z</time></trkpt><trkpt lat="45.3957106" lon="10.6213987"><ele>92.5</ele><time>2026-03-29T10:01:56.99Z</time></trkpt><trkpt lat="45.3956985" lon="10.6216357"><ele>92.0</ele><time>2026-03-29T10:01:57.99Z</time></trkpt><trkpt lat="45.3956805" lon="10.6218498"><ele>91.5</ele><time>2026-03-29T10:01:58.99Z</time></trkpt><trkpt lat="45.3956515" lon="10.6220243"><ele>91.0</ele><time>2026-03-29T10:01:59.99Z</time></trkpt><trkpt lat="45.3956043" lon="10.6221737"><ele>90.83333333333333</ele><time>2026-03-29T10:02:00.99Z</time></trkpt><trkpt lat="45.3955494" lon="10.6222966"><ele>90.66666666666666</ele><time>2026-03-29T10:02:01.99Z</time></trkpt><trkpt lat="45.3955032" lon="10.6224074"><ele>90.5</ele><time>2026-03-29T10:02:02.99Z</time></trkpt><trkpt lat="45.3954867" lon="10.6225277"><ele>90.33333333333333</ele><time>2026-03-29T10:02:03.99Z</time></trkpt><trkpt lat="45.3955121" lon="10.6226296"><ele>90.16666666666667</ele><time>2026-03-29T10:02:04.99Z</time></trkpt><trkpt lat="45.3955596" lon="10.6227173"><ele>90.0</ele><time>2026-03-29T10:02:05.99Z</time></trkpt><trkpt lat="45.3956172" lon="10.6227741"><ele>90.0</ele><time>2026-03-29T10:02:06.99Z</time></trkpt><trkpt lat="45.3956854" lon="10.6227833"><ele>90.0</ele><time>2026-03-29T10:02:07.99Z</time></trkpt><trkpt lat="45.3957621" lon="10.6227778"><ele>90.0</ele><time>2026-03-29T10:02:08.99Z</time></trkpt><trkpt lat="45.3958321" lon="10.6227639"><ele>90.0</ele><time>2026-03-29T10:02:09.99Z</time></trkpt><trkpt lat="45.395906" lon="10.6227548"><ele>90.0</ele><time>2026-03-29T10:02:10.99Z</time></trkpt><trkpt lat="45.3959798" lon="10.6227642"><ele>90.0</ele><time>2026-03-29T10:02:11.99Z</time></trkpt><trkpt lat="45.3960551" lon="10.6227881"><ele>90.0</ele><time>2026-03-29T10:02:12.99Z</time></trkpt><trkpt lat="45.3961529" lon="10.6228069"><ele>91.25</ele><time>2026-03-29T10:02:13.99Z</time></trkpt><trkpt lat="45.3962739" lon="10.6228186"><ele>92.5</ele><time>2026-03-29T10:02:14.99Z</time></trkpt><trkpt lat="45.3964067" lon="10.622817"><ele>93.75</ele><time>2026-03-29T10:02:15.99Z</time></trkpt><trkpt lat="45.3965421" lon="10.6227911"><ele>95.0</ele><time>2026-03-29T10:02:16.99Z</time></trkpt><trkpt lat="45.3966869" lon="10.6227424"><ele>95.0</ele><time>2026-03-29T10:02:17.99Z</time></trkpt><trkpt lat="45.3968369" lon="10.6226825"><ele>95.0</ele><time>2026-03-29T10:02:18.99Z</time></trkpt><trkpt lat="45.3969902" lon="10.6226163"><ele>95.0</ele><time>2026-03-29T10:02:19.99Z</time></trkpt><trkpt lat="45.3971449" lon="10.6225483"><ele>97.0</ele><time>2026-03-29T10:02:20.99Z</time></trkpt><trkpt lat="45.3973032" lon="10.6224781"><ele>99.0</ele><time>2026-03-29T10:02:21.99Z</time></trkpt><trkpt lat="45.3974666" lon="10.6224079"><ele>101.0</ele><time>2026-03-29T10:02:22.99Z</time></trkpt><trkpt lat="45.3976342" lon="10.6223431"><ele>101.0</ele><time>2026-03-29T10:02:23.99Z</time></trkpt><trkpt lat="45.3977968" lon="10.6222934"><ele>101.0</ele><time>2026-03-29T10:02:24.99Z</time></trkpt><trkpt lat="45.3979625" lon="10.6222698"><ele>101.0</ele><time>2026-03-29T10:02:25.99Z</time></trkpt><trkpt lat="45.3981291" lon="10.6222648"><ele>102.66666666666666</ele><time>2026-03-29T10:02:26.99Z</time></trkpt><trkpt lat="45.3982962" lon="10.6222609"><ele>104.33333333333334</ele><time>2026-03-29T10:02:27.99Z</time></trkpt><trkpt lat="45.3984681" lon="10.6222636"><ele>106.0</ele><time>2026-03-29T10:02:28.99Z</time></trkpt><trkpt lat="45.3986392" lon="10.6222678"><ele>106.0</ele><time>2026-03-29T10:02:29.99Z</time></trkpt><trkpt lat="45.3988085" lon="10.6222799"><ele>106.0</ele><time>2026-03-29T10:02:30.99Z</time></trkpt><trkpt lat="45.3989682" lon="10.6223059"><ele>106.0</ele><time>2026-03-29T10:02:31.99Z</time></trkpt><trkpt lat="45.3991196" lon="10.6223549"><ele>107.25</ele><time>2026-03-29T10:02:32.99Z</time></trkpt><trkpt lat="45.3992598" lon="10.6224245"><ele>108.5</ele><time>2026-03-29T10:02:33.99Z</time></trkpt><trkpt lat="45.3993884" lon="10.6225148"><ele>109.75</ele><time>2026-03-29T10:02:34.99Z</time></trkpt><trkpt lat="45.3995173" lon="10.6226178"><ele>111.0</ele><time>2026-03-29T10:02:35.99Z</time></trkpt><trkpt lat="45.3996384" lon="10.622728"><ele>111.75</ele><time>2026-03-29T10:02:36.99Z</time></trkpt><trkpt lat="45.3997482" lon="10.6228382"><ele>112.5</ele><time>2026-03-29T10:02:37.99Z</time></trkpt><trkpt lat="45.3998453" lon="10.6229466"><ele>113.25</ele><time>2026-03-29T10:02:38.99Z</time></trkpt><trkpt lat="45.3999283" lon="10.6230621"><ele>114.0</ele><time>2026-03-29T10:02:39.99Z</time></trkpt><trkpt lat="45.3999855" lon="10.6231756"><ele>114.0</ele><time>2026-03-29T10:02:40.99Z</time></trkpt><trkpt lat="45.40001" lon="10.6232973"><ele>114.0</ele><time>2026-03-29T10:02:41.99Z</time></trkpt><trkpt lat="45.4000531" lon="10.6234049"><ele>114.0</ele><time>2026-03-29T10:02:42.99Z</time></trkpt><trkpt lat="45.4001263" lon="10.6234643"><ele>114.0</ele><time>2026-03-29T10:02:43.99Z</time></trkpt><trkpt lat="45.4002088" lon="10.6234671"><ele>114.0</ele><time>2026-03-29T10:02:44.99Z</time></trkpt><trkpt lat="45.4003109" lon="10.6235133"><ele>114.0</ele><time>2026-03-29T10:02:45.99Z</time></trkpt><trkpt lat="45.400412" lon="10.623597"><ele>114.0</ele><time>2026-03-29T10:02:46.99Z</time></trkpt><trkpt lat="45.4005032" lon="10.6237167"><ele>114.0</ele><time>2026-03-29T10:02:47.99Z</time></trkpt><trkpt lat="45.400587" lon="10.6238677"><ele>114.0</ele><time>2026-03-29T10:02:48.99Z</time></trkpt><trkpt lat="45.4006705" lon="10.6240181"><ele>115.0</ele><time>2026-03-29T10:02:49.99Z</time></trkpt><trkpt lat="45.4007575" lon="10.6241694"><ele>116.0</ele><time>2026-03-29T10:02:50.99Z</time></trkpt><trkpt lat="45.4008458" lon="10.6243188"><ele>117.0</ele><time>2026-03-29T10:02:51.99Z</time></trkpt><trkpt lat="45.4009324" lon="10.6244662"><ele>118.0</ele><time>2026-03-29T10:02:52.99Z</time></trkpt><trkpt lat="45.4010186" lon="10.624613"><ele>118.25</ele><time>2026-03-29T10:02:53.991Z</time></trkpt><trkpt lat="45.4011035" lon="10.6247635"><ele>118.5</ele><time>2026-03-29T10:02:54.99Z</time></trkpt><trkpt lat="45.4011902" lon="10.6249182"><ele>118.75</ele><time>2026-03-29T10:02:55.99Z</time></trkpt><trkpt lat="45.4012755" lon="10.6250667"><ele>119.0</ele><time>2026-03-29T10:02:56.991Z</time></trkpt><trkpt lat="45.4013681" lon="10.6252021"><ele>120.0</ele><time>2026-03-29T10:02:57.99Z</time></trkpt><trkpt lat="45.4014711" lon="10.6253128"><ele>121.0</ele><time>2026-03-29T10:02:58.99Z</time></trkpt><trkpt lat="45.4015784" lon="10.625408"><ele>122.0</ele><time>2026-03-29T10:02:59.99Z</time></trkpt><trkpt lat="45.4016905" lon="10.6254924"><ele>123.0</ele><time>2026-03-29T10:03:00.99Z</time></trkpt><trkpt lat="45.4018036" lon="10.6255737"><ele>123.0</ele><time>2026-03-29T10:03:01.99Z</time></trkpt><trkpt lat="45.401915" lon="10.6256605"><ele>123.0</ele><time>2026-03-29T10:03:02.99Z</time></trkpt><trkpt lat="45.4020244" lon="10.6257595"><ele>123.0</ele><time>2026-03-29T10:03:03.99Z</time></trkpt><trkpt lat="45.4021329" lon="10.6258613"><ele>123.0</ele><time>2026-03-29T10:03:04.99Z</time></trkpt><trkpt lat="45.4022402" lon="10.6259712"><ele>123.0</ele><time>2026-03-29T10:03:05.99Z</time></trkpt><trkpt lat="45.4023419" lon="10.6260833"><ele>123.0</ele><time>2026-03-29T10:03:06.99Z</time></trkpt><trkpt lat="45.402442" lon="10.6261927"><ele>123.0</ele><time>2026-03-29T10:03:07.99Z</time></trkpt><trkpt lat="45.402532" lon="10.6263297"><ele>123.0</ele><time>2026-03-29T10:03:08.99Z</time></trkpt><trkpt lat="45.4026221" lon="10.6264587"><ele>123.0</ele><time>2026-03-29T10:03:09.99Z</time></trkpt><trkpt lat="45.402717" lon="10.6265631"><ele>123.00000000000001</ele><time>2026-03-29T10:03:10.99Z</time></trkpt><trkpt lat="45.4028141" lon="10.6266561"><ele>123.00000000000001</ele><time>2026-03-29T10:03:11.99Z</time></trkpt><trkpt lat="45.4029046" lon="10.6267348"><ele>123.0</ele><time>2026-03-29T10:03:12.99Z</time></trkpt><trkpt lat="45.4029749" lon="10.6268082"><ele>123.0</ele><time>2026-03-29T10:03:13.99Z</time></trkpt><trkpt lat="45.4030321" lon="10.6268745"><ele>123.16666666666667</ele><time>2026-03-29T10:03:14.99Z</time></trkpt><trkpt lat="45.4030941" lon="10.6269366"><ele>123.33333333333334</ele><time>2026-03-29T10:03:16.99Z</time></trkpt><trkpt lat="45.4031584" lon="10.6269323"><ele>123.5</ele><time>2026-03-29T10:03:18.99Z</time></trkpt><trkpt lat="45.4032508" lon="10.6268459"><ele>123.66666666666667</ele><time>2026-03-29T10:03:20.99Z</time></trkpt><trkpt lat="45.4033394" lon="10.6267671"><ele>123.83333333333334</ele><time>2026-03-29T10:03:22.99Z</time></trkpt><trkpt lat="45.4033983" lon="10.626722"><ele>124.0</ele><time>2026-03-29T10:03:23.99Z</time></trkpt><trkpt lat="45.4035136" lon="10.6266556"><ele>124.0</ele><time>2026-03-29T10:03:25.99Z</time></trkpt><trkpt lat="45.4036183" lon="10.6266292"><ele>124.0</ele><time>2026-03-29T10:03:27.99Z</time></trkpt><trkpt lat="45.403723" lon="10.6265883"><ele>124.0</ele><time>2026-03-29T10:03:29.99Z</time></trkpt><trkpt lat="45.4038212" lon="10.6265473"><ele>124.0</ele><time>2026-03-29T10:03:31.99Z</time></trkpt><trkpt lat="45.4038928" lon="10.6265232"><ele>124.0</ele><time>2026-03-29T10:03:33.99Z</time></trkpt><trkpt lat="45.4038029" lon="10.6265186"><ele>124.00000000000001</ele><time>2026-03-29T10:03:49.99Z</time></trkpt><trkpt lat="45.4037336" lon="10.6265536"><ele>124.0</ele><time>2026-03-29T10:03:50.99Z</time></trkpt><trkpt lat="45.4036602" lon="10.6265749"><ele>124.0</ele><time>2026-03-29T10:03:51.991Z</time></trkpt><trkpt lat="45.4035972" lon="10.6265895"><ele>124.0</ele><time>2026-03-29T10:03:52.99Z</time></trkpt><trkpt lat="45.403493" lon="10.6266235"><ele>124.00000000000001</ele><time>2026-03-29T10:03:54.99Z</time></trkpt><trkpt lat="45.4034167" lon="10.6266349"><ele>124.0</ele><time>2026-03-29T10:03:56.99Z</time></trkpt><trkpt lat="45.4033722" lon="10.6265269"><ele>124.0</ele><time>2026-03-29T10:03:59.99Z</time></trkpt><trkpt lat="45.4033957" lon="10.6264285"><ele>124.00000000000001</ele><time>2026-03-29T10:04:00.99Z</time></trkpt><trkpt lat="45.4034312" lon="10.6263289"><ele>124.0</ele><time>2026-03-29T10:04:01.99Z</time></trkpt><trkpt lat="45.4034557" lon="10.6262307"><ele>124.0</ele><time>2026-03-29T10:04:02.99Z</time></trkpt><trkpt lat="45.4034649" lon="10.626129"><ele>124.00000000000001</ele><time>2026-03-29T10:04:03.99Z</time></trkpt><trkpt lat="45.4034745" lon="10.6260363"><ele>124.0</ele><time>2026-03-29T10:04:04.99Z</time></trkpt><trkpt lat="45.4034722" lon="10.6259405"><ele>124.0</ele><time>2026-03-29T10:04:05.99Z</time></trkpt><trkpt lat="45.4034641" lon="10.625846"><ele>124.0</ele><time>2026-03-29T10:04:06.99Z</time></trkpt><trkpt lat="45.4034589" lon="10.6257475"><ele>124.00000000000001</ele><time>2026-03-29T10:04:07.99Z</time></trkpt><trkpt lat="45.4034579" lon="10.6256515"><ele>124.0</ele><time>2026-03-29T10:04:08.99Z</time></trkpt><trkpt lat="45.4034583" lon="10.6255409"><ele>124.0</ele><time>2026-03-29T10:04:09.99Z</time></trkpt><trkpt lat="45.4034829" lon="10.6254374"><ele>124.00000000000001</ele><time>2026-03-29T10:04:10.99Z</time></trkpt><trkpt lat="45.4035097" lon="10.6253177"><ele>124.0</ele><time>2026-03-29T10:04:11.99Z</time></trkpt><trkpt lat="45.4035455" lon="10.6252326"><ele>124.0</ele><time>2026-03-29T10:04:12.99Z</time></trkpt><trkpt lat="45.4035978" lon="10.6251534"><ele>123.2</ele><time>2026-03-29T10:04:13.99Z</time></trkpt><trkpt lat="45.4036675" lon="10.6250804"><ele>122.4</ele><time>2026-03-29T10:04:14.991Z</time></trkpt><trkpt lat="45.4037445" lon="10.6249962"><ele>121.6</ele><time>2026-03-29T10:04:15.99Z</time></trkpt><trkpt lat="45.4038286" lon="10.6248992"><ele>120.8</ele><time>2026-03-29T10:04:16.99Z</time></trkpt><trkpt lat="45.4038953" lon="10.624808"><ele>120.0</ele><time>2026-03-29T10:04:17.99Z</time></trkpt><trkpt lat="45.4039556" lon="10.6247229"><ele>119.4</ele><time>2026-03-29T10:04:18.99Z</time></trkpt><trkpt lat="45.4039848" lon="10.6246168"><ele>118.8</ele><time>2026-03-29T10:04:19.991Z</time></trkpt><trkpt lat="45.403967" lon="10.6244934"><ele>118.19999999999999</ele><time>2026-03-29T10:04:20.99Z</time></trkpt><trkpt lat="45.4039261" lon="10.6243573"><ele>117.6</ele><time>2026-03-29T10:04:21.99Z</time></trkpt><trkpt lat="45.403884" lon="10.6242192"><ele>117.0</ele><time>2026-03-29T10:04:22.99Z</time></trkpt><trkpt lat="45.4038372" lon="10.6240811"><ele>116.19999999999999</ele><time>2026-03-29T10:04:23.99Z</time></trkpt><trkpt lat="45.4037795" lon="10.6239481"><ele>115.39999999999999</ele><time>2026-03-29T10:04:24.991Z</time></trkpt><trkpt lat="45.4037104" lon="10.6238254"><ele>114.60000000000001</ele><time>2026-03-29T10:04:25.99Z</time></trkpt><trkpt lat="45.4036469" lon="10.6237111"><ele>113.80000000000001</ele><time>2026-03-29T10:04:26.991Z</time></trkpt><trkpt lat="45.4035849" lon="10.6235982"><ele>113.0</ele><time>2026-03-29T10:04:27.99Z</time></trkpt><trkpt lat="45.4035198" lon="10.6234904"><ele>111.80000000000001</ele><time>2026-03-29T10:04:28.991Z</time></trkpt><trkpt lat="45.4034652" lon="10.6233789"><ele>110.60000000000001</ele><time>2026-03-29T10:04:29.99Z</time></trkpt><trkpt lat="45.4034262" lon="10.623248"><ele>109.39999999999999</ele><time>2026-03-29T10:04:30.99Z</time></trkpt><trkpt lat="45.4034257" lon="10.6231053"><ele>108.19999999999999</ele><time>2026-03-29T10:04:31.99Z</time></trkpt><trkpt lat="45.4034614" lon="10.6229563"><ele>107.0</ele><time>2026-03-29T10:04:32.99Z</time></trkpt><trkpt lat="45.403515" lon="10.6228134"><ele>106.0</ele><time>2026-03-29T10:04:33.99Z</time></trkpt><trkpt lat="45.4035728" lon="10.6226671"><ele>104.99999999999999</ele><time>2026-03-29T10:04:34.99Z</time></trkpt><trkpt lat="45.4036146" lon="10.6225201"><ele>104.0</ele><time>2026-03-29T10:04:35.99Z</time></trkpt><trkpt lat="45.4036436" lon="10.622376"><ele>103.0</ele><time>2026-03-29T10:04:36.99Z</time></trkpt><trkpt lat="45.4036653" lon="10.622225"><ele>102.0</ele><time>2026-03-29T10:04:37.99Z</time></trkpt><trkpt lat="45.4036897" lon="10.6220711"><ele>100.5</ele><time>2026-03-29T10:04:38.99Z</time></trkpt><trkpt lat="45.4037102" lon="10.6219095"><ele>99.0</ele><time>2026-03-29T10:04:39.99Z</time></trkpt><trkpt lat="45.4037312" lon="10.621745"><ele>97.5</ele><time>2026-03-29T10:04:40.99Z</time></trkpt><trkpt lat="45.4037552" lon="10.6215833"><ele>96.0</ele><time>2026-03-29T10:04:41.99Z</time></trkpt><trkpt lat="45.4037766" lon="10.6214189"><ele>96.0</ele><time>2026-03-29T10:04:42.99Z</time></trkpt><trkpt lat="45.403799" lon="10.6212643"><ele>96.0</ele><time>2026-03-29T10:04:43.99Z</time></trkpt><trkpt lat="45.4038183" lon="10.6211195"><ele>96.0</ele><time>2026-03-29T10:04:44.99Z</time></trkpt><trkpt lat="45.4038406" lon="10.6209824"><ele>96.0</ele><time>2026-03-29T10:04:45.99Z</time></trkpt><trkpt lat="45.4038687" lon="10.620845"><ele>96.0</ele><time>2026-03-29T10:04:46.99Z</time></trkpt><trkpt lat="45.4039057" lon="10.6207118"><ele>95.4</ele><time>2026-03-29T10:04:47.99Z</time></trkpt><trkpt lat="45.4039512" lon="10.6205894"><ele>94.8</ele><time>2026-03-29T10:04:48.99Z</time></trkpt><trkpt lat="45.4040081" lon="10.6204626"><ele>94.2</ele><time>2026-03-29T10:04:49.99Z</time></trkpt><trkpt lat="45.404073" lon="10.6203482"><ele>93.60000000000001</ele><time>2026-03-29T10:04:50.99Z</time></trkpt><trkpt lat="45.4041443" lon="10.620236"><ele>93.0</ele><time>2026-03-29T10:04:51.99Z</time></trkpt><trkpt lat="45.404221" lon="10.620129"><ele>93.0</ele><time>2026-03-29T10:04:52.99Z</time></trkpt><trkpt lat="45.4043006" lon="10.6200239"><ele>93.0</ele><time>2026-03-29T10:04:53.99Z</time></trkpt><trkpt lat="45.4043839" lon="10.6199175"><ele>93.0</ele><time>2026-03-29T10:04:54.99Z</time></trkpt><trkpt lat="45.4044668" lon="10.6198166"><ele>93.0</ele><time>2026-03-29T10:04:55.99Z</time></trkpt><trkpt lat="45.4045596" lon="10.6197165"><ele>93.0</ele><time>2026-03-29T10:04:56.99Z</time></trkpt><trkpt lat="45.4046571" lon="10.6196258"><ele>92.80000000000001</ele><time>2026-03-29T10:04:57.99Z</time></trkpt><trkpt lat="45.4047515" lon="10.6195438"><ele>92.6</ele><time>2026-03-29T10:04:58.99Z</time></trkpt><trkpt lat="45.4048446" lon="10.6194717"><ele>92.4</ele><time>2026-03-29T10:04:59.99Z</time></trkpt><trkpt lat="45.404933" lon="10.619402"><ele>92.19999999999999</ele><time>2026-03-29T10:05:00.99Z</time></trkpt><trkpt lat="45.4050239" lon="10.619341"><ele>92.0</ele><time>2026-03-29T10:05:01.99Z</time></trkpt><trkpt lat="45.4051039" lon="10.6192862"><ele>91.83333333333334</ele><time>2026-03-29T10:05:02.991Z</time></trkpt><trkpt lat="45.405185" lon="10.6192331"><ele>91.66666666666667</ele><time>2026-03-29T10:05:03.99Z</time></trkpt><trkpt lat="45.4052674" lon="10.6191851"><ele>91.5</ele><time>2026-03-29T10:05:04.99Z</time></trkpt><trkpt lat="45.4053507" lon="10.6191515"><ele>91.33333333333333</ele><time>2026-03-29T10:05:05.99Z</time></trkpt><trkpt lat="45.4054396" lon="10.6191368"><ele>91.16666666666666</ele><time>2026-03-29T10:05:06.99Z</time></trkpt><trkpt lat="45.4055347" lon="10.61914"><ele>91.0</ele><time>2026-03-29T10:05:07.99Z</time></trkpt><trkpt lat="45.4056363" lon="10.6191692"><ele>91.0</ele><time>2026-03-29T10:05:08.99Z</time></trkpt><trkpt lat="45.4057409" lon="10.6192143"><ele>91.0</ele><time>2026-03-29T10:05:09.99Z</time></trkpt><trkpt lat="45.4058446" lon="10.6192674"><ele>91.0</ele><time>2026-03-29T10:05:10.99Z</time></trkpt><trkpt lat="45.405944" lon="10.6193254"><ele>91.0</ele><time>2026-03-29T10:05:11.99Z</time></trkpt><trkpt lat="45.4060425" lon="10.619377"><ele>91.0</ele><time>2026-03-29T10:05:12.99Z</time></trkpt><trkpt lat="45.4061391" lon="10.6194303"><ele>91.0</ele><time>2026-03-29T10:05:13.991Z</time></trkpt><trkpt lat="45.4062343" lon="10.619462"><ele>91.0</ele><time>2026-03-29T10:05:14.99Z</time></trkpt><trkpt lat="45.4063366" lon="10.6194747"><ele>91.0</ele><time>2026-03-29T10:05:15.99Z</time></trkpt><trkpt lat="45.4064332" lon="10.6194707"><ele>91.0</ele><time>2026-03-29T10:05:16.99Z</time></trkpt><trkpt lat="45.406518" lon="10.6194386"><ele>91.0</ele><time>2026-03-29T10:05:17.99Z</time></trkpt><trkpt lat="45.4065907" lon="10.6193862"><ele>91.0</ele><time>2026-03-29T10:05:18.99Z</time></trkpt><trkpt lat="45.4066489" lon="10.619305"><ele>91.0</ele><time>2026-03-29T10:05:19.99Z</time></trkpt><trkpt lat="45.406689" lon="10.6192042"><ele>91.0</ele><time>2026-03-29T10:05:20.99Z</time></trkpt><trkpt lat="45.4067118" lon="10.6190875"><ele>91.0</ele><time>2026-03-29T10:05:21.99Z</time></trkpt><trkpt lat="45.4067116" lon="10.6189689"><ele>91.0</ele><time>2026-03-29T10:05:22.99Z</time></trkpt><trkpt lat="45.4066843" lon="10.6188535"><ele>91.0</ele><time>2026-03-29T10:05:23.99Z</time></trkpt><trkpt lat="45.4066306" lon="10.6187315"><ele>91.0</ele><time>2026-03-29T10:05:24.99Z</time></trkpt><trkpt lat="45.4065496" lon="10.6186214"><ele>91.0</ele><time>2026-03-29T10:05:25.99Z</time></trkpt><trkpt lat="45.4064448" lon="10.6185139"><ele>91.0</ele><time>2026-03-29T10:05:26.99Z</time></trkpt><trkpt lat="45.4063313" lon="10.618395"><ele>91.0</ele><time>2026-03-29T10:05:27.99Z</time></trkpt><trkpt lat="45.406234" lon="10.6182689"><ele>91.0</ele><time>2026-03-29T10:05:28.99Z</time></trkpt><trkpt lat="45.4061267" lon="10.618122"><ele>91.0</ele><time>2026-03-29T10:05:29.99Z</time></trkpt><trkpt lat="45.4060228" lon="10.6179877"><ele>91.0</ele><time>2026-03-29T10:05:30.99Z</time></trkpt><trkpt lat="45.4059084" lon="10.6178755"><ele>91.0</ele><time>2026-03-29T10:05:31.99Z</time></trkpt><trkpt lat="45.4058021" lon="10.617781"><ele>90.8</ele><time>2026-03-29T10:05:32.99Z</time></trkpt><trkpt lat="45.4057038" lon="10.6176969"><ele>90.6</ele><time>2026-03-29T10:05:33.99Z</time></trkpt><trkpt lat="45.405616" lon="10.6176117"><ele>90.4</ele><time>2026-03-29T10:05:34.99Z</time></trkpt><trkpt lat="45.4055509" lon="10.6175115"><ele>90.2</ele><time>2026-03-29T10:05:35.99Z</time></trkpt><trkpt lat="45.4055064" lon="10.6173997"><ele>90.0</ele><time>2026-03-29T10:05:36.99Z</time></trkpt><trkpt lat="45.4054834" lon="10.617278"><ele>90.0</ele><time>2026-03-29T10:05:37.99Z</time></trkpt><trkpt lat="45.405481" lon="10.6171468"><ele>90.0</ele><time>2026-03-29T10:05:38.99Z</time></trkpt><trkpt lat="45.4054774" lon="10.6169996"><ele>90.0</ele><time>2026-03-29T10:05:39.99Z</time></trkpt><trkpt lat="45.40546" lon="10.6168546"><ele>90.0</ele><time>2026-03-29T10:05:40.99Z</time></trkpt><trkpt lat="45.4054398" lon="10.6167046"><ele>90.0</ele><time>2026-03-29T10:05:41.99Z</time></trkpt><trkpt lat="45.4054257" lon="10.6165676"><ele>90.4</ele><time>2026-03-29T10:05:42.99Z</time></trkpt><trkpt lat="45.4054162" lon="10.6164406"><ele>90.8</ele><time>2026-03-29T10:05:43.99Z</time></trkpt><trkpt lat="45.405416" lon="10.6162986"><ele>91.19999999999999</ele><time>2026-03-29T10:05:44.99Z</time></trkpt><trkpt lat="45.4054149" lon="10.6161487"><ele>91.6</ele><time>2026-03-29T10:05:45.99Z</time></trkpt><trkpt lat="45.4054131" lon="10.6159852"><ele>92.0</ele><time>2026-03-29T10:05:46.99Z</time></trkpt><trkpt lat="45.4054136" lon="10.6158083"><ele>92.25</ele><time>2026-03-29T10:05:47.99Z</time></trkpt><trkpt lat="45.4054146" lon="10.6156237"><ele>92.5</ele><time>2026-03-29T10:05:48.99Z</time></trkpt><trkpt lat="45.4054198" lon="10.6154303"><ele>92.75</ele><time>2026-03-29T10:05:49.99Z</time></trkpt><trkpt lat="45.4054259" lon="10.6152404"><ele>93.0</ele><time>2026-03-29T10:05:50.99Z</time></trkpt><trkpt lat="45.4054365" lon="10.6150524"><ele>93.0</ele><time>2026-03-29T10:05:51.991Z</time></trkpt><trkpt lat="45.4054595" lon="10.6148673"><ele>93.0</ele><time>2026-03-29T10:05:52.99Z</time></trkpt><trkpt lat="45.4054876" lon="10.6146772"><ele>93.0</ele><time>2026-03-29T10:05:53.99Z</time></trkpt><trkpt lat="45.4055139" lon="10.6144913"><ele>93.0</ele><time>2026-03-29T10:05:54.99Z</time></trkpt><trkpt lat="45.4055318" lon="10.6143002"><ele>94.75</ele><time>2026-03-29T10:05:55.99Z</time></trkpt><trkpt lat="45.4055423" lon="10.6141068"><ele>96.5</ele><time>2026-03-29T10:05:56.99Z</time></trkpt><trkpt lat="45.4055449" lon="10.6139157"><ele>98.25</ele><time>2026-03-29T10:05:57.99Z</time></trkpt><trkpt lat="45.4055406" lon="10.6137304"><ele>100.0</ele><time>2026-03-29T10:05:58.99Z</time></trkpt><trkpt lat="45.4055307" lon="10.6135517"><ele>100.0</ele><time>2026-03-29T10:05:59.99Z</time></trkpt><trkpt lat="45.4055215" lon="10.6133865"><ele>100.0</ele><time>2026-03-29T10:06:00.99Z</time></trkpt><trkpt lat="45.4055111" lon="10.6132276"><ele>100.0</ele><time>2026-03-29T10:06:01.99Z</time></trkpt><trkpt lat="45.4055077" lon="10.6130658"><ele>100.0</ele><time>2026-03-29T10:06:02.99Z</time></trkpt><trkpt lat="45.4055202" lon="10.6129068"><ele>100.0</ele><time>2026-03-29T10:06:03.99Z</time></trkpt><trkpt lat="45.4055373" lon="10.6127582"><ele>100.0</ele><time>2026-03-29T10:06:04.99Z</time></trkpt><trkpt lat="45.4055526" lon="10.6126269"><ele>100.0</ele><time>2026-03-29T10:06:05.99Z</time></trkpt><trkpt lat="45.4055483" lon="10.6125073"><ele>100.0</ele><time>2026-03-29T10:06:06.99Z</time></trkpt><trkpt lat="45.4055214" lon="10.6123937"><ele>100.0</ele><time>2026-03-29T10:06:07.99Z</time></trkpt><trkpt lat="45.405479" lon="10.6122863"><ele>99.6</ele><time>2026-03-29T10:06:08.99Z</time></trkpt><trkpt lat="45.4054151" lon="10.6121826"><ele>99.2</ele><time>2026-03-29T10:06:09.99Z</time></trkpt><trkpt lat="45.4053367" lon="10.6120963"><ele>98.80000000000001</ele><time>2026-03-29T10:06:10.99Z</time></trkpt><trkpt lat="45.4052462" lon="10.6120213"><ele>98.4</ele><time>2026-03-29T10:06:11.99Z</time></trkpt><trkpt lat="45.4051572" lon="10.6119444"><ele>98.0</ele><time>2026-03-29T10:06:12.99Z</time></trkpt><trkpt lat="45.4050773" lon="10.6118762"><ele>97.99999999999999</ele><time>2026-03-29T10:06:13.991Z</time></trkpt><trkpt lat="45.4050088" lon="10.6118092"><ele>98.0</ele><time>2026-03-29T10:06:14.99Z</time></trkpt><trkpt lat="45.4049585" lon="10.6117321"><ele>98.0</ele><time>2026-03-29T10:06:15.99Z</time></trkpt><trkpt lat="45.4049299" lon="10.6116347"><ele>98.0</ele><time>2026-03-29T10:06:16.99Z</time></trkpt><trkpt lat="45.4049135" lon="10.6115098"><ele>97.99999999999999</ele><time>2026-03-29T10:06:17.99Z</time></trkpt><trkpt lat="45.4048948" lon="10.6113593"><ele>98.0</ele><time>2026-03-29T10:06:18.99Z</time></trkpt><trkpt lat="45.4048786" lon="10.6112101"><ele>98.25</ele><time>2026-03-29T10:06:19.99Z</time></trkpt><trkpt lat="45.4048682" lon="10.611055"><ele>98.5</ele><time>2026-03-29T10:06:20.99Z</time></trkpt><trkpt lat="45.4048581" lon="10.6108935"><ele>98.75</ele><time>2026-03-29T10:06:21.99Z</time></trkpt><trkpt lat="45.4048502" lon="10.6107197"><ele>99.0</ele><time>2026-03-29T10:06:22.99Z</time></trkpt><trkpt lat="45.4048542" lon="10.6105494"><ele>99.0</ele><time>2026-03-29T10:06:23.99Z</time></trkpt><trkpt lat="45.4048564" lon="10.6103758"><ele>99.0</ele><time>2026-03-29T10:06:24.99Z</time></trkpt><trkpt lat="45.4048644" lon="10.610205"><ele>99.0</ele><time>2026-03-29T10:06:25.99Z</time></trkpt><trkpt lat="45.4048749" lon="10.6100305"><ele>99.0</ele><time>2026-03-29T10:06:26.99Z</time></trkpt><trkpt lat="45.4048905" lon="10.6098541"><ele>99.0</ele><time>2026-03-29T10:06:27.991Z</time></trkpt><trkpt lat="45.4049085" lon="10.6096799"><ele>99.0</ele><time>2026-03-29T10:06:28.99Z</time></trkpt><trkpt lat="45.4049256" lon="10.609507"><ele>99.0</ele><time>2026-03-29T10:06:29.99Z</time></trkpt><trkpt lat="45.4049406" lon="10.609334"><ele>99.0</ele><time>2026-03-29T10:06:30.99Z</time></trkpt><trkpt lat="45.4049569" lon="10.609154"><ele>99.5</ele><time>2026-03-29T10:06:31.99Z</time></trkpt><trkpt lat="45.404974" lon="10.6089707"><ele>100.0</ele><time>2026-03-29T10:06:32.99Z</time></trkpt><trkpt lat="45.4049921" lon="10.6087957"><ele>100.5</ele><time>2026-03-29T10:06:33.99Z</time></trkpt><trkpt lat="45.4050046" lon="10.6086209"><ele>101.0</ele><time>2026-03-29T10:06:34.99Z</time></trkpt><trkpt lat="45.4050117" lon="10.6084408"><ele>101.0</ele><time>2026-03-29T10:06:35.99Z</time></trkpt><trkpt lat="45.4050171" lon="10.6082562"><ele>101.0</ele><time>2026-03-29T10:06:36.99Z</time></trkpt><trkpt lat="45.4050221" lon="10.6080718"><ele>101.0</ele><time>2026-03-29T10:06:37.99Z</time></trkpt><trkpt lat="45.4050277" lon="10.6078838"><ele>101.0</ele><time>2026-03-29T10:06:38.99Z</time></trkpt><trkpt lat="45.4050333" lon="10.607699"><ele>100.5</ele><time>2026-03-29T10:06:39.99Z</time></trkpt><trkpt lat="45.4050368" lon="10.6075108"><ele>100.0</ele><time>2026-03-29T10:06:40.99Z</time></trkpt><trkpt lat="45.4050432" lon="10.6073246"><ele>99.5</ele><time>2026-03-29T10:06:41.99Z</time></trkpt><trkpt lat="45.4050455" lon="10.6071379"><ele>99.0</ele><time>2026-03-29T10:06:42.99Z</time></trkpt><trkpt lat="45.4050565" lon="10.6069531"><ele>98.5</ele><time>2026-03-29T10:06:43.99Z</time></trkpt><trkpt lat="45.4050795" lon="10.6067653"><ele>98.0</ele><time>2026-03-29T10:06:44.99Z</time></trkpt><trkpt lat="45.405103" lon="10.6065835"><ele>97.5</ele><time>2026-03-29T10:06:45.99Z</time></trkpt><trkpt lat="45.4051218" lon="10.6064129"><ele>97.0</ele><time>2026-03-29T10:06:46.99Z</time></trkpt><trkpt lat="45.4051444" lon="10.6062531"><ele>97.25</ele><time>2026-03-29T10:06:47.99Z</time></trkpt><trkpt lat="45.4051746" lon="10.6060927"><ele>97.5</ele><time>2026-03-29T10:06:48.991Z</time></trkpt><trkpt lat="45.4052" lon="10.6059249"><ele>97.75</ele><time>2026-03-29T10:06:49.99Z</time></trkpt><trkpt lat="45.4052196" lon="10.6057544"><ele>98.0</ele><time>2026-03-29T10:06:50.99Z</time></trkpt><trkpt lat="45.4052342" lon="10.6055833"><ele>98.0</ele><time>2026-03-29T10:06:51.99Z</time></trkpt><trkpt lat="45.4052409" lon="10.6054137"><ele>98.0</ele><time>2026-03-29T10:06:52.99Z</time></trkpt><trkpt lat="45.4052423" lon="10.6052572"><ele>98.0</ele><time>2026-03-29T10:06:53.99Z</time></trkpt><trkpt lat="45.4052412" lon="10.6051231"><ele>98.0</ele><time>2026-03-29T10:06:54.99Z</time></trkpt><trkpt lat="45.405247" lon="10.6049897"><ele>98.0</ele><time>2026-03-29T10:06:55.99Z</time></trkpt><trkpt lat="45.4052141" lon="10.6048581"><ele>98.0</ele><time>2026-03-29T10:06:56.99Z</time></trkpt><trkpt lat="45.4051273" lon="10.6047541"><ele>98.0</ele><time>2026-03-29T10:06:57.991Z</time></trkpt><trkpt lat="45.4050652" lon="10.604631"><ele>98.0</ele><time>2026-03-29T10:06:58.99Z</time></trkpt><trkpt lat="45.4049964" lon="10.6045076"><ele>98.0</ele><time>2026-03-29T10:06:59.99Z</time></trkpt><trkpt lat="45.404926" lon="10.6043871"><ele>98.0</ele><time>2026-03-29T10:07:00.99Z</time></trkpt><trkpt lat="45.4048627" lon="10.6042878"><ele>97.66666666666666</ele><time>2026-03-29T10:07:01.99Z</time></trkpt><trkpt lat="45.4047993" lon="10.6042204"><ele>97.33333333333333</ele><time>2026-03-29T10:07:02.99Z</time></trkpt><trkpt lat="45.4047401" lon="10.6041843"><ele>97.0</ele><time>2026-03-29T10:07:03.99Z</time></trkpt><trkpt lat="45.4046182" lon="10.6041908"><ele>96.66666666666666</ele><time>2026-03-29T10:07:05.99Z</time></trkpt><trkpt lat="45.4045421" lon="10.6042065"><ele>96.33333333333333</ele><time>2026-03-29T10:07:06.99Z</time></trkpt><trkpt lat="45.404472" lon="10.604206"><ele>96.0</ele><time>2026-03-29T10:07:07.99Z</time></trkpt><trkpt lat="45.4044047" lon="10.6041697"><ele>95.5</ele><time>2026-03-29T10:07:08.99Z</time></trkpt><trkpt lat="45.404329" lon="10.6041159"><ele>95.0</ele><time>2026-03-29T10:07:09.99Z</time></trkpt><trkpt lat="45.4042476" lon="10.6040588"><ele>94.5</ele><time>2026-03-29T10:07:10.99Z</time></trkpt><trkpt lat="45.4041851" lon="10.6040166"><ele>94.0</ele><time>2026-03-29T10:07:11.99Z</time></trkpt><trkpt lat="45.4041238" lon="10.6039717"><ele>93.5</ele><time>2026-03-29T10:07:12.99Z</time></trkpt><trkpt lat="45.4040699" lon="10.6039241"><ele>93.0</ele><time>2026-03-29T10:07:13.99Z</time></trkpt><trkpt lat="45.4039687" lon="10.6038497"><ele>93.0</ele><time>2026-03-29T10:07:15.99Z</time></trkpt><trkpt lat="45.4039038" lon="10.6037639"><ele>93.0</ele><time>2026-03-29T10:07:17.99Z</time></trkpt><trkpt lat="45.4038941" lon="10.6036742"><ele>93.0</ele><time>2026-03-29T10:07:43.991Z</time></trkpt><trkpt lat="45.4039243" lon="10.6035489"><ele>93.0</ele><time>2026-03-29T10:07:45.99Z</time></trkpt><trkpt lat="45.4039485" lon="10.603465"><ele>93.0</ele><time>2026-03-29T10:07:46.99Z</time></trkpt><trkpt lat="45.4039746" lon="10.6033744"><ele>93.0</ele><time>2026-03-29T10:07:47.99Z</time></trkpt><trkpt lat="45.4040072" lon="10.6032278"><ele>93.0</ele><time>2026-03-29T10:07:49.99Z</time></trkpt><trkpt lat="45.4039937" lon="10.6031089"><ele>93.0</ele><time>2026-03-29T10:07:51.99Z</time></trkpt><trkpt lat="45.4039292" lon="10.6030484"><ele>93.0</ele><time>2026-03-29T10:07:53.99Z</time></trkpt><trkpt lat="45.403817" lon="10.6030682"><ele>93.0</ele><time>2026-03-29T10:07:55.99Z</time></trkpt><trkpt lat="45.403751" lon="10.6030768"><ele>93.0</ele><time>2026-03-29T10:07:56.99Z</time></trkpt><trkpt lat="45.4036845" lon="10.6030624"><ele>93.0</ele><time>2026-03-29T10:07:57.99Z</time></trkpt><trkpt lat="45.4036151" lon="10.6030381"><ele>93.33333333333333</ele><time>2026-03-29T10:07:58.99Z</time></trkpt><trkpt lat="45.4035437" lon="10.6030155"><ele>93.66666666666667</ele><time>2026-03-29T10:07:59.99Z</time></trkpt><trkpt lat="45.4034594" lon="10.6029916"><ele>94.0</ele><time>2026-03-29T10:08:00.99Z</time></trkpt><trkpt lat="45.4033769" lon="10.6029721"><ele>94.33333333333334</ele><time>2026-03-29T10:08:01.99Z</time></trkpt><trkpt lat="45.403293" lon="10.6029512"><ele>94.66666666666667</ele><time>2026-03-29T10:08:02.99Z</time></trkpt><trkpt lat="45.4032227" lon="10.6029335"><ele>95.0</ele><time>2026-03-29T10:08:03.99Z</time></trkpt><trkpt lat="45.4031545" lon="10.6029074"><ele>95.0</ele><time>2026-03-29T10:08:04.99Z</time></trkpt><trkpt lat="45.4030936" lon="10.6028811"><ele>95.0</ele><time>2026-03-29T10:08:05.99Z</time></trkpt><trkpt lat="45.4030079" lon="10.6028271"><ele>95.0</ele><time>2026-03-29T10:08:07.99Z</time></trkpt><trkpt lat="45.4029774" lon="10.6026948"><ele>95.0</ele><time>2026-03-29T10:08:10.99Z</time></trkpt><trkpt lat="45.4029965" lon="10.6024925"><ele>95.0</ele><time>2026-03-29T10:08:12.991Z</time></trkpt><trkpt lat="45.4029994" lon="10.602344"><ele>95.25</ele><time>2026-03-29T10:08:13.99Z</time></trkpt><trkpt lat="45.4030091" lon="10.6021823"><ele>95.5</ele><time>2026-03-29T10:08:14.99Z</time></trkpt><trkpt lat="45.4030152" lon="10.6020189"><ele>95.75</ele><time>2026-03-29T10:08:15.99Z</time></trkpt><trkpt lat="45.4030152" lon="10.6018523"><ele>96.0</ele><time>2026-03-29T10:08:16.99Z</time></trkpt><trkpt lat="45.4030193" lon="10.6016812"><ele>96.0</ele><time>2026-03-29T10:08:17.99Z</time></trkpt><trkpt lat="45.4030211" lon="10.601504"><ele>96.0</ele><time>2026-03-29T10:08:18.99Z</time></trkpt><trkpt lat="45.4030287" lon="10.601338"><ele>96.0</ele><time>2026-03-29T10:08:19.99Z</time></trkpt><trkpt lat="45.4030473" lon="10.6011532"><ele>96.0</ele><time>2026-03-29T10:08:20.99Z</time></trkpt><trkpt lat="45.4030564" lon="10.60097"><ele>96.0</ele><time>2026-03-29T10:08:21.99Z</time></trkpt><trkpt lat="45.4030651" lon="10.6007969"><ele>96.0</ele><time>2026-03-29T10:08:22.99Z</time></trkpt><trkpt lat="45.4030729" lon="10.6006497"><ele>96.0</ele><time>2026-03-29T10:08:23.991Z</time></trkpt><trkpt lat="45.4030766" lon="10.6005173"><ele>96.0</ele><time>2026-03-29T10:08:24.99Z</time></trkpt><trkpt lat="45.4030764" lon="10.6003838"><ele>96.0</ele><time>2026-03-29T10:08:25.99Z</time></trkpt><trkpt lat="45.4030681" lon="10.600244"><ele>96.19999999999999</ele><time>2026-03-29T10:08:26.99Z</time></trkpt><trkpt lat="45.403053" lon="10.6000866"><ele>96.39999999999999</ele><time>2026-03-29T10:08:27.99Z</time></trkpt><trkpt lat="45.4030316" lon="10.5999154"><ele>96.6</ele><time>2026-03-29T10:08:28.99Z</time></trkpt><trkpt lat="45.4030126" lon="10.5997634"><ele>96.8</ele><time>2026-03-29T10:08:29.99Z</time></trkpt><trkpt lat="45.4030147" lon="10.5996327"><ele>97.0</ele><time>2026-03-29T10:08:30.99Z</time></trkpt><trkpt lat="45.4030336" lon="10.5994863"><ele>97.0</ele><time>2026-03-29T10:08:31.99Z</time></trkpt><trkpt lat="45.4030402" lon="10.599315"><ele>97.0</ele><time>2026-03-29T10:08:32.991Z</time></trkpt><trkpt lat="45.403041" lon="10.5991342"><ele>97.0</ele><time>2026-03-29T10:08:33.99Z</time></trkpt><trkpt lat="45.4030405" lon="10.598956"><ele>97.0</ele><time>2026-03-29T10:08:34.99Z</time></trkpt><trkpt lat="45.400139" lon="10.5972714"><ele>100.16666666666667</ele><time>2026-03-29T10:09:45.7Z</time></trkpt><trkpt lat="45.4001556" lon="10.5971478"><ele>103.33333333333334</ele><time>2026-03-29T10:09:46.979Z</time></trkpt><trkpt lat="45.4001403" lon="10.5969794"><ele>106.5</ele><time>2026-03-29T10:09:48.98Z</time></trkpt><trkpt lat="45.4001324" lon="10.5968808"><ele>109.66666666666666</ele><time>2026-03-29T10:09:49.979Z</time></trkpt><trkpt lat="45.400115" lon="10.5967688"><ele>112.83333333333333</ele><time>2026-03-29T10:09:50.98Z</time></trkpt><trkpt lat="45.4000997" lon="10.5966482"><ele>116.0</ele><time>2026-03-29T10:09:51.98Z</time></trkpt><trkpt lat="45.4000908" lon="10.5965251"><ele>116.19999999999999</ele><time>2026-03-29T10:09:52.98Z</time></trkpt><trkpt lat="45.4000806" lon="10.5963787"><ele>116.39999999999999</ele><time>2026-03-29T10:09:53.98Z</time></trkpt><trkpt lat="45.4000801" lon="10.5962323"><ele>116.6</ele><time>2026-03-29T10:09:54.979Z</time></trkpt><trkpt lat="45.4000857" lon="10.5960829"><ele>116.8</ele><time>2026-03-29T10:09:55.979Z</time></trkpt><trkpt lat="45.400087" lon="10.5959195"><ele>117.0</ele><time>2026-03-29T10:09:56.98Z</time></trkpt><trkpt lat="45.4000902" lon="10.5957555"><ele>117.0</ele><time>2026-03-29T10:09:57.98Z</time></trkpt><trkpt lat="45.4000901" lon="10.5955866"><ele>117.0</ele><time>2026-03-29T10:09:58.979Z</time></trkpt><trkpt lat="45.4000562" lon="10.5953943"><ele>117.0</ele><time>2026-03-29T10:09:59.98Z</time></trkpt><trkpt lat="45.4000167" lon="10.5952035"><ele>117.0</ele><time>2026-03-29T10:10:00.98Z</time></trkpt><trkpt lat="45.3999713" lon="10.595015"><ele>116.66666666666666</ele><time>2026-03-29T10:10:01.98Z</time></trkpt><trkpt lat="45.3999134" lon="10.5948326"><ele>116.33333333333333</ele><time>2026-03-29T10:10:02.979Z</time></trkpt><trkpt lat="45.3997661" lon="10.594469"><ele>116.0</ele><time>2026-03-29T10:10:04.981Z</time></trkpt><trkpt lat="45.3996869" lon="10.5942826"><ele>115.75</ele><time>2026-03-29T10:10:05.979Z</time></trkpt><trkpt lat="45.3996151" lon="10.5940989"><ele>115.5</ele><time>2026-03-29T10:10:06.98Z</time></trkpt><trkpt lat="45.3995475" lon="10.5939301"><ele>115.25</ele><time>2026-03-29T10:10:07.98Z</time></trkpt><trkpt lat="45.3994908" lon="10.59376"><ele>115.0</ele><time>2026-03-29T10:10:08.979Z</time></trkpt><trkpt lat="45.3994463" lon="10.5935839"><ele>115.0</ele><time>2026-03-29T10:10:09.981Z</time></trkpt><trkpt lat="45.3994158" lon="10.5933985"><ele>115.0</ele><time>2026-03-29T10:10:10.979Z</time></trkpt><trkpt lat="45.3993997" lon="10.593211"><ele>115.0</ele><time>2026-03-29T10:10:11.979Z</time></trkpt><trkpt lat="45.3993995" lon="10.5930197"><ele>115.0</ele><time>2026-03-29T10:10:12.98Z</time></trkpt><trkpt lat="45.3994123" lon="10.592839"><ele>115.25</ele><time>2026-03-29T10:10:13.979Z</time></trkpt><trkpt lat="45.3994261" lon="10.5926646"><ele>115.5</ele><time>2026-03-29T10:10:14.979Z</time></trkpt><trkpt lat="45.3994302" lon="10.5924863"><ele>115.75</ele><time>2026-03-29T10:10:15.98Z</time></trkpt><trkpt lat="45.3994271" lon="10.5922953"><ele>116.0</ele><time>2026-03-29T10:10:16.98Z</time></trkpt><trkpt lat="45.3994141" lon="10.5920916"><ele>115.5</ele><time>2026-03-29T10:10:17.98Z</time></trkpt><trkpt lat="45.3993931" lon="10.591889"><ele>115.0</ele><time>2026-03-29T10:10:18.981Z</time></trkpt><trkpt lat="45.3993708" lon="10.5916843"><ele>114.5</ele><time>2026-03-29T10:10:19.979Z</time></trkpt><trkpt lat="45.3993474" lon="10.5914775"><ele>114.0</ele><time>2026-03-29T10:10:20.979Z</time></trkpt><trkpt lat="45.3993219" lon="10.5912708"><ele>113.0</ele><time>2026-03-29T10:10:21.98Z</time></trkpt><trkpt lat="45.3992941" lon="10.5910634"><ele>112.0</ele><time>2026-03-29T10:10:22.979Z</time></trkpt><trkpt lat="45.3992663" lon="10.590854"><ele>111.0</ele><time>2026-03-29T10:10:23.979Z</time></trkpt><trkpt lat="45.3992384" lon="10.5906424"><ele>110.0</ele><time>2026-03-29T10:10:24.979Z</time></trkpt><trkpt lat="45.39921" lon="10.590432"><ele>110.0</ele><time>2026-03-29T10:10:25.98Z</time></trkpt><trkpt lat="45.399183" lon="10.5902229"><ele>110.0</ele><time>2026-03-29T10:10:26.98Z</time></trkpt><trkpt lat="45.399156" lon="10.5900112"><ele>110.0</ele><time>2026-03-29T10:10:27.98Z</time></trkpt><trkpt lat="45.3991251" lon="10.5897968"><ele>110.0</ele><time>2026-03-29T10:10:28.98Z</time></trkpt><trkpt lat="45.3990894" lon="10.5895817"><ele>110.0</ele><time>2026-03-29T10:10:29.98Z</time></trkpt><trkpt lat="45.3990512" lon="10.5893639"><ele>110.0</ele><time>2026-03-29T10:10:30.98Z</time></trkpt><trkpt lat="45.3990081" lon="10.5891442"><ele>109.33333333333333</ele><time>2026-03-29T10:10:31.98Z</time></trkpt><trkpt lat="45.3989565" lon="10.5889244"><ele>108.66666666666666</ele><time>2026-03-29T10:10:32.98Z</time></trkpt><trkpt lat="45.3988999" lon="10.5886961"><ele>108.0</ele><time>2026-03-29T10:10:33.979Z</time></trkpt><trkpt lat="45.3988463" lon="10.5884628"><ele>108.0</ele><time>2026-03-29T10:10:34.98Z</time></trkpt><trkpt lat="45.3987932" lon="10.5882201"><ele>108.0</ele><time>2026-03-29T10:10:35.979Z</time></trkpt><trkpt lat="45.3987389" lon="10.5879755"><ele>108.0</ele><time>2026-03-29T10:10:36.98Z</time></trkpt><trkpt lat="45.3986823" lon="10.5877256"><ele>107.33333333333334</ele><time>2026-03-29T10:10:37.98Z</time></trkpt><trkpt lat="45.398623" lon="10.5874759"><ele>106.66666666666667</ele><time>2026-03-29T10:10:38.98Z</time></trkpt><trkpt lat="45.3985645" lon="10.587226"><ele>106.0</ele><time>2026-03-29T10:10:39.979Z</time></trkpt><trkpt lat="45.3985079" lon="10.5869742"><ele>106.0</ele><time>2026-03-29T10:10:40.98Z</time></trkpt><trkpt lat="45.3984495" lon="10.586734"><ele>106.0</ele><time>2026-03-29T10:10:41.98Z</time></trkpt><trkpt lat="45.3983918" lon="10.5865072"><ele>106.0</ele><time>2026-03-29T10:10:42.979Z</time></trkpt><trkpt lat="45.3983307" lon="10.586281"><ele>105.75</ele><time>2026-03-29T10:10:43.98Z</time></trkpt><trkpt lat="45.3982709" lon="10.5860768"><ele>105.5</ele><time>2026-03-29T10:10:44.979Z</time></trkpt><trkpt lat="45.3982147" lon="10.5858902"><ele>105.25</ele><time>2026-03-29T10:10:45.979Z</time></trkpt><trkpt lat="45.3981621" lon="10.5857134"><ele>105.0</ele><time>2026-03-29T10:10:46.98Z</time></trkpt><trkpt lat="45.3981141" lon="10.5855502"><ele>105.0</ele><time>2026-03-29T10:10:47.98Z</time></trkpt><trkpt lat="45.3980745" lon="10.5853974"><ele>105.0</ele><time>2026-03-29T10:10:48.98Z</time></trkpt><trkpt lat="45.3980358" lon="10.5852558"><ele>105.0</ele><time>2026-03-29T10:10:49.979Z</time></trkpt><trkpt lat="45.3979975" lon="10.5851404"><ele>105.0</ele><time>2026-03-29T10:10:50.979Z</time></trkpt><trkpt lat="45.3979576" lon="10.5850121"><ele>105.0</ele><time>2026-03-29T10:10:52.979Z</time></trkpt><trkpt lat="45.3979311" lon="10.5848989"><ele>104.6</ele><time>2026-03-29T10:11:05.98Z</time></trkpt><trkpt lat="45.3979591" lon="10.5847864"><ele>104.2</ele><time>2026-03-29T10:11:08.98Z</time></trkpt><trkpt lat="45.3980825" lon="10.5847947"><ele>103.80000000000001</ele><time>2026-03-29T10:11:10.979Z</time></trkpt><trkpt lat="45.3981591" lon="10.5847956"><ele>103.4</ele><time>2026-03-29T10:11:11.979Z</time></trkpt><trkpt lat="45.3982405" lon="10.5847995"><ele>103.0</ele><time>2026-03-29T10:11:12.979Z</time></trkpt><trkpt lat="45.3983291" lon="10.5847998"><ele>103.0</ele><time>2026-03-29T10:11:13.979Z</time></trkpt><trkpt lat="45.3984226" lon="10.584798"><ele>103.0</ele><time>2026-03-29T10:11:14.98Z</time></trkpt><trkpt lat="45.3985246" lon="10.584796"><ele>103.0</ele><time>2026-03-29T10:11:15.979Z</time></trkpt><trkpt lat="45.3986354" lon="10.5847945"><ele>103.0</ele><time>2026-03-29T10:11:16.979Z</time></trkpt><trkpt lat="45.3987541" lon="10.5848081"><ele>103.0</ele><time>2026-03-29T10:11:17.979Z</time></trkpt><trkpt lat="45.3988808" lon="10.584831"><ele>102.25</ele><time>2026-03-29T10:11:18.979Z</time></trkpt><trkpt lat="45.3990139" lon="10.5848474"><ele>101.5</ele><time>2026-03-29T10:11:19.98Z</time></trkpt><trkpt lat="45.3991516" lon="10.58486"><ele>100.75</ele><time>2026-03-29T10:11:20.98Z</time></trkpt><trkpt lat="45.3992923" lon="10.5848726"><ele>100.0</ele><time>2026-03-29T10:11:21.98Z</time></trkpt><trkpt lat="45.399439" lon="10.5848841"><ele>100.0</ele><time>2026-03-29T10:11:22.98Z</time></trkpt><trkpt lat="45.3995898" lon="10.5848825"><ele>100.0</ele><time>2026-03-29T10:11:23.979Z</time></trkpt><trkpt lat="45.3997406" lon="10.5848843"><ele>100.0</ele><time>2026-03-29T10:11:24.98Z</time></trkpt><trkpt lat="45.3998868" lon="10.5848823"><ele>100.0</ele><time>2026-03-29T10:11:25.98Z</time></trkpt><trkpt lat="45.40002" lon="10.5848822"><ele>99.5</ele><time>2026-03-29T10:11:26.98Z</time></trkpt><trkpt lat="45.4001478" lon="10.5848758"><ele>99.0</ele><time>2026-03-29T10:11:27.979Z</time></trkpt><trkpt lat="45.4002693" lon="10.5848677"><ele>98.5</ele><time>2026-03-29T10:11:28.979Z</time></trkpt><trkpt lat="45.4003758" lon="10.5848543"><ele>98.0</ele><time>2026-03-29T10:11:29.98Z</time></trkpt><trkpt lat="45.4004711" lon="10.5848391"><ele>98.60000000000001</ele><time>2026-03-29T10:11:30.98Z</time></trkpt><trkpt lat="45.400564" lon="10.5848233"><ele>99.2</ele><time>2026-03-29T10:11:31.98Z</time></trkpt><trkpt lat="45.4006587" lon="10.5848097"><ele>99.8</ele><time>2026-03-29T10:11:32.979Z</time></trkpt><trkpt lat="45.4007584" lon="10.5847901"><ele>100.4</ele><time>2026-03-29T10:11:33.98Z</time></trkpt><trkpt lat="45.4008538" lon="10.5847777"><ele>101.0</ele><time>2026-03-29T10:11:34.979Z</time></trkpt><trkpt lat="45.4009477" lon="10.5847647"><ele>101.0</ele><time>2026-03-29T10:11:35.979Z</time></trkpt><trkpt lat="45.4010412" lon="10.5847592"><ele>101.0</ele><time>2026-03-29T10:11:36.979Z</time></trkpt><trkpt lat="45.401134" lon="10.584764"><ele>101.0</ele><time>2026-03-29T10:11:37.979Z</time></trkpt><trkpt lat="45.4012299" lon="10.5847696"><ele>101.0</ele><time>2026-03-29T10:11:38.98Z</time></trkpt><trkpt lat="45.4013261" lon="10.5847788"><ele>101.0</ele><time>2026-03-29T10:11:39.979Z</time></trkpt><trkpt lat="45.4014202" lon="10.5847858"><ele>100.49999999999999</ele><time>2026-03-29T10:11:40.979Z</time></trkpt><trkpt lat="45.4015103" lon="10.5848009"><ele>100.0</ele><time>2026-03-29T10:11:41.98Z</time></trkpt><trkpt lat="45.4015922" lon="10.5848149"><ele>99.5</ele><time>2026-03-29T10:11:42.98Z</time></trkpt><trkpt lat="45.4016625" lon="10.5848383"><ele>99.0</ele><time>2026-03-29T10:11:43.98Z</time></trkpt><trkpt lat="45.4017321" lon="10.5848652"><ele>98.49999999999999</ele><time>2026-03-29T10:11:44.98Z</time></trkpt><trkpt lat="45.4018055" lon="10.5848824"><ele>98.0</ele><time>2026-03-29T10:11:45.979Z</time></trkpt><trkpt lat="45.4018805" lon="10.5849003"><ele>97.99999999999999</ele><time>2026-03-29T10:11:46.98Z</time></trkpt><trkpt lat="45.401963" lon="10.5849188"><ele>98.0</ele><time>2026-03-29T10:11:47.979Z</time></trkpt><trkpt lat="45.4020492" lon="10.5849408"><ele>98.0</ele><time>2026-03-29T10:11:48.98Z</time></trkpt><trkpt lat="45.4021325" lon="10.584969"><ele>98.0</ele><time>2026-03-29T10:11:49.98Z</time></trkpt><trkpt lat="45.4022025" lon="10.5849893"><ele>97.99999999999999</ele><time>2026-03-29T10:11:50.98Z</time></trkpt><trkpt lat="45.4023027" lon="10.5849465"><ele>98.0</ele><time>2026-03-29T10:11:52.98Z</time></trkpt><trkpt lat="45.4023398" lon="10.5848653"><ele>97.80000000000001</ele><time>2026-03-29T10:11:53.979Z</time></trkpt><trkpt lat="45.4023724" lon="10.5847499"><ele>97.6</ele><time>2026-03-29T10:11:54.98Z</time></trkpt><trkpt lat="45.4024006" lon="10.584612"><ele>97.4</ele><time>2026-03-29T10:11:55.98Z</time></trkpt><trkpt lat="45.4024372" lon="10.5844628"><ele>97.19999999999999</ele><time>2026-03-29T10:11:56.979Z</time></trkpt><trkpt lat="45.4024817" lon="10.5843039"><ele>97.0</ele><time>2026-03-29T10:11:57.979Z</time></trkpt><trkpt lat="45.4025242" lon="10.5841374"><ele>97.0</ele><time>2026-03-29T10:11:58.98Z</time></trkpt><trkpt lat="45.4025742" lon="10.5839616"><ele>97.0</ele><time>2026-03-29T10:11:59.98Z</time></trkpt><trkpt lat="45.4026358" lon="10.5837856"><ele>97.0</ele><time>2026-03-29T10:12:00.98Z</time></trkpt><trkpt lat="45.4027028" lon="10.5836122"><ele>97.0</ele><time>2026-03-29T10:12:01.979Z</time></trkpt><trkpt lat="45.4027738" lon="10.5834339"><ele>97.25</ele><time>2026-03-29T10:12:02.98Z</time></trkpt><trkpt lat="45.4028429" lon="10.5832545"><ele>97.5</ele><time>2026-03-29T10:12:03.979Z</time></trkpt><trkpt lat="45.4029105" lon="10.5830805"><ele>97.75</ele><time>2026-03-29T10:12:04.98Z</time></trkpt><trkpt lat="45.4029796" lon="10.5829101"><ele>98.0</ele><time>2026-03-29T10:12:05.98Z</time></trkpt><trkpt lat="45.4030559" lon="10.5827455"><ele>97.0</ele><time>2026-03-29T10:12:06.98Z</time></trkpt><trkpt lat="45.403135" lon="10.5825724"><ele>96.0</ele><time>2026-03-29T10:12:07.98Z</time></trkpt><trkpt lat="45.40322" lon="10.5823937"><ele>95.0</ele><time>2026-03-29T10:12:08.98Z</time></trkpt><trkpt lat="45.4033073" lon="10.5822141"><ele>95.0</ele><time>2026-03-29T10:12:09.98Z</time></trkpt><trkpt lat="45.4033888" lon="10.5820241"><ele>95.0</ele><time>2026-03-29T10:12:10.979Z</time></trkpt><trkpt lat="45.4034611" lon="10.5818173"><ele>95.0</ele><time>2026-03-29T10:12:11.979Z</time></trkpt><trkpt lat="45.4035345" lon="10.5816116"><ele>95.0</ele><time>2026-03-29T10:12:12.98Z</time></trkpt><trkpt lat="45.4036067" lon="10.5814029"><ele>95.0</ele><time>2026-03-29T10:12:13.98Z</time></trkpt><trkpt lat="45.4036886" lon="10.5811949"><ele>95.0</ele><time>2026-03-29T10:12:14.98Z</time></trkpt><trkpt lat="45.403774" lon="10.5809837"><ele>94.66666666666667</ele><time>2026-03-29T10:12:15.98Z</time></trkpt><trkpt lat="45.4038581" lon="10.5807695"><ele>94.33333333333333</ele><time>2026-03-29T10:12:16.98Z</time></trkpt><trkpt lat="45.4039347" lon="10.5805432"><ele>94.0</ele><time>2026-03-29T10:12:17.979Z</time></trkpt><trkpt lat="45.404014" lon="10.5803126"><ele>94.66666666666666</ele><time>2026-03-29T10:12:18.98Z</time></trkpt><trkpt lat="45.4040978" lon="10.5800814"><ele>95.33333333333333</ele><time>2026-03-29T10:12:19.979Z</time></trkpt><trkpt lat="45.4041856" lon="10.5798452"><ele>96.0</ele><time>2026-03-29T10:12:20.979Z</time></trkpt><trkpt lat="45.4042749" lon="10.5796094"><ele>96.33333333333334</ele><time>2026-03-29T10:12:21.98Z</time></trkpt><trkpt lat="45.4043686" lon="10.5793806"><ele>96.66666666666667</ele><time>2026-03-29T10:12:22.979Z</time></trkpt><trkpt lat="45.4044676" lon="10.5791503"><ele>97.0</ele><time>2026-03-29T10:12:23.98Z</time></trkpt><trkpt lat="45.4045724" lon="10.5789181"><ele>96.0</ele><time>2026-03-29T10:12:24.98Z</time></trkpt><trkpt lat="45.4046756" lon="10.5786834"><ele>95.0</ele><time>2026-03-29T10:12:25.98Z</time></trkpt><trkpt lat="45.4047784" lon="10.5784464"><ele>94.0</ele><time>2026-03-29T10:12:26.979Z</time></trkpt><trkpt lat="45.4048786" lon="10.5782159"><ele>94.0</ele><time>2026-03-29T10:12:27.979Z</time></trkpt><trkpt lat="45.4049782" lon="10.5779862"><ele>94.0</ele><time>2026-03-29T10:12:28.98Z</time></trkpt><trkpt lat="45.4050735" lon="10.5777623"><ele>94.0</ele><time>2026-03-29T10:12:29.979Z</time></trkpt><trkpt lat="45.4051588" lon="10.577535"><ele>94.33333333333333</ele><time>2026-03-29T10:12:30.98Z</time></trkpt><trkpt lat="45.4052321" lon="10.5773128"><ele>94.66666666666667</ele><time>2026-03-29T10:12:31.98Z</time></trkpt><trkpt lat="45.4052943" lon="10.5771078"><ele>95.0</ele><time>2026-03-29T10:12:32.98Z</time></trkpt><trkpt lat="45.4053473" lon="10.5769315"><ele>95.16666666666667</ele><time>2026-03-29T10:12:33.979Z</time></trkpt><trkpt lat="45.4053903" lon="10.5767872"><ele>95.33333333333334</ele><time>2026-03-29T10:12:34.98Z</time></trkpt><trkpt lat="45.4054187" lon="10.5766751"><ele>95.5</ele><time>2026-03-29T10:12:35.98Z</time></trkpt><trkpt lat="45.405424" lon="10.5765827"><ele>95.66666666666667</ele><time>2026-03-29T10:12:36.98Z</time></trkpt><trkpt lat="45.4053978" lon="10.5764955"><ele>95.83333333333333</ele><time>2026-03-29T10:12:37.98Z</time></trkpt><trkpt lat="45.4053406" lon="10.5764391"><ele>96.0</ele><time>2026-03-29T10:12:38.98Z</time></trkpt><trkpt lat="45.4052475" lon="10.576386"><ele>96.0</ele><time>2026-03-29T10:12:39.98Z</time></trkpt><trkpt lat="45.4051324" lon="10.5763163"><ele>96.0</ele><time>2026-03-29T10:12:40.979Z</time></trkpt><trkpt lat="45.4050151" lon="10.5762388"><ele>96.0</ele><time>2026-03-29T10:12:41.98Z</time></trkpt><trkpt lat="45.404886" lon="10.5761572"><ele>96.0</ele><time>2026-03-29T10:12:42.98Z</time></trkpt><trkpt lat="45.4047509" lon="10.5760739"><ele>96.33333333333334</ele><time>2026-03-29T10:12:43.979Z</time></trkpt><trkpt lat="45.4046082" lon="10.5759879"><ele>96.66666666666667</ele><time>2026-03-29T10:12:44.98Z</time></trkpt><trkpt lat="45.404464" lon="10.5759038"><ele>97.0</ele><time>2026-03-29T10:12:45.98Z</time></trkpt><trkpt lat="45.4043138" lon="10.5758158"><ele>97.0</ele><time>2026-03-29T10:12:46.98Z</time></trkpt><trkpt lat="45.4041599" lon="10.5757262"><ele>97.0</ele><time>2026-03-29T10:12:47.979Z</time></trkpt><trkpt lat="45.4040029" lon="10.5756305"><ele>97.0</ele><time>2026-03-29T10:12:48.98Z</time></trkpt><trkpt lat="45.4038441" lon="10.5755289"><ele>97.33333333333334</ele><time>2026-03-29T10:12:49.98Z</time></trkpt><trkpt lat="45.4036859" lon="10.5754315"><ele>97.66666666666666</ele><time>2026-03-29T10:12:50.98Z</time></trkpt><trkpt lat="45.4035318" lon="10.5753372"><ele>98.0</ele><time>2026-03-29T10:12:51.979Z</time></trkpt><trkpt lat="45.4033903" lon="10.5752526"><ele>98.0</ele><time>2026-03-29T10:12:52.98Z</time></trkpt><trkpt lat="45.4032613" lon="10.575176"><ele>98.0</ele><time>2026-03-29T10:12:53.98Z</time></trkpt><trkpt lat="45.4031398" lon="10.5751005"><ele>98.0</ele><time>2026-03-29T10:12:54.979Z</time></trkpt><trkpt lat="45.4030167" lon="10.5750331"><ele>98.0</ele><time>2026-03-29T10:12:55.98Z</time></trkpt><trkpt lat="45.402902" lon="10.574989"><ele>98.0</ele><time>2026-03-29T10:12:56.98Z</time></trkpt><trkpt lat="45.4027946" lon="10.5749625"><ele>98.0</ele><time>2026-03-29T10:12:57.979Z</time></trkpt><trkpt lat="45.402687" lon="10.5749358"><ele>98.0</ele><time>2026-03-29T10:12:58.98Z</time></trkpt><trkpt lat="45.4025689" lon="10.5748905"><ele>98.0</ele><time>2026-03-29T10:12:59.98Z</time></trkpt><trkpt lat="45.40246" lon="10.5748148"><ele>98.0</ele><time>2026-03-29T10:13:00.979Z</time></trkpt><trkpt lat="45.4023609" lon="10.5746998"><ele>98.0</ele><time>2026-03-29T10:13:01.98Z</time></trkpt><trkpt lat="45.4022638" lon="10.5745742"><ele>98.0</ele><time>2026-03-29T10:13:02.98Z</time></trkpt><trkpt lat="45.4021613" lon="10.5744368"><ele>98.0</ele><time>2026-03-29T10:13:03.979Z</time></trkpt><trkpt lat="45.4020535" lon="10.5742846"><ele>98.0</ele><time>2026-03-29T10:13:04.98Z</time></trkpt><trkpt lat="45.401944" lon="10.574127"><ele>98.0</ele><time>2026-03-29T10:13:05.981Z</time></trkpt><trkpt lat="45.4018302" lon="10.5739609"><ele>98.0</ele><time>2026-03-29T10:13:06.98Z</time></trkpt><trkpt lat="45.4017128" lon="10.5737903"><ele>97.33333333333333</ele><time>2026-03-29T10:13:07.98Z</time></trkpt><trkpt lat="45.4015902" lon="10.5736179"><ele>96.66666666666666</ele><time>2026-03-29T10:13:08.98Z</time></trkpt><trkpt lat="45.4014659" lon="10.5734424"><ele>96.0</ele><time>2026-03-29T10:13:09.979Z</time></trkpt><trkpt lat="45.4013414" lon="10.5732626"><ele>96.33333333333334</ele><time>2026-03-29T10:13:10.979Z</time></trkpt><trkpt lat="45.4012183" lon="10.5730853"><ele>96.66666666666667</ele><time>2026-03-29T10:13:11.98Z</time></trkpt><trkpt lat="45.4011066" lon="10.5729263"><ele>97.0</ele><time>2026-03-29T10:13:12.979Z</time></trkpt><trkpt lat="45.4010098" lon="10.5727859"><ele>97.6</ele><time>2026-03-29T10:13:13.981Z</time></trkpt><trkpt lat="45.4009306" lon="10.5726546"><ele>98.19999999999999</ele><time>2026-03-29T10:13:14.98Z</time></trkpt><trkpt lat="45.4008811" lon="10.5725199"><ele>98.8</ele><time>2026-03-29T10:13:15.98Z</time></trkpt><trkpt lat="45.4008709" lon="10.5723934"><ele>99.4</ele><time>2026-03-29T10:13:16.98Z</time></trkpt><trkpt lat="45.4008822" lon="10.5723051"><ele>100.0</ele><time>2026-03-29T10:13:17.979Z</time></trkpt><trkpt lat="45.4009223" lon="10.5722095"><ele>100.00000000000001</ele><time>2026-03-29T10:13:20.98Z</time></trkpt><trkpt lat="45.4010067" lon="10.5721654"><ele>100.0</ele><time>2026-03-29T10:13:23.98Z</time></trkpt><trkpt lat="45.4010826" lon="10.5720829"><ele>100.0</ele><time>2026-03-29T10:13:26.98Z</time></trkpt><trkpt lat="45.4011522" lon="10.5720028"><ele>100.0</ele><time>2026-03-29T10:13:28.979Z</time></trkpt><trkpt lat="45.4012195" lon="10.5719121"><ele>100.00000000000001</ele><time>2026-03-29T10:13:30.98Z</time></trkpt><trkpt lat="45.4012586" lon="10.5718301"><ele>100.0</ele><time>2026-03-29T10:13:32.98Z</time></trkpt><trkpt lat="45.4012166" lon="10.5717495"><ele>101.00000000000001</ele><time>2026-03-29T10:16:13.978Z</time></trkpt><trkpt lat="45.401172" lon="10.571682"><ele>102.0</ele><time>2026-03-29T10:16:17.98Z</time></trkpt><trkpt lat="45.401131" lon="10.5715996"><ele>103.0</ele><time>2026-03-29T10:16:23.945Z</time></trkpt><trkpt lat="45.4010885" lon="10.571529"><ele>104.0</ele><time>2026-03-29T10:16:28.979Z</time></trkpt><trkpt lat="45.4010386" lon="10.5714704"><ele>105.0</ele><time>2026-03-29T10:16:42.978Z</time></trkpt><trkpt lat="45.4010611" lon="10.5715686"><ele>106.00000000000001</ele><time>2026-03-29T10:17:07.956Z</time></trkpt><trkpt lat="45.401102" lon="10.57165"><ele>107.0</ele><time>2026-03-29T10:17:11.979Z</time></trkpt><trkpt lat="45.401101" lon="10.5715586"><ele>107.00000000000001</ele><time>2026-03-29T10:17:31.979Z</time></trkpt><trkpt lat="45.4010463" lon="10.571478"><ele>107.0</ele><time>2026-03-29T10:17:39.978Z</time></trkpt><trkpt lat="45.4009881" lon="10.5714136"><ele>107.0</ele><time>2026-03-29T10:17:46.98Z</time></trkpt><trkpt lat="45.4009844" lon="10.5713199"><ele>107.0</ele><time>2026-03-29T10:17:53.978Z</time></trkpt><trkpt lat="45.4009302" lon="10.5712615"><ele>107.0</ele><time>2026-03-29T10:18:00.979Z</time></trkpt><trkpt lat="45.4009579" lon="10.571348"><ele>107.00000000000001</ele><time>2026-03-29T10:18:16.979Z</time></trkpt><trkpt lat="45.4010114" lon="10.5714016"><ele>107.0</ele><time>2026-03-29T10:18:22.979Z</time></trkpt><trkpt lat="45.4010396" lon="10.5714858"><ele>107.0</ele><time>2026-03-29T10:19:26.978Z</time></trkpt><trkpt lat="45.4012497" lon="10.5718099"><ele>107.0</ele><time>2026-03-29T10:35:50.975Z</time></trkpt><trkpt lat="45.4013285" lon="10.5717627"><ele>107.0</ele><time>2026-03-29T10:37:02.975Z</time></trkpt><trkpt lat="45.4014492" lon="10.5717086"><ele>106.14285714285715</ele><time>2026-03-29T10:37:04.974Z</time></trkpt><trkpt lat="45.4015004" lon="10.571645"><ele>105.28571428571429</ele><time>2026-03-29T10:37:06.974Z</time></trkpt><trkpt lat="45.4015448" lon="10.5715696"><ele>104.42857142857143</ele><time>2026-03-29T10:37:08.975Z</time></trkpt><trkpt lat="45.4016062" lon="10.5715111"><ele>103.57142857142858</ele><time>2026-03-29T10:37:10.974Z</time></trkpt><trkpt lat="45.4016761" lon="10.5714784"><ele>102.71428571428571</ele><time>2026-03-29T10:37:12.975Z</time></trkpt><trkpt lat="45.4017366" lon="10.5714146"><ele>101.85714285714286</ele><time>2026-03-29T10:37:14.974Z</time></trkpt><trkpt lat="45.4017989" lon="10.5713443"><ele>101.0</ele><time>2026-03-29T10:37:16.975Z</time></trkpt><trkpt lat="45.4018588" lon="10.5712713"><ele>101.0</ele><time>2026-03-29T10:37:18.975Z</time></trkpt><trkpt lat="45.4019211" lon="10.5711936"><ele>101.0</ele><time>2026-03-29T10:37:20.974Z</time></trkpt><trkpt lat="45.4020004" lon="10.5711031"><ele>101.0</ele><time>2026-03-29T10:37:22.974Z</time></trkpt><trkpt lat="45.4020823" lon="10.5709986"><ele>101.0</ele><time>2026-03-29T10:37:24.974Z</time></trkpt><trkpt lat="45.4021684" lon="10.5708934"><ele>101.0</ele><time>2026-03-29T10:37:26.975Z</time></trkpt><trkpt lat="45.4022576" lon="10.5707746"><ele>100.83333333333333</ele><time>2026-03-29T10:37:28.975Z</time></trkpt><trkpt lat="45.4023521" lon="10.5706544"><ele>100.66666666666666</ele><time>2026-03-29T10:37:30.975Z</time></trkpt><trkpt lat="45.4024059" lon="10.5705958"><ele>100.5</ele><time>2026-03-29T10:37:31.974Z</time></trkpt><trkpt lat="45.402459" lon="10.5705331"><ele>100.33333333333334</ele><time>2026-03-29T10:37:32.975Z</time></trkpt><trkpt lat="45.4025138" lon="10.5704681"><ele>100.16666666666667</ele><time>2026-03-29T10:37:33.974Z</time></trkpt><trkpt lat="45.402574" lon="10.5703945"><ele>100.0</ele><time>2026-03-29T10:37:34.975Z</time></trkpt><trkpt lat="45.4026328" lon="10.5703203"><ele>100.0</ele><time>2026-03-29T10:37:35.974Z</time></trkpt><trkpt lat="45.4026979" lon="10.5702381"><ele>100.0</ele><time>2026-03-29T10:37:36.974Z</time></trkpt><trkpt lat="45.4027619" lon="10.5701641"><ele>100.0</ele><time>2026-03-29T10:37:37.975Z</time></trkpt><trkpt lat="45.4028344" lon="10.5700843"><ele>100.0</ele><time>2026-03-29T10:37:38.974Z</time></trkpt><trkpt lat="45.4029102" lon="10.5699961"><ele>100.0</ele><time>2026-03-29T10:37:39.975Z</time></trkpt><trkpt lat="45.402992" lon="10.569908"><ele>99.4</ele><time>2026-03-29T10:37:40.974Z</time></trkpt><trkpt lat="45.4030722" lon="10.5698183"><ele>98.8</ele><time>2026-03-29T10:37:41.975Z</time></trkpt><trkpt lat="45.4031473" lon="10.5697238"><ele>98.19999999999999</ele><time>2026-03-29T10:37:42.974Z</time></trkpt><trkpt lat="45.4032252" lon="10.5696318"><ele>97.6</ele><time>2026-03-29T10:37:43.975Z</time></trkpt><trkpt lat="45.403308" lon="10.5695404"><ele>97.0</ele><time>2026-03-29T10:37:44.974Z</time></trkpt><trkpt lat="45.403387" lon="10.5694452"><ele>97.0</ele><time>2026-03-29T10:37:45.975Z</time></trkpt><trkpt lat="45.4034694" lon="10.5693547"><ele>97.0</ele><time>2026-03-29T10:37:46.975Z</time></trkpt><trkpt lat="45.4035506" lon="10.5692639"><ele>97.0</ele><time>2026-03-29T10:37:47.975Z</time></trkpt><trkpt lat="45.4036299" lon="10.5691701"><ele>97.0</ele><time>2026-03-29T10:37:48.974Z</time></trkpt><trkpt lat="45.4037096" lon="10.5690811"><ele>97.0</ele><time>2026-03-29T10:37:49.975Z</time></trkpt><trkpt lat="45.4037913" lon="10.5689927"><ele>97.19999999999999</ele><time>2026-03-29T10:37:50.975Z</time></trkpt><trkpt lat="45.4038765" lon="10.5688977"><ele>97.4</ele><time>2026-03-29T10:37:51.974Z</time></trkpt><trkpt lat="45.403957" lon="10.5688071"><ele>97.6</ele><time>2026-03-29T10:37:52.974Z</time></trkpt><trkpt lat="45.4040395" lon="10.5687123"><ele>97.80000000000001</ele><time>2026-03-29T10:37:53.974Z</time></trkpt><trkpt lat="45.4041202" lon="10.5686199"><ele>98.0</ele><time>2026-03-29T10:37:54.974Z</time></trkpt><trkpt lat="45.4041977" lon="10.5685246"><ele>98.0</ele><time>2026-03-29T10:37:55.974Z</time></trkpt><trkpt lat="45.404273" lon="10.5684272"><ele>98.0</ele><time>2026-03-29T10:37:56.975Z</time></trkpt><trkpt lat="45.4043472" lon="10.5683235"><ele>98.0</ele><time>2026-03-29T10:37:57.974Z</time></trkpt><trkpt lat="45.4044249" lon="10.568217"><ele>98.0</ele><time>2026-03-29T10:37:58.975Z</time></trkpt><trkpt lat="45.4044946" lon="10.5681027"><ele>98.0</ele><time>2026-03-29T10:37:59.974Z</time></trkpt><trkpt lat="45.4045681" lon="10.5679927"><ele>98.0</ele><time>2026-03-29T10:38:00.974Z</time></trkpt><trkpt lat="45.4046367" lon="10.5679026"><ele>98.0</ele><time>2026-03-29T10:38:01.975Z</time></trkpt><trkpt lat="45.4047006" lon="10.5678046"><ele>98.0</ele><time>2026-03-29T10:38:02.974Z</time></trkpt><trkpt lat="45.4047677" lon="10.5676913"><ele>98.0</ele><time>2026-03-29T10:38:03.975Z</time></trkpt><trkpt lat="45.4048347" lon="10.5675708"><ele>98.0</ele><time>2026-03-29T10:38:04.975Z</time></trkpt><trkpt lat="45.4049079" lon="10.5674457"><ele>97.5</ele><time>2026-03-29T10:38:05.974Z</time></trkpt><trkpt lat="45.4049777" lon="10.5673258"><ele>97.0</ele><time>2026-03-29T10:38:06.975Z</time></trkpt><trkpt lat="45.4050484" lon="10.5671997"><ele>96.5</ele><time>2026-03-29T10:38:07.975Z</time></trkpt><trkpt lat="45.4051171" lon="10.5670736"><ele>96.0</ele><time>2026-03-29T10:38:08.975Z</time></trkpt><trkpt lat="45.4051898" lon="10.5669461"><ele>96.0</ele><time>2026-03-29T10:38:09.974Z</time></trkpt><trkpt lat="45.4052621" lon="10.566819"><ele>96.0</ele><time>2026-03-29T10:38:10.975Z</time></trkpt><trkpt lat="45.4053318" lon="10.5666973"><ele>96.0</ele><time>2026-03-29T10:38:11.975Z</time></trkpt><trkpt lat="45.4054011" lon="10.5665707"><ele>96.0</ele><time>2026-03-29T10:38:12.974Z</time></trkpt><trkpt lat="45.4054679" lon="10.5664519"><ele>96.0</ele><time>2026-03-29T10:38:13.974Z</time></trkpt><trkpt lat="45.4055369" lon="10.5663296"><ele>96.0</ele><time>2026-03-29T10:38:14.975Z</time></trkpt><trkpt lat="45.405604" lon="10.5662096"><ele>96.0</ele><time>2026-03-29T10:38:15.975Z</time></trkpt><trkpt lat="45.4056777" lon="10.566084"><ele>96.0</ele><time>2026-03-29T10:38:16.975Z</time></trkpt><trkpt lat="45.4057473" lon="10.5659715"><ele>96.0</ele><time>2026-03-29T10:38:17.974Z</time></trkpt><trkpt lat="45.4058185" lon="10.5658516"><ele>96.0</ele><time>2026-03-29T10:38:18.975Z</time></trkpt><trkpt lat="45.4058828" lon="10.5657453"><ele>96.0</ele><time>2026-03-29T10:38:19.974Z</time></trkpt><trkpt lat="45.4059405" lon="10.565655"><ele>96.0</ele><time>2026-03-29T10:38:20.975Z</time></trkpt><trkpt lat="45.4059955" lon="10.5655684"><ele>96.0</ele><time>2026-03-29T10:38:21.974Z</time></trkpt><trkpt lat="45.4060492" lon="10.565489"><ele>96.0</ele><time>2026-03-29T10:38:22.975Z</time></trkpt><trkpt lat="45.4060969" lon="10.5654072"><ele>96.0</ele><time>2026-03-29T10:38:23.974Z</time></trkpt><trkpt lat="45.4061367" lon="10.5653354"><ele>96.0</ele><time>2026-03-29T10:38:24.975Z</time></trkpt><trkpt lat="45.4061507" lon="10.5651729"><ele>96.19999999999999</ele><time>2026-03-29T10:38:26.975Z</time></trkpt><trkpt lat="45.406117" lon="10.5650786"><ele>96.39999999999999</ele><time>2026-03-29T10:38:27.974Z</time></trkpt><trkpt lat="45.406079" lon="10.5649639"><ele>96.6</ele><time>2026-03-29T10:38:28.975Z</time></trkpt><trkpt lat="45.406043" lon="10.5648376"><ele>96.8</ele><time>2026-03-29T10:38:29.974Z</time></trkpt><trkpt lat="45.4060261" lon="10.5647262"><ele>97.0</ele><time>2026-03-29T10:38:30.975Z</time></trkpt><trkpt lat="45.4060705" lon="10.564577"><ele>97.0</ele><time>2026-03-29T10:38:32.975Z</time></trkpt><trkpt lat="45.4061357" lon="10.5645111"><ele>97.0</ele><time>2026-03-29T10:38:33.974Z</time></trkpt><trkpt lat="45.4062263" lon="10.5644518"><ele>97.0</ele><time>2026-03-29T10:38:34.975Z</time></trkpt><trkpt lat="45.4063242" lon="10.5643774"><ele>97.0</ele><time>2026-03-29T10:38:35.974Z</time></trkpt><trkpt lat="45.4064211" lon="10.5643016"><ele>97.0</ele><time>2026-03-29T10:38:36.974Z</time></trkpt><trkpt lat="45.4065228" lon="10.5642293"><ele>97.0</ele><time>2026-03-29T10:38:37.975Z</time></trkpt><trkpt lat="45.406626" lon="10.5641525"><ele>97.0</ele><time>2026-03-29T10:38:38.976Z</time></trkpt><trkpt lat="45.4067274" lon="10.5640721"><ele>97.0</ele><time>2026-03-29T10:38:39.975Z</time></trkpt><trkpt lat="45.4068271" lon="10.5639903"><ele>97.0</ele><time>2026-03-29T10:38:40.975Z</time></trkpt><trkpt lat="45.4069291" lon="10.5639105"><ele>97.0</ele><time>2026-03-29T10:38:41.975Z</time></trkpt><trkpt lat="45.407032" lon="10.5638389"><ele>97.0</ele><time>2026-03-29T10:38:42.975Z</time></trkpt><trkpt lat="45.4071343" lon="10.5637681"><ele>97.0</ele><time>2026-03-29T10:38:43.975Z</time></trkpt><trkpt lat="45.4072359" lon="10.5636952"><ele>97.0</ele><time>2026-03-29T10:38:44.975Z</time></trkpt><trkpt lat="45.4073424" lon="10.5636218"><ele>97.25</ele><time>2026-03-29T10:38:45.974Z</time></trkpt><trkpt lat="45.4074476" lon="10.5635453"><ele>97.5</ele><time>2026-03-29T10:38:46.974Z</time></trkpt><trkpt lat="45.4075538" lon="10.5634713"><ele>97.75</ele><time>2026-03-29T10:38:47.975Z</time></trkpt><trkpt lat="45.4076645" lon="10.5634005"><ele>98.0</ele><time>2026-03-29T10:38:48.975Z</time></trkpt><trkpt lat="45.4077773" lon="10.5633356"><ele>98.0</ele><time>2026-03-29T10:38:49.974Z</time></trkpt><trkpt lat="45.4078936" lon="10.5632756"><ele>98.0</ele><time>2026-03-29T10:38:50.974Z</time></trkpt><trkpt lat="45.4080106" lon="10.5632138"><ele>98.0</ele><time>2026-03-29T10:38:51.974Z</time></trkpt><trkpt lat="45.4081313" lon="10.5631589"><ele>98.0</ele><time>2026-03-29T10:38:52.975Z</time></trkpt><trkpt lat="45.4082519" lon="10.5631016"><ele>97.75</ele><time>2026-03-29T10:38:53.975Z</time></trkpt><trkpt lat="45.408376" lon="10.5630459"><ele>97.5</ele><time>2026-03-29T10:38:54.975Z</time></trkpt><trkpt lat="45.4085051" lon="10.56299"><ele>97.25</ele><time>2026-03-29T10:38:55.975Z</time></trkpt><trkpt lat="45.4086335" lon="10.5629321"><ele>97.0</ele><time>2026-03-29T10:38:56.975Z</time></trkpt><trkpt lat="45.4087652" lon="10.5628786"><ele>96.75</ele><time>2026-03-29T10:38:57.975Z</time></trkpt><trkpt lat="45.4088957" lon="10.562827"><ele>96.5</ele><time>2026-03-29T10:38:58.974Z</time></trkpt><trkpt lat="45.4090276" lon="10.5627774"><ele>96.25</ele><time>2026-03-29T10:38:59.975Z</time></trkpt><trkpt lat="45.4091582" lon="10.5627246"><ele>96.0</ele><time>2026-03-29T10:39:00.975Z</time></trkpt><trkpt lat="45.4092878" lon="10.5626701"><ele>96.0</ele><time>2026-03-29T10:39:01.975Z</time></trkpt><trkpt lat="45.4094144" lon="10.5626163"><ele>96.0</ele><time>2026-03-29T10:39:02.975Z</time></trkpt><trkpt lat="45.4095389" lon="10.5625657"><ele>96.0</ele><time>2026-03-29T10:39:03.974Z</time></trkpt><trkpt lat="45.4096604" lon="10.5625098"><ele>96.0</ele><time>2026-03-29T10:39:04.975Z</time></trkpt><trkpt lat="45.4097779" lon="10.5624547"><ele>96.0</ele><time>2026-03-29T10:39:05.975Z</time></trkpt><trkpt lat="45.4098894" lon="10.5623954"><ele>96.0</ele><time>2026-03-29T10:39:06.975Z</time></trkpt><trkpt lat="45.4100049" lon="10.5623444"><ele>96.0</ele><time>2026-03-29T10:39:07.975Z</time></trkpt><trkpt lat="45.4101192" lon="10.5623054"><ele>96.0</ele><time>2026-03-29T10:39:08.975Z</time></trkpt><trkpt lat="45.4102377" lon="10.5622795"><ele>96.0</ele><time>2026-03-29T10:39:09.975Z</time></trkpt><trkpt lat="45.4103496" lon="10.5622813"><ele>96.0</ele><time>2026-03-29T10:39:10.975Z</time></trkpt><trkpt lat="45.4104706" lon="10.5623107"><ele>96.0</ele><time>2026-03-29T10:39:11.974Z</time></trkpt><trkpt lat="45.4105924" lon="10.5623448"><ele>96.0</ele><time>2026-03-29T10:39:12.975Z</time></trkpt><trkpt lat="45.4107144" lon="10.5623834"><ele>96.75</ele><time>2026-03-29T10:39:13.975Z</time></trkpt><trkpt lat="45.4108369" lon="10.5624225"><ele>97.5</ele><time>2026-03-29T10:39:14.974Z</time></trkpt><trkpt lat="45.4109615" lon="10.5624634"><ele>98.25</ele><time>2026-03-29T10:39:15.975Z</time></trkpt><trkpt lat="45.4110868" lon="10.5625069"><ele>99.0</ele><time>2026-03-29T10:39:16.975Z</time></trkpt><trkpt lat="45.4112067" lon="10.5625626"><ele>98.75</ele><time>2026-03-29T10:39:17.975Z</time></trkpt><trkpt lat="45.411326" lon="10.5626336"><ele>98.5</ele><time>2026-03-29T10:39:18.974Z</time></trkpt><trkpt lat="45.4114402" lon="10.5627185"><ele>98.25</ele><time>2026-03-29T10:39:19.975Z</time></trkpt><trkpt lat="45.4115534" lon="10.5628127"><ele>98.0</ele><time>2026-03-29T10:39:20.975Z</time></trkpt><trkpt lat="45.4116685" lon="10.5629072"><ele>98.0</ele><time>2026-03-29T10:39:21.975Z</time></trkpt><trkpt lat="45.4117818" lon="10.5630015"><ele>98.0</ele><time>2026-03-29T10:39:22.976Z</time></trkpt><trkpt lat="45.4118923" lon="10.5630991"><ele>98.0</ele><time>2026-03-29T10:39:23.975Z</time></trkpt><trkpt lat="45.4120034" lon="10.563199"><ele>98.0</ele><time>2026-03-29T10:39:24.974Z</time></trkpt><trkpt lat="45.4121139" lon="10.5633007"><ele>97.75</ele><time>2026-03-29T10:39:25.974Z</time></trkpt><trkpt lat="45.4122237" lon="10.5634083"><ele>97.5</ele><time>2026-03-29T10:39:26.975Z</time></trkpt><trkpt lat="45.4123335" lon="10.5635207"><ele>97.25</ele><time>2026-03-29T10:39:27.975Z</time></trkpt><trkpt lat="45.4124439" lon="10.5636342"><ele>97.0</ele><time>2026-03-29T10:39:28.974Z</time></trkpt><trkpt lat="45.4125483" lon="10.5637512"><ele>97.0</ele><time>2026-03-29T10:39:29.974Z</time></trkpt><trkpt lat="45.4126448" lon="10.5638785"><ele>97.0</ele><time>2026-03-29T10:39:30.975Z</time></trkpt><trkpt lat="45.4127425" lon="10.5640054"><ele>97.0</ele><time>2026-03-29T10:39:31.975Z</time></trkpt><trkpt lat="45.4128412" lon="10.5641225"><ele>97.0</ele><time>2026-03-29T10:39:32.974Z</time></trkpt><trkpt lat="45.4129505" lon="10.5642283"><ele>97.0</ele><time>2026-03-29T10:39:33.974Z</time></trkpt><trkpt lat="45.413063" lon="10.5643219"><ele>97.0</ele><time>2026-03-29T10:39:34.976Z</time></trkpt><trkpt lat="45.4131777" lon="10.5644097"><ele>97.0</ele><time>2026-03-29T10:39:35.974Z</time></trkpt><trkpt lat="45.4132952" lon="10.5644924"><ele>97.0</ele><time>2026-03-29T10:39:36.974Z</time></trkpt><trkpt lat="45.4133996" lon="10.5645578"><ele>97.19999999999999</ele><time>2026-03-29T10:39:37.974Z</time></trkpt><trkpt lat="45.4134955" lon="10.5646117"><ele>97.4</ele><time>2026-03-29T10:39:38.975Z</time></trkpt><trkpt lat="45.413576" lon="10.564653"><ele>97.6</ele><time>2026-03-29T10:39:39.975Z</time></trkpt><trkpt lat="45.4136498" lon="10.5646899"><ele>97.80000000000001</ele><time>2026-03-29T10:39:40.975Z</time></trkpt><trkpt lat="45.4137916" lon="10.5646886"><ele>98.0</ele><time>2026-03-29T10:39:42.975Z</time></trkpt><trkpt lat="45.413879" lon="10.5646502"><ele>98.5</ele><time>2026-03-29T10:39:43.974Z</time></trkpt><trkpt lat="45.4139679" lon="10.5645859"><ele>99.0</ele><time>2026-03-29T10:39:44.975Z</time></trkpt><trkpt lat="45.4140617" lon="10.5645082"><ele>99.5</ele><time>2026-03-29T10:39:45.975Z</time></trkpt><trkpt lat="45.4141651" lon="10.5644326"><ele>100.0</ele><time>2026-03-29T10:39:46.975Z</time></trkpt><trkpt lat="45.414283" lon="10.5643682"><ele>100.0</ele><time>2026-03-29T10:39:47.975Z</time></trkpt><trkpt lat="45.4144081" lon="10.5643055"><ele>100.0</ele><time>2026-03-29T10:39:48.975Z</time></trkpt><trkpt lat="45.4145333" lon="10.5642381"><ele>100.0</ele><time>2026-03-29T10:39:49.974Z</time></trkpt><trkpt lat="45.4146605" lon="10.5641647"><ele>100.0</ele><time>2026-03-29T10:39:50.975Z</time></trkpt><trkpt lat="45.4147883" lon="10.5640935"><ele>101.25</ele><time>2026-03-29T10:39:51.974Z</time></trkpt><trkpt lat="45.4149207" lon="10.564033"><ele>102.5</ele><time>2026-03-29T10:39:52.974Z</time></trkpt><trkpt lat="45.4150626" lon="10.5639937"><ele>103.75</ele><time>2026-03-29T10:39:53.974Z</time></trkpt><trkpt lat="45.4152113" lon="10.5639762"><ele>105.0</ele><time>2026-03-29T10:39:54.975Z</time></trkpt><trkpt lat="45.4153625" lon="10.5639775"><ele>105.5</ele><time>2026-03-29T10:39:55.975Z</time></trkpt><trkpt lat="45.4155092" lon="10.5639595"><ele>106.0</ele><time>2026-03-29T10:39:56.975Z</time></trkpt><trkpt lat="45.4156542" lon="10.5639134"><ele>106.5</ele><time>2026-03-29T10:39:57.975Z</time></trkpt><trkpt lat="45.415795" lon="10.5638472"><ele>107.0</ele><time>2026-03-29T10:39:58.975Z</time></trkpt><trkpt lat="45.4159336" lon="10.5637693"><ele>106.75</ele><time>2026-03-29T10:39:59.975Z</time></trkpt><trkpt lat="45.4160698" lon="10.5636876"><ele>106.5</ele><time>2026-03-29T10:40:00.975Z</time></trkpt><trkpt lat="45.4162087" lon="10.5636092"><ele>106.25</ele><time>2026-03-29T10:40:01.975Z</time></trkpt><trkpt lat="45.4163253" lon="10.5635542"><ele>106.0</ele><time>2026-03-29T10:40:02.975Z</time></trkpt><trkpt lat="45.4164199" lon="10.5635103"><ele>106.4</ele><time>2026-03-29T10:40:03.974Z</time></trkpt><trkpt lat="45.4165062" lon="10.5634622"><ele>106.8</ele><time>2026-03-29T10:40:04.974Z</time></trkpt><trkpt lat="45.4165879" lon="10.5633942"><ele>107.20000000000002</ele><time>2026-03-29T10:40:05.975Z</time></trkpt><trkpt lat="45.4166649" lon="10.5633139"><ele>107.60000000000001</ele><time>2026-03-29T10:40:06.974Z</time></trkpt><trkpt lat="45.416751" lon="10.5632103"><ele>108.0</ele><time>2026-03-29T10:40:07.975Z</time></trkpt><trkpt lat="45.4168422" lon="10.5631262"><ele>108.0</ele><time>2026-03-29T10:40:08.974Z</time></trkpt><trkpt lat="45.416944" lon="10.5630509"><ele>108.0</ele><time>2026-03-29T10:40:09.974Z</time></trkpt><trkpt lat="45.4170507" lon="10.5629866"><ele>108.0</ele><time>2026-03-29T10:40:10.975Z</time></trkpt><trkpt lat="45.4171624" lon="10.5629299"><ele>108.0</ele><time>2026-03-29T10:40:11.976Z</time></trkpt><trkpt lat="45.4172779" lon="10.562881"><ele>108.0</ele><time>2026-03-29T10:40:12.974Z</time></trkpt><trkpt lat="45.4173923" lon="10.5628293"><ele>108.0</ele><time>2026-03-29T10:40:13.974Z</time></trkpt><trkpt lat="45.4175078" lon="10.5627771"><ele>108.0</ele><time>2026-03-29T10:40:14.974Z</time></trkpt><trkpt lat="45.4176174" lon="10.562708"><ele>108.0</ele><time>2026-03-29T10:40:15.974Z</time></trkpt><trkpt lat="45.4177264" lon="10.5626036"><ele>108.0</ele><time>2026-03-29T10:40:16.974Z</time></trkpt><trkpt lat="45.4178326" lon="10.5624583"><ele>108.0</ele><time>2026-03-29T10:40:17.975Z</time></trkpt><trkpt lat="45.4179229" lon="10.5623026"><ele>108.0</ele><time>2026-03-29T10:40:18.974Z</time></trkpt><trkpt lat="45.418016" lon="10.562159"><ele>108.0</ele><time>2026-03-29T10:40:19.975Z</time></trkpt><trkpt lat="45.4181074" lon="10.5620122"><ele>108.0</ele><time>2026-03-29T10:40:20.975Z</time></trkpt><trkpt lat="45.4181977" lon="10.5618721"><ele>108.0</ele><time>2026-03-29T10:40:21.974Z</time></trkpt><trkpt lat="45.4182893" lon="10.5617376"><ele>108.0</ele><time>2026-03-29T10:40:22.975Z</time></trkpt><trkpt lat="45.4183815" lon="10.5616057"><ele>108.0</ele><time>2026-03-29T10:40:23.975Z</time></trkpt><trkpt lat="45.4184773" lon="10.5614732"><ele>108.0</ele><time>2026-03-29T10:40:24.974Z</time></trkpt><trkpt lat="45.4185753" lon="10.5613355"><ele>108.0</ele><time>2026-03-29T10:40:25.975Z</time></trkpt><trkpt lat="45.4186741" lon="10.5612012"><ele>108.0</ele><time>2026-03-29T10:40:26.974Z</time></trkpt><trkpt lat="45.4187762" lon="10.5610721"><ele>108.0</ele><time>2026-03-29T10:40:27.975Z</time></trkpt><trkpt lat="45.418881" lon="10.5609481"><ele>109.25</ele><time>2026-03-29T10:40:28.975Z</time></trkpt><trkpt lat="45.4189878" lon="10.5608289"><ele>110.5</ele><time>2026-03-29T10:40:29.974Z</time></trkpt><trkpt lat="45.4190952" lon="10.5607173"><ele>111.75</ele><time>2026-03-29T10:40:30.975Z</time></trkpt><trkpt lat="45.4192126" lon="10.5606194"><ele>113.0</ele><time>2026-03-29T10:40:31.975Z</time></trkpt><trkpt lat="45.4193309" lon="10.5605247"><ele>113.0</ele><time>2026-03-29T10:40:32.975Z</time></trkpt><trkpt lat="45.4194491" lon="10.5604349"><ele>113.0</ele><time>2026-03-29T10:40:33.975Z</time></trkpt><trkpt lat="45.4195604" lon="10.5603429"><ele>113.0</ele><time>2026-03-29T10:40:34.975Z</time></trkpt><trkpt lat="45.4196614" lon="10.5602601"><ele>113.0</ele><time>2026-03-29T10:40:35.974Z</time></trkpt><trkpt lat="45.419761" lon="10.5601791"><ele>113.4</ele><time>2026-03-29T10:40:36.975Z</time></trkpt><trkpt lat="45.4198669" lon="10.5601121"><ele>113.80000000000001</ele><time>2026-03-29T10:40:37.974Z</time></trkpt><trkpt lat="45.41998" lon="10.5600585"><ele>114.2</ele><time>2026-03-29T10:40:38.975Z</time></trkpt><trkpt lat="45.4200839" lon="10.5600154"><ele>114.6</ele><time>2026-03-29T10:40:39.975Z</time></trkpt><trkpt lat="45.4201779" lon="10.5599569"><ele>115.0</ele><time>2026-03-29T10:40:40.975Z</time></trkpt><trkpt lat="45.420264" lon="10.5598773"><ele>115.0</ele><time>2026-03-29T10:40:41.974Z</time></trkpt><trkpt lat="45.420352" lon="10.5597657"><ele>115.0</ele><time>2026-03-29T10:40:42.974Z</time></trkpt><trkpt lat="45.4204378" lon="10.5596408"><ele>115.0</ele><time>2026-03-29T10:40:43.975Z</time></trkpt><trkpt lat="45.4205247" lon="10.5594949"><ele>115.0</ele><time>2026-03-29T10:40:44.975Z</time></trkpt><trkpt lat="45.4206148" lon="10.5593407"><ele>115.0</ele><time>2026-03-29T10:40:45.975Z</time></trkpt><trkpt lat="45.4207027" lon="10.559184"><ele>115.0</ele><time>2026-03-29T10:40:46.974Z</time></trkpt><trkpt lat="45.4207874" lon="10.5590234"><ele>115.0</ele><time>2026-03-29T10:40:47.974Z</time></trkpt><trkpt lat="45.4208739" lon="10.5588662"><ele>115.0</ele><time>2026-03-29T10:40:48.975Z</time></trkpt><trkpt lat="45.420967" lon="10.5587139"><ele>114.75</ele><time>2026-03-29T10:40:49.975Z</time></trkpt><trkpt lat="45.4210695" lon="10.5585821"><ele>114.5</ele><time>2026-03-29T10:40:50.974Z</time></trkpt><trkpt lat="45.4211696" lon="10.5584503"><ele>114.25</ele><time>2026-03-29T10:40:51.976Z</time></trkpt><trkpt lat="45.4212648" lon="10.5583107"><ele>114.0</ele><time>2026-03-29T10:40:52.975Z</time></trkpt><trkpt lat="45.4213531" lon="10.5581653"><ele>114.0</ele><time>2026-03-29T10:40:53.975Z</time></trkpt><trkpt lat="45.4214317" lon="10.5579999"><ele>114.0</ele><time>2026-03-29T10:40:54.974Z</time></trkpt><trkpt lat="45.4215112" lon="10.55784"><ele>114.0</ele><time>2026-03-29T10:40:55.975Z</time></trkpt><trkpt lat="45.4215888" lon="10.5576776"><ele>114.0</ele><time>2026-03-29T10:40:56.975Z</time></trkpt><trkpt lat="45.4216595" lon="10.557517"><ele>114.0</ele><time>2026-03-29T10:40:57.975Z</time></trkpt><trkpt lat="45.4217221" lon="10.5573506"><ele>114.0</ele><time>2026-03-29T10:40:58.976Z</time></trkpt><trkpt lat="45.4217746" lon="10.5571738"><ele>114.0</ele><time>2026-03-29T10:40:59.974Z</time></trkpt><trkpt lat="45.4218265" lon="10.5569962"><ele>114.0</ele><time>2026-03-29T10:41:00.974Z</time></trkpt><trkpt lat="45.4218805" lon="10.5568185"><ele>113.5</ele><time>2026-03-29T10:41:01.975Z</time></trkpt><trkpt lat="45.4219278" lon="10.5566398"><ele>113.0</ele><time>2026-03-29T10:41:02.975Z</time></trkpt><trkpt lat="45.421965" lon="10.5564577"><ele>112.5</ele><time>2026-03-29T10:41:03.974Z</time></trkpt><trkpt lat="45.4219907" lon="10.55627"><ele>112.0</ele><time>2026-03-29T10:41:04.974Z</time></trkpt><trkpt lat="45.4220076" lon="10.5560819"><ele>111.5</ele><time>2026-03-29T10:41:05.975Z</time></trkpt><trkpt lat="45.4220166" lon="10.5559008"><ele>111.0</ele><time>2026-03-29T10:41:06.976Z</time></trkpt><trkpt lat="45.4220448" lon="10.5557346"><ele>110.5</ele><time>2026-03-29T10:41:07.974Z</time></trkpt><trkpt lat="45.4220867" lon="10.5555742"><ele>110.0</ele><time>2026-03-29T10:41:08.975Z</time></trkpt><trkpt lat="45.422141" lon="10.5554204"><ele>110.8</ele><time>2026-03-29T10:41:09.975Z</time></trkpt><trkpt lat="45.422202" lon="10.5552918"><ele>111.6</ele><time>2026-03-29T10:41:10.974Z</time></trkpt><trkpt lat="45.4222596" lon="10.5551798"><ele>112.4</ele><time>2026-03-29T10:41:11.975Z</time></trkpt><trkpt lat="45.4223042" lon="10.555093"><ele>113.2</ele><time>2026-03-29T10:41:12.974Z</time></trkpt><trkpt lat="45.4223126" lon="10.5549306"><ele>114.0</ele><time>2026-03-29T10:41:14.975Z</time></trkpt><trkpt lat="45.4222623" lon="10.5548421"><ele>114.0</ele><time>2026-03-29T10:41:15.975Z</time></trkpt><trkpt lat="45.4221827" lon="10.554762"><ele>114.0</ele><time>2026-03-29T10:41:16.975Z</time></trkpt><trkpt lat="45.422093" lon="10.5546695"><ele>114.0</ele><time>2026-03-29T10:41:17.974Z</time></trkpt><trkpt lat="45.4220024" lon="10.5545616"><ele>114.0</ele><time>2026-03-29T10:41:18.974Z</time></trkpt><trkpt lat="45.4219195" lon="10.55444"><ele>114.0</ele><time>2026-03-29T10:41:19.975Z</time></trkpt><trkpt lat="45.4218486" lon="10.5543059"><ele>112.25</ele><time>2026-03-29T10:41:20.974Z</time></trkpt><trkpt lat="45.4217746" lon="10.5541741"><ele>110.5</ele><time>2026-03-29T10:41:21.974Z</time></trkpt><trkpt lat="45.4216788" lon="10.5540634"><ele>108.75</ele><time>2026-03-29T10:41:22.975Z</time></trkpt><trkpt lat="45.4215731" lon="10.5539746"><ele>107.0</ele><time>2026-03-29T10:41:23.975Z</time></trkpt><trkpt lat="45.4214612" lon="10.5538988"><ele>107.0</ele><time>2026-03-29T10:41:24.975Z</time></trkpt><trkpt lat="45.4213467" lon="10.5538186"><ele>107.0</ele><time>2026-03-29T10:41:25.975Z</time></trkpt><trkpt lat="45.4212323" lon="10.5537326"><ele>107.0</ele><time>2026-03-29T10:41:26.975Z</time></trkpt><trkpt lat="45.4211187" lon="10.5536538"><ele>107.0</ele><time>2026-03-29T10:41:27.975Z</time></trkpt><trkpt lat="45.421012" lon="10.5535887"><ele>106.19999999999999</ele><time>2026-03-29T10:41:28.975Z</time></trkpt><trkpt lat="45.420915" lon="10.5535255"><ele>105.39999999999999</ele><time>2026-03-29T10:41:29.975Z</time></trkpt><trkpt lat="45.4208325" lon="10.5534683"><ele>104.6</ele><time>2026-03-29T10:41:30.975Z</time></trkpt><trkpt lat="45.4207718" lon="10.5534168"><ele>103.80000000000001</ele><time>2026-03-29T10:41:31.975Z</time></trkpt><trkpt lat="45.4207233" lon="10.5532813"><ele>103.0</ele><time>2026-03-29T10:41:33.974Z</time></trkpt><trkpt lat="45.4207635" lon="10.5531932"><ele>103.00000000000001</ele><time>2026-03-29T10:41:34.975Z</time></trkpt><trkpt lat="45.4207935" lon="10.5531036"><ele>103.0</ele><time>2026-03-29T10:41:35.974Z</time></trkpt><trkpt lat="45.4208228" lon="10.5530126"><ele>103.0</ele><time>2026-03-29T10:41:36.975Z</time></trkpt><trkpt lat="45.4208579" lon="10.5529226"><ele>103.0</ele><time>2026-03-29T10:41:37.975Z</time></trkpt><trkpt lat="45.4208625" lon="10.5527861"><ele>103.00000000000001</ele><time>2026-03-29T10:41:39.975Z</time></trkpt><trkpt lat="45.4207721" lon="10.5527205"><ele>103.0</ele><time>2026-03-29T10:41:41.975Z</time></trkpt><trkpt lat="45.4207118" lon="10.5526864"><ele>102.80000000000001</ele><time>2026-03-29T10:41:42.975Z</time></trkpt><trkpt lat="45.4206338" lon="10.552628"><ele>102.6</ele><time>2026-03-29T10:41:43.975Z</time></trkpt><trkpt lat="45.4205494" lon="10.5525663"><ele>102.4</ele><time>2026-03-29T10:41:44.974Z</time></trkpt><trkpt lat="45.420454" lon="10.5525033"><ele>102.19999999999999</ele><time>2026-03-29T10:41:45.974Z</time></trkpt><trkpt lat="45.4203527" lon="10.5524312"><ele>102.0</ele><time>2026-03-29T10:41:46.975Z</time></trkpt><trkpt lat="45.420252" lon="10.5523501"><ele>101.5</ele><time>2026-03-29T10:41:47.975Z</time></trkpt><trkpt lat="45.4201508" lon="10.55225"><ele>101.0</ele><time>2026-03-29T10:41:48.974Z</time></trkpt><trkpt lat="45.4200487" lon="10.5521334"><ele>100.5</ele><time>2026-03-29T10:41:49.975Z</time></trkpt><trkpt lat="45.4199479" lon="10.5520096"><ele>100.0</ele><time>2026-03-29T10:41:50.975Z</time></trkpt><trkpt lat="45.4198488" lon="10.5518827"><ele>100.0</ele><time>2026-03-29T10:41:51.974Z</time></trkpt><trkpt lat="45.4197467" lon="10.5517547"><ele>100.0</ele><time>2026-03-29T10:41:52.975Z</time></trkpt><trkpt lat="45.419647" lon="10.5516241"><ele>100.0</ele><time>2026-03-29T10:41:53.976Z</time></trkpt><trkpt lat="45.4195582" lon="10.5514895"><ele>100.0</ele><time>2026-03-29T10:41:54.975Z</time></trkpt><trkpt lat="45.4194851" lon="10.5513383"><ele>100.25</ele><time>2026-03-29T10:41:55.974Z</time></trkpt><trkpt lat="45.4194267" lon="10.5511666"><ele>100.5</ele><time>2026-03-29T10:41:56.975Z</time></trkpt><trkpt lat="45.419383" lon="10.550987"><ele>100.75</ele><time>2026-03-29T10:41:57.975Z</time></trkpt><trkpt lat="45.4193446" lon="10.5508029"><ele>101.0</ele><time>2026-03-29T10:41:58.975Z</time></trkpt><trkpt lat="45.4192991" lon="10.5506265"><ele>101.0</ele><time>2026-03-29T10:41:59.974Z</time></trkpt><trkpt lat="45.4192505" lon="10.5504524"><ele>101.0</ele><time>2026-03-29T10:42:00.974Z</time></trkpt><trkpt lat="45.4191931" lon="10.550289"><ele>101.0</ele><time>2026-03-29T10:42:01.975Z</time></trkpt><trkpt lat="45.4191295" lon="10.5501298"><ele>101.0</ele><time>2026-03-29T10:42:02.975Z</time></trkpt><trkpt lat="45.4190516" lon="10.549984"><ele>101.75</ele><time>2026-03-29T10:42:03.975Z</time></trkpt><trkpt lat="45.418967" lon="10.5498429"><ele>102.5</ele><time>2026-03-29T10:42:04.974Z</time></trkpt><trkpt lat="45.4188894" lon="10.549714"><ele>103.25</ele><time>2026-03-29T10:42:05.974Z</time></trkpt><trkpt lat="45.4188141" lon="10.549584"><ele>104.0</ele><time>2026-03-29T10:42:06.975Z</time></trkpt><trkpt lat="45.4187475" lon="10.5494593"><ele>104.83333333333333</ele><time>2026-03-29T10:42:07.974Z</time></trkpt><trkpt lat="45.4186868" lon="10.5493422"><ele>105.66666666666666</ele><time>2026-03-29T10:42:08.975Z</time></trkpt><trkpt lat="45.4186266" lon="10.5492497"><ele>106.5</ele><time>2026-03-29T10:42:09.974Z</time></trkpt><trkpt lat="45.4185671" lon="10.5491815"><ele>107.33333333333334</ele><time>2026-03-29T10:42:10.975Z</time></trkpt><trkpt lat="45.4185066" lon="10.549145"><ele>108.16666666666667</ele><time>2026-03-29T10:42:11.975Z</time></trkpt><trkpt lat="45.4184236" lon="10.549151"><ele>109.0</ele><time>2026-03-29T10:42:12.974Z</time></trkpt><trkpt lat="45.4183268" lon="10.549193"><ele>109.00000000000001</ele><time>2026-03-29T10:42:13.974Z</time></trkpt><trkpt lat="45.4182234" lon="10.5492536"><ele>109.0</ele><time>2026-03-29T10:42:14.973Z</time></trkpt><trkpt lat="45.4181271" lon="10.5492916"><ele>109.0</ele><time>2026-03-29T10:42:15.973Z</time></trkpt><trkpt lat="45.4180477" lon="10.549295"><ele>109.0</ele><time>2026-03-29T10:42:16.974Z</time></trkpt><trkpt lat="45.4179872" lon="10.5492655"><ele>109.00000000000001</ele><time>2026-03-29T10:42:17.974Z</time></trkpt><trkpt lat="45.4179346" lon="10.5492037"><ele>109.0</ele><time>2026-03-29T10:42:18.973Z</time></trkpt><trkpt lat="45.417885" lon="10.5490973"><ele>108.80000000000001</ele><time>2026-03-29T10:42:19.974Z</time></trkpt><trkpt lat="45.4178405" lon="10.5489638"><ele>108.60000000000001</ele><time>2026-03-29T10:42:20.974Z</time></trkpt><trkpt lat="45.4177891" lon="10.5488172"><ele>108.4</ele><time>2026-03-29T10:42:21.974Z</time></trkpt><trkpt lat="45.4177392" lon="10.5486923"><ele>108.2</ele><time>2026-03-29T10:42:22.974Z</time></trkpt><trkpt lat="45.4176895" lon="10.5485802"><ele>108.0</ele><time>2026-03-29T10:42:23.973Z</time></trkpt><trkpt lat="45.4176446" lon="10.5484683"><ele>108.0</ele><time>2026-03-29T10:42:24.973Z</time></trkpt><trkpt lat="45.4176041" lon="10.5483683"><ele>108.0</ele><time>2026-03-29T10:42:25.973Z</time></trkpt><trkpt lat="45.4175659" lon="10.5482783"><ele>108.0</ele><time>2026-03-29T10:42:26.974Z</time></trkpt><trkpt lat="45.4175253" lon="10.5481454"><ele>108.0</ele><time>2026-03-29T10:42:28.974Z</time></trkpt><trkpt lat="45.4174593" lon="10.5480265"><ele>108.0</ele><time>2026-03-29T10:43:11.973Z</time></trkpt><trkpt lat="45.4174201" lon="10.547944"><ele>108.0</ele><time>2026-03-29T10:43:12.974Z</time></trkpt><trkpt lat="45.4173734" lon="10.5478347"><ele>107.75</ele><time>2026-03-29T10:43:13.974Z</time></trkpt><trkpt lat="45.4173247" lon="10.5477031"><ele>107.5</ele><time>2026-03-29T10:43:14.973Z</time></trkpt><trkpt lat="45.4172746" lon="10.5475571"><ele>107.25</ele><time>2026-03-29T10:43:15.973Z</time></trkpt><trkpt lat="45.4172163" lon="10.5473983"><ele>107.0</ele><time>2026-03-29T10:43:16.973Z</time></trkpt><trkpt lat="45.4171412" lon="10.5472184"><ele>106.66666666666666</ele><time>2026-03-29T10:43:17.973Z</time></trkpt><trkpt lat="45.4170537" lon="10.5470254"><ele>106.33333333333334</ele><time>2026-03-29T10:43:18.974Z</time></trkpt><trkpt lat="45.4169505" lon="10.5468121"><ele>106.0</ele><time>2026-03-29T10:43:19.974Z</time></trkpt><trkpt lat="45.4168344" lon="10.5466045"><ele>106.0</ele><time>2026-03-29T10:43:20.974Z</time></trkpt><trkpt lat="45.4166978" lon="10.5463968"><ele>106.0</ele><time>2026-03-29T10:43:21.974Z</time></trkpt><trkpt lat="45.4165411" lon="10.5461928"><ele>106.0</ele><time>2026-03-29T10:43:22.973Z</time></trkpt><trkpt lat="45.416377" lon="10.5459838"><ele>107.33333333333334</ele><time>2026-03-29T10:43:23.974Z</time></trkpt><trkpt lat="45.4162155" lon="10.5457829"><ele>108.66666666666666</ele><time>2026-03-29T10:43:24.973Z</time></trkpt><trkpt lat="45.4160685" lon="10.5455952"><ele>110.0</ele><time>2026-03-29T10:43:25.973Z</time></trkpt><trkpt lat="45.415936" lon="10.5454109"><ele>110.66666666666666</ele><time>2026-03-29T10:43:26.974Z</time></trkpt><trkpt lat="45.4158187" lon="10.545215"><ele>111.33333333333334</ele><time>2026-03-29T10:43:27.974Z</time></trkpt><trkpt lat="45.4157087" lon="10.5450117"><ele>112.0</ele><time>2026-03-29T10:43:28.973Z</time></trkpt><trkpt lat="45.4156162" lon="10.5448239"><ele>112.0</ele><time>2026-03-29T10:43:29.973Z</time></trkpt><trkpt lat="45.4155363" lon="10.5446616"><ele>111.99999999999999</ele><time>2026-03-29T10:43:30.973Z</time></trkpt><trkpt lat="45.4154713" lon="10.5445333"><ele>111.99999999999999</ele><time>2026-03-29T10:43:31.974Z</time></trkpt><trkpt lat="45.4154279" lon="10.5444407"><ele>112.0</ele><time>2026-03-29T10:43:32.973Z</time></trkpt><trkpt lat="45.4154098" lon="10.5443472"><ele>112.0</ele><time>2026-03-29T10:43:34.973Z</time></trkpt><trkpt lat="45.4155034" lon="10.5442728"><ele>112.5</ele><time>2026-03-29T10:43:36.973Z</time></trkpt><trkpt lat="45.4156085" lon="10.5442517"><ele>113.0</ele><time>2026-03-29T10:43:37.974Z</time></trkpt><trkpt lat="45.4157361" lon="10.5442332"><ele>113.5</ele><time>2026-03-29T10:43:38.973Z</time></trkpt><trkpt lat="45.4158843" lon="10.5441937"><ele>114.0</ele><time>2026-03-29T10:43:39.974Z</time></trkpt><trkpt lat="45.4160432" lon="10.5441434"><ele>114.0</ele><time>2026-03-29T10:43:40.973Z</time></trkpt><trkpt lat="45.4162175" lon="10.5440948"><ele>114.0</ele><time>2026-03-29T10:43:41.974Z</time></trkpt><trkpt lat="45.4163935" lon="10.5440491"><ele>114.0</ele><time>2026-03-29T10:43:42.973Z</time></trkpt><trkpt lat="45.4165664" lon="10.5439897"><ele>113.0</ele><time>2026-03-29T10:43:43.974Z</time></trkpt><trkpt lat="45.4167285" lon="10.5439153"><ele>112.0</ele><time>2026-03-29T10:43:44.973Z</time></trkpt><trkpt lat="45.416874" lon="10.543825"><ele>111.0</ele><time>2026-03-29T10:43:45.973Z</time></trkpt><trkpt lat="45.4170121" lon="10.5437075"><ele>111.0</ele><time>2026-03-29T10:43:46.974Z</time></trkpt><trkpt lat="45.4171347" lon="10.5435554"><ele>111.0</ele><time>2026-03-29T10:43:47.974Z</time></trkpt><trkpt lat="45.4172533" lon="10.5433788"><ele>111.0</ele><time>2026-03-29T10:43:48.973Z</time></trkpt><trkpt lat="45.4173608" lon="10.5431829"><ele>110.33333333333334</ele><time>2026-03-29T10:43:49.973Z</time></trkpt><trkpt lat="45.4174673" lon="10.5429701"><ele>109.66666666666667</ele><time>2026-03-29T10:43:50.974Z</time></trkpt><trkpt lat="45.4175749" lon="10.542752"><ele>109.0</ele><time>2026-03-29T10:43:51.973Z</time></trkpt><trkpt lat="45.4176821" lon="10.5425318"><ele>109.0</ele><time>2026-03-29T10:43:52.973Z</time></trkpt><trkpt lat="45.4177892" lon="10.5423102"><ele>109.0</ele><time>2026-03-29T10:43:53.973Z</time></trkpt><trkpt lat="45.4178926" lon="10.5420841"><ele>109.0</ele><time>2026-03-29T10:43:54.978Z</time></trkpt><trkpt lat="45.4179996" lon="10.5418719"><ele>109.0</ele><time>2026-03-29T10:43:55.976Z</time></trkpt><trkpt lat="45.4181002" lon="10.5416733"><ele>109.0</ele><time>2026-03-29T10:43:56.974Z</time></trkpt><trkpt lat="45.418202" lon="10.5415033"><ele>109.0</ele><time>2026-03-29T10:43:57.974Z</time></trkpt><trkpt lat="45.4183107" lon="10.5413402"><ele>110.33333333333334</ele><time>2026-03-29T10:43:58.974Z</time></trkpt><trkpt lat="45.4184295" lon="10.5411994"><ele>111.66666666666666</ele><time>2026-03-29T10:43:59.973Z</time></trkpt><trkpt lat="45.4185542" lon="10.5410776"><ele>113.0</ele><time>2026-03-29T10:44:00.973Z</time></trkpt><trkpt lat="45.4186752" lon="10.5409622"><ele>113.0</ele><time>2026-03-29T10:44:01.974Z</time></trkpt><trkpt lat="45.4187923" lon="10.5408529"><ele>113.0</ele><time>2026-03-29T10:44:02.973Z</time></trkpt><trkpt lat="45.4188926" lon="10.5407577"><ele>113.0</ele><time>2026-03-29T10:44:03.974Z</time></trkpt><trkpt lat="45.4189791" lon="10.5406748"><ele>113.0</ele><time>2026-03-29T10:44:04.973Z</time></trkpt><trkpt lat="45.4190681" lon="10.5406043"><ele>113.0</ele><time>2026-03-29T10:44:05.974Z</time></trkpt><trkpt lat="45.4191557" lon="10.5405332"><ele>113.00000000000001</ele><time>2026-03-29T10:44:06.976Z</time></trkpt><trkpt lat="45.4192379" lon="10.5404701"><ele>113.00000000000001</ele><time>2026-03-29T10:44:07.973Z</time></trkpt><trkpt lat="45.4193378" lon="10.5404056"><ele>113.0</ele><time>2026-03-29T10:44:08.973Z</time></trkpt><trkpt lat="45.4194416" lon="10.5403521"><ele>113.0</ele><time>2026-03-29T10:44:09.974Z</time></trkpt><trkpt lat="45.4195476" lon="10.5403013"><ele>113.75</ele><time>2026-03-29T10:44:10.973Z</time></trkpt><trkpt lat="45.4196535" lon="10.5402547"><ele>114.5</ele><time>2026-03-29T10:44:11.974Z</time></trkpt><trkpt lat="45.4197636" lon="10.5401908"><ele>115.25</ele><time>2026-03-29T10:44:12.973Z</time></trkpt><trkpt lat="45.4198798" lon="10.5401155"><ele>116.0</ele><time>2026-03-29T10:44:13.977Z</time></trkpt><trkpt lat="45.4200006" lon="10.5400249"><ele>116.0</ele><time>2026-03-29T10:44:14.974Z</time></trkpt><trkpt lat="45.4201285" lon="10.5399225"><ele>116.0</ele><time>2026-03-29T10:44:15.973Z</time></trkpt><trkpt lat="45.4202514" lon="10.5398082"><ele>116.0</ele><time>2026-03-29T10:44:16.974Z</time></trkpt><trkpt lat="45.4203755" lon="10.5396848"><ele>116.0</ele><time>2026-03-29T10:44:17.974Z</time></trkpt><trkpt lat="45.4204855" lon="10.5395564"><ele>117.25</ele><time>2026-03-29T10:44:18.974Z</time></trkpt><trkpt lat="45.4205776" lon="10.5394402"><ele>118.5</ele><time>2026-03-29T10:44:19.984Z</time></trkpt><trkpt lat="45.420693" lon="10.5393437"><ele>119.75</ele><time>2026-03-29T10:44:20.974Z</time></trkpt><trkpt lat="45.4208322" lon="10.5392712"><ele>121.0</ele><time>2026-03-29T10:44:21.974Z</time></trkpt><trkpt lat="45.4209819" lon="10.5392055"><ele>121.0</ele><time>2026-03-29T10:44:22.973Z</time></trkpt><trkpt lat="45.4211275" lon="10.5391418"><ele>121.0</ele><time>2026-03-29T10:44:23.974Z</time></trkpt><trkpt lat="45.4212816" lon="10.5390768"><ele>121.0</ele><time>2026-03-29T10:44:24.974Z</time></trkpt><trkpt lat="45.4214325" lon="10.5390107"><ele>120.5</ele><time>2026-03-29T10:44:25.976Z</time></trkpt><trkpt lat="45.4215634" lon="10.5389502"><ele>120.0</ele><time>2026-03-29T10:44:26.976Z</time></trkpt><trkpt lat="45.4216754" lon="10.5388955"><ele>119.5</ele><time>2026-03-29T10:44:27.973Z</time></trkpt><trkpt lat="45.4217877" lon="10.5388456"><ele>119.0</ele><time>2026-03-29T10:44:28.973Z</time></trkpt><trkpt lat="45.4218759" lon="10.5388031"><ele>119.0</ele><time>2026-03-29T10:44:29.974Z</time></trkpt><trkpt lat="45.4219767" lon="10.538743"><ele>119.0</ele><time>2026-03-29T10:44:30.974Z</time></trkpt><trkpt lat="45.4220766" lon="10.5386765"><ele>119.0</ele><time>2026-03-29T10:44:31.974Z</time></trkpt><trkpt lat="45.4221875" lon="10.5386103"><ele>119.0</ele><time>2026-03-29T10:44:32.974Z</time></trkpt><trkpt lat="45.4223192" lon="10.5385418"><ele>120.66666666666666</ele><time>2026-03-29T10:44:33.974Z</time></trkpt><trkpt lat="45.422451" lon="10.5384667"><ele>122.33333333333334</ele><time>2026-03-29T10:44:34.974Z</time></trkpt><trkpt lat="45.4225898" lon="10.538393"><ele>124.0</ele><time>2026-03-29T10:44:35.973Z</time></trkpt><trkpt lat="45.4227469" lon="10.5383222"><ele>124.0</ele><time>2026-03-29T10:44:36.975Z</time></trkpt><trkpt lat="45.4229116" lon="10.5382618"><ele>124.0</ele><time>2026-03-29T10:44:37.973Z</time></trkpt><trkpt lat="45.423079" lon="10.5382038"><ele>124.0</ele><time>2026-03-29T10:44:38.975Z</time></trkpt><trkpt lat="45.4232498" lon="10.5381433"><ele>124.66666666666667</ele><time>2026-03-29T10:44:39.974Z</time></trkpt><trkpt lat="45.4234182" lon="10.5380814"><ele>125.33333333333334</ele><time>2026-03-29T10:44:40.974Z</time></trkpt><trkpt lat="45.4235844" lon="10.5380245"><ele>126.0</ele><time>2026-03-29T10:44:41.973Z</time></trkpt><trkpt lat="45.4237455" lon="10.5379733"><ele>125.33333333333334</ele><time>2026-03-29T10:44:42.974Z</time></trkpt><trkpt lat="45.4239043" lon="10.5379323"><ele>124.66666666666667</ele><time>2026-03-29T10:44:43.974Z</time></trkpt><trkpt lat="45.4240567" lon="10.5379153"><ele>124.0</ele><time>2026-03-29T10:44:44.974Z</time></trkpt><trkpt lat="45.4242036" lon="10.5379088"><ele>124.0</ele><time>2026-03-29T10:44:45.973Z</time></trkpt><trkpt lat="45.4243413" lon="10.5379196"><ele>124.0</ele><time>2026-03-29T10:44:46.973Z</time></trkpt><trkpt lat="45.4244864" lon="10.537955"><ele>124.0</ele><time>2026-03-29T10:44:47.974Z</time></trkpt><trkpt lat="45.424622" lon="10.5380219"><ele>124.0</ele><time>2026-03-29T10:44:48.974Z</time></trkpt><trkpt lat="45.4247503" lon="10.538126"><ele>122.66666666666667</ele><time>2026-03-29T10:44:49.974Z</time></trkpt><trkpt lat="45.4248711" lon="10.5382679"><ele>121.33333333333334</ele><time>2026-03-29T10:44:50.974Z</time></trkpt><trkpt lat="45.4250047" lon="10.538394"><ele>120.0</ele><time>2026-03-29T10:44:51.974Z</time></trkpt><trkpt lat="45.4251458" lon="10.5385032"><ele>120.0</ele><time>2026-03-29T10:44:52.974Z</time></trkpt><trkpt lat="45.4252898" lon="10.5385935"><ele>120.0</ele><time>2026-03-29T10:44:53.974Z</time></trkpt><trkpt lat="45.4254386" lon="10.5386668"><ele>120.0</ele><time>2026-03-29T10:44:54.974Z</time></trkpt><trkpt lat="45.4256009" lon="10.5387227"><ele>117.66666666666666</ele><time>2026-03-29T10:44:55.974Z</time></trkpt><trkpt lat="45.4257614" lon="10.5387707"><ele>115.33333333333333</ele><time>2026-03-29T10:44:56.973Z</time></trkpt><trkpt lat="45.4259108" lon="10.5388056"><ele>113.0</ele><time>2026-03-29T10:44:57.974Z</time></trkpt><trkpt lat="45.4260543" lon="10.5388227"><ele>113.0</ele><time>2026-03-29T10:44:58.973Z</time></trkpt><trkpt lat="45.4262093" lon="10.5388152"><ele>113.0</ele><time>2026-03-29T10:44:59.974Z</time></trkpt><trkpt lat="45.4263634" lon="10.5387913"><ele>113.0</ele><time>2026-03-29T10:45:00.974Z</time></trkpt><trkpt lat="45.426528" lon="10.5387777"><ele>113.0</ele><time>2026-03-29T10:45:01.975Z</time></trkpt><trkpt lat="45.4266947" lon="10.5387623"><ele>113.0</ele><time>2026-03-29T10:45:02.974Z</time></trkpt><trkpt lat="45.4268575" lon="10.5387574"><ele>113.0</ele><time>2026-03-29T10:45:03.974Z</time></trkpt><trkpt lat="45.4270173" lon="10.5387468"><ele>112.80000000000001</ele><time>2026-03-29T10:45:04.973Z</time></trkpt><trkpt lat="45.427163" lon="10.538734"><ele>112.60000000000001</ele><time>2026-03-29T10:45:05.973Z</time></trkpt><trkpt lat="45.4272884" lon="10.5387282"><ele>112.39999999999999</ele><time>2026-03-29T10:45:06.974Z</time></trkpt><trkpt lat="45.4273869" lon="10.5387277"><ele>112.19999999999999</ele><time>2026-03-29T10:45:07.974Z</time></trkpt><trkpt lat="45.4274595" lon="10.5387577"><ele>112.0</ele><time>2026-03-29T10:45:08.973Z</time></trkpt><trkpt lat="45.4275306" lon="10.5388185"><ele>112.0</ele><time>2026-03-29T10:45:09.973Z</time></trkpt><trkpt lat="45.4276017" lon="10.5389291"><ele>112.0</ele><time>2026-03-29T10:45:10.974Z</time></trkpt><trkpt lat="45.4276704" lon="10.5390636"><ele>112.0</ele><time>2026-03-29T10:45:11.973Z</time></trkpt><trkpt lat="45.4277524" lon="10.5392174"><ele>112.0</ele><time>2026-03-29T10:45:12.973Z</time></trkpt><trkpt lat="45.427842" lon="10.5393801"><ele>112.0</ele><time>2026-03-29T10:45:13.974Z</time></trkpt><trkpt lat="45.4279391" lon="10.5395459"><ele>112.0</ele><time>2026-03-29T10:45:14.973Z</time></trkpt><trkpt lat="45.428033" lon="10.5397124"><ele>112.0</ele><time>2026-03-29T10:45:15.973Z</time></trkpt><trkpt lat="45.4281247" lon="10.5398835"><ele>111.0</ele><time>2026-03-29T10:45:16.974Z</time></trkpt><trkpt lat="45.428216" lon="10.5400471"><ele>110.0</ele><time>2026-03-29T10:45:17.974Z</time></trkpt><trkpt lat="45.428307" lon="10.5402045"><ele>109.0</ele><time>2026-03-29T10:45:18.973Z</time></trkpt><trkpt lat="45.4283973" lon="10.5403661"><ele>108.0</ele><time>2026-03-29T10:45:19.974Z</time></trkpt><trkpt lat="45.4284863" lon="10.540528"><ele>106.66666666666666</ele><time>2026-03-29T10:45:20.974Z</time></trkpt><trkpt lat="45.4285797" lon="10.5406902"><ele>105.33333333333333</ele><time>2026-03-29T10:45:21.974Z</time></trkpt><trkpt lat="45.4286787" lon="10.5408585"><ele>104.0</ele><time>2026-03-29T10:45:22.973Z</time></trkpt><trkpt lat="45.4287749" lon="10.5410287"><ele>104.66666666666666</ele><time>2026-03-29T10:45:23.974Z</time></trkpt><trkpt lat="45.428873" lon="10.5411997"><ele>105.33333333333334</ele><time>2026-03-29T10:45:24.973Z</time></trkpt><trkpt lat="45.4289702" lon="10.5413745"><ele>106.0</ele><time>2026-03-29T10:45:25.973Z</time></trkpt><trkpt lat="45.4290665" lon="10.5415528"><ele>106.0</ele><time>2026-03-29T10:45:26.973Z</time></trkpt><trkpt lat="45.4291678" lon="10.5417327"><ele>106.0</ele><time>2026-03-29T10:45:27.974Z</time></trkpt><trkpt lat="45.4292713" lon="10.5419139"><ele>106.0</ele><time>2026-03-29T10:45:28.974Z</time></trkpt><trkpt lat="45.4293728" lon="10.5420966"><ele>106.0</ele><time>2026-03-29T10:45:29.973Z</time></trkpt><trkpt lat="45.4294742" lon="10.542274"><ele>106.0</ele><time>2026-03-29T10:45:30.974Z</time></trkpt><trkpt lat="45.4295748" lon="10.5424531"><ele>106.0</ele><time>2026-03-29T10:45:31.974Z</time></trkpt><trkpt lat="45.4296738" lon="10.5426231"><ele>106.0</ele><time>2026-03-29T10:45:32.974Z</time></trkpt><trkpt lat="45.4297626" lon="10.5427803"><ele>106.0</ele><time>2026-03-29T10:45:33.975Z</time></trkpt><trkpt lat="45.4298397" lon="10.54292"><ele>106.0</ele><time>2026-03-29T10:45:34.974Z</time></trkpt><trkpt lat="45.4299074" lon="10.5430459"><ele>106.0</ele><time>2026-03-29T10:45:35.979Z</time></trkpt><trkpt lat="45.4299652" lon="10.5431572"><ele>105.83333333333334</ele><time>2026-03-29T10:45:36.975Z</time></trkpt><trkpt lat="45.4300188" lon="10.5432307"><ele>105.66666666666667</ele><time>2026-03-29T10:45:37.974Z</time></trkpt><trkpt lat="45.4300609" lon="10.5433087"><ele>105.5</ele><time>2026-03-29T10:45:38.975Z</time></trkpt><trkpt lat="45.4301148" lon="10.5434163"><ele>105.33333333333334</ele><time>2026-03-29T10:45:40.973Z</time></trkpt><trkpt lat="45.4301489" lon="10.5434941"><ele>105.16666666666667</ele><time>2026-03-29T10:45:57.973Z</time></trkpt><trkpt lat="45.4302045" lon="10.5435975"><ele>105.0</ele><time>2026-03-29T10:45:59.974Z</time></trkpt><trkpt lat="45.4302886" lon="10.5437363"><ele>105.0</ele><time>2026-03-29T10:46:01.974Z</time></trkpt><trkpt lat="45.4303368" lon="10.5438237"><ele>105.0</ele><time>2026-03-29T10:46:02.974Z</time></trkpt><trkpt lat="45.4303926" lon="10.5439322"><ele>105.0</ele><time>2026-03-29T10:46:03.974Z</time></trkpt><trkpt lat="45.4304491" lon="10.5440471"><ele>105.0</ele><time>2026-03-29T10:46:04.973Z</time></trkpt><trkpt lat="45.4305129" lon="10.54417"><ele>105.0</ele><time>2026-03-29T10:46:05.974Z</time></trkpt><trkpt lat="45.4305827" lon="10.5443016"><ele>105.0</ele><time>2026-03-29T10:46:06.974Z</time></trkpt><trkpt lat="45.4306531" lon="10.5444282"><ele>105.0</ele><time>2026-03-29T10:46:07.974Z</time></trkpt><trkpt lat="45.4307246" lon="10.5445592"><ele>105.0</ele><time>2026-03-29T10:46:08.974Z</time></trkpt><trkpt lat="45.430793" lon="10.5447061"><ele>105.0</ele><time>2026-03-29T10:46:09.974Z</time></trkpt><trkpt lat="45.4308619" lon="10.5448631"><ele>105.0</ele><time>2026-03-29T10:46:10.973Z</time></trkpt><trkpt lat="45.4309275" lon="10.5450223"><ele>105.0</ele><time>2026-03-29T10:46:11.973Z</time></trkpt><trkpt lat="45.4309894" lon="10.5451915"><ele>105.0</ele><time>2026-03-29T10:46:12.973Z</time></trkpt><trkpt lat="45.4310492" lon="10.5453571"><ele>105.0</ele><time>2026-03-29T10:46:13.974Z</time></trkpt><trkpt lat="45.4311096" lon="10.5455181"><ele>105.0</ele><time>2026-03-29T10:46:14.973Z</time></trkpt><trkpt lat="45.4311726" lon="10.5456784"><ele>105.0</ele><time>2026-03-29T10:46:15.974Z</time></trkpt><trkpt lat="45.4312352" lon="10.5458348"><ele>105.0</ele><time>2026-03-29T10:46:16.974Z</time></trkpt><trkpt lat="45.4312885" lon="10.545982"><ele>105.0</ele><time>2026-03-29T10:46:17.974Z</time></trkpt><trkpt lat="45.4313314" lon="10.5461095"><ele>105.16666666666667</ele><time>2026-03-29T10:46:18.974Z</time></trkpt><trkpt lat="45.431351" lon="10.5462258"><ele>105.33333333333334</ele><time>2026-03-29T10:46:19.973Z</time></trkpt><trkpt lat="45.4313406" lon="10.5463269"><ele>105.5</ele><time>2026-03-29T10:46:20.973Z</time></trkpt><trkpt lat="45.4313211" lon="10.5464269"><ele>105.66666666666667</ele><time>2026-03-29T10:46:21.974Z</time></trkpt><trkpt lat="45.4312893" lon="10.5465109"><ele>105.83333333333334</ele><time>2026-03-29T10:46:22.974Z</time></trkpt><trkpt lat="45.4312608" lon="10.5466164"><ele>106.0</ele><time>2026-03-29T10:46:23.974Z</time></trkpt><trkpt lat="45.4313149" lon="10.5467008"><ele>106.0</ele><time>2026-03-29T10:46:24.973Z</time></trkpt><trkpt lat="45.4313563" lon="10.5467997"><ele>106.0</ele><time>2026-03-29T10:46:25.973Z</time></trkpt><trkpt lat="45.4314302" lon="10.5468887"><ele>106.0</ele><time>2026-03-29T10:46:26.973Z</time></trkpt><trkpt lat="45.4314996" lon="10.5469942"><ele>106.0</ele><time>2026-03-29T10:46:27.974Z</time></trkpt><trkpt lat="45.4315647" lon="10.5471149"><ele>106.0</ele><time>2026-03-29T10:46:28.975Z</time></trkpt><trkpt lat="45.4316383" lon="10.547236"><ele>106.5</ele><time>2026-03-29T10:46:29.974Z</time></trkpt><trkpt lat="45.4317152" lon="10.5473614"><ele>107.0</ele><time>2026-03-29T10:46:30.974Z</time></trkpt><trkpt lat="45.4317989" lon="10.5474825"><ele>107.5</ele><time>2026-03-29T10:46:31.974Z</time></trkpt><trkpt lat="45.4318939" lon="10.5476048"><ele>108.0</ele><time>2026-03-29T10:46:32.973Z</time></trkpt><trkpt lat="45.4319901" lon="10.5477265"><ele>108.0</ele><time>2026-03-29T10:46:33.974Z</time></trkpt><trkpt lat="45.4320824" lon="10.5478469"><ele>108.0</ele><time>2026-03-29T10:46:34.974Z</time></trkpt><trkpt lat="45.4321785" lon="10.5479636"><ele>108.0</ele><time>2026-03-29T10:46:35.973Z</time></trkpt><trkpt lat="45.4322763" lon="10.5480825"><ele>108.0</ele><time>2026-03-29T10:46:36.974Z</time></trkpt><trkpt lat="45.4323693" lon="10.5482062"><ele>108.25</ele><time>2026-03-29T10:46:37.974Z</time></trkpt><trkpt lat="45.4324591" lon="10.5483389"><ele>108.5</ele><time>2026-03-29T10:46:38.974Z</time></trkpt><trkpt lat="45.4325475" lon="10.5484658"><ele>108.75</ele><time>2026-03-29T10:46:39.974Z</time></trkpt><trkpt lat="45.4326384" lon="10.5485907"><ele>109.0</ele><time>2026-03-29T10:46:40.974Z</time></trkpt><trkpt lat="45.4327366" lon="10.5487054"><ele>109.2</ele><time>2026-03-29T10:46:41.974Z</time></trkpt><trkpt lat="45.4328455" lon="10.5488007"><ele>109.4</ele><time>2026-03-29T10:46:42.973Z</time></trkpt><trkpt lat="45.4329525" lon="10.5488825"><ele>109.6</ele><time>2026-03-29T10:46:43.973Z</time></trkpt><trkpt lat="45.4330506" lon="10.5489405"><ele>109.8</ele><time>2026-03-29T10:46:44.973Z</time></trkpt><trkpt lat="45.4331318" lon="10.5490001"><ele>110.0</ele><time>2026-03-29T10:46:45.973Z</time></trkpt><trkpt lat="45.433186" lon="10.5490862"><ele>109.99999999999999</ele><time>2026-03-29T10:46:46.973Z</time></trkpt><trkpt lat="45.4332122" lon="10.5491779"><ele>110.0</ele><time>2026-03-29T10:46:47.973Z</time></trkpt><trkpt lat="45.4332623" lon="10.5493373"><ele>110.0</ele><time>2026-03-29T10:46:49.973Z</time></trkpt><trkpt lat="45.4333279" lon="10.5493688"><ele>110.0</ele><time>2026-03-29T10:46:50.974Z</time></trkpt><trkpt lat="45.4334029" lon="10.5493595"><ele>109.99999999999999</ele><time>2026-03-29T10:46:51.974Z</time></trkpt><trkpt lat="45.4334728" lon="10.5493099"><ele>110.0</ele><time>2026-03-29T10:46:52.974Z</time></trkpt><trkpt lat="45.4335537" lon="10.5492321"><ele>110.0</ele><time>2026-03-29T10:46:53.974Z</time></trkpt><trkpt lat="45.4336478" lon="10.5491782"><ele>110.0</ele><time>2026-03-29T10:46:54.974Z</time></trkpt><trkpt lat="45.4337539" lon="10.5491223"><ele>110.0</ele><time>2026-03-29T10:46:55.974Z</time></trkpt><trkpt lat="45.4338607" lon="10.5490564"><ele>110.0</ele><time>2026-03-29T10:46:56.974Z</time></trkpt><trkpt lat="45.4339675" lon="10.5489751"><ele>110.25</ele><time>2026-03-29T10:46:57.973Z</time></trkpt><trkpt lat="45.4340782" lon="10.5488849"><ele>110.5</ele><time>2026-03-29T10:46:58.973Z</time></trkpt><trkpt lat="45.4341905" lon="10.5487879"><ele>110.75</ele><time>2026-03-29T10:46:59.974Z</time></trkpt><trkpt lat="45.4343056" lon="10.548687"><ele>111.0</ele><time>2026-03-29T10:47:00.974Z</time></trkpt><trkpt lat="45.4344193" lon="10.5485748"><ele>111.0</ele><time>2026-03-29T10:47:01.974Z</time></trkpt><trkpt lat="45.4345299" lon="10.5484528"><ele>111.0</ele><time>2026-03-29T10:47:02.974Z</time></trkpt><trkpt lat="45.4346413" lon="10.5483278"><ele>111.0</ele><time>2026-03-29T10:47:03.975Z</time></trkpt><trkpt lat="45.434732" lon="10.5482176"><ele>111.0</ele><time>2026-03-29T10:47:04.974Z</time></trkpt><trkpt lat="45.4348124" lon="10.5481163"><ele>111.0</ele><time>2026-03-29T10:47:05.974Z</time></trkpt><trkpt lat="45.4348824" lon="10.5480347"><ele>111.0</ele><time>2026-03-29T10:47:06.974Z</time></trkpt><trkpt lat="45.4349376" lon="10.5479709"><ele>111.0</ele><time>2026-03-29T10:47:07.973Z</time></trkpt><trkpt lat="45.4350191" lon="10.5478288"><ele>111.0</ele><time>2026-03-29T10:47:09.974Z</time></trkpt><trkpt lat="45.4350543" lon="10.5477313"><ele>111.0</ele><time>2026-03-29T10:47:10.973Z</time></trkpt><trkpt lat="45.43509" lon="10.5476172"><ele>110.8</ele><time>2026-03-29T10:47:11.974Z</time></trkpt><trkpt lat="45.4351343" lon="10.5474921"><ele>110.6</ele><time>2026-03-29T10:47:12.974Z</time></trkpt><trkpt lat="45.4351834" lon="10.5473584"><ele>110.4</ele><time>2026-03-29T10:47:13.973Z</time></trkpt><trkpt lat="45.435236" lon="10.547219"><ele>110.2</ele><time>2026-03-29T10:47:14.975Z</time></trkpt><trkpt lat="45.4352946" lon="10.5470792"><ele>110.0</ele><time>2026-03-29T10:47:15.974Z</time></trkpt><trkpt lat="45.4353593" lon="10.54694"><ele>110.0</ele><time>2026-03-29T10:47:16.973Z</time></trkpt><trkpt lat="45.4354284" lon="10.5468105"><ele>110.0</ele><time>2026-03-29T10:47:17.974Z</time></trkpt><trkpt lat="45.4355024" lon="10.5466824"><ele>110.0</ele><time>2026-03-29T10:47:18.974Z</time></trkpt><trkpt lat="45.4355792" lon="10.5465564"><ele>110.0</ele><time>2026-03-29T10:47:19.974Z</time></trkpt><trkpt lat="45.4356575" lon="10.5464296"><ele>109.25</ele><time>2026-03-29T10:47:20.973Z</time></trkpt><trkpt lat="45.4357409" lon="10.5463013"><ele>108.5</ele><time>2026-03-29T10:47:21.974Z</time></trkpt><trkpt lat="45.4358246" lon="10.5461779"><ele>107.75</ele><time>2026-03-29T10:47:22.974Z</time></trkpt><trkpt lat="45.4359085" lon="10.5460562"><ele>107.0</ele><time>2026-03-29T10:47:23.974Z</time></trkpt><trkpt lat="45.4359917" lon="10.5459342"><ele>107.0</ele><time>2026-03-29T10:47:24.974Z</time></trkpt><trkpt lat="45.436079" lon="10.5458055"><ele>107.0</ele><time>2026-03-29T10:47:25.974Z</time></trkpt><trkpt lat="45.4361701" lon="10.5456784"><ele>107.0</ele><time>2026-03-29T10:47:26.974Z</time></trkpt><trkpt lat="45.436257" lon="10.545551"><ele>107.0</ele><time>2026-03-29T10:47:27.973Z</time></trkpt><trkpt lat="45.4363461" lon="10.5454242"><ele>107.0</ele><time>2026-03-29T10:47:28.974Z</time></trkpt><trkpt lat="45.4364342" lon="10.5452942"><ele>107.0</ele><time>2026-03-29T10:47:29.974Z</time></trkpt><trkpt lat="45.4365237" lon="10.5451678"><ele>107.0</ele><time>2026-03-29T10:47:30.974Z</time></trkpt><trkpt lat="45.4366169" lon="10.5450328"><ele>107.0</ele><time>2026-03-29T10:47:31.974Z</time></trkpt><trkpt lat="45.4367115" lon="10.5448888"><ele>107.0</ele><time>2026-03-29T10:47:32.973Z</time></trkpt><trkpt lat="45.4368113" lon="10.5447386"><ele>107.0</ele><time>2026-03-29T10:47:33.973Z</time></trkpt><trkpt lat="45.4369179" lon="10.5445783"><ele>107.0</ele><time>2026-03-29T10:47:34.974Z</time></trkpt><trkpt lat="45.4370285" lon="10.5444145"><ele>106.33333333333333</ele><time>2026-03-29T10:47:35.974Z</time></trkpt><trkpt lat="45.4371421" lon="10.5442537"><ele>105.66666666666666</ele><time>2026-03-29T10:47:36.974Z</time></trkpt><trkpt lat="45.4372474" lon="10.5440943"><ele>105.0</ele><time>2026-03-29T10:47:37.974Z</time></trkpt><trkpt lat="45.4373479" lon="10.5439323"><ele>105.0</ele><time>2026-03-29T10:47:38.974Z</time></trkpt><trkpt lat="45.4374403" lon="10.5437651"><ele>105.0</ele><time>2026-03-29T10:47:39.974Z</time></trkpt><trkpt lat="45.4375291" lon="10.5435908"><ele>105.0</ele><time>2026-03-29T10:47:40.973Z</time></trkpt><trkpt lat="45.4376172" lon="10.5434192"><ele>105.5</ele><time>2026-03-29T10:47:41.973Z</time></trkpt><trkpt lat="45.4377054" lon="10.5432476"><ele>106.0</ele><time>2026-03-29T10:47:42.974Z</time></trkpt><trkpt lat="45.4377902" lon="10.543079"><ele>106.5</ele><time>2026-03-29T10:47:43.974Z</time></trkpt><trkpt lat="45.4378731" lon="10.5429127"><ele>107.0</ele><time>2026-03-29T10:47:44.974Z</time></trkpt><trkpt lat="45.437956" lon="10.5427519"><ele>107.0</ele><time>2026-03-29T10:47:45.974Z</time></trkpt><trkpt lat="45.4380397" lon="10.5425928"><ele>107.0</ele><time>2026-03-29T10:47:46.974Z</time></trkpt><trkpt lat="45.4381238" lon="10.5424279"><ele>107.0</ele><time>2026-03-29T10:47:47.974Z</time></trkpt><trkpt lat="45.4382037" lon="10.542256"><ele>107.0</ele><time>2026-03-29T10:47:48.973Z</time></trkpt><trkpt lat="45.4382917" lon="10.5420871"><ele>106.75</ele><time>2026-03-29T10:47:49.973Z</time></trkpt><trkpt lat="45.4383818" lon="10.5419214"><ele>106.5</ele><time>2026-03-29T10:47:50.972Z</time></trkpt><trkpt lat="45.4384716" lon="10.5417555"><ele>106.25</ele><time>2026-03-29T10:47:51.973Z</time></trkpt><trkpt lat="45.4385609" lon="10.5415881"><ele>106.0</ele><time>2026-03-29T10:47:52.973Z</time></trkpt><trkpt lat="45.4386513" lon="10.5414251"><ele>106.0</ele><time>2026-03-29T10:47:53.973Z</time></trkpt><trkpt lat="45.4387502" lon="10.5412656"><ele>106.0</ele><time>2026-03-29T10:47:54.974Z</time></trkpt><trkpt lat="45.4388467" lon="10.5411038"><ele>106.0</ele><time>2026-03-29T10:47:55.974Z</time></trkpt><trkpt lat="45.4389487" lon="10.5409428"><ele>106.25</ele><time>2026-03-29T10:47:56.973Z</time></trkpt><trkpt lat="45.4390455" lon="10.5407946"><ele>106.5</ele><time>2026-03-29T10:47:57.974Z</time></trkpt><trkpt lat="45.439143" lon="10.5406317"><ele>106.75</ele><time>2026-03-29T10:47:58.972Z</time></trkpt><trkpt lat="45.439239" lon="10.5404723"><ele>107.0</ele><time>2026-03-29T10:47:59.972Z</time></trkpt><trkpt lat="45.4393196" lon="10.5403053"><ele>107.0</ele><time>2026-03-29T10:48:00.972Z</time></trkpt><trkpt lat="45.4394029" lon="10.5401269"><ele>107.0</ele><time>2026-03-29T10:48:01.973Z</time></trkpt><trkpt lat="45.4394758" lon="10.5399419"><ele>107.0</ele><time>2026-03-29T10:48:02.974Z</time></trkpt><trkpt lat="45.439542" lon="10.5397665"><ele>107.0</ele><time>2026-03-29T10:48:03.975Z</time></trkpt><trkpt lat="45.4395977" lon="10.5395871"><ele>106.75</ele><time>2026-03-29T10:48:04.974Z</time></trkpt><trkpt lat="45.4396496" lon="10.5393929"><ele>106.5</ele><time>2026-03-29T10:48:05.972Z</time></trkpt><trkpt lat="45.439695" lon="10.5392093"><ele>106.25</ele><time>2026-03-29T10:48:06.974Z</time></trkpt><trkpt lat="45.4397519" lon="10.5390319"><ele>106.0</ele><time>2026-03-29T10:48:07.973Z</time></trkpt><trkpt lat="45.4398212" lon="10.5388634"><ele>106.0</ele><time>2026-03-29T10:48:08.974Z</time></trkpt><trkpt lat="45.4398923" lon="10.5386868"><ele>106.0</ele><time>2026-03-29T10:48:09.973Z</time></trkpt><trkpt lat="45.4399595" lon="10.5385098"><ele>106.0</ele><time>2026-03-29T10:48:10.973Z</time></trkpt><trkpt lat="45.4400277" lon="10.5383266"><ele>106.0</ele><time>2026-03-29T10:48:11.973Z</time></trkpt><trkpt lat="45.4400999" lon="10.5381467"><ele>106.0</ele><time>2026-03-29T10:48:12.972Z</time></trkpt><trkpt lat="45.4401724" lon="10.5379641"><ele>106.0</ele><time>2026-03-29T10:48:13.972Z</time></trkpt><trkpt lat="45.4402487" lon="10.5377817"><ele>106.0</ele><time>2026-03-29T10:48:14.972Z</time></trkpt><trkpt lat="45.4403321" lon="10.5376073"><ele>106.0</ele><time>2026-03-29T10:48:15.973Z</time></trkpt><trkpt lat="45.4404165" lon="10.5374276"><ele>106.25</ele><time>2026-03-29T10:48:16.973Z</time></trkpt><trkpt lat="45.4405006" lon="10.5372543"><ele>106.5</ele><time>2026-03-29T10:48:17.973Z</time></trkpt><trkpt lat="45.4405842" lon="10.5370777"><ele>106.75</ele><time>2026-03-29T10:48:18.973Z</time></trkpt><trkpt lat="45.4406707" lon="10.5369075"><ele>107.0</ele><time>2026-03-29T10:48:19.973Z</time></trkpt><trkpt lat="45.4407516" lon="10.5367348"><ele>107.25</ele><time>2026-03-29T10:48:20.972Z</time></trkpt><trkpt lat="45.4408341" lon="10.5365695"><ele>107.5</ele><time>2026-03-29T10:48:21.973Z</time></trkpt><trkpt lat="45.4409129" lon="10.5364071"><ele>107.75</ele><time>2026-03-29T10:48:22.973Z</time></trkpt><trkpt lat="45.4409949" lon="10.5362459"><ele>108.0</ele><time>2026-03-29T10:48:23.972Z</time></trkpt><trkpt lat="45.4410753" lon="10.5360843"><ele>108.25</ele><time>2026-03-29T10:48:24.973Z</time></trkpt><trkpt lat="45.4411536" lon="10.5359227"><ele>108.5</ele><time>2026-03-29T10:48:25.973Z</time></trkpt><trkpt lat="45.4412342" lon="10.5357678"><ele>108.75</ele><time>2026-03-29T10:48:26.973Z</time></trkpt><trkpt lat="45.4413155" lon="10.5356106"><ele>109.0</ele><time>2026-03-29T10:48:27.973Z</time></trkpt><trkpt lat="45.4414016" lon="10.5354501"><ele>108.75</ele><time>2026-03-29T10:48:28.973Z</time></trkpt><trkpt lat="45.4414861" lon="10.5352894"><ele>108.5</ele><time>2026-03-29T10:48:29.973Z</time></trkpt><trkpt lat="45.4415713" lon="10.5351278"><ele>108.25</ele><time>2026-03-29T10:48:30.973Z</time></trkpt><trkpt lat="45.441664" lon="10.5349574"><ele>108.0</ele><time>2026-03-29T10:48:31.972Z</time></trkpt><trkpt lat="45.4417488" lon="10.5347998"><ele>108.0</ele><time>2026-03-29T10:48:32.972Z</time></trkpt><trkpt lat="45.4418259" lon="10.5346456"><ele>108.00000000000001</ele><time>2026-03-29T10:48:33.972Z</time></trkpt><trkpt lat="45.4418906" lon="10.53451"><ele>108.00000000000001</ele><time>2026-03-29T10:48:34.973Z</time></trkpt><trkpt lat="45.4419366" lon="10.5344004"><ele>108.0</ele><time>2026-03-29T10:48:35.973Z</time></trkpt><trkpt lat="45.4419591" lon="10.5343025"><ele>108.0</ele><time>2026-03-29T10:48:36.972Z</time></trkpt><trkpt lat="45.4419615" lon="10.5342008"><ele>108.25</ele><time>2026-03-29T10:48:37.972Z</time></trkpt><trkpt lat="45.4419272" lon="10.5341016"><ele>108.5</ele><time>2026-03-29T10:48:38.973Z</time></trkpt><trkpt lat="45.441857" lon="10.533991"><ele>108.75</ele><time>2026-03-29T10:48:39.973Z</time></trkpt><trkpt lat="45.4417509" lon="10.5338855"><ele>109.0</ele><time>2026-03-29T10:48:40.973Z</time></trkpt><trkpt lat="45.4416208" lon="10.5337704"><ele>109.66666666666667</ele><time>2026-03-29T10:48:41.973Z</time></trkpt><trkpt lat="45.4414811" lon="10.5336083"><ele>110.33333333333334</ele><time>2026-03-29T10:48:42.974Z</time></trkpt><trkpt lat="45.4413319" lon="10.5334206"><ele>111.0</ele><time>2026-03-29T10:48:43.972Z</time></trkpt><trkpt lat="45.441168" lon="10.5332209"><ele>110.33333333333334</ele><time>2026-03-29T10:48:44.972Z</time></trkpt><trkpt lat="45.4409927" lon="10.5330231"><ele>109.66666666666667</ele><time>2026-03-29T10:48:45.972Z</time></trkpt><trkpt lat="45.4408379" lon="10.5328483"><ele>109.0</ele><time>2026-03-29T10:48:46.973Z</time></trkpt><trkpt lat="45.4406962" lon="10.5326868"><ele>109.0</ele><time>2026-03-29T10:48:47.973Z</time></trkpt><trkpt lat="45.4405787" lon="10.532556"><ele>109.0</ele><time>2026-03-29T10:48:48.972Z</time></trkpt><trkpt lat="45.4404767" lon="10.5324422"><ele>109.0</ele><time>2026-03-29T10:48:49.972Z</time></trkpt><trkpt lat="45.44039" lon="10.5323555"><ele>109.0</ele><time>2026-03-29T10:48:50.972Z</time></trkpt><trkpt lat="45.4403056" lon="10.5322993"><ele>108.75</ele><time>2026-03-29T10:48:51.972Z</time></trkpt><trkpt lat="45.440201" lon="10.5322728"><ele>108.5</ele><time>2026-03-29T10:48:52.972Z</time></trkpt><trkpt lat="45.4400693" lon="10.5322831"><ele>108.25</ele><time>2026-03-29T10:48:53.972Z</time></trkpt><trkpt lat="45.4399169" lon="10.5323142"><ele>108.0</ele><time>2026-03-29T10:48:54.972Z</time></trkpt><trkpt lat="45.439739" lon="10.5323646"><ele>108.66666666666666</ele><time>2026-03-29T10:48:55.972Z</time></trkpt><trkpt lat="45.4395535" lon="10.5323987"><ele>109.33333333333333</ele><time>2026-03-29T10:48:56.973Z</time></trkpt><trkpt lat="45.4393496" lon="10.5324319"><ele>110.0</ele><time>2026-03-29T10:48:57.974Z</time></trkpt><trkpt lat="45.4391493" lon="10.532479"><ele>110.0</ele><time>2026-03-29T10:48:58.972Z</time></trkpt><trkpt lat="45.4389723" lon="10.5325169"><ele>110.0</ele><time>2026-03-29T10:48:59.973Z</time></trkpt><trkpt lat="45.4388047" lon="10.5325581"><ele>110.0</ele><time>2026-03-29T10:49:00.972Z</time></trkpt><trkpt lat="45.4386446" lon="10.5325987"><ele>110.0</ele><time>2026-03-29T10:49:01.973Z</time></trkpt><trkpt lat="45.4385001" lon="10.5326358"><ele>110.0</ele><time>2026-03-29T10:49:02.973Z</time></trkpt><trkpt lat="45.4383716" lon="10.5326679"><ele>110.0</ele><time>2026-03-29T10:49:03.973Z</time></trkpt><trkpt lat="45.4382492" lon="10.5326909"><ele>110.0</ele><time>2026-03-29T10:49:04.974Z</time></trkpt><trkpt lat="45.438132" lon="10.5327121"><ele>110.0</ele><time>2026-03-29T10:49:05.973Z</time></trkpt><trkpt lat="45.438027" lon="10.5327384"><ele>110.0</ele><time>2026-03-29T10:49:06.972Z</time></trkpt><trkpt lat="45.437933" lon="10.5327728"><ele>110.0</ele><time>2026-03-29T10:49:07.972Z</time></trkpt><trkpt lat="45.4378404" lon="10.5328016"><ele>110.0</ele><time>2026-03-29T10:49:08.973Z</time></trkpt><trkpt lat="45.4377477" lon="10.5328266"><ele>110.0</ele><time>2026-03-29T10:49:09.973Z</time></trkpt><trkpt lat="45.4376549" lon="10.5328495"><ele>109.6</ele><time>2026-03-29T10:49:10.972Z</time></trkpt><trkpt lat="45.4375601" lon="10.5328674"><ele>109.2</ele><time>2026-03-29T10:49:11.972Z</time></trkpt><trkpt lat="45.4374612" lon="10.5328859"><ele>108.80000000000001</ele><time>2026-03-29T10:49:12.973Z</time></trkpt><trkpt lat="45.4373559" lon="10.5329131"><ele>108.4</ele><time>2026-03-29T10:49:13.973Z</time></trkpt><trkpt lat="45.4372437" lon="10.5329371"><ele>108.0</ele><time>2026-03-29T10:49:14.972Z</time></trkpt><trkpt lat="45.4371216" lon="10.5329642"><ele>107.75</ele><time>2026-03-29T10:49:15.973Z</time></trkpt><trkpt lat="45.4369928" lon="10.5329925"><ele>107.5</ele><time>2026-03-29T10:49:16.973Z</time></trkpt><trkpt lat="45.4368636" lon="10.5330171"><ele>107.25</ele><time>2026-03-29T10:49:17.973Z</time></trkpt><trkpt lat="45.4367333" lon="10.5330413"><ele>107.0</ele><time>2026-03-29T10:49:18.974Z</time></trkpt><trkpt lat="45.4366056" lon="10.5330803"><ele>107.0</ele><time>2026-03-29T10:49:19.972Z</time></trkpt><trkpt lat="45.4364771" lon="10.5331164"><ele>107.0</ele><time>2026-03-29T10:49:20.972Z</time></trkpt><trkpt lat="45.4363556" lon="10.5331459"><ele>107.0</ele><time>2026-03-29T10:49:21.973Z</time></trkpt><trkpt lat="45.4362467" lon="10.5331753"><ele>107.0</ele><time>2026-03-29T10:49:22.973Z</time></trkpt><trkpt lat="45.4361504" lon="10.5332144"><ele>107.0</ele><time>2026-03-29T10:49:23.972Z</time></trkpt><trkpt lat="45.4360738" lon="10.5332339"><ele>106.99999999999999</ele><time>2026-03-29T10:49:24.973Z</time></trkpt><trkpt lat="45.4359752" lon="10.5332273"><ele>106.99999999999999</ele><time>2026-03-29T10:49:26.973Z</time></trkpt><trkpt lat="45.4359339" lon="10.5331543"><ele>107.0</ele><time>2026-03-29T10:49:28.972Z</time></trkpt><trkpt lat="45.4359817" lon="10.5329844"><ele>107.0</ele><time>2026-03-29T10:49:30.972Z</time></trkpt><trkpt lat="45.4360286" lon="10.5328876"><ele>107.0</ele><time>2026-03-29T10:49:31.972Z</time></trkpt><trkpt lat="45.4360682" lon="10.5327683"><ele>107.0</ele><time>2026-03-29T10:49:32.972Z</time></trkpt><trkpt lat="45.4361144" lon="10.5326353"><ele>107.0</ele><time>2026-03-29T10:49:33.973Z</time></trkpt><trkpt lat="45.4361758" lon="10.5324597"><ele>107.0</ele><time>2026-03-29T10:49:34.973Z</time></trkpt><trkpt lat="45.4362429" lon="10.53226"><ele>106.33333333333333</ele><time>2026-03-29T10:49:35.973Z</time></trkpt><trkpt lat="45.4363138" lon="10.532043"><ele>105.66666666666666</ele><time>2026-03-29T10:49:36.973Z</time></trkpt><trkpt lat="45.436394" lon="10.5318006"><ele>105.0</ele><time>2026-03-29T10:49:37.973Z</time></trkpt><trkpt lat="45.4364743" lon="10.5315535"><ele>105.0</ele><time>2026-03-29T10:49:38.972Z</time></trkpt><trkpt lat="45.4365688" lon="10.5312884"><ele>105.0</ele><time>2026-03-29T10:49:39.973Z</time></trkpt><trkpt lat="45.4366672" lon="10.5310172"><ele>105.0</ele><time>2026-03-29T10:49:40.974Z</time></trkpt><trkpt lat="45.4367597" lon="10.5307483"><ele>107.33333333333334</ele><time>2026-03-29T10:49:41.973Z</time></trkpt><trkpt lat="45.4368415" lon="10.530508"><ele>109.66666666666667</ele><time>2026-03-29T10:49:42.973Z</time></trkpt><trkpt lat="45.4369117" lon="10.5302923"><ele>112.0</ele><time>2026-03-29T10:49:43.973Z</time></trkpt><trkpt lat="45.4369828" lon="10.5300948"><ele>113.0</ele><time>2026-03-29T10:49:44.973Z</time></trkpt><trkpt lat="45.4370361" lon="10.5298827"><ele>114.0</ele><time>2026-03-29T10:49:45.973Z</time></trkpt><trkpt lat="45.437058" lon="10.5296662"><ele>115.0</ele><time>2026-03-29T10:49:46.973Z</time></trkpt><trkpt lat="45.4370398" lon="10.5294472"><ele>118.33333333333334</ele><time>2026-03-29T10:49:47.973Z</time></trkpt><trkpt lat="45.4369951" lon="10.5292346"><ele>121.66666666666666</ele><time>2026-03-29T10:49:48.973Z</time></trkpt><trkpt lat="45.4369399" lon="10.5290304"><ele>125.0</ele><time>2026-03-29T10:49:49.973Z</time></trkpt><trkpt lat="45.4368813" lon="10.5288252"><ele>127.66666666666666</ele><time>2026-03-29T10:49:50.973Z</time></trkpt><trkpt lat="45.4368261" lon="10.5286227"><ele>130.33333333333334</ele><time>2026-03-29T10:49:51.973Z</time></trkpt><trkpt lat="45.4367729" lon="10.5284182"><ele>133.0</ele><time>2026-03-29T10:49:52.973Z</time></trkpt><trkpt lat="45.4367256" lon="10.5282235"><ele>133.0</ele><time>2026-03-29T10:49:53.974Z</time></trkpt><trkpt lat="45.4366823" lon="10.5280361"><ele>133.0</ele><time>2026-03-29T10:49:54.973Z</time></trkpt><trkpt lat="45.4366893" lon="10.5278576"><ele>133.0</ele><time>2026-03-29T10:49:55.973Z</time></trkpt><trkpt lat="45.4367077" lon="10.5276855"><ele>133.0</ele><time>2026-03-29T10:49:56.973Z</time></trkpt><trkpt lat="45.4367472" lon="10.5275124"><ele>134.0</ele><time>2026-03-29T10:49:57.972Z</time></trkpt><trkpt lat="45.4367775" lon="10.5273308"><ele>135.0</ele><time>2026-03-29T10:49:58.973Z</time></trkpt><trkpt lat="45.4367967" lon="10.5271413"><ele>136.0</ele><time>2026-03-29T10:49:59.972Z</time></trkpt><trkpt lat="45.4368208" lon="10.5269432"><ele>137.0</ele><time>2026-03-29T10:50:00.972Z</time></trkpt><trkpt lat="45.4368539" lon="10.5267398"><ele>137.33333333333331</ele><time>2026-03-29T10:50:01.972Z</time></trkpt><trkpt lat="45.4368893" lon="10.5265331"><ele>137.66666666666666</ele><time>2026-03-29T10:50:02.973Z</time></trkpt><trkpt lat="45.4369251" lon="10.5263177"><ele>138.0</ele><time>2026-03-29T10:50:03.972Z</time></trkpt><trkpt lat="45.4369564" lon="10.5260969"><ele>138.33333333333334</ele><time>2026-03-29T10:50:04.973Z</time></trkpt><trkpt lat="45.4369913" lon="10.5258786"><ele>138.66666666666669</ele><time>2026-03-29T10:50:05.973Z</time></trkpt><trkpt lat="45.4370289" lon="10.5256565"><ele>139.0</ele><time>2026-03-29T10:50:06.973Z</time></trkpt><trkpt lat="45.4370646" lon="10.5254398"><ele>139.0</ele><time>2026-03-29T10:50:07.973Z</time></trkpt><trkpt lat="45.4371008" lon="10.5252219"><ele>139.0</ele><time>2026-03-29T10:50:08.973Z</time></trkpt><trkpt lat="45.4371335" lon="10.5250021"><ele>139.0</ele><time>2026-03-29T10:50:09.973Z</time></trkpt><trkpt lat="45.4371605" lon="10.5247752"><ele>138.66666666666669</ele><time>2026-03-29T10:50:10.973Z</time></trkpt><trkpt lat="45.437179" lon="10.524557"><ele>138.33333333333334</ele><time>2026-03-29T10:50:11.973Z</time></trkpt><trkpt lat="45.437197" lon="10.524336"><ele>138.0</ele><time>2026-03-29T10:50:12.973Z</time></trkpt><trkpt lat="45.4372149" lon="10.5241147"><ele>138.0</ele><time>2026-03-29T10:50:13.974Z</time></trkpt><trkpt lat="45.4372298" lon="10.5238967"><ele>138.0</ele><time>2026-03-29T10:50:14.973Z</time></trkpt><trkpt lat="45.4372489" lon="10.523681"><ele>138.0</ele><time>2026-03-29T10:50:15.973Z</time></trkpt><trkpt lat="45.4372585" lon="10.5234593"><ele>134.66666666666666</ele><time>2026-03-29T10:50:16.973Z</time></trkpt><trkpt lat="45.4372638" lon="10.5232372"><ele>131.33333333333331</ele><time>2026-03-29T10:50:17.973Z</time></trkpt><trkpt lat="45.4372735" lon="10.5230132"><ele>128.0</ele><time>2026-03-29T10:50:18.973Z</time></trkpt><trkpt lat="45.4372777" lon="10.5227919"><ele>126.66666666666666</ele><time>2026-03-29T10:50:19.973Z</time></trkpt><trkpt lat="45.4372853" lon="10.5225672"><ele>125.33333333333334</ele><time>2026-03-29T10:50:20.973Z</time></trkpt><trkpt lat="45.4372915" lon="10.5223494"><ele>124.0</ele><time>2026-03-29T10:50:21.973Z</time></trkpt><trkpt lat="45.4372965" lon="10.5221267"><ele>124.0</ele><time>2026-03-29T10:50:22.973Z</time></trkpt><trkpt lat="45.4373008" lon="10.5219025"><ele>124.0</ele><time>2026-03-29T10:50:23.973Z</time></trkpt><trkpt lat="45.4373061" lon="10.5216791"><ele>124.0</ele><time>2026-03-29T10:50:24.973Z</time></trkpt><trkpt lat="45.4373091" lon="10.5214541"><ele>122.66666666666667</ele><time>2026-03-29T10:50:25.973Z</time></trkpt><trkpt lat="45.4373141" lon="10.5212271"><ele>121.33333333333334</ele><time>2026-03-29T10:50:26.972Z</time></trkpt><trkpt lat="45.43732" lon="10.5209982"><ele>120.0</ele><time>2026-03-29T10:50:27.972Z</time></trkpt><trkpt lat="45.4373217" lon="10.5207682"><ele>120.0</ele><time>2026-03-29T10:50:28.973Z</time></trkpt><trkpt lat="45.4373265" lon="10.5205353"><ele>120.0</ele><time>2026-03-29T10:50:29.973Z</time></trkpt><trkpt lat="45.4373317" lon="10.5203045"><ele>120.0</ele><time>2026-03-29T10:50:30.972Z</time></trkpt><trkpt lat="45.4373401" lon="10.5200711"><ele>120.0</ele><time>2026-03-29T10:50:31.973Z</time></trkpt><trkpt lat="45.4373505" lon="10.5198357"><ele>120.0</ele><time>2026-03-29T10:50:32.972Z</time></trkpt><trkpt lat="45.4373553" lon="10.5196043"><ele>120.0</ele><time>2026-03-29T10:50:33.973Z</time></trkpt><trkpt lat="45.4373588" lon="10.5193766"><ele>120.75</ele><time>2026-03-29T10:50:34.972Z</time></trkpt><trkpt lat="45.4373612" lon="10.51915"><ele>121.5</ele><time>2026-03-29T10:50:35.972Z</time></trkpt><trkpt lat="45.4373655" lon="10.5189547"><ele>122.25</ele><time>2026-03-29T10:50:36.973Z</time></trkpt><trkpt lat="45.4373736" lon="10.5187909"><ele>123.0</ele><time>2026-03-29T10:50:37.972Z</time></trkpt><trkpt lat="45.4373861" lon="10.5186649"><ele>123.80000000000001</ele><time>2026-03-29T10:50:38.972Z</time></trkpt><trkpt lat="45.4374108" lon="10.5185794"><ele>124.60000000000001</ele><time>2026-03-29T10:50:39.973Z</time></trkpt><trkpt lat="45.4375352" lon="10.5184945"><ele>125.39999999999999</ele><time>2026-03-29T10:50:41.972Z</time></trkpt><trkpt lat="45.4376444" lon="10.5184989"><ele>126.19999999999999</ele><time>2026-03-29T10:50:42.973Z</time></trkpt><trkpt lat="45.4377584" lon="10.5184933"><ele>127.0</ele><time>2026-03-29T10:50:43.972Z</time></trkpt><trkpt lat="45.4378801" lon="10.5184651"><ele>126.25</ele><time>2026-03-29T10:50:44.973Z</time></trkpt><trkpt lat="45.4380067" lon="10.5184305"><ele>125.5</ele><time>2026-03-29T10:50:45.973Z</time></trkpt><trkpt lat="45.4381446" lon="10.5184193"><ele>124.75</ele><time>2026-03-29T10:50:46.972Z</time></trkpt><trkpt lat="45.4382866" lon="10.5184272"><ele>124.0</ele><time>2026-03-29T10:50:47.973Z</time></trkpt><trkpt lat="45.4384344" lon="10.5184407"><ele>124.0</ele><time>2026-03-29T10:50:48.972Z</time></trkpt><trkpt lat="45.4385842" lon="10.5184529"><ele>124.0</ele><time>2026-03-29T10:50:49.973Z</time></trkpt><trkpt lat="45.4387403" lon="10.5184623"><ele>124.0</ele><time>2026-03-29T10:50:50.973Z</time></trkpt><trkpt lat="45.4388959" lon="10.5184785"><ele>124.66666666666667</ele><time>2026-03-29T10:50:51.973Z</time></trkpt><trkpt lat="45.4390506" lon="10.5185033"><ele>125.33333333333334</ele><time>2026-03-29T10:50:52.973Z</time></trkpt><trkpt lat="45.439205" lon="10.518539"><ele>126.0</ele><time>2026-03-29T10:50:53.973Z</time></trkpt><trkpt lat="45.4393547" lon="10.518595"><ele>126.0</ele><time>2026-03-29T10:50:54.973Z</time></trkpt><trkpt lat="45.4394985" lon="10.5186745"><ele>126.0</ele><time>2026-03-29T10:50:55.974Z</time></trkpt><trkpt lat="45.4396354" lon="10.5187625"><ele>126.0</ele><time>2026-03-29T10:50:56.973Z</time></trkpt><trkpt lat="45.4397702" lon="10.518868"><ele>127.33333333333334</ele><time>2026-03-29T10:50:57.972Z</time></trkpt><trkpt lat="45.4399003" lon="10.5189831"><ele>128.66666666666669</ele><time>2026-03-29T10:50:58.973Z</time></trkpt><trkpt lat="45.4400164" lon="10.5191296"><ele>130.0</ele><time>2026-03-29T10:50:59.973Z</time></trkpt><trkpt lat="45.4401219" lon="10.5192956"><ele>130.0</ele><time>2026-03-29T10:51:00.972Z</time></trkpt><trkpt lat="45.4402159" lon="10.5194686"><ele>130.0</ele><time>2026-03-29T10:51:01.973Z</time></trkpt><trkpt lat="45.4403081" lon="10.5196419"><ele>130.0</ele><time>2026-03-29T10:51:02.973Z</time></trkpt><trkpt lat="45.4403941" lon="10.5198112"><ele>130.5</ele><time>2026-03-29T10:51:03.972Z</time></trkpt><trkpt lat="45.4404878" lon="10.5199646"><ele>131.0</ele><time>2026-03-29T10:51:04.973Z</time></trkpt><trkpt lat="45.4405894" lon="10.5200952"><ele>131.5</ele><time>2026-03-29T10:51:05.973Z</time></trkpt><trkpt lat="45.4407145" lon="10.5201781"><ele>132.0</ele><time>2026-03-29T10:51:06.973Z</time></trkpt><trkpt lat="45.4408399" lon="10.5202594"><ele>132.0</ele><time>2026-03-29T10:51:07.972Z</time></trkpt><trkpt lat="45.4409688" lon="10.5203074"><ele>132.0</ele><time>2026-03-29T10:51:08.972Z</time></trkpt><trkpt lat="45.4411115" lon="10.5203331"><ele>132.0</ele><time>2026-03-29T10:51:09.973Z</time></trkpt><trkpt lat="45.4412644" lon="10.5203031"><ele>132.0</ele><time>2026-03-29T10:51:10.973Z</time></trkpt><trkpt lat="45.4414204" lon="10.5202981"><ele>131.66666666666666</ele><time>2026-03-29T10:51:11.973Z</time></trkpt><trkpt lat="45.4415717" lon="10.5203067"><ele>131.33333333333331</ele><time>2026-03-29T10:51:12.972Z</time></trkpt><trkpt lat="45.4417219" lon="10.5203079"><ele>131.0</ele><time>2026-03-29T10:51:13.973Z</time></trkpt><trkpt lat="45.4418718" lon="10.5203085"><ele>131.0</ele><time>2026-03-29T10:51:14.972Z</time></trkpt><trkpt lat="45.4420231" lon="10.5203072"><ele>131.0</ele><time>2026-03-29T10:51:15.972Z</time></trkpt><trkpt lat="45.442173" lon="10.5203092"><ele>131.0</ele><time>2026-03-29T10:51:16.973Z</time></trkpt><trkpt lat="45.4423157" lon="10.52031"><ele>131.0</ele><time>2026-03-29T10:51:17.973Z</time></trkpt><trkpt lat="45.4424634" lon="10.5203067"><ele>130.75</ele><time>2026-03-29T10:51:18.974Z</time></trkpt><trkpt lat="45.4426155" lon="10.5203123"><ele>130.5</ele><time>2026-03-29T10:51:19.972Z</time></trkpt><trkpt lat="45.4427632" lon="10.5203127"><ele>130.25</ele><time>2026-03-29T10:51:20.973Z</time></trkpt><trkpt lat="45.4428957" lon="10.5203101"><ele>130.0</ele><time>2026-03-29T10:51:21.973Z</time></trkpt><trkpt lat="45.4430129" lon="10.5203081"><ele>130.4</ele><time>2026-03-29T10:51:22.973Z</time></trkpt><trkpt lat="45.4431212" lon="10.5203051"><ele>130.8</ele><time>2026-03-29T10:51:23.974Z</time></trkpt><trkpt lat="45.4432171" lon="10.5203081"><ele>131.2</ele><time>2026-03-29T10:51:24.973Z</time></trkpt><trkpt lat="45.443301" lon="10.5203116"><ele>131.6</ele><time>2026-03-29T10:51:25.973Z</time></trkpt><trkpt lat="45.4433779" lon="10.5203122"><ele>132.0</ele><time>2026-03-29T10:51:26.972Z</time></trkpt><trkpt lat="45.4434575" lon="10.5201966"><ele>132.0</ele><time>2026-03-29T10:51:28.973Z</time></trkpt><trkpt lat="45.4434717" lon="10.5201048"><ele>132.0</ele><time>2026-03-29T10:51:29.973Z</time></trkpt><trkpt lat="45.443507" lon="10.5200185"><ele>132.0</ele><time>2026-03-29T10:51:30.973Z</time></trkpt><trkpt lat="45.4435719" lon="10.5199566"><ele>132.0</ele><time>2026-03-29T10:51:31.972Z</time></trkpt><trkpt lat="45.4436628" lon="10.5199281"><ele>132.0</ele><time>2026-03-29T10:51:32.973Z</time></trkpt><trkpt lat="45.4437629" lon="10.5199281"><ele>132.0</ele><time>2026-03-29T10:51:33.973Z</time></trkpt><trkpt lat="45.4438722" lon="10.519917"><ele>132.2</ele><time>2026-03-29T10:51:34.972Z</time></trkpt><trkpt lat="45.4439802" lon="10.5198948"><ele>132.39999999999998</ele><time>2026-03-29T10:51:35.972Z</time></trkpt><trkpt lat="45.4440851" lon="10.5198751"><ele>132.60000000000002</ele><time>2026-03-29T10:51:36.973Z</time></trkpt><trkpt lat="45.4441774" lon="10.5198255"><ele>132.8</ele><time>2026-03-29T10:51:37.974Z</time></trkpt><trkpt lat="45.4442422" lon="10.5197302"><ele>133.0</ele><time>2026-03-29T10:51:38.973Z</time></trkpt><trkpt lat="45.4442843" lon="10.5195934"><ele>133.4</ele><time>2026-03-29T10:51:39.973Z</time></trkpt><trkpt lat="45.4443057" lon="10.5194472"><ele>133.8</ele><time>2026-03-29T10:51:40.973Z</time></trkpt><trkpt lat="45.4443404" lon="10.5193081"><ele>134.2</ele><time>2026-03-29T10:51:41.973Z</time></trkpt><trkpt lat="45.4444001" lon="10.5191977"><ele>134.6</ele><time>2026-03-29T10:51:42.973Z</time></trkpt><trkpt lat="45.4444694" lon="10.5191356"><ele>135.0</ele><time>2026-03-29T10:51:43.973Z</time></trkpt><trkpt lat="45.4445646" lon="10.5191226"><ele>134.75</ele><time>2026-03-29T10:51:44.972Z</time></trkpt><trkpt lat="45.4446696" lon="10.519159"><ele>134.5</ele><time>2026-03-29T10:51:45.972Z</time></trkpt><trkpt lat="45.4447752" lon="10.519227"><ele>134.25</ele><time>2026-03-29T10:51:46.973Z</time></trkpt><trkpt lat="45.4448974" lon="10.5192887"><ele>134.0</ele><time>2026-03-29T10:51:47.973Z</time></trkpt><trkpt lat="45.4450252" lon="10.5193455"><ele>134.0</ele><time>2026-03-29T10:51:48.973Z</time></trkpt><trkpt lat="45.4451529" lon="10.5194067"><ele>134.0</ele><time>2026-03-29T10:51:49.973Z</time></trkpt><trkpt lat="45.4452818" lon="10.5194668"><ele>134.0</ele><time>2026-03-29T10:51:50.972Z</time></trkpt><trkpt lat="45.4454048" lon="10.5195327"><ele>134.0</ele><time>2026-03-29T10:51:51.972Z</time></trkpt><trkpt lat="45.4455184" lon="10.519594"><ele>133.83333333333331</ele><time>2026-03-29T10:51:52.972Z</time></trkpt><trkpt lat="45.4456199" lon="10.5196492"><ele>133.66666666666666</ele><time>2026-03-29T10:51:53.972Z</time></trkpt><trkpt lat="45.4457057" lon="10.5196857"><ele>133.5</ele><time>2026-03-29T10:51:54.972Z</time></trkpt><trkpt lat="45.4457784" lon="10.519717"><ele>133.33333333333334</ele><time>2026-03-29T10:51:55.971Z</time></trkpt><trkpt lat="45.4458506" lon="10.5197487"><ele>133.16666666666669</ele><time>2026-03-29T10:51:56.972Z</time></trkpt><trkpt lat="45.445924" lon="10.5197787"><ele>133.0</ele><time>2026-03-29T10:51:57.972Z</time></trkpt><trkpt lat="45.4460165" lon="10.5198168"><ele>133.0</ele><time>2026-03-29T10:51:58.972Z</time></trkpt><trkpt lat="45.4461193" lon="10.5198782"><ele>133.0</ele><time>2026-03-29T10:51:59.972Z</time></trkpt><trkpt lat="45.4462305" lon="10.5199397"><ele>133.0</ele><time>2026-03-29T10:52:00.971Z</time></trkpt><trkpt lat="45.4463603" lon="10.5199846"><ele>133.0</ele><time>2026-03-29T10:52:01.972Z</time></trkpt><trkpt lat="45.4464942" lon="10.5200223"><ele>133.25</ele><time>2026-03-29T10:52:02.972Z</time></trkpt><trkpt lat="45.4466294" lon="10.5200546"><ele>133.5</ele><time>2026-03-29T10:52:03.972Z</time></trkpt><trkpt lat="45.4467676" lon="10.5200955"><ele>133.75</ele><time>2026-03-29T10:52:04.971Z</time></trkpt><trkpt lat="45.4469115" lon="10.5201455"><ele>134.0</ele><time>2026-03-29T10:52:05.972Z</time></trkpt><trkpt lat="45.4470614" lon="10.5201816"><ele>134.0</ele><time>2026-03-29T10:52:06.971Z</time></trkpt><trkpt lat="45.4472095" lon="10.5202284"><ele>134.0</ele><time>2026-03-29T10:52:07.972Z</time></trkpt><trkpt lat="45.4473565" lon="10.520275"><ele>134.0</ele><time>2026-03-29T10:52:08.972Z</time></trkpt><trkpt lat="45.4474977" lon="10.5203217"><ele>134.0</ele><time>2026-03-29T10:52:09.972Z</time></trkpt><trkpt lat="45.4476256" lon="10.5203667"><ele>134.0</ele><time>2026-03-29T10:52:10.972Z</time></trkpt><trkpt lat="45.447738" lon="10.5203905"><ele>134.0</ele><time>2026-03-29T10:52:11.972Z</time></trkpt><trkpt lat="45.4478447" lon="10.5203771"><ele>134.0</ele><time>2026-03-29T10:52:12.971Z</time></trkpt><trkpt lat="45.4479402" lon="10.5203138"><ele>134.0</ele><time>2026-03-29T10:52:13.971Z</time></trkpt><trkpt lat="45.4480215" lon="10.5202046"><ele>134.0</ele><time>2026-03-29T10:52:14.972Z</time></trkpt><trkpt lat="45.4481038" lon="10.5200645"><ele>134.25</ele><time>2026-03-29T10:52:15.971Z</time></trkpt><trkpt lat="45.4481858" lon="10.5199145"><ele>134.5</ele><time>2026-03-29T10:52:16.972Z</time></trkpt><trkpt lat="45.4482693" lon="10.5197684"><ele>134.75</ele><time>2026-03-29T10:52:17.972Z</time></trkpt><trkpt lat="45.4483548" lon="10.5196301"><ele>135.0</ele><time>2026-03-29T10:52:18.972Z</time></trkpt><trkpt lat="45.4484371" lon="10.519491"><ele>135.0</ele><time>2026-03-29T10:52:19.973Z</time></trkpt><trkpt lat="45.4485104" lon="10.5193611"><ele>135.0</ele><time>2026-03-29T10:52:20.972Z</time></trkpt><trkpt lat="45.4485619" lon="10.5192337"><ele>135.0</ele><time>2026-03-29T10:52:21.972Z</time></trkpt><trkpt lat="45.448575" lon="10.5190847"><ele>135.0</ele><time>2026-03-29T10:52:22.971Z</time></trkpt><trkpt lat="45.4485543" lon="10.5189224"><ele>135.0</ele><time>2026-03-29T10:52:23.972Z</time></trkpt><trkpt lat="45.4485026" lon="10.5187667"><ele>134.75</ele><time>2026-03-29T10:52:24.972Z</time></trkpt><trkpt lat="45.4484573" lon="10.5185935"><ele>134.5</ele><time>2026-03-29T10:52:25.972Z</time></trkpt><trkpt lat="45.4484346" lon="10.5184011"><ele>134.25</ele><time>2026-03-29T10:52:26.971Z</time></trkpt><trkpt lat="45.4484395" lon="10.5182028"><ele>134.0</ele><time>2026-03-29T10:52:27.972Z</time></trkpt><trkpt lat="45.4484707" lon="10.5180154"><ele>134.0</ele><time>2026-03-29T10:52:28.972Z</time></trkpt><trkpt lat="45.4485246" lon="10.517836"><ele>134.0</ele><time>2026-03-29T10:52:29.972Z</time></trkpt><trkpt lat="45.448601" lon="10.5176768"><ele>134.0</ele><time>2026-03-29T10:52:30.972Z</time></trkpt><trkpt lat="45.4486938" lon="10.5175419"><ele>134.0</ele><time>2026-03-29T10:52:31.972Z</time></trkpt><trkpt lat="45.4488063" lon="10.5174239"><ele>134.0</ele><time>2026-03-29T10:52:32.971Z</time></trkpt><trkpt lat="45.4489284" lon="10.5173095"><ele>134.0</ele><time>2026-03-29T10:52:33.972Z</time></trkpt><trkpt lat="45.4490431" lon="10.5171862"><ele>134.0</ele><time>2026-03-29T10:52:34.971Z</time></trkpt><trkpt lat="45.4491543" lon="10.5170435"><ele>134.0</ele><time>2026-03-29T10:52:35.972Z</time></trkpt><trkpt lat="45.4492396" lon="10.5168721"><ele>134.0</ele><time>2026-03-29T10:52:36.971Z</time></trkpt><trkpt lat="45.4493048" lon="10.516702"><ele>134.0</ele><time>2026-03-29T10:52:37.972Z</time></trkpt><trkpt lat="45.4493499" lon="10.5165461"><ele>134.0</ele><time>2026-03-29T10:52:38.972Z</time></trkpt><trkpt lat="45.4493931" lon="10.5163893"><ele>134.0</ele><time>2026-03-29T10:52:39.973Z</time></trkpt><trkpt lat="45.4494343" lon="10.5162285"><ele>133.75</ele><time>2026-03-29T10:52:40.971Z</time></trkpt><trkpt lat="45.4494636" lon="10.5160512"><ele>133.5</ele><time>2026-03-29T10:52:41.971Z</time></trkpt><trkpt lat="45.4495078" lon="10.5158709"><ele>133.25</ele><time>2026-03-29T10:52:42.971Z</time></trkpt><trkpt lat="45.4495773" lon="10.5156989"><ele>133.0</ele><time>2026-03-29T10:52:43.972Z</time></trkpt><trkpt lat="45.4496552" lon="10.5155337"><ele>133.5</ele><time>2026-03-29T10:52:44.972Z</time></trkpt><trkpt lat="45.4497342" lon="10.5153769"><ele>134.0</ele><time>2026-03-29T10:52:45.972Z</time></trkpt><trkpt lat="45.4498025" lon="10.5151984"><ele>134.5</ele><time>2026-03-29T10:52:46.971Z</time></trkpt><trkpt lat="45.4498465" lon="10.5149933"><ele>135.0</ele><time>2026-03-29T10:52:47.971Z</time></trkpt><trkpt lat="45.4498709" lon="10.5147693"><ele>135.33333333333334</ele><time>2026-03-29T10:52:48.972Z</time></trkpt><trkpt lat="45.4498915" lon="10.5145451"><ele>135.66666666666669</ele><time>2026-03-29T10:52:49.972Z</time></trkpt><trkpt lat="45.4499066" lon="10.5143126"><ele>136.0</ele><time>2026-03-29T10:52:50.972Z</time></trkpt><trkpt lat="45.4499199" lon="10.5140767"><ele>136.0</ele><time>2026-03-29T10:52:51.972Z</time></trkpt><trkpt lat="45.4499358" lon="10.5138399"><ele>136.0</ele><time>2026-03-29T10:52:52.971Z</time></trkpt><trkpt lat="45.4499553" lon="10.5136067"><ele>136.0</ele><time>2026-03-29T10:52:53.972Z</time></trkpt><trkpt lat="45.4499708" lon="10.5133755"><ele>137.0</ele><time>2026-03-29T10:52:54.971Z</time></trkpt><trkpt lat="45.4499898" lon="10.5131482"><ele>138.0</ele><time>2026-03-29T10:52:55.972Z</time></trkpt><trkpt lat="45.4500088" lon="10.5129219"><ele>139.0</ele><time>2026-03-29T10:52:56.972Z</time></trkpt><trkpt lat="45.4500302" lon="10.5127005"><ele>139.33333333333334</ele><time>2026-03-29T10:52:57.971Z</time></trkpt><trkpt lat="45.4500594" lon="10.5124842"><ele>139.66666666666666</ele><time>2026-03-29T10:52:58.971Z</time></trkpt><trkpt lat="45.4501008" lon="10.5122735"><ele>140.0</ele><time>2026-03-29T10:52:59.973Z</time></trkpt><trkpt lat="45.450151" lon="10.5120792"><ele>141.0</ele><time>2026-03-29T10:53:00.972Z</time></trkpt><trkpt lat="45.4502033" lon="10.5118934"><ele>142.0</ele><time>2026-03-29T10:53:01.972Z</time></trkpt><trkpt lat="45.4502377" lon="10.5117265"><ele>143.0</ele><time>2026-03-29T10:53:02.972Z</time></trkpt><trkpt lat="45.4502473" lon="10.511579"><ele>144.0</ele><time>2026-03-29T10:53:03.972Z</time></trkpt><trkpt lat="45.4502524" lon="10.511465"><ele>145.0</ele><time>2026-03-29T10:53:04.971Z</time></trkpt><trkpt lat="45.4503062" lon="10.5113406"><ele>145.0</ele><time>2026-03-29T10:53:06.971Z</time></trkpt><trkpt lat="45.4504144" lon="10.5113396"><ele>145.0</ele><time>2026-03-29T10:53:08.971Z</time></trkpt><trkpt lat="45.4507242" lon="10.5114395"><ele>145.0</ele><time>2026-03-29T10:53:12.971Z</time></trkpt><trkpt lat="45.4508138" lon="10.5114473"><ele>145.0</ele><time>2026-03-29T10:53:13.972Z</time></trkpt><trkpt lat="45.4508975" lon="10.5113558"><ele>145.0</ele><time>2026-03-29T10:53:15.972Z</time></trkpt><trkpt lat="45.4508438" lon="10.5111966"><ele>145.0</ele><time>2026-03-29T10:53:17.972Z</time></trkpt><trkpt lat="45.4508131" lon="10.5110768"><ele>145.0</ele><time>2026-03-29T10:53:18.972Z</time></trkpt><trkpt lat="45.4507959" lon="10.5109518"><ele>145.0</ele><time>2026-03-29T10:53:19.971Z</time></trkpt><trkpt lat="45.4507909" lon="10.5108116"><ele>146.25</ele><time>2026-03-29T10:53:20.972Z</time></trkpt><trkpt lat="45.4508019" lon="10.5106517"><ele>147.5</ele><time>2026-03-29T10:53:21.972Z</time></trkpt><trkpt lat="45.450814" lon="10.5104759"><ele>148.75</ele><time>2026-03-29T10:53:22.972Z</time></trkpt><trkpt lat="45.4508227" lon="10.5103104"><ele>150.0</ele><time>2026-03-29T10:53:23.972Z</time></trkpt><trkpt lat="45.4508352" lon="10.5101351"><ele>151.75</ele><time>2026-03-29T10:53:24.973Z</time></trkpt><trkpt lat="45.4508529" lon="10.5099537"><ele>153.5</ele><time>2026-03-29T10:53:25.972Z</time></trkpt><trkpt lat="45.4508706" lon="10.5097672"><ele>155.25</ele><time>2026-03-29T10:53:26.972Z</time></trkpt><trkpt lat="45.4508868" lon="10.5095722"><ele>157.0</ele><time>2026-03-29T10:53:27.971Z</time></trkpt><trkpt lat="45.4509002" lon="10.5093735"><ele>158.0</ele><time>2026-03-29T10:53:28.972Z</time></trkpt><trkpt lat="45.4509168" lon="10.5091769"><ele>159.0</ele><time>2026-03-29T10:53:29.972Z</time></trkpt><trkpt lat="45.4509357" lon="10.5089753"><ele>160.0</ele><time>2026-03-29T10:53:30.971Z</time></trkpt><trkpt lat="45.4509512" lon="10.5087752"><ele>161.0</ele><time>2026-03-29T10:53:31.971Z</time></trkpt><trkpt lat="45.450963" lon="10.5085822"><ele>161.5</ele><time>2026-03-29T10:53:32.972Z</time></trkpt><trkpt lat="45.4509698" lon="10.5083963"><ele>162.0</ele><time>2026-03-29T10:53:33.972Z</time></trkpt><trkpt lat="45.4509866" lon="10.5082355"><ele>162.5</ele><time>2026-03-29T10:53:34.971Z</time></trkpt><trkpt lat="45.4510268" lon="10.5080842"><ele>163.0</ele><time>2026-03-29T10:53:35.972Z</time></trkpt><trkpt lat="45.4510948" lon="10.5079392"><ele>163.25</ele><time>2026-03-29T10:53:36.972Z</time></trkpt><trkpt lat="45.4511625" lon="10.5078006"><ele>163.5</ele><time>2026-03-29T10:53:37.972Z</time></trkpt><trkpt lat="45.4512301" lon="10.5076468"><ele>163.75</ele><time>2026-03-29T10:53:38.972Z</time></trkpt><trkpt lat="45.451286" lon="10.5074701"><ele>164.0</ele><time>2026-03-29T10:53:39.972Z</time></trkpt><trkpt lat="45.4513366" lon="10.507285"><ele>167.0</ele><time>2026-03-29T10:53:40.972Z</time></trkpt><trkpt lat="45.4513803" lon="10.5070957"><ele>170.0</ele><time>2026-03-29T10:53:41.971Z</time></trkpt><trkpt lat="45.4514175" lon="10.5069063"><ele>173.0</ele><time>2026-03-29T10:53:42.972Z</time></trkpt><trkpt lat="45.451456" lon="10.5067252"><ele>176.0</ele><time>2026-03-29T10:53:43.972Z</time></trkpt><trkpt lat="45.4514997" lon="10.5065452"><ele>177.0</ele><time>2026-03-29T10:53:44.972Z</time></trkpt><trkpt lat="45.4515471" lon="10.5063752"><ele>178.0</ele><time>2026-03-29T10:53:45.972Z</time></trkpt><trkpt lat="45.4515874" lon="10.5062051"><ele>179.0</ele><time>2026-03-29T10:53:46.972Z</time></trkpt><trkpt lat="45.45163" lon="10.5060421"><ele>180.0</ele><time>2026-03-29T10:53:47.972Z</time></trkpt><trkpt lat="45.4516674" lon="10.5058762"><ele>179.75</ele><time>2026-03-29T10:53:48.971Z</time></trkpt><trkpt lat="45.4517166" lon="10.5057058"><ele>179.5</ele><time>2026-03-29T10:53:49.971Z</time></trkpt><trkpt lat="45.451787" lon="10.5055543"><ele>179.25</ele><time>2026-03-29T10:53:50.972Z</time></trkpt><trkpt lat="45.4518733" lon="10.5054097"><ele>179.0</ele><time>2026-03-29T10:53:51.971Z</time></trkpt><trkpt lat="45.4519486" lon="10.5052466"><ele>179.0</ele><time>2026-03-29T10:53:52.971Z</time></trkpt><trkpt lat="45.4520127" lon="10.5050722"><ele>179.0</ele><time>2026-03-29T10:53:53.971Z</time></trkpt><trkpt lat="45.452073" lon="10.5048814"><ele>179.0</ele><time>2026-03-29T10:53:54.971Z</time></trkpt><trkpt lat="45.4521209" lon="10.5046671"><ele>179.0</ele><time>2026-03-29T10:53:55.972Z</time></trkpt><trkpt lat="45.4521643" lon="10.5044506"><ele>181.33333333333331</ele><time>2026-03-29T10:53:56.971Z</time></trkpt><trkpt lat="45.4521947" lon="10.5042181"><ele>183.66666666666666</ele><time>2026-03-29T10:53:57.971Z</time></trkpt><trkpt lat="45.452221" lon="10.5039906"><ele>186.0</ele><time>2026-03-29T10:53:58.972Z</time></trkpt><trkpt lat="45.4522314" lon="10.5037649"><ele>186.0</ele><time>2026-03-29T10:53:59.972Z</time></trkpt><trkpt lat="45.4522543" lon="10.5035451"><ele>186.0</ele><time>2026-03-29T10:54:00.971Z</time></trkpt><trkpt lat="45.4522727" lon="10.5033302"><ele>186.0</ele><time>2026-03-29T10:54:01.971Z</time></trkpt><trkpt lat="45.4523033" lon="10.5031215"><ele>186.0</ele><time>2026-03-29T10:54:02.971Z</time></trkpt><trkpt lat="45.4523426" lon="10.5029358"><ele>186.0</ele><time>2026-03-29T10:54:03.972Z</time></trkpt><trkpt lat="45.4523902" lon="10.5027588"><ele>186.0</ele><time>2026-03-29T10:54:04.972Z</time></trkpt><trkpt lat="45.4524518" lon="10.5025896"><ele>186.0</ele><time>2026-03-29T10:54:05.971Z</time></trkpt><trkpt lat="45.452536" lon="10.502429"><ele>185.75</ele><time>2026-03-29T10:54:06.972Z</time></trkpt><trkpt lat="45.4526315" lon="10.5022745"><ele>185.5</ele><time>2026-03-29T10:54:07.972Z</time></trkpt><trkpt lat="45.4527312" lon="10.5021249"><ele>185.25</ele><time>2026-03-29T10:54:08.972Z</time></trkpt><trkpt lat="45.4528375" lon="10.5019794"><ele>185.0</ele><time>2026-03-29T10:54:09.972Z</time></trkpt><trkpt lat="45.4529403" lon="10.5018214"><ele>183.33333333333331</ele><time>2026-03-29T10:54:10.971Z</time></trkpt><trkpt lat="45.4530455" lon="10.5016555"><ele>181.66666666666666</ele><time>2026-03-29T10:54:11.972Z</time></trkpt><trkpt lat="45.4531444" lon="10.5014839"><ele>180.0</ele><time>2026-03-29T10:54:12.972Z</time></trkpt><trkpt lat="45.4532394" lon="10.5013001"><ele>180.33333333333334</ele><time>2026-03-29T10:54:13.972Z</time></trkpt><trkpt lat="45.4533265" lon="10.5011068"><ele>180.66666666666669</ele><time>2026-03-29T10:54:14.971Z</time></trkpt><trkpt lat="45.4534045" lon="10.5009098"><ele>181.0</ele><time>2026-03-29T10:54:15.972Z</time></trkpt><trkpt lat="45.4534825" lon="10.5007136"><ele>181.0</ele><time>2026-03-29T10:54:16.972Z</time></trkpt><trkpt lat="45.4535573" lon="10.5005139"><ele>181.0</ele><time>2026-03-29T10:54:17.971Z</time></trkpt><trkpt lat="45.4536178" lon="10.5003085"><ele>181.0</ele><time>2026-03-29T10:54:18.972Z</time></trkpt><trkpt lat="45.4536655" lon="10.5001117"><ele>181.75</ele><time>2026-03-29T10:54:19.972Z</time></trkpt><trkpt lat="45.4537137" lon="10.4999302"><ele>182.5</ele><time>2026-03-29T10:54:20.972Z</time></trkpt><trkpt lat="45.4537815" lon="10.4997538"><ele>183.25</ele><time>2026-03-29T10:54:21.971Z</time></trkpt><trkpt lat="45.4538726" lon="10.4995858"><ele>184.0</ele><time>2026-03-29T10:54:22.971Z</time></trkpt><trkpt lat="45.4539703" lon="10.4994154"><ele>184.66666666666669</ele><time>2026-03-29T10:54:23.972Z</time></trkpt><trkpt lat="45.4540592" lon="10.49924"><ele>185.33333333333334</ele><time>2026-03-29T10:54:24.972Z</time></trkpt><trkpt lat="45.4541534" lon="10.4990731"><ele>186.0</ele><time>2026-03-29T10:54:25.971Z</time></trkpt><trkpt lat="45.4542664" lon="10.4989208"><ele>186.0</ele><time>2026-03-29T10:54:26.971Z</time></trkpt><trkpt lat="45.4543946" lon="10.4987886"><ele>186.0</ele><time>2026-03-29T10:54:27.972Z</time></trkpt><trkpt lat="45.4545315" lon="10.4986667"><ele>186.0</ele><time>2026-03-29T10:54:28.971Z</time></trkpt><trkpt lat="45.4546596" lon="10.4985329"><ele>185.66666666666666</ele><time>2026-03-29T10:54:29.971Z</time></trkpt><trkpt lat="45.4547788" lon="10.4983816"><ele>185.33333333333331</ele><time>2026-03-29T10:54:30.971Z</time></trkpt><trkpt lat="45.4548848" lon="10.4982126"><ele>185.0</ele><time>2026-03-29T10:54:31.972Z</time></trkpt><trkpt lat="45.4549766" lon="10.4980268"><ele>183.66666666666666</ele><time>2026-03-29T10:54:32.972Z</time></trkpt><trkpt lat="45.4550465" lon="10.4978287"><ele>182.33333333333334</ele><time>2026-03-29T10:54:33.972Z</time></trkpt><trkpt lat="45.4550935" lon="10.4976198"><ele>181.0</ele><time>2026-03-29T10:54:34.972Z</time></trkpt><trkpt lat="45.455131" lon="10.4974025"><ele>181.0</ele><time>2026-03-29T10:54:35.971Z</time></trkpt><trkpt lat="45.4551641" lon="10.4971815"><ele>181.0</ele><time>2026-03-29T10:54:36.972Z</time></trkpt><trkpt lat="45.4552006" lon="10.4969585"><ele>181.0</ele><time>2026-03-29T10:54:37.972Z</time></trkpt><trkpt lat="45.4552447" lon="10.4967391"><ele>179.66666666666669</ele><time>2026-03-29T10:54:38.971Z</time></trkpt><trkpt lat="45.4552902" lon="10.4965237"><ele>178.33333333333334</ele><time>2026-03-29T10:54:39.972Z</time></trkpt><trkpt lat="45.4553364" lon="10.496309"><ele>177.0</ele><time>2026-03-29T10:54:40.972Z</time></trkpt><trkpt lat="45.455386" lon="10.496097"><ele>177.0</ele><time>2026-03-29T10:54:41.972Z</time></trkpt><trkpt lat="45.4554297" lon="10.4958812"><ele>177.0</ele><time>2026-03-29T10:54:42.971Z</time></trkpt><trkpt lat="45.4554652" lon="10.4956562"><ele>177.0</ele><time>2026-03-29T10:54:43.972Z</time></trkpt><trkpt lat="45.4554918" lon="10.4954232"><ele>176.33333333333334</ele><time>2026-03-29T10:54:44.972Z</time></trkpt><trkpt lat="45.455511" lon="10.4951972"><ele>175.66666666666669</ele><time>2026-03-29T10:54:45.972Z</time></trkpt><trkpt lat="45.455529" lon="10.4949667"><ele>175.0</ele><time>2026-03-29T10:54:46.971Z</time></trkpt><trkpt lat="45.4555441" lon="10.4947407"><ele>174.75</ele><time>2026-03-29T10:54:47.972Z</time></trkpt><trkpt lat="45.4555608" lon="10.4945383"><ele>174.5</ele><time>2026-03-29T10:54:48.971Z</time></trkpt><trkpt lat="45.4555818" lon="10.4943329"><ele>174.25</ele><time>2026-03-29T10:54:49.972Z</time></trkpt><trkpt lat="45.4556089" lon="10.4941235"><ele>174.0</ele><time>2026-03-29T10:54:50.971Z</time></trkpt><trkpt lat="45.455642" lon="10.4939248"><ele>173.0</ele><time>2026-03-29T10:54:51.972Z</time></trkpt><trkpt lat="45.4556885" lon="10.4937328"><ele>172.0</ele><time>2026-03-29T10:54:52.972Z</time></trkpt><trkpt lat="45.4557332" lon="10.4935501"><ele>171.0</ele><time>2026-03-29T10:54:53.971Z</time></trkpt><trkpt lat="45.4557891" lon="10.493374"><ele>170.0</ele><time>2026-03-29T10:54:54.972Z</time></trkpt><trkpt lat="45.4558583" lon="10.4931926"><ele>170.0</ele><time>2026-03-29T10:54:55.971Z</time></trkpt><trkpt lat="45.455934" lon="10.4930234"><ele>170.0</ele><time>2026-03-29T10:54:56.972Z</time></trkpt><trkpt lat="45.4560123" lon="10.4928588"><ele>170.0</ele><time>2026-03-29T10:54:57.973Z</time></trkpt><trkpt lat="45.4560902" lon="10.4926976"><ele>170.0</ele><time>2026-03-29T10:54:58.971Z</time></trkpt><trkpt lat="45.4561536" lon="10.4925473"><ele>169.4</ele><time>2026-03-29T10:54:59.972Z</time></trkpt><trkpt lat="45.4561964" lon="10.4923737"><ele>168.8</ele><time>2026-03-29T10:55:00.972Z</time></trkpt><trkpt lat="45.4562097" lon="10.4922016"><ele>168.2</ele><time>2026-03-29T10:55:01.972Z</time></trkpt><trkpt lat="45.4562112" lon="10.4920524"><ele>167.6</ele><time>2026-03-29T10:55:02.972Z</time></trkpt><trkpt lat="45.4562106" lon="10.4919265"><ele>167.0</ele><time>2026-03-29T10:55:03.972Z</time></trkpt><trkpt lat="45.4562031" lon="10.4918312"><ele>166.16666666666666</ele><time>2026-03-29T10:55:04.972Z</time></trkpt><trkpt lat="45.4561933" lon="10.491715"><ele>165.33333333333331</ele><time>2026-03-29T10:55:06.972Z</time></trkpt><trkpt lat="45.4561937" lon="10.49157"><ele>164.5</ele><time>2026-03-29T10:56:03.972Z</time></trkpt><trkpt lat="45.456208" lon="10.4914007"><ele>163.66666666666666</ele><time>2026-03-29T10:56:05.971Z</time></trkpt><trkpt lat="45.4562248" lon="10.4913101"><ele>162.83333333333334</ele><time>2026-03-29T10:56:06.972Z</time></trkpt><trkpt lat="45.4562605" lon="10.4912133"><ele>162.0</ele><time>2026-03-29T10:56:07.972Z</time></trkpt><trkpt lat="45.4563078" lon="10.4911135"><ele>161.8</ele><time>2026-03-29T10:56:08.972Z</time></trkpt><trkpt lat="45.4563641" lon="10.4910266"><ele>161.6</ele><time>2026-03-29T10:56:09.971Z</time></trkpt><trkpt lat="45.4564292" lon="10.4909374"><ele>161.4</ele><time>2026-03-29T10:56:10.971Z</time></trkpt><trkpt lat="45.4564961" lon="10.4908447"><ele>161.20000000000002</ele><time>2026-03-29T10:56:11.972Z</time></trkpt><trkpt lat="45.4565732" lon="10.4907522"><ele>161.0</ele><time>2026-03-29T10:56:12.972Z</time></trkpt><trkpt lat="45.4566535" lon="10.4906553"><ele>161.0</ele><time>2026-03-29T10:56:13.971Z</time></trkpt><trkpt lat="45.4567342" lon="10.4905669"><ele>161.0</ele><time>2026-03-29T10:56:14.972Z</time></trkpt><trkpt lat="45.4568203" lon="10.4904775"><ele>161.0</ele><time>2026-03-29T10:56:15.972Z</time></trkpt><trkpt lat="45.4569094" lon="10.4903826"><ele>161.0</ele><time>2026-03-29T10:56:16.972Z</time></trkpt><trkpt lat="45.4569949" lon="10.4902916"><ele>161.0</ele><time>2026-03-29T10:56:17.972Z</time></trkpt><trkpt lat="45.4570838" lon="10.4901917"><ele>161.60000000000002</ele><time>2026-03-29T10:56:18.972Z</time></trkpt><trkpt lat="45.4571689" lon="10.490096"><ele>162.2</ele><time>2026-03-29T10:56:19.971Z</time></trkpt><trkpt lat="45.4572469" lon="10.4900149"><ele>162.8</ele><time>2026-03-29T10:56:20.972Z</time></trkpt><trkpt lat="45.4573271" lon="10.4899427"><ele>163.39999999999998</ele><time>2026-03-29T10:56:21.972Z</time></trkpt><trkpt lat="45.457417" lon="10.4898883"><ele>164.0</ele><time>2026-03-29T10:56:22.971Z</time></trkpt><trkpt lat="45.4575061" lon="10.4898263"><ele>164.0</ele><time>2026-03-29T10:56:23.972Z</time></trkpt><trkpt lat="45.4576045" lon="10.4897609"><ele>164.0</ele><time>2026-03-29T10:56:24.972Z</time></trkpt><trkpt lat="45.457706" lon="10.4896909"><ele>164.0</ele><time>2026-03-29T10:56:25.972Z</time></trkpt><trkpt lat="45.4578075" lon="10.4896225"><ele>164.0</ele><time>2026-03-29T10:56:26.971Z</time></trkpt><trkpt lat="45.4579056" lon="10.4895524"><ele>164.0</ele><time>2026-03-29T10:56:27.972Z</time></trkpt><trkpt lat="45.4580016" lon="10.489483"><ele>163.79999999999998</ele><time>2026-03-29T10:56:28.971Z</time></trkpt><trkpt lat="45.4580953" lon="10.4894171"><ele>163.6</ele><time>2026-03-29T10:56:29.972Z</time></trkpt><trkpt lat="45.4581936" lon="10.4893559"><ele>163.4</ele><time>2026-03-29T10:56:30.972Z</time></trkpt><trkpt lat="45.458293" lon="10.489297"><ele>163.2</ele><time>2026-03-29T10:56:31.972Z</time></trkpt><trkpt lat="45.4584015" lon="10.4892308"><ele>163.0</ele><time>2026-03-29T10:56:32.972Z</time></trkpt><trkpt lat="45.4585083" lon="10.4891746"><ele>163.0</ele><time>2026-03-29T10:56:33.971Z</time></trkpt><trkpt lat="45.4586191" lon="10.4891157"><ele>163.0</ele><time>2026-03-29T10:56:34.971Z</time></trkpt><trkpt lat="45.4587366" lon="10.489068"><ele>163.0</ele><time>2026-03-29T10:56:35.972Z</time></trkpt><trkpt lat="45.4588573" lon="10.489038"><ele>163.0</ele><time>2026-03-29T10:56:36.972Z</time></trkpt><trkpt lat="45.4589836" lon="10.4890229"><ele>163.5</ele><time>2026-03-29T10:56:37.971Z</time></trkpt><trkpt lat="45.4591151" lon="10.4890224"><ele>164.0</ele><time>2026-03-29T10:56:38.972Z</time></trkpt><trkpt lat="45.4592564" lon="10.4890391"><ele>164.5</ele><time>2026-03-29T10:56:39.972Z</time></trkpt><trkpt lat="45.4593998" lon="10.4890717"><ele>165.0</ele><time>2026-03-29T10:56:40.971Z</time></trkpt><trkpt lat="45.4595425" lon="10.4891218"><ele>164.25</ele><time>2026-03-29T10:56:41.972Z</time></trkpt><trkpt lat="45.4596784" lon="10.4891826"><ele>163.5</ele><time>2026-03-29T10:56:42.972Z</time></trkpt><trkpt lat="45.4598136" lon="10.4892624"><ele>162.75</ele><time>2026-03-29T10:56:43.972Z</time></trkpt><trkpt lat="45.459942" lon="10.4893519"><ele>162.0</ele><time>2026-03-29T10:56:44.971Z</time></trkpt><trkpt lat="45.4600631" lon="10.4894538"><ele>162.0</ele><time>2026-03-29T10:56:45.973Z</time></trkpt><trkpt lat="45.4601754" lon="10.4895752"><ele>162.0</ele><time>2026-03-29T10:56:46.972Z</time></trkpt><trkpt lat="45.4602782" lon="10.4897135"><ele>162.0</ele><time>2026-03-29T10:56:47.971Z</time></trkpt><trkpt lat="45.4603681" lon="10.4898616"><ele>162.0</ele><time>2026-03-29T10:56:48.972Z</time></trkpt><trkpt lat="45.4604512" lon="10.490018"><ele>161.8</ele><time>2026-03-29T10:56:49.971Z</time></trkpt><trkpt lat="45.4605259" lon="10.4901653"><ele>161.6</ele><time>2026-03-29T10:56:50.972Z</time></trkpt><trkpt lat="45.4605878" lon="10.4903049"><ele>161.4</ele><time>2026-03-29T10:56:51.971Z</time></trkpt><trkpt lat="45.4606288" lon="10.4904278"><ele>161.20000000000002</ele><time>2026-03-29T10:56:52.972Z</time></trkpt><trkpt lat="45.4606485" lon="10.4905508"><ele>161.0</ele><time>2026-03-29T10:56:53.971Z</time></trkpt><trkpt lat="45.4606509" lon="10.4906838"><ele>161.60000000000002</ele><time>2026-03-29T10:56:54.971Z</time></trkpt><trkpt lat="45.4606451" lon="10.4908134"><ele>162.2</ele><time>2026-03-29T10:56:55.972Z</time></trkpt><trkpt lat="45.4606679" lon="10.490943"><ele>162.8</ele><time>2026-03-29T10:56:56.972Z</time></trkpt><trkpt lat="45.4607233" lon="10.4910491"><ele>163.39999999999998</ele><time>2026-03-29T10:56:57.971Z</time></trkpt><trkpt lat="45.4608014" lon="10.4911096"><ele>164.0</ele><time>2026-03-29T10:56:58.972Z</time></trkpt><trkpt lat="45.4608918" lon="10.4911107"><ele>164.0</ele><time>2026-03-29T10:56:59.971Z</time></trkpt><trkpt lat="45.4609769" lon="10.4910561"><ele>164.0</ele><time>2026-03-29T10:57:00.972Z</time></trkpt><trkpt lat="45.4610439" lon="10.4909546"><ele>164.0</ele><time>2026-03-29T10:57:01.972Z</time></trkpt><trkpt lat="45.4610887" lon="10.4908189"><ele>164.0</ele><time>2026-03-29T10:57:02.971Z</time></trkpt><trkpt lat="45.4611239" lon="10.4906657"><ele>164.0</ele><time>2026-03-29T10:57:03.972Z</time></trkpt><trkpt lat="45.4611719" lon="10.4905171"><ele>164.5</ele><time>2026-03-29T10:57:04.971Z</time></trkpt><trkpt lat="45.4612413" lon="10.4903776"><ele>165.0</ele><time>2026-03-29T10:57:05.971Z</time></trkpt><trkpt lat="45.4613157" lon="10.4902432"><ele>165.5</ele><time>2026-03-29T10:57:06.971Z</time></trkpt><trkpt lat="45.46138" lon="10.4901058"><ele>166.0</ele><time>2026-03-29T10:57:07.972Z</time></trkpt><trkpt lat="45.4614526" lon="10.4899756"><ele>166.0</ele><time>2026-03-29T10:57:08.972Z</time></trkpt><trkpt lat="45.4615475" lon="10.4898815"><ele>166.0</ele><time>2026-03-29T10:57:09.972Z</time></trkpt><trkpt lat="45.4616563" lon="10.4898164"><ele>166.0</ele><time>2026-03-29T10:57:10.972Z</time></trkpt><trkpt lat="45.4617747" lon="10.4897861"><ele>166.0</ele><time>2026-03-29T10:57:11.971Z</time></trkpt><trkpt lat="45.4618971" lon="10.48979"><ele>166.0</ele><time>2026-03-29T10:57:12.972Z</time></trkpt><trkpt lat="45.4620227" lon="10.4898513"><ele>166.0</ele><time>2026-03-29T10:57:13.972Z</time></trkpt><trkpt lat="45.4621347" lon="10.4899279"><ele>166.0</ele><time>2026-03-29T10:57:14.971Z</time></trkpt><trkpt lat="45.4622555" lon="10.4900085"><ele>166.0</ele><time>2026-03-29T10:57:15.972Z</time></trkpt><trkpt lat="45.4623802" lon="10.4900832"><ele>166.75</ele><time>2026-03-29T10:57:16.971Z</time></trkpt><trkpt lat="45.4625094" lon="10.4901392"><ele>167.5</ele><time>2026-03-29T10:57:17.972Z</time></trkpt><trkpt lat="45.4626497" lon="10.490168"><ele>168.25</ele><time>2026-03-29T10:57:18.972Z</time></trkpt><trkpt lat="45.4627919" lon="10.4901616"><ele>169.0</ele><time>2026-03-29T10:57:19.973Z</time></trkpt><trkpt lat="45.4629309" lon="10.4901016"><ele>168.66666666666669</ele><time>2026-03-29T10:57:20.971Z</time></trkpt><trkpt lat="45.46307" lon="10.4900166"><ele>168.33333333333334</ele><time>2026-03-29T10:57:21.971Z</time></trkpt><trkpt lat="45.463205" lon="10.4899234"><ele>168.0</ele><time>2026-03-29T10:57:22.971Z</time></trkpt><trkpt lat="45.4633427" lon="10.4898247"><ele>168.0</ele><time>2026-03-29T10:57:23.972Z</time></trkpt><trkpt lat="45.4634751" lon="10.489718"><ele>168.0</ele><time>2026-03-29T10:57:24.972Z</time></trkpt><trkpt lat="45.4636127" lon="10.4896175"><ele>168.0</ele><time>2026-03-29T10:57:25.972Z</time></trkpt><trkpt lat="45.4637495" lon="10.4895133"><ele>168.0</ele><time>2026-03-29T10:57:26.972Z</time></trkpt><trkpt lat="45.4638815" lon="10.4894025"><ele>168.0</ele><time>2026-03-29T10:57:27.972Z</time></trkpt><trkpt lat="45.4640194" lon="10.489292"><ele>168.0</ele><time>2026-03-29T10:57:28.972Z</time></trkpt><trkpt lat="45.4641602" lon="10.4891842"><ele>168.0</ele><time>2026-03-29T10:57:29.972Z</time></trkpt><trkpt lat="45.4643055" lon="10.4890847"><ele>168.0</ele><time>2026-03-29T10:57:30.972Z</time></trkpt><trkpt lat="45.4644569" lon="10.4890014"><ele>168.0</ele><time>2026-03-29T10:57:31.972Z</time></trkpt><trkpt lat="45.4646129" lon="10.4889318"><ele>167.0</ele><time>2026-03-29T10:57:32.972Z</time></trkpt><trkpt lat="45.4647751" lon="10.4888757"><ele>166.0</ele><time>2026-03-29T10:57:33.971Z</time></trkpt><trkpt lat="45.4649412" lon="10.488837"><ele>165.0</ele><time>2026-03-29T10:57:34.972Z</time></trkpt><trkpt lat="45.4651102" lon="10.4888175"><ele>165.0</ele><time>2026-03-29T10:57:35.972Z</time></trkpt><trkpt lat="45.4652816" lon="10.4888143"><ele>165.0</ele><time>2026-03-29T10:57:36.972Z</time></trkpt><trkpt lat="45.4654541" lon="10.4888259"><ele>165.0</ele><time>2026-03-29T10:57:37.971Z</time></trkpt><trkpt lat="45.4656247" lon="10.4888496"><ele>163.0</ele><time>2026-03-29T10:57:38.973Z</time></trkpt><trkpt lat="45.4657978" lon="10.488887"><ele>161.0</ele><time>2026-03-29T10:57:39.971Z</time></trkpt><trkpt lat="45.4659697" lon="10.4889297"><ele>159.0</ele><time>2026-03-29T10:57:40.972Z</time></trkpt><trkpt lat="45.4661398" lon="10.4889698"><ele>161.33333333333334</ele><time>2026-03-29T10:57:41.971Z</time></trkpt><trkpt lat="45.4663101" lon="10.4890095"><ele>163.66666666666669</ele><time>2026-03-29T10:57:42.971Z</time></trkpt><trkpt lat="45.4664804" lon="10.4890494"><ele>166.0</ele><time>2026-03-29T10:57:43.972Z</time></trkpt><trkpt lat="45.4666487" lon="10.4890896"><ele>166.0</ele><time>2026-03-29T10:57:44.971Z</time></trkpt><trkpt lat="45.4668127" lon="10.4891338"><ele>166.0</ele><time>2026-03-29T10:57:45.971Z</time></trkpt><trkpt lat="45.466978" lon="10.4891804"><ele>166.0</ele><time>2026-03-29T10:57:46.971Z</time></trkpt><trkpt lat="45.4671424" lon="10.4892307"><ele>166.66666666666669</ele><time>2026-03-29T10:57:47.97Z</time></trkpt><trkpt lat="45.4673086" lon="10.4892852"><ele>167.33333333333334</ele><time>2026-03-29T10:57:48.971Z</time></trkpt><trkpt lat="45.467475" lon="10.4893446"><ele>168.0</ele><time>2026-03-29T10:57:49.97Z</time></trkpt><trkpt lat="45.4676432" lon="10.4894104"><ele>168.0</ele><time>2026-03-29T10:57:50.97Z</time></trkpt><trkpt lat="45.4678082" lon="10.4894787"><ele>168.0</ele><time>2026-03-29T10:57:51.971Z</time></trkpt><trkpt lat="45.4679753" lon="10.4895444"><ele>168.0</ele><time>2026-03-29T10:57:52.971Z</time></trkpt><trkpt lat="45.4681378" lon="10.4896148"><ele>167.0</ele><time>2026-03-29T10:57:53.971Z</time></trkpt><trkpt lat="45.4683011" lon="10.4896899"><ele>166.0</ele><time>2026-03-29T10:57:54.971Z</time></trkpt><trkpt lat="45.4684664" lon="10.4897622"><ele>165.0</ele><time>2026-03-29T10:57:55.971Z</time></trkpt><trkpt lat="45.4686332" lon="10.4898305"><ele>163.66666666666666</ele><time>2026-03-29T10:57:56.97Z</time></trkpt><trkpt lat="45.4688026" lon="10.4899031"><ele>162.33333333333331</ele><time>2026-03-29T10:57:57.97Z</time></trkpt><trkpt lat="45.4689739" lon="10.4899767"><ele>161.0</ele><time>2026-03-29T10:57:58.971Z</time></trkpt><trkpt lat="45.4691453" lon="10.4900535"><ele>161.0</ele><time>2026-03-29T10:57:59.97Z</time></trkpt><trkpt lat="45.4693193" lon="10.4901315"><ele>161.0</ele><time>2026-03-29T10:58:00.971Z</time></trkpt><trkpt lat="45.469493" lon="10.4902142"><ele>161.0</ele><time>2026-03-29T10:58:01.971Z</time></trkpt><trkpt lat="45.4696672" lon="10.4902945"><ele>160.33333333333331</ele><time>2026-03-29T10:58:02.971Z</time></trkpt><trkpt lat="45.469841" lon="10.4903739"><ele>159.66666666666666</ele><time>2026-03-29T10:58:03.97Z</time></trkpt><trkpt lat="45.4700147" lon="10.4904516"><ele>159.0</ele><time>2026-03-29T10:58:04.971Z</time></trkpt><trkpt lat="45.4701894" lon="10.4905285"><ele>158.66666666666666</ele><time>2026-03-29T10:58:05.971Z</time></trkpt><trkpt lat="45.4703644" lon="10.4906029"><ele>158.33333333333331</ele><time>2026-03-29T10:58:06.97Z</time></trkpt><trkpt lat="45.4705402" lon="10.4906776"><ele>158.0</ele><time>2026-03-29T10:58:07.971Z</time></trkpt><trkpt lat="45.4707148" lon="10.4907522"><ele>157.33333333333331</ele><time>2026-03-29T10:58:08.971Z</time></trkpt><trkpt lat="45.4708892" lon="10.4908296"><ele>156.66666666666666</ele><time>2026-03-29T10:58:09.97Z</time></trkpt><trkpt lat="45.4710631" lon="10.4909078"><ele>156.0</ele><time>2026-03-29T10:58:10.97Z</time></trkpt><trkpt lat="45.4712371" lon="10.4909856"><ele>155.33333333333334</ele><time>2026-03-29T10:58:11.971Z</time></trkpt><trkpt lat="45.4714093" lon="10.4910624"><ele>154.66666666666669</ele><time>2026-03-29T10:58:12.971Z</time></trkpt><trkpt lat="45.4715797" lon="10.491137"><ele>154.0</ele><time>2026-03-29T10:58:13.97Z</time></trkpt><trkpt lat="45.4717464" lon="10.4912115"><ele>153.33333333333334</ele><time>2026-03-29T10:58:14.971Z</time></trkpt><trkpt lat="45.4719131" lon="10.4912828"><ele>152.66666666666666</ele><time>2026-03-29T10:58:15.97Z</time></trkpt><trkpt lat="45.4720766" lon="10.4913518"><ele>152.0</ele><time>2026-03-29T10:58:16.971Z</time></trkpt><trkpt lat="45.4722282" lon="10.4914158"><ele>152.0</ele><time>2026-03-29T10:58:17.971Z</time></trkpt><trkpt lat="45.4723637" lon="10.4914766"><ele>152.0</ele><time>2026-03-29T10:58:18.97Z</time></trkpt><trkpt lat="45.4724838" lon="10.4915285"><ele>152.0</ele><time>2026-03-29T10:58:19.97Z</time></trkpt><trkpt lat="45.4725855" lon="10.4915707"><ele>152.0</ele><time>2026-03-29T10:58:20.971Z</time></trkpt><trkpt lat="45.4726692" lon="10.4916077"><ele>152.0</ele><time>2026-03-29T10:58:21.97Z</time></trkpt><trkpt lat="45.4727333" lon="10.4916347"><ele>152.0</ele><time>2026-03-29T10:58:22.97Z</time></trkpt><trkpt lat="45.4728198" lon="10.4916517"><ele>152.0</ele><time>2026-03-29T10:58:24.97Z</time></trkpt><trkpt lat="45.472862" lon="10.4915428"><ele>152.0</ele><time>2026-03-29T10:58:26.971Z</time></trkpt><trkpt lat="45.4728808" lon="10.4914371"><ele>152.0</ele><time>2026-03-29T10:58:27.971Z</time></trkpt><trkpt lat="45.4728959" lon="10.4913118"><ele>152.0</ele><time>2026-03-29T10:58:28.972Z</time></trkpt><trkpt lat="45.4729106" lon="10.491169"><ele>152.79999999999998</ele><time>2026-03-29T10:58:29.971Z</time></trkpt><trkpt lat="45.4729276" lon="10.4910256"><ele>153.6</ele><time>2026-03-29T10:58:30.971Z</time></trkpt><trkpt lat="45.4729552" lon="10.4909111"><ele>154.39999999999998</ele><time>2026-03-29T10:58:31.971Z</time></trkpt><trkpt lat="45.4729948" lon="10.4908351"><ele>155.2</ele><time>2026-03-29T10:58:32.97Z</time></trkpt><trkpt lat="45.4731331" lon="10.4908177"><ele>156.0</ele><time>2026-03-29T10:58:34.97Z</time></trkpt><trkpt lat="45.4732276" lon="10.4908492"><ele>156.2</ele><time>2026-03-29T10:58:35.97Z</time></trkpt><trkpt lat="45.4733277" lon="10.4908798"><ele>156.39999999999998</ele><time>2026-03-29T10:58:36.971Z</time></trkpt><trkpt lat="45.4734317" lon="10.490894"><ele>156.6</ele><time>2026-03-29T10:58:37.97Z</time></trkpt><trkpt lat="45.4735278" lon="10.490865"><ele>156.79999999999998</ele><time>2026-03-29T10:58:38.97Z</time></trkpt><trkpt lat="45.4735982" lon="10.4907844"><ele>157.0</ele><time>2026-03-29T10:58:39.971Z</time></trkpt><trkpt lat="45.473652" lon="10.4907114"><ele>157.0</ele><time>2026-03-29T10:58:40.971Z</time></trkpt><trkpt lat="45.4737189" lon="10.4906473"><ele>157.0</ele><time>2026-03-29T10:58:41.971Z</time></trkpt><trkpt lat="45.473801" lon="10.49061"><ele>157.0</ele><time>2026-03-29T10:58:42.971Z</time></trkpt><trkpt lat="45.4738984" lon="10.4906162"><ele>157.0</ele><time>2026-03-29T10:58:43.971Z</time></trkpt><trkpt lat="45.474008" lon="10.4906319"><ele>157.0</ele><time>2026-03-29T10:58:44.971Z</time></trkpt><trkpt lat="45.474126" lon="10.490651"><ele>157.75</ele><time>2026-03-29T10:58:45.97Z</time></trkpt><trkpt lat="45.4742508" lon="10.490672"><ele>158.5</ele><time>2026-03-29T10:58:46.971Z</time></trkpt><trkpt lat="45.4743866" lon="10.4906911"><ele>159.25</ele><time>2026-03-29T10:58:47.971Z</time></trkpt><trkpt lat="45.4745211" lon="10.4907133"><ele>160.0</ele><time>2026-03-29T10:58:48.971Z</time></trkpt><trkpt lat="45.4746427" lon="10.4907304"><ele>160.75</ele><time>2026-03-29T10:58:49.971Z</time></trkpt><trkpt lat="45.474751" lon="10.4907145"><ele>161.5</ele><time>2026-03-29T10:58:50.971Z</time></trkpt><trkpt lat="45.4748601" lon="10.4906571"><ele>162.25</ele><time>2026-03-29T10:58:51.97Z</time></trkpt><trkpt lat="45.4749644" lon="10.4905837"><ele>163.0</ele><time>2026-03-29T10:58:52.971Z</time></trkpt><trkpt lat="45.4750712" lon="10.4905171"><ele>163.0</ele><time>2026-03-29T10:58:53.97Z</time></trkpt><trkpt lat="45.4751757" lon="10.4904625"><ele>163.0</ele><time>2026-03-29T10:58:54.971Z</time></trkpt><trkpt lat="45.4752751" lon="10.4904339"><ele>163.0</ele><time>2026-03-29T10:58:55.971Z</time></trkpt><trkpt lat="45.475375" lon="10.4904365"><ele>163.0</ele><time>2026-03-29T10:58:56.97Z</time></trkpt><trkpt lat="45.4754886" lon="10.4904717"><ele>163.0</ele><time>2026-03-29T10:58:57.97Z</time></trkpt><trkpt lat="45.4756007" lon="10.4905"><ele>164.0</ele><time>2026-03-29T10:58:58.971Z</time></trkpt><trkpt lat="45.4757208" lon="10.4905473"><ele>165.0</ele><time>2026-03-29T10:58:59.971Z</time></trkpt><trkpt lat="45.4758284" lon="10.4905898"><ele>166.0</ele><time>2026-03-29T10:59:00.971Z</time></trkpt><trkpt lat="45.4759364" lon="10.490636"><ele>167.0</ele><time>2026-03-29T10:59:01.971Z</time></trkpt><trkpt lat="45.4760327" lon="10.4907343"><ele>167.0</ele><time>2026-03-29T10:59:02.972Z</time></trkpt><trkpt lat="45.4761346" lon="10.4908377"><ele>167.0</ele><time>2026-03-29T10:59:03.97Z</time></trkpt><trkpt lat="45.476235" lon="10.4909264"><ele>167.0</ele><time>2026-03-29T10:59:04.971Z</time></trkpt><trkpt lat="45.4763461" lon="10.4910104"><ele>167.0</ele><time>2026-03-29T10:59:05.971Z</time></trkpt><trkpt lat="45.4764585" lon="10.4910938"><ele>167.0</ele><time>2026-03-29T10:59:06.971Z</time></trkpt><trkpt lat="45.4765712" lon="10.4911679"><ele>167.0</ele><time>2026-03-29T10:59:07.971Z</time></trkpt><trkpt lat="45.4766849" lon="10.49125"><ele>167.0</ele><time>2026-03-29T10:59:08.97Z</time></trkpt><trkpt lat="45.4767989" lon="10.491334"><ele>167.0</ele><time>2026-03-29T10:59:09.971Z</time></trkpt><trkpt lat="45.4769055" lon="10.4914327"><ele>167.0</ele><time>2026-03-29T10:59:10.971Z</time></trkpt><trkpt lat="45.4770117" lon="10.4915561"><ele>167.0</ele><time>2026-03-29T10:59:11.971Z</time></trkpt><trkpt lat="45.4771186" lon="10.4916799"><ele>167.0</ele><time>2026-03-29T10:59:12.971Z</time></trkpt><trkpt lat="45.4772224" lon="10.4918077"><ele>167.0</ele><time>2026-03-29T10:59:13.971Z</time></trkpt><trkpt lat="45.4773246" lon="10.4919414"><ele>168.0</ele><time>2026-03-29T10:59:14.971Z</time></trkpt><trkpt lat="45.4774299" lon="10.4920793"><ele>169.0</ele><time>2026-03-29T10:59:15.971Z</time></trkpt><trkpt lat="45.4775359" lon="10.4922088"><ele>170.0</ele><time>2026-03-29T10:59:16.971Z</time></trkpt><trkpt lat="45.477642" lon="10.4923359"><ele>171.0</ele><time>2026-03-29T10:59:17.971Z</time></trkpt><trkpt lat="45.4777464" lon="10.4924546"><ele>171.0</ele><time>2026-03-29T10:59:18.971Z</time></trkpt><trkpt lat="45.4778439" lon="10.4925617"><ele>171.0</ele><time>2026-03-29T10:59:19.971Z</time></trkpt><trkpt lat="45.4779462" lon="10.4926702"><ele>171.0</ele><time>2026-03-29T10:59:20.971Z</time></trkpt><trkpt lat="45.4780494" lon="10.4927779"><ele>171.0</ele><time>2026-03-29T10:59:21.97Z</time></trkpt><trkpt lat="45.4781468" lon="10.492877"><ele>170.60000000000002</ele><time>2026-03-29T10:59:22.971Z</time></trkpt><trkpt lat="45.4782396" lon="10.4929884"><ele>170.2</ele><time>2026-03-29T10:59:23.97Z</time></trkpt><trkpt lat="45.478325" lon="10.4930884"><ele>169.8</ele><time>2026-03-29T10:59:24.971Z</time></trkpt><trkpt lat="45.4784056" lon="10.4931763"><ele>169.39999999999998</ele><time>2026-03-29T10:59:25.97Z</time></trkpt><trkpt lat="45.4784828" lon="10.4932376"><ele>169.0</ele><time>2026-03-29T10:59:26.971Z</time></trkpt><trkpt lat="45.4785456" lon="10.4932701"><ele>169.0</ele><time>2026-03-29T10:59:27.97Z</time></trkpt><trkpt lat="45.4786465" lon="10.4932279"><ele>169.0</ele><time>2026-03-29T10:59:29.971Z</time></trkpt><trkpt lat="45.4786963" lon="10.4931491"><ele>169.0</ele><time>2026-03-29T10:59:30.971Z</time></trkpt><trkpt lat="45.478735" lon="10.4930366"><ele>169.0</ele><time>2026-03-29T10:59:31.97Z</time></trkpt><trkpt lat="45.4787667" lon="10.4929003"><ele>169.0</ele><time>2026-03-29T10:59:32.971Z</time></trkpt><trkpt lat="45.4787953" lon="10.4927571"><ele>170.0</ele><time>2026-03-29T10:59:33.97Z</time></trkpt><trkpt lat="45.478822" lon="10.4926129"><ele>171.0</ele><time>2026-03-29T10:59:34.971Z</time></trkpt><trkpt lat="45.4788489" lon="10.4924656"><ele>172.0</ele><time>2026-03-29T10:59:35.97Z</time></trkpt><trkpt lat="45.4788781" lon="10.4923123"><ele>173.0</ele><time>2026-03-29T10:59:36.97Z</time></trkpt><trkpt lat="45.4789013" lon="10.4921552"><ele>174.0</ele><time>2026-03-29T10:59:37.971Z</time></trkpt><trkpt lat="45.4789358" lon="10.4920015"><ele>174.6</ele><time>2026-03-29T10:59:38.971Z</time></trkpt><trkpt lat="45.4789847" lon="10.4918506"><ele>175.2</ele><time>2026-03-29T10:59:39.971Z</time></trkpt><trkpt lat="45.4790476" lon="10.4917247"><ele>175.79999999999998</ele><time>2026-03-29T10:59:40.97Z</time></trkpt><trkpt lat="45.4791208" lon="10.4916212"><ele>176.39999999999998</ele><time>2026-03-29T10:59:41.971Z</time></trkpt><trkpt lat="45.4792024" lon="10.4915581"><ele>177.0</ele><time>2026-03-29T10:59:42.971Z</time></trkpt><trkpt lat="45.4792949" lon="10.4915294"><ele>177.0</ele><time>2026-03-29T10:59:43.97Z</time></trkpt><trkpt lat="45.4794008" lon="10.491529"><ele>177.0</ele><time>2026-03-29T10:59:44.971Z</time></trkpt><trkpt lat="45.4795172" lon="10.4915449"><ele>177.0</ele><time>2026-03-29T10:59:45.971Z</time></trkpt><trkpt lat="45.4796328" lon="10.4915696"><ele>177.0</ele><time>2026-03-29T10:59:46.971Z</time></trkpt><trkpt lat="45.4797584" lon="10.4915968"><ele>177.5</ele><time>2026-03-29T10:59:47.971Z</time></trkpt><trkpt lat="45.4798866" lon="10.4916272"><ele>178.0</ele><time>2026-03-29T10:59:48.971Z</time></trkpt><trkpt lat="45.4800165" lon="10.4916493"><ele>178.5</ele><time>2026-03-29T10:59:49.971Z</time></trkpt><trkpt lat="45.4801506" lon="10.4916558"><ele>179.0</ele><time>2026-03-29T10:59:50.971Z</time></trkpt><trkpt lat="45.4802808" lon="10.4916497"><ele>179.0</ele><time>2026-03-29T10:59:51.971Z</time></trkpt><trkpt lat="45.4804053" lon="10.4916393"><ele>179.0</ele><time>2026-03-29T10:59:52.97Z</time></trkpt><trkpt lat="45.480532" lon="10.4916453"><ele>179.0</ele><time>2026-03-29T10:59:53.971Z</time></trkpt><trkpt lat="45.4806602" lon="10.4916727"><ele>179.0</ele><time>2026-03-29T10:59:54.971Z</time></trkpt><trkpt lat="45.4807848" lon="10.4917292"><ele>179.5</ele><time>2026-03-29T10:59:55.97Z</time></trkpt><trkpt lat="45.4809034" lon="10.4918003"><ele>180.0</ele><time>2026-03-29T10:59:56.971Z</time></trkpt><trkpt lat="45.4810222" lon="10.4918648"><ele>180.5</ele><time>2026-03-29T10:59:57.971Z</time></trkpt><trkpt lat="45.4811384" lon="10.4919029"><ele>181.0</ele><time>2026-03-29T10:59:58.971Z</time></trkpt><trkpt lat="45.4812617" lon="10.4919319"><ele>182.25</ele><time>2026-03-29T10:59:59.971Z</time></trkpt><trkpt lat="45.4813808" lon="10.4919467"><ele>183.5</ele><time>2026-03-29T11:00:00.971Z</time></trkpt><trkpt lat="45.4814942" lon="10.4919606"><ele>184.75</ele><time>2026-03-29T11:00:01.971Z</time></trkpt><trkpt lat="45.4816125" lon="10.4919739"><ele>186.0</ele><time>2026-03-29T11:00:02.971Z</time></trkpt><trkpt lat="45.4817278" lon="10.4919955"><ele>186.0</ele><time>2026-03-29T11:00:03.97Z</time></trkpt><trkpt lat="45.4818375" lon="10.4920264"><ele>186.0</ele><time>2026-03-29T11:00:04.971Z</time></trkpt><trkpt lat="45.4819387" lon="10.4920624"><ele>186.0</ele><time>2026-03-29T11:00:05.97Z</time></trkpt><trkpt lat="45.4820392" lon="10.4920887"><ele>186.0</ele><time>2026-03-29T11:00:06.971Z</time></trkpt><trkpt lat="45.4821315" lon="10.4921048"><ele>186.0</ele><time>2026-03-29T11:00:07.97Z</time></trkpt><trkpt lat="45.4822184" lon="10.4921049"><ele>185.16666666666666</ele><time>2026-03-29T11:00:08.971Z</time></trkpt><trkpt lat="45.4822901" lon="10.4921061"><ele>184.33333333333334</ele><time>2026-03-29T11:00:09.97Z</time></trkpt><trkpt lat="45.482395" lon="10.4920876"><ele>183.5</ele><time>2026-03-29T11:00:11.97Z</time></trkpt><trkpt lat="45.4824221" lon="10.4920052"><ele>182.66666666666669</ele><time>2026-03-29T11:00:13.971Z</time></trkpt><trkpt lat="45.482376" lon="10.4918874"><ele>181.83333333333334</ele><time>2026-03-29T11:00:15.971Z</time></trkpt><trkpt lat="45.4823187" lon="10.4918122"><ele>181.0</ele><time>2026-03-29T11:00:16.971Z</time></trkpt><trkpt lat="45.4822527" lon="10.4917169"><ele>182.0</ele><time>2026-03-29T11:00:17.97Z</time></trkpt><trkpt lat="45.4821894" lon="10.4916129"><ele>183.0</ele><time>2026-03-29T11:00:18.971Z</time></trkpt><trkpt lat="45.4821185" lon="10.4914887"><ele>184.0</ele><time>2026-03-29T11:00:19.971Z</time></trkpt><trkpt lat="45.4820421" lon="10.4913665"><ele>185.0</ele><time>2026-03-29T11:00:20.97Z</time></trkpt><trkpt lat="45.4819618" lon="10.4912386"><ele>186.0</ele><time>2026-03-29T11:00:21.971Z</time></trkpt><trkpt lat="45.481874" lon="10.4911005"><ele>187.75</ele><time>2026-03-29T11:00:22.97Z</time></trkpt><trkpt lat="45.4817786" lon="10.4909669"><ele>189.5</ele><time>2026-03-29T11:00:23.971Z</time></trkpt><trkpt lat="45.481685" lon="10.490831"><ele>191.25</ele><time>2026-03-29T11:00:24.97Z</time></trkpt><trkpt lat="45.4815998" lon="10.4906923"><ele>193.0</ele><time>2026-03-29T11:00:25.971Z</time></trkpt><trkpt lat="45.4815211" lon="10.4905701"><ele>193.0</ele><time>2026-03-29T11:00:26.97Z</time></trkpt><trkpt lat="45.4814543" lon="10.4904478"><ele>193.0</ele><time>2026-03-29T11:00:27.971Z</time></trkpt><trkpt lat="45.4813847" lon="10.490334"><ele>193.0</ele><time>2026-03-29T11:00:28.971Z</time></trkpt><trkpt lat="45.4813084" lon="10.4902177"><ele>193.0</ele><time>2026-03-29T11:00:29.971Z</time></trkpt><trkpt lat="45.4812314" lon="10.4900957"><ele>193.0</ele><time>2026-03-29T11:00:30.97Z</time></trkpt><trkpt lat="45.4811536" lon="10.4899634"><ele>193.75</ele><time>2026-03-29T11:00:31.971Z</time></trkpt><trkpt lat="45.4810781" lon="10.4898318"><ele>194.5</ele><time>2026-03-29T11:00:32.971Z</time></trkpt><trkpt lat="45.4809942" lon="10.4897149"><ele>195.25</ele><time>2026-03-29T11:00:33.97Z</time></trkpt><trkpt lat="45.4808991" lon="10.4896204"><ele>196.0</ele><time>2026-03-29T11:00:34.97Z</time></trkpt><trkpt lat="45.4807862" lon="10.4895861"><ele>196.0</ele><time>2026-03-29T11:00:35.97Z</time></trkpt><trkpt lat="45.480671" lon="10.4895766"><ele>196.0</ele><time>2026-03-29T11:00:36.971Z</time></trkpt><trkpt lat="45.4805459" lon="10.489582"><ele>196.0</ele><time>2026-03-29T11:00:37.971Z</time></trkpt><trkpt lat="45.4804407" lon="10.4895528"><ele>196.0</ele><time>2026-03-29T11:00:38.97Z</time></trkpt><trkpt lat="45.4803326" lon="10.4894981"><ele>196.5</ele><time>2026-03-29T11:00:39.971Z</time></trkpt><trkpt lat="45.4802275" lon="10.4894109"><ele>197.0</ele><time>2026-03-29T11:00:40.971Z</time></trkpt><trkpt lat="45.4801195" lon="10.4893011"><ele>197.5</ele><time>2026-03-29T11:00:41.97Z</time></trkpt><trkpt lat="45.480023" lon="10.4891708"><ele>198.0</ele><time>2026-03-29T11:00:42.971Z</time></trkpt><trkpt lat="45.4799271" lon="10.4890313"><ele>198.0</ele><time>2026-03-29T11:00:43.97Z</time></trkpt><trkpt lat="45.4798529" lon="10.4888768"><ele>198.0</ele><time>2026-03-29T11:00:44.97Z</time></trkpt><trkpt lat="45.4797891" lon="10.4887276"><ele>198.0</ele><time>2026-03-29T11:00:45.971Z</time></trkpt><trkpt lat="45.4797326" lon="10.4885691"><ele>198.0</ele><time>2026-03-29T11:00:46.97Z</time></trkpt><trkpt lat="45.4796814" lon="10.4884012"><ele>197.5</ele><time>2026-03-29T11:00:47.97Z</time></trkpt><trkpt lat="45.4796277" lon="10.4882304"><ele>197.0</ele><time>2026-03-29T11:00:48.972Z</time></trkpt><trkpt lat="45.479568" lon="10.488052"><ele>196.5</ele><time>2026-03-29T11:00:49.971Z</time></trkpt><trkpt lat="45.4795102" lon="10.4878794"><ele>196.0</ele><time>2026-03-29T11:00:50.97Z</time></trkpt><trkpt lat="45.479439" lon="10.4877192"><ele>197.4</ele><time>2026-03-29T11:00:51.971Z</time></trkpt><trkpt lat="45.4793646" lon="10.4875753"><ele>198.8</ele><time>2026-03-29T11:00:52.971Z</time></trkpt><trkpt lat="45.4792824" lon="10.4874583"><ele>200.20000000000002</ele><time>2026-03-29T11:00:53.971Z</time></trkpt><trkpt lat="45.4792291" lon="10.4873824"><ele>201.60000000000002</ele><time>2026-03-29T11:00:55.97Z</time></trkpt><trkpt lat="45.4792329" lon="10.4872474"><ele>203.0</ele><time>2026-03-29T11:00:57.97Z</time></trkpt><trkpt lat="45.4792886" lon="10.4871545"><ele>203.60000000000002</ele><time>2026-03-29T11:00:58.97Z</time></trkpt><trkpt lat="45.4793331" lon="10.4870331"><ele>204.20000000000002</ele><time>2026-03-29T11:00:59.97Z</time></trkpt><trkpt lat="45.4793737" lon="10.4868989"><ele>204.8</ele><time>2026-03-29T11:01:00.971Z</time></trkpt><trkpt lat="45.479428" lon="10.4867508"><ele>205.4</ele><time>2026-03-29T11:01:01.971Z</time></trkpt><trkpt lat="45.4794847" lon="10.4865872"><ele>206.0</ele><time>2026-03-29T11:01:02.97Z</time></trkpt><trkpt lat="45.4795438" lon="10.4864254"><ele>207.0</ele><time>2026-03-29T11:01:03.971Z</time></trkpt><trkpt lat="45.4796183" lon="10.4862406"><ele>208.0</ele><time>2026-03-29T11:01:04.971Z</time></trkpt><trkpt lat="45.4796934" lon="10.486067"><ele>209.0</ele><time>2026-03-29T11:01:05.97Z</time></trkpt><trkpt lat="45.4797766" lon="10.4858822"><ele>210.0</ele><time>2026-03-29T11:01:06.971Z</time></trkpt><trkpt lat="45.4798543" lon="10.4857043"><ele>210.0</ele><time>2026-03-29T11:01:07.971Z</time></trkpt><trkpt lat="45.4799276" lon="10.4855357"><ele>210.0</ele><time>2026-03-29T11:01:08.971Z</time></trkpt><trkpt lat="45.4799947" lon="10.4853956"><ele>210.0</ele><time>2026-03-29T11:01:09.97Z</time></trkpt><trkpt lat="45.4800401" lon="10.4852708"><ele>210.0</ele><time>2026-03-29T11:01:10.97Z</time></trkpt><trkpt lat="45.4800846" lon="10.4851509"><ele>210.8</ele><time>2026-03-29T11:01:11.971Z</time></trkpt><trkpt lat="45.4801234" lon="10.4850323"><ele>211.6</ele><time>2026-03-29T11:01:12.97Z</time></trkpt><trkpt lat="45.4801591" lon="10.484892"><ele>212.39999999999998</ele><time>2026-03-29T11:01:13.971Z</time></trkpt><trkpt lat="45.4801937" lon="10.4847492"><ele>213.2</ele><time>2026-03-29T11:01:14.971Z</time></trkpt><trkpt lat="45.480226" lon="10.484606"><ele>214.0</ele><time>2026-03-29T11:01:15.97Z</time></trkpt><trkpt lat="45.4802391" lon="10.484462"><ele>215.0</ele><time>2026-03-29T11:01:16.971Z</time></trkpt><trkpt lat="45.4802421" lon="10.4843222"><ele>216.0</ele><time>2026-03-29T11:01:17.971Z</time></trkpt><trkpt lat="45.4802163" lon="10.4841642"><ele>217.0</ele><time>2026-03-29T11:01:18.97Z</time></trkpt><trkpt lat="45.4801803" lon="10.4840015"><ele>218.0</ele><time>2026-03-29T11:01:19.971Z</time></trkpt><trkpt lat="45.4801316" lon="10.4838456"><ele>219.25</ele><time>2026-03-29T11:01:20.971Z</time></trkpt><trkpt lat="45.4800702" lon="10.4837011"><ele>220.5</ele><time>2026-03-29T11:01:21.971Z</time></trkpt><trkpt lat="45.4800015" lon="10.483575"><ele>221.75</ele><time>2026-03-29T11:01:22.971Z</time></trkpt><trkpt lat="45.4799122" lon="10.4834498"><ele>223.0</ele><time>2026-03-29T11:01:23.97Z</time></trkpt><trkpt lat="45.479835" lon="10.4833329"><ele>222.99999999999997</ele><time>2026-03-29T11:01:24.97Z</time></trkpt><trkpt lat="45.4797699" lon="10.4832116"><ele>223.0</ele><time>2026-03-29T11:01:25.972Z</time></trkpt><trkpt lat="45.4797721" lon="10.4831208"><ele>223.0</ele><time>2026-03-29T11:01:26.97Z</time></trkpt><trkpt lat="45.4797557" lon="10.4830017"><ele>223.0</ele><time>2026-03-29T11:01:27.97Z</time></trkpt><trkpt lat="45.4797486" lon="10.4828774"><ele>222.99999999999997</ele><time>2026-03-29T11:01:28.971Z</time></trkpt><trkpt lat="45.4797393" lon="10.4827692"><ele>223.0</ele><time>2026-03-29T11:01:29.97Z</time></trkpt><trkpt lat="45.479713" lon="10.4826545"><ele>223.4</ele><time>2026-03-29T11:01:30.971Z</time></trkpt><trkpt lat="45.4796934" lon="10.4825489"><ele>223.8</ele><time>2026-03-29T11:01:31.971Z</time></trkpt><trkpt lat="45.4796758" lon="10.4823876"><ele>224.2</ele><time>2026-03-29T11:01:33.971Z</time></trkpt><trkpt lat="45.4796645" lon="10.4822675"><ele>224.6</ele><time>2026-03-29T11:01:35.97Z</time></trkpt><trkpt lat="45.4796725" lon="10.4821119"><ele>225.0</ele><time>2026-03-29T11:01:37.97Z</time></trkpt><trkpt lat="45.4796645" lon="10.4820163"><ele>225.0</ele><time>2026-03-29T11:01:38.97Z</time></trkpt><trkpt lat="45.4796182" lon="10.4818545"><ele>225.0</ele><time>2026-03-29T11:01:40.97Z</time></trkpt><trkpt lat="45.4795512" lon="10.4817025"><ele>225.0</ele><time>2026-03-29T11:01:42.97Z</time></trkpt><trkpt lat="45.4795204" lon="10.4816199"><ele>225.0</ele><time>2026-03-29T11:01:43.971Z</time></trkpt><trkpt lat="45.4794818" lon="10.481539"><ele>225.0</ele><time>2026-03-29T11:01:44.97Z</time></trkpt><trkpt lat="45.4794398" lon="10.4814464"><ele>224.83333333333334</ele><time>2026-03-29T11:01:45.971Z</time></trkpt><trkpt lat="45.4793998" lon="10.4813388"><ele>224.66666666666669</ele><time>2026-03-29T11:01:46.971Z</time></trkpt><trkpt lat="45.4793586" lon="10.4812211"><ele>224.5</ele><time>2026-03-29T11:01:47.971Z</time></trkpt><trkpt lat="45.4793241" lon="10.4811019"><ele>224.33333333333334</ele><time>2026-03-29T11:01:48.971Z</time></trkpt><trkpt lat="45.479286" lon="10.480979"><ele>224.16666666666669</ele><time>2026-03-29T11:01:49.97Z</time></trkpt><trkpt lat="45.4792559" lon="10.4808652"><ele>224.0</ele><time>2026-03-29T11:01:50.971Z</time></trkpt><trkpt lat="45.4792349" lon="10.4807635"><ele>222.39999999999998</ele><time>2026-03-29T11:01:51.97Z</time></trkpt><trkpt lat="45.4792094" lon="10.4806324"><ele>220.79999999999998</ele><time>2026-03-29T11:01:53.971Z</time></trkpt><trkpt lat="45.4791514" lon="10.480571"><ele>219.20000000000002</ele><time>2026-03-29T11:01:56.971Z</time></trkpt><trkpt lat="45.4790512" lon="10.4805605"><ele>217.60000000000002</ele><time>2026-03-29T11:01:59.971Z</time></trkpt><trkpt lat="45.4789406" lon="10.480543"><ele>216.0</ele><time>2026-03-29T11:02:01.971Z</time></trkpt><trkpt lat="45.4788574" lon="10.4805348"><ele>216.0</ele><time>2026-03-29T11:02:02.97Z</time></trkpt><trkpt lat="45.4787696" lon="10.4805306"><ele>216.00000000000003</ele><time>2026-03-29T11:02:03.971Z</time></trkpt><trkpt lat="45.4786748" lon="10.4805028"><ele>216.00000000000003</ele><time>2026-03-29T11:02:04.971Z</time></trkpt><trkpt lat="45.478572" lon="10.480466"><ele>216.0</ele><time>2026-03-29T11:02:05.971Z</time></trkpt><trkpt lat="45.4784928" lon="10.4804222"><ele>216.0</ele><time>2026-03-29T11:02:06.971Z</time></trkpt><trkpt lat="45.4784144" lon="10.4803055"><ele>215.66666666666666</ele><time>2026-03-29T11:02:08.971Z</time></trkpt><trkpt lat="45.4784184" lon="10.4801946"><ele>215.33333333333331</ele><time>2026-03-29T11:02:09.97Z</time></trkpt><trkpt lat="45.4784046" lon="10.4800599"><ele>215.0</ele><time>2026-03-29T11:02:10.971Z</time></trkpt><trkpt lat="45.4783797" lon="10.47994"><ele>214.66666666666666</ele><time>2026-03-29T11:02:11.971Z</time></trkpt><trkpt lat="45.478332" lon="10.4798507"><ele>214.33333333333331</ele><time>2026-03-29T11:02:12.971Z</time></trkpt><trkpt lat="45.4782655" lon="10.4797858"><ele>214.0</ele><time>2026-03-29T11:02:13.97Z</time></trkpt><trkpt lat="45.4781745" lon="10.4797434"><ele>214.0</ele><time>2026-03-29T11:02:14.971Z</time></trkpt><trkpt lat="45.4780627" lon="10.4797229"><ele>213.99999999999997</ele><time>2026-03-29T11:02:15.971Z</time></trkpt><trkpt lat="45.477945" lon="10.4797186"><ele>213.99999999999997</ele><time>2026-03-29T11:02:16.97Z</time></trkpt><trkpt lat="45.4778373" lon="10.4797187"><ele>214.0</ele><time>2026-03-29T11:02:17.97Z</time></trkpt><trkpt lat="45.4777321" lon="10.4797045"><ele>214.0</ele><time>2026-03-29T11:02:18.97Z</time></trkpt><trkpt lat="45.4776309" lon="10.4796753"><ele>213.5</ele><time>2026-03-29T11:02:19.97Z</time></trkpt><trkpt lat="45.4775199" lon="10.4796131"><ele>213.0</ele><time>2026-03-29T11:02:20.971Z</time></trkpt><trkpt lat="45.4774121" lon="10.4795303"><ele>212.5</ele><time>2026-03-29T11:02:21.971Z</time></trkpt><trkpt lat="45.4773085" lon="10.4794429"><ele>212.0</ele><time>2026-03-29T11:02:22.97Z</time></trkpt><trkpt lat="45.4772172" lon="10.4793646"><ele>211.39999999999998</ele><time>2026-03-29T11:02:23.971Z</time></trkpt><trkpt lat="45.4771468" lon="10.4792876"><ele>210.79999999999998</ele><time>2026-03-29T11:02:24.971Z</time></trkpt><trkpt lat="45.4770925" lon="10.4791941"><ele>210.2</ele><time>2026-03-29T11:02:25.97Z</time></trkpt><trkpt lat="45.4770567" lon="10.4790558"><ele>209.6</ele><time>2026-03-29T11:02:26.971Z</time></trkpt><trkpt lat="45.477043" lon="10.478917"><ele>209.0</ele><time>2026-03-29T11:02:27.971Z</time></trkpt><trkpt lat="45.4770036" lon="10.4788139"><ele>208.6</ele><time>2026-03-29T11:02:28.971Z</time></trkpt><trkpt lat="45.4769517" lon="10.4786947"><ele>208.2</ele><time>2026-03-29T11:02:29.97Z</time></trkpt><trkpt lat="45.4768495" lon="10.4786321"><ele>207.79999999999998</ele><time>2026-03-29T11:02:30.97Z</time></trkpt><trkpt lat="45.4767592" lon="10.478543"><ele>207.39999999999998</ele><time>2026-03-29T11:02:31.971Z</time></trkpt><trkpt lat="45.4766826" lon="10.4784542"><ele>207.0</ele><time>2026-03-29T11:02:32.971Z</time></trkpt><trkpt lat="45.4765967" lon="10.4783543"><ele>207.0</ele><time>2026-03-29T11:02:33.971Z</time></trkpt><trkpt lat="45.476506" lon="10.4782689"><ele>207.0</ele><time>2026-03-29T11:02:34.97Z</time></trkpt><trkpt lat="45.4764362" lon="10.478209"><ele>207.0</ele><time>2026-03-29T11:02:35.971Z</time></trkpt><trkpt lat="45.476384" lon="10.4781446"><ele>207.0</ele><time>2026-03-29T11:02:36.97Z</time></trkpt><trkpt lat="45.4763221" lon="10.4780669"><ele>207.0</ele><time>2026-03-29T11:02:37.97Z</time></trkpt><trkpt lat="45.4762851" lon="10.4779511"><ele>207.0</ele><time>2026-03-29T11:02:38.97Z</time></trkpt><trkpt lat="45.4762423" lon="10.4778346"><ele>206.0</ele><time>2026-03-29T11:02:39.971Z</time></trkpt><trkpt lat="45.4762074" lon="10.4777332"><ele>205.0</ele><time>2026-03-29T11:02:40.971Z</time></trkpt><trkpt lat="45.4761565" lon="10.4775835"><ele>204.0</ele><time>2026-03-29T11:02:42.97Z</time></trkpt><trkpt lat="45.4761197" lon="10.477503"><ele>203.0</ele><time>2026-03-29T11:02:44.97Z</time></trkpt><trkpt lat="45.4760621" lon="10.4774589"><ele>202.0</ele><time>2026-03-29T11:02:47.971Z</time></trkpt><trkpt lat="45.4759844" lon="10.4775133"><ele>201.0</ele><time>2026-03-29T11:02:49.971Z</time></trkpt><trkpt lat="45.4758802" lon="10.4776067"><ele>201.0</ele><time>2026-03-29T11:02:51.971Z</time></trkpt><trkpt lat="45.4758171" lon="10.4776641"><ele>201.0</ele><time>2026-03-29T11:02:52.971Z</time></trkpt><trkpt lat="45.4757468" lon="10.4777369"><ele>201.0</ele><time>2026-03-29T11:02:53.971Z</time></trkpt><trkpt lat="45.4756667" lon="10.4778081"><ele>201.0</ele><time>2026-03-29T11:02:54.972Z</time></trkpt><trkpt lat="45.4755811" lon="10.4778912"><ele>201.0</ele><time>2026-03-29T11:02:55.97Z</time></trkpt><trkpt lat="45.4754931" lon="10.4779649"><ele>200.4</ele><time>2026-03-29T11:02:56.97Z</time></trkpt><trkpt lat="45.4754158" lon="10.478027"><ele>199.8</ele><time>2026-03-29T11:02:57.97Z</time></trkpt><trkpt lat="45.4753234" lon="10.4780817"><ele>199.20000000000002</ele><time>2026-03-29T11:02:58.97Z</time></trkpt><trkpt lat="45.4752273" lon="10.4781262"><ele>198.60000000000002</ele><time>2026-03-29T11:02:59.971Z</time></trkpt><trkpt lat="45.4751289" lon="10.4781547"><ele>198.0</ele><time>2026-03-29T11:03:00.97Z</time></trkpt><trkpt lat="45.4750331" lon="10.4781693"><ele>198.0</ele><time>2026-03-29T11:03:01.971Z</time></trkpt><trkpt lat="45.4749405" lon="10.4781532"><ele>198.0</ele><time>2026-03-29T11:03:02.97Z</time></trkpt><trkpt lat="45.4748505" lon="10.478114"><ele>198.0</ele><time>2026-03-29T11:03:03.97Z</time></trkpt><trkpt lat="45.4747711" lon="10.4780472"><ele>198.0</ele><time>2026-03-29T11:03:04.971Z</time></trkpt><trkpt lat="45.4747019" lon="10.4779435"><ele>198.0</ele><time>2026-03-29T11:03:05.971Z</time></trkpt><trkpt lat="45.4746557" lon="10.4778041"><ele>197.75</ele><time>2026-03-29T11:03:06.97Z</time></trkpt><trkpt lat="45.4746388" lon="10.4776358"><ele>197.5</ele><time>2026-03-29T11:03:07.97Z</time></trkpt><trkpt lat="45.4746471" lon="10.4774518"><ele>197.25</ele><time>2026-03-29T11:03:08.97Z</time></trkpt><trkpt lat="45.474669" lon="10.4772573"><ele>197.0</ele><time>2026-03-29T11:03:09.971Z</time></trkpt><trkpt lat="45.4746921" lon="10.4770557"><ele>196.33333333333334</ele><time>2026-03-29T11:03:10.972Z</time></trkpt><trkpt lat="45.4747139" lon="10.476848"><ele>195.66666666666669</ele><time>2026-03-29T11:03:11.97Z</time></trkpt><trkpt lat="45.4747362" lon="10.4766344"><ele>195.0</ele><time>2026-03-29T11:03:12.97Z</time></trkpt><trkpt lat="45.474756" lon="10.4764158"><ele>194.33333333333331</ele><time>2026-03-29T11:03:13.971Z</time></trkpt><trkpt lat="45.4747687" lon="10.4761964"><ele>193.66666666666666</ele><time>2026-03-29T11:03:14.972Z</time></trkpt><trkpt lat="45.4747682" lon="10.4759765"><ele>193.0</ele><time>2026-03-29T11:03:15.97Z</time></trkpt><trkpt lat="45.4747527" lon="10.4757546"><ele>193.0</ele><time>2026-03-29T11:03:16.971Z</time></trkpt><trkpt lat="45.4747257" lon="10.475533"><ele>193.0</ele><time>2026-03-29T11:03:17.97Z</time></trkpt><trkpt lat="45.4746936" lon="10.4753121"><ele>193.0</ele><time>2026-03-29T11:03:18.97Z</time></trkpt><trkpt lat="45.4746569" lon="10.4750957"><ele>192.25</ele><time>2026-03-29T11:03:19.97Z</time></trkpt><trkpt lat="45.474618" lon="10.4748919"><ele>191.5</ele><time>2026-03-29T11:03:20.971Z</time></trkpt><trkpt lat="45.4745872" lon="10.4747031"><ele>190.75</ele><time>2026-03-29T11:03:21.971Z</time></trkpt><trkpt lat="45.4745595" lon="10.4745328"><ele>190.0</ele><time>2026-03-29T11:03:22.971Z</time></trkpt><trkpt lat="45.4745332" lon="10.4743748"><ele>188.75</ele><time>2026-03-29T11:03:23.97Z</time></trkpt><trkpt lat="45.4745044" lon="10.4742134"><ele>187.5</ele><time>2026-03-29T11:03:24.971Z</time></trkpt><trkpt lat="45.474468" lon="10.4740465"><ele>186.25</ele><time>2026-03-29T11:03:25.971Z</time></trkpt><trkpt lat="45.4744213" lon="10.473869"><ele>185.0</ele><time>2026-03-29T11:03:26.97Z</time></trkpt><trkpt lat="45.4743714" lon="10.4736916"><ele>184.25</ele><time>2026-03-29T11:03:27.97Z</time></trkpt><trkpt lat="45.474325" lon="10.4735102"><ele>183.5</ele><time>2026-03-29T11:03:28.971Z</time></trkpt><trkpt lat="45.4742746" lon="10.4733219"><ele>182.75</ele><time>2026-03-29T11:03:29.97Z</time></trkpt><trkpt lat="45.4742198" lon="10.4731277"><ele>182.0</ele><time>2026-03-29T11:03:30.971Z</time></trkpt><trkpt lat="45.4741749" lon="10.4729447"><ele>181.75</ele><time>2026-03-29T11:03:31.97Z</time></trkpt><trkpt lat="45.4741257" lon="10.4727783"><ele>181.5</ele><time>2026-03-29T11:03:32.97Z</time></trkpt><trkpt lat="45.4740878" lon="10.4726281"><ele>181.25</ele><time>2026-03-29T11:03:33.971Z</time></trkpt><trkpt lat="45.4740643" lon="10.4724796"><ele>181.0</ele><time>2026-03-29T11:03:34.971Z</time></trkpt><trkpt lat="45.474061" lon="10.4723249"><ele>181.0</ele><time>2026-03-29T11:03:35.971Z</time></trkpt><trkpt lat="45.4740855" lon="10.4721753"><ele>181.0</ele><time>2026-03-29T11:03:36.97Z</time></trkpt><trkpt lat="45.4741466" lon="10.472028"><ele>181.0</ele><time>2026-03-29T11:03:37.971Z</time></trkpt><trkpt lat="45.4742425" lon="10.4719001"><ele>181.0</ele><time>2026-03-29T11:03:38.971Z</time></trkpt><trkpt lat="45.4743619" lon="10.4717997"><ele>180.25</ele><time>2026-03-29T11:03:39.971Z</time></trkpt><trkpt lat="45.4744826" lon="10.4717187"><ele>179.5</ele><time>2026-03-29T11:03:40.971Z</time></trkpt><trkpt lat="45.474595" lon="10.4716423"><ele>178.75</ele><time>2026-03-29T11:03:41.971Z</time></trkpt><trkpt lat="45.4747056" lon="10.4715687"><ele>178.0</ele><time>2026-03-29T11:03:42.97Z</time></trkpt><trkpt lat="45.4748129" lon="10.4714777"><ele>178.0</ele><time>2026-03-29T11:03:43.97Z</time></trkpt><trkpt lat="45.4749042" lon="10.4713711"><ele>178.0</ele><time>2026-03-29T11:03:44.971Z</time></trkpt><trkpt lat="45.4749776" lon="10.471231"><ele>178.0</ele><time>2026-03-29T11:03:45.971Z</time></trkpt><trkpt lat="45.4750362" lon="10.4710633"><ele>178.0</ele><time>2026-03-29T11:03:46.971Z</time></trkpt><trkpt lat="45.4750743" lon="10.4708675"><ele>175.33333333333334</ele><time>2026-03-29T11:03:47.971Z</time></trkpt><trkpt lat="45.4750973" lon="10.470654"><ele>172.66666666666666</ele><time>2026-03-29T11:03:48.971Z</time></trkpt><trkpt lat="45.4751097" lon="10.47043"><ele>170.0</ele><time>2026-03-29T11:03:49.972Z</time></trkpt><trkpt lat="45.4751197" lon="10.4702018"><ele>168.66666666666666</ele><time>2026-03-29T11:03:50.971Z</time></trkpt><trkpt lat="45.4751306" lon="10.4699687"><ele>167.33333333333334</ele><time>2026-03-29T11:03:51.972Z</time></trkpt><trkpt lat="45.4751423" lon="10.4697324"><ele>166.0</ele><time>2026-03-29T11:03:52.971Z</time></trkpt><trkpt lat="45.4751506" lon="10.4694981"><ele>166.0</ele><time>2026-03-29T11:03:53.971Z</time></trkpt><trkpt lat="45.4751558" lon="10.4692728"><ele>166.0</ele><time>2026-03-29T11:03:54.971Z</time></trkpt><trkpt lat="45.4751581" lon="10.469046"><ele>166.0</ele><time>2026-03-29T11:03:55.971Z</time></trkpt><trkpt lat="45.4751606" lon="10.4688219"><ele>165.33333333333334</ele><time>2026-03-29T11:03:56.971Z</time></trkpt><trkpt lat="45.4751688" lon="10.4685853"><ele>164.66666666666666</ele><time>2026-03-29T11:03:57.971Z</time></trkpt><trkpt lat="45.4751814" lon="10.4683509"><ele>164.0</ele><time>2026-03-29T11:03:58.971Z</time></trkpt><trkpt lat="45.4751876" lon="10.4681181"><ele>163.33333333333331</ele><time>2026-03-29T11:03:59.971Z</time></trkpt><trkpt lat="45.4751956" lon="10.4678804"><ele>162.66666666666666</ele><time>2026-03-29T11:04:00.97Z</time></trkpt><trkpt lat="45.4752017" lon="10.4676439"><ele>162.0</ele><time>2026-03-29T11:04:01.971Z</time></trkpt><trkpt lat="45.4752089" lon="10.4674146"><ele>162.0</ele><time>2026-03-29T11:04:02.97Z</time></trkpt><trkpt lat="45.4752203" lon="10.467192"><ele>162.0</ele><time>2026-03-29T11:04:03.971Z</time></trkpt><trkpt lat="45.4752401" lon="10.4669719"><ele>162.0</ele><time>2026-03-29T11:04:04.971Z</time></trkpt><trkpt lat="45.4752575" lon="10.4667573"><ele>161.66666666666666</ele><time>2026-03-29T11:04:05.97Z</time></trkpt><trkpt lat="45.4752764" lon="10.466543"><ele>161.33333333333331</ele><time>2026-03-29T11:04:06.97Z</time></trkpt><trkpt lat="45.4752964" lon="10.466328"><ele>161.0</ele><time>2026-03-29T11:04:07.971Z</time></trkpt><trkpt lat="45.4753162" lon="10.4661165"><ele>160.33333333333331</ele><time>2026-03-29T11:04:08.971Z</time></trkpt><trkpt lat="45.4753333" lon="10.4659021"><ele>159.66666666666666</ele><time>2026-03-29T11:04:09.97Z</time></trkpt><trkpt lat="45.4753545" lon="10.4656821"><ele>159.0</ele><time>2026-03-29T11:04:10.971Z</time></trkpt><trkpt lat="45.475372" lon="10.4654565"><ele>158.66666666666666</ele><time>2026-03-29T11:04:11.972Z</time></trkpt><trkpt lat="45.4753852" lon="10.4652311"><ele>158.33333333333331</ele><time>2026-03-29T11:04:12.971Z</time></trkpt><trkpt lat="45.4753963" lon="10.4650013"><ele>158.0</ele><time>2026-03-29T11:04:13.971Z</time></trkpt><trkpt lat="45.4754053" lon="10.4647671"><ele>157.66666666666666</ele><time>2026-03-29T11:04:14.971Z</time></trkpt><trkpt lat="45.4754067" lon="10.4645331"><ele>157.33333333333334</ele><time>2026-03-29T11:04:15.971Z</time></trkpt><trkpt lat="45.4754042" lon="10.4642949"><ele>157.0</ele><time>2026-03-29T11:04:16.97Z</time></trkpt><trkpt lat="45.4753964" lon="10.4640655"><ele>157.0</ele><time>2026-03-29T11:04:17.971Z</time></trkpt><trkpt lat="45.4753828" lon="10.4638375"><ele>157.0</ele><time>2026-03-29T11:04:18.97Z</time></trkpt><trkpt lat="45.4753709" lon="10.463623"><ele>157.0</ele><time>2026-03-29T11:04:19.97Z</time></trkpt><trkpt lat="45.4753602" lon="10.4634167"><ele>156.75</ele><time>2026-03-29T11:04:20.97Z</time></trkpt><trkpt lat="45.4753603" lon="10.4632226"><ele>156.5</ele><time>2026-03-29T11:04:21.969Z</time></trkpt><trkpt lat="45.4753762" lon="10.4630337"><ele>156.25</ele><time>2026-03-29T11:04:22.969Z</time></trkpt><trkpt lat="45.4754052" lon="10.4628562"><ele>156.0</ele><time>2026-03-29T11:04:23.97Z</time></trkpt><trkpt lat="45.4754563" lon="10.4626989"><ele>155.5</ele><time>2026-03-29T11:04:24.971Z</time></trkpt><trkpt lat="45.4755227" lon="10.4625566"><ele>155.0</ele><time>2026-03-29T11:04:25.969Z</time></trkpt><trkpt lat="45.4756076" lon="10.4624298"><ele>154.5</ele><time>2026-03-29T11:04:26.969Z</time></trkpt><trkpt lat="45.4757025" lon="10.4623175"><ele>154.0</ele><time>2026-03-29T11:04:27.97Z</time></trkpt><trkpt lat="45.4757924" lon="10.462211"><ele>154.0</ele><time>2026-03-29T11:04:28.97Z</time></trkpt><trkpt lat="45.4758741" lon="10.4620854"><ele>154.0</ele><time>2026-03-29T11:04:29.97Z</time></trkpt><trkpt lat="45.4759385" lon="10.4619463"><ele>154.0</ele><time>2026-03-29T11:04:30.97Z</time></trkpt><trkpt lat="45.4759979" lon="10.461807"><ele>154.0</ele><time>2026-03-29T11:04:31.969Z</time></trkpt><trkpt lat="45.4760581" lon="10.461665"><ele>154.0</ele><time>2026-03-29T11:04:32.97Z</time></trkpt><trkpt lat="45.476116" lon="10.4615205"><ele>154.0</ele><time>2026-03-29T11:04:33.969Z</time></trkpt><trkpt lat="45.4761691" lon="10.4613728"><ele>154.0</ele><time>2026-03-29T11:04:34.97Z</time></trkpt><trkpt lat="45.4762209" lon="10.4612236"><ele>154.0</ele><time>2026-03-29T11:04:35.97Z</time></trkpt><trkpt lat="45.476266" lon="10.4610752"><ele>154.2</ele><time>2026-03-29T11:04:36.97Z</time></trkpt><trkpt lat="45.4763069" lon="10.4609298"><ele>154.4</ele><time>2026-03-29T11:04:37.97Z</time></trkpt><trkpt lat="45.476345" lon="10.4607856"><ele>154.6</ele><time>2026-03-29T11:04:38.97Z</time></trkpt><trkpt lat="45.4763827" lon="10.4606391"><ele>154.8</ele><time>2026-03-29T11:04:39.97Z</time></trkpt><trkpt lat="45.4764126" lon="10.4604972"><ele>155.0</ele><time>2026-03-29T11:04:40.971Z</time></trkpt><trkpt lat="45.4764403" lon="10.4603549"><ele>155.0</ele><time>2026-03-29T11:04:41.971Z</time></trkpt><trkpt lat="45.4764695" lon="10.4602077"><ele>155.0</ele><time>2026-03-29T11:04:42.969Z</time></trkpt><trkpt lat="45.4765057" lon="10.4600624"><ele>155.0</ele><time>2026-03-29T11:04:43.97Z</time></trkpt><trkpt lat="45.4765476" lon="10.4599084"><ele>155.0</ele><time>2026-03-29T11:04:44.97Z</time></trkpt><trkpt lat="45.4765932" lon="10.4597555"><ele>155.0</ele><time>2026-03-29T11:04:45.969Z</time></trkpt><trkpt lat="45.4766387" lon="10.4596061"><ele>155.0</ele><time>2026-03-29T11:04:46.97Z</time></trkpt><trkpt lat="45.4766805" lon="10.4594634"><ele>155.0</ele><time>2026-03-29T11:04:47.969Z</time></trkpt><trkpt lat="45.4767259" lon="10.4593137"><ele>155.0</ele><time>2026-03-29T11:04:48.97Z</time></trkpt><trkpt lat="45.4767674" lon="10.4591663"><ele>155.0</ele><time>2026-03-29T11:04:49.969Z</time></trkpt><trkpt lat="45.4768101" lon="10.4590131"><ele>155.0</ele><time>2026-03-29T11:04:50.97Z</time></trkpt><trkpt lat="45.4768487" lon="10.4588646"><ele>155.0</ele><time>2026-03-29T11:04:51.969Z</time></trkpt><trkpt lat="45.4768806" lon="10.4587258"><ele>155.0</ele><time>2026-03-29T11:04:52.97Z</time></trkpt><trkpt lat="45.4769085" lon="10.4585882"><ele>155.0</ele><time>2026-03-29T11:04:53.969Z</time></trkpt><trkpt lat="45.4769348" lon="10.4584501"><ele>155.0</ele><time>2026-03-29T11:04:54.97Z</time></trkpt><trkpt lat="45.4769607" lon="10.4583133"><ele>155.0</ele><time>2026-03-29T11:04:55.97Z</time></trkpt><trkpt lat="45.4769842" lon="10.4581906"><ele>155.0</ele><time>2026-03-29T11:04:56.969Z</time></trkpt><trkpt lat="45.4770073" lon="10.4580733"><ele>155.0</ele><time>2026-03-29T11:04:57.969Z</time></trkpt><trkpt lat="45.4770383" lon="10.4579471"><ele>155.0</ele><time>2026-03-29T11:04:58.97Z</time></trkpt><trkpt lat="45.4770643" lon="10.4578075"><ele>155.0</ele><time>2026-03-29T11:04:59.97Z</time></trkpt><trkpt lat="45.4770839" lon="10.4576519"><ele>154.5</ele><time>2026-03-29T11:05:00.969Z</time></trkpt><trkpt lat="45.477111" lon="10.4574834"><ele>154.0</ele><time>2026-03-29T11:05:01.97Z</time></trkpt><trkpt lat="45.477144" lon="10.4573136"><ele>153.5</ele><time>2026-03-29T11:05:02.969Z</time></trkpt><trkpt lat="45.4771784" lon="10.4571356"><ele>153.0</ele><time>2026-03-29T11:05:03.971Z</time></trkpt><trkpt lat="45.4772178" lon="10.4569504"><ele>153.0</ele><time>2026-03-29T11:05:04.969Z</time></trkpt><trkpt lat="45.4772592" lon="10.4567684"><ele>153.0</ele><time>2026-03-29T11:05:05.97Z</time></trkpt><trkpt lat="45.4773046" lon="10.4565906"><ele>153.0</ele><time>2026-03-29T11:05:06.97Z</time></trkpt><trkpt lat="45.4773433" lon="10.4564328"><ele>153.0</ele><time>2026-03-29T11:05:07.969Z</time></trkpt><trkpt lat="45.4773812" lon="10.4562946"><ele>153.20000000000002</ele><time>2026-03-29T11:05:08.97Z</time></trkpt><trkpt lat="45.4774297" lon="10.4561794"><ele>153.4</ele><time>2026-03-29T11:05:09.971Z</time></trkpt><trkpt lat="45.4774912" lon="10.4560786"><ele>153.60000000000002</ele><time>2026-03-29T11:05:10.969Z</time></trkpt><trkpt lat="45.4775714" lon="10.4559856"><ele>153.8</ele><time>2026-03-29T11:05:11.97Z</time></trkpt><trkpt lat="45.4776605" lon="10.4558917"><ele>154.0</ele><time>2026-03-29T11:05:12.971Z</time></trkpt><trkpt lat="45.4777535" lon="10.4557892"><ele>154.0</ele><time>2026-03-29T11:05:13.969Z</time></trkpt><trkpt lat="45.4778437" lon="10.4556798"><ele>154.0</ele><time>2026-03-29T11:05:14.969Z</time></trkpt><trkpt lat="45.4779391" lon="10.4555643"><ele>154.0</ele><time>2026-03-29T11:05:15.97Z</time></trkpt><trkpt lat="45.4780344" lon="10.4554471"><ele>154.0</ele><time>2026-03-29T11:05:16.97Z</time></trkpt><trkpt lat="45.4781344" lon="10.4553243"><ele>153.25</ele><time>2026-03-29T11:05:17.969Z</time></trkpt><trkpt lat="45.4782338" lon="10.4551943"><ele>152.5</ele><time>2026-03-29T11:05:18.97Z</time></trkpt><trkpt lat="45.4783347" lon="10.4550627"><ele>151.75</ele><time>2026-03-29T11:05:19.969Z</time></trkpt><trkpt lat="45.4784427" lon="10.4549238"><ele>151.0</ele><time>2026-03-29T11:05:20.97Z</time></trkpt><trkpt lat="45.4785525" lon="10.4547827"><ele>151.0</ele><time>2026-03-29T11:05:21.97Z</time></trkpt><trkpt lat="45.4786621" lon="10.4546495"><ele>151.0</ele><time>2026-03-29T11:05:22.97Z</time></trkpt><trkpt lat="45.4787793" lon="10.4545114"><ele>151.0</ele><time>2026-03-29T11:05:23.97Z</time></trkpt><trkpt lat="45.4788906" lon="10.4543737"><ele>151.0</ele><time>2026-03-29T11:05:24.97Z</time></trkpt><trkpt lat="45.4790023" lon="10.4542288"><ele>151.0</ele><time>2026-03-29T11:05:25.969Z</time></trkpt><trkpt lat="45.4791154" lon="10.4540843"><ele>151.0</ele><time>2026-03-29T11:05:26.97Z</time></trkpt><trkpt lat="45.4792325" lon="10.4539477"><ele>151.0</ele><time>2026-03-29T11:05:27.969Z</time></trkpt><trkpt lat="45.4793541" lon="10.4538194"><ele>151.0</ele><time>2026-03-29T11:05:28.97Z</time></trkpt><trkpt lat="45.4794817" lon="10.4536951"><ele>151.0</ele><time>2026-03-29T11:05:29.97Z</time></trkpt><trkpt lat="45.4796073" lon="10.4535843"><ele>151.0</ele><time>2026-03-29T11:05:30.969Z</time></trkpt><trkpt lat="45.4797302" lon="10.4534831"><ele>151.0</ele><time>2026-03-29T11:05:31.971Z</time></trkpt><trkpt lat="45.4798443" lon="10.4533907"><ele>151.2</ele><time>2026-03-29T11:05:32.97Z</time></trkpt><trkpt lat="45.4799404" lon="10.4533237"><ele>151.39999999999998</ele><time>2026-03-29T11:05:33.969Z</time></trkpt><trkpt lat="45.4800142" lon="10.4532884"><ele>151.6</ele><time>2026-03-29T11:05:34.969Z</time></trkpt><trkpt lat="45.4801375" lon="10.4532813"><ele>151.79999999999998</ele><time>2026-03-29T11:05:36.971Z</time></trkpt><trkpt lat="45.4802101" lon="10.4532973"><ele>152.0</ele><time>2026-03-29T11:05:37.97Z</time></trkpt><trkpt lat="45.480295" lon="10.453315"><ele>152.0</ele><time>2026-03-29T11:05:38.97Z</time></trkpt><trkpt lat="45.4803849" lon="10.4533273"><ele>152.0</ele><time>2026-03-29T11:05:39.969Z</time></trkpt><trkpt lat="45.4804813" lon="10.4533409"><ele>152.0</ele><time>2026-03-29T11:05:40.97Z</time></trkpt><trkpt lat="45.4805845" lon="10.4533604"><ele>152.0</ele><time>2026-03-29T11:05:41.97Z</time></trkpt><trkpt lat="45.4806912" lon="10.4533753"><ele>152.0</ele><time>2026-03-29T11:05:42.97Z</time></trkpt><trkpt lat="45.4808039" lon="10.4533932"><ele>152.0</ele><time>2026-03-29T11:05:43.969Z</time></trkpt><trkpt lat="45.4809235" lon="10.4534104"><ele>152.0</ele><time>2026-03-29T11:05:44.97Z</time></trkpt><trkpt lat="45.4810457" lon="10.4534294"><ele>152.0</ele><time>2026-03-29T11:05:45.97Z</time></trkpt><trkpt lat="45.4811682" lon="10.4534504"><ele>152.0</ele><time>2026-03-29T11:05:46.969Z</time></trkpt><trkpt lat="45.4812858" lon="10.4534683"><ele>152.0</ele><time>2026-03-29T11:05:47.97Z</time></trkpt><trkpt lat="45.4813935" lon="10.4534868"><ele>152.0</ele><time>2026-03-29T11:05:48.971Z</time></trkpt><trkpt lat="45.4815098" lon="10.4535008"><ele>152.0</ele><time>2026-03-29T11:05:49.97Z</time></trkpt><trkpt lat="45.4816327" lon="10.4535157"><ele>152.0</ele><time>2026-03-29T11:05:50.969Z</time></trkpt><trkpt lat="45.4817586" lon="10.4535365"><ele>152.0</ele><time>2026-03-29T11:05:51.97Z</time></trkpt><trkpt lat="45.4818832" lon="10.4535588"><ele>152.0</ele><time>2026-03-29T11:05:52.97Z</time></trkpt><trkpt lat="45.4820096" lon="10.4535805"><ele>152.0</ele><time>2026-03-29T11:05:53.97Z</time></trkpt><trkpt lat="45.4821387" lon="10.4536006"><ele>152.0</ele><time>2026-03-29T11:05:54.97Z</time></trkpt><trkpt lat="45.4822679" lon="10.4536196"><ele>152.0</ele><time>2026-03-29T11:05:55.969Z</time></trkpt><trkpt lat="45.4823988" lon="10.4536367"><ele>152.0</ele><time>2026-03-29T11:05:56.97Z</time></trkpt><trkpt lat="45.4825263" lon="10.4536565"><ele>152.0</ele><time>2026-03-29T11:05:57.97Z</time></trkpt><trkpt lat="45.4826523" lon="10.4536774"><ele>152.0</ele><time>2026-03-29T11:05:58.97Z</time></trkpt><trkpt lat="45.4827793" lon="10.4536977"><ele>152.0</ele><time>2026-03-29T11:05:59.97Z</time></trkpt><trkpt lat="45.4829066" lon="10.4537151"><ele>152.0</ele><time>2026-03-29T11:06:00.97Z</time></trkpt><trkpt lat="45.4830339" lon="10.4537322"><ele>152.0</ele><time>2026-03-29T11:06:01.97Z</time></trkpt><trkpt lat="45.483162" lon="10.4537513"><ele>152.0</ele><time>2026-03-29T11:06:02.969Z</time></trkpt><trkpt lat="45.4832931" lon="10.4537713"><ele>152.25</ele><time>2026-03-29T11:06:03.97Z</time></trkpt><trkpt lat="45.4834245" lon="10.4537874"><ele>152.5</ele><time>2026-03-29T11:06:04.969Z</time></trkpt><trkpt lat="45.4835557" lon="10.453808"><ele>152.75</ele><time>2026-03-29T11:06:05.97Z</time></trkpt><trkpt lat="45.483688" lon="10.4538309"><ele>153.0</ele><time>2026-03-29T11:06:06.97Z</time></trkpt><trkpt lat="45.4838225" lon="10.4538491"><ele>153.5</ele><time>2026-03-29T11:06:07.969Z</time></trkpt><trkpt lat="45.4839483" lon="10.4538669"><ele>154.0</ele><time>2026-03-29T11:06:08.97Z</time></trkpt><trkpt lat="45.4840708" lon="10.4538866"><ele>154.5</ele><time>2026-03-29T11:06:09.97Z</time></trkpt><trkpt lat="45.4841923" lon="10.4539075"><ele>155.0</ele><time>2026-03-29T11:06:10.969Z</time></trkpt><trkpt lat="45.4843005" lon="10.4539239"><ele>155.0</ele><time>2026-03-29T11:06:11.969Z</time></trkpt><trkpt lat="45.4843927" lon="10.4539362"><ele>155.0</ele><time>2026-03-29T11:06:12.969Z</time></trkpt><trkpt lat="45.4844725" lon="10.4539442"><ele>155.0</ele><time>2026-03-29T11:06:13.969Z</time></trkpt><trkpt lat="45.4845376" lon="10.4539606"><ele>155.0</ele><time>2026-03-29T11:06:14.97Z</time></trkpt><trkpt lat="45.4846062" lon="10.4540521"><ele>155.0</ele><time>2026-03-29T11:06:16.969Z</time></trkpt><trkpt lat="45.4846037" lon="10.4542477"><ele>155.0</ele><time>2026-03-29T11:06:18.97Z</time></trkpt><trkpt lat="45.484588" lon="10.4543844"><ele>155.0</ele><time>2026-03-29T11:06:19.97Z</time></trkpt><trkpt lat="45.4845766" lon="10.454537"><ele>155.0</ele><time>2026-03-29T11:06:20.97Z</time></trkpt><trkpt lat="45.4845739" lon="10.4547009"><ele>155.0</ele><time>2026-03-29T11:06:21.969Z</time></trkpt><trkpt lat="45.4845699" lon="10.4548642"><ele>155.0</ele><time>2026-03-29T11:06:22.97Z</time></trkpt><trkpt lat="45.4845693" lon="10.4550447"><ele>155.25</ele><time>2026-03-29T11:06:23.969Z</time></trkpt><trkpt lat="45.4845658" lon="10.4552165"><ele>155.5</ele><time>2026-03-29T11:06:24.97Z</time></trkpt><trkpt lat="45.4845639" lon="10.4553932"><ele>155.75</ele><time>2026-03-29T11:06:25.969Z</time></trkpt><trkpt lat="45.484561" lon="10.4555722"><ele>156.0</ele><time>2026-03-29T11:06:26.97Z</time></trkpt><trkpt lat="45.4845595" lon="10.4557488"><ele>156.25</ele><time>2026-03-29T11:06:27.971Z</time></trkpt><trkpt lat="45.4845612" lon="10.4559362"><ele>156.5</ele><time>2026-03-29T11:06:28.969Z</time></trkpt><trkpt lat="45.4845686" lon="10.456123"><ele>156.75</ele><time>2026-03-29T11:06:29.97Z</time></trkpt><trkpt lat="45.4845642" lon="10.4563125"><ele>157.0</ele><time>2026-03-29T11:06:30.97Z</time></trkpt><trkpt lat="45.484565" lon="10.4564999"><ele>157.0</ele><time>2026-03-29T11:06:31.969Z</time></trkpt><trkpt lat="45.4845661" lon="10.4566901"><ele>157.0</ele><time>2026-03-29T11:06:32.97Z</time></trkpt><trkpt lat="45.4845652" lon="10.4568772"><ele>157.0</ele><time>2026-03-29T11:06:33.97Z</time></trkpt><trkpt lat="45.4845647" lon="10.457067"><ele>157.0</ele><time>2026-03-29T11:06:34.97Z</time></trkpt><trkpt lat="45.4845619" lon="10.4572483"><ele>157.0</ele><time>2026-03-29T11:06:35.971Z</time></trkpt><trkpt lat="45.4845564" lon="10.4574286"><ele>157.0</ele><time>2026-03-29T11:06:36.97Z</time></trkpt><trkpt lat="45.484556" lon="10.4576029"><ele>157.0</ele><time>2026-03-29T11:06:37.969Z</time></trkpt><trkpt lat="45.484556" lon="10.4577518"><ele>157.0</ele><time>2026-03-29T11:06:38.97Z</time></trkpt><trkpt lat="45.4845529" lon="10.4578935"><ele>157.2</ele><time>2026-03-29T11:06:39.969Z</time></trkpt><trkpt lat="45.4845393" lon="10.45802"><ele>157.39999999999998</ele><time>2026-03-29T11:06:40.97Z</time></trkpt><trkpt lat="45.4845028" lon="10.4581367"><ele>157.60000000000002</ele><time>2026-03-29T11:06:41.97Z</time></trkpt><trkpt lat="45.4844439" lon="10.4582573"><ele>157.8</ele><time>2026-03-29T11:06:42.97Z</time></trkpt><trkpt lat="45.4843744" lon="10.4583757"><ele>158.0</ele><time>2026-03-29T11:06:43.969Z</time></trkpt><trkpt lat="45.4843068" lon="10.4584782"><ele>158.0</ele><time>2026-03-29T11:06:44.969Z</time></trkpt><trkpt lat="45.4842434" lon="10.4585666"><ele>158.0</ele><time>2026-03-29T11:06:45.97Z</time></trkpt><trkpt lat="45.4841762" lon="10.4586707"><ele>158.0</ele><time>2026-03-29T11:06:46.97Z</time></trkpt><trkpt lat="45.4841032" lon="10.4587795"><ele>158.0</ele><time>2026-03-29T11:06:47.969Z</time></trkpt><trkpt lat="45.4840273" lon="10.4588954"><ele>158.0</ele><time>2026-03-29T11:06:48.97Z</time></trkpt><trkpt lat="45.4839523" lon="10.4590163"><ele>158.5</ele><time>2026-03-29T11:06:49.97Z</time></trkpt><trkpt lat="45.4838844" lon="10.4591223"><ele>159.0</ele><time>2026-03-29T11:06:50.971Z</time></trkpt><trkpt lat="45.483832" lon="10.4592192"><ele>159.5</ele><time>2026-03-29T11:06:51.97Z</time></trkpt><trkpt lat="45.4838002" lon="10.459303"><ele>160.0</ele><time>2026-03-29T11:06:52.969Z</time></trkpt><trkpt lat="45.4837917" lon="10.4593927"><ele>160.5</ele><time>2026-03-29T11:06:53.969Z</time></trkpt><trkpt lat="45.4838162" lon="10.4595073"><ele>161.0</ele><time>2026-03-29T11:06:54.97Z</time></trkpt><trkpt lat="45.4838487" lon="10.4596491"><ele>161.25</ele><time>2026-03-29T11:06:55.97Z</time></trkpt><trkpt lat="45.4838741" lon="10.4598041"><ele>161.5</ele><time>2026-03-29T11:06:56.97Z</time></trkpt><trkpt lat="45.4838954" lon="10.4599727"><ele>161.75</ele><time>2026-03-29T11:06:57.969Z</time></trkpt><trkpt lat="45.4839198" lon="10.4601495"><ele>162.0</ele><time>2026-03-29T11:06:58.97Z</time></trkpt><trkpt lat="45.48394" lon="10.4603385"><ele>162.25</ele><time>2026-03-29T11:06:59.969Z</time></trkpt><trkpt lat="45.4839548" lon="10.460529"><ele>162.5</ele><time>2026-03-29T11:07:00.969Z</time></trkpt><trkpt lat="45.4839629" lon="10.4607225"><ele>162.75</ele><time>2026-03-29T11:07:01.97Z</time></trkpt><trkpt lat="45.4839634" lon="10.4609198"><ele>163.0</ele><time>2026-03-29T11:07:02.97Z</time></trkpt><trkpt lat="45.4839634" lon="10.4611102"><ele>162.8</ele><time>2026-03-29T11:07:03.969Z</time></trkpt><trkpt lat="45.4839589" lon="10.4613016"><ele>162.60000000000002</ele><time>2026-03-29T11:07:04.97Z</time></trkpt><trkpt lat="45.4839552" lon="10.4614612"><ele>162.39999999999998</ele><time>2026-03-29T11:07:05.969Z</time></trkpt><trkpt lat="45.4839467" lon="10.4616"><ele>162.2</ele><time>2026-03-29T11:07:06.97Z</time></trkpt><trkpt lat="45.4839479" lon="10.461714"><ele>162.0</ele><time>2026-03-29T11:07:07.97Z</time></trkpt><trkpt lat="45.4839768" lon="10.4618205"><ele>162.0</ele><time>2026-03-29T11:07:08.969Z</time></trkpt><trkpt lat="45.4840238" lon="10.4619198"><ele>162.0</ele><time>2026-03-29T11:07:09.97Z</time></trkpt><trkpt lat="45.4840794" lon="10.4620407"><ele>162.0</ele><time>2026-03-29T11:07:10.97Z</time></trkpt><trkpt lat="45.484134" lon="10.462175"><ele>162.0</ele><time>2026-03-29T11:07:11.969Z</time></trkpt><trkpt lat="45.4841999" lon="10.4623125"><ele>162.0</ele><time>2026-03-29T11:07:12.97Z</time></trkpt><trkpt lat="45.4842607" lon="10.4624561"><ele>162.2</ele><time>2026-03-29T11:07:13.97Z</time></trkpt><trkpt lat="45.4843066" lon="10.4626088"><ele>162.39999999999998</ele><time>2026-03-29T11:07:14.97Z</time></trkpt><trkpt lat="45.4843555" lon="10.4627564"><ele>162.60000000000002</ele><time>2026-03-29T11:07:15.969Z</time></trkpt><trkpt lat="45.4844149" lon="10.4628964"><ele>162.8</ele><time>2026-03-29T11:07:16.969Z</time></trkpt><trkpt lat="45.4844693" lon="10.463006"><ele>163.0</ele><time>2026-03-29T11:07:17.97Z</time></trkpt><trkpt lat="45.4845175" lon="10.4630815"><ele>163.2</ele><time>2026-03-29T11:07:18.97Z</time></trkpt><trkpt lat="45.4845817" lon="10.4631852"><ele>163.4</ele><time>2026-03-29T11:07:20.969Z</time></trkpt><trkpt lat="45.4846023" lon="10.4633266"><ele>163.6</ele><time>2026-03-29T11:07:22.969Z</time></trkpt><trkpt lat="45.484592" lon="10.4634265"><ele>163.79999999999998</ele><time>2026-03-29T11:07:23.97Z</time></trkpt><trkpt lat="45.4845918" lon="10.4635577"><ele>164.0</ele><time>2026-03-29T11:07:24.97Z</time></trkpt><trkpt lat="45.484605" lon="10.4636955"><ele>164.25</ele><time>2026-03-29T11:07:25.97Z</time></trkpt><trkpt lat="45.484609" lon="10.4638568"><ele>164.5</ele><time>2026-03-29T11:07:26.97Z</time></trkpt><trkpt lat="45.4846214" lon="10.4640187"><ele>164.75</ele><time>2026-03-29T11:07:27.97Z</time></trkpt><trkpt lat="45.4846406" lon="10.4641799"><ele>165.0</ele><time>2026-03-29T11:07:28.969Z</time></trkpt><trkpt lat="45.484658" lon="10.4643439"><ele>165.0</ele><time>2026-03-29T11:07:29.97Z</time></trkpt><trkpt lat="45.4846754" lon="10.4645084"><ele>165.0</ele><time>2026-03-29T11:07:30.97Z</time></trkpt><trkpt lat="45.4846892" lon="10.4646716"><ele>165.0</ele><time>2026-03-29T11:07:31.969Z</time></trkpt><trkpt lat="45.484707" lon="10.4648316"><ele>165.0</ele><time>2026-03-29T11:07:32.969Z</time></trkpt><trkpt lat="45.4847243" lon="10.46499"><ele>165.25</ele><time>2026-03-29T11:07:33.97Z</time></trkpt><trkpt lat="45.4847407" lon="10.4651505"><ele>165.5</ele><time>2026-03-29T11:07:34.969Z</time></trkpt><trkpt lat="45.4847602" lon="10.4653086"><ele>165.75</ele><time>2026-03-29T11:07:35.97Z</time></trkpt><trkpt lat="45.4847816" lon="10.4654735"><ele>166.0</ele><time>2026-03-29T11:07:36.969Z</time></trkpt><trkpt lat="45.484801" lon="10.4656429"><ele>166.25</ele><time>2026-03-29T11:07:37.97Z</time></trkpt><trkpt lat="45.4848214" lon="10.465823"><ele>166.5</ele><time>2026-03-29T11:07:38.97Z</time></trkpt><trkpt lat="45.4848384" lon="10.4660082"><ele>166.75</ele><time>2026-03-29T11:07:39.97Z</time></trkpt><trkpt lat="45.4848565" lon="10.4661957"><ele>167.0</ele><time>2026-03-29T11:07:40.97Z</time></trkpt><trkpt lat="45.4848777" lon="10.4663818"><ele>167.5</ele><time>2026-03-29T11:07:41.969Z</time></trkpt><trkpt lat="45.4849055" lon="10.4665705"><ele>168.0</ele><time>2026-03-29T11:07:42.97Z</time></trkpt><trkpt lat="45.4849378" lon="10.4667598"><ele>168.5</ele><time>2026-03-29T11:07:43.969Z</time></trkpt><trkpt lat="45.4849679" lon="10.4669525"><ele>169.0</ele><time>2026-03-29T11:07:44.97Z</time></trkpt><trkpt lat="45.4849974" lon="10.4671421"><ele>169.0</ele><time>2026-03-29T11:07:45.969Z</time></trkpt><trkpt lat="45.4850183" lon="10.4673378"><ele>169.0</ele><time>2026-03-29T11:07:46.97Z</time></trkpt><trkpt lat="45.4850372" lon="10.467535"><ele>169.0</ele><time>2026-03-29T11:07:47.97Z</time></trkpt><trkpt lat="45.4850537" lon="10.4677335"><ele>169.0</ele><time>2026-03-29T11:07:48.969Z</time></trkpt><trkpt lat="45.4850695" lon="10.4679299"><ele>169.25</ele><time>2026-03-29T11:07:49.97Z</time></trkpt><trkpt lat="45.4850825" lon="10.4681197"><ele>169.5</ele><time>2026-03-29T11:07:50.97Z</time></trkpt><trkpt lat="45.4850942" lon="10.4683079"><ele>169.75</ele><time>2026-03-29T11:07:51.969Z</time></trkpt><trkpt lat="45.4851072" lon="10.468489"><ele>170.0</ele><time>2026-03-29T11:07:52.97Z</time></trkpt><trkpt lat="45.4851191" lon="10.4686726"><ele>170.25</ele><time>2026-03-29T11:07:53.971Z</time></trkpt><trkpt lat="45.485128" lon="10.4688506"><ele>170.5</ele><time>2026-03-29T11:07:54.969Z</time></trkpt><trkpt lat="45.4851337" lon="10.4690253"><ele>170.75</ele><time>2026-03-29T11:07:55.97Z</time></trkpt><trkpt lat="45.4851329" lon="10.4691967"><ele>171.0</ele><time>2026-03-29T11:07:56.969Z</time></trkpt><trkpt lat="45.4851266" lon="10.4693643"><ele>171.0</ele><time>2026-03-29T11:07:57.969Z</time></trkpt><trkpt lat="45.485124" lon="10.469508"><ele>171.0</ele><time>2026-03-29T11:07:58.97Z</time></trkpt><trkpt lat="45.4851284" lon="10.4696524"><ele>171.0</ele><time>2026-03-29T11:07:59.969Z</time></trkpt><trkpt lat="45.4851408" lon="10.4698043"><ele>171.0</ele><time>2026-03-29T11:08:00.969Z</time></trkpt><trkpt lat="45.485165" lon="10.4699623"><ele>171.0</ele><time>2026-03-29T11:08:01.971Z</time></trkpt><trkpt lat="45.4851887" lon="10.4701293"><ele>171.25</ele><time>2026-03-29T11:08:02.969Z</time></trkpt><trkpt lat="45.4852152" lon="10.4702976"><ele>171.5</ele><time>2026-03-29T11:08:03.969Z</time></trkpt><trkpt lat="45.4852418" lon="10.4704683"><ele>171.75</ele><time>2026-03-29T11:08:04.97Z</time></trkpt><trkpt lat="45.485268" lon="10.4706405"><ele>172.0</ele><time>2026-03-29T11:08:05.969Z</time></trkpt><trkpt lat="45.4852892" lon="10.4708185"><ele>172.75</ele><time>2026-03-29T11:08:06.97Z</time></trkpt><trkpt lat="45.4853128" lon="10.4709903"><ele>173.5</ele><time>2026-03-29T11:08:07.969Z</time></trkpt><trkpt lat="45.4853417" lon="10.471157"><ele>174.25</ele><time>2026-03-29T11:08:08.97Z</time></trkpt><trkpt lat="45.4853764" lon="10.4713211"><ele>175.0</ele><time>2026-03-29T11:08:09.97Z</time></trkpt><trkpt lat="45.4854196" lon="10.4714806"><ele>176.25</ele><time>2026-03-29T11:08:10.97Z</time></trkpt><trkpt lat="45.4854612" lon="10.4716292"><ele>177.5</ele><time>2026-03-29T11:08:11.969Z</time></trkpt><trkpt lat="45.4854959" lon="10.4717882"><ele>178.75</ele><time>2026-03-29T11:08:12.969Z</time></trkpt><trkpt lat="45.4855241" lon="10.4719527"><ele>180.0</ele><time>2026-03-29T11:08:13.969Z</time></trkpt><trkpt lat="45.4855565" lon="10.4721027"><ele>180.6</ele><time>2026-03-29T11:08:14.969Z</time></trkpt><trkpt lat="45.4855836" lon="10.472222"><ele>181.2</ele><time>2026-03-29T11:08:15.97Z</time></trkpt><trkpt lat="45.4856112" lon="10.472311"><ele>181.8</ele><time>2026-03-29T11:08:16.969Z</time></trkpt><trkpt lat="45.4856866" lon="10.4723857"><ele>182.4</ele><time>2026-03-29T11:08:18.969Z</time></trkpt><trkpt lat="45.4857738" lon="10.4723588"><ele>183.0</ele><time>2026-03-29T11:08:20.97Z</time></trkpt><trkpt lat="45.4859257" lon="10.4724486"><ele>183.0</ele><time>2026-03-29T11:08:24.97Z</time></trkpt><trkpt lat="45.4860051" lon="10.4725744"><ele>183.0</ele><time>2026-03-29T11:08:26.97Z</time></trkpt><trkpt lat="45.4860779" lon="10.4726127"><ele>183.0</ele><time>2026-03-29T11:08:27.969Z</time></trkpt><trkpt lat="45.4861326" lon="10.4726782"><ele>183.0</ele><time>2026-03-29T11:08:28.969Z</time></trkpt><trkpt lat="45.486191" lon="10.4727961"><ele>183.0</ele><time>2026-03-29T11:08:30.969Z</time></trkpt><trkpt lat="45.4862419" lon="10.4728554"><ele>183.0</ele><time>2026-03-29T11:08:33.969Z</time></trkpt><trkpt lat="45.4863124" lon="10.4729354"><ele>182.25</ele><time>2026-03-29T11:09:07.97Z</time></trkpt><trkpt lat="45.486442" lon="10.4729173"><ele>181.5</ele><time>2026-03-29T11:09:09.969Z</time></trkpt><trkpt lat="45.4865068" lon="10.4728243"><ele>180.75</ele><time>2026-03-29T11:09:10.969Z</time></trkpt><trkpt lat="45.4865801" lon="10.4727031"><ele>180.0</ele><time>2026-03-29T11:09:11.971Z</time></trkpt><trkpt lat="45.4866625" lon="10.4725849"><ele>180.0</ele><time>2026-03-29T11:09:12.969Z</time></trkpt><trkpt lat="45.4867672" lon="10.4724594"><ele>180.0</ele><time>2026-03-29T11:09:13.97Z</time></trkpt><trkpt lat="45.4868799" lon="10.472321"><ele>180.0</ele><time>2026-03-29T11:09:14.97Z</time></trkpt><trkpt lat="45.4869885" lon="10.4721698"><ele>180.0</ele><time>2026-03-29T11:09:15.969Z</time></trkpt><trkpt lat="45.4871052" lon="10.4720065"><ele>179.0</ele><time>2026-03-29T11:09:16.969Z</time></trkpt><trkpt lat="45.487223" lon="10.471836"><ele>178.0</ele><time>2026-03-29T11:09:17.969Z</time></trkpt><trkpt lat="45.4873304" lon="10.4716526"><ele>177.0</ele><time>2026-03-29T11:09:18.969Z</time></trkpt><trkpt lat="45.4874361" lon="10.4714593"><ele>176.66666666666666</ele><time>2026-03-29T11:09:19.97Z</time></trkpt><trkpt lat="45.4875295" lon="10.4712686"><ele>176.33333333333331</ele><time>2026-03-29T11:09:20.969Z</time></trkpt><trkpt lat="45.4876195" lon="10.4710766"><ele>176.0</ele><time>2026-03-29T11:09:21.969Z</time></trkpt><trkpt lat="45.4877107" lon="10.4708942"><ele>176.0</ele><time>2026-03-29T11:09:22.97Z</time></trkpt><trkpt lat="45.4877967" lon="10.4707276"><ele>176.0</ele><time>2026-03-29T11:09:23.97Z</time></trkpt><trkpt lat="45.4878762" lon="10.4705799"><ele>176.0</ele><time>2026-03-29T11:09:24.97Z</time></trkpt><trkpt lat="45.4879463" lon="10.4704509"><ele>176.0</ele><time>2026-03-29T11:09:25.97Z</time></trkpt><trkpt lat="45.4880101" lon="10.4703356"><ele>176.0</ele><time>2026-03-29T11:09:26.97Z</time></trkpt><trkpt lat="45.4880595" lon="10.470231"><ele>176.0</ele><time>2026-03-29T11:09:27.969Z</time></trkpt><trkpt lat="45.4880899" lon="10.4701373"><ele>176.0</ele><time>2026-03-29T11:09:28.969Z</time></trkpt><trkpt lat="45.4880922" lon="10.4700455"><ele>176.0</ele><time>2026-03-29T11:09:29.971Z</time></trkpt><trkpt lat="45.4880679" lon="10.4699486"><ele>176.0</ele><time>2026-03-29T11:09:30.97Z</time></trkpt><trkpt lat="45.4880496" lon="10.4698437"><ele>176.0</ele><time>2026-03-29T11:09:31.969Z</time></trkpt><trkpt lat="45.4880409" lon="10.4697338"><ele>176.0</ele><time>2026-03-29T11:09:32.97Z</time></trkpt><trkpt lat="45.4880383" lon="10.4696121"><ele>176.0</ele><time>2026-03-29T11:09:33.97Z</time></trkpt><trkpt lat="45.4880384" lon="10.4694701"><ele>176.0</ele><time>2026-03-29T11:09:34.97Z</time></trkpt><trkpt lat="45.4880332" lon="10.4693186"><ele>176.0</ele><time>2026-03-29T11:09:35.969Z</time></trkpt><trkpt lat="45.4880308" lon="10.46916"><ele>176.0</ele><time>2026-03-29T11:09:36.969Z</time></trkpt><trkpt lat="45.4880235" lon="10.4689967"><ele>175.5</ele><time>2026-03-29T11:09:37.97Z</time></trkpt><trkpt lat="45.4880149" lon="10.4688325"><ele>175.0</ele><time>2026-03-29T11:09:38.97Z</time></trkpt><trkpt lat="45.4880075" lon="10.4686613"><ele>174.5</ele><time>2026-03-29T11:09:39.97Z</time></trkpt><trkpt lat="45.4880002" lon="10.468486"><ele>174.0</ele><time>2026-03-29T11:09:40.97Z</time></trkpt><trkpt lat="45.4879924" lon="10.468303"><ele>173.5</ele><time>2026-03-29T11:09:41.97Z</time></trkpt><trkpt lat="45.4879799" lon="10.4681153"><ele>173.0</ele><time>2026-03-29T11:09:42.97Z</time></trkpt><trkpt lat="45.4879716" lon="10.4679195"><ele>172.5</ele><time>2026-03-29T11:09:43.97Z</time></trkpt><trkpt lat="45.4879652" lon="10.4677222"><ele>172.0</ele><time>2026-03-29T11:09:44.969Z</time></trkpt><trkpt lat="45.4879548" lon="10.4675195"><ele>172.0</ele><time>2026-03-29T11:09:45.97Z</time></trkpt><trkpt lat="45.4879409" lon="10.4673079"><ele>172.0</ele><time>2026-03-29T11:09:46.969Z</time></trkpt><trkpt lat="45.4879247" lon="10.4670875"><ele>172.0</ele><time>2026-03-29T11:09:47.97Z</time></trkpt><trkpt lat="45.4879131" lon="10.4668632"><ele>172.0</ele><time>2026-03-29T11:09:48.97Z</time></trkpt><trkpt lat="45.4879058" lon="10.4666343"><ele>172.0</ele><time>2026-03-29T11:09:49.97Z</time></trkpt><trkpt lat="45.4879032" lon="10.4664109"><ele>172.0</ele><time>2026-03-29T11:09:50.97Z</time></trkpt><trkpt lat="45.4879" lon="10.4661893"><ele>171.33333333333334</ele><time>2026-03-29T11:09:51.97Z</time></trkpt><trkpt lat="45.4879036" lon="10.4659646"><ele>170.66666666666666</ele><time>2026-03-29T11:09:52.97Z</time></trkpt><trkpt lat="45.4879031" lon="10.4657424"><ele>170.0</ele><time>2026-03-29T11:09:53.969Z</time></trkpt><trkpt lat="45.4879021" lon="10.4655155"><ele>169.66666666666666</ele><time>2026-03-29T11:09:54.97Z</time></trkpt><trkpt lat="45.4879103" lon="10.4652825"><ele>169.33333333333334</ele><time>2026-03-29T11:09:55.969Z</time></trkpt><trkpt lat="45.4879214" lon="10.465047"><ele>169.0</ele><time>2026-03-29T11:09:56.971Z</time></trkpt><trkpt lat="45.4879312" lon="10.4648145"><ele>168.33333333333334</ele><time>2026-03-29T11:09:57.97Z</time></trkpt><trkpt lat="45.4879372" lon="10.4645762"><ele>167.66666666666666</ele><time>2026-03-29T11:09:58.969Z</time></trkpt><trkpt lat="45.4879289" lon="10.4643311"><ele>167.0</ele><time>2026-03-29T11:09:59.97Z</time></trkpt><trkpt lat="45.4879131" lon="10.4640841"><ele>167.0</ele><time>2026-03-29T11:10:00.969Z</time></trkpt><trkpt lat="45.4878956" lon="10.4638391"><ele>167.0</ele><time>2026-03-29T11:10:01.97Z</time></trkpt><trkpt lat="45.4878729" lon="10.4635947"><ele>167.0</ele><time>2026-03-29T11:10:02.97Z</time></trkpt><trkpt lat="45.4878514" lon="10.4633583"><ele>166.66666666666666</ele><time>2026-03-29T11:10:03.969Z</time></trkpt><trkpt lat="45.4878323" lon="10.4631152"><ele>166.33333333333334</ele><time>2026-03-29T11:10:04.97Z</time></trkpt><trkpt lat="45.4878113" lon="10.4628691"><ele>166.0</ele><time>2026-03-29T11:10:05.969Z</time></trkpt><trkpt lat="45.4877837" lon="10.4626249"><ele>165.66666666666669</ele><time>2026-03-29T11:10:06.97Z</time></trkpt><trkpt lat="45.4877583" lon="10.4623733"><ele>165.33333333333334</ele><time>2026-03-29T11:10:07.97Z</time></trkpt><trkpt lat="45.4877284" lon="10.4621298"><ele>165.0</ele><time>2026-03-29T11:10:08.969Z</time></trkpt><trkpt lat="45.4876963" lon="10.4618924"><ele>164.33333333333334</ele><time>2026-03-29T11:10:09.97Z</time></trkpt><trkpt lat="45.4876669" lon="10.4616517"><ele>163.66666666666669</ele><time>2026-03-29T11:10:10.97Z</time></trkpt><trkpt lat="45.4876546" lon="10.4614068"><ele>163.0</ele><time>2026-03-29T11:10:11.969Z</time></trkpt><trkpt lat="45.4876591" lon="10.4611598"><ele>162.66666666666669</ele><time>2026-03-29T11:10:12.97Z</time></trkpt><trkpt lat="45.4876823" lon="10.4609153"><ele>162.33333333333334</ele><time>2026-03-29T11:10:13.969Z</time></trkpt><trkpt lat="45.4877163" lon="10.460663"><ele>162.0</ele><time>2026-03-29T11:10:14.969Z</time></trkpt><trkpt lat="45.4877458" lon="10.460406"><ele>161.66666666666666</ele><time>2026-03-29T11:10:15.97Z</time></trkpt><trkpt lat="45.4877631" lon="10.4601419"><ele>161.33333333333331</ele><time>2026-03-29T11:10:16.97Z</time></trkpt><trkpt lat="45.4877696" lon="10.4598686"><ele>161.0</ele><time>2026-03-29T11:10:17.969Z</time></trkpt><trkpt lat="45.4877654" lon="10.4595897"><ele>161.0</ele><time>2026-03-29T11:10:18.97Z</time></trkpt><trkpt lat="45.487756" lon="10.459303"><ele>161.0</ele><time>2026-03-29T11:10:19.97Z</time></trkpt><trkpt lat="45.487747" lon="10.4590182"><ele>161.0</ele><time>2026-03-29T11:10:20.969Z</time></trkpt><trkpt lat="45.4877421" lon="10.4587332"><ele>160.33333333333331</ele><time>2026-03-29T11:10:21.97Z</time></trkpt><trkpt lat="45.487758" lon="10.4584445"><ele>159.66666666666666</ele><time>2026-03-29T11:10:22.97Z</time></trkpt><trkpt lat="45.4877845" lon="10.4581613"><ele>159.0</ele><time>2026-03-29T11:10:23.97Z</time></trkpt><trkpt lat="45.4878152" lon="10.4578778"><ele>159.0</ele><time>2026-03-29T11:10:24.969Z</time></trkpt><trkpt lat="45.487845" lon="10.4575946"><ele>159.0</ele><time>2026-03-29T11:10:25.97Z</time></trkpt><trkpt lat="45.4878714" lon="10.4573101"><ele>159.0</ele><time>2026-03-29T11:10:26.969Z</time></trkpt><trkpt lat="45.4878879" lon="10.4570221"><ele>159.0</ele><time>2026-03-29T11:10:27.97Z</time></trkpt><trkpt lat="45.4878958" lon="10.4567302"><ele>159.0</ele><time>2026-03-29T11:10:28.97Z</time></trkpt><trkpt lat="45.4878942" lon="10.4564437"><ele>159.0</ele><time>2026-03-29T11:10:29.97Z</time></trkpt><trkpt lat="45.487888" lon="10.4561527"><ele>159.0</ele><time>2026-03-29T11:10:30.969Z</time></trkpt><trkpt lat="45.4878953" lon="10.4558636"><ele>159.0</ele><time>2026-03-29T11:10:31.97Z</time></trkpt><trkpt lat="45.4879097" lon="10.4555756"><ele>159.0</ele><time>2026-03-29T11:10:32.97Z</time></trkpt><trkpt lat="45.4879306" lon="10.4552852"><ele>159.33333333333334</ele><time>2026-03-29T11:10:33.97Z</time></trkpt><trkpt lat="45.4879491" lon="10.4549998"><ele>159.66666666666669</ele><time>2026-03-29T11:10:34.969Z</time></trkpt><trkpt lat="45.487966" lon="10.4547134"><ele>160.0</ele><time>2026-03-29T11:10:35.97Z</time></trkpt><trkpt lat="45.4879815" lon="10.4544294"><ele>160.0</ele><time>2026-03-29T11:10:36.969Z</time></trkpt><trkpt lat="45.4880012" lon="10.4541441"><ele>160.0</ele><time>2026-03-29T11:10:37.97Z</time></trkpt><trkpt lat="45.4880225" lon="10.4538579"><ele>160.0</ele><time>2026-03-29T11:10:38.97Z</time></trkpt><trkpt lat="45.4880456" lon="10.4535685"><ele>159.66666666666669</ele><time>2026-03-29T11:10:39.97Z</time></trkpt><trkpt lat="45.4880722" lon="10.4532828"><ele>159.33333333333334</ele><time>2026-03-29T11:10:40.97Z</time></trkpt><trkpt lat="45.4880973" lon="10.453006"><ele>159.0</ele><time>2026-03-29T11:10:41.97Z</time></trkpt><trkpt lat="45.4881211" lon="10.452732"><ele>158.66666666666666</ele><time>2026-03-29T11:10:42.969Z</time></trkpt><trkpt lat="45.4881531" lon="10.4524599"><ele>158.33333333333331</ele><time>2026-03-29T11:10:43.97Z</time></trkpt><trkpt lat="45.4881992" lon="10.4521978"><ele>158.0</ele><time>2026-03-29T11:10:44.969Z</time></trkpt><trkpt lat="45.4882467" lon="10.4519387"><ele>157.66666666666666</ele><time>2026-03-29T11:10:45.97Z</time></trkpt><trkpt lat="45.4882832" lon="10.4516759"><ele>157.33333333333334</ele><time>2026-03-29T11:10:46.97Z</time></trkpt><trkpt lat="45.4882973" lon="10.4514086"><ele>157.0</ele><time>2026-03-29T11:10:47.97Z</time></trkpt><trkpt lat="45.4882981" lon="10.4511363"><ele>156.66666666666669</ele><time>2026-03-29T11:10:48.97Z</time></trkpt><trkpt lat="45.4883051" lon="10.450861"><ele>156.33333333333334</ele><time>2026-03-29T11:10:49.97Z</time></trkpt><trkpt lat="45.4883099" lon="10.4505858"><ele>156.0</ele><time>2026-03-29T11:10:50.969Z</time></trkpt><trkpt lat="45.4883192" lon="10.4503108"><ele>156.0</ele><time>2026-03-29T11:10:51.97Z</time></trkpt><trkpt lat="45.4883317" lon="10.450038"><ele>156.0</ele><time>2026-03-29T11:10:52.969Z</time></trkpt><trkpt lat="45.4883464" lon="10.4497688"><ele>156.0</ele><time>2026-03-29T11:10:53.97Z</time></trkpt><trkpt lat="45.4883594" lon="10.4495021"><ele>155.66666666666666</ele><time>2026-03-29T11:10:54.97Z</time></trkpt><trkpt lat="45.4883625" lon="10.449239"><ele>155.33333333333331</ele><time>2026-03-29T11:10:55.97Z</time></trkpt><trkpt lat="45.4883467" lon="10.4489743"><ele>155.0</ele><time>2026-03-29T11:10:56.97Z</time></trkpt><trkpt lat="45.4883176" lon="10.4487095"><ele>155.0</ele><time>2026-03-29T11:10:57.97Z</time></trkpt><trkpt lat="45.4882941" lon="10.4484394"><ele>155.0</ele><time>2026-03-29T11:10:58.97Z</time></trkpt><trkpt lat="45.4882934" lon="10.4481666"><ele>155.0</ele><time>2026-03-29T11:10:59.969Z</time></trkpt><trkpt lat="45.4882973" lon="10.4478927"><ele>155.0</ele><time>2026-03-29T11:11:00.97Z</time></trkpt><trkpt lat="45.4883032" lon="10.4476224"><ele>155.0</ele><time>2026-03-29T11:11:01.97Z</time></trkpt><trkpt lat="45.4883113" lon="10.4473522"><ele>155.0</ele><time>2026-03-29T11:11:02.969Z</time></trkpt><trkpt lat="45.4883247" lon="10.4470904"><ele>154.66666666666666</ele><time>2026-03-29T11:11:03.968Z</time></trkpt><trkpt lat="45.4883444" lon="10.4468314"><ele>154.33333333333334</ele><time>2026-03-29T11:11:04.968Z</time></trkpt><trkpt lat="45.4883688" lon="10.4465817"><ele>154.0</ele><time>2026-03-29T11:11:05.968Z</time></trkpt><trkpt lat="45.4883908" lon="10.4463543"><ele>154.25</ele><time>2026-03-29T11:11:06.969Z</time></trkpt><trkpt lat="45.4884144" lon="10.4461493"><ele>154.5</ele><time>2026-03-29T11:11:07.968Z</time></trkpt><trkpt lat="45.4884372" lon="10.4459689"><ele>154.75</ele><time>2026-03-29T11:11:08.968Z</time></trkpt><trkpt lat="45.4884574" lon="10.4458203"><ele>155.0</ele><time>2026-03-29T11:11:09.968Z</time></trkpt><trkpt lat="45.4884778" lon="10.4457144"><ele>155.0</ele><time>2026-03-29T11:11:10.969Z</time></trkpt><trkpt lat="45.4885075" lon="10.4455934"><ele>155.0</ele><time>2026-03-29T11:11:12.969Z</time></trkpt><trkpt lat="45.4885634" lon="10.4455167"><ele>155.0</ele><time>2026-03-29T11:11:15.969Z</time></trkpt><trkpt lat="45.4886762" lon="10.4455775"><ele>155.0</ele><time>2026-03-29T11:11:17.969Z</time></trkpt><trkpt lat="45.4887549" lon="10.4456153"><ele>155.0</ele><time>2026-03-29T11:11:18.968Z</time></trkpt><trkpt lat="45.4888452" lon="10.4456632"><ele>155.5</ele><time>2026-03-29T11:11:19.969Z</time></trkpt><trkpt lat="45.4889402" lon="10.445713"><ele>156.0</ele><time>2026-03-29T11:11:20.969Z</time></trkpt><trkpt lat="45.4890486" lon="10.4457653"><ele>156.5</ele><time>2026-03-29T11:11:21.969Z</time></trkpt><trkpt lat="45.4891665" lon="10.4458186"><ele>157.0</ele><time>2026-03-29T11:11:22.969Z</time></trkpt><trkpt lat="45.4892862" lon="10.4458775"><ele>157.0</ele><time>2026-03-29T11:11:23.968Z</time></trkpt><trkpt lat="45.4894156" lon="10.4459391"><ele>157.0</ele><time>2026-03-29T11:11:24.969Z</time></trkpt><trkpt lat="45.4895521" lon="10.446002"><ele>157.0</ele><time>2026-03-29T11:11:25.969Z</time></trkpt><trkpt lat="45.4896927" lon="10.4460703"><ele>157.0</ele><time>2026-03-29T11:11:26.968Z</time></trkpt><trkpt lat="45.4898365" lon="10.4461357"><ele>157.0</ele><time>2026-03-29T11:11:27.969Z</time></trkpt><trkpt lat="45.4899785" lon="10.4462002"><ele>157.0</ele><time>2026-03-29T11:11:28.969Z</time></trkpt><trkpt lat="45.4901295" lon="10.4462621"><ele>157.0</ele><time>2026-03-29T11:11:29.969Z</time></trkpt><trkpt lat="45.4902838" lon="10.4463129"><ele>157.33333333333334</ele><time>2026-03-29T11:11:30.969Z</time></trkpt><trkpt lat="45.4904422" lon="10.4463581"><ele>157.66666666666666</ele><time>2026-03-29T11:11:31.969Z</time></trkpt><trkpt lat="45.4906045" lon="10.4463952"><ele>158.0</ele><time>2026-03-29T11:11:32.969Z</time></trkpt><trkpt lat="45.4907678" lon="10.446424"><ele>158.0</ele><time>2026-03-29T11:11:33.969Z</time></trkpt><trkpt lat="45.4909327" lon="10.446455"><ele>158.0</ele><time>2026-03-29T11:11:34.969Z</time></trkpt><trkpt lat="45.4910949" lon="10.4464876"><ele>158.0</ele><time>2026-03-29T11:11:35.969Z</time></trkpt><trkpt lat="45.491259" lon="10.4465163"><ele>158.0</ele><time>2026-03-29T11:11:36.969Z</time></trkpt><trkpt lat="45.4914244" lon="10.4465494"><ele>158.0</ele><time>2026-03-29T11:11:37.968Z</time></trkpt><trkpt lat="45.4915889" lon="10.446592"><ele>158.0</ele><time>2026-03-29T11:11:38.969Z</time></trkpt><trkpt lat="45.4917505" lon="10.4466451"><ele>158.0</ele><time>2026-03-29T11:11:39.969Z</time></trkpt><trkpt lat="45.4919102" lon="10.4467052"><ele>158.0</ele><time>2026-03-29T11:11:40.968Z</time></trkpt><trkpt lat="45.4920707" lon="10.4467696"><ele>158.0</ele><time>2026-03-29T11:11:41.968Z</time></trkpt><trkpt lat="45.4922322" lon="10.4468352"><ele>158.66666666666666</ele><time>2026-03-29T11:11:42.968Z</time></trkpt><trkpt lat="45.4923931" lon="10.4469023"><ele>159.33333333333334</ele><time>2026-03-29T11:11:43.969Z</time></trkpt><trkpt lat="45.492554" lon="10.4469675"><ele>160.0</ele><time>2026-03-29T11:11:44.969Z</time></trkpt><trkpt lat="45.4927163" lon="10.4470367"><ele>160.0</ele><time>2026-03-29T11:11:45.968Z</time></trkpt><trkpt lat="45.4928799" lon="10.4471009"><ele>160.0</ele><time>2026-03-29T11:11:46.969Z</time></trkpt><trkpt lat="45.493044" lon="10.4471674"><ele>160.0</ele><time>2026-03-29T11:11:47.97Z</time></trkpt><trkpt lat="45.4932079" lon="10.4472379"><ele>160.33333333333334</ele><time>2026-03-29T11:11:48.969Z</time></trkpt><trkpt lat="45.4933733" lon="10.4473091"><ele>160.66666666666666</ele><time>2026-03-29T11:11:49.968Z</time></trkpt><trkpt lat="45.49354" lon="10.4473799"><ele>161.0</ele><time>2026-03-29T11:11:50.968Z</time></trkpt><trkpt lat="45.4937076" lon="10.4474487"><ele>161.0</ele><time>2026-03-29T11:11:51.969Z</time></trkpt><trkpt lat="45.4938751" lon="10.4475178"><ele>161.0</ele><time>2026-03-29T11:11:52.969Z</time></trkpt><trkpt lat="45.4940431" lon="10.4475878"><ele>161.0</ele><time>2026-03-29T11:11:53.97Z</time></trkpt><trkpt lat="45.494212" lon="10.4476591"><ele>161.0</ele><time>2026-03-29T11:11:54.968Z</time></trkpt><trkpt lat="45.4943806" lon="10.4477298"><ele>161.0</ele><time>2026-03-29T11:11:55.969Z</time></trkpt><trkpt lat="45.4945475" lon="10.4477984"><ele>161.0</ele><time>2026-03-29T11:11:56.968Z</time></trkpt><trkpt lat="45.4947098" lon="10.4478606"><ele>161.5</ele><time>2026-03-29T11:11:57.969Z</time></trkpt><trkpt lat="45.4948566" lon="10.447916"><ele>162.0</ele><time>2026-03-29T11:11:58.969Z</time></trkpt><trkpt lat="45.4949869" lon="10.4479688"><ele>162.5</ele><time>2026-03-29T11:11:59.969Z</time></trkpt><trkpt lat="45.4950989" lon="10.4480168"><ele>163.0</ele><time>2026-03-29T11:12:00.968Z</time></trkpt><trkpt lat="45.4951959" lon="10.4480539"><ele>163.0</ele><time>2026-03-29T11:12:01.968Z</time></trkpt><trkpt lat="45.4952752" lon="10.4480649"><ele>163.0</ele><time>2026-03-29T11:12:02.969Z</time></trkpt><trkpt lat="45.4953776" lon="10.4479916"><ele>163.0</ele><time>2026-03-29T11:12:04.969Z</time></trkpt><trkpt lat="45.4954255" lon="10.4478153"><ele>163.0</ele><time>2026-03-29T11:12:06.969Z</time></trkpt><trkpt lat="45.4954502" lon="10.447683"><ele>163.0</ele><time>2026-03-29T11:12:07.968Z</time></trkpt><trkpt lat="45.4954743" lon="10.4475389"><ele>163.0</ele><time>2026-03-29T11:12:08.969Z</time></trkpt><trkpt lat="45.4955017" lon="10.4473768"><ele>163.0</ele><time>2026-03-29T11:12:09.969Z</time></trkpt><trkpt lat="45.4955409" lon="10.4472158"><ele>163.0</ele><time>2026-03-29T11:12:10.969Z</time></trkpt><trkpt lat="45.4955785" lon="10.4470718"><ele>163.0</ele><time>2026-03-29T11:12:11.969Z</time></trkpt><trkpt lat="45.4956174" lon="10.4469544"><ele>163.0</ele><time>2026-03-29T11:12:12.97Z</time></trkpt><trkpt lat="45.4956867" lon="10.4468386"><ele>163.4</ele><time>2026-03-29T11:12:14.969Z</time></trkpt><trkpt lat="45.4957736" lon="10.446804"><ele>163.8</ele><time>2026-03-29T11:12:16.968Z</time></trkpt><trkpt lat="45.4958927" lon="10.4467888"><ele>164.2</ele><time>2026-03-29T11:12:18.969Z</time></trkpt><trkpt lat="45.4959649" lon="10.4467756"><ele>164.6</ele><time>2026-03-29T11:12:19.968Z</time></trkpt><trkpt lat="45.4960579" lon="10.4466593"><ele>165.0</ele><time>2026-03-29T11:12:21.968Z</time></trkpt><trkpt lat="45.4961301" lon="10.4465493"><ele>165.0</ele><time>2026-03-29T11:12:22.969Z</time></trkpt><trkpt lat="45.496216" lon="10.4464249"><ele>165.0</ele><time>2026-03-29T11:12:23.969Z</time></trkpt><trkpt lat="45.4963118" lon="10.4463052"><ele>165.0</ele><time>2026-03-29T11:12:24.969Z</time></trkpt><trkpt lat="45.4964065" lon="10.446184"><ele>165.0</ele><time>2026-03-29T11:12:25.968Z</time></trkpt><trkpt lat="45.4965036" lon="10.4460626"><ele>164.5</ele><time>2026-03-29T11:12:26.968Z</time></trkpt><trkpt lat="45.4965964" lon="10.4459452"><ele>164.0</ele><time>2026-03-29T11:12:27.969Z</time></trkpt><trkpt lat="45.4966782" lon="10.4458225"><ele>163.5</ele><time>2026-03-29T11:12:28.969Z</time></trkpt><trkpt lat="45.4967524" lon="10.445677"><ele>163.0</ele><time>2026-03-29T11:12:29.968Z</time></trkpt><trkpt lat="45.496821" lon="10.4455552"><ele>162.75</ele><time>2026-03-29T11:12:30.968Z</time></trkpt><trkpt lat="45.4969008" lon="10.445425"><ele>162.5</ele><time>2026-03-29T11:12:31.968Z</time></trkpt><trkpt lat="45.4969838" lon="10.4452997"><ele>162.25</ele><time>2026-03-29T11:12:32.968Z</time></trkpt><trkpt lat="45.4970696" lon="10.4451655"><ele>162.0</ele><time>2026-03-29T11:12:33.968Z</time></trkpt><trkpt lat="45.4971588" lon="10.4450264"><ele>161.75</ele><time>2026-03-29T11:12:34.968Z</time></trkpt><trkpt lat="45.4972468" lon="10.4448911"><ele>161.5</ele><time>2026-03-29T11:12:35.969Z</time></trkpt><trkpt lat="45.4973396" lon="10.4447617"><ele>161.25</ele><time>2026-03-29T11:12:36.969Z</time></trkpt><trkpt lat="45.497439" lon="10.4446346"><ele>161.0</ele><time>2026-03-29T11:12:37.969Z</time></trkpt><trkpt lat="45.497546" lon="10.4445135"><ele>161.0</ele><time>2026-03-29T11:12:38.969Z</time></trkpt><trkpt lat="45.4976575" lon="10.4444056"><ele>161.0</ele><time>2026-03-29T11:12:39.969Z</time></trkpt><trkpt lat="45.4977668" lon="10.4443041"><ele>161.0</ele><time>2026-03-29T11:12:40.969Z</time></trkpt><trkpt lat="45.4978642" lon="10.4442199"><ele>161.0</ele><time>2026-03-29T11:12:41.968Z</time></trkpt><trkpt lat="45.4979598" lon="10.444138"><ele>162.0</ele><time>2026-03-29T11:12:42.968Z</time></trkpt><trkpt lat="45.4980578" lon="10.4440577"><ele>163.0</ele><time>2026-03-29T11:12:43.968Z</time></trkpt><trkpt lat="45.4981564" lon="10.4439822"><ele>164.0</ele><time>2026-03-29T11:12:44.968Z</time></trkpt><trkpt lat="45.4982573" lon="10.4439016"><ele>165.0</ele><time>2026-03-29T11:12:45.969Z</time></trkpt><trkpt lat="45.4983617" lon="10.4438159"><ele>165.0</ele><time>2026-03-29T11:12:46.968Z</time></trkpt><trkpt lat="45.4984634" lon="10.4437169"><ele>165.0</ele><time>2026-03-29T11:12:47.969Z</time></trkpt><trkpt lat="45.498554" lon="10.4436016"><ele>165.0</ele><time>2026-03-29T11:12:48.968Z</time></trkpt><trkpt lat="45.4986407" lon="10.4434744"><ele>165.0</ele><time>2026-03-29T11:12:49.969Z</time></trkpt><trkpt lat="45.4987255" lon="10.4433403"><ele>165.25</ele><time>2026-03-29T11:12:50.969Z</time></trkpt><trkpt lat="45.4988134" lon="10.4432118"><ele>165.5</ele><time>2026-03-29T11:12:51.969Z</time></trkpt><trkpt lat="45.4989083" lon="10.4430857"><ele>165.75</ele><time>2026-03-29T11:12:52.968Z</time></trkpt><trkpt lat="45.4989997" lon="10.4429537"><ele>166.0</ele><time>2026-03-29T11:12:53.968Z</time></trkpt><trkpt lat="45.4990904" lon="10.44282"><ele>166.25</ele><time>2026-03-29T11:12:54.968Z</time></trkpt><trkpt lat="45.4991858" lon="10.4426847"><ele>166.5</ele><time>2026-03-29T11:12:55.969Z</time></trkpt><trkpt lat="45.4992746" lon="10.4425569"><ele>166.75</ele><time>2026-03-29T11:12:56.969Z</time></trkpt><trkpt lat="45.4993668" lon="10.4424279"><ele>167.0</ele><time>2026-03-29T11:12:57.969Z</time></trkpt><trkpt lat="45.4994562" lon="10.4423048"><ele>167.0</ele><time>2026-03-29T11:12:58.97Z</time></trkpt><trkpt lat="45.4995407" lon="10.442186"><ele>167.0</ele><time>2026-03-29T11:12:59.969Z</time></trkpt><trkpt lat="45.4996176" lon="10.4420797"><ele>167.0</ele><time>2026-03-29T11:13:00.968Z</time></trkpt><trkpt lat="45.4996856" lon="10.4419901"><ele>167.0</ele><time>2026-03-29T11:13:01.97Z</time></trkpt><trkpt lat="45.4997505" lon="10.4419142"><ele>167.0</ele><time>2026-03-29T11:13:02.969Z</time></trkpt><trkpt lat="45.4998165" lon="10.4418547"><ele>166.8</ele><time>2026-03-29T11:13:03.968Z</time></trkpt><trkpt lat="45.4999011" lon="10.4417911"><ele>166.6</ele><time>2026-03-29T11:13:04.969Z</time></trkpt><trkpt lat="45.4999933" lon="10.4417181"><ele>166.4</ele><time>2026-03-29T11:13:05.968Z</time></trkpt><trkpt lat="45.5000862" lon="10.4416094"><ele>166.20000000000002</ele><time>2026-03-29T11:13:06.969Z</time></trkpt><trkpt lat="45.500163" lon="10.4414776"><ele>166.0</ele><time>2026-03-29T11:13:07.969Z</time></trkpt><trkpt lat="45.5002309" lon="10.4413367"><ele>165.8</ele><time>2026-03-29T11:13:08.97Z</time></trkpt><trkpt lat="45.5002799" lon="10.4411953"><ele>165.60000000000002</ele><time>2026-03-29T11:13:09.97Z</time></trkpt><trkpt lat="45.500333" lon="10.4410727"><ele>165.4</ele><time>2026-03-29T11:13:10.968Z</time></trkpt><trkpt lat="45.5003973" lon="10.4410015"><ele>165.2</ele><time>2026-03-29T11:13:11.968Z</time></trkpt><trkpt lat="45.5004679" lon="10.4409626"><ele>165.0</ele><time>2026-03-29T11:13:12.968Z</time></trkpt><trkpt lat="45.5005551" lon="10.4409795"><ele>165.0</ele><time>2026-03-29T11:13:13.968Z</time></trkpt><trkpt lat="45.5006532" lon="10.4410198"><ele>165.0</ele><time>2026-03-29T11:13:14.969Z</time></trkpt><trkpt lat="45.5007577" lon="10.4410633"><ele>165.0</ele><time>2026-03-29T11:13:15.969Z</time></trkpt><trkpt lat="45.5008719" lon="10.4410805"><ele>165.0</ele><time>2026-03-29T11:13:16.968Z</time></trkpt><trkpt lat="45.5009953" lon="10.4410822"><ele>165.0</ele><time>2026-03-29T11:13:17.969Z</time></trkpt><trkpt lat="45.5011241" lon="10.4410823"><ele>164.75</ele><time>2026-03-29T11:13:18.97Z</time></trkpt><trkpt lat="45.5012544" lon="10.4410789"><ele>164.5</ele><time>2026-03-29T11:13:19.968Z</time></trkpt><trkpt lat="45.5013833" lon="10.4410733"><ele>164.25</ele><time>2026-03-29T11:13:20.968Z</time></trkpt><trkpt lat="45.5015106" lon="10.4410663"><ele>164.0</ele><time>2026-03-29T11:13:21.969Z</time></trkpt><trkpt lat="45.50163" lon="10.441046"><ele>164.0</ele><time>2026-03-29T11:13:22.97Z</time></trkpt><trkpt lat="45.5017325" lon="10.441036"><ele>164.0</ele><time>2026-03-29T11:13:23.968Z</time></trkpt><trkpt lat="45.5018196" lon="10.4410578"><ele>164.0</ele><time>2026-03-29T11:13:24.969Z</time></trkpt><trkpt lat="45.5018835" lon="10.4411112"><ele>164.0</ele><time>2026-03-29T11:13:25.97Z</time></trkpt><trkpt lat="45.5019137" lon="10.4412014"><ele>164.0</ele><time>2026-03-29T11:13:26.968Z</time></trkpt><trkpt lat="45.5019496" lon="10.4412913"><ele>164.0</ele><time>2026-03-29T11:13:27.969Z</time></trkpt><trkpt lat="45.5019238" lon="10.4414742"><ele>164.25</ele><time>2026-03-29T11:13:28.968Z</time></trkpt><trkpt lat="45.5019216" lon="10.4416412"><ele>164.5</ele><time>2026-03-29T11:13:29.969Z</time></trkpt><trkpt lat="45.5019262" lon="10.4418183"><ele>164.75</ele><time>2026-03-29T11:13:30.968Z</time></trkpt><trkpt lat="45.5019294" lon="10.4420051"><ele>165.0</ele><time>2026-03-29T11:13:31.969Z</time></trkpt><trkpt lat="45.5019317" lon="10.4421818"><ele>165.2</ele><time>2026-03-29T11:13:32.969Z</time></trkpt><trkpt lat="45.5019375" lon="10.4423242"><ele>165.4</ele><time>2026-03-29T11:13:33.969Z</time></trkpt><trkpt lat="45.5019526" lon="10.4424373"><ele>165.60000000000002</ele><time>2026-03-29T11:13:34.969Z</time></trkpt><trkpt lat="45.502013" lon="10.4425537"><ele>165.8</ele><time>2026-03-29T11:13:36.968Z</time></trkpt><trkpt lat="45.5021197" lon="10.442568"><ele>166.0</ele><time>2026-03-29T11:13:38.969Z</time></trkpt><trkpt lat="45.5022047" lon="10.4425471"><ele>166.16666666666669</ele><time>2026-03-29T11:13:39.968Z</time></trkpt><trkpt lat="45.5022949" lon="10.4425319"><ele>166.33333333333334</ele><time>2026-03-29T11:13:40.968Z</time></trkpt><trkpt lat="45.5023828" lon="10.4425144"><ele>166.5</ele><time>2026-03-29T11:13:41.968Z</time></trkpt><trkpt lat="45.5024586" lon="10.4425032"><ele>166.66666666666666</ele><time>2026-03-29T11:13:42.968Z</time></trkpt><trkpt lat="45.5025343" lon="10.4425019"><ele>166.83333333333331</ele><time>2026-03-29T11:13:43.968Z</time></trkpt><trkpt lat="45.5025988" lon="10.4425026"><ele>167.0</ele><time>2026-03-29T11:13:44.968Z</time></trkpt><trkpt lat="45.5026838" lon="10.4425205"><ele>167.0</ele><time>2026-03-29T11:13:46.968Z</time></trkpt><trkpt lat="45.5027725" lon="10.4425384"><ele>167.0</ele><time>2026-03-29T11:13:48.968Z</time></trkpt><trkpt lat="45.502844" lon="10.442591"><ele>167.0</ele><time>2026-03-29T11:13:50.968Z</time></trkpt><trkpt lat="45.5028362" lon="10.4427316"><ele>167.0</ele><time>2026-03-29T11:13:52.969Z</time></trkpt><trkpt lat="45.5027992" lon="10.4428227"><ele>167.0</ele><time>2026-03-29T11:13:53.969Z</time></trkpt><trkpt lat="45.5027563" lon="10.4429405"><ele>167.0</ele><time>2026-03-29T11:13:54.968Z</time></trkpt><trkpt lat="45.5027133" lon="10.4430844"><ele>167.0</ele><time>2026-03-29T11:13:55.969Z</time></trkpt><trkpt lat="45.5026643" lon="10.4432428"><ele>167.0</ele><time>2026-03-29T11:13:56.969Z</time></trkpt><trkpt lat="45.5026157" lon="10.4434075"><ele>167.0</ele><time>2026-03-29T11:13:57.968Z</time></trkpt><trkpt lat="45.5025595" lon="10.4435782"><ele>167.0</ele><time>2026-03-29T11:13:58.969Z</time></trkpt><trkpt lat="45.5024971" lon="10.4437475"><ele>166.75</ele><time>2026-03-29T11:13:59.969Z</time></trkpt><trkpt lat="45.502429" lon="10.4439266"><ele>166.5</ele><time>2026-03-29T11:14:00.969Z</time></trkpt><trkpt lat="45.5023504" lon="10.4441133"><ele>166.25</ele><time>2026-03-29T11:14:01.969Z</time></trkpt><trkpt lat="45.5022685" lon="10.4442931"><ele>166.0</ele><time>2026-03-29T11:14:02.968Z</time></trkpt><trkpt lat="45.5021869" lon="10.4444791"><ele>166.33333333333334</ele><time>2026-03-29T11:14:03.968Z</time></trkpt><trkpt lat="45.5020981" lon="10.4446657"><ele>166.66666666666666</ele><time>2026-03-29T11:14:04.969Z</time></trkpt><trkpt lat="45.5020107" lon="10.4448545"><ele>167.0</ele><time>2026-03-29T11:14:05.969Z</time></trkpt><trkpt lat="45.5019253" lon="10.4450403"><ele>167.0</ele><time>2026-03-29T11:14:06.968Z</time></trkpt><trkpt lat="45.5018393" lon="10.4452264"><ele>167.0</ele><time>2026-03-29T11:14:07.969Z</time></trkpt><trkpt lat="45.5017549" lon="10.4454049"><ele>167.0</ele><time>2026-03-29T11:14:08.968Z</time></trkpt><trkpt lat="45.5016681" lon="10.4455848"><ele>167.5</ele><time>2026-03-29T11:14:09.969Z</time></trkpt><trkpt lat="45.5015826" lon="10.445762"><ele>168.0</ele><time>2026-03-29T11:14:10.97Z</time></trkpt><trkpt lat="45.5015041" lon="10.4459428"><ele>168.5</ele><time>2026-03-29T11:14:11.968Z</time></trkpt><trkpt lat="45.5014391" lon="10.4461094"><ele>169.0</ele><time>2026-03-29T11:14:12.968Z</time></trkpt><trkpt lat="45.5013827" lon="10.446261"><ele>169.0</ele><time>2026-03-29T11:14:13.969Z</time></trkpt><trkpt lat="45.5013503" lon="10.4464053"><ele>169.0</ele><time>2026-03-29T11:14:14.969Z</time></trkpt><trkpt lat="45.5013384" lon="10.44656"><ele>169.0</ele><time>2026-03-29T11:14:15.968Z</time></trkpt><trkpt lat="45.5013502" lon="10.4467206"><ele>169.0</ele><time>2026-03-29T11:14:16.968Z</time></trkpt><trkpt lat="45.5013563" lon="10.4468634"><ele>169.0</ele><time>2026-03-29T11:14:17.968Z</time></trkpt><trkpt lat="45.5013328" lon="10.4470014"><ele>169.0</ele><time>2026-03-29T11:14:18.97Z</time></trkpt><trkpt lat="45.5012828" lon="10.4471346"><ele>169.0</ele><time>2026-03-29T11:14:19.969Z</time></trkpt><trkpt lat="45.5012072" lon="10.4472766"><ele>169.0</ele><time>2026-03-29T11:14:20.969Z</time></trkpt><trkpt lat="45.5011196" lon="10.447428"><ele>169.0</ele><time>2026-03-29T11:14:21.968Z</time></trkpt><trkpt lat="45.5010294" lon="10.4476056"><ele>168.66666666666669</ele><time>2026-03-29T11:14:22.97Z</time></trkpt><trkpt lat="45.5009417" lon="10.4477907"><ele>168.33333333333334</ele><time>2026-03-29T11:14:23.968Z</time></trkpt><trkpt lat="45.5008551" lon="10.4479767"><ele>168.0</ele><time>2026-03-29T11:14:24.969Z</time></trkpt><trkpt lat="45.5007737" lon="10.4481656"><ele>168.0</ele><time>2026-03-29T11:14:25.969Z</time></trkpt><trkpt lat="45.5006947" lon="10.4483462"><ele>168.0</ele><time>2026-03-29T11:14:26.969Z</time></trkpt><trkpt lat="45.5006188" lon="10.448534"><ele>168.0</ele><time>2026-03-29T11:14:27.968Z</time></trkpt><trkpt lat="45.50055" lon="10.4487122"><ele>168.0</ele><time>2026-03-29T11:14:28.969Z</time></trkpt><trkpt lat="45.5004889" lon="10.4488687"><ele>168.0</ele><time>2026-03-29T11:14:29.97Z</time></trkpt><trkpt lat="45.5004437" lon="10.4490058"><ele>168.0</ele><time>2026-03-29T11:14:30.969Z</time></trkpt><trkpt lat="45.5004227" lon="10.4491135"><ele>168.0</ele><time>2026-03-29T11:14:31.968Z</time></trkpt><trkpt lat="45.5004249" lon="10.449213"><ele>168.0</ele><time>2026-03-29T11:14:32.969Z</time></trkpt><trkpt lat="45.5004614" lon="10.4493039"><ele>168.0</ele><time>2026-03-29T11:14:33.969Z</time></trkpt><trkpt lat="45.5005211" lon="10.4493941"><ele>168.0</ele><time>2026-03-29T11:14:34.968Z</time></trkpt><trkpt lat="45.500612" lon="10.449491"><ele>168.0</ele><time>2026-03-29T11:14:35.969Z</time></trkpt><trkpt lat="45.5007086" lon="10.4495969"><ele>168.0</ele><time>2026-03-29T11:14:36.969Z</time></trkpt><trkpt lat="45.5008018" lon="10.4496798"><ele>168.0</ele><time>2026-03-29T11:14:37.969Z</time></trkpt><trkpt lat="45.500876" lon="10.4497355"><ele>168.0</ele><time>2026-03-29T11:14:38.969Z</time></trkpt><trkpt lat="45.5009867" lon="10.4497398"><ele>168.0</ele><time>2026-03-29T11:14:40.968Z</time></trkpt><trkpt lat="45.5010677" lon="10.4495668"><ele>168.0</ele><time>2026-03-29T11:14:42.968Z</time></trkpt><trkpt lat="45.5011177" lon="10.4494333"><ele>168.0</ele><time>2026-03-29T11:14:43.969Z</time></trkpt><trkpt lat="45.5011734" lon="10.4493557"><ele>168.0</ele><time>2026-03-29T11:14:44.969Z</time></trkpt><trkpt lat="45.5013075" lon="10.4493202"><ele>168.0</ele><time>2026-03-29T11:14:46.969Z</time></trkpt><trkpt lat="45.5013993" lon="10.4493583"><ele>168.0</ele><time>2026-03-29T11:14:47.969Z</time></trkpt><trkpt lat="45.5015007" lon="10.4494172"><ele>168.25</ele><time>2026-03-29T11:14:48.968Z</time></trkpt><trkpt lat="45.5016174" lon="10.4494826"><ele>168.5</ele><time>2026-03-29T11:14:49.969Z</time></trkpt><trkpt lat="45.5017464" lon="10.4495566"><ele>168.75</ele><time>2026-03-29T11:14:50.968Z</time></trkpt><trkpt lat="45.5018964" lon="10.4496225"><ele>169.0</ele><time>2026-03-29T11:14:51.969Z</time></trkpt><trkpt lat="45.5020424" lon="10.4496874"><ele>169.33333333333334</ele><time>2026-03-29T11:14:52.969Z</time></trkpt><trkpt lat="45.5021993" lon="10.4497404"><ele>169.66666666666666</ele><time>2026-03-29T11:14:53.968Z</time></trkpt><trkpt lat="45.5023557" lon="10.4497759"><ele>170.0</ele><time>2026-03-29T11:14:54.968Z</time></trkpt><trkpt lat="45.5025197" lon="10.449798"><ele>170.0</ele><time>2026-03-29T11:14:55.969Z</time></trkpt><trkpt lat="45.5026767" lon="10.4498251"><ele>170.0</ele><time>2026-03-29T11:14:56.969Z</time></trkpt><trkpt lat="45.5028149" lon="10.4498414"><ele>170.0</ele><time>2026-03-29T11:14:57.968Z</time></trkpt><trkpt lat="45.5029481" lon="10.4498503"><ele>170.0</ele><time>2026-03-29T11:14:58.968Z</time></trkpt><trkpt lat="45.5030777" lon="10.44985"><ele>170.0</ele><time>2026-03-29T11:14:59.968Z</time></trkpt><trkpt lat="45.5032052" lon="10.4498244"><ele>170.0</ele><time>2026-03-29T11:15:00.968Z</time></trkpt><trkpt lat="45.5033321" lon="10.4497619"><ele>170.0</ele><time>2026-03-29T11:15:01.97Z</time></trkpt><trkpt lat="45.5034598" lon="10.4496725"><ele>170.0</ele><time>2026-03-29T11:15:02.969Z</time></trkpt><trkpt lat="45.5035955" lon="10.449579"><ele>170.0</ele><time>2026-03-29T11:15:03.969Z</time></trkpt><trkpt lat="45.5037331" lon="10.4494898"><ele>170.0</ele><time>2026-03-29T11:15:04.969Z</time></trkpt><trkpt lat="45.5038797" lon="10.4493982"><ele>170.0</ele><time>2026-03-29T11:15:05.968Z</time></trkpt><trkpt lat="45.5040263" lon="10.4493077"><ele>170.33333333333331</ele><time>2026-03-29T11:15:06.97Z</time></trkpt><trkpt lat="45.5041749" lon="10.4492206"><ele>170.66666666666666</ele><time>2026-03-29T11:15:07.969Z</time></trkpt><trkpt lat="45.5043263" lon="10.4491391"><ele>171.0</ele><time>2026-03-29T11:15:08.969Z</time></trkpt><trkpt lat="45.5044787" lon="10.4490651"><ele>171.66666666666666</ele><time>2026-03-29T11:15:09.968Z</time></trkpt><trkpt lat="45.5046341" lon="10.4490065"><ele>172.33333333333331</ele><time>2026-03-29T11:15:10.968Z</time></trkpt><trkpt lat="45.5047844" lon="10.4489461"><ele>173.0</ele><time>2026-03-29T11:15:11.968Z</time></trkpt><trkpt lat="45.504937" lon="10.4488783"><ele>173.0</ele><time>2026-03-29T11:15:12.968Z</time></trkpt><trkpt lat="45.5050909" lon="10.4488201"><ele>173.0</ele><time>2026-03-29T11:15:13.969Z</time></trkpt><trkpt lat="45.5052374" lon="10.4487681"><ele>173.0</ele><time>2026-03-29T11:15:14.968Z</time></trkpt><trkpt lat="45.5053801" lon="10.4487169"><ele>173.2</ele><time>2026-03-29T11:15:15.969Z</time></trkpt><trkpt lat="45.5055024" lon="10.4486688"><ele>173.4</ele><time>2026-03-29T11:15:16.969Z</time></trkpt><trkpt lat="45.5056078" lon="10.4486262"><ele>173.6</ele><time>2026-03-29T11:15:17.969Z</time></trkpt><trkpt lat="45.5056944" lon="10.4485832"><ele>173.79999999999998</ele><time>2026-03-29T11:15:18.968Z</time></trkpt><trkpt lat="45.5057662" lon="10.4485508"><ele>174.0</ele><time>2026-03-29T11:15:19.969Z</time></trkpt><trkpt lat="45.505858" lon="10.448513"><ele>174.0</ele><time>2026-03-29T11:15:21.968Z</time></trkpt><trkpt lat="45.5059232" lon="10.4485"><ele>174.0</ele><time>2026-03-29T11:15:23.968Z</time></trkpt><trkpt lat="45.5060323" lon="10.448433"><ele>174.0</ele><time>2026-03-29T11:15:25.968Z</time></trkpt><trkpt lat="45.5060969" lon="10.4483788"><ele>174.0</ele><time>2026-03-29T11:15:26.968Z</time></trkpt><trkpt lat="45.5061735" lon="10.4483173"><ele>174.0</ele><time>2026-03-29T11:15:27.97Z</time></trkpt><trkpt lat="45.5062553" lon="10.4482559"><ele>174.0</ele><time>2026-03-29T11:15:28.968Z</time></trkpt><trkpt lat="45.5063359" lon="10.4481949"><ele>174.2</ele><time>2026-03-29T11:15:29.968Z</time></trkpt><trkpt lat="45.5064199" lon="10.4481281"><ele>174.39999999999998</ele><time>2026-03-29T11:15:30.968Z</time></trkpt><trkpt lat="45.5065033" lon="10.4480536"><ele>174.6</ele><time>2026-03-29T11:15:31.969Z</time></trkpt><trkpt lat="45.5065901" lon="10.4479788"><ele>174.8</ele><time>2026-03-29T11:15:32.968Z</time></trkpt><trkpt lat="45.5066784" lon="10.4478988"><ele>175.0</ele><time>2026-03-29T11:15:33.969Z</time></trkpt><trkpt lat="45.5067661" lon="10.4478198"><ele>175.0</ele><time>2026-03-29T11:15:34.969Z</time></trkpt><trkpt lat="45.5068573" lon="10.4477284"><ele>175.0</ele><time>2026-03-29T11:15:35.969Z</time></trkpt><trkpt lat="45.5069505" lon="10.4476417"><ele>175.0</ele><time>2026-03-29T11:15:36.968Z</time></trkpt><trkpt lat="45.5070431" lon="10.4475498"><ele>175.0</ele><time>2026-03-29T11:15:37.969Z</time></trkpt><trkpt lat="45.5071424" lon="10.4474573"><ele>174.75</ele><time>2026-03-29T11:15:38.968Z</time></trkpt><trkpt lat="45.5072411" lon="10.4473703"><ele>174.5</ele><time>2026-03-29T11:15:39.969Z</time></trkpt><trkpt lat="45.5073425" lon="10.4472775"><ele>174.25</ele><time>2026-03-29T11:15:40.968Z</time></trkpt><trkpt lat="45.5074425" lon="10.4471768"><ele>174.0</ele><time>2026-03-29T11:15:41.969Z</time></trkpt><trkpt lat="45.5075468" lon="10.4470653"><ele>174.25</ele><time>2026-03-29T11:15:42.969Z</time></trkpt><trkpt lat="45.507655" lon="10.4469401"><ele>174.5</ele><time>2026-03-29T11:15:43.969Z</time></trkpt><trkpt lat="45.5077638" lon="10.4468123"><ele>174.75</ele><time>2026-03-29T11:15:44.969Z</time></trkpt><trkpt lat="45.507871" lon="10.4466897"><ele>175.0</ele><time>2026-03-29T11:15:45.969Z</time></trkpt><trkpt lat="45.5079805" lon="10.4465705"><ele>175.0</ele><time>2026-03-29T11:15:46.968Z</time></trkpt><trkpt lat="45.5080899" lon="10.4464444"><ele>175.0</ele><time>2026-03-29T11:15:47.969Z</time></trkpt><trkpt lat="45.5082002" lon="10.4463196"><ele>175.0</ele><time>2026-03-29T11:15:48.968Z</time></trkpt><trkpt lat="45.5083115" lon="10.446189"><ele>175.0</ele><time>2026-03-29T11:15:49.968Z</time></trkpt><trkpt lat="45.5084246" lon="10.4460515"><ele>175.0</ele><time>2026-03-29T11:15:50.968Z</time></trkpt><trkpt lat="45.5085386" lon="10.4459156"><ele>175.0</ele><time>2026-03-29T11:15:51.968Z</time></trkpt><trkpt lat="45.5086536" lon="10.4457832"><ele>175.0</ele><time>2026-03-29T11:15:52.969Z</time></trkpt><trkpt lat="45.5087691" lon="10.4456518"><ele>175.0</ele><time>2026-03-29T11:15:53.969Z</time></trkpt><trkpt lat="45.5088856" lon="10.4455171"><ele>175.66666666666669</ele><time>2026-03-29T11:15:54.969Z</time></trkpt><trkpt lat="45.5090051" lon="10.4453849"><ele>176.33333333333334</ele><time>2026-03-29T11:15:55.968Z</time></trkpt><trkpt lat="45.5091276" lon="10.4452487"><ele>177.0</ele><time>2026-03-29T11:15:56.969Z</time></trkpt><trkpt lat="45.5092431" lon="10.4450971"><ele>177.0</ele><time>2026-03-29T11:15:57.968Z</time></trkpt><trkpt lat="45.5093526" lon="10.4449281"><ele>177.0</ele><time>2026-03-29T11:15:58.968Z</time></trkpt><trkpt lat="45.5094488" lon="10.4447484"><ele>177.0</ele><time>2026-03-29T11:15:59.969Z</time></trkpt><trkpt lat="45.5095425" lon="10.4445599"><ele>176.66666666666666</ele><time>2026-03-29T11:16:00.968Z</time></trkpt><trkpt lat="45.5096391" lon="10.4443713"><ele>176.33333333333331</ele><time>2026-03-29T11:16:01.968Z</time></trkpt><trkpt lat="45.5097358" lon="10.4441826"><ele>176.0</ele><time>2026-03-29T11:16:02.969Z</time></trkpt><trkpt lat="45.5098279" lon="10.4439879"><ele>176.0</ele><time>2026-03-29T11:16:03.969Z</time></trkpt><trkpt lat="45.5099205" lon="10.4437919"><ele>176.0</ele><time>2026-03-29T11:16:04.969Z</time></trkpt><trkpt lat="45.510012" lon="10.4435951"><ele>176.0</ele><time>2026-03-29T11:16:05.968Z</time></trkpt><trkpt lat="45.5101019" lon="10.4433942"><ele>176.0</ele><time>2026-03-29T11:16:06.968Z</time></trkpt><trkpt lat="45.5101853" lon="10.4432079"><ele>176.0</ele><time>2026-03-29T11:16:07.969Z</time></trkpt><trkpt lat="45.510263" lon="10.4430472"><ele>176.0</ele><time>2026-03-29T11:16:08.968Z</time></trkpt><trkpt lat="45.5103469" lon="10.4429182"><ele>176.0</ele><time>2026-03-29T11:16:09.969Z</time></trkpt><trkpt lat="45.51044" lon="10.442817"><ele>176.75</ele><time>2026-03-29T11:16:10.969Z</time></trkpt><trkpt lat="45.5105563" lon="10.4427393"><ele>177.5</ele><time>2026-03-29T11:16:11.968Z</time></trkpt><trkpt lat="45.5106853" lon="10.4426883"><ele>178.25</ele><time>2026-03-29T11:16:12.968Z</time></trkpt><trkpt lat="45.5108199" lon="10.4426987"><ele>179.0</ele><time>2026-03-29T11:16:13.969Z</time></trkpt><trkpt lat="45.5109562" lon="10.4427327"><ele>179.0</ele><time>2026-03-29T11:16:14.969Z</time></trkpt><trkpt lat="45.5110794" lon="10.4427395"><ele>179.0</ele><time>2026-03-29T11:16:15.968Z</time></trkpt><trkpt lat="45.5111907" lon="10.4427483"><ele>179.0</ele><time>2026-03-29T11:16:16.969Z</time></trkpt><trkpt lat="45.5112823" lon="10.442794"><ele>179.0</ele><time>2026-03-29T11:16:17.968Z</time></trkpt><trkpt lat="45.5113667" lon="10.4428769"><ele>179.0</ele><time>2026-03-29T11:16:18.969Z</time></trkpt><trkpt lat="45.5114181" lon="10.4429929"><ele>178.6</ele><time>2026-03-29T11:16:19.968Z</time></trkpt><trkpt lat="45.5114453" lon="10.4431247"><ele>178.2</ele><time>2026-03-29T11:16:20.969Z</time></trkpt><trkpt lat="45.511486" lon="10.4432487"><ele>177.79999999999998</ele><time>2026-03-29T11:16:21.969Z</time></trkpt><trkpt lat="45.5115596" lon="10.4433359"><ele>177.39999999999998</ele><time>2026-03-29T11:16:22.968Z</time></trkpt><trkpt lat="45.5116464" lon="10.4433791"><ele>177.0</ele><time>2026-03-29T11:16:23.968Z</time></trkpt><trkpt lat="45.511736" lon="10.4433821"><ele>177.0</ele><time>2026-03-29T11:16:24.969Z</time></trkpt><trkpt lat="45.511827" lon="10.4433711"><ele>177.0</ele><time>2026-03-29T11:16:25.969Z</time></trkpt><trkpt lat="45.5119267" lon="10.4433671"><ele>177.0</ele><time>2026-03-29T11:16:26.968Z</time></trkpt><trkpt lat="45.5120253" lon="10.4433832"><ele>177.0</ele><time>2026-03-29T11:16:27.968Z</time></trkpt><trkpt lat="45.5121257" lon="10.4433731"><ele>177.0</ele><time>2026-03-29T11:16:28.969Z</time></trkpt><trkpt lat="45.5122273" lon="10.443333"><ele>177.16666666666666</ele><time>2026-03-29T11:16:29.969Z</time></trkpt><trkpt lat="45.5123097" lon="10.4432931"><ele>177.33333333333334</ele><time>2026-03-29T11:16:30.969Z</time></trkpt><trkpt lat="45.5123848" lon="10.4432556"><ele>177.5</ele><time>2026-03-29T11:16:31.968Z</time></trkpt><trkpt lat="45.5124539" lon="10.4432376"><ele>177.66666666666669</ele><time>2026-03-29T11:16:32.969Z</time></trkpt><trkpt lat="45.5125181" lon="10.4432345"><ele>177.83333333333334</ele><time>2026-03-29T11:16:33.968Z</time></trkpt><trkpt lat="45.5126113" lon="10.4432357"><ele>178.0</ele><time>2026-03-29T11:16:35.969Z</time></trkpt><trkpt lat="45.5125384" lon="10.4431899"><ele>178.0</ele><time>2026-03-29T11:16:40.969Z</time></trkpt><trkpt lat="45.5124653" lon="10.4432083"><ele>178.0</ele><time>2026-03-29T11:16:41.969Z</time></trkpt><trkpt lat="45.5123778" lon="10.4432448"><ele>178.0</ele><time>2026-03-29T11:16:42.969Z</time></trkpt><trkpt lat="45.5122927" lon="10.4433"><ele>178.0</ele><time>2026-03-29T11:16:43.969Z</time></trkpt><trkpt lat="45.5121972" lon="10.4433546"><ele>178.0</ele><time>2026-03-29T11:16:44.969Z</time></trkpt><trkpt lat="45.512105" lon="10.4433552"><ele>177.8</ele><time>2026-03-29T11:16:45.969Z</time></trkpt><trkpt lat="45.5120213" lon="10.4433065"><ele>177.60000000000002</ele><time>2026-03-29T11:16:46.968Z</time></trkpt><trkpt lat="45.5119616" lon="10.4432315"><ele>177.39999999999998</ele><time>2026-03-29T11:16:47.969Z</time></trkpt><trkpt lat="45.5119318" lon="10.4431227"><ele>177.2</ele><time>2026-03-29T11:16:48.97Z</time></trkpt><trkpt lat="45.5119237" lon="10.4429895"><ele>177.0</ele><time>2026-03-29T11:16:49.969Z</time></trkpt><trkpt lat="45.5119544" lon="10.4428381"><ele>177.0</ele><time>2026-03-29T11:16:50.969Z</time></trkpt><trkpt lat="45.5120112" lon="10.4426877"><ele>177.0</ele><time>2026-03-29T11:16:51.968Z</time></trkpt><trkpt lat="45.5120964" lon="10.4425424"><ele>177.0</ele><time>2026-03-29T11:16:52.97Z</time></trkpt><trkpt lat="45.5122065" lon="10.4423903"><ele>177.0</ele><time>2026-03-29T11:16:53.969Z</time></trkpt><trkpt lat="45.5123144" lon="10.442235"><ele>177.33333333333334</ele><time>2026-03-29T11:16:54.969Z</time></trkpt><trkpt lat="45.5124288" lon="10.4420746"><ele>177.66666666666669</ele><time>2026-03-29T11:16:55.969Z</time></trkpt><trkpt lat="45.5125483" lon="10.441909"><ele>178.0</ele><time>2026-03-29T11:16:56.969Z</time></trkpt><trkpt lat="45.5126741" lon="10.441738"><ele>178.0</ele><time>2026-03-29T11:16:57.968Z</time></trkpt><trkpt lat="45.5128003" lon="10.4415607"><ele>178.0</ele><time>2026-03-29T11:16:58.968Z</time></trkpt><trkpt lat="45.5129275" lon="10.4413741"><ele>178.0</ele><time>2026-03-29T11:16:59.969Z</time></trkpt><trkpt lat="45.5130432" lon="10.4411818"><ele>178.33333333333334</ele><time>2026-03-29T11:17:00.969Z</time></trkpt><trkpt lat="45.51316" lon="10.440976"><ele>178.66666666666666</ele><time>2026-03-29T11:17:01.969Z</time></trkpt><trkpt lat="45.5132731" lon="10.4407675"><ele>179.0</ele><time>2026-03-29T11:17:02.969Z</time></trkpt><trkpt lat="45.5133817" lon="10.4405622"><ele>178.66666666666666</ele><time>2026-03-29T11:17:03.969Z</time></trkpt><trkpt lat="45.5134871" lon="10.4403496"><ele>178.33333333333334</ele><time>2026-03-29T11:17:04.969Z</time></trkpt><trkpt lat="45.5135865" lon="10.440133"><ele>178.0</ele><time>2026-03-29T11:17:05.968Z</time></trkpt><trkpt lat="45.5136812" lon="10.4399125"><ele>178.33333333333334</ele><time>2026-03-29T11:17:06.969Z</time></trkpt><trkpt lat="45.5137721" lon="10.4396912"><ele>178.66666666666666</ele><time>2026-03-29T11:17:07.969Z</time></trkpt><trkpt lat="45.513859" lon="10.4394686"><ele>179.0</ele><time>2026-03-29T11:17:08.969Z</time></trkpt><trkpt lat="45.5139393" lon="10.4392424"><ele>179.33333333333331</ele><time>2026-03-29T11:17:09.969Z</time></trkpt><trkpt lat="45.5140125" lon="10.4390116"><ele>179.66666666666666</ele><time>2026-03-29T11:17:10.968Z</time></trkpt><trkpt lat="45.5140804" lon="10.438777"><ele>180.0</ele><time>2026-03-29T11:17:11.969Z</time></trkpt><trkpt lat="45.5141455" lon="10.4385431"><ele>180.0</ele><time>2026-03-29T11:17:12.969Z</time></trkpt><trkpt lat="45.5142077" lon="10.4383101"><ele>180.0</ele><time>2026-03-29T11:17:13.969Z</time></trkpt><trkpt lat="45.5142686" lon="10.4380772"><ele>180.0</ele><time>2026-03-29T11:17:14.968Z</time></trkpt><trkpt lat="45.5143275" lon="10.4378501"><ele>180.33333333333334</ele><time>2026-03-29T11:17:15.969Z</time></trkpt><trkpt lat="45.5143875" lon="10.437632"><ele>180.66666666666669</ele><time>2026-03-29T11:17:16.968Z</time></trkpt><trkpt lat="45.5144632" lon="10.4374362"><ele>181.0</ele><time>2026-03-29T11:17:17.969Z</time></trkpt><trkpt lat="45.51456" lon="10.4372741"><ele>181.5</ele><time>2026-03-29T11:17:18.969Z</time></trkpt><trkpt lat="45.5146609" lon="10.437127"><ele>182.0</ele><time>2026-03-29T11:17:19.969Z</time></trkpt><trkpt lat="45.5147365" lon="10.4369782"><ele>182.5</ele><time>2026-03-29T11:17:20.968Z</time></trkpt><trkpt lat="45.5147854" lon="10.4368247"><ele>183.0</ele><time>2026-03-29T11:17:21.969Z</time></trkpt><trkpt lat="45.5147984" lon="10.4366552"><ele>183.0</ele><time>2026-03-29T11:17:22.969Z</time></trkpt><trkpt lat="45.5147732" lon="10.4364729"><ele>183.0</ele><time>2026-03-29T11:17:23.969Z</time></trkpt><trkpt lat="45.5147244" lon="10.4362789"><ele>183.0</ele><time>2026-03-29T11:17:24.969Z</time></trkpt><trkpt lat="45.5146849" lon="10.4360637"><ele>183.0</ele><time>2026-03-29T11:17:25.968Z</time></trkpt><trkpt lat="45.5146584" lon="10.435827"><ele>183.0</ele><time>2026-03-29T11:17:26.97Z</time></trkpt><trkpt lat="45.5146483" lon="10.435576"><ele>183.0</ele><time>2026-03-29T11:17:27.97Z</time></trkpt><trkpt lat="45.5146387" lon="10.4353198"><ele>183.0</ele><time>2026-03-29T11:17:28.968Z</time></trkpt><trkpt lat="45.5146297" lon="10.4350562"><ele>182.33333333333334</ele><time>2026-03-29T11:17:29.969Z</time></trkpt><trkpt lat="45.5146212" lon="10.4347964"><ele>181.66666666666669</ele><time>2026-03-29T11:17:30.969Z</time></trkpt><trkpt lat="45.5146104" lon="10.4345235"><ele>181.0</ele><time>2026-03-29T11:17:31.969Z</time></trkpt><trkpt lat="45.5145987" lon="10.4342511"><ele>181.0</ele><time>2026-03-29T11:17:32.968Z</time></trkpt><trkpt lat="45.514585" lon="10.4339706"><ele>181.0</ele><time>2026-03-29T11:17:33.968Z</time></trkpt><trkpt lat="45.5145718" lon="10.4336909"><ele>181.0</ele><time>2026-03-29T11:17:34.969Z</time></trkpt><trkpt lat="45.5145606" lon="10.4334129"><ele>182.0</ele><time>2026-03-29T11:17:35.969Z</time></trkpt><trkpt lat="45.5145491" lon="10.433128"><ele>183.0</ele><time>2026-03-29T11:17:36.969Z</time></trkpt><trkpt lat="45.5145337" lon="10.4328466"><ele>184.0</ele><time>2026-03-29T11:17:37.969Z</time></trkpt><trkpt lat="45.514522" lon="10.4325625"><ele>184.0</ele><time>2026-03-29T11:17:38.969Z</time></trkpt><trkpt lat="45.5145155" lon="10.432275"><ele>184.0</ele><time>2026-03-29T11:17:39.968Z</time></trkpt><trkpt lat="45.5145129" lon="10.4319839"><ele>184.0</ele><time>2026-03-29T11:17:40.969Z</time></trkpt><trkpt lat="45.5145149" lon="10.4316913"><ele>183.66666666666669</ele><time>2026-03-29T11:17:41.968Z</time></trkpt><trkpt lat="45.5145236" lon="10.4313991"><ele>183.33333333333334</ele><time>2026-03-29T11:17:42.969Z</time></trkpt><trkpt lat="45.5145416" lon="10.4311077"><ele>183.0</ele><time>2026-03-29T11:17:43.968Z</time></trkpt><trkpt lat="45.514565" lon="10.4308233"><ele>182.66666666666666</ele><time>2026-03-29T11:17:44.969Z</time></trkpt><trkpt lat="45.5145881" lon="10.4305343"><ele>182.33333333333331</ele><time>2026-03-29T11:17:45.969Z</time></trkpt><trkpt lat="45.5146074" lon="10.4302494"><ele>182.0</ele><time>2026-03-29T11:17:46.968Z</time></trkpt><trkpt lat="45.5146333" lon="10.4299626"><ele>182.66666666666666</ele><time>2026-03-29T11:17:47.969Z</time></trkpt><trkpt lat="45.514659" lon="10.4296751"><ele>183.33333333333334</ele><time>2026-03-29T11:17:48.969Z</time></trkpt><trkpt lat="45.5146855" lon="10.4293878"><ele>184.0</ele><time>2026-03-29T11:17:49.969Z</time></trkpt><trkpt lat="45.5147128" lon="10.4291022"><ele>184.0</ele><time>2026-03-29T11:17:50.968Z</time></trkpt><trkpt lat="45.5147382" lon="10.4288168"><ele>184.0</ele><time>2026-03-29T11:17:51.969Z</time></trkpt><trkpt lat="45.5147617" lon="10.428531"><ele>184.0</ele><time>2026-03-29T11:17:52.968Z</time></trkpt><trkpt lat="45.5147819" lon="10.4282489"><ele>184.0</ele><time>2026-03-29T11:17:53.969Z</time></trkpt><trkpt lat="45.5148035" lon="10.4279631"><ele>184.0</ele><time>2026-03-29T11:17:54.968Z</time></trkpt><trkpt lat="45.5148268" lon="10.4276766"><ele>184.0</ele><time>2026-03-29T11:17:55.968Z</time></trkpt><trkpt lat="45.5148496" lon="10.4273929"><ele>183.33333333333334</ele><time>2026-03-29T11:17:56.969Z</time></trkpt><trkpt lat="45.5148774" lon="10.4271048"><ele>182.66666666666666</ele><time>2026-03-29T11:17:57.969Z</time></trkpt><trkpt lat="45.5149033" lon="10.4268164"><ele>182.0</ele><time>2026-03-29T11:17:58.968Z</time></trkpt><trkpt lat="45.5149289" lon="10.4265256"><ele>182.33333333333331</ele><time>2026-03-29T11:17:59.969Z</time></trkpt><trkpt lat="45.5149553" lon="10.4262323"><ele>182.66666666666666</ele><time>2026-03-29T11:18:00.968Z</time></trkpt><trkpt lat="45.5149817" lon="10.4259377"><ele>183.0</ele><time>2026-03-29T11:18:01.968Z</time></trkpt><trkpt lat="45.5150077" lon="10.4256457"><ele>182.33333333333334</ele><time>2026-03-29T11:18:02.968Z</time></trkpt><trkpt lat="45.5150314" lon="10.425351"><ele>181.66666666666669</ele><time>2026-03-29T11:18:03.968Z</time></trkpt><trkpt lat="45.5150539" lon="10.4250589"><ele>181.0</ele><time>2026-03-29T11:18:04.969Z</time></trkpt><trkpt lat="45.5150728" lon="10.4247697"><ele>180.66666666666669</ele><time>2026-03-29T11:18:05.968Z</time></trkpt><trkpt lat="45.5150918" lon="10.4244837"><ele>180.33333333333334</ele><time>2026-03-29T11:18:06.97Z</time></trkpt><trkpt lat="45.515111" lon="10.4242125"><ele>180.0</ele><time>2026-03-29T11:18:07.968Z</time></trkpt><trkpt lat="45.515133" lon="10.4239625"><ele>180.33333333333334</ele><time>2026-03-29T11:18:08.969Z</time></trkpt><trkpt lat="45.5151575" lon="10.4237331"><ele>180.66666666666669</ele><time>2026-03-29T11:18:09.969Z</time></trkpt><trkpt lat="45.515195" lon="10.4235188"><ele>181.0</ele><time>2026-03-29T11:18:10.968Z</time></trkpt><trkpt lat="45.5152602" lon="10.4233264"><ele>181.0</ele><time>2026-03-29T11:18:11.968Z</time></trkpt><trkpt lat="45.5153325" lon="10.4231587"><ele>181.0</ele><time>2026-03-29T11:18:12.969Z</time></trkpt><trkpt lat="45.5153823" lon="10.4229751"><ele>181.0</ele><time>2026-03-29T11:18:13.967Z</time></trkpt><trkpt lat="45.5153937" lon="10.4227743"><ele>181.0</ele><time>2026-03-29T11:18:14.968Z</time></trkpt><trkpt lat="45.5153631" lon="10.4225782"><ele>181.66666666666669</ele><time>2026-03-29T11:18:15.968Z</time></trkpt><trkpt lat="45.5153147" lon="10.4223704"><ele>182.33333333333334</ele><time>2026-03-29T11:18:16.969Z</time></trkpt><trkpt lat="45.5152878" lon="10.4221334"><ele>183.0</ele><time>2026-03-29T11:18:17.967Z</time></trkpt><trkpt lat="45.5152879" lon="10.4218788"><ele>183.0</ele><time>2026-03-29T11:18:18.968Z</time></trkpt><trkpt lat="45.5152969" lon="10.4216135"><ele>183.0</ele><time>2026-03-29T11:18:19.967Z</time></trkpt><trkpt lat="45.5153084" lon="10.4213397"><ele>183.0</ele><time>2026-03-29T11:18:20.968Z</time></trkpt><trkpt lat="45.5153217" lon="10.4210646"><ele>183.0</ele><time>2026-03-29T11:18:21.967Z</time></trkpt><trkpt lat="45.5153346" lon="10.4207839"><ele>183.0</ele><time>2026-03-29T11:18:22.968Z</time></trkpt><trkpt lat="45.5153495" lon="10.420502"><ele>183.0</ele><time>2026-03-29T11:18:23.967Z</time></trkpt><trkpt lat="45.5153659" lon="10.4202203"><ele>183.0</ele><time>2026-03-29T11:18:24.968Z</time></trkpt><trkpt lat="45.515381" lon="10.4199374"><ele>183.0</ele><time>2026-03-29T11:18:25.968Z</time></trkpt><trkpt lat="45.5153941" lon="10.4196574"><ele>183.0</ele><time>2026-03-29T11:18:26.967Z</time></trkpt><trkpt lat="45.5154032" lon="10.4193805"><ele>183.0</ele><time>2026-03-29T11:18:27.968Z</time></trkpt><trkpt lat="45.5154146" lon="10.4191032"><ele>183.0</ele><time>2026-03-29T11:18:28.967Z</time></trkpt><trkpt lat="45.5154086" lon="10.4188264"><ele>183.0</ele><time>2026-03-29T11:18:29.967Z</time></trkpt><trkpt lat="45.5153862" lon="10.4185499"><ele>183.0</ele><time>2026-03-29T11:18:30.968Z</time></trkpt><trkpt lat="45.5153532" lon="10.4182801"><ele>183.0</ele><time>2026-03-29T11:18:31.968Z</time></trkpt><trkpt lat="45.5153094" lon="10.4180201"><ele>183.0</ele><time>2026-03-29T11:18:32.968Z</time></trkpt><trkpt lat="45.5152442" lon="10.4177765"><ele>182.33333333333334</ele><time>2026-03-29T11:18:33.968Z</time></trkpt><trkpt lat="45.5151702" lon="10.4175375"><ele>181.66666666666669</ele><time>2026-03-29T11:18:34.968Z</time></trkpt><trkpt lat="45.5150816" lon="10.4173086"><ele>181.0</ele><time>2026-03-29T11:18:35.968Z</time></trkpt><trkpt lat="45.5149764" lon="10.4170875"><ele>180.0</ele><time>2026-03-29T11:18:36.968Z</time></trkpt><trkpt lat="45.5148581" lon="10.4168794"><ele>179.0</ele><time>2026-03-29T11:18:37.968Z</time></trkpt><trkpt lat="45.5147145" lon="10.4166873"><ele>178.0</ele><time>2026-03-29T11:18:38.967Z</time></trkpt><trkpt lat="45.5145694" lon="10.4165038"><ele>178.0</ele><time>2026-03-29T11:18:39.968Z</time></trkpt><trkpt lat="45.5144126" lon="10.4163396"><ele>178.0</ele><time>2026-03-29T11:18:40.968Z</time></trkpt><trkpt lat="45.5142477" lon="10.4161907"><ele>178.0</ele><time>2026-03-29T11:18:41.968Z</time></trkpt><trkpt lat="45.5140771" lon="10.4160555"><ele>178.0</ele><time>2026-03-29T11:18:42.968Z</time></trkpt><trkpt lat="45.5139034" lon="10.4159372"><ele>178.0</ele><time>2026-03-29T11:18:43.968Z</time></trkpt><trkpt lat="45.5137378" lon="10.4158363"><ele>178.0</ele><time>2026-03-29T11:18:44.969Z</time></trkpt><trkpt lat="45.5135834" lon="10.4157467"><ele>178.25</ele><time>2026-03-29T11:18:45.968Z</time></trkpt><trkpt lat="45.5134432" lon="10.4156614"><ele>178.5</ele><time>2026-03-29T11:18:46.967Z</time></trkpt><trkpt lat="45.5133185" lon="10.4155803"><ele>178.75</ele><time>2026-03-29T11:18:47.969Z</time></trkpt><trkpt lat="45.5132118" lon="10.4155081"><ele>179.0</ele><time>2026-03-29T11:18:48.968Z</time></trkpt><trkpt lat="45.5131218" lon="10.4154481"><ele>179.0</ele><time>2026-03-29T11:18:49.968Z</time></trkpt><trkpt lat="45.5130515" lon="10.4153842"><ele>179.0</ele><time>2026-03-29T11:18:50.967Z</time></trkpt><trkpt lat="45.5129986" lon="10.4152431"><ele>179.0</ele><time>2026-03-29T11:18:52.968Z</time></trkpt><trkpt lat="45.5130052" lon="10.4151485"><ele>179.0</ele><time>2026-03-29T11:18:53.968Z</time></trkpt><trkpt lat="45.5130341" lon="10.4150405"><ele>179.0</ele><time>2026-03-29T11:18:54.968Z</time></trkpt><trkpt lat="45.5130888" lon="10.414942"><ele>179.0</ele><time>2026-03-29T11:18:55.968Z</time></trkpt><trkpt lat="45.5131628" lon="10.414873"><ele>179.0</ele><time>2026-03-29T11:18:56.967Z</time></trkpt><trkpt lat="45.5132568" lon="10.4148339"><ele>179.0</ele><time>2026-03-29T11:18:57.967Z</time></trkpt><trkpt lat="45.5133565" lon="10.4148142"><ele>179.0</ele><time>2026-03-29T11:18:58.968Z</time></trkpt><trkpt lat="45.5134583" lon="10.4147899"><ele>179.0</ele><time>2026-03-29T11:18:59.967Z</time></trkpt><trkpt lat="45.5135612" lon="10.4147653"><ele>179.0</ele><time>2026-03-29T11:19:00.968Z</time></trkpt><trkpt lat="45.5136599" lon="10.4147317"><ele>180.39999999999998</ele><time>2026-03-29T11:19:01.968Z</time></trkpt><trkpt lat="45.5137468" lon="10.4146918"><ele>181.8</ele><time>2026-03-29T11:19:02.967Z</time></trkpt><trkpt lat="45.5138182" lon="10.414652"><ele>183.2</ele><time>2026-03-29T11:19:03.967Z</time></trkpt><trkpt lat="45.5138957" lon="10.4146347"><ele>184.60000000000002</ele><time>2026-03-29T11:19:04.968Z</time></trkpt><trkpt lat="45.5139924" lon="10.4146712"><ele>186.0</ele><time>2026-03-29T11:19:05.967Z</time></trkpt><trkpt lat="45.514097" lon="10.4147376"><ele>186.0</ele><time>2026-03-29T11:19:06.967Z</time></trkpt><trkpt lat="45.5141796" lon="10.4147884"><ele>186.0</ele><time>2026-03-29T11:19:07.967Z</time></trkpt><trkpt lat="45.514305" lon="10.414912"><ele>186.0</ele><time>2026-03-29T11:19:08.968Z</time></trkpt><trkpt lat="45.5144042" lon="10.4149815"><ele>186.0</ele><time>2026-03-29T11:19:09.967Z</time></trkpt><trkpt lat="45.5145101" lon="10.41504"><ele>186.5</ele><time>2026-03-29T11:19:10.967Z</time></trkpt><trkpt lat="45.5146046" lon="10.4150984"><ele>187.0</ele><time>2026-03-29T11:19:11.968Z</time></trkpt><trkpt lat="45.5146953" lon="10.4151601"><ele>187.5</ele><time>2026-03-29T11:19:12.968Z</time></trkpt><trkpt lat="45.5147933" lon="10.4152573"><ele>188.0</ele><time>2026-03-29T11:19:13.968Z</time></trkpt><trkpt lat="45.5149383" lon="10.4152573"><ele>188.0</ele><time>2026-03-29T11:19:14.968Z</time></trkpt><trkpt lat="45.5150751" lon="10.4152732"><ele>188.0</ele><time>2026-03-29T11:19:15.968Z</time></trkpt><trkpt lat="45.5152188" lon="10.415286"><ele>188.0</ele><time>2026-03-29T11:19:16.968Z</time></trkpt><trkpt lat="45.5153591" lon="10.4152826"><ele>188.0</ele><time>2026-03-29T11:19:17.967Z</time></trkpt><trkpt lat="45.5155051" lon="10.4152646"><ele>189.25</ele><time>2026-03-29T11:19:18.968Z</time></trkpt><trkpt lat="45.5156474" lon="10.4152267"><ele>190.5</ele><time>2026-03-29T11:19:19.968Z</time></trkpt><trkpt lat="45.515785" lon="10.4151756"><ele>191.75</ele><time>2026-03-29T11:19:20.969Z</time></trkpt><trkpt lat="45.5159303" lon="10.4151182"><ele>193.0</ele><time>2026-03-29T11:19:21.968Z</time></trkpt><trkpt lat="45.5160776" lon="10.4150575"><ele>193.0</ele><time>2026-03-29T11:19:22.968Z</time></trkpt><trkpt lat="45.5162219" lon="10.4149956"><ele>193.0</ele><time>2026-03-29T11:19:23.968Z</time></trkpt><trkpt lat="45.5163626" lon="10.4149427"><ele>193.0</ele><time>2026-03-29T11:19:24.967Z</time></trkpt><trkpt lat="45.516493" lon="10.4148945"><ele>193.0</ele><time>2026-03-29T11:19:25.968Z</time></trkpt><trkpt lat="45.5166102" lon="10.4148495"><ele>192.99999999999997</ele><time>2026-03-29T11:19:26.968Z</time></trkpt><trkpt lat="45.5167192" lon="10.4148066"><ele>193.0</ele><time>2026-03-29T11:19:27.967Z</time></trkpt><trkpt lat="45.5167928" lon="10.4147825"><ele>193.0</ele><time>2026-03-29T11:19:28.967Z</time></trkpt><trkpt lat="45.516882" lon="10.4147484"><ele>193.0</ele><time>2026-03-29T11:19:30.968Z</time></trkpt><trkpt lat="45.5169747" lon="10.4147128"><ele>192.99999999999997</ele><time>2026-03-29T11:19:32.968Z</time></trkpt><trkpt lat="45.5170382" lon="10.4146969"><ele>193.0</ele><time>2026-03-29T11:19:33.967Z</time></trkpt><trkpt lat="45.5171045" lon="10.4146856"><ele>193.16666666666666</ele><time>2026-03-29T11:19:34.968Z</time></trkpt><trkpt lat="45.5172119" lon="10.4146806"><ele>193.33333333333331</ele><time>2026-03-29T11:19:36.967Z</time></trkpt><trkpt lat="45.5172696" lon="10.4146152"><ele>193.5</ele><time>2026-03-29T11:19:38.968Z</time></trkpt><trkpt lat="45.5172859" lon="10.4144792"><ele>193.66666666666669</ele><time>2026-03-29T11:19:40.968Z</time></trkpt><trkpt lat="45.5172767" lon="10.4143883"><ele>193.83333333333334</ele><time>2026-03-29T11:19:41.967Z</time></trkpt><trkpt lat="45.5172674" lon="10.4142906"><ele>194.0</ele><time>2026-03-29T11:19:42.967Z</time></trkpt><trkpt lat="45.5172589" lon="10.4141814"><ele>194.50000000000003</ele><time>2026-03-29T11:19:43.968Z</time></trkpt><trkpt lat="45.5172544" lon="10.4140641"><ele>195.0</ele><time>2026-03-29T11:19:44.968Z</time></trkpt><trkpt lat="45.5172412" lon="10.4139332"><ele>195.5</ele><time>2026-03-29T11:19:45.968Z</time></trkpt><trkpt lat="45.5172312" lon="10.4138271"><ele>196.0</ele><time>2026-03-29T11:19:46.967Z</time></trkpt><trkpt lat="45.5172377" lon="10.4136987"><ele>196.50000000000003</ele><time>2026-03-29T11:19:48.968Z</time></trkpt><trkpt lat="45.5172877" lon="10.4136315"><ele>197.0</ele><time>2026-03-29T11:19:50.968Z</time></trkpt><trkpt lat="45.5173735" lon="10.4136298"><ele>197.0</ele><time>2026-03-29T11:19:52.967Z</time></trkpt><trkpt lat="45.5174598" lon="10.4136466"><ele>197.0</ele><time>2026-03-29T11:19:54.967Z</time></trkpt><trkpt lat="45.5175314" lon="10.4136576"><ele>197.0</ele><time>2026-03-29T11:19:56.967Z</time></trkpt><trkpt lat="45.5175754" lon="10.4137391"><ele>197.0</ele><time>2026-03-29T11:20:00.968Z</time></trkpt><trkpt lat="45.5175828" lon="10.4138284"><ele>197.0</ele><time>2026-03-29T11:20:05.968Z</time></trkpt><trkpt lat="45.517669" lon="10.4138595"><ele>197.0</ele><time>2026-03-29T11:20:11.968Z</time></trkpt><trkpt lat="45.5177341" lon="10.413847"><ele>197.0</ele><time>2026-03-29T11:20:13.968Z</time></trkpt><trkpt lat="45.5178001" lon="10.4138491"><ele>197.0</ele><time>2026-03-29T11:20:17.967Z</time></trkpt><trkpt lat="45.5177189" lon="10.4138578"><ele>197.0</ele><time>2026-03-29T11:20:26.967Z</time></trkpt><trkpt lat="45.517628" lon="10.4138538"><ele>197.0</ele><time>2026-03-29T11:20:29.967Z</time></trkpt><trkpt lat="45.5168742" lon="10.413575"><ele>197.0</ele><time>2026-03-29T11:23:39.618Z</time></trkpt><trkpt lat="45.5176232" lon="10.4135166"><ele>197.0</ele><time>2026-03-29T11:30:42.913Z</time></trkpt><trkpt lat="45.5176716" lon="10.4136353"><ele>197.0</ele><time>2026-03-29T11:32:35.97Z</time></trkpt><trkpt lat="45.517625" lon="10.4138557"><ele>197.0</ele><time>2026-03-29T11:32:37.968Z</time></trkpt><trkpt lat="45.5176127" lon="10.4134762"><ele>197.0</ele><time>2026-03-29T11:35:50.966Z</time></trkpt><trkpt lat="45.5175984" lon="10.4135775"><ele>197.0</ele><time>2026-03-29T11:35:59.967Z</time></trkpt><trkpt lat="45.5176101" lon="10.4136672"><ele>197.0</ele><time>2026-03-29T11:36:04.966Z</time></trkpt><trkpt lat="45.5175985" lon="10.4135741"><ele>197.0</ele><time>2026-03-29T11:36:23.966Z</time></trkpt><trkpt lat="45.5176206" lon="10.4134829"><ele>197.0</ele><time>2026-03-29T11:36:30.967Z</time></trkpt><trkpt lat="45.5176769" lon="10.4134169"><ele>197.0</ele><time>2026-03-29T11:36:36.967Z</time></trkpt><trkpt lat="45.517669" lon="10.41332"><ele>197.0</ele><time>2026-03-29T11:36:43.967Z</time></trkpt><trkpt lat="45.5176773" lon="10.4132077"><ele>197.0</ele><time>2026-03-29T11:36:54.967Z</time></trkpt><trkpt lat="45.5176626" lon="10.413297"><ele>197.0</ele><time>2026-03-29T11:43:01.966Z</time></trkpt><trkpt lat="45.5176571" lon="10.4133869"><ele>197.0</ele><time>2026-03-29T11:48:34.964Z</time></trkpt><trkpt lat="45.5176628" lon="10.4134915"><ele>197.0</ele><time>2026-03-29T11:48:40.963Z</time></trkpt><trkpt lat="45.5176515" lon="10.4133"><ele>197.0</ele><time>2026-03-29T11:56:52.963Z</time></trkpt><trkpt lat="45.5174528" lon="10.4133284"><ele>197.0</ele><time>2026-03-29T12:33:31.607Z</time></trkpt><trkpt lat="45.5175484" lon="10.4133811"><ele>197.0</ele><time>2026-03-29T12:35:23.43Z</time></trkpt><trkpt lat="45.5175934" lon="10.4135247"><ele>197.0</ele><time>2026-03-29T12:35:34.621Z</time></trkpt><trkpt lat="45.5170793" lon="10.4135357"><ele>197.0</ele><time>2026-03-29T12:35:49.16Z</time></trkpt><trkpt lat="45.5170375" lon="10.4144028"><ele>197.0</ele><time>2026-03-29T12:36:11.623Z</time></trkpt><trkpt lat="45.5169899" lon="10.4143321"><ele>197.0</ele><time>2026-03-29T12:36:55.916Z</time></trkpt><trkpt lat="45.5174414" lon="10.4137602"><ele>197.0</ele><time>2026-03-29T12:37:56.956Z</time></trkpt></trkseg></trk></gpx>